<?xml version='1.0' encoding='UTF-8'?><gpx version="1.1" creator="JPX - https://github.com/jenetics/jpx" xmlns="http://www.topografix.com/GPX/1/1"><trk><trkseg><trkpt lat="44.82333611797028" lon="9.195925445858302"><ele>412.00000000000006</ele><time>2026-04-27T22:02:55.993Z</time></trkpt><trkpt lat="44.823420219541354" lon="9.195995409450942"><ele>412.0</ele><time>2026-04-27T22:05:43.001Z</time></trkpt><trkpt lat="44.823385165616656" lon="9.195917891137656"><ele>412.0</ele><time>2026-04-27T22:20:08Z</time></trkpt><trkpt lat="44.823379601508144" lon="9.196039998743151"><ele>412.0</ele><time>2026-04-28T05:15:47.999Z</time></trkpt><trkpt lat="44.823398748628364" lon="9.195947898454941"><ele>412.00000000000006</ele><time>2026-04-28T05:28:13.999Z</time></trkpt><trkpt lat="44.82333825597224" lon="9.195915732760144"><ele>412.0</ele><time>2026-04-28T06:00:29Z</time></trkpt><trkpt lat="44.823274603608475" lon="9.195974548695512"><ele>412.0</ele><time>2026-04-28T06:00:35Z</time></trkpt><trkpt lat="44.82341265600546" lon="9.195923470642258"><ele>412.0</ele><time>2026-04-28T06:00:46.015Z</time></trkpt><trkpt lat="44.823470857890015" lon="9.196070471599958"><ele>412.0</ele><time>2026-04-28T06:11:50Z</time></trkpt><trkpt lat="44.82342597205049" lon="9.195967346578923"><ele>412.0</ele><time>2026-04-28T06:12:01.02Z</time></trkpt><trkpt lat="44.82345988665814" lon="9.196052781757425"><ele>412.0</ele><time>2026-04-28T06:13:45.999Z</time></trkpt><trkpt lat="44.82349027787296" lon="9.196145102810855"><ele>412.0</ele><time>2026-04-28T06:13:47.998Z</time></trkpt><trkpt lat="44.823419718885894" lon="9.1961405494585"><ele>412.0</ele><time>2026-04-28T06:13:53Z</time></trkpt><trkpt lat="44.82346289499488" lon="9.195914818051694"><ele>412.0</ele><time>2026-04-28T06:14:34Z</time></trkpt><trkpt lat="44.823520055773855" lon="9.195853996683024"><ele>412.0</ele><time>2026-04-28T06:14:39Z</time></trkpt><trkpt lat="44.82344189135715" lon="9.196029181140533"><ele>412.0</ele><time>2026-04-28T06:14:42.999Z</time></trkpt><trkpt lat="44.823535708125696" lon="9.196247907290036"><ele>412.0</ele><time>2026-04-28T06:14:43.999Z</time></trkpt><trkpt lat="44.82338102803015" lon="9.19612263970464"><ele>412.0</ele><time>2026-04-28T06:14:45.999Z</time></trkpt><trkpt lat="44.823526661270236" lon="9.196178062243236"><ele>412.0</ele><time>2026-04-28T06:16:33Z</time></trkpt><trkpt lat="44.82370523412185" lon="9.195984208423953"><ele>412.0</ele><time>2026-04-28T06:16:47.999Z</time></trkpt><trkpt lat="44.82368767112942" lon="9.195863784847662"><ele>412.0</ele><time>2026-04-28T06:16:48.999Z</time></trkpt><trkpt lat="44.823683775898516" lon="9.195754760819604"><ele>412.0</ele><time>2026-04-28T06:16:49.999Z</time></trkpt><trkpt lat="44.82367598370383" lon="9.1956157327244"><ele>410.8</ele><time>2026-04-28T06:16:50.999Z</time></trkpt><trkpt lat="44.82363509582305" lon="9.195504877908075"><ele>409.6</ele><time>2026-04-28T06:16:51.999Z</time></trkpt><trkpt lat="44.82361432921351" lon="9.195376094328125"><ele>408.40000000000003</ele><time>2026-04-28T06:16:52.999Z</time></trkpt><trkpt lat="44.8235910216371" lon="9.19525369043547"><ele>407.20000000000005</ele><time>2026-04-28T06:16:53.999Z</time></trkpt><trkpt lat="44.8235300863863" lon="9.195156333958254"><ele>406.0</ele><time>2026-04-28T06:16:54.999Z</time></trkpt><trkpt lat="44.8234725091375" lon="9.19501360695707"><ele>406.0</ele><time>2026-04-28T06:16:55.999Z</time></trkpt><trkpt lat="44.82339352404009" lon="9.194902578288938"><ele>406.0</ele><time>2026-04-28T06:16:56.999Z</time></trkpt><trkpt lat="44.8233435310159" lon="9.194782343538941"><ele>406.0</ele><time>2026-04-28T06:16:57.999Z</time></trkpt><trkpt lat="44.823294567490485" lon="9.19466756721953"><ele>406.0</ele><time>2026-04-28T06:16:58.999Z</time></trkpt><trkpt lat="44.823253236919086" lon="9.19459060816908"><ele>406.0</ele><time>2026-04-28T06:16:59.999Z</time></trkpt><trkpt lat="44.82321822958097" lon="9.194484621185241"><ele>406.00000000000006</ele><time>2026-04-28T06:17:00.999Z</time></trkpt><trkpt lat="44.82320919290178" lon="9.194370293817093"><ele>406.0</ele><time>2026-04-28T06:17:01.999Z</time></trkpt><trkpt lat="44.82319125218916" lon="9.194262995084877"><ele>406.0</ele><time>2026-04-28T06:17:02.999Z</time></trkpt><trkpt lat="44.82319495802149" lon="9.194164024761562"><ele>406.0</ele><time>2026-04-28T06:17:03.999Z</time></trkpt><trkpt lat="44.82320294900275" lon="9.194073993719352"><ele>406.00000000000006</ele><time>2026-04-28T06:17:04.999Z</time></trkpt><trkpt lat="44.82314901294466" lon="9.193960943515698"><ele>406.0</ele><time>2026-04-28T06:17:06.999Z</time></trkpt><trkpt lat="44.823066470160164" lon="9.193930624875762"><ele>406.0</ele><time>2026-04-28T06:17:07.999Z</time></trkpt><trkpt lat="44.82297171347812" lon="9.193906693603388"><ele>406.0</ele><time>2026-04-28T06:17:08.999Z</time></trkpt><trkpt lat="44.82286403396209" lon="9.193864951136728"><ele>406.0</ele><time>2026-04-28T06:17:09.999Z</time></trkpt><trkpt lat="44.822751155023404" lon="9.193823133286003"><ele>406.0</ele><time>2026-04-28T06:17:10.999Z</time></trkpt><trkpt lat="44.82265319359973" lon="9.193785462616091"><ele>406.0</ele><time>2026-04-28T06:17:11.999Z</time></trkpt><trkpt lat="44.82258113249189" lon="9.193772546718185"><ele>405.0</ele><time>2026-04-28T06:17:12.999Z</time></trkpt><trkpt lat="44.82248342572523" lon="9.193763244995647"><ele>404.0</ele><time>2026-04-28T06:17:13.999Z</time></trkpt><trkpt lat="44.822404562602856" lon="9.19379258326515"><ele>403.0</ele><time>2026-04-28T06:17:14.999Z</time></trkpt><trkpt lat="44.82231572053724" lon="9.193893902344808"><ele>402.0</ele><time>2026-04-28T06:17:15.999Z</time></trkpt><trkpt lat="44.822291986122096" lon="9.194067481126767"><ele>401.0</ele><time>2026-04-28T06:17:16.999Z</time></trkpt><trkpt lat="44.822270161014316" lon="9.19423111424669"><ele>401.0</ele><time>2026-04-28T06:17:17.999Z</time></trkpt><trkpt lat="44.82224905789206" lon="9.194400382593226"><ele>401.0</ele><time>2026-04-28T06:17:18.999Z</time></trkpt><trkpt lat="44.82222848245042" lon="9.19456541820169"><ele>401.0</ele><time>2026-04-28T06:17:19.999Z</time></trkpt><trkpt lat="44.822210072712714" lon="9.194713445858282"><ele>401.0</ele><time>2026-04-28T06:17:20.999Z</time></trkpt><trkpt lat="44.82219382626917" lon="9.194845429620372"><ele>401.0</ele><time>2026-04-28T06:17:21.999Z</time></trkpt><trkpt lat="44.8221777220248" lon="9.194967227814269"><ele>401.4</ele><time>2026-04-28T06:17:22.999Z</time></trkpt><trkpt lat="44.82216582735334" lon="9.195099344175633"><ele>401.8</ele><time>2026-04-28T06:17:23.999Z</time></trkpt><trkpt lat="44.82214549525908" lon="9.195239861421804"><ele>402.2</ele><time>2026-04-28T06:17:24.999Z</time></trkpt><trkpt lat="44.822125354426426" lon="9.195378522408967"><ele>402.59999999999997</ele><time>2026-04-28T06:17:25.999Z</time></trkpt><trkpt lat="44.82210533237264" lon="9.195517503484096"><ele>403.0</ele><time>2026-04-28T06:17:26.999Z</time></trkpt><trkpt lat="44.82208728024205" lon="9.195652771322345"><ele>403.59999999999997</ele><time>2026-04-28T06:17:27.999Z</time></trkpt><trkpt lat="44.82207753282735" lon="9.195772856484554"><ele>404.2</ele><time>2026-04-28T06:17:28.999Z</time></trkpt><trkpt lat="44.82205671483513" lon="9.19585840327718"><ele>404.8</ele><time>2026-04-28T06:17:29.999Z</time></trkpt><trkpt lat="44.821993363409895" lon="9.19595918404379"><ele>405.4</ele><time>2026-04-28T06:17:31.999Z</time></trkpt><trkpt lat="44.821870993527575" lon="9.195898689675596"><ele>406.0</ele><time>2026-04-28T06:17:33.999Z</time></trkpt><trkpt lat="44.821784823993376" lon="9.195870312844061"><ele>404.8</ele><time>2026-04-28T06:17:34.999Z</time></trkpt><trkpt lat="44.82169765714055" lon="9.195842486269932"><ele>403.6</ele><time>2026-04-28T06:17:35.999Z</time></trkpt><trkpt lat="44.82159346377451" lon="9.195808843056543"><ele>402.4</ele><time>2026-04-28T06:17:36.999Z</time></trkpt><trkpt lat="44.821481448082935" lon="9.19577263509561"><ele>401.2</ele><time>2026-04-28T06:17:37.999Z</time></trkpt><trkpt lat="44.82136311011114" lon="9.195734383514875"><ele>400.0</ele><time>2026-04-28T06:17:38.999Z</time></trkpt><trkpt lat="44.82123890594629" lon="9.195694235715813"><ele>400.0</ele><time>2026-04-28T06:17:39.999Z</time></trkpt><trkpt lat="44.82110361348013" lon="9.195671588004881"><ele>400.0</ele><time>2026-04-28T06:17:40.999Z</time></trkpt><trkpt lat="44.8209751237211" lon="9.195625186625533"><ele>400.0</ele><time>2026-04-28T06:17:41.999Z</time></trkpt><trkpt lat="44.82084083215841" lon="9.195575998023884"><ele>400.0</ele><time>2026-04-28T06:17:42.999Z</time></trkpt><trkpt lat="44.820711929624586" lon="9.195529818309229"><ele>400.25</ele><time>2026-04-28T06:17:43.999Z</time></trkpt><trkpt lat="44.82059435751401" lon="9.195488175921296"><ele>400.5</ele><time>2026-04-28T06:17:44.999Z</time></trkpt><trkpt lat="44.82047187437259" lon="9.195443400993696"><ele>400.75</ele><time>2026-04-28T06:17:45.999Z</time></trkpt><trkpt lat="44.82035322341456" lon="9.195413095974875"><ele>401.0</ele><time>2026-04-28T06:17:46.999Z</time></trkpt><trkpt lat="44.82024809367974" lon="9.195362239772914"><ele>401.0</ele><time>2026-04-28T06:17:47.999Z</time></trkpt><trkpt lat="44.820154036139975" lon="9.195292986875765"><ele>401.0</ele><time>2026-04-28T06:17:48.999Z</time></trkpt><trkpt lat="44.82009170796532" lon="9.195199506299538"><ele>401.0</ele><time>2026-04-28T06:17:49.999Z</time></trkpt><trkpt lat="44.820075443240654" lon="9.195066136145355"><ele>401.0</ele><time>2026-04-28T06:17:50.999Z</time></trkpt><trkpt lat="44.820045692081685" lon="9.19491409492897"><ele>401.0</ele><time>2026-04-28T06:17:51.999Z</time></trkpt><trkpt lat="44.82002573625532" lon="9.194745752997033"><ele>402.5</ele><time>2026-04-28T06:17:52.999Z</time></trkpt><trkpt lat="44.820028152624076" lon="9.194565715553553"><ele>404.0</ele><time>2026-04-28T06:17:53.999Z</time></trkpt><trkpt lat="44.82003836418381" lon="9.194380328938605"><ele>405.5</ele><time>2026-04-28T06:17:54.999Z</time></trkpt><trkpt lat="44.8200438546955" lon="9.19418998479436"><ele>407.0</ele><time>2026-04-28T06:17:55.999Z</time></trkpt><trkpt lat="44.82004791488664" lon="9.19402368946009"><ele>405.75</ele><time>2026-04-28T06:17:56.999Z</time></trkpt><trkpt lat="44.82001470673464" lon="9.193848101555668"><ele>404.5</ele><time>2026-04-28T06:17:57.999Z</time></trkpt><trkpt lat="44.81994915034713" lon="9.193679389028096"><ele>403.25</ele><time>2026-04-28T06:17:58.999Z</time></trkpt><trkpt lat="44.819907018264665" lon="9.193493778626959"><ele>402.0</ele><time>2026-04-28T06:17:59.999Z</time></trkpt><trkpt lat="44.81987511541518" lon="9.19328949773138"><ele>401.33333333333337</ele><time>2026-04-28T06:18:00.999Z</time></trkpt><trkpt lat="44.81985035750189" lon="9.193076807906694"><ele>400.6666666666667</ele><time>2026-04-28T06:18:01.998Z</time></trkpt><trkpt lat="44.819831619217915" lon="9.192848334455395"><ele>400.0</ele><time>2026-04-28T06:18:03Z</time></trkpt><trkpt lat="44.81981286158102" lon="9.192617585348332"><ele>400.0</ele><time>2026-04-28T06:18:04Z</time></trkpt><trkpt lat="44.81979473554898" lon="9.192403966384237"><ele>400.0</ele><time>2026-04-28T06:18:05Z</time></trkpt><trkpt lat="44.819763958941785" lon="9.192209393918256"><ele>400.0</ele><time>2026-04-28T06:18:06Z</time></trkpt><trkpt lat="44.81971377938506" lon="9.192004044856855"><ele>400.0</ele><time>2026-04-28T06:18:07Z</time></trkpt><trkpt lat="44.81964348303718" lon="9.191803970171534"><ele>399.33333333333337</ele><time>2026-04-28T06:18:08Z</time></trkpt><trkpt lat="44.8195656576139" lon="9.191607808933702"><ele>398.66666666666663</ele><time>2026-04-28T06:18:09Z</time></trkpt><trkpt lat="44.81949683632098" lon="9.19139912499699"><ele>398.0</ele><time>2026-04-28T06:18:10Z</time></trkpt><trkpt lat="44.81945315070503" lon="9.191172552431656"><ele>397.0</ele><time>2026-04-28T06:18:11Z</time></trkpt><trkpt lat="44.81942972004051" lon="9.190943491903887"><ele>396.0</ele><time>2026-04-28T06:18:12Z</time></trkpt><trkpt lat="44.81939932598679" lon="9.190703878223305"><ele>395.0</ele><time>2026-04-28T06:18:13Z</time></trkpt><trkpt lat="44.819383681196264" lon="9.190454157051365"><ele>394.3333333333333</ele><time>2026-04-28T06:18:14Z</time></trkpt><trkpt lat="44.81937727893173" lon="9.190207863271176"><ele>393.66666666666663</ele><time>2026-04-28T06:18:15Z</time></trkpt><trkpt lat="44.81936844017343" lon="9.18997615741785"><ele>393.0</ele><time>2026-04-28T06:18:16Z</time></trkpt><trkpt lat="44.81935428874142" lon="9.189752405186201"><ele>392.66666666666663</ele><time>2026-04-28T06:18:17Z</time></trkpt><trkpt lat="44.81934335965681" lon="9.189520731603967"><ele>392.3333333333333</ele><time>2026-04-28T06:18:18Z</time></trkpt><trkpt lat="44.81933646060236" lon="9.189297732366137"><ele>392.0</ele><time>2026-04-28T06:18:19Z</time></trkpt><trkpt lat="44.81932743606924" lon="9.18907092461239"><ele>391.25</ele><time>2026-04-28T06:18:20Z</time></trkpt><trkpt lat="44.81931977339794" lon="9.188844667860735"><ele>390.5</ele><time>2026-04-28T06:18:21Z</time></trkpt><trkpt lat="44.819311538165195" lon="9.188638076923496"><ele>389.75</ele><time>2026-04-28T06:18:22Z</time></trkpt><trkpt lat="44.819293624227335" lon="9.188441332878867"><ele>389.0</ele><time>2026-04-28T06:18:23Z</time></trkpt><trkpt lat="44.81929371256454" lon="9.188262142962204"><ele>390.75</ele><time>2026-04-28T06:18:24Z</time></trkpt><trkpt lat="44.81927320313881" lon="9.188091713076204"><ele>392.5</ele><time>2026-04-28T06:18:25Z</time></trkpt><trkpt lat="44.819238097233146" lon="9.187935840687487"><ele>394.25</ele><time>2026-04-28T06:18:26Z</time></trkpt><trkpt lat="44.819177274294546" lon="9.187804402191015"><ele>396.0</ele><time>2026-04-28T06:18:27Z</time></trkpt><trkpt lat="44.81908822585515" lon="9.18770304244693"><ele>396.0</ele><time>2026-04-28T06:18:28Z</time></trkpt><trkpt lat="44.81897798103333" lon="9.18761731377265"><ele>396.0</ele><time>2026-04-28T06:18:29Z</time></trkpt><trkpt lat="44.81884867779459" lon="9.187565868922901"><ele>396.0</ele><time>2026-04-28T06:18:30Z</time></trkpt><trkpt lat="44.81871717125495" lon="9.187511941070252"><ele>396.0</ele><time>2026-04-28T06:18:31Z</time></trkpt><trkpt lat="44.81860243375483" lon="9.187426285103331"><ele>396.0</ele><time>2026-04-28T06:18:32Z</time></trkpt><trkpt lat="44.81849239970804" lon="9.187400031815475"><ele>396.0</ele><time>2026-04-28T06:18:33Z</time></trkpt><trkpt lat="44.818412324161166" lon="9.187388507563673"><ele>396.0</ele><time>2026-04-28T06:18:34Z</time></trkpt><trkpt lat="44.81832694880819" lon="9.187407711988579"><ele>396.0</ele><time>2026-04-28T06:18:35Z</time></trkpt><trkpt lat="44.818246614784805" lon="9.187467464488064"><ele>396.0</ele><time>2026-04-28T06:18:36Z</time></trkpt><trkpt lat="44.81816226010796" lon="9.187557016264197"><ele>397.5</ele><time>2026-04-28T06:18:37Z</time></trkpt><trkpt lat="44.818075731598434" lon="9.187658608208551"><ele>399.0</ele><time>2026-04-28T06:18:38Z</time></trkpt><trkpt lat="44.81798476744187" lon="9.187771799782212"><ele>400.5</ele><time>2026-04-28T06:18:39Z</time></trkpt><trkpt lat="44.81789183172611" lon="9.187885474952887"><ele>402.0</ele><time>2026-04-28T06:18:40Z</time></trkpt><trkpt lat="44.81780132569896" lon="9.187981269442918"><ele>402.0</ele><time>2026-04-28T06:18:41Z</time></trkpt><trkpt lat="44.817699170053984" lon="9.188035920429432"><ele>402.0</ele><time>2026-04-28T06:18:42Z</time></trkpt><trkpt lat="44.81758354434672" lon="9.188052740437394"><ele>402.0</ele><time>2026-04-28T06:18:43Z</time></trkpt><trkpt lat="44.817452767199846" lon="9.188046389646095"><ele>402.0</ele><time>2026-04-28T06:18:44Z</time></trkpt><trkpt lat="44.817316067238636" lon="9.188024249325661"><ele>400.75</ele><time>2026-04-28T06:18:45Z</time></trkpt><trkpt lat="44.81718443626947" lon="9.188030600595575"><ele>399.5</ele><time>2026-04-28T06:18:46Z</time></trkpt><trkpt lat="44.817063157442455" lon="9.188009192852222"><ele>398.25</ele><time>2026-04-28T06:18:47Z</time></trkpt><trkpt lat="44.81694326988194" lon="9.188004892530028"><ele>397.0</ele><time>2026-04-28T06:18:48Z</time></trkpt><trkpt lat="44.81682944751243" lon="9.18801280094241"><ele>396.75</ele><time>2026-04-28T06:18:48.999Z</time></trkpt><trkpt lat="44.81671379729169" lon="9.188039550685055"><ele>396.5</ele><time>2026-04-28T06:18:49.999Z</time></trkpt><trkpt lat="44.8165988734572" lon="9.188081862386012"><ele>396.25</ele><time>2026-04-28T06:18:50.999Z</time></trkpt><trkpt lat="44.81648228710619" lon="9.188140094748677"><ele>396.0</ele><time>2026-04-28T06:18:51.999Z</time></trkpt><trkpt lat="44.81637914902564" lon="9.188189302283966"><ele>398.75</ele><time>2026-04-28T06:18:52.999Z</time></trkpt><trkpt lat="44.81626355990092" lon="9.188226580180602"><ele>401.5</ele><time>2026-04-28T06:18:53.999Z</time></trkpt><trkpt lat="44.816131638188324" lon="9.188261963172701"><ele>404.25</ele><time>2026-04-28T06:18:54.999Z</time></trkpt><trkpt lat="44.81600939085458" lon="9.188271693598601"><ele>407.0</ele><time>2026-04-28T06:18:55.999Z</time></trkpt><trkpt lat="44.81588499388297" lon="9.188244327326002"><ele>407.0</ele><time>2026-04-28T06:18:56.999Z</time></trkpt><trkpt lat="44.81575977176357" lon="9.1882448841571"><ele>407.0</ele><time>2026-04-28T06:18:57.999Z</time></trkpt><trkpt lat="44.81563460702928" lon="9.188287347842126"><ele>407.0</ele><time>2026-04-28T06:18:58.999Z</time></trkpt><trkpt lat="44.815501450035114" lon="9.188353374337755"><ele>407.0</ele><time>2026-04-28T06:18:59.999Z</time></trkpt><trkpt lat="44.81537354186758" lon="9.188442171625962"><ele>407.0</ele><time>2026-04-28T06:19:00.999Z</time></trkpt><trkpt lat="44.815245398620846" lon="9.188556504567348"><ele>407.0</ele><time>2026-04-28T06:19:01.999Z</time></trkpt><trkpt lat="44.81512120766234" lon="9.188690477652772"><ele>407.0</ele><time>2026-04-28T06:19:02.999Z</time></trkpt><trkpt lat="44.81499619371916" lon="9.188834806722014"><ele>410.66666666666663</ele><time>2026-04-28T06:19:03.999Z</time></trkpt><trkpt lat="44.81487608578621" lon="9.188975358432845"><ele>414.33333333333337</ele><time>2026-04-28T06:19:04.999Z</time></trkpt><trkpt lat="44.81475783660811" lon="9.189103926255214"><ele>418.0</ele><time>2026-04-28T06:19:05.999Z</time></trkpt><trkpt lat="44.81464597323368" lon="9.189239375747135"><ele>418.25</ele><time>2026-04-28T06:19:06.999Z</time></trkpt><trkpt lat="44.81454065182567" lon="9.189353384637396"><ele>418.5</ele><time>2026-04-28T06:19:07.999Z</time></trkpt><trkpt lat="44.81442438959727" lon="9.189445611393934"><ele>418.75</ele><time>2026-04-28T06:19:08.999Z</time></trkpt><trkpt lat="44.81429511156821" lon="9.18952742000833"><ele>419.0</ele><time>2026-04-28T06:19:09.999Z</time></trkpt><trkpt lat="44.814168697874095" lon="9.189614954847611"><ele>419.3333333333333</ele><time>2026-04-28T06:19:10.999Z</time></trkpt><trkpt lat="44.8140361318154" lon="9.189708431188341"><ele>419.66666666666663</ele><time>2026-04-28T06:19:11.999Z</time></trkpt><trkpt lat="44.813872731416296" lon="9.189734009264619"><ele>420.0</ele><time>2026-04-28T06:19:12.999Z</time></trkpt><trkpt lat="44.813719984943226" lon="9.18978245787839"><ele>420.0</ele><time>2026-04-28T06:19:13.999Z</time></trkpt><trkpt lat="44.81356055622498" lon="9.189828599560578"><ele>420.0</ele><time>2026-04-28T06:19:14.999Z</time></trkpt><trkpt lat="44.81341278198557" lon="9.189854105997696"><ele>420.0</ele><time>2026-04-28T06:19:15.999Z</time></trkpt><trkpt lat="44.813254660289" lon="9.189881023135815"><ele>420.0</ele><time>2026-04-28T06:19:16.999Z</time></trkpt><trkpt lat="44.813124900510424" lon="9.189894684422393"><ele>420.0</ele><time>2026-04-28T06:19:17.999Z</time></trkpt><trkpt lat="44.81300523103989" lon="9.18986135773929"><ele>420.0</ele><time>2026-04-28T06:19:18.999Z</time></trkpt><trkpt lat="44.81288503982278" lon="9.189793857024357"><ele>420.0</ele><time>2026-04-28T06:19:19.999Z</time></trkpt><trkpt lat="44.81276432745131" lon="9.189700918870914"><ele>420.75</ele><time>2026-04-28T06:19:20.999Z</time></trkpt><trkpt lat="44.81264551826682" lon="9.189590185961809"><ele>421.5</ele><time>2026-04-28T06:19:21.999Z</time></trkpt><trkpt lat="44.81251283687513" lon="9.189490810664621"><ele>422.25</ele><time>2026-04-28T06:19:22.999Z</time></trkpt><trkpt lat="44.812377311010316" lon="9.18938810906512"><ele>423.0</ele><time>2026-04-28T06:19:23.999Z</time></trkpt><trkpt lat="44.81223127188189" lon="9.189279230296304"><ele>423.0</ele><time>2026-04-28T06:19:24.999Z</time></trkpt><trkpt lat="44.81208116999944" lon="9.189171669392783"><ele>423.0</ele><time>2026-04-28T06:19:25.999Z</time></trkpt><trkpt lat="44.81193088466961" lon="9.189065645484852"><ele>423.0</ele><time>2026-04-28T06:19:26.999Z</time></trkpt><trkpt lat="44.81177637028303" lon="9.188956310561746"><ele>427.66666666666663</ele><time>2026-04-28T06:19:27.999Z</time></trkpt><trkpt lat="44.81162506477081" lon="9.188849246296321"><ele>432.3333333333333</ele><time>2026-04-28T06:19:28.999Z</time></trkpt><trkpt lat="44.81147724004233" lon="9.188744644954753"><ele>437.0</ele><time>2026-04-28T06:19:29.999Z</time></trkpt><trkpt lat="44.81134273379268" lon="9.188657955694735"><ele>437.0</ele><time>2026-04-28T06:19:30.999Z</time></trkpt><trkpt lat="44.811215016539705" lon="9.188600186677748"><ele>437.0</ele><time>2026-04-28T06:19:31.999Z</time></trkpt><trkpt lat="44.811063403834886" lon="9.188580113757316"><ele>437.0</ele><time>2026-04-28T06:19:32.999Z</time></trkpt><trkpt lat="44.81092251555405" lon="9.188631922176791"><ele>437.0</ele><time>2026-04-28T06:19:33.999Z</time></trkpt><trkpt lat="44.81076532084544" lon="9.188644876835621"><ele>435.0</ele><time>2026-04-28T06:19:34.999Z</time></trkpt><trkpt lat="44.810600273724745" lon="9.188626337275913"><ele>433.0</ele><time>2026-04-28T06:19:35.999Z</time></trkpt><trkpt lat="44.81043048317092" lon="9.188610648649403"><ele>431.0</ele><time>2026-04-28T06:19:36.999Z</time></trkpt><trkpt lat="44.81026842788686" lon="9.188598093866409"><ele>430.5</ele><time>2026-04-28T06:19:37.999Z</time></trkpt><trkpt lat="44.810123755651354" lon="9.188551269507904"><ele>430.0</ele><time>2026-04-28T06:19:38.999Z</time></trkpt><trkpt lat="44.809990074506544" lon="9.188535014211588"><ele>429.5</ele><time>2026-04-28T06:19:39.999Z</time></trkpt><trkpt lat="44.809882868411066" lon="9.18843971715971"><ele>429.0</ele><time>2026-04-28T06:19:40.999Z</time></trkpt><trkpt lat="44.809783535483724" lon="9.188317203900965"><ele>436.66666666666663</ele><time>2026-04-28T06:19:41.999Z</time></trkpt><trkpt lat="44.8096762827492" lon="9.188165910715965"><ele>444.3333333333333</ele><time>2026-04-28T06:19:42.999Z</time></trkpt><trkpt lat="44.80955239888386" lon="9.187992315146252"><ele>452.0</ele><time>2026-04-28T06:19:43.999Z</time></trkpt><trkpt lat="44.80943673543405" lon="9.187827411665111"><ele>447.66666666666663</ele><time>2026-04-28T06:19:44.999Z</time></trkpt><trkpt lat="44.80931747898745" lon="9.187663527197772"><ele>443.33333333333337</ele><time>2026-04-28T06:19:45.999Z</time></trkpt><trkpt lat="44.80920816923682" lon="9.187516377349098"><ele>439.0</ele><time>2026-04-28T06:19:46.999Z</time></trkpt><trkpt lat="44.80909118506483" lon="9.187391477760634"><ele>442.33333333333337</ele><time>2026-04-28T06:19:47.999Z</time></trkpt><trkpt lat="44.80895735219077" lon="9.187284856089699"><ele>445.66666666666663</ele><time>2026-04-28T06:19:48.999Z</time></trkpt><trkpt lat="44.80880933027823" lon="9.18720424688013"><ele>449.0</ele><time>2026-04-28T06:19:49.999Z</time></trkpt><trkpt lat="44.808656807301006" lon="9.187118571811897"><ele>449.0</ele><time>2026-04-28T06:19:50.999Z</time></trkpt><trkpt lat="44.80850221846444" lon="9.187032435113268"><ele>449.0</ele><time>2026-04-28T06:19:51.999Z</time></trkpt><trkpt lat="44.80834183995411" lon="9.186938962786032"><ele>449.0</ele><time>2026-04-28T06:19:52.999Z</time></trkpt><trkpt lat="44.808191239037434" lon="9.186814465027915"><ele>447.3333333333333</ele><time>2026-04-28T06:19:53.999Z</time></trkpt><trkpt lat="44.808037878078" lon="9.186691406285904"><ele>445.66666666666663</ele><time>2026-04-28T06:19:54.999Z</time></trkpt><trkpt lat="44.80789110624612" lon="9.186557870562309"><ele>444.0</ele><time>2026-04-28T06:19:55.999Z</time></trkpt><trkpt lat="44.8077422307405" lon="9.186411705951535"><ele>445.0</ele><time>2026-04-28T06:19:56.999Z</time></trkpt><trkpt lat="44.80759693646314" lon="9.18627309694156"><ele>446.0</ele><time>2026-04-28T06:19:57.999Z</time></trkpt><trkpt lat="44.80745077873413" lon="9.186137742445027"><ele>447.0</ele><time>2026-04-28T06:19:58.999Z</time></trkpt><trkpt lat="44.80729672377199" lon="9.186017290166365"><ele>447.0</ele><time>2026-04-28T06:19:59.999Z</time></trkpt><trkpt lat="44.80714946711396" lon="9.185876586002301"><ele>447.0</ele><time>2026-04-28T06:20:00.999Z</time></trkpt><trkpt lat="44.807005818802665" lon="9.185740248518666"><ele>447.0</ele><time>2026-04-28T06:20:01.999Z</time></trkpt><trkpt lat="44.80686213664355" lon="9.185604161658171"><ele>449.66666666666663</ele><time>2026-04-28T06:20:02.999Z</time></trkpt><trkpt lat="44.80671682385499" lon="9.185465175240314"><ele>452.3333333333333</ele><time>2026-04-28T06:20:03.998Z</time></trkpt><trkpt lat="44.80658607774171" lon="9.185331975495297"><ele>455.0</ele><time>2026-04-28T06:20:04.998Z</time></trkpt><trkpt lat="44.80646489377053" lon="9.185214566138264"><ele>455.0</ele><time>2026-04-28T06:20:05.998Z</time></trkpt><trkpt lat="44.80633450135082" lon="9.185113996008782"><ele>455.0</ele><time>2026-04-28T06:20:06.998Z</time></trkpt><trkpt lat="44.80619533431836" lon="9.18501781627216"><ele>455.0</ele><time>2026-04-28T06:20:07.998Z</time></trkpt><trkpt lat="44.80603935853715" lon="9.184995536438642"><ele>455.75</ele><time>2026-04-28T06:20:09Z</time></trkpt><trkpt lat="44.805891185428464" lon="9.184973034237588"><ele>456.5</ele><time>2026-04-28T06:20:10Z</time></trkpt><trkpt lat="44.80574729294516" lon="9.184974453062345"><ele>457.25</ele><time>2026-04-28T06:20:11Z</time></trkpt><trkpt lat="44.80560421897487" lon="9.185022637148723"><ele>458.0</ele><time>2026-04-28T06:20:12Z</time></trkpt><trkpt lat="44.80546444997297" lon="9.185125373069852"><ele>458.0</ele><time>2026-04-28T06:20:13Z</time></trkpt><trkpt lat="44.80532751912261" lon="9.185224646709107"><ele>458.0</ele><time>2026-04-28T06:20:14Z</time></trkpt><trkpt lat="44.80518067963141" lon="9.185306961338645"><ele>458.0</ele><time>2026-04-28T06:20:15Z</time></trkpt><trkpt lat="44.805027957333984" lon="9.185309879253488"><ele>460.66666666666663</ele><time>2026-04-28T06:20:16Z</time></trkpt><trkpt lat="44.80487029336485" lon="9.185296233575729"><ele>463.33333333333337</ele><time>2026-04-28T06:20:17Z</time></trkpt><trkpt lat="44.804716158756065" lon="9.185258155939485"><ele>466.0</ele><time>2026-04-28T06:20:18Z</time></trkpt><trkpt lat="44.80455135036809" lon="9.185236428810992"><ele>466.0</ele><time>2026-04-28T06:20:19Z</time></trkpt><trkpt lat="44.80438581706182" lon="9.18519414750887"><ele>466.0</ele><time>2026-04-28T06:20:20Z</time></trkpt><trkpt lat="44.80422156416452" lon="9.18514678931572"><ele>466.0</ele><time>2026-04-28T06:20:21Z</time></trkpt><trkpt lat="44.80406277017438" lon="9.185097275687678"><ele>465.6666666666667</ele><time>2026-04-28T06:20:22Z</time></trkpt><trkpt lat="44.80390911232109" lon="9.1850477146875"><ele>465.33333333333337</ele><time>2026-04-28T06:20:23Z</time></trkpt><trkpt lat="44.80375671600406" lon="9.184988071164003"><ele>465.0</ele><time>2026-04-28T06:20:24Z</time></trkpt><trkpt lat="44.803623025519094" lon="9.184904340154441"><ele>473.66666666666663</ele><time>2026-04-28T06:20:25Z</time></trkpt><trkpt lat="44.80348792557441" lon="9.184820271078094"><ele>482.3333333333333</ele><time>2026-04-28T06:20:26Z</time></trkpt><trkpt lat="44.80333980395411" lon="9.184761449842847"><ele>491.0</ele><time>2026-04-28T06:20:27Z</time></trkpt><trkpt lat="44.803183862967984" lon="9.18474410784655"><ele>491.0</ele><time>2026-04-28T06:20:28Z</time></trkpt><trkpt lat="44.803026483356184" lon="9.184750840721934"><ele>491.0</ele><time>2026-04-28T06:20:29Z</time></trkpt><trkpt lat="44.80286558685106" lon="9.184796195977594"><ele>491.0</ele><time>2026-04-28T06:20:30Z</time></trkpt><trkpt lat="44.802717495063135" lon="9.18485525243826"><ele>490.25</ele><time>2026-04-28T06:20:31Z</time></trkpt><trkpt lat="44.80259568550416" lon="9.184885983004726"><ele>489.5</ele><time>2026-04-28T06:20:32Z</time></trkpt><trkpt lat="44.80247870578523" lon="9.18484432110031"><ele>488.75</ele><time>2026-04-28T06:20:33Z</time></trkpt><trkpt lat="44.802363617989606" lon="9.184761012703289"><ele>488.0</ele><time>2026-04-28T06:20:34Z</time></trkpt><trkpt lat="44.802233130997095" lon="9.184679804686766"><ele>488.0</ele><time>2026-04-28T06:20:35Z</time></trkpt><trkpt lat="44.802087894038436" lon="9.184648842862964"><ele>488.0</ele><time>2026-04-28T06:20:36Z</time></trkpt><trkpt lat="44.80193195878471" lon="9.18468062220011"><ele>488.0</ele><time>2026-04-28T06:20:37Z</time></trkpt><trkpt lat="44.801776305959244" lon="9.18473997897487"><ele>485.0</ele><time>2026-04-28T06:20:38Z</time></trkpt><trkpt lat="44.80161967680909" lon="9.184815281235391"><ele>482.0</ele><time>2026-04-28T06:20:39Z</time></trkpt><trkpt lat="44.80146438581124" lon="9.18488678187288"><ele>479.0</ele><time>2026-04-28T06:20:40Z</time></trkpt><trkpt lat="44.80132612919886" lon="9.184940579915155"><ele>477.25</ele><time>2026-04-28T06:20:41Z</time></trkpt><trkpt lat="44.801184651247645" lon="9.184948575934989"><ele>475.5</ele><time>2026-04-28T06:20:42Z</time></trkpt><trkpt lat="44.801056925179424" lon="9.184950618730623"><ele>473.75</ele><time>2026-04-28T06:20:43Z</time></trkpt><trkpt lat="44.80093457147396" lon="9.184905392431121"><ele>472.0</ele><time>2026-04-28T06:20:44Z</time></trkpt><trkpt lat="44.80081368171835" lon="9.184842645268562"><ele>472.0</ele><time>2026-04-28T06:20:45Z</time></trkpt><trkpt lat="44.80071951158459" lon="9.184763468590154"><ele>472.00000000000006</ele><time>2026-04-28T06:20:46Z</time></trkpt><trkpt lat="44.80063407129559" lon="9.184682893471575"><ele>472.00000000000006</ele><time>2026-04-28T06:20:47Z</time></trkpt><trkpt lat="44.80058637120286" lon="9.184546734518275"><ele>472.0</ele><time>2026-04-28T06:20:48Z</time></trkpt><trkpt lat="44.80053426820512" lon="9.184406072406624"><ele>472.0</ele><time>2026-04-28T06:20:49Z</time></trkpt><trkpt lat="44.80052708641907" lon="9.184240890134419"><ele>472.0</ele><time>2026-04-28T06:20:50Z</time></trkpt><trkpt lat="44.80054523051643" lon="9.184045833671759"><ele>472.0</ele><time>2026-04-28T06:20:51Z</time></trkpt><trkpt lat="44.800541212444784" lon="9.183843125521767"><ele>472.0</ele><time>2026-04-28T06:20:52Z</time></trkpt><trkpt lat="44.80050869514979" lon="9.183671387769076"><ele>472.0</ele><time>2026-04-28T06:20:53Z</time></trkpt><trkpt lat="44.80045218421317" lon="9.18350727257659"><ele>473.6666666666667</ele><time>2026-04-28T06:20:54Z</time></trkpt><trkpt lat="44.80037002484083" lon="9.18334164506977"><ele>475.33333333333337</ele><time>2026-04-28T06:20:54.999Z</time></trkpt><trkpt lat="44.80026213866871" lon="9.183173257215739"><ele>477.0</ele><time>2026-04-28T06:20:55.999Z</time></trkpt><trkpt lat="44.800152626910695" lon="9.183004186708198"><ele>477.0</ele><time>2026-04-28T06:20:56.999Z</time></trkpt><trkpt lat="44.80004183368568" lon="9.182832172128652"><ele>477.0</ele><time>2026-04-28T06:20:57.999Z</time></trkpt><trkpt lat="44.79992406117186" lon="9.182657826839712"><ele>477.0</ele><time>2026-04-28T06:20:58.999Z</time></trkpt><trkpt lat="44.79981041377452" lon="9.182463597896872"><ele>481.33333333333337</ele><time>2026-04-28T06:20:59.999Z</time></trkpt><trkpt lat="44.79967889747601" lon="9.182295327614737"><ele>485.6666666666667</ele><time>2026-04-28T06:21:00.999Z</time></trkpt><trkpt lat="44.79955486638893" lon="9.182112871149815"><ele>490.0</ele><time>2026-04-28T06:21:01.999Z</time></trkpt><trkpt lat="44.79942740317319" lon="9.18192901587774"><ele>488.6666666666667</ele><time>2026-04-28T06:21:02.999Z</time></trkpt><trkpt lat="44.79930223020003" lon="9.181756238434904"><ele>487.33333333333337</ele><time>2026-04-28T06:21:03.999Z</time></trkpt><trkpt lat="44.799170402914356" lon="9.181575065013853"><ele>486.0</ele><time>2026-04-28T06:21:04.999Z</time></trkpt><trkpt lat="44.7990473278789" lon="9.18139921704969"><ele>486.0</ele><time>2026-04-28T06:21:05.999Z</time></trkpt><trkpt lat="44.798937882120526" lon="9.181220554225579"><ele>486.0</ele><time>2026-04-28T06:21:06.999Z</time></trkpt><trkpt lat="44.79884999028083" lon="9.181036610278378"><ele>486.0</ele><time>2026-04-28T06:21:07.999Z</time></trkpt><trkpt lat="44.79877102835121" lon="9.180871574085579"><ele>486.0</ele><time>2026-04-28T06:21:08.999Z</time></trkpt><trkpt lat="44.798700520909264" lon="9.180723539850309"><ele>486.0</ele><time>2026-04-28T06:21:09.999Z</time></trkpt><trkpt lat="44.798659099001206" lon="9.180578884601266"><ele>486.0</ele><time>2026-04-28T06:21:10.999Z</time></trkpt><trkpt lat="44.798650712312124" lon="9.18042831499146"><ele>486.0</ele><time>2026-04-28T06:21:11.999Z</time></trkpt><trkpt lat="44.798696594785234" lon="9.180278786251394"><ele>489.25</ele><time>2026-04-28T06:21:12.999Z</time></trkpt><trkpt lat="44.798737750574254" lon="9.180129416988883"><ele>492.5</ele><time>2026-04-28T06:21:13.999Z</time></trkpt><trkpt lat="44.79877819862107" lon="9.179974052083509"><ele>495.75</ele><time>2026-04-28T06:21:14.999Z</time></trkpt><trkpt lat="44.79881464471652" lon="9.179798158167065"><ele>499.0</ele><time>2026-04-28T06:21:15.999Z</time></trkpt><trkpt lat="44.798853828851485" lon="9.179623622216807"><ele>499.83333333333337</ele><time>2026-04-28T06:21:16.999Z</time></trkpt><trkpt lat="44.79888623793615" lon="9.179498267329338"><ele>500.6666666666667</ele><time>2026-04-28T06:21:17.999Z</time></trkpt><trkpt lat="44.79889602223195" lon="9.179397474463896"><ele>501.5</ele><time>2026-04-28T06:21:18.999Z</time></trkpt><trkpt lat="44.7988891511523" lon="9.179289037397616"><ele>502.33333333333337</ele><time>2026-04-28T06:21:19.999Z</time></trkpt><trkpt lat="44.798810448173526" lon="9.179210583200183"><ele>503.1666666666667</ele><time>2026-04-28T06:21:20.999Z</time></trkpt><trkpt lat="44.798738651232576" lon="9.179160068594308"><ele>504.0</ele><time>2026-04-28T06:21:21.999Z</time></trkpt><trkpt lat="44.79865720301287" lon="9.179122094303224"><ele>504.0</ele><time>2026-04-28T06:21:22.999Z</time></trkpt><trkpt lat="44.79857092489574" lon="9.17910595543024"><ele>504.0</ele><time>2026-04-28T06:21:23.999Z</time></trkpt><trkpt lat="44.79848658044448" lon="9.17920940773207"><ele>504.0</ele><time>2026-04-28T06:21:24.999Z</time></trkpt><trkpt lat="44.79840052257989" lon="9.179297536326061"><ele>504.0</ele><time>2026-04-28T06:21:25.999Z</time></trkpt><trkpt lat="44.79830837891702" lon="9.179357769513627"><ele>504.0</ele><time>2026-04-28T06:21:26.999Z</time></trkpt><trkpt lat="44.79819366886375" lon="9.17934951881945"><ele>501.75</ele><time>2026-04-28T06:21:27.999Z</time></trkpt><trkpt lat="44.79808081966254" lon="9.17934874999066"><ele>499.5</ele><time>2026-04-28T06:21:28.999Z</time></trkpt><trkpt lat="44.7979755564425" lon="9.17930188227587"><ele>497.25</ele><time>2026-04-28T06:21:29.999Z</time></trkpt><trkpt lat="44.79787918256691" lon="9.179220888497543"><ele>495.0</ele><time>2026-04-28T06:21:30.999Z</time></trkpt><trkpt lat="44.797795306714576" lon="9.179099284403858"><ele>497.0</ele><time>2026-04-28T06:21:31.999Z</time></trkpt><trkpt lat="44.797716762935465" lon="9.178980647586027"><ele>499.0</ele><time>2026-04-28T06:21:32.999Z</time></trkpt><trkpt lat="44.797630784955544" lon="9.178878486815472"><ele>501.0</ele><time>2026-04-28T06:21:33.999Z</time></trkpt><trkpt lat="44.79756688340734" lon="9.178771361040537"><ele>503.0</ele><time>2026-04-28T06:21:34.999Z</time></trkpt><trkpt lat="44.797523891869645" lon="9.178665585923087"><ele>505.0</ele><time>2026-04-28T06:21:35.999Z</time></trkpt><trkpt lat="44.797496486101736" lon="9.178526234327725"><ele>505.0</ele><time>2026-04-28T06:21:36.999Z</time></trkpt><trkpt lat="44.79748138034225" lon="9.178358666076926"><ele>505.0</ele><time>2026-04-28T06:21:37.999Z</time></trkpt><trkpt lat="44.79746344553189" lon="9.17818260808288"><ele>505.0</ele><time>2026-04-28T06:21:38.999Z</time></trkpt><trkpt lat="44.79745325024599" lon="9.178003971853267"><ele>505.0</ele><time>2026-04-28T06:21:39.999Z</time></trkpt><trkpt lat="44.79745225552811" lon="9.177821598556925"><ele>505.75</ele><time>2026-04-28T06:21:40.999Z</time></trkpt><trkpt lat="44.79745107180626" lon="9.177629589278405"><ele>506.5</ele><time>2026-04-28T06:21:41.999Z</time></trkpt><trkpt lat="44.797447470221854" lon="9.177439772547793"><ele>507.25</ele><time>2026-04-28T06:21:42.999Z</time></trkpt><trkpt lat="44.79743043887747" lon="9.17723980509947"><ele>508.0</ele><time>2026-04-28T06:21:43.999Z</time></trkpt><trkpt lat="44.797420132155665" lon="9.17703188235961"><ele>508.75</ele><time>2026-04-28T06:21:44.999Z</time></trkpt><trkpt lat="44.7974179765712" lon="9.176851373154907"><ele>509.5</ele><time>2026-04-28T06:21:45.999Z</time></trkpt><trkpt lat="44.797430088772785" lon="9.176686771045615"><ele>510.25</ele><time>2026-04-28T06:21:46.999Z</time></trkpt><trkpt lat="44.79746757099241" lon="9.176526282856498"><ele>511.0</ele><time>2026-04-28T06:21:47.999Z</time></trkpt><trkpt lat="44.79753624479348" lon="9.176376353981569"><ele>512.0</ele><time>2026-04-28T06:21:48.999Z</time></trkpt><trkpt lat="44.79762873454102" lon="9.176233249228195"><ele>513.0</ele><time>2026-04-28T06:21:49.999Z</time></trkpt><trkpt lat="44.797741922979284" lon="9.176094821988116"><ele>514.0</ele><time>2026-04-28T06:21:50.999Z</time></trkpt><trkpt lat="44.797861058481345" lon="9.175942368078113"><ele>515.0</ele><time>2026-04-28T06:21:51.999Z</time></trkpt><trkpt lat="44.79797626534094" lon="9.175812182747222"><ele>519.0</ele><time>2026-04-28T06:21:52.999Z</time></trkpt><trkpt lat="44.79809777841711" lon="9.175682316732344"><ele>523.0</ele><time>2026-04-28T06:21:53.999Z</time></trkpt><trkpt lat="44.79822030792501" lon="9.175548543668377"><ele>527.0</ele><time>2026-04-28T06:21:54.999Z</time></trkpt><trkpt lat="44.798336973349706" lon="9.17542120541995"><ele>527.0</ele><time>2026-04-28T06:21:55.999Z</time></trkpt><trkpt lat="44.798445936202356" lon="9.175289555719424"><ele>527.0</ele><time>2026-04-28T06:21:56.999Z</time></trkpt><trkpt lat="44.798548172829356" lon="9.17515011449241"><ele>527.0</ele><time>2026-04-28T06:21:57.999Z</time></trkpt><trkpt lat="44.79863960297698" lon="9.175008759921933"><ele>527.0</ele><time>2026-04-28T06:21:58.999Z</time></trkpt><trkpt lat="44.79871060412385" lon="9.174843905552134"><ele>530.25</ele><time>2026-04-28T06:21:59.999Z</time></trkpt><trkpt lat="44.79877000126705" lon="9.17466377827542"><ele>533.5</ele><time>2026-04-28T06:22:00.999Z</time></trkpt><trkpt lat="44.79880957280419" lon="9.174483863836905"><ele>536.75</ele><time>2026-04-28T06:22:01.999Z</time></trkpt><trkpt lat="44.79884006196086" lon="9.174330388347121"><ele>540.0</ele><time>2026-04-28T06:22:02.999Z</time></trkpt><trkpt lat="44.79883642419604" lon="9.174188797168261"><ele>540.0</ele><time>2026-04-28T06:22:03.999Z</time></trkpt><trkpt lat="44.79880392273353" lon="9.17405836522642"><ele>540.0</ele><time>2026-04-28T06:22:04.999Z</time></trkpt><trkpt lat="44.79873841600356" lon="9.173934798215413"><ele>540.0</ele><time>2026-04-28T06:22:05.999Z</time></trkpt><trkpt lat="44.79864387296654" lon="9.17383172725132"><ele>540.0</ele><time>2026-04-28T06:22:06.999Z</time></trkpt><trkpt lat="44.79853092672843" lon="9.173732133950422"><ele>540.0</ele><time>2026-04-28T06:22:07.999Z</time></trkpt><trkpt lat="44.79841672425969" lon="9.173626371695285"><ele>540.0</ele><time>2026-04-28T06:22:08.999Z</time></trkpt><trkpt lat="44.79829471758365" lon="9.173509308858698"><ele>540.0</ele><time>2026-04-28T06:22:09.999Z</time></trkpt><trkpt lat="44.79816964280582" lon="9.173385548843237"><ele>540.0</ele><time>2026-04-28T06:22:10.998Z</time></trkpt><trkpt lat="44.798041743033856" lon="9.173261729335675"><ele>542.3333333333334</ele><time>2026-04-28T06:22:11.998Z</time></trkpt><trkpt lat="44.79791129839852" lon="9.173135206413331"><ele>544.6666666666667</ele><time>2026-04-28T06:22:12.998Z</time></trkpt><trkpt lat="44.79778889348126" lon="9.173011284607696"><ele>547.0</ele><time>2026-04-28T06:22:13.998Z</time></trkpt><trkpt lat="44.797668504135444" lon="9.172874932443435"><ele>547.0</ele><time>2026-04-28T06:22:15Z</time></trkpt><trkpt lat="44.79756028288341" lon="9.172725182446959"><ele>547.0</ele><time>2026-04-28T06:22:16Z</time></trkpt><trkpt lat="44.79746367715006" lon="9.172555142632941"><ele>547.0</ele><time>2026-04-28T06:22:17Z</time></trkpt><trkpt lat="44.797375212372245" lon="9.172370492550549"><ele>548.6666666666667</ele><time>2026-04-28T06:22:18Z</time></trkpt><trkpt lat="44.7972869447123" lon="9.172178276687628"><ele>550.3333333333334</ele><time>2026-04-28T06:22:19Z</time></trkpt><trkpt lat="44.79719273078155" lon="9.171993720411589"><ele>552.0</ele><time>2026-04-28T06:22:20Z</time></trkpt><trkpt lat="44.79709728246674" lon="9.171807327306384"><ele>552.0</ele><time>2026-04-28T06:22:21Z</time></trkpt><trkpt lat="44.797004241668695" lon="9.171615637457252"><ele>552.0</ele><time>2026-04-28T06:22:22Z</time></trkpt><trkpt lat="44.79691266052302" lon="9.17142834332317"><ele>552.0</ele><time>2026-04-28T06:22:23Z</time></trkpt><trkpt lat="44.79681877113884" lon="9.171235194567881"><ele>554.0</ele><time>2026-04-28T06:22:24Z</time></trkpt><trkpt lat="44.79672176975609" lon="9.171043539925815"><ele>556.0</ele><time>2026-04-28T06:22:25Z</time></trkpt><trkpt lat="44.796619205532984" lon="9.17085735178332"><ele>558.0</ele><time>2026-04-28T06:22:26Z</time></trkpt><trkpt lat="44.796501090059785" lon="9.17069413560077"><ele>561.0</ele><time>2026-04-28T06:22:27Z</time></trkpt><trkpt lat="44.796366397771024" lon="9.170554899047278"><ele>564.0</ele><time>2026-04-28T06:22:28Z</time></trkpt><trkpt lat="44.79621949979292" lon="9.170438461437262"><ele>567.0</ele><time>2026-04-28T06:22:29Z</time></trkpt><trkpt lat="44.796069467107" lon="9.1703259348338"><ele>565.0</ele><time>2026-04-28T06:22:30Z</time></trkpt><trkpt lat="44.79592886307402" lon="9.170187685155405"><ele>563.0</ele><time>2026-04-28T06:22:31Z</time></trkpt><trkpt lat="44.79577640995049" lon="9.170082667569323"><ele>561.0</ele><time>2026-04-28T06:22:32Z</time></trkpt><trkpt lat="44.795629917273814" lon="9.169961518815207"><ele>565.3333333333334</ele><time>2026-04-28T06:22:33Z</time></trkpt><trkpt lat="44.795491683439515" lon="9.169820699954972"><ele>569.6666666666667</ele><time>2026-04-28T06:22:34Z</time></trkpt><trkpt lat="44.79534321693629" lon="9.169698480828767"><ele>574.0</ele><time>2026-04-28T06:22:35Z</time></trkpt><trkpt lat="44.79518808384954" lon="9.169595277290874"><ele>572.3333333333334</ele><time>2026-04-28T06:22:36Z</time></trkpt><trkpt lat="44.79504314401462" lon="9.169469109928505"><ele>570.6666666666666</ele><time>2026-04-28T06:22:37Z</time></trkpt><trkpt lat="44.794896107671974" lon="9.169343143598317"><ele>569.0</ele><time>2026-04-28T06:22:38Z</time></trkpt><trkpt lat="44.79474944284617" lon="9.169219316117994"><ele>569.0</ele><time>2026-04-28T06:22:39Z</time></trkpt><trkpt lat="44.79459631966911" lon="9.169098670578359"><ele>569.0</ele><time>2026-04-28T06:22:40Z</time></trkpt><trkpt lat="44.79444998713143" lon="9.168974131245864"><ele>569.0</ele><time>2026-04-28T06:22:41Z</time></trkpt><trkpt lat="44.794306947333155" lon="9.168843243412484"><ele>571.3333333333333</ele><time>2026-04-28T06:22:42Z</time></trkpt><trkpt lat="44.794180166043546" lon="9.16870021779555"><ele>573.6666666666666</ele><time>2026-04-28T06:22:43Z</time></trkpt><trkpt lat="44.794061396081695" lon="9.168543556264789"><ele>576.0</ele><time>2026-04-28T06:22:44Z</time></trkpt><trkpt lat="44.79395654216516" lon="9.168367422060381"><ele>578.0</ele><time>2026-04-28T06:22:45Z</time></trkpt><trkpt lat="44.793867399226706" lon="9.168174277687715"><ele>580.0</ele><time>2026-04-28T06:22:46Z</time></trkpt><trkpt lat="44.7938001847058" lon="9.167964198113562"><ele>582.0</ele><time>2026-04-28T06:22:47Z</time></trkpt><trkpt lat="44.7937421272974" lon="9.167748922087268"><ele>582.0</ele><time>2026-04-28T06:22:48Z</time></trkpt><trkpt lat="44.79368105252747" lon="9.167526591983128"><ele>582.0</ele><time>2026-04-28T06:22:49Z</time></trkpt><trkpt lat="44.79361661288601" lon="9.1673099234759"><ele>582.0</ele><time>2026-04-28T06:22:50Z</time></trkpt><trkpt lat="44.79355152269767" lon="9.1670757953933"><ele>580.6666666666666</ele><time>2026-04-28T06:22:51Z</time></trkpt><trkpt lat="44.7934844921291" lon="9.166840355745768"><ele>579.3333333333333</ele><time>2026-04-28T06:22:52Z</time></trkpt><trkpt lat="44.79342385230546" lon="9.166616242065032"><ele>578.0</ele><time>2026-04-28T06:22:53Z</time></trkpt><trkpt lat="44.79336689717552" lon="9.166403395637515"><ele>578.0</ele><time>2026-04-28T06:22:54Z</time></trkpt><trkpt lat="44.79331374509129" lon="9.166185819334169"><ele>578.0</ele><time>2026-04-28T06:22:55Z</time></trkpt><trkpt lat="44.79327349697476" lon="9.165953040684085"><ele>578.0</ele><time>2026-04-28T06:22:56Z</time></trkpt><trkpt lat="44.79324073705392" lon="9.165713918252955"><ele>577.3333333333333</ele><time>2026-04-28T06:22:57Z</time></trkpt><trkpt lat="44.79320876365105" lon="9.165466781155208"><ele>576.6666666666666</ele><time>2026-04-28T06:22:58Z</time></trkpt><trkpt lat="44.79318589252837" lon="9.16523948092757"><ele>576.0</ele><time>2026-04-28T06:22:59Z</time></trkpt><trkpt lat="44.793191179523085" lon="9.16499374309222"><ele>574.3333333333334</ele><time>2026-04-28T06:23:00Z</time></trkpt><trkpt lat="44.79319044970934" lon="9.16475179360479"><ele>572.6666666666667</ele><time>2026-04-28T06:23:01Z</time></trkpt><trkpt lat="44.79318623897631" lon="9.164495958510201"><ele>571.0</ele><time>2026-04-28T06:23:02Z</time></trkpt><trkpt lat="44.793185788362244" lon="9.164249586182548"><ele>570.0</ele><time>2026-04-28T06:23:03Z</time></trkpt><trkpt lat="44.79318551358505" lon="9.164016366420274"><ele>569.0</ele><time>2026-04-28T06:23:04Z</time></trkpt><trkpt lat="44.79318685770087" lon="9.163785434578399"><ele>568.0</ele><time>2026-04-28T06:23:05Z</time></trkpt><trkpt lat="44.793186544670256" lon="9.163544394448786"><ele>568.0</ele><time>2026-04-28T06:23:06Z</time></trkpt><trkpt lat="44.793188013237454" lon="9.163303349411217"><ele>568.0</ele><time>2026-04-28T06:23:07Z</time></trkpt><trkpt lat="44.7931882684569" lon="9.163061206934236"><ele>568.0</ele><time>2026-04-28T06:23:08Z</time></trkpt><trkpt lat="44.79318970821584" lon="9.162811735441489"><ele>567.0</ele><time>2026-04-28T06:23:08.999Z</time></trkpt><trkpt lat="44.793189694261905" lon="9.162559358419646"><ele>566.0</ele><time>2026-04-28T06:23:09.999Z</time></trkpt><trkpt lat="44.79318915472864" lon="9.162304973908153"><ele>565.0</ele><time>2026-04-28T06:23:10.999Z</time></trkpt><trkpt lat="44.79318985776485" lon="9.16205155944985"><ele>563.3333333333334</ele><time>2026-04-28T06:23:11.999Z</time></trkpt><trkpt lat="44.793189562476556" lon="9.161804046803903"><ele>561.6666666666666</ele><time>2026-04-28T06:23:12.999Z</time></trkpt><trkpt lat="44.793191060191965" lon="9.161566403011609"><ele>560.0</ele><time>2026-04-28T06:23:13.999Z</time></trkpt><trkpt lat="44.793190952916646" lon="9.161326633183283"><ele>559.6666666666666</ele><time>2026-04-28T06:23:14.999Z</time></trkpt><trkpt lat="44.793191361530326" lon="9.161083946784856"><ele>559.3333333333334</ele><time>2026-04-28T06:23:15.999Z</time></trkpt><trkpt lat="44.79319198992057" lon="9.16084435151836"><ele>559.0</ele><time>2026-04-28T06:23:16.999Z</time></trkpt><trkpt lat="44.79319042619126" lon="9.160603230712141"><ele>555.6666666666667</ele><time>2026-04-28T06:23:17.999Z</time></trkpt><trkpt lat="44.79318436611106" lon="9.160360526739005"><ele>552.3333333333334</ele><time>2026-04-28T06:23:18.999Z</time></trkpt><trkpt lat="44.79317488016299" lon="9.160117569105825"><ele>549.0</ele><time>2026-04-28T06:23:19.999Z</time></trkpt><trkpt lat="44.7931538594138" lon="9.15987499573815"><ele>547.0</ele><time>2026-04-28T06:23:20.999Z</time></trkpt><trkpt lat="44.79311755339799" lon="9.159629729307701"><ele>545.0</ele><time>2026-04-28T06:23:21.999Z</time></trkpt><trkpt lat="44.79307023800731" lon="9.159400983389363"><ele>543.0</ele><time>2026-04-28T06:23:22.999Z</time></trkpt><trkpt lat="44.793021362754985" lon="9.159167723306593"><ele>548.6666666666666</ele><time>2026-04-28T06:23:23.999Z</time></trkpt><trkpt lat="44.79297111778076" lon="9.158937723465332"><ele>554.3333333333333</ele><time>2026-04-28T06:23:24.999Z</time></trkpt><trkpt lat="44.79292256184026" lon="9.158696826023155"><ele>560.0</ele><time>2026-04-28T06:23:25.999Z</time></trkpt><trkpt lat="44.79287469350613" lon="9.158454156010627"><ele>560.0</ele><time>2026-04-28T06:23:26.999Z</time></trkpt><trkpt lat="44.79283710434975" lon="9.15823892165064"><ele>560.0</ele><time>2026-04-28T06:23:27.999Z</time></trkpt><trkpt lat="44.7927948273969" lon="9.15805826084906"><ele>560.0</ele><time>2026-04-28T06:23:28.999Z</time></trkpt><trkpt lat="44.79274387681272" lon="9.157902697417546"><ele>560.0</ele><time>2026-04-28T06:23:29.999Z</time></trkpt><trkpt lat="44.792678373145804" lon="9.15776379365388"><ele>560.75</ele><time>2026-04-28T06:23:30.999Z</time></trkpt><trkpt lat="44.79257154460815" lon="9.157654327107933"><ele>561.5</ele><time>2026-04-28T06:23:31.999Z</time></trkpt><trkpt lat="44.79244268202489" lon="9.157554230725808"><ele>562.25</ele><time>2026-04-28T06:23:32.999Z</time></trkpt><trkpt lat="44.792298316404754" lon="9.157459005865535"><ele>563.0</ele><time>2026-04-28T06:23:33.999Z</time></trkpt><trkpt lat="44.792173544806715" lon="9.157351921225972"><ele>563.0</ele><time>2026-04-28T06:23:34.999Z</time></trkpt><trkpt lat="44.79208126337548" lon="9.157216241553861"><ele>563.0</ele><time>2026-04-28T06:23:35.999Z</time></trkpt><trkpt lat="44.79202332668339" lon="9.157044655554337"><ele>563.0</ele><time>2026-04-28T06:23:36.999Z</time></trkpt><trkpt lat="44.79198780809927" lon="9.156832592791098"><ele>563.0</ele><time>2026-04-28T06:23:37.999Z</time></trkpt><trkpt lat="44.79194809380978" lon="9.156613492474099"><ele>564.75</ele><time>2026-04-28T06:23:38.999Z</time></trkpt><trkpt lat="44.79189518040681" lon="9.156445762574881"><ele>566.5</ele><time>2026-04-28T06:23:39.999Z</time></trkpt><trkpt lat="44.79180911915294" lon="9.156303532992599"><ele>568.25</ele><time>2026-04-28T06:23:40.999Z</time></trkpt><trkpt lat="44.79170477516776" lon="9.15620405590453"><ele>570.0</ele><time>2026-04-28T06:23:41.999Z</time></trkpt><trkpt lat="44.791578820788914" lon="9.156119564396334"><ele>568.0</ele><time>2026-04-28T06:23:42.999Z</time></trkpt><trkpt lat="44.79145210843006" lon="9.155979440985273"><ele>566.0</ele><time>2026-04-28T06:23:43.999Z</time></trkpt><trkpt lat="44.7913252646345" lon="9.155801085889669"><ele>564.0</ele><time>2026-04-28T06:23:44.999Z</time></trkpt><trkpt lat="44.79119143093558" lon="9.15561978170118"><ele>564.0</ele><time>2026-04-28T06:23:45.999Z</time></trkpt><trkpt lat="44.7910573515231" lon="9.155434869699107"><ele>564.0</ele><time>2026-04-28T06:23:46.999Z</time></trkpt><trkpt lat="44.7909366690091" lon="9.155267199682442"><ele>564.0</ele><time>2026-04-28T06:23:47.999Z</time></trkpt><trkpt lat="44.790830701170094" lon="9.155106063161625"><ele>552.6666666666666</ele><time>2026-04-28T06:23:48.999Z</time></trkpt><trkpt lat="44.790748264874495" lon="9.1549310057081"><ele>541.3333333333333</ele><time>2026-04-28T06:23:49.999Z</time></trkpt><trkpt lat="44.790696773258816" lon="9.154732504383823"><ele>530.0</ele><time>2026-04-28T06:23:50.999Z</time></trkpt><trkpt lat="44.790671761215215" lon="9.154523194841904"><ele>529.3333333333333</ele><time>2026-04-28T06:23:51.999Z</time></trkpt><trkpt lat="44.79067123215021" lon="9.154301066230865"><ele>528.6666666666666</ele><time>2026-04-28T06:23:52.999Z</time></trkpt><trkpt lat="44.79070046124318" lon="9.15407355043015"><ele>528.0</ele><time>2026-04-28T06:23:53.999Z</time></trkpt><trkpt lat="44.79073476871491" lon="9.15382217328545"><ele>525.6666666666666</ele><time>2026-04-28T06:23:54.999Z</time></trkpt><trkpt lat="44.790770985420686" lon="9.153586991767613"><ele>523.3333333333333</ele><time>2026-04-28T06:23:55.999Z</time></trkpt><trkpt lat="44.79079823409976" lon="9.153368623322372"><ele>521.0</ele><time>2026-04-28T06:23:56.999Z</time></trkpt><trkpt lat="44.7908120171168" lon="9.153146511401355"><ele>518.75</ele><time>2026-04-28T06:23:57.999Z</time></trkpt><trkpt lat="44.790809484555986" lon="9.15293296682811"><ele>516.5</ele><time>2026-04-28T06:23:58.999Z</time></trkpt><trkpt lat="44.79078186215369" lon="9.152729056743246"><ele>514.25</ele><time>2026-04-28T06:23:59.999Z</time></trkpt><trkpt lat="44.7907452621094" lon="9.152539128066506"><ele>512.0</ele><time>2026-04-28T06:24:00.999Z</time></trkpt><trkpt lat="44.790716729135724" lon="9.15239493103193"><ele>516.4</ele><time>2026-04-28T06:24:01.999Z</time></trkpt><trkpt lat="44.79068119249968" lon="9.152300249239275"><ele>520.8000000000001</ele><time>2026-04-28T06:24:02.999Z</time></trkpt><trkpt lat="44.79062479169482" lon="9.15223498674151"><ele>525.2</ele><time>2026-04-28T06:24:03.999Z</time></trkpt><trkpt lat="44.79055109878923" lon="9.15216225371685"><ele>529.6</ele><time>2026-04-28T06:24:04.999Z</time></trkpt><trkpt lat="44.7904229787725" lon="9.15216031419296"><ele>534.0</ele><time>2026-04-28T06:24:05.999Z</time></trkpt><trkpt lat="44.7902921393486" lon="9.152178617312089"><ele>531.0</ele><time>2026-04-28T06:24:06.999Z</time></trkpt><trkpt lat="44.79015490771786" lon="9.152201944114985"><ele>528.0</ele><time>2026-04-28T06:24:07.999Z</time></trkpt><trkpt lat="44.79002837264017" lon="9.152213444066472"><ele>525.0</ele><time>2026-04-28T06:24:08.999Z</time></trkpt><trkpt lat="44.78991523532135" lon="9.152146230864204"><ele>522.0</ele><time>2026-04-28T06:24:09.999Z</time></trkpt><trkpt lat="44.789818646380446" lon="9.152051694768234"><ele>522.0</ele><time>2026-04-28T06:24:10.999Z</time></trkpt><trkpt lat="44.78970873013218" lon="9.151935783359754"><ele>522.0</ele><time>2026-04-28T06:24:11.999Z</time></trkpt><trkpt lat="44.78962105107198" lon="9.151770076099279"><ele>522.0</ele><time>2026-04-28T06:24:12.999Z</time></trkpt><trkpt lat="44.78953882549863" lon="9.151558636675338"><ele>522.0</ele><time>2026-04-28T06:24:13.999Z</time></trkpt><trkpt lat="44.78947321188095" lon="9.15132776353614"><ele>522.0</ele><time>2026-04-28T06:24:14.999Z</time></trkpt><trkpt lat="44.789389344793605" lon="9.151100613222988"><ele>522.0</ele><time>2026-04-28T06:24:15.999Z</time></trkpt><trkpt lat="44.78930889666468" lon="9.150875701433696"><ele>516.6666666666666</ele><time>2026-04-28T06:24:16.999Z</time></trkpt><trkpt lat="44.78922650717011" lon="9.15066891249037"><ele>511.3333333333333</ele><time>2026-04-28T06:24:17.999Z</time></trkpt><trkpt lat="44.789133450522556" lon="9.150469966010908"><ele>506.0</ele><time>2026-04-28T06:24:18.999Z</time></trkpt><trkpt lat="44.789027829823084" lon="9.150280026775567"><ele>506.0</ele><time>2026-04-28T06:24:19.999Z</time></trkpt><trkpt lat="44.78890773785171" lon="9.15009129594664"><ele>506.0</ele><time>2026-04-28T06:24:21Z</time></trkpt><trkpt lat="44.7887840938129" lon="9.149889267873322"><ele>506.0</ele><time>2026-04-28T06:24:22Z</time></trkpt><trkpt lat="44.78865339343769" lon="9.149688231750833"><ele>508.0</ele><time>2026-04-28T06:24:23Z</time></trkpt><trkpt lat="44.78852690784387" lon="9.149495420854723"><ele>510.0</ele><time>2026-04-28T06:24:24Z</time></trkpt><trkpt lat="44.788405278708204" lon="9.149308706686698"><ele>512.0</ele><time>2026-04-28T06:24:25Z</time></trkpt><trkpt lat="44.7882856771694" lon="9.14913161273165"><ele>505.0</ele><time>2026-04-28T06:24:26Z</time></trkpt><trkpt lat="44.78815376249828" lon="9.14897391468678"><ele>498.0</ele><time>2026-04-28T06:24:27Z</time></trkpt><trkpt lat="44.78801114863717" lon="9.14884435826003"><ele>491.0</ele><time>2026-04-28T06:24:28Z</time></trkpt><trkpt lat="44.787856781071184" lon="9.148735386034275"><ele>491.0</ele><time>2026-04-28T06:24:29Z</time></trkpt><trkpt lat="44.78768860892486" lon="9.148635473788975"><ele>491.0</ele><time>2026-04-28T06:24:30Z</time></trkpt><trkpt lat="44.78751058982013" lon="9.148541504776238"><ele>491.0</ele><time>2026-04-28T06:24:31Z</time></trkpt><trkpt lat="44.78733064336936" lon="9.148457335228075"><ele>490.3333333333333</ele><time>2026-04-28T06:24:32Z</time></trkpt><trkpt lat="44.78716779729286" lon="9.148351794057174"><ele>489.66666666666663</ele><time>2026-04-28T06:24:33Z</time></trkpt><trkpt lat="44.78699637598328" lon="9.14826247174806"><ele>489.0</ele><time>2026-04-28T06:24:34Z</time></trkpt><trkpt lat="44.78683252176543" lon="9.148177233707948"><ele>488.0</ele><time>2026-04-28T06:24:35Z</time></trkpt><trkpt lat="44.78667054827237" lon="9.148110483840641"><ele>487.0</ele><time>2026-04-28T06:24:36Z</time></trkpt><trkpt lat="44.78653748862135" lon="9.148022529330216"><ele>486.0</ele><time>2026-04-28T06:24:37Z</time></trkpt><trkpt lat="44.78642015284009" lon="9.147926865461054"><ele>486.0</ele><time>2026-04-28T06:24:38Z</time></trkpt><trkpt lat="44.7863134207029" lon="9.147810669336922"><ele>486.0</ele><time>2026-04-28T06:24:39Z</time></trkpt><trkpt lat="44.78622071670437" lon="9.147661268988823"><ele>486.0</ele><time>2026-04-28T06:24:40Z</time></trkpt><trkpt lat="44.78613486057094" lon="9.147488977734314"><ele>486.0</ele><time>2026-04-28T06:24:41Z</time></trkpt><trkpt lat="44.786068168675186" lon="9.147328076869108"><ele>483.0</ele><time>2026-04-28T06:24:42Z</time></trkpt><trkpt lat="44.78600454804193" lon="9.147180875405141"><ele>480.0</ele><time>2026-04-28T06:24:43Z</time></trkpt><trkpt lat="44.78595065933678" lon="9.147053735737089"><ele>477.0</ele><time>2026-04-28T06:24:44Z</time></trkpt><trkpt lat="44.7859112753414" lon="9.146958602785052"><ele>474.0</ele><time>2026-04-28T06:24:45Z</time></trkpt><trkpt lat="44.785866914450864" lon="9.146851519717629"><ele>471.0</ele><time>2026-04-28T06:24:47Z</time></trkpt><trkpt lat="44.785982026372025" lon="9.146617090544837"><ele>471.20000000000005</ele><time>2026-04-28T06:24:51Z</time></trkpt><trkpt lat="44.78602231842877" lon="9.146495808347314"><ele>471.40000000000003</ele><time>2026-04-28T06:24:52Z</time></trkpt><trkpt lat="44.78606684637092" lon="9.146353043837335"><ele>471.6</ele><time>2026-04-28T06:24:53Z</time></trkpt><trkpt lat="44.78611830222105" lon="9.14619468663199"><ele>471.8</ele><time>2026-04-28T06:24:54Z</time></trkpt><trkpt lat="44.78618881503884" lon="9.14606066773714"><ele>472.0</ele><time>2026-04-28T06:24:55Z</time></trkpt><trkpt lat="44.78627280455447" lon="9.145928084562055"><ele>472.0</ele><time>2026-04-28T06:24:56Z</time></trkpt><trkpt lat="44.78637178283665" lon="9.14581389486213"><ele>472.0</ele><time>2026-04-28T06:24:57Z</time></trkpt><trkpt lat="44.786477321706954" lon="9.145715096046208"><ele>472.0</ele><time>2026-04-28T06:24:58Z</time></trkpt><trkpt lat="44.78657883591681" lon="9.145624622253742"><ele>472.0</ele><time>2026-04-28T06:24:59Z</time></trkpt><trkpt lat="44.78668476405391" lon="9.145527599928563"><ele>471.8</ele><time>2026-04-28T06:25:00Z</time></trkpt><trkpt lat="44.78676445113032" lon="9.145430539317536"><ele>471.6</ele><time>2026-04-28T06:25:01Z</time></trkpt><trkpt lat="44.78681383670328" lon="9.145330868163393"><ele>471.40000000000003</ele><time>2026-04-28T06:25:02Z</time></trkpt><trkpt lat="44.78685715504017" lon="9.145219884849045"><ele>471.20000000000005</ele><time>2026-04-28T06:25:03Z</time></trkpt><trkpt lat="44.78690271511143" lon="9.14509344975319"><ele>471.0</ele><time>2026-04-28T06:25:04Z</time></trkpt><trkpt lat="44.786946762055095" lon="9.144945338075253"><ele>472.0</ele><time>2026-04-28T06:25:05Z</time></trkpt><trkpt lat="44.78700177659042" lon="9.14477593644363"><ele>473.0</ele><time>2026-04-28T06:25:06Z</time></trkpt><trkpt lat="44.787062958454314" lon="9.144591840561398"><ele>474.0</ele><time>2026-04-28T06:25:07Z</time></trkpt><trkpt lat="44.787126471426376" lon="9.144401886326584"><ele>475.0</ele><time>2026-04-28T06:25:08Z</time></trkpt><trkpt lat="44.78719612908217" lon="9.144195186332352"><ele>472.6666666666667</ele><time>2026-04-28T06:25:09Z</time></trkpt><trkpt lat="44.787274071153035" lon="9.143977283363553"><ele>470.33333333333337</ele><time>2026-04-28T06:25:09.999Z</time></trkpt><trkpt lat="44.787353797484926" lon="9.14375482352766"><ele>468.0</ele><time>2026-04-28T06:25:10.999Z</time></trkpt><trkpt lat="44.78743576144946" lon="9.143530796351259"><ele>468.0</ele><time>2026-04-28T06:25:11.999Z</time></trkpt><trkpt lat="44.78750682953989" lon="9.143305016919438"><ele>468.0</ele><time>2026-04-28T06:25:12.999Z</time></trkpt><trkpt lat="44.787572271452845" lon="9.143096873782296"><ele>468.0</ele><time>2026-04-28T06:25:13.999Z</time></trkpt><trkpt lat="44.78763485993136" lon="9.142892285595481"><ele>467.0</ele><time>2026-04-28T06:25:14.999Z</time></trkpt><trkpt lat="44.78770909123277" lon="9.142685422777806"><ele>466.0</ele><time>2026-04-28T06:25:15.999Z</time></trkpt><trkpt lat="44.78779599860062" lon="9.142473975499435"><ele>465.0</ele><time>2026-04-28T06:25:16.999Z</time></trkpt><trkpt lat="44.787898595584984" lon="9.142249668501226"><ele>465.0</ele><time>2026-04-28T06:25:17.999Z</time></trkpt><trkpt lat="44.788014397697935" lon="9.142013105390701"><ele>465.0</ele><time>2026-04-28T06:25:18.999Z</time></trkpt><trkpt lat="44.78811614446564" lon="9.141785940360105"><ele>465.0</ele><time>2026-04-28T06:25:19.999Z</time></trkpt><trkpt lat="44.78821649903747" lon="9.141582049505931"><ele>463.0</ele><time>2026-04-28T06:25:20.999Z</time></trkpt><trkpt lat="44.78830881326227" lon="9.141368839147166"><ele>461.0</ele><time>2026-04-28T06:25:21.999Z</time></trkpt><trkpt lat="44.788398029453326" lon="9.141168638213248"><ele>459.0</ele><time>2026-04-28T06:25:22.999Z</time></trkpt><trkpt lat="44.788491964949976" lon="9.140973110308314"><ele>459.66666666666663</ele><time>2026-04-28T06:25:23.999Z</time></trkpt><trkpt lat="44.78859259197729" lon="9.14077599696069"><ele>460.3333333333333</ele><time>2026-04-28T06:25:24.999Z</time></trkpt><trkpt lat="44.78867695573789" lon="9.140552069798959"><ele>461.0</ele><time>2026-04-28T06:25:25.999Z</time></trkpt><trkpt lat="44.78874250813509" lon="9.140296915480652"><ele>461.0</ele><time>2026-04-28T06:25:26.999Z</time></trkpt><trkpt lat="44.788796268278446" lon="9.140015811201335"><ele>461.0</ele><time>2026-04-28T06:25:27.999Z</time></trkpt><trkpt lat="44.78884242935139" lon="9.139758735462676"><ele>461.0</ele><time>2026-04-28T06:25:28.999Z</time></trkpt><trkpt lat="44.78890766050891" lon="9.139521565097967"><ele>459.3333333333333</ele><time>2026-04-28T06:25:29.999Z</time></trkpt><trkpt lat="44.78899380444123" lon="9.1393022799439"><ele>457.66666666666663</ele><time>2026-04-28T06:25:30.999Z</time></trkpt><trkpt lat="44.78909282884512" lon="9.13909276384545"><ele>456.0</ele><time>2026-04-28T06:25:31.999Z</time></trkpt><trkpt lat="44.789218121778205" lon="9.138889607779955"><ele>456.33333333333337</ele><time>2026-04-28T06:25:32.999Z</time></trkpt><trkpt lat="44.789354379115096" lon="9.138687678648587"><ele>456.6666666666667</ele><time>2026-04-28T06:25:33.999Z</time></trkpt><trkpt lat="44.78948913476373" lon="9.138483301135702"><ele>457.0</ele><time>2026-04-28T06:25:34.999Z</time></trkpt><trkpt lat="44.78962589969595" lon="9.138268249551189"><ele>454.6666666666667</ele><time>2026-04-28T06:25:35.999Z</time></trkpt><trkpt lat="44.789762416714964" lon="9.138073452720365"><ele>452.33333333333337</ele><time>2026-04-28T06:25:36.999Z</time></trkpt><trkpt lat="44.78989543868797" lon="9.137900626537741"><ele>450.0</ele><time>2026-04-28T06:25:37.999Z</time></trkpt><trkpt lat="44.79001101864575" lon="9.137728980287658"><ele>450.0</ele><time>2026-04-28T06:25:38.999Z</time></trkpt><trkpt lat="44.79010644259843" lon="9.137540810619269"><ele>450.0</ele><time>2026-04-28T06:25:39.999Z</time></trkpt><trkpt lat="44.79017680469283" lon="9.137316353579777"><ele>450.0</ele><time>2026-04-28T06:25:40.999Z</time></trkpt><trkpt lat="44.79022044468886" lon="9.137071130111298"><ele>453.66666666666663</ele><time>2026-04-28T06:25:41.999Z</time></trkpt><trkpt lat="44.79025569327597" lon="9.136817054293617"><ele>457.3333333333333</ele><time>2026-04-28T06:25:42.999Z</time></trkpt><trkpt lat="44.79030460364046" lon="9.136560940792837"><ele>461.0</ele><time>2026-04-28T06:25:43.999Z</time></trkpt><trkpt lat="44.79036846307795" lon="9.136308118788817"><ele>461.0</ele><time>2026-04-28T06:25:44.999Z</time></trkpt><trkpt lat="44.79043900573858" lon="9.136061818430404"><ele>461.0</ele><time>2026-04-28T06:25:45.999Z</time></trkpt><trkpt lat="44.79050193399846" lon="9.135802261684697"><ele>461.0</ele><time>2026-04-28T06:25:46.999Z</time></trkpt><trkpt lat="44.79054096394255" lon="9.135530205557396"><ele>460.3333333333333</ele><time>2026-04-28T06:25:47.999Z</time></trkpt><trkpt lat="44.79056880273498" lon="9.13524025352341"><ele>459.66666666666663</ele><time>2026-04-28T06:25:48.999Z</time></trkpt><trkpt lat="44.79059164072914" lon="9.134931648022881"><ele>459.0</ele><time>2026-04-28T06:25:49.999Z</time></trkpt><trkpt lat="44.79061731783362" lon="9.134613115444996"><ele>459.0</ele><time>2026-04-28T06:25:50.999Z</time></trkpt><trkpt lat="44.790649664021934" lon="9.134294191402544"><ele>459.0</ele><time>2026-04-28T06:25:51.999Z</time></trkpt><trkpt lat="44.790678563672095" lon="9.133991148992344"><ele>459.0</ele><time>2026-04-28T06:25:52.999Z</time></trkpt><trkpt lat="44.790706922303904" lon="9.133706732075536"><ele>457.33333333333337</ele><time>2026-04-28T06:25:53.999Z</time></trkpt><trkpt lat="44.79073670361623" lon="9.133435971276562"><ele>455.6666666666667</ele><time>2026-04-28T06:25:54.999Z</time></trkpt><trkpt lat="44.790763782262964" lon="9.13317586273908"><ele>454.0</ele><time>2026-04-28T06:25:55.999Z</time></trkpt><trkpt lat="44.79079807624333" lon="9.132928798205022"><ele>453.6666666666667</ele><time>2026-04-28T06:25:56.999Z</time></trkpt><trkpt lat="44.79082572593584" lon="9.13269037519473"><ele>453.33333333333337</ele><time>2026-04-28T06:25:57.999Z</time></trkpt><trkpt lat="44.79084568326274" lon="9.1324491020399"><ele>453.0</ele><time>2026-04-28T06:25:58.999Z</time></trkpt><trkpt lat="44.79087030652602" lon="9.132199321364505"><ele>451.66666666666663</ele><time>2026-04-28T06:25:59.999Z</time></trkpt><trkpt lat="44.79088942429956" lon="9.131949283704225"><ele>450.3333333333333</ele><time>2026-04-28T06:26:00.999Z</time></trkpt><trkpt lat="44.79089583599972" lon="9.131705148487857"><ele>449.0</ele><time>2026-04-28T06:26:01.999Z</time></trkpt><trkpt lat="44.790893940538346" lon="9.1314508490346"><ele>449.0</ele><time>2026-04-28T06:26:02.999Z</time></trkpt><trkpt lat="44.79088023871084" lon="9.131191637937674"><ele>449.0</ele><time>2026-04-28T06:26:03.999Z</time></trkpt><trkpt lat="44.79085829110756" lon="9.130932528845271"><ele>449.0</ele><time>2026-04-28T06:26:04.999Z</time></trkpt><trkpt lat="44.79083818728756" lon="9.130673704740582"><ele>449.0</ele><time>2026-04-28T06:26:05.999Z</time></trkpt><trkpt lat="44.79081836259722" lon="9.13041278259195"><ele>449.0</ele><time>2026-04-28T06:26:06.999Z</time></trkpt><trkpt lat="44.790799786061974" lon="9.130144342239772"><ele>449.0</ele><time>2026-04-28T06:26:07.999Z</time></trkpt><trkpt lat="44.790780388198456" lon="9.129866238797073"><ele>449.0</ele><time>2026-04-28T06:26:08.999Z</time></trkpt><trkpt lat="44.79077292004162" lon="9.12959054307704"><ele>449.0</ele><time>2026-04-28T06:26:09.999Z</time></trkpt><trkpt lat="44.79075502008009" lon="9.129312945656062"><ele>449.0</ele><time>2026-04-28T06:26:10.999Z</time></trkpt><trkpt lat="44.79074317315496" lon="9.129042088801386"><ele>449.0</ele><time>2026-04-28T06:26:11.999Z</time></trkpt><trkpt lat="44.790722182388464" lon="9.12878690830611"><ele>449.0</ele><time>2026-04-28T06:26:12.999Z</time></trkpt><trkpt lat="44.790706696841305" lon="9.128534949003946"><ele>449.0</ele><time>2026-04-28T06:26:13.999Z</time></trkpt><trkpt lat="44.79069190482597" lon="9.128295618249174"><ele>448.0</ele><time>2026-04-28T06:26:14.999Z</time></trkpt><trkpt lat="44.79067454447673" lon="9.128057053041083"><ele>447.0</ele><time>2026-04-28T06:26:15.999Z</time></trkpt><trkpt lat="44.790667700186496" lon="9.127809385917978"><ele>446.0</ele><time>2026-04-28T06:26:16.999Z</time></trkpt><trkpt lat="44.79067281361476" lon="9.127555775965574"><ele>444.0</ele><time>2026-04-28T06:26:17.999Z</time></trkpt><trkpt lat="44.790683548336176" lon="9.127291970449548"><ele>442.0</ele><time>2026-04-28T06:26:18.999Z</time></trkpt><trkpt lat="44.79070345427369" lon="9.127025214762185"><ele>440.0</ele><time>2026-04-28T06:26:19.999Z</time></trkpt><trkpt lat="44.79072068614135" lon="9.126764398202486"><ele>440.3333333333333</ele><time>2026-04-28T06:26:20.999Z</time></trkpt><trkpt lat="44.790730059785076" lon="9.126507844578885"><ele>440.66666666666663</ele><time>2026-04-28T06:26:21.999Z</time></trkpt><trkpt lat="44.79073309278445" lon="9.126245094767041"><ele>441.0</ele><time>2026-04-28T06:26:22.999Z</time></trkpt><trkpt lat="44.79072683309202" lon="9.125973712886958"><ele>443.0</ele><time>2026-04-28T06:26:23.999Z</time></trkpt><trkpt lat="44.790721082197464" lon="9.125698672378167"><ele>445.0</ele><time>2026-04-28T06:26:24.999Z</time></trkpt><trkpt lat="44.790708655774964" lon="9.125417686916569"><ele>447.0</ele><time>2026-04-28T06:26:25.999Z</time></trkpt><trkpt lat="44.79069554400574" lon="9.125132710123763"><ele>446.0</ele><time>2026-04-28T06:26:27Z</time></trkpt><trkpt lat="44.790676962942314" lon="9.12484260787807"><ele>445.0</ele><time>2026-04-28T06:26:28Z</time></trkpt><trkpt lat="44.790658695135654" lon="9.124552573297045"><ele>444.0</ele><time>2026-04-28T06:26:29Z</time></trkpt><trkpt lat="44.790641442235646" lon="9.124256637018624"><ele>442.33333333333337</ele><time>2026-04-28T06:26:30Z</time></trkpt><trkpt lat="44.790621365250075" lon="9.12396878808476"><ele>440.6666666666667</ele><time>2026-04-28T06:26:31Z</time></trkpt><trkpt lat="44.7906043660311" lon="9.123692590466636"><ele>439.0</ele><time>2026-04-28T06:26:32Z</time></trkpt><trkpt lat="44.79058526557277" lon="9.123424881993385"><ele>436.0</ele><time>2026-04-28T06:26:33Z</time></trkpt><trkpt lat="44.79055630507589" lon="9.123159911035405"><ele>433.0</ele><time>2026-04-28T06:26:34Z</time></trkpt><trkpt lat="44.79052264682229" lon="9.122897659096228"><ele>430.0</ele><time>2026-04-28T06:26:35Z</time></trkpt><trkpt lat="44.79049515376445" lon="9.122636819990666"><ele>430.0</ele><time>2026-04-28T06:26:36Z</time></trkpt><trkpt lat="44.79048035991052" lon="9.122356594784984"><ele>430.0</ele><time>2026-04-28T06:26:37Z</time></trkpt><trkpt lat="44.790456357328175" lon="9.12206939733502"><ele>430.0</ele><time>2026-04-28T06:26:38Z</time></trkpt><trkpt lat="44.7904466417339" lon="9.121774974783206"><ele>430.33333333333337</ele><time>2026-04-28T06:26:39Z</time></trkpt><trkpt lat="44.79044494198729" lon="9.121497646503114"><ele>430.66666666666663</ele><time>2026-04-28T06:26:40Z</time></trkpt><trkpt lat="44.79046322011506" lon="9.121235208657914"><ele>431.0</ele><time>2026-04-28T06:26:41Z</time></trkpt><trkpt lat="44.7904860502492" lon="9.120971965508417"><ele>430.0</ele><time>2026-04-28T06:26:42Z</time></trkpt><trkpt lat="44.79050569618048" lon="9.120705406946826"><ele>429.0</ele><time>2026-04-28T06:26:43Z</time></trkpt><trkpt lat="44.79054660845418" lon="9.120462607542317"><ele>428.0</ele><time>2026-04-28T06:26:44Z</time></trkpt><trkpt lat="44.79060134317572" lon="9.120225228494647"><ele>428.0</ele><time>2026-04-28T06:26:45Z</time></trkpt><trkpt lat="44.79066691152267" lon="9.119984624753059"><ele>428.0</ele><time>2026-04-28T06:26:46Z</time></trkpt><trkpt lat="44.790746300500075" lon="9.119751938239002"><ele>428.0</ele><time>2026-04-28T06:26:47Z</time></trkpt><trkpt lat="44.79083115756958" lon="9.119518298220274"><ele>428.66666666666663</ele><time>2026-04-28T06:26:48Z</time></trkpt><trkpt lat="44.79092446817896" lon="9.119297049652626"><ele>429.33333333333337</ele><time>2026-04-28T06:26:49Z</time></trkpt><trkpt lat="44.791022365315534" lon="9.119094767281092"><ele>430.0</ele><time>2026-04-28T06:26:50Z</time></trkpt><trkpt lat="44.791125461352195" lon="9.11891790535419"><ele>430.0</ele><time>2026-04-28T06:26:51Z</time></trkpt><trkpt lat="44.79124020543637" lon="9.1187545941953"><ele>430.0</ele><time>2026-04-28T06:26:52Z</time></trkpt><trkpt lat="44.791369989316564" lon="9.118596814684013"><ele>430.0</ele><time>2026-04-28T06:26:53Z</time></trkpt><trkpt lat="44.79150968619101" lon="9.118437141641847"><ele>430.0</ele><time>2026-04-28T06:26:54Z</time></trkpt><trkpt lat="44.791656883329296" lon="9.11827403842788"><ele>430.0</ele><time>2026-04-28T06:26:55Z</time></trkpt><trkpt lat="44.791804232193144" lon="9.11810325545066"><ele>430.0</ele><time>2026-04-28T06:26:56Z</time></trkpt><trkpt lat="44.791949793227786" lon="9.117914130925419"><ele>429.6666666666667</ele><time>2026-04-28T06:26:57Z</time></trkpt><trkpt lat="44.79209382317235" lon="9.117692134994964"><ele>429.33333333333337</ele><time>2026-04-28T06:26:58Z</time></trkpt><trkpt lat="44.79223379229699" lon="9.117443329929582"><ele>429.0</ele><time>2026-04-28T06:26:59Z</time></trkpt><trkpt lat="44.79236294070895" lon="9.117232289618423"><ele>429.0</ele><time>2026-04-28T06:27:00Z</time></trkpt><trkpt lat="44.79247344478173" lon="9.117062456968107"><ele>429.0</ele><time>2026-04-28T06:27:01Z</time></trkpt><trkpt lat="44.79259168137998" lon="9.116901506618664"><ele>429.0</ele><time>2026-04-28T06:27:02Z</time></trkpt><trkpt lat="44.79272327908782" lon="9.116757015218425"><ele>429.0</ele><time>2026-04-28T06:27:03Z</time></trkpt><trkpt lat="44.792853345794015" lon="9.116606110254162"><ele>429.0</ele><time>2026-04-28T06:27:04Z</time></trkpt><trkpt lat="44.79298333382176" lon="9.116455663569203"><ele>429.0</ele><time>2026-04-28T06:27:05Z</time></trkpt><trkpt lat="44.79312175367744" lon="9.116305918680334"><ele>429.0</ele><time>2026-04-28T06:27:06Z</time></trkpt><trkpt lat="44.793274503207726" lon="9.116166633022846"><ele>429.0</ele><time>2026-04-28T06:27:07Z</time></trkpt><trkpt lat="44.79341986976286" lon="9.116027647175258"><ele>429.0</ele><time>2026-04-28T06:27:08Z</time></trkpt><trkpt lat="44.79355773557306" lon="9.11588918086165"><ele>429.0</ele><time>2026-04-28T06:27:09Z</time></trkpt><trkpt lat="44.79367169099893" lon="9.115737742654797"><ele>429.0</ele><time>2026-04-28T06:27:10Z</time></trkpt><trkpt lat="44.79380931014482" lon="9.115609925708192"><ele>429.0</ele><time>2026-04-28T06:27:11Z</time></trkpt><trkpt lat="44.79393263501892" lon="9.11547556390706"><ele>427.0</ele><time>2026-04-28T06:27:12Z</time></trkpt><trkpt lat="44.79404909684466" lon="9.115332074072443"><ele>425.0</ele><time>2026-04-28T06:27:13Z</time></trkpt><trkpt lat="44.79415567056363" lon="9.115147473101567"><ele>423.0</ele><time>2026-04-28T06:27:14Z</time></trkpt><trkpt lat="44.79424250106603" lon="9.1149240135859"><ele>421.0</ele><time>2026-04-28T06:27:15Z</time></trkpt><trkpt lat="44.79431690412429" lon="9.11467227475116"><ele>419.0</ele><time>2026-04-28T06:27:16Z</time></trkpt><trkpt lat="44.794382037380934" lon="9.114416230225558"><ele>417.0</ele><time>2026-04-28T06:27:16.999Z</time></trkpt><trkpt lat="44.79444937182543" lon="9.114151353880152"><ele>416.0</ele><time>2026-04-28T06:27:17.999Z</time></trkpt><trkpt lat="44.79452325379482" lon="9.113881351102922"><ele>415.0</ele><time>2026-04-28T06:27:18.999Z</time></trkpt><trkpt lat="44.7946002637315" lon="9.11360708767504"><ele>414.0</ele><time>2026-04-28T06:27:19.999Z</time></trkpt><trkpt lat="44.79468193882056" lon="9.11333221107661"><ele>413.0</ele><time>2026-04-28T06:27:20.999Z</time></trkpt><trkpt lat="44.794760769968164" lon="9.113061563203733"><ele>412.0</ele><time>2026-04-28T06:27:21.999Z</time></trkpt><trkpt lat="44.794833962381816" lon="9.112782045453056"><ele>411.0</ele><time>2026-04-28T06:27:22.999Z</time></trkpt><trkpt lat="44.794908960432004" lon="9.112498442373687"><ele>410.0</ele><time>2026-04-28T06:27:23.999Z</time></trkpt><trkpt lat="44.79498555881591" lon="9.11221749353395"><ele>409.0</ele><time>2026-04-28T06:27:24.999Z</time></trkpt><trkpt lat="44.79506257466426" lon="9.111946630773502"><ele>408.0</ele><time>2026-04-28T06:27:25.999Z</time></trkpt><trkpt lat="44.79514005183261" lon="9.11167682807478"><ele>408.66666666666663</ele><time>2026-04-28T06:27:26.999Z</time></trkpt><trkpt lat="44.795214800693195" lon="9.11140806756145"><ele>409.3333333333333</ele><time>2026-04-28T06:27:27.999Z</time></trkpt><trkpt lat="44.795286606884346" lon="9.111135839334992"><ele>410.0</ele><time>2026-04-28T06:27:28.999Z</time></trkpt><trkpt lat="44.79535540100162" lon="9.110863661977897"><ele>409.66666666666663</ele><time>2026-04-28T06:27:29.999Z</time></trkpt><trkpt lat="44.79541842380753" lon="9.110600482835721"><ele>409.33333333333337</ele><time>2026-04-28T06:27:30.999Z</time></trkpt><trkpt lat="44.79547558600657" lon="9.110345516207165"><ele>409.0</ele><time>2026-04-28T06:27:31.999Z</time></trkpt><trkpt lat="44.79552779096275" lon="9.110096213988303"><ele>407.33333333333337</ele><time>2026-04-28T06:27:32.999Z</time></trkpt><trkpt lat="44.79558103508904" lon="9.10985162517719"><ele>405.66666666666663</ele><time>2026-04-28T06:27:33.999Z</time></trkpt><trkpt lat="44.79563647820199" lon="9.109599013889653"><ele>404.0</ele><time>2026-04-28T06:27:34.999Z</time></trkpt><trkpt lat="44.79569244262974" lon="9.109339218098981"><ele>404.0</ele><time>2026-04-28T06:27:35.999Z</time></trkpt><trkpt lat="44.79575513627498" lon="9.109088845281603"><ele>404.0</ele><time>2026-04-28T06:27:36.999Z</time></trkpt><trkpt lat="44.79582335131606" lon="9.108864703761817"><ele>404.0</ele><time>2026-04-28T06:27:37.999Z</time></trkpt><trkpt lat="44.79588423888353" lon="9.108668232042382"><ele>404.0</ele><time>2026-04-28T06:27:38.999Z</time></trkpt><trkpt lat="44.79592450459845" lon="9.108468562301733"><ele>404.0</ele><time>2026-04-28T06:27:39.999Z</time></trkpt><trkpt lat="44.79595317249126" lon="9.108252101495227"><ele>404.0</ele><time>2026-04-28T06:27:40.999Z</time></trkpt><trkpt lat="44.795978285046026" lon="9.108029200744928"><ele>402.0</ele><time>2026-04-28T06:27:41.999Z</time></trkpt><trkpt lat="44.79601092875586" lon="9.107823241867422"><ele>400.0</ele><time>2026-04-28T06:27:42.999Z</time></trkpt><trkpt lat="44.796056809812335" lon="9.107619725592906"><ele>398.0</ele><time>2026-04-28T06:27:43.999Z</time></trkpt><trkpt lat="44.79612554023757" lon="9.107429551242534"><ele>398.66666666666663</ele><time>2026-04-28T06:27:44.999Z</time></trkpt><trkpt lat="44.796217671885074" lon="9.107246481828543"><ele>399.33333333333337</ele><time>2026-04-28T06:27:45.999Z</time></trkpt><trkpt lat="44.7963254234311" lon="9.107061308643884"><ele>400.0</ele><time>2026-04-28T06:27:46.999Z</time></trkpt><trkpt lat="44.79643446006188" lon="9.106883362595147"><ele>400.0</ele><time>2026-04-28T06:27:47.999Z</time></trkpt><trkpt lat="44.796533473929436" lon="9.106720468365186"><ele>400.0</ele><time>2026-04-28T06:27:48.999Z</time></trkpt><trkpt lat="44.7966203149504" lon="9.106568847390841"><ele>400.0</ele><time>2026-04-28T06:27:49.999Z</time></trkpt><trkpt lat="44.79668849719572" lon="9.10642479015002"><ele>400.0</ele><time>2026-04-28T06:27:50.999Z</time></trkpt><trkpt lat="44.7967397498359" lon="9.106268414874673"><ele>399.75</ele><time>2026-04-28T06:27:51.999Z</time></trkpt><trkpt lat="44.796780659560085" lon="9.106080292929624"><ele>399.5</ele><time>2026-04-28T06:27:52.999Z</time></trkpt><trkpt lat="44.79682393663288" lon="9.105869752093493"><ele>399.25</ele><time>2026-04-28T06:27:53.999Z</time></trkpt><trkpt lat="44.79686495209457" lon="9.105690274971945"><ele>399.0</ele><time>2026-04-28T06:27:54.999Z</time></trkpt><trkpt lat="44.79689266426211" lon="9.105535073090461"><ele>398.75</ele><time>2026-04-28T06:27:55.999Z</time></trkpt><trkpt lat="44.796888581754786" lon="9.105398646387744"><ele>398.5</ele><time>2026-04-28T06:27:56.999Z</time></trkpt><trkpt lat="44.79687709438264" lon="9.10524905968876"><ele>398.25</ele><time>2026-04-28T06:27:57.999Z</time></trkpt><trkpt lat="44.7968308012898" lon="9.105090823441557"><ele>398.0</ele><time>2026-04-28T06:27:58.999Z</time></trkpt><trkpt lat="44.79675556949771" lon="9.104950208699863"><ele>396.0</ele><time>2026-04-28T06:27:59.999Z</time></trkpt><trkpt lat="44.796644457835264" lon="9.104826018306785"><ele>394.0</ele><time>2026-04-28T06:28:00.999Z</time></trkpt><trkpt lat="44.79653107151788" lon="9.104695408744334"><ele>392.0</ele><time>2026-04-28T06:28:01.999Z</time></trkpt><trkpt lat="44.796413297283856" lon="9.10453668896578"><ele>392.0</ele><time>2026-04-28T06:28:02.999Z</time></trkpt><trkpt lat="44.79628886375982" lon="9.10437287320817"><ele>392.0</ele><time>2026-04-28T06:28:03.999Z</time></trkpt><trkpt lat="44.79616559201283" lon="9.104207067901704"><ele>392.0</ele><time>2026-04-28T06:28:04.999Z</time></trkpt><trkpt lat="44.79603350894153" lon="9.10403008732327"><ele>391.66666666666663</ele><time>2026-04-28T06:28:05.999Z</time></trkpt><trkpt lat="44.79590668102012" lon="9.103864625949598"><ele>391.33333333333337</ele><time>2026-04-28T06:28:06.999Z</time></trkpt><trkpt lat="44.79578940553365" lon="9.10371714272974"><ele>391.0</ele><time>2026-04-28T06:28:07.999Z</time></trkpt><trkpt lat="44.795690334280884" lon="9.103584226254151"><ele>391.0</ele><time>2026-04-28T06:28:08.999Z</time></trkpt><trkpt lat="44.795605785452565" lon="9.103456537232463"><ele>391.0</ele><time>2026-04-28T06:28:09.999Z</time></trkpt><trkpt lat="44.795547554203" lon="9.103318660081118"><ele>391.0</ele><time>2026-04-28T06:28:10.999Z</time></trkpt><trkpt lat="44.79551581640575" lon="9.103148133345426"><ele>391.0</ele><time>2026-04-28T06:28:11.999Z</time></trkpt><trkpt lat="44.79550214982327" lon="9.102970993173926"><ele>390.6666666666667</ele><time>2026-04-28T06:28:12.999Z</time></trkpt><trkpt lat="44.795510801563076" lon="9.102781486024542"><ele>390.33333333333337</ele><time>2026-04-28T06:28:13.999Z</time></trkpt><trkpt lat="44.79553295116838" lon="9.102566080662156"><ele>390.0</ele><time>2026-04-28T06:28:14.999Z</time></trkpt><trkpt lat="44.79558192895003" lon="9.102350053775835"><ele>391.66666666666663</ele><time>2026-04-28T06:28:15.999Z</time></trkpt><trkpt lat="44.795657122352196" lon="9.102149540616818"><ele>393.3333333333333</ele><time>2026-04-28T06:28:16.999Z</time></trkpt><trkpt lat="44.79575453446264" lon="9.101948459196535"><ele>395.0</ele><time>2026-04-28T06:28:17.999Z</time></trkpt><trkpt lat="44.79586241640431" lon="9.1017569429739"><ele>395.0</ele><time>2026-04-28T06:28:18.999Z</time></trkpt><trkpt lat="44.795972126686664" lon="9.101595248231684"><ele>395.0</ele><time>2026-04-28T06:28:19.999Z</time></trkpt><trkpt lat="44.79606026550089" lon="9.101435619368152"><ele>395.0</ele><time>2026-04-28T06:28:20.999Z</time></trkpt><trkpt lat="44.79612990390078" lon="9.101254227859364"><ele>395.0</ele><time>2026-04-28T06:28:21.999Z</time></trkpt><trkpt lat="44.79618364171385" lon="9.101057664640136"><ele>394.0</ele><time>2026-04-28T06:28:22.999Z</time></trkpt><trkpt lat="44.796211004567894" lon="9.100841941437311"><ele>393.0</ele><time>2026-04-28T06:28:23.999Z</time></trkpt><trkpt lat="44.79621789539575" lon="9.100605720213624"><ele>392.0</ele><time>2026-04-28T06:28:24.999Z</time></trkpt><trkpt lat="44.796204848488586" lon="9.100346646882974"><ele>392.0</ele><time>2026-04-28T06:28:25.999Z</time></trkpt><trkpt lat="44.796184591553235" lon="9.100070691267467"><ele>392.0</ele><time>2026-04-28T06:28:26.999Z</time></trkpt><trkpt lat="44.79615814525335" lon="9.099781013183565"><ele>392.0</ele><time>2026-04-28T06:28:27.999Z</time></trkpt><trkpt lat="44.79612907128946" lon="9.099495294608621"><ele>392.0</ele><time>2026-04-28T06:28:28.999Z</time></trkpt><trkpt lat="44.79611189105589" lon="9.099204957733622"><ele>392.0</ele><time>2026-04-28T06:28:29.999Z</time></trkpt><trkpt lat="44.796102460321755" lon="9.098975632662325"><ele>392.0</ele><time>2026-04-28T06:28:30.999Z</time></trkpt><trkpt lat="44.796098644625395" lon="9.098789928371549"><ele>391.5</ele><time>2026-04-28T06:28:31.999Z</time></trkpt><trkpt lat="44.79609142392513" lon="9.098609905396753"><ele>391.0</ele><time>2026-04-28T06:28:33Z</time></trkpt><trkpt lat="44.79608309604675" lon="9.098418262127305"><ele>390.5</ele><time>2026-04-28T06:28:34Z</time></trkpt><trkpt lat="44.796074426017476" lon="9.098210499185761"><ele>390.0</ele><time>2026-04-28T06:28:35Z</time></trkpt><trkpt lat="44.796067454116034" lon="9.09798406566158"><ele>390.0</ele><time>2026-04-28T06:28:36Z</time></trkpt><trkpt lat="44.79606186425553" lon="9.097738845985356"><ele>390.0</ele><time>2026-04-28T06:28:37Z</time></trkpt><trkpt lat="44.79605619488793" lon="9.097478702354534"><ele>390.0</ele><time>2026-04-28T06:28:38Z</time></trkpt><trkpt lat="44.79605987785509" lon="9.097208151866305"><ele>390.0</ele><time>2026-04-28T06:28:39Z</time></trkpt><trkpt lat="44.79606395597721" lon="9.096942610769647"><ele>390.0</ele><time>2026-04-28T06:28:40Z</time></trkpt><trkpt lat="44.79605638503296" lon="9.096673554747987"><ele>390.0</ele><time>2026-04-28T06:28:41Z</time></trkpt><trkpt lat="44.796040514603426" lon="9.096421802284688"><ele>390.0</ele><time>2026-04-28T06:28:42Z</time></trkpt><trkpt lat="44.79601428608254" lon="9.096174987607101"><ele>390.0</ele><time>2026-04-28T06:28:43Z</time></trkpt><trkpt lat="44.79596758276265" lon="9.095938667798638"><ele>390.0</ele><time>2026-04-28T06:28:44Z</time></trkpt><trkpt lat="44.795898428547325" lon="9.095695732015484"><ele>389.33333333333337</ele><time>2026-04-28T06:28:45Z</time></trkpt><trkpt lat="44.795833573856235" lon="9.095443944571567"><ele>388.6666666666667</ele><time>2026-04-28T06:28:46Z</time></trkpt><trkpt lat="44.79578935430991" lon="9.095170593468564"><ele>388.0</ele><time>2026-04-28T06:28:47Z</time></trkpt><trkpt lat="44.79577141433516" lon="9.094898317091367"><ele>388.0</ele><time>2026-04-28T06:28:48Z</time></trkpt><trkpt lat="44.79575464746679" lon="9.094647561275048"><ele>388.0</ele><time>2026-04-28T06:28:49Z</time></trkpt><trkpt lat="44.79572981843613" lon="9.094411264493388"><ele>388.0</ele><time>2026-04-28T06:28:50Z</time></trkpt><trkpt lat="44.795695475324244" lon="9.0941690035864"><ele>387.6666666666667</ele><time>2026-04-28T06:28:51Z</time></trkpt><trkpt lat="44.79564553828995" lon="9.09391125771927"><ele>387.33333333333337</ele><time>2026-04-28T06:28:52Z</time></trkpt><trkpt lat="44.79559107088021" lon="9.093643314947293"><ele>387.0</ele><time>2026-04-28T06:28:53Z</time></trkpt><trkpt lat="44.79553600205381" lon="9.093370040239076"><ele>385.6666666666667</ele><time>2026-04-28T06:28:54Z</time></trkpt><trkpt lat="44.795483080823836" lon="9.093092037511997"><ele>384.33333333333337</ele><time>2026-04-28T06:28:55Z</time></trkpt><trkpt lat="44.795425849427666" lon="9.09280802390945"><ele>383.0</ele><time>2026-04-28T06:28:56Z</time></trkpt><trkpt lat="44.795366833774075" lon="9.092515377152926"><ele>382.0</ele><time>2026-04-28T06:28:57Z</time></trkpt><trkpt lat="44.79530232050407" lon="9.09220324419437"><ele>381.0</ele><time>2026-04-28T06:28:58Z</time></trkpt><trkpt lat="44.79523927625371" lon="9.09188980964984"><ele>381.5</ele><time>2026-04-28T06:28:59Z</time></trkpt><trkpt lat="44.79517669287941" lon="9.091570104841798"><ele>382.0</ele><time>2026-04-28T06:29:00Z</time></trkpt><trkpt lat="44.79511326253656" lon="9.091246038112578"><ele>382.0</ele><time>2026-04-28T06:29:01Z</time></trkpt><trkpt lat="44.79505419161715" lon="9.090940809242507"><ele>382.0</ele><time>2026-04-28T06:29:02Z</time></trkpt><trkpt lat="44.79499675798077" lon="9.090658752532727"><ele>382.0</ele><time>2026-04-28T06:29:03Z</time></trkpt><trkpt lat="44.79494344197739" lon="9.09038008076793"><ele>381.66666666666663</ele><time>2026-04-28T06:29:04Z</time></trkpt><trkpt lat="44.794895116746225" lon="9.09010838660269"><ele>381.3333333333333</ele><time>2026-04-28T06:29:05Z</time></trkpt><trkpt lat="44.79485411414018" lon="9.089841721133132"><ele>381.0</ele><time>2026-04-28T06:29:06Z</time></trkpt><trkpt lat="44.794807250902885" lon="9.089565014693187"><ele>379.0</ele><time>2026-04-28T06:29:07Z</time></trkpt><trkpt lat="44.7947581427403" lon="9.089286302149718"><ele>377.0</ele><time>2026-04-28T06:29:08Z</time></trkpt><trkpt lat="44.79471044219923" lon="9.089005719330434"><ele>375.0</ele><time>2026-04-28T06:29:09Z</time></trkpt><trkpt lat="44.794674288795115" lon="9.088716899244197"><ele>374.3333333333333</ele><time>2026-04-28T06:29:10Z</time></trkpt><trkpt lat="44.794624528723105" lon="9.08842826473779"><ele>373.66666666666663</ele><time>2026-04-28T06:29:11Z</time></trkpt><trkpt lat="44.79457322292639" lon="9.088132569965019"><ele>373.0</ele><time>2026-04-28T06:29:12Z</time></trkpt><trkpt lat="44.79452184895725" lon="9.08784031822495"><ele>372.3333333333333</ele><time>2026-04-28T06:29:13Z</time></trkpt><trkpt lat="44.79447099227891" lon="9.087547848399577"><ele>371.6666666666667</ele><time>2026-04-28T06:29:14Z</time></trkpt><trkpt lat="44.794408688859086" lon="9.087263099245902"><ele>371.0</ele><time>2026-04-28T06:29:15Z</time></trkpt><trkpt lat="44.794375704741626" lon="9.086967659486074"><ele>371.0</ele><time>2026-04-28T06:29:16Z</time></trkpt><trkpt lat="44.79434672514567" lon="9.086677674782681"><ele>371.0</ele><time>2026-04-28T06:29:17Z</time></trkpt><trkpt lat="44.7943235437336" lon="9.086386856368936"><ele>371.0</ele><time>2026-04-28T06:29:18Z</time></trkpt><trkpt lat="44.794304451389806" lon="9.086097095773216"><ele>372.6666666666667</ele><time>2026-04-28T06:29:19Z</time></trkpt><trkpt lat="44.794286815857326" lon="9.085807416922002"><ele>374.3333333333333</ele><time>2026-04-28T06:29:20Z</time></trkpt><trkpt lat="44.79426788013546" lon="9.085531720266024"><ele>376.0</ele><time>2026-04-28T06:29:21Z</time></trkpt><trkpt lat="44.79424874332637" lon="9.085264603083319"><ele>376.0</ele><time>2026-04-28T06:29:22Z</time></trkpt><trkpt lat="44.79422708488339" lon="9.084985740622173"><ele>376.0</ele><time>2026-04-28T06:29:23Z</time></trkpt><trkpt lat="44.79420424331772" lon="9.084702112447768"><ele>376.0</ele><time>2026-04-28T06:29:24Z</time></trkpt><trkpt lat="44.79417130409316" lon="9.084424326540109"><ele>375.0</ele><time>2026-04-28T06:29:25Z</time></trkpt><trkpt lat="44.79412662538231" lon="9.084156677365254"><ele>374.0</ele><time>2026-04-28T06:29:26Z</time></trkpt><trkpt lat="44.7940724890413" lon="9.0838813034303"><ele>373.0</ele><time>2026-04-28T06:29:27Z</time></trkpt><trkpt lat="44.79400654408788" lon="9.083613308552929"><ele>371.0</ele><time>2026-04-28T06:29:28Z</time></trkpt><trkpt lat="44.79393357910552" lon="9.083334260785797"><ele>369.0</ele><time>2026-04-28T06:29:29Z</time></trkpt><trkpt lat="44.79386871135839" lon="9.08307561042227"><ele>367.0</ele><time>2026-04-28T06:29:30Z</time></trkpt><trkpt lat="44.793809413607555" lon="9.082844424689597"><ele>367.0</ele><time>2026-04-28T06:29:31Z</time></trkpt><trkpt lat="44.793727081641386" lon="9.082620258116387"><ele>367.0</ele><time>2026-04-28T06:29:31.999Z</time></trkpt><trkpt lat="44.793625185275836" lon="9.08239955043737"><ele>367.0</ele><time>2026-04-28T06:29:32.999Z</time></trkpt><trkpt lat="44.7935089815671" lon="9.082183419239561"><ele>367.0</ele><time>2026-04-28T06:29:33.999Z</time></trkpt><trkpt lat="44.793393599055385" lon="9.081962811498085"><ele>367.0</ele><time>2026-04-28T06:29:34.999Z</time></trkpt><trkpt lat="44.793286704603965" lon="9.081729771278473"><ele>367.0</ele><time>2026-04-28T06:29:35.999Z</time></trkpt><trkpt lat="44.79317953931898" lon="9.081494622517154"><ele>366.3333333333333</ele><time>2026-04-28T06:29:36.999Z</time></trkpt><trkpt lat="44.79308390825323" lon="9.081240653261387"><ele>365.6666666666667</ele><time>2026-04-28T06:29:37.999Z</time></trkpt><trkpt lat="44.793002994175474" lon="9.080959243559706"><ele>365.0</ele><time>2026-04-28T06:29:38.999Z</time></trkpt><trkpt lat="44.792928020592925" lon="9.080665941821188"><ele>363.33333333333337</ele><time>2026-04-28T06:29:39.999Z</time></trkpt><trkpt lat="44.792850930219146" lon="9.080374008335586"><ele>361.6666666666667</ele><time>2026-04-28T06:29:40.999Z</time></trkpt><trkpt lat="44.79277460794746" lon="9.080100013290386"><ele>360.0</ele><time>2026-04-28T06:29:41.999Z</time></trkpt><trkpt lat="44.792697733004225" lon="9.079846167516205"><ele>360.3333333333333</ele><time>2026-04-28T06:29:42.999Z</time></trkpt><trkpt lat="44.79261699538284" lon="9.079595076226244"><ele>360.66666666666663</ele><time>2026-04-28T06:29:43.999Z</time></trkpt><trkpt lat="44.79252320198061" lon="9.079349042212154"><ele>361.0</ele><time>2026-04-28T06:29:44.999Z</time></trkpt><trkpt lat="44.79241122941768" lon="9.079111714416467"><ele>358.66666666666663</ele><time>2026-04-28T06:29:45.999Z</time></trkpt><trkpt lat="44.79228353073585" lon="9.078881150593144"><ele>356.3333333333333</ele><time>2026-04-28T06:29:46.999Z</time></trkpt><trkpt lat="44.79213414997094" lon="9.078653375631916"><ele>354.0</ele><time>2026-04-28T06:29:47.999Z</time></trkpt><trkpt lat="44.791971587891666" lon="9.078418374314024"><ele>355.5</ele><time>2026-04-28T06:29:48.999Z</time></trkpt><trkpt lat="44.79180820005139" lon="9.078181453656855"><ele>357.0</ele><time>2026-04-28T06:29:49.999Z</time></trkpt><trkpt lat="44.79165551096684" lon="9.07796224561175"><ele>357.0</ele><time>2026-04-28T06:29:50.999Z</time></trkpt><trkpt lat="44.791511683957964" lon="9.07775584654913"><ele>357.0</ele><time>2026-04-28T06:29:51.999Z</time></trkpt><trkpt lat="44.79136841455454" lon="9.077542005231379"><ele>357.0</ele><time>2026-04-28T06:29:52.999Z</time></trkpt><trkpt lat="44.79123077420585" lon="9.077318989009823"><ele>356.6666666666667</ele><time>2026-04-28T06:29:53.999Z</time></trkpt><trkpt lat="44.791099179761055" lon="9.077089984210215"><ele>356.33333333333337</ele><time>2026-04-28T06:29:54.999Z</time></trkpt><trkpt lat="44.79097083283514" lon="9.076847603794754"><ele>356.0</ele><time>2026-04-28T06:29:55.999Z</time></trkpt><trkpt lat="44.79084230837878" lon="9.076593430332531"><ele>356.0</ele><time>2026-04-28T06:29:56.999Z</time></trkpt><trkpt lat="44.79071979665743" lon="9.076345099197601"><ele>356.0</ele><time>2026-04-28T06:29:57.999Z</time></trkpt><trkpt lat="44.79060612374264" lon="9.076108741625388"><ele>356.0</ele><time>2026-04-28T06:29:58.999Z</time></trkpt><trkpt lat="44.790496400341674" lon="9.075872350738353"><ele>353.33333333333337</ele><time>2026-04-28T06:29:59.999Z</time></trkpt><trkpt lat="44.79038565842464" lon="9.075649802140843"><ele>350.6666666666667</ele><time>2026-04-28T06:30:00.999Z</time></trkpt><trkpt lat="44.7902773513477" lon="9.075433050796088"><ele>348.0</ele><time>2026-04-28T06:30:01.999Z</time></trkpt><trkpt lat="44.790178035283354" lon="9.075209260928434"><ele>348.3333333333333</ele><time>2026-04-28T06:30:02.999Z</time></trkpt><trkpt lat="44.790100947462975" lon="9.074965960622514"><ele>348.66666666666663</ele><time>2026-04-28T06:30:03.999Z</time></trkpt><trkpt lat="44.79003818448005" lon="9.074730676613846"><ele>349.0</ele><time>2026-04-28T06:30:04.999Z</time></trkpt><trkpt lat="44.78997904048411" lon="9.074510024891364"><ele>349.0</ele><time>2026-04-28T06:30:05.999Z</time></trkpt><trkpt lat="44.78991317852593" lon="9.074308917738385"><ele>349.0</ele><time>2026-04-28T06:30:06.999Z</time></trkpt><trkpt lat="44.78981959646188" lon="9.07410844644043"><ele>349.0</ele><time>2026-04-28T06:30:07.999Z</time></trkpt><trkpt lat="44.78970714194308" lon="9.0738895514439"><ele>346.66666666666663</ele><time>2026-04-28T06:30:08.999Z</time></trkpt><trkpt lat="44.78961389304679" lon="9.073655067794768"><ele>344.3333333333333</ele><time>2026-04-28T06:30:09.999Z</time></trkpt><trkpt lat="44.78954770424173" lon="9.073429756813152"><ele>342.0</ele><time>2026-04-28T06:30:10.999Z</time></trkpt><trkpt lat="44.78948760987876" lon="9.073233088506607"><ele>341.6666666666667</ele><time>2026-04-28T06:30:11.999Z</time></trkpt><trkpt lat="44.789399558128935" lon="9.07305629000978"><ele>341.33333333333337</ele><time>2026-04-28T06:30:12.999Z</time></trkpt><trkpt lat="44.78927441737114" lon="9.072901128553324"><ele>341.0</ele><time>2026-04-28T06:30:13.999Z</time></trkpt><trkpt lat="44.7891390868502" lon="9.072739313841348"><ele>341.0</ele><time>2026-04-28T06:30:14.999Z</time></trkpt><trkpt lat="44.789007939371736" lon="9.072558094559804"><ele>341.0</ele><time>2026-04-28T06:30:15.999Z</time></trkpt><trkpt lat="44.788880269003236" lon="9.072370299093354"><ele>341.0</ele><time>2026-04-28T06:30:16.999Z</time></trkpt><trkpt lat="44.78876767194916" lon="9.072148720759577"><ele>340.0</ele><time>2026-04-28T06:30:17.999Z</time></trkpt><trkpt lat="44.78866489270784" lon="9.071910643871576"><ele>339.0</ele><time>2026-04-28T06:30:18.999Z</time></trkpt><trkpt lat="44.788565911318706" lon="9.071650668760391"><ele>338.0</ele><time>2026-04-28T06:30:19.999Z</time></trkpt><trkpt lat="44.78846994523776" lon="9.071375277821522"><ele>337.33333333333337</ele><time>2026-04-28T06:30:20.999Z</time></trkpt><trkpt lat="44.78836864788296" lon="9.071105237913171"><ele>336.6666666666667</ele><time>2026-04-28T06:30:21.999Z</time></trkpt><trkpt lat="44.78826494926509" lon="9.070825184954225"><ele>336.0</ele><time>2026-04-28T06:30:22.999Z</time></trkpt><trkpt lat="44.78816190715978" lon="9.07055328467245"><ele>335.6666666666667</ele><time>2026-04-28T06:30:23.999Z</time></trkpt><trkpt lat="44.78805939572325" lon="9.070271288481253"><ele>335.33333333333337</ele><time>2026-04-28T06:30:24.999Z</time></trkpt><trkpt lat="44.78795257995461" lon="9.069995033579346"><ele>335.0</ele><time>2026-04-28T06:30:25.999Z</time></trkpt><trkpt lat="44.78785189151603" lon="9.06973959263336"><ele>334.6666666666667</ele><time>2026-04-28T06:30:26.999Z</time></trkpt><trkpt lat="44.78775394391689" lon="9.069492691975436"><ele>334.3333333333333</ele><time>2026-04-28T06:30:27.999Z</time></trkpt><trkpt lat="44.78765148722142" lon="9.069252378858716"><ele>334.0</ele><time>2026-04-28T06:30:28.999Z</time></trkpt><trkpt lat="44.78754806207556" lon="9.069007969143373"><ele>333.66666666666663</ele><time>2026-04-28T06:30:29.999Z</time></trkpt><trkpt lat="44.78744940191358" lon="9.068758203656797"><ele>333.3333333333333</ele><time>2026-04-28T06:30:30.999Z</time></trkpt><trkpt lat="44.787363434377276" lon="9.06852104711258"><ele>333.0</ele><time>2026-04-28T06:30:31.999Z</time></trkpt><trkpt lat="44.787283694048" lon="9.068283510180173"><ele>333.3333333333333</ele><time>2026-04-28T06:30:32.999Z</time></trkpt><trkpt lat="44.78720808629112" lon="9.068054070212213"><ele>333.66666666666663</ele><time>2026-04-28T06:30:33.999Z</time></trkpt><trkpt lat="44.78713746171814" lon="9.067830136856816"><ele>334.0</ele><time>2026-04-28T06:30:34.999Z</time></trkpt><trkpt lat="44.787067640274444" lon="9.067601984287332"><ele>333.66666666666663</ele><time>2026-04-28T06:30:35.999Z</time></trkpt><trkpt lat="44.787000822561566" lon="9.067382964482555"><ele>333.3333333333333</ele><time>2026-04-28T06:30:36.999Z</time></trkpt><trkpt lat="44.786938670141105" lon="9.067166663497053"><ele>333.0</ele><time>2026-04-28T06:30:37.999Z</time></trkpt><trkpt lat="44.78687542373131" lon="9.066952770446672"><ele>333.3333333333333</ele><time>2026-04-28T06:30:39Z</time></trkpt><trkpt lat="44.78681030478195" lon="9.066748524585767"><ele>333.66666666666663</ele><time>2026-04-28T06:30:40Z</time></trkpt><trkpt lat="44.78674145226097" lon="9.066531888971813"><ele>334.0</ele><time>2026-04-28T06:30:41Z</time></trkpt><trkpt lat="44.786676390293245" lon="9.066331106671088"><ele>333.0</ele><time>2026-04-28T06:30:42Z</time></trkpt><trkpt lat="44.786606026367856" lon="9.066134176199087"><ele>332.0</ele><time>2026-04-28T06:30:43Z</time></trkpt><trkpt lat="44.7865406571176" lon="9.065946918836351"><ele>331.0</ele><time>2026-04-28T06:30:44Z</time></trkpt><trkpt lat="44.78647344353213" lon="9.06575746883377"><ele>330.75</ele><time>2026-04-28T06:30:45Z</time></trkpt><trkpt lat="44.7864125112294" lon="9.065564671306026"><ele>330.5</ele><time>2026-04-28T06:30:46Z</time></trkpt><trkpt lat="44.786363243077844" lon="9.065368607700629"><ele>330.25</ele><time>2026-04-28T06:30:47Z</time></trkpt><trkpt lat="44.78633443189513" lon="9.065172026670021"><ele>330.0</ele><time>2026-04-28T06:30:48Z</time></trkpt><trkpt lat="44.78631360661811" lon="9.064978728659005"><ele>330.0</ele><time>2026-04-28T06:30:49Z</time></trkpt><trkpt lat="44.78628501916664" lon="9.064788489294903"><ele>330.0</ele><time>2026-04-28T06:30:50Z</time></trkpt><trkpt lat="44.78625875058398" lon="9.06460865554393"><ele>330.0</ele><time>2026-04-28T06:30:51Z</time></trkpt><trkpt lat="44.786240658431346" lon="9.06446876891795"><ele>330.0</ele><time>2026-04-28T06:30:52Z</time></trkpt><trkpt lat="44.7862095331253" lon="9.064356350921217"><ele>330.0</ele><time>2026-04-28T06:30:53Z</time></trkpt><trkpt lat="44.78615950608578" lon="9.064267455414564"><ele>330.0</ele><time>2026-04-28T06:30:54Z</time></trkpt><trkpt lat="44.786103609319355" lon="9.064201524137768"><ele>330.0</ele><time>2026-04-28T06:30:55Z</time></trkpt><trkpt lat="44.78605550756452" lon="9.064137418099687"><ele>330.0</ele><time>2026-04-28T06:30:56Z</time></trkpt><trkpt lat="44.78600776310932" lon="9.064064877991246"><ele>330.0</ele><time>2026-04-28T06:30:57Z</time></trkpt><trkpt lat="44.7859506372913" lon="9.06398213103124"><ele>330.0</ele><time>2026-04-28T06:30:58Z</time></trkpt><trkpt lat="44.78589315108662" lon="9.063902697789974"><ele>330.1666666666667</ele><time>2026-04-28T06:30:59Z</time></trkpt><trkpt lat="44.785846818570846" lon="9.063838382741451"><ele>330.3333333333333</ele><time>2026-04-28T06:31:00Z</time></trkpt><trkpt lat="44.785805124900435" lon="9.063755276764763"><ele>330.5</ele><time>2026-04-28T06:31:02Z</time></trkpt><trkpt lat="44.78583949371892" lon="9.063615933413852"><ele>330.66666666666663</ele><time>2026-04-28T06:31:04Z</time></trkpt><trkpt lat="44.785885530035486" lon="9.063505473173672"><ele>330.8333333333333</ele><time>2026-04-28T06:31:05Z</time></trkpt><trkpt lat="44.785936464771474" lon="9.063388705224897"><ele>331.0</ele><time>2026-04-28T06:31:06Z</time></trkpt><trkpt lat="44.78598989908995" lon="9.063239839173075"><ele>330.75</ele><time>2026-04-28T06:31:07Z</time></trkpt><trkpt lat="44.78606141338151" lon="9.063085076336165"><ele>330.5</ele><time>2026-04-28T06:31:08Z</time></trkpt><trkpt lat="44.78613271395912" lon="9.062917712528645"><ele>330.25</ele><time>2026-04-28T06:31:09Z</time></trkpt><trkpt lat="44.78621458996441" lon="9.062746133529552"><ele>330.0</ele><time>2026-04-28T06:31:10Z</time></trkpt><trkpt lat="44.78630238735225" lon="9.0625567541853"><ele>329.6666666666667</ele><time>2026-04-28T06:31:11Z</time></trkpt><trkpt lat="44.78639318762735" lon="9.062361739923146"><ele>329.33333333333337</ele><time>2026-04-28T06:31:12Z</time></trkpt><trkpt lat="44.78647528746993" lon="9.062158784814248"><ele>329.0</ele><time>2026-04-28T06:31:13Z</time></trkpt><trkpt lat="44.786557288294674" lon="9.061959162948735"><ele>329.0</ele><time>2026-04-28T06:31:14Z</time></trkpt><trkpt lat="44.78664023440062" lon="9.061772677643264"><ele>329.0</ele><time>2026-04-28T06:31:15Z</time></trkpt><trkpt lat="44.78672659803266" lon="9.061578742354255"><ele>329.0</ele><time>2026-04-28T06:31:16Z</time></trkpt><trkpt lat="44.786798945912885" lon="9.061367517746534"><ele>328.6666666666667</ele><time>2026-04-28T06:31:17Z</time></trkpt><trkpt lat="44.786900630333584" lon="9.061161381867269"><ele>328.3333333333333</ele><time>2026-04-28T06:31:18Z</time></trkpt><trkpt lat="44.78699491146438" lon="9.060938944240661"><ele>328.0</ele><time>2026-04-28T06:31:19Z</time></trkpt><trkpt lat="44.787092134702064" lon="9.060719825454585"><ele>327.3333333333333</ele><time>2026-04-28T06:31:20Z</time></trkpt><trkpt lat="44.7871965307426" lon="9.06049404258942"><ele>326.6666666666667</ele><time>2026-04-28T06:31:21Z</time></trkpt><trkpt lat="44.787298515213934" lon="9.060258200996714"><ele>326.0</ele><time>2026-04-28T06:31:22Z</time></trkpt><trkpt lat="44.787397354483154" lon="9.060013577327236"><ele>326.0</ele><time>2026-04-28T06:31:23Z</time></trkpt><trkpt lat="44.78749177090253" lon="9.059759311519896"><ele>326.0</ele><time>2026-04-28T06:31:24Z</time></trkpt><trkpt lat="44.78757822105672" lon="9.059506031007409"><ele>326.0</ele><time>2026-04-28T06:31:25Z</time></trkpt><trkpt lat="44.78765643883624" lon="9.059246743234446"><ele>324.0</ele><time>2026-04-28T06:31:26Z</time></trkpt><trkpt lat="44.78773883207083" lon="9.059001942849353"><ele>322.0</ele><time>2026-04-28T06:31:27Z</time></trkpt><trkpt lat="44.78781555048651" lon="9.058763882646327"><ele>320.0</ele><time>2026-04-28T06:31:28Z</time></trkpt><trkpt lat="44.78789304983484" lon="9.058531363634593"><ele>320.0</ele><time>2026-04-28T06:31:29Z</time></trkpt><trkpt lat="44.787969968031824" lon="9.058304276630139"><ele>320.0</ele><time>2026-04-28T06:31:30Z</time></trkpt><trkpt lat="44.78804807491172" lon="9.05807995078574"><ele>320.0</ele><time>2026-04-28T06:31:31Z</time></trkpt><trkpt lat="44.78813234100798" lon="9.057868232937384"><ele>320.33333333333337</ele><time>2026-04-28T06:31:32Z</time></trkpt><trkpt lat="44.78822263047061" lon="9.057646083355385"><ele>320.6666666666667</ele><time>2026-04-28T06:31:33Z</time></trkpt><trkpt lat="44.78833214957083" lon="9.057443317681583"><ele>321.0</ele><time>2026-04-28T06:31:34Z</time></trkpt><trkpt lat="44.78845127013543" lon="9.05724704884821"><ele>320.0</ele><time>2026-04-28T06:31:35Z</time></trkpt><trkpt lat="44.788569805357284" lon="9.057047838137116"><ele>319.0</ele><time>2026-04-28T06:31:36Z</time></trkpt><trkpt lat="44.788686864106985" lon="9.056850438824453"><ele>318.0</ele><time>2026-04-28T06:31:36.999Z</time></trkpt><trkpt lat="44.78880821905002" lon="9.056655288099554"><ele>318.3333333333333</ele><time>2026-04-28T06:31:37.999Z</time></trkpt><trkpt lat="44.78893206083878" lon="9.05645253422216"><ele>318.66666666666663</ele><time>2026-04-28T06:31:38.999Z</time></trkpt><trkpt lat="44.78905524408225" lon="9.056252693629371"><ele>319.0</ele><time>2026-04-28T06:31:39.999Z</time></trkpt><trkpt lat="44.78918182035648" lon="9.056042777399169"><ele>319.0</ele><time>2026-04-28T06:31:40.999Z</time></trkpt><trkpt lat="44.789303674374935" lon="9.055831197479328"><ele>319.0</ele><time>2026-04-28T06:31:41.999Z</time></trkpt><trkpt lat="44.78942562724857" lon="9.05562881607205"><ele>319.0</ele><time>2026-04-28T06:31:42.999Z</time></trkpt><trkpt lat="44.78954030557308" lon="9.055434025877942"><ele>319.0</ele><time>2026-04-28T06:31:43.999Z</time></trkpt><trkpt lat="44.78966425255363" lon="9.055247357870565"><ele>319.0</ele><time>2026-04-28T06:31:44.999Z</time></trkpt><trkpt lat="44.78979173253322" lon="9.055068221328147"><ele>319.0</ele><time>2026-04-28T06:31:45.999Z</time></trkpt><trkpt lat="44.789923277750084" lon="9.054903448123945"><ele>321.0</ele><time>2026-04-28T06:31:46.999Z</time></trkpt><trkpt lat="44.79007045273318" lon="9.054759190746294"><ele>323.0</ele><time>2026-04-28T06:31:47.999Z</time></trkpt><trkpt lat="44.79022527844275" lon="9.054639412015948"><ele>325.0</ele><time>2026-04-28T06:31:48.999Z</time></trkpt><trkpt lat="44.79038449317251" lon="9.054530845675348"><ele>325.0</ele><time>2026-04-28T06:31:49.999Z</time></trkpt><trkpt lat="44.79055193865753" lon="9.054456345754787"><ele>325.0</ele><time>2026-04-28T06:31:50.999Z</time></trkpt><trkpt lat="44.790724344449465" lon="9.054395508870344"><ele>325.0</ele><time>2026-04-28T06:31:51.999Z</time></trkpt><trkpt lat="44.79090436592251" lon="9.05434824480746"><ele>323.66666666666663</ele><time>2026-04-28T06:31:52.999Z</time></trkpt><trkpt lat="44.79108746969088" lon="9.054307407368999"><ele>322.3333333333333</ele><time>2026-04-28T06:31:53.999Z</time></trkpt><trkpt lat="44.79127387260433" lon="9.054258879742417"><ele>321.0</ele><time>2026-04-28T06:31:54.999Z</time></trkpt><trkpt lat="44.79145522461851" lon="9.054201234936007"><ele>321.0</ele><time>2026-04-28T06:31:55.999Z</time></trkpt><trkpt lat="44.79163112294939" lon="9.054134991083638"><ele>321.0</ele><time>2026-04-28T06:31:56.999Z</time></trkpt><trkpt lat="44.79179055616149" lon="9.054061201227126"><ele>321.0</ele><time>2026-04-28T06:31:57.999Z</time></trkpt><trkpt lat="44.791939529195574" lon="9.053960283379833"><ele>321.3333333333333</ele><time>2026-04-28T06:31:58.999Z</time></trkpt><trkpt lat="44.79208542011019" lon="9.053819455195647"><ele>321.66666666666663</ele><time>2026-04-28T06:31:59.999Z</time></trkpt><trkpt lat="44.79223755581069" lon="9.05365606614994"><ele>322.0</ele><time>2026-04-28T06:32:00.999Z</time></trkpt><trkpt lat="44.79239028419146" lon="9.053484808277279"><ele>322.0</ele><time>2026-04-28T06:32:01.999Z</time></trkpt><trkpt lat="44.79255717846841" lon="9.053331848230885"><ele>322.0</ele><time>2026-04-28T06:32:02.999Z</time></trkpt><trkpt lat="44.79272111325242" lon="9.053191055934821"><ele>322.0</ele><time>2026-04-28T06:32:03.999Z</time></trkpt><trkpt lat="44.79288735101225" lon="9.053082641425613"><ele>323.66666666666663</ele><time>2026-04-28T06:32:04.999Z</time></trkpt><trkpt lat="44.793076124783035" lon="9.053002125534382"><ele>325.3333333333333</ele><time>2026-04-28T06:32:05.999Z</time></trkpt><trkpt lat="44.79326806184068" lon="9.052937551251048"><ele>327.0</ele><time>2026-04-28T06:32:06.999Z</time></trkpt><trkpt lat="44.79347447816941" lon="9.052885540244187"><ele>325.3333333333333</ele><time>2026-04-28T06:32:07.999Z</time></trkpt><trkpt lat="44.793687572581064" lon="9.052837858099446"><ele>323.66666666666663</ele><time>2026-04-28T06:32:08.999Z</time></trkpt><trkpt lat="44.793909179023196" lon="9.052785376845662"><ele>322.0</ele><time>2026-04-28T06:32:09.999Z</time></trkpt><trkpt lat="44.794123717287654" lon="9.052733272035567"><ele>322.0</ele><time>2026-04-28T06:32:10.999Z</time></trkpt><trkpt lat="44.79432481122455" lon="9.052678856868676"><ele>322.0</ele><time>2026-04-28T06:32:11.999Z</time></trkpt><trkpt lat="44.79451811540065" lon="9.052615987400232"><ele>322.0</ele><time>2026-04-28T06:32:12.999Z</time></trkpt><trkpt lat="44.79469727490282" lon="9.052523195871565"><ele>322.3333333333333</ele><time>2026-04-28T06:32:13.999Z</time></trkpt><trkpt lat="44.7948629790869" lon="9.052391776987285"><ele>322.6666666666667</ele><time>2026-04-28T06:32:14.999Z</time></trkpt><trkpt lat="44.79502065326144" lon="9.052221729102408"><ele>323.0</ele><time>2026-04-28T06:32:15.999Z</time></trkpt><trkpt lat="44.79517417270267" lon="9.05202671286552"><ele>320.0</ele><time>2026-04-28T06:32:16.999Z</time></trkpt><trkpt lat="44.79533219711159" lon="9.051813464733852"><ele>317.0</ele><time>2026-04-28T06:32:17.999Z</time></trkpt><trkpt lat="44.795496817936765" lon="9.051575391843611"><ele>317.0</ele><time>2026-04-28T06:32:18.999Z</time></trkpt><trkpt lat="44.79567546399019" lon="9.051334464399705"><ele>317.0</ele><time>2026-04-28T06:32:19.999Z</time></trkpt><trkpt lat="44.79586072909537" lon="9.051093330624953"><ele>315.5</ele><time>2026-04-28T06:32:20.999Z</time></trkpt><trkpt lat="44.796036196958994" lon="9.05085029450544"><ele>314.0</ele><time>2026-04-28T06:32:21.999Z</time></trkpt><trkpt lat="44.796206687708995" lon="9.05061567199974"><ele>314.0</ele><time>2026-04-28T06:32:22.999Z</time></trkpt><trkpt lat="44.79637121890273" lon="9.050397662413525"><ele>314.0</ele><time>2026-04-28T06:32:23.999Z</time></trkpt><trkpt lat="44.796536125220044" lon="9.050203324747825"><ele>314.0</ele><time>2026-04-28T06:32:24.999Z</time></trkpt><trkpt lat="44.7967098476133" lon="9.050033776466226"><ele>313.6666666666667</ele><time>2026-04-28T06:32:25.999Z</time></trkpt><trkpt lat="44.796895586712914" lon="9.049891172687072"><ele>313.3333333333333</ele><time>2026-04-28T06:32:26.999Z</time></trkpt><trkpt lat="44.797083298139796" lon="9.04976986162916"><ele>313.0</ele><time>2026-04-28T06:32:27.999Z</time></trkpt><trkpt lat="44.79728004900174" lon="9.049648045643048"><ele>313.0</ele><time>2026-04-28T06:32:28.999Z</time></trkpt><trkpt lat="44.79747569513205" lon="9.049532962832838"><ele>313.0</ele><time>2026-04-28T06:32:29.999Z</time></trkpt><trkpt lat="44.79766480288849" lon="9.049442253527333"><ele>313.0</ele><time>2026-04-28T06:32:30.999Z</time></trkpt><trkpt lat="44.79785016502162" lon="9.049345531067713"><ele>312.66666666666663</ele><time>2026-04-28T06:32:31.999Z</time></trkpt><trkpt lat="44.79803635468995" lon="9.049258668607163"><ele>312.3333333333333</ele><time>2026-04-28T06:32:32.999Z</time></trkpt><trkpt lat="44.798224989793695" lon="9.049106698337864"><ele>312.0</ele><time>2026-04-28T06:32:33.999Z</time></trkpt><trkpt lat="44.79841583128646" lon="9.04894280626275"><ele>309.5</ele><time>2026-04-28T06:32:34.999Z</time></trkpt><trkpt lat="44.79861067488939" lon="9.048758756405432"><ele>307.0</ele><time>2026-04-28T06:32:35.999Z</time></trkpt><trkpt lat="44.79881771200958" lon="9.048565727965942"><ele>307.0</ele><time>2026-04-28T06:32:36.999Z</time></trkpt><trkpt lat="44.79903323909867" lon="9.04837122628359"><ele>307.0</ele><time>2026-04-28T06:32:37.999Z</time></trkpt><trkpt lat="44.79925037885719" lon="9.048176691673122"><ele>310.0</ele><time>2026-04-28T06:32:38.999Z</time></trkpt><trkpt lat="44.7994464537513" lon="9.047996012490616"><ele>313.0</ele><time>2026-04-28T06:32:39.999Z</time></trkpt><trkpt lat="44.799637022914716" lon="9.047819821667762"><ele>313.0</ele><time>2026-04-28T06:32:40.999Z</time></trkpt><trkpt lat="44.799816297118234" lon="9.047648953899621"><ele>313.0</ele><time>2026-04-28T06:32:41.999Z</time></trkpt><trkpt lat="44.79999651027389" lon="9.047489143227846"><ele>313.0</ele><time>2026-04-28T06:32:42.999Z</time></trkpt><trkpt lat="44.80016580609105" lon="9.047330132397525"><ele>311.3333333333333</ele><time>2026-04-28T06:32:43.999Z</time></trkpt><trkpt lat="44.800328695773175" lon="9.047179841958569"><ele>309.6666666666667</ele><time>2026-04-28T06:32:45Z</time></trkpt><trkpt lat="44.80048947385714" lon="9.047032395326314"><ele>308.0</ele><time>2026-04-28T06:32:46Z</time></trkpt><trkpt lat="44.80064970942787" lon="9.046911103032345"><ele>308.0</ele><time>2026-04-28T06:32:47Z</time></trkpt><trkpt lat="44.800803184122465" lon="9.046784247524908"><ele>308.0</ele><time>2026-04-28T06:32:48Z</time></trkpt><trkpt lat="44.80094838986501" lon="9.04665762841022"><ele>308.0</ele><time>2026-04-28T06:32:49Z</time></trkpt><trkpt lat="44.801079718194366" lon="9.04650518554891"><ele>308.6666666666667</ele><time>2026-04-28T06:32:50Z</time></trkpt><trkpt lat="44.801223671636464" lon="9.046395855733904"><ele>309.3333333333333</ele><time>2026-04-28T06:32:51Z</time></trkpt><trkpt lat="44.80136990767383" lon="9.046324761581294"><ele>310.0</ele><time>2026-04-28T06:32:52Z</time></trkpt><trkpt lat="44.80152570100046" lon="9.046294232842847"><ele>310.0</ele><time>2026-04-28T06:32:53Z</time></trkpt><trkpt lat="44.8016768981985" lon="9.046308059135406"><ele>310.0</ele><time>2026-04-28T06:32:54Z</time></trkpt><trkpt lat="44.80182700334507" lon="9.046359284319712"><ele>310.0</ele><time>2026-04-28T06:32:55Z</time></trkpt><trkpt lat="44.80198129337078" lon="9.046394444149835"><ele>309.3333333333333</ele><time>2026-04-28T06:32:56Z</time></trkpt><trkpt lat="44.80214039573749" lon="9.046391377111528"><ele>308.6666666666667</ele><time>2026-04-28T06:32:57Z</time></trkpt><trkpt lat="44.80230347717291" lon="9.04634162163041"><ele>308.0</ele><time>2026-04-28T06:32:58Z</time></trkpt><trkpt lat="44.8024671224935" lon="9.046254141406376"><ele>308.0</ele><time>2026-04-28T06:32:59Z</time></trkpt><trkpt lat="44.80262739859979" lon="9.04612937373855"><ele>308.0</ele><time>2026-04-28T06:33:00Z</time></trkpt><trkpt lat="44.80279326941431" lon="9.045989490814563"><ele>308.0</ele><time>2026-04-28T06:33:01Z</time></trkpt><trkpt lat="44.80295477706618" lon="9.045867884418522"><ele>307.0</ele><time>2026-04-28T06:33:02Z</time></trkpt><trkpt lat="44.803106629978124" lon="9.045749042765259"><ele>306.0</ele><time>2026-04-28T06:33:03Z</time></trkpt><trkpt lat="44.803250787870724" lon="9.0456238932117"><ele>305.0</ele><time>2026-04-28T06:33:04Z</time></trkpt><trkpt lat="44.803374270254196" lon="9.045473228227165"><ele>305.0</ele><time>2026-04-28T06:33:05Z</time></trkpt><trkpt lat="44.80348059287133" lon="9.045279273385365"><ele>305.0</ele><time>2026-04-28T06:33:06Z</time></trkpt><trkpt lat="44.80357441368769" lon="9.045053786584281"><ele>305.0</ele><time>2026-04-28T06:33:07Z</time></trkpt><trkpt lat="44.80365871840557" lon="9.044828663260105"><ele>303.33333333333337</ele><time>2026-04-28T06:33:08Z</time></trkpt><trkpt lat="44.803765979167196" lon="9.04464173369242"><ele>301.6666666666667</ele><time>2026-04-28T06:33:09Z</time></trkpt><trkpt lat="44.80389105376446" lon="9.04448610266372"><ele>300.0</ele><time>2026-04-28T06:33:10Z</time></trkpt><trkpt lat="44.80402551171003" lon="9.044345139580885"><ele>300.0</ele><time>2026-04-28T06:33:11Z</time></trkpt><trkpt lat="44.80419010776933" lon="9.04424168817972"><ele>300.0</ele><time>2026-04-28T06:33:12Z</time></trkpt><trkpt lat="44.80436126306324" lon="9.044162133683956"><ele>300.0</ele><time>2026-04-28T06:33:13Z</time></trkpt><trkpt lat="44.80453624519559" lon="9.044116218359434"><ele>299.0</ele><time>2026-04-28T06:33:14Z</time></trkpt><trkpt lat="44.80471578787504" lon="9.044088317411703"><ele>298.0</ele><time>2026-04-28T06:33:15Z</time></trkpt><trkpt lat="44.80489604889458" lon="9.04405719612244"><ele>297.0</ele><time>2026-04-28T06:33:16Z</time></trkpt><trkpt lat="44.80507684814831" lon="9.044016067138873"><ele>295.6666666666667</ele><time>2026-04-28T06:33:17Z</time></trkpt><trkpt lat="44.80526160029306" lon="9.043979026125934"><ele>294.33333333333337</ele><time>2026-04-28T06:33:18Z</time></trkpt><trkpt lat="44.80544477462913" lon="9.043947347163783"><ele>293.0</ele><time>2026-04-28T06:33:19Z</time></trkpt><trkpt lat="44.805632636427255" lon="9.043913060282266"><ele>293.0</ele><time>2026-04-28T06:33:20Z</time></trkpt><trkpt lat="44.80582192793998" lon="9.043873887840753"><ele>293.0</ele><time>2026-04-28T06:33:21Z</time></trkpt><trkpt lat="44.806012892462896" lon="9.043823667722153"><ele>293.0</ele><time>2026-04-28T06:33:22Z</time></trkpt><trkpt lat="44.80621501496901" lon="9.04377893614337"><ele>293.0</ele><time>2026-04-28T06:33:23Z</time></trkpt><trkpt lat="44.80642733667416" lon="9.043742449991866"><ele>293.0</ele><time>2026-04-28T06:33:24Z</time></trkpt><trkpt lat="44.80664454716664" lon="9.043708440464176"><ele>293.0</ele><time>2026-04-28T06:33:25Z</time></trkpt><trkpt lat="44.8068592122647" lon="9.043689956821042"><ele>292.33333333333337</ele><time>2026-04-28T06:33:26Z</time></trkpt><trkpt lat="44.8070698506015" lon="9.043681426725064"><ele>291.6666666666667</ele><time>2026-04-28T06:33:27Z</time></trkpt><trkpt lat="44.80727517882083" lon="9.043678938503497"><ele>291.0</ele><time>2026-04-28T06:33:28Z</time></trkpt><trkpt lat="44.80748198518613" lon="9.043675714533574"><ele>289.6666666666667</ele><time>2026-04-28T06:33:29Z</time></trkpt><trkpt lat="44.80769037482288" lon="9.043672049791706"><ele>288.33333333333337</ele><time>2026-04-28T06:33:30Z</time></trkpt><trkpt lat="44.80790071096901" lon="9.04369110099835"><ele>287.0</ele><time>2026-04-28T06:33:31Z</time></trkpt><trkpt lat="44.80811556972089" lon="9.043688148709595"><ele>287.0</ele><time>2026-04-28T06:33:32Z</time></trkpt><trkpt lat="44.80831818541222" lon="9.043657585176062"><ele>287.0</ele><time>2026-04-28T06:33:33Z</time></trkpt><trkpt lat="44.80850587949323" lon="9.043631144393471"><ele>287.0</ele><time>2026-04-28T06:33:34Z</time></trkpt><trkpt lat="44.80869370096945" lon="9.043574682495079"><ele>287.0</ele><time>2026-04-28T06:33:35Z</time></trkpt><trkpt lat="44.80888327028669" lon="9.043485890417578"><ele>287.0</ele><time>2026-04-28T06:33:36Z</time></trkpt><trkpt lat="44.809069374623874" lon="9.04335961581607"><ele>287.0</ele><time>2026-04-28T06:33:37Z</time></trkpt><trkpt lat="44.80924967408289" lon="9.043241133080835"><ele>287.0</ele><time>2026-04-28T06:33:38Z</time></trkpt><trkpt lat="44.80942086991191" lon="9.0431402379367"><ele>287.0</ele><time>2026-04-28T06:33:39Z</time></trkpt><trkpt lat="44.80958184025305" lon="9.043016015682579"><ele>287.0</ele><time>2026-04-28T06:33:40Z</time></trkpt><trkpt lat="44.809742795717945" lon="9.042866132344262"><ele>287.0</ele><time>2026-04-28T06:33:41Z</time></trkpt><trkpt lat="44.80991949158916" lon="9.042720733172995"><ele>287.0</ele><time>2026-04-28T06:33:41.999Z</time></trkpt><trkpt lat="44.81011063196599" lon="9.042589336212286"><ele>287.0</ele><time>2026-04-28T06:33:42.999Z</time></trkpt><trkpt lat="44.81029615443605" lon="9.042456842805507"><ele>286.0</ele><time>2026-04-28T06:33:43.999Z</time></trkpt><trkpt lat="44.81046989972058" lon="9.042328210447792"><ele>285.0</ele><time>2026-04-28T06:33:44.999Z</time></trkpt><trkpt lat="44.81063255396255" lon="9.042206853458795"><ele>284.0</ele><time>2026-04-28T06:33:45.999Z</time></trkpt><trkpt lat="44.81079784219306" lon="9.042095695271119"><ele>284.0</ele><time>2026-04-28T06:33:46.999Z</time></trkpt><trkpt lat="44.810952785864636" lon="9.041984059175885"><ele>284.0</ele><time>2026-04-28T06:33:47.999Z</time></trkpt><trkpt lat="44.81110307832704" lon="9.04187461967442"><ele>284.0</ele><time>2026-04-28T06:33:48.999Z</time></trkpt><trkpt lat="44.8112389642042" lon="9.041755371033133"><ele>284.33333333333337</ele><time>2026-04-28T06:33:49.999Z</time></trkpt><trkpt lat="44.81135990932078" lon="9.041628936793764"><ele>284.6666666666667</ele><time>2026-04-28T06:33:50.999Z</time></trkpt><trkpt lat="44.81147955798274" lon="9.04148415465669"><ele>285.0</ele><time>2026-04-28T06:33:51.999Z</time></trkpt><trkpt lat="44.81161184709785" lon="9.041350553532558"><ele>285.0</ele><time>2026-04-28T06:33:52.999Z</time></trkpt><trkpt lat="44.811744919525786" lon="9.041254999223852"><ele>285.0</ele><time>2026-04-28T06:33:53.999Z</time></trkpt><trkpt lat="44.811888179348145" lon="9.041189013316396"><ele>285.0</ele><time>2026-04-28T06:33:54.999Z</time></trkpt><trkpt lat="44.812042597562076" lon="9.041144532766921"><ele>286.3333333333333</ele><time>2026-04-28T06:33:55.999Z</time></trkpt><trkpt lat="44.81220242601728" lon="9.041113294449502"><ele>287.66666666666663</ele><time>2026-04-28T06:33:56.999Z</time></trkpt><trkpt lat="44.81236400802806" lon="9.041097204646858"><ele>289.0</ele><time>2026-04-28T06:33:57.999Z</time></trkpt><trkpt lat="44.812524957907705" lon="9.04109114640354"><ele>288.25</ele><time>2026-04-28T06:33:58.999Z</time></trkpt><trkpt lat="44.812667529275835" lon="9.041074688279165"><ele>287.5</ele><time>2026-04-28T06:33:59.999Z</time></trkpt><trkpt lat="44.81280437157564" lon="9.041072316802744"><ele>286.75</ele><time>2026-04-28T06:34:00.999Z</time></trkpt><trkpt lat="44.81294139686909" lon="9.041079739729659"><ele>286.0</ele><time>2026-04-28T06:34:01.999Z</time></trkpt><trkpt lat="44.8130651045378" lon="9.041076332837005"><ele>286.0</ele><time>2026-04-28T06:34:02.999Z</time></trkpt><trkpt lat="44.81318151216696" lon="9.041060756721192"><ele>286.0</ele><time>2026-04-28T06:34:03.999Z</time></trkpt><trkpt lat="44.81329894737343" lon="9.041032934869136"><ele>286.0</ele><time>2026-04-28T06:34:04.999Z</time></trkpt><trkpt lat="44.81340847811921" lon="9.040989884930829"><ele>286.0</ele><time>2026-04-28T06:34:05.999Z</time></trkpt><trkpt lat="44.81351345495184" lon="9.040932908085876"><ele>285.25</ele><time>2026-04-28T06:34:06.999Z</time></trkpt><trkpt lat="44.81361977463741" lon="9.040886018303487"><ele>284.5</ele><time>2026-04-28T06:34:07.999Z</time></trkpt><trkpt lat="44.81372178403074" lon="9.040824688141349"><ele>283.75</ele><time>2026-04-28T06:34:08.999Z</time></trkpt><trkpt lat="44.81383333678016" lon="9.040760685790946"><ele>283.0</ele><time>2026-04-28T06:34:09.999Z</time></trkpt><trkpt lat="44.81394516700257" lon="9.040696678807542"><ele>283.0</ele><time>2026-04-28T06:34:10.999Z</time></trkpt><trkpt lat="44.814054005496565" lon="9.040634910248007"><ele>283.0</ele><time>2026-04-28T06:34:11.999Z</time></trkpt><trkpt lat="44.81416896490499" lon="9.040569667915566"><ele>283.0</ele><time>2026-04-28T06:34:12.999Z</time></trkpt><trkpt lat="44.81428324109591" lon="9.04050481332468"><ele>283.0</ele><time>2026-04-28T06:34:13.999Z</time></trkpt><trkpt lat="44.81438996364726" lon="9.040444245536747"><ele>282.6</ele><time>2026-04-28T06:34:14.999Z</time></trkpt><trkpt lat="44.81448077265631" lon="9.040389940370442"><ele>282.20000000000005</ele><time>2026-04-28T06:34:15.999Z</time></trkpt><trkpt lat="44.814568511673215" lon="9.040339015746438"><ele>281.8</ele><time>2026-04-28T06:34:17.999Z</time></trkpt><trkpt lat="44.81463397024082" lon="9.040277322391962"><ele>281.40000000000003</ele><time>2026-04-28T06:34:25.999Z</time></trkpt><trkpt lat="44.81475037942106" lon="9.040206249804228"><ele>281.0</ele><time>2026-04-28T06:34:27.999Z</time></trkpt><trkpt lat="44.814847778203394" lon="9.040158864804315"><ele>281.0</ele><time>2026-04-28T06:34:28.999Z</time></trkpt><trkpt lat="44.814925576931785" lon="9.04010540060704"><ele>281.0</ele><time>2026-04-28T06:34:29.999Z</time></trkpt><trkpt lat="44.81502987893945" lon="9.040043422698128"><ele>281.0</ele><time>2026-04-28T06:34:30.999Z</time></trkpt><trkpt lat="44.81515420127883" lon="9.039996616381297"><ele>281.0</ele><time>2026-04-28T06:34:31.999Z</time></trkpt><trkpt lat="44.81528014324801" lon="9.039925879394257"><ele>280.6666666666667</ele><time>2026-04-28T06:34:32.999Z</time></trkpt><trkpt lat="44.815415611123896" lon="9.039829747140951"><ele>280.3333333333333</ele><time>2026-04-28T06:34:33.999Z</time></trkpt><trkpt lat="44.81556933942644" lon="9.039745085718298"><ele>280.0</ele><time>2026-04-28T06:34:34.999Z</time></trkpt><trkpt lat="44.815737952388076" lon="9.039672505809728"><ele>280.0</ele><time>2026-04-28T06:34:35.999Z</time></trkpt><trkpt lat="44.81590089868007" lon="9.039575830217624"><ele>280.0</ele><time>2026-04-28T06:34:36.999Z</time></trkpt><trkpt lat="44.81607011655727" lon="9.039483050913127"><ele>280.0</ele><time>2026-04-28T06:34:37.999Z</time></trkpt><trkpt lat="44.81624350386149" lon="9.03938504605142"><ele>280.3333333333333</ele><time>2026-04-28T06:34:38.999Z</time></trkpt><trkpt lat="44.816418548380085" lon="9.039286957187452"><ele>280.6666666666667</ele><time>2026-04-28T06:34:39.999Z</time></trkpt><trkpt lat="44.81657862490846" lon="9.039200048027746"><ele>281.0</ele><time>2026-04-28T06:34:40.999Z</time></trkpt><trkpt lat="44.81672467157642" lon="9.039094284624747"><ele>280.0</ele><time>2026-04-28T06:34:41.999Z</time></trkpt><trkpt lat="44.816884466278154" lon="9.039010650130892"><ele>279.0</ele><time>2026-04-28T06:34:42.999Z</time></trkpt><trkpt lat="44.817040218346996" lon="9.03892283642933"><ele>278.0</ele><time>2026-04-28T06:34:43.999Z</time></trkpt><trkpt lat="44.81719815822975" lon="9.038830069902707"><ele>278.0</ele><time>2026-04-28T06:34:44.999Z</time></trkpt><trkpt lat="44.817358238305125" lon="9.038739964437493"><ele>278.0</ele><time>2026-04-28T06:34:45.999Z</time></trkpt><trkpt lat="44.81752268667761" lon="9.038656876279475"><ele>278.0</ele><time>2026-04-28T06:34:46.999Z</time></trkpt><trkpt lat="44.81767974354716" lon="9.038559500656428"><ele>277.33333333333337</ele><time>2026-04-28T06:34:47.999Z</time></trkpt><trkpt lat="44.81784731834613" lon="9.038469832795453"><ele>276.6666666666667</ele><time>2026-04-28T06:34:48.999Z</time></trkpt><trkpt lat="44.818007708289855" lon="9.0383844820643"><ele>276.0</ele><time>2026-04-28T06:34:49.999Z</time></trkpt><trkpt lat="44.81816133519288" lon="9.038300471721419"><ele>276.6666666666667</ele><time>2026-04-28T06:34:51Z</time></trkpt><trkpt lat="44.818323906655756" lon="9.038212253037917"><ele>277.33333333333337</ele><time>2026-04-28T06:34:52Z</time></trkpt><trkpt lat="44.81848532154383" lon="9.038121043988665"><ele>278.0</ele><time>2026-04-28T06:34:53Z</time></trkpt><trkpt lat="44.81864682500501" lon="9.038028970009563"><ele>278.0</ele><time>2026-04-28T06:34:54Z</time></trkpt><trkpt lat="44.81881523574732" lon="9.037935102557856"><ele>278.0</ele><time>2026-04-28T06:34:55Z</time></trkpt><trkpt lat="44.81899052980497" lon="9.037831977637895"><ele>278.0</ele><time>2026-04-28T06:34:56Z</time></trkpt><trkpt lat="44.81916754297718" lon="9.037730511517534"><ele>278.33333333333337</ele><time>2026-04-28T06:34:57Z</time></trkpt><trkpt lat="44.81934079095346" lon="9.037620354430729"><ele>278.6666666666667</ele><time>2026-04-28T06:34:58Z</time></trkpt><trkpt lat="44.819513007972546" lon="9.0375041481384"><ele>279.0</ele><time>2026-04-28T06:34:59Z</time></trkpt><trkpt lat="44.81968630889747" lon="9.037380592282588"><ele>279.0</ele><time>2026-04-28T06:35:00Z</time></trkpt><trkpt lat="44.81986230592435" lon="9.037263895626053"><ele>279.0</ele><time>2026-04-28T06:35:01Z</time></trkpt><trkpt lat="44.82003972931431" lon="9.037145213135803"><ele>279.0</ele><time>2026-04-28T06:35:02Z</time></trkpt><trkpt lat="44.82021351776638" lon="9.03703196525032"><ele>277.0</ele><time>2026-04-28T06:35:03Z</time></trkpt><trkpt lat="44.82038712397981" lon="9.036911921433552"><ele>275.0</ele><time>2026-04-28T06:35:04Z</time></trkpt><trkpt lat="44.820564365987686" lon="9.036795170520518"><ele>273.0</ele><time>2026-04-28T06:35:05Z</time></trkpt><trkpt lat="44.82073621613409" lon="9.036678741836539"><ele>274.0</ele><time>2026-04-28T06:35:06Z</time></trkpt><trkpt lat="44.820919431938854" lon="9.036565115922425"><ele>275.0</ele><time>2026-04-28T06:35:07Z</time></trkpt><trkpt lat="44.8210998804038" lon="9.036449711874527"><ele>276.0</ele><time>2026-04-28T06:35:08Z</time></trkpt><trkpt lat="44.82128041203291" lon="9.03633154656139"><ele>276.0</ele><time>2026-04-28T06:35:09Z</time></trkpt><trkpt lat="44.82145732888657" lon="9.036213390710353"><ele>276.0</ele><time>2026-04-28T06:35:10Z</time></trkpt><trkpt lat="44.821633151440984" lon="9.036088858983156"><ele>276.0</ele><time>2026-04-28T06:35:11Z</time></trkpt><trkpt lat="44.8218126249807" lon="9.035966102704307"><ele>276.0</ele><time>2026-04-28T06:35:12Z</time></trkpt><trkpt lat="44.82199158150477" lon="9.035835158181358"><ele>276.0</ele><time>2026-04-28T06:35:13Z</time></trkpt><trkpt lat="44.82216832818381" lon="9.035701192592562"><ele>276.0</ele><time>2026-04-28T06:35:14Z</time></trkpt><trkpt lat="44.82235352938329" lon="9.035559963035812"><ele>276.0</ele><time>2026-04-28T06:35:15Z</time></trkpt><trkpt lat="44.82254758918566" lon="9.035416038199301"><ele>276.0</ele><time>2026-04-28T06:35:16Z</time></trkpt><trkpt lat="44.82273617755073" lon="9.035275481500896"><ele>276.0</ele><time>2026-04-28T06:35:17Z</time></trkpt><trkpt lat="44.82292780642097" lon="9.035129770046476"><ele>276.3333333333333</ele><time>2026-04-28T06:35:18Z</time></trkpt><trkpt lat="44.823120387348105" lon="9.034991276419792"><ele>276.66666666666663</ele><time>2026-04-28T06:35:19Z</time></trkpt><trkpt lat="44.82331346851178" lon="9.034845402327438"><ele>277.0</ele><time>2026-04-28T06:35:20Z</time></trkpt><trkpt lat="44.82349120260707" lon="9.034698321845394"><ele>275.3333333333333</ele><time>2026-04-28T06:35:21Z</time></trkpt><trkpt lat="44.823665077230416" lon="9.034563130277599"><ele>273.6666666666667</ele><time>2026-04-28T06:35:22Z</time></trkpt><trkpt lat="44.82384441982095" lon="9.034426306998032"><ele>272.0</ele><time>2026-04-28T06:35:23Z</time></trkpt><trkpt lat="44.8240272444949" lon="9.034287389094981"><ele>272.0</ele><time>2026-04-28T06:35:24Z</time></trkpt><trkpt lat="44.82420833562912" lon="9.034146254101227"><ele>272.0</ele><time>2026-04-28T06:35:25Z</time></trkpt><trkpt lat="44.82439007782703" lon="9.034009153233288"><ele>272.0</ele><time>2026-04-28T06:35:26Z</time></trkpt><trkpt lat="44.82457595876577" lon="9.03386840275855"><ele>271.6666666666667</ele><time>2026-04-28T06:35:27Z</time></trkpt><trkpt lat="44.824760646041035" lon="9.033727662249776"><ele>271.3333333333333</ele><time>2026-04-28T06:35:28Z</time></trkpt><trkpt lat="44.82495148589736" lon="9.033580273419004"><ele>271.0</ele><time>2026-04-28T06:35:29Z</time></trkpt><trkpt lat="44.82515225421215" lon="9.03342295715754"><ele>271.0</ele><time>2026-04-28T06:35:30Z</time></trkpt><trkpt lat="44.82535955660275" lon="9.033263713128816"><ele>271.0</ele><time>2026-04-28T06:35:31Z</time></trkpt><trkpt lat="44.825565834559" lon="9.033107856872743"><ele>271.0</ele><time>2026-04-28T06:35:32Z</time></trkpt><trkpt lat="44.82577446123848" lon="9.032951236499791"><ele>271.0</ele><time>2026-04-28T06:35:33Z</time></trkpt><trkpt lat="44.82599084437403" lon="9.032787841432373"><ele>271.0</ele><time>2026-04-28T06:35:34Z</time></trkpt><trkpt lat="44.82621553485183" lon="9.03261463157158"><ele>271.0</ele><time>2026-04-28T06:35:35Z</time></trkpt><trkpt lat="44.82644734905076" lon="9.032434403854753"><ele>271.0</ele><time>2026-04-28T06:35:36Z</time></trkpt><trkpt lat="44.82668280745318" lon="9.032255250907761"><ele>271.0</ele><time>2026-04-28T06:35:37Z</time></trkpt><trkpt lat="44.82689518907245" lon="9.032074413200473"><ele>270.0</ele><time>2026-04-28T06:35:38Z</time></trkpt><trkpt lat="44.82709720643727" lon="9.031888082393555"><ele>269.0</ele><time>2026-04-28T06:35:39Z</time></trkpt><trkpt lat="44.8272943824702" lon="9.031675690650866"><ele>269.5</ele><time>2026-04-28T06:35:39.999Z</time></trkpt><trkpt lat="44.82749851767212" lon="9.031462667894353"><ele>270.0</ele><time>2026-04-28T06:35:40.999Z</time></trkpt><trkpt lat="44.827709011296086" lon="9.031246732552907"><ele>270.0</ele><time>2026-04-28T06:35:41.999Z</time></trkpt><trkpt lat="44.827900629309696" lon="9.031042557827867"><ele>270.0</ele><time>2026-04-28T06:35:42.999Z</time></trkpt><trkpt lat="44.82808327603863" lon="9.030848949022019"><ele>270.3333333333333</ele><time>2026-04-28T06:35:43.999Z</time></trkpt><trkpt lat="44.82825937318242" lon="9.030661108169282"><ele>270.66666666666663</ele><time>2026-04-28T06:35:44.999Z</time></trkpt><trkpt lat="44.82843358581566" lon="9.030470528421047"><ele>271.0</ele><time>2026-04-28T06:35:45.999Z</time></trkpt><trkpt lat="44.82860957565123" lon="9.030278862531413"><ele>270.0</ele><time>2026-04-28T06:35:46.999Z</time></trkpt><trkpt lat="44.82879081752495" lon="9.0300863794345"><ele>269.0</ele><time>2026-04-28T06:35:47.999Z</time></trkpt><trkpt lat="44.82897672557562" lon="9.029892361175223"><ele>269.0</ele><time>2026-04-28T06:35:48.999Z</time></trkpt><trkpt lat="44.82916769259446" lon="9.029698629941654"><ele>269.0</ele><time>2026-04-28T06:35:49.999Z</time></trkpt><trkpt lat="44.82936062976305" lon="9.029510787715434"><ele>266.5</ele><time>2026-04-28T06:35:50.999Z</time></trkpt><trkpt lat="44.82957237636829" lon="9.029324706317809"><ele>264.0</ele><time>2026-04-28T06:35:51.999Z</time></trkpt><trkpt lat="44.82980791337608" lon="9.02914798142725"><ele>263.5</ele><time>2026-04-28T06:35:52.999Z</time></trkpt><trkpt lat="44.83005742430755" lon="9.028976338946507"><ele>263.0</ele><time>2026-04-28T06:35:53.999Z</time></trkpt><trkpt lat="44.83031088006825" lon="9.028824979667315"><ele>263.0</ele><time>2026-04-28T06:35:54.999Z</time></trkpt><trkpt lat="44.830552255990455" lon="9.028699647149189"><ele>263.0</ele><time>2026-04-28T06:35:55.999Z</time></trkpt><trkpt lat="44.830796225087646" lon="9.028585136472106"><ele>262.5</ele><time>2026-04-28T06:35:56.999Z</time></trkpt><trkpt lat="44.831050494963925" lon="9.02846388452743"><ele>262.0</ele><time>2026-04-28T06:35:57.999Z</time></trkpt><trkpt lat="44.83132588676309" lon="9.028331557156093"><ele>262.0</ele><time>2026-04-28T06:35:58.999Z</time></trkpt><trkpt lat="44.83161026081371" lon="9.028191333326525"><ele>262.0</ele><time>2026-04-28T06:35:59.999Z</time></trkpt><trkpt lat="44.83189450735922" lon="9.028046742849954"><ele>262.0</ele><time>2026-04-28T06:36:00.999Z</time></trkpt><trkpt lat="44.83217003636837" lon="9.027909064005947"><ele>262.0</ele><time>2026-04-28T06:36:01.999Z</time></trkpt><trkpt lat="44.83243113021591" lon="9.027778713882538"><ele>261.5</ele><time>2026-04-28T06:36:02.999Z</time></trkpt><trkpt lat="44.8326767558149" lon="9.027655590058833"><ele>261.0</ele><time>2026-04-28T06:36:03.999Z</time></trkpt><trkpt lat="44.83291489997276" lon="9.027537568720561"><ele>262.0</ele><time>2026-04-28T06:36:04.999Z</time></trkpt><trkpt lat="44.833151515252794" lon="9.02742362334329"><ele>263.0</ele><time>2026-04-28T06:36:05.999Z</time></trkpt><trkpt lat="44.833374756487245" lon="9.027310618422975"><ele>263.0</ele><time>2026-04-28T06:36:06.999Z</time></trkpt><trkpt lat="44.83358384837886" lon="9.027203377855948"><ele>263.0</ele><time>2026-04-28T06:36:07.999Z</time></trkpt><trkpt lat="44.833793263826735" lon="9.02709908694782"><ele>263.0</ele><time>2026-04-28T06:36:08.999Z</time></trkpt><trkpt lat="44.833998308803366" lon="9.027002458561299"><ele>263.0</ele><time>2026-04-28T06:36:09.999Z</time></trkpt><trkpt lat="44.83419319922091" lon="9.026908326851757"><ele>263.0</ele><time>2026-04-28T06:36:10.999Z</time></trkpt><trkpt lat="44.8343791138343" lon="9.026817463568369"><ele>263.0</ele><time>2026-04-28T06:36:11.999Z</time></trkpt><trkpt lat="44.834566547261495" lon="9.026726384473514"><ele>262.0</ele><time>2026-04-28T06:36:12.999Z</time></trkpt><trkpt lat="44.83474529471267" lon="9.026632068455774"><ele>261.0</ele><time>2026-04-28T06:36:13.999Z</time></trkpt><trkpt lat="44.83492605265812" lon="9.026547693855298"><ele>260.0</ele><time>2026-04-28T06:36:14.999Z</time></trkpt><trkpt lat="44.83510184603166" lon="9.026460317905096"><ele>258.6666666666667</ele><time>2026-04-28T06:36:15.999Z</time></trkpt><trkpt lat="44.83527521025949" lon="9.026361486772291"><ele>257.3333333333333</ele><time>2026-04-28T06:36:16.999Z</time></trkpt><trkpt lat="44.83543438274286" lon="9.02624805042299"><ele>256.0</ele><time>2026-04-28T06:36:17.999Z</time></trkpt><trkpt lat="44.83558591746913" lon="9.026116391184383"><ele>256.0</ele><time>2026-04-28T06:36:18.999Z</time></trkpt><trkpt lat="44.83573081796614" lon="9.025966246342165"><ele>256.0</ele><time>2026-04-28T06:36:19.999Z</time></trkpt><trkpt lat="44.83586944013157" lon="9.025806717354504"><ele>256.0</ele><time>2026-04-28T06:36:20.999Z</time></trkpt><trkpt lat="44.83601328811322" lon="9.025636922568882"><ele>255.66666666666666</ele><time>2026-04-28T06:36:21.999Z</time></trkpt><trkpt lat="44.836154200444795" lon="9.025459004849585"><ele>255.33333333333331</ele><time>2026-04-28T06:36:22.999Z</time></trkpt><trkpt lat="44.8362958295172" lon="9.025278916314376"><ele>255.0</ele><time>2026-04-28T06:36:23.999Z</time></trkpt><trkpt lat="44.8364423109124" lon="9.025103819109574"><ele>255.66666666666669</ele><time>2026-04-28T06:36:24.999Z</time></trkpt><trkpt lat="44.83658877530456" lon="9.024943075788501"><ele>256.33333333333337</ele><time>2026-04-28T06:36:25.999Z</time></trkpt><trkpt lat="44.836749340960914" lon="9.024802836618381"><ele>257.0</ele><time>2026-04-28T06:36:26.999Z</time></trkpt><trkpt lat="44.83692305783782" lon="9.02468834532273"><ele>255.33333333333334</ele><time>2026-04-28T06:36:27.999Z</time></trkpt><trkpt lat="44.83710060022541" lon="9.024578454905559"><ele>253.66666666666669</ele><time>2026-04-28T06:36:28.999Z</time></trkpt><trkpt lat="44.83726781889303" lon="9.024461073378177"><ele>252.0</ele><time>2026-04-28T06:36:29.999Z</time></trkpt><trkpt lat="44.83745142231497" lon="9.024356667576225"><ele>252.0</ele><time>2026-04-28T06:36:30.999Z</time></trkpt><trkpt lat="44.837630598031396" lon="9.024249757332973"><ele>252.0</ele><time>2026-04-28T06:36:31.999Z</time></trkpt><trkpt lat="44.83780816963861" lon="9.024141482356683"><ele>252.0</ele><time>2026-04-28T06:36:32.999Z</time></trkpt><trkpt lat="44.83798344591787" lon="9.024033351121929"><ele>252.66666666666669</ele><time>2026-04-28T06:36:33.999Z</time></trkpt><trkpt lat="44.838163084324925" lon="9.023923375870808"><ele>253.33333333333334</ele><time>2026-04-28T06:36:34.999Z</time></trkpt><trkpt lat="44.83834172206266" lon="9.023807256182609"><ele>254.0</ele><time>2026-04-28T06:36:35.999Z</time></trkpt><trkpt lat="44.838515652799714" lon="9.023694199391663"><ele>252.33333333333334</ele><time>2026-04-28T06:36:36.999Z</time></trkpt><trkpt lat="44.83869519358564" lon="9.023583540290668"><ele>250.66666666666669</ele><time>2026-04-28T06:36:37.999Z</time></trkpt><trkpt lat="44.83887218533673" lon="9.02347489363686"><ele>249.0</ele><time>2026-04-28T06:36:38.999Z</time></trkpt><trkpt lat="44.83905678767985" lon="9.023367258147566"><ele>248.0</ele><time>2026-04-28T06:36:39.999Z</time></trkpt><trkpt lat="44.83923886025937" lon="9.023259515410187"><ele>247.0</ele><time>2026-04-28T06:36:40.999Z</time></trkpt><trkpt lat="44.83941790707671" lon="9.023146995979717"><ele>246.0</ele><time>2026-04-28T06:36:41.999Z</time></trkpt><trkpt lat="44.83959770556045" lon="9.023033197367003"><ele>246.0</ele><time>2026-04-28T06:36:42.999Z</time></trkpt><trkpt lat="44.83977816057734" lon="9.022911118273422"><ele>246.0</ele><time>2026-04-28T06:36:43.999Z</time></trkpt><trkpt lat="44.83994712647578" lon="9.02277754357862"><ele>246.0</ele><time>2026-04-28T06:36:44.999Z</time></trkpt><trkpt lat="44.840104373290664" lon="9.02262126498866"><ele>244.33333333333331</ele><time>2026-04-28T06:36:45.999Z</time></trkpt><trkpt lat="44.84024714595475" lon="9.022445198894616"><ele>242.66666666666666</ele><time>2026-04-28T06:36:46.999Z</time></trkpt><trkpt lat="44.840384295646174" lon="9.022256010826993"><ele>241.0</ele><time>2026-04-28T06:36:47.999Z</time></trkpt><trkpt lat="44.840512800371584" lon="9.022051196084465"><ele>241.0</ele><time>2026-04-28T06:36:48.999Z</time></trkpt><trkpt lat="44.84064423248436" lon="9.021842787844507"><ele>241.0</ele><time>2026-04-28T06:36:49.999Z</time></trkpt><trkpt lat="44.84077420426865" lon="9.021638454428308"><ele>241.0</ele><time>2026-04-28T06:36:50.999Z</time></trkpt><trkpt lat="44.84090901913817" lon="9.021431184077764"><ele>240.33333333333331</ele><time>2026-04-28T06:36:51.999Z</time></trkpt><trkpt lat="44.84105038887793" lon="9.021222237291683"><ele>239.66666666666669</ele><time>2026-04-28T06:36:52.999Z</time></trkpt><trkpt lat="44.841193174711" lon="9.021006441332462"><ele>239.0</ele><time>2026-04-28T06:36:53.999Z</time></trkpt><trkpt lat="44.841341444167774" lon="9.020790679548117"><ele>239.0</ele><time>2026-04-28T06:36:54.998Z</time></trkpt><trkpt lat="44.841483947730495" lon="9.020569813372042"><ele>239.0</ele><time>2026-04-28T06:36:55.998Z</time></trkpt><trkpt lat="44.84161780823791" lon="9.020361100079413"><ele>239.0</ele><time>2026-04-28T06:36:57Z</time></trkpt><trkpt lat="44.8417448971738" lon="9.020152679729069"><ele>237.33333333333334</ele><time>2026-04-28T06:36:58Z</time></trkpt><trkpt lat="44.841855607373944" lon="9.01994367574663"><ele>235.66666666666669</ele><time>2026-04-28T06:36:59Z</time></trkpt><trkpt lat="44.841946305362455" lon="9.019707767061968"><ele>234.0</ele><time>2026-04-28T06:37:00Z</time></trkpt><trkpt lat="44.84201490056999" lon="9.019463586913119"><ele>234.0</ele><time>2026-04-28T06:37:01Z</time></trkpt><trkpt lat="44.842066215709565" lon="9.019211957676553"><ele>234.0</ele><time>2026-04-28T06:37:02Z</time></trkpt><trkpt lat="44.842105455184445" lon="9.018931344840631"><ele>234.0</ele><time>2026-04-28T06:37:03Z</time></trkpt><trkpt lat="44.84212975432631" lon="9.018633266349811"><ele>233.66666666666669</ele><time>2026-04-28T06:37:04Z</time></trkpt><trkpt lat="44.8421439203111" lon="9.018316600633835"><ele>233.33333333333334</ele><time>2026-04-28T06:37:05Z</time></trkpt><trkpt lat="44.8421631608285" lon="9.018026470783218"><ele>233.0</ele><time>2026-04-28T06:37:06Z</time></trkpt><trkpt lat="44.84220716826681" lon="9.017754801466442"><ele>233.0</ele><time>2026-04-28T06:37:07Z</time></trkpt><trkpt lat="44.84227316666858" lon="9.017499989462161"><ele>233.0</ele><time>2026-04-28T06:37:08Z</time></trkpt><trkpt lat="44.842360513516596" lon="9.017248941641604"><ele>233.0</ele><time>2026-04-28T06:37:09Z</time></trkpt><trkpt lat="44.84246575672497" lon="9.017008169222004"><ele>236.0</ele><time>2026-04-28T06:37:10Z</time></trkpt><trkpt lat="44.842602316160836" lon="9.016773018738224"><ele>239.0</ele><time>2026-04-28T06:37:11Z</time></trkpt><trkpt lat="44.84276113738323" lon="9.016537340415699"><ele>242.0</ele><time>2026-04-28T06:37:12Z</time></trkpt><trkpt lat="44.84294075587882" lon="9.016310477592155"><ele>242.5</ele><time>2026-04-28T06:37:13Z</time></trkpt><trkpt lat="44.843139718437556" lon="9.016088811692159"><ele>243.0</ele><time>2026-04-28T06:37:14Z</time></trkpt><trkpt lat="44.843339368146616" lon="9.01585632564964"><ele>241.5</ele><time>2026-04-28T06:37:15Z</time></trkpt><trkpt lat="44.84353846279609" lon="9.015612956944782"><ele>240.0</ele><time>2026-04-28T06:37:16Z</time></trkpt><trkpt lat="44.84372847469626" lon="9.015385960291987"><ele>240.0</ele><time>2026-04-28T06:37:17Z</time></trkpt><trkpt lat="44.84390850710407" lon="9.01517134421598"><ele>240.0</ele><time>2026-04-28T06:37:18Z</time></trkpt><trkpt lat="44.84410438711597" lon="9.015005557173689"><ele>240.5</ele><time>2026-04-28T06:37:19Z</time></trkpt><trkpt lat="44.84431067763162" lon="9.014838955447026"><ele>241.0</ele><time>2026-04-28T06:37:20Z</time></trkpt><trkpt lat="44.84450960283184" lon="9.014664327212547"><ele>241.0</ele><time>2026-04-28T06:37:21Z</time></trkpt><trkpt lat="44.84470694196136" lon="9.014529160134344"><ele>241.0</ele><time>2026-04-28T06:37:22Z</time></trkpt><trkpt lat="44.84488452727219" lon="9.014384275826648"><ele>241.0</ele><time>2026-04-28T06:37:23Z</time></trkpt><trkpt lat="44.84506024700188" lon="9.014247925586744"><ele>239.66666666666666</ele><time>2026-04-28T06:37:24Z</time></trkpt><trkpt lat="44.8452191329707" lon="9.01410475196298"><ele>238.33333333333331</ele><time>2026-04-28T06:37:25Z</time></trkpt><trkpt lat="44.84535686176994" lon="9.01395721307207"><ele>237.0</ele><time>2026-04-28T06:37:26Z</time></trkpt><trkpt lat="44.845483603014664" lon="9.013781362762487"><ele>237.0</ele><time>2026-04-28T06:37:27Z</time></trkpt><trkpt lat="44.84560474596761" lon="9.01359444279262"><ele>237.0</ele><time>2026-04-28T06:37:28Z</time></trkpt><trkpt lat="44.84570598981185" lon="9.013397342846286"><ele>237.0</ele><time>2026-04-28T06:37:29Z</time></trkpt><trkpt lat="44.84580180598056" lon="9.013198101301725"><ele>237.0</ele><time>2026-04-28T06:37:30Z</time></trkpt><trkpt lat="44.845895893678644" lon="9.013017823856277"><ele>237.0</ele><time>2026-04-28T06:37:31Z</time></trkpt><trkpt lat="44.845993183289025" lon="9.012853060860893"><ele>237.0</ele><time>2026-04-28T06:37:32Z</time></trkpt><trkpt lat="44.84609932431567" lon="9.01269835935646"><ele>237.0</ele><time>2026-04-28T06:37:33Z</time></trkpt><trkpt lat="44.84620012869716" lon="9.012565558412634"><ele>237.0</ele><time>2026-04-28T06:37:34Z</time></trkpt><trkpt lat="44.84632757867517" lon="9.0124628208351"><ele>237.0</ele><time>2026-04-28T06:37:35Z</time></trkpt><trkpt lat="44.84646292519022" lon="9.012342137257775"><ele>237.0</ele><time>2026-04-28T06:37:36Z</time></trkpt><trkpt lat="44.84660646904076" lon="9.012215481317423"><ele>237.0</ele><time>2026-04-28T06:37:37Z</time></trkpt><trkpt lat="44.846763273168456" lon="9.012079993129987"><ele>237.0</ele><time>2026-04-28T06:37:38Z</time></trkpt><trkpt lat="44.84693044979693" lon="9.011938546445931"><ele>237.0</ele><time>2026-04-28T06:37:39Z</time></trkpt><trkpt lat="44.84710090934701" lon="9.01179826656535"><ele>236.0</ele><time>2026-04-28T06:37:40Z</time></trkpt><trkpt lat="44.847272024176945" lon="9.01164927570082"><ele>235.0</ele><time>2026-04-28T06:37:41Z</time></trkpt><trkpt lat="44.847437759884116" lon="9.011491997601816"><ele>234.0</ele><time>2026-04-28T06:37:42Z</time></trkpt><trkpt lat="44.847602435320304" lon="9.011316743446315"><ele>233.66666666666669</ele><time>2026-04-28T06:37:43Z</time></trkpt><trkpt lat="44.84776735426275" lon="9.011133234436292"><ele>233.33333333333334</ele><time>2026-04-28T06:37:44Z</time></trkpt><trkpt lat="44.847932215405706" lon="9.010939925945156"><ele>233.0</ele><time>2026-04-28T06:37:44.999Z</time></trkpt><trkpt lat="44.84809474105787" lon="9.010749667560564"><ele>233.66666666666669</ele><time>2026-04-28T06:37:45.999Z</time></trkpt><trkpt lat="44.848268978395375" lon="9.010561087083396"><ele>234.33333333333331</ele><time>2026-04-28T06:37:46.999Z</time></trkpt><trkpt lat="44.848431044809224" lon="9.010373331705935"><ele>235.0</ele><time>2026-04-28T06:37:47.999Z</time></trkpt><trkpt lat="44.84859496241234" lon="9.010195733385167"><ele>233.33333333333331</ele><time>2026-04-28T06:37:48.999Z</time></trkpt><trkpt lat="44.848748302339075" lon="9.010016025382775"><ele>231.66666666666669</ele><time>2026-04-28T06:37:49.999Z</time></trkpt><trkpt lat="44.8488985068394" lon="9.009838298714508"><ele>230.0</ele><time>2026-04-28T06:37:50.999Z</time></trkpt><trkpt lat="44.849045840976935" lon="9.009663754672356"><ele>230.0</ele><time>2026-04-28T06:37:51.999Z</time></trkpt><trkpt lat="44.84919711643752" lon="9.009491968254611"><ele>230.0</ele><time>2026-04-28T06:37:52.999Z</time></trkpt><trkpt lat="44.84934660705028" lon="9.009321321925038"><ele>230.0</ele><time>2026-04-28T06:37:53.999Z</time></trkpt><trkpt lat="44.84949448422906" lon="9.009150772055149"><ele>230.0</ele><time>2026-04-28T06:37:54.999Z</time></trkpt><trkpt lat="44.849642841653434" lon="9.008980005158666"><ele>230.0</ele><time>2026-04-28T06:37:55.999Z</time></trkpt><trkpt lat="44.849785694072736" lon="9.008814083562891"><ele>230.0</ele><time>2026-04-28T06:37:56.999Z</time></trkpt><trkpt lat="44.8499305528349" lon="9.00864504309804"><ele>230.0</ele><time>2026-04-28T06:37:57.999Z</time></trkpt><trkpt lat="44.85007698879328" lon="9.00847545332971"><ele>230.0</ele><time>2026-04-28T06:37:58.999Z</time></trkpt><trkpt lat="44.85022779320395" lon="9.008309398943682"><ele>230.0</ele><time>2026-04-28T06:37:59.999Z</time></trkpt><trkpt lat="44.85038172210238" lon="9.008150285520767"><ele>230.0</ele><time>2026-04-28T06:38:00.999Z</time></trkpt><trkpt lat="44.85054261570055" lon="9.008000095940195"><ele>230.0</ele><time>2026-04-28T06:38:01.999Z</time></trkpt><trkpt lat="44.850707068367754" lon="9.00786665149551"><ele>230.0</ele><time>2026-04-28T06:38:02.999Z</time></trkpt><trkpt lat="44.850881605294774" lon="9.007747090077315"><ele>231.33333333333334</ele><time>2026-04-28T06:38:03.999Z</time></trkpt><trkpt lat="44.851058708277385" lon="9.007639498278921"><ele>232.66666666666669</ele><time>2026-04-28T06:38:04.999Z</time></trkpt><trkpt lat="44.851241428755884" lon="9.007542535558548"><ele>234.0</ele><time>2026-04-28T06:38:05.999Z</time></trkpt><trkpt lat="44.85143310894447" lon="9.007451229839813"><ele>234.0</ele><time>2026-04-28T06:38:06.999Z</time></trkpt><trkpt lat="44.851623716043605" lon="9.00736818980417"><ele>234.0</ele><time>2026-04-28T06:38:07.999Z</time></trkpt><trkpt lat="44.85181996092092" lon="9.00727810755449"><ele>234.0</ele><time>2026-04-28T06:38:08.999Z</time></trkpt><trkpt lat="44.85201314916563" lon="9.007187036809945"><ele>232.66666666666669</ele><time>2026-04-28T06:38:09.999Z</time></trkpt><trkpt lat="44.85219757659386" lon="9.007112860928917"><ele>231.33333333333334</ele><time>2026-04-28T06:38:10.999Z</time></trkpt><trkpt lat="44.85237606090426" lon="9.007025587933342"><ele>230.0</ele><time>2026-04-28T06:38:11.999Z</time></trkpt><trkpt lat="44.852550698701" lon="9.006945682336358"><ele>228.33333333333334</ele><time>2026-04-28T06:38:12.999Z</time></trkpt><trkpt lat="44.85273319593621" lon="9.00685992426614"><ele>226.66666666666669</ele><time>2026-04-28T06:38:13.999Z</time></trkpt><trkpt lat="44.85291873174629" lon="9.006771145383086"><ele>225.0</ele><time>2026-04-28T06:38:14.999Z</time></trkpt><trkpt lat="44.85309714363788" lon="9.006686644807287"><ele>225.66666666666669</ele><time>2026-04-28T06:38:15.999Z</time></trkpt><trkpt lat="44.853267197453405" lon="9.006606189601507"><ele>226.33333333333334</ele><time>2026-04-28T06:38:16.999Z</time></trkpt><trkpt lat="44.853430500001636" lon="9.006529258066603"><ele>227.0</ele><time>2026-04-28T06:38:17.999Z</time></trkpt><trkpt lat="44.85358603571319" lon="9.006451837540885"><ele>227.0</ele><time>2026-04-28T06:38:18.999Z</time></trkpt><trkpt lat="44.85374639384772" lon="9.006374362783601"><ele>227.0</ele><time>2026-04-28T06:38:19.999Z</time></trkpt><trkpt lat="44.85391254201197" lon="9.006295992856137"><ele>227.0</ele><time>2026-04-28T06:38:20.999Z</time></trkpt><trkpt lat="44.85408244537902" lon="9.0062151936652"><ele>227.0</ele><time>2026-04-28T06:38:21.999Z</time></trkpt><trkpt lat="44.85424731579501" lon="9.006136866622077"><ele>227.0</ele><time>2026-04-28T06:38:22.999Z</time></trkpt><trkpt lat="44.85440577530507" lon="9.006064045232096"><ele>227.0</ele><time>2026-04-28T06:38:23.999Z</time></trkpt><trkpt lat="44.85455973715931" lon="9.00599245170322"><ele>227.0</ele><time>2026-04-28T06:38:24.999Z</time></trkpt><trkpt lat="44.85469778295326" lon="9.005926122663698"><ele>227.0</ele><time>2026-04-28T06:38:25.999Z</time></trkpt><trkpt lat="44.85481186916999" lon="9.005869615624201"><ele>227.0</ele><time>2026-04-28T06:38:26.999Z</time></trkpt><trkpt lat="44.854926747666696" lon="9.005836158589744"><ele>227.0</ele><time>2026-04-28T06:38:27.999Z</time></trkpt><trkpt lat="44.8550068192647" lon="9.005798805184956"><ele>227.0</ele><time>2026-04-28T06:38:28.999Z</time></trkpt><trkpt lat="44.85512537132941" lon="9.00575296000085"><ele>227.0</ele><time>2026-04-28T06:38:30.999Z</time></trkpt><trkpt lat="44.855187016592396" lon="9.005718862568413"><ele>227.0</ele><time>2026-04-28T06:38:33.999Z</time></trkpt><trkpt lat="44.855329509521525" lon="9.005651604708403"><ele>227.0</ele><time>2026-04-28T06:38:38.999Z</time></trkpt><trkpt lat="44.85542101423105" lon="9.00560573097319"><ele>227.0</ele><time>2026-04-28T06:38:39.999Z</time></trkpt><trkpt lat="44.855530385993" lon="9.005560748285706"><ele>227.0</ele><time>2026-04-28T06:38:40.999Z</time></trkpt><trkpt lat="44.855658004164745" lon="9.005510408353464"><ele>227.0</ele><time>2026-04-28T06:38:41.999Z</time></trkpt><trkpt lat="44.855791163064055" lon="9.005445894100673"><ele>227.0</ele><time>2026-04-28T06:38:42.999Z</time></trkpt><trkpt lat="44.85592580023888" lon="9.005365657867006"><ele>227.0</ele><time>2026-04-28T06:38:43.999Z</time></trkpt><trkpt lat="44.856080198769135" lon="9.005285902845653"><ele>225.33333333333334</ele><time>2026-04-28T06:38:44.999Z</time></trkpt><trkpt lat="44.85624448650699" lon="9.005209323753355"><ele>223.66666666666669</ele><time>2026-04-28T06:38:45.999Z</time></trkpt><trkpt lat="44.85640246621766" lon="9.00512391819123"><ele>222.0</ele><time>2026-04-28T06:38:46.999Z</time></trkpt><trkpt lat="44.85654611945234" lon="9.005041148469019"><ele>227.33333333333331</ele><time>2026-04-28T06:38:47.999Z</time></trkpt><trkpt lat="44.85667228452071" lon="9.00491535004643"><ele>232.66666666666666</ele><time>2026-04-28T06:38:48.999Z</time></trkpt><trkpt lat="44.856798251882076" lon="9.00480124022506"><ele>238.0</ele><time>2026-04-28T06:38:49.999Z</time></trkpt><trkpt lat="44.85693880179686" lon="9.004713583812707"><ele>239.66666666666666</ele><time>2026-04-28T06:38:50.999Z</time></trkpt><trkpt lat="44.85709085640654" lon="9.004680346576102"><ele>241.33333333333331</ele><time>2026-04-28T06:38:51.999Z</time></trkpt><trkpt lat="44.85724181515161" lon="9.004662931696975"><ele>243.0</ele><time>2026-04-28T06:38:52.999Z</time></trkpt><trkpt lat="44.857393472516954" lon="9.00468083674367"><ele>243.0</ele><time>2026-04-28T06:38:53.999Z</time></trkpt><trkpt lat="44.8575765672896" lon="9.004728664782819"><ele>243.0</ele><time>2026-04-28T06:38:54.999Z</time></trkpt><trkpt lat="44.85776345460676" lon="9.004764596002659"><ele>243.0</ele><time>2026-04-28T06:38:55.999Z</time></trkpt><trkpt lat="44.85793108260631" lon="9.004810653120787"><ele>243.33333333333331</ele><time>2026-04-28T06:38:56.999Z</time></trkpt><trkpt lat="44.858091672902894" lon="9.004843666266002"><ele>243.66666666666666</ele><time>2026-04-28T06:38:57.999Z</time></trkpt><trkpt lat="44.85825444957071" lon="9.00485402824899"><ele>244.0</ele><time>2026-04-28T06:38:58.999Z</time></trkpt><trkpt lat="44.858418088703026" lon="9.004855761702203"><ele>238.0</ele><time>2026-04-28T06:38:59.998Z</time></trkpt><trkpt lat="44.85859626823273" lon="9.004815566082577"><ele>232.0</ele><time>2026-04-28T06:39:00.998Z</time></trkpt><trkpt lat="44.85876585318244" lon="9.004766074507499"><ele>226.0</ele><time>2026-04-28T06:39:01.998Z</time></trkpt><trkpt lat="44.85892504356746" lon="9.00468538362097"><ele>226.0</ele><time>2026-04-28T06:39:03Z</time></trkpt><trkpt lat="44.859088819993545" lon="9.004593341238195"><ele>226.0</ele><time>2026-04-28T06:39:04Z</time></trkpt><trkpt lat="44.85925694579902" lon="9.004486679169048"><ele>226.0</ele><time>2026-04-28T06:39:05Z</time></trkpt><trkpt lat="44.85940090795992" lon="9.004376004520623"><ele>223.66666666666666</ele><time>2026-04-28T06:39:06Z</time></trkpt><trkpt lat="44.85953275617836" lon="9.00425191648708"><ele>221.33333333333331</ele><time>2026-04-28T06:39:07Z</time></trkpt><trkpt lat="44.859663706601296" lon="9.004102448605778"><ele>219.0</ele><time>2026-04-28T06:39:08Z</time></trkpt><trkpt lat="44.85978614232001" lon="9.003918417723956"><ele>219.0</ele><time>2026-04-28T06:39:09Z</time></trkpt><trkpt lat="44.859884048668796" lon="9.0037075391582"><ele>219.0</ele><time>2026-04-28T06:39:10Z</time></trkpt><trkpt lat="44.85998225887536" lon="9.003476964290414"><ele>219.0</ele><time>2026-04-28T06:39:11Z</time></trkpt><trkpt lat="44.8600842895742" lon="9.003237376798099"><ele>217.33333333333331</ele><time>2026-04-28T06:39:12Z</time></trkpt><trkpt lat="44.86019286033211" lon="9.002982431932615"><ele>215.66666666666666</ele><time>2026-04-28T06:39:13Z</time></trkpt><trkpt lat="44.86029999344001" lon="9.0027308630809"><ele>214.0</ele><time>2026-04-28T06:39:14Z</time></trkpt><trkpt lat="44.8603997570725" lon="9.002460463038604"><ele>214.0</ele><time>2026-04-28T06:39:15Z</time></trkpt><trkpt lat="44.86052095892164" lon="9.002198236633673"><ele>214.0</ele><time>2026-04-28T06:39:16Z</time></trkpt><trkpt lat="44.86064146229738" lon="9.001919455414601"><ele>218.0</ele><time>2026-04-28T06:39:17Z</time></trkpt><trkpt lat="44.860771058124726" lon="9.001626323580776"><ele>222.0</ele><time>2026-04-28T06:39:18Z</time></trkpt><trkpt lat="44.86090695725516" lon="9.001327976463386"><ele>219.5</ele><time>2026-04-28T06:39:19Z</time></trkpt><trkpt lat="44.8610379252737" lon="9.001031661149481"><ele>217.0</ele><time>2026-04-28T06:39:20Z</time></trkpt><trkpt lat="44.861165920181406" lon="9.000758500782396"><ele>217.0</ele><time>2026-04-28T06:39:21Z</time></trkpt><trkpt lat="44.86130046455346" lon="9.000499822256248"><ele>217.0</ele><time>2026-04-28T06:39:22Z</time></trkpt><trkpt lat="44.86141384013528" lon="9.000262390533292"><ele>217.0</ele><time>2026-04-28T06:39:23Z</time></trkpt><trkpt lat="44.86153680158148" lon="9.000058995005011"><ele>217.0</ele><time>2026-04-28T06:39:24Z</time></trkpt><trkpt lat="44.86167850046909" lon="8.999881835366127"><ele>217.0</ele><time>2026-04-28T06:39:25Z</time></trkpt><trkpt lat="44.86183329068953" lon="8.999739447252672"><ele>217.0</ele><time>2026-04-28T06:39:26Z</time></trkpt><trkpt lat="44.86199463313558" lon="8.999629373121826"><ele>216.33333333333331</ele><time>2026-04-28T06:39:27Z</time></trkpt><trkpt lat="44.862171063078364" lon="8.999547938191592"><ele>215.66666666666669</ele><time>2026-04-28T06:39:28Z</time></trkpt><trkpt lat="44.862354783860326" lon="8.999497268611155"><ele>215.0</ele><time>2026-04-28T06:39:29Z</time></trkpt><trkpt lat="44.86255666902918" lon="8.999477343670595"><ele>212.66666666666669</ele><time>2026-04-28T06:39:30Z</time></trkpt><trkpt lat="44.86274862488024" lon="8.9994736406546"><ele>210.33333333333331</ele><time>2026-04-28T06:39:31Z</time></trkpt><trkpt lat="44.86293641603307" lon="8.999466230149617"><ele>208.0</ele><time>2026-04-28T06:39:32Z</time></trkpt><trkpt lat="44.86311759871786" lon="8.999425974148837"><ele>208.0</ele><time>2026-04-28T06:39:33Z</time></trkpt><trkpt lat="44.86330558888258" lon="8.99935489518499"><ele>208.0</ele><time>2026-04-28T06:39:34Z</time></trkpt><trkpt lat="44.86348990574678" lon="8.999257407841654"><ele>208.0</ele><time>2026-04-28T06:39:35Z</time></trkpt><trkpt lat="44.86367509665049" lon="8.999135825600737"><ele>208.0</ele><time>2026-04-28T06:39:36Z</time></trkpt><trkpt lat="44.86385541569034" lon="8.998974120882833"><ele>208.0</ele><time>2026-04-28T06:39:37Z</time></trkpt><trkpt lat="44.86403047204099" lon="8.998789120279998"><ele>208.0</ele><time>2026-04-28T06:39:38Z</time></trkpt><trkpt lat="44.86422172444501" lon="8.99858317365104"><ele>208.5</ele><time>2026-04-28T06:39:39Z</time></trkpt><trkpt lat="44.86443182714543" lon="8.998371798556454"><ele>209.0</ele><time>2026-04-28T06:39:40Z</time></trkpt><trkpt lat="44.86465607809988" lon="8.998144484920722"><ele>209.5</ele><time>2026-04-28T06:39:41Z</time></trkpt><trkpt lat="44.864888876797714" lon="8.99790903403434"><ele>210.0</ele><time>2026-04-28T06:39:42Z</time></trkpt><trkpt lat="44.865121715095405" lon="8.997679029595648"><ele>207.5</ele><time>2026-04-28T06:39:43Z</time></trkpt><trkpt lat="44.86534045626351" lon="8.997464270999505"><ele>205.0</ele><time>2026-04-28T06:39:44Z</time></trkpt><trkpt lat="44.865542543837655" lon="8.997265387882369"><ele>205.0</ele><time>2026-04-28T06:39:45Z</time></trkpt><trkpt lat="44.865731161523" lon="8.99708738474128"><ele>205.0</ele><time>2026-04-28T06:39:46Z</time></trkpt><trkpt lat="44.86591522659677" lon="8.996918857431254"><ele>205.0</ele><time>2026-04-28T06:39:47Z</time></trkpt><trkpt lat="44.866094916605405" lon="8.996777281359796"><ele>205.0</ele><time>2026-04-28T06:39:48Z</time></trkpt><trkpt lat="44.86628711867242" lon="8.996684265333688"><ele>205.0</ele><time>2026-04-28T06:39:49Z</time></trkpt><trkpt lat="44.86649152493045" lon="8.996621207604095"><ele>205.0</ele><time>2026-04-28T06:39:50Z</time></trkpt><trkpt lat="44.866705333452245" lon="8.996569007744986"><ele>206.5</ele><time>2026-04-28T06:39:51Z</time></trkpt><trkpt lat="44.86693716231668" lon="8.996514724995611"><ele>208.0</ele><time>2026-04-28T06:39:52Z</time></trkpt><trkpt lat="44.86718157748635" lon="8.99645389005094"><ele>208.0</ele><time>2026-04-28T06:39:53Z</time></trkpt><trkpt lat="44.86743448793104" lon="8.996395896202943"><ele>208.0</ele><time>2026-04-28T06:39:54Z</time></trkpt><trkpt lat="44.86767470437535" lon="8.996337415768684"><ele>207.66666666666666</ele><time>2026-04-28T06:39:55Z</time></trkpt><trkpt lat="44.86788763500813" lon="8.996285016942833"><ele>207.33333333333331</ele><time>2026-04-28T06:39:56Z</time></trkpt><trkpt lat="44.86808389837141" lon="8.996222720077766"><ele>207.0</ele><time>2026-04-28T06:39:56.999Z</time></trkpt><trkpt lat="44.868274093451426" lon="8.996152855979156"><ele>206.0</ele><time>2026-04-28T06:39:57.999Z</time></trkpt><trkpt lat="44.868461527451785" lon="8.996071276026395"><ele>205.0</ele><time>2026-04-28T06:39:58.999Z</time></trkpt><trkpt lat="44.86865593260488" lon="8.995963279056804"><ele>204.0</ele><time>2026-04-28T06:39:59.999Z</time></trkpt><trkpt lat="44.8688583622365" lon="8.995847163811316"><ele>206.0</ele><time>2026-04-28T06:40:00.999Z</time></trkpt><trkpt lat="44.86907341862764" lon="8.995728444316702"><ele>208.0</ele><time>2026-04-28T06:40:01.999Z</time></trkpt><trkpt lat="44.86930016682757" lon="8.995615356325121"><ele>208.0</ele><time>2026-04-28T06:40:02.999Z</time></trkpt><trkpt lat="44.86952897469817" lon="8.99550937448542"><ele>208.0</ele><time>2026-04-28T06:40:03.999Z</time></trkpt><trkpt lat="44.86976610913208" lon="8.995404555394105"><ele>208.0</ele><time>2026-04-28T06:40:04.999Z</time></trkpt><trkpt lat="44.87000874005391" lon="8.995304457647183"><ele>208.0</ele><time>2026-04-28T06:40:05.999Z</time></trkpt><trkpt lat="44.87023755332225" lon="8.995211424718596"><ele>206.0</ele><time>2026-04-28T06:40:06.999Z</time></trkpt><trkpt lat="44.87045558562131" lon="8.995120166518197"><ele>204.0</ele><time>2026-04-28T06:40:07.999Z</time></trkpt><trkpt lat="44.87067149367952" lon="8.995030868244056"><ele>205.0</ele><time>2026-04-28T06:40:08.999Z</time></trkpt><trkpt lat="44.87087932373773" lon="8.99494461580598"><ele>206.0</ele><time>2026-04-28T06:40:09.999Z</time></trkpt><trkpt lat="44.87108969961993" lon="8.99485381393721"><ele>207.0</ele><time>2026-04-28T06:40:10.999Z</time></trkpt><trkpt lat="44.871297121319856" lon="8.994757010988103"><ele>207.0</ele><time>2026-04-28T06:40:11.999Z</time></trkpt><trkpt lat="44.871501283581054" lon="8.994646347938874"><ele>207.0</ele><time>2026-04-28T06:40:12.999Z</time></trkpt><trkpt lat="44.87171076954113" lon="8.994548607349413"><ele>207.0</ele><time>2026-04-28T06:40:13.999Z</time></trkpt><trkpt lat="44.871904374631995" lon="8.994395896724388"><ele>206.5</ele><time>2026-04-28T06:40:14.999Z</time></trkpt><trkpt lat="44.87211178210176" lon="8.994264602599642"><ele>206.0</ele><time>2026-04-28T06:40:15.999Z</time></trkpt><trkpt lat="44.8723167424893" lon="8.994132051943827"><ele>206.0</ele><time>2026-04-28T06:40:16.999Z</time></trkpt><trkpt lat="44.87252369017107" lon="8.99399872399494"><ele>206.0</ele><time>2026-04-28T06:40:17.999Z</time></trkpt><trkpt lat="44.872731455608246" lon="8.993862341024599"><ele>204.0</ele><time>2026-04-28T06:40:18.999Z</time></trkpt><trkpt lat="44.87294611230781" lon="8.993739912016537"><ele>202.0</ele><time>2026-04-28T06:40:19.999Z</time></trkpt><trkpt lat="44.873172396851785" lon="8.993641873823263"><ele>202.0</ele><time>2026-04-28T06:40:20.999Z</time></trkpt><trkpt lat="44.87340709351805" lon="8.993539726852852"><ele>202.0</ele><time>2026-04-28T06:40:21.999Z</time></trkpt><trkpt lat="44.87363808239588" lon="8.993443552230856"><ele>201.5</ele><time>2026-04-28T06:40:22.999Z</time></trkpt><trkpt lat="44.87386342382168" lon="8.993359846282727"><ele>201.0</ele><time>2026-04-28T06:40:23.999Z</time></trkpt><trkpt lat="44.874085016083754" lon="8.993293372508612"><ele>200.66666666666669</ele><time>2026-04-28T06:40:24.999Z</time></trkpt><trkpt lat="44.874300760281" lon="8.993263101011657"><ele>200.33333333333334</ele><time>2026-04-28T06:40:25.999Z</time></trkpt><trkpt lat="44.87450313932449" lon="8.993270892248365"><ele>200.0</ele><time>2026-04-28T06:40:26.999Z</time></trkpt><trkpt lat="44.87470706226718" lon="8.993317664268666"><ele>198.66666666666669</ele><time>2026-04-28T06:40:27.999Z</time></trkpt><trkpt lat="44.874896483860404" lon="8.993395227374979"><ele>197.33333333333331</ele><time>2026-04-28T06:40:28.999Z</time></trkpt><trkpt lat="44.87508130578654" lon="8.993465150598453"><ele>196.0</ele><time>2026-04-28T06:40:29.999Z</time></trkpt><trkpt lat="44.87525449559249" lon="8.993514735410994"><ele>195.33333333333331</ele><time>2026-04-28T06:40:30.999Z</time></trkpt><trkpt lat="44.87543865389371" lon="8.99354014950887"><ele>194.66666666666669</ele><time>2026-04-28T06:40:31.999Z</time></trkpt><trkpt lat="44.87562538687022" lon="8.99353628413944"><ele>194.0</ele><time>2026-04-28T06:40:32.999Z</time></trkpt><trkpt lat="44.87581159273704" lon="8.993505036906488"><ele>194.0</ele><time>2026-04-28T06:40:33.999Z</time></trkpt><trkpt lat="44.87601777792029" lon="8.993455965610645"><ele>194.0</ele><time>2026-04-28T06:40:34.999Z</time></trkpt><trkpt lat="44.87624681411791" lon="8.993394515685786"><ele>194.0</ele><time>2026-04-28T06:40:35.999Z</time></trkpt><trkpt lat="44.876475451565966" lon="8.993331959213437"><ele>194.0</ele><time>2026-04-28T06:40:36.999Z</time></trkpt><trkpt lat="44.8766874779443" lon="8.993275493653803"><ele>194.0</ele><time>2026-04-28T06:40:37.999Z</time></trkpt><trkpt lat="44.87689162800605" lon="8.99321307995216"><ele>194.0</ele><time>2026-04-28T06:40:38.999Z</time></trkpt><trkpt lat="44.87707873915625" lon="8.993123604735137"><ele>194.0</ele><time>2026-04-28T06:40:39.999Z</time></trkpt><trkpt lat="44.87725196415165" lon="8.9930030462504"><ele>194.0</ele><time>2026-04-28T06:40:40.999Z</time></trkpt><trkpt lat="44.87742527396456" lon="8.992845420697325"><ele>194.0</ele><time>2026-04-28T06:40:41.999Z</time></trkpt><trkpt lat="44.8775744081325" lon="8.992669778080261"><ele>193.0</ele><time>2026-04-28T06:40:42.999Z</time></trkpt><trkpt lat="44.87772568088808" lon="8.992452152137366"><ele>192.0</ele><time>2026-04-28T06:40:43.999Z</time></trkpt><trkpt lat="44.87787323129031" lon="8.992197921955057"><ele>191.0</ele><time>2026-04-28T06:40:44.999Z</time></trkpt><trkpt lat="44.878028420904414" lon="8.99191819880515"><ele>190.5</ele><time>2026-04-28T06:40:45.999Z</time></trkpt><trkpt lat="44.878191551735654" lon="8.991614961147583"><ele>190.0</ele><time>2026-04-28T06:40:46.999Z</time></trkpt><trkpt lat="44.87835360680658" lon="8.991315029292238"><ele>189.5</ele><time>2026-04-28T06:40:47.999Z</time></trkpt><trkpt lat="44.878514034296366" lon="8.991045900703407"><ele>189.0</ele><time>2026-04-28T06:40:48.999Z</time></trkpt><trkpt lat="44.87866360501458" lon="8.990788843832128"><ele>189.0</ele><time>2026-04-28T06:40:49.999Z</time></trkpt><trkpt lat="44.87881299230796" lon="8.990536922327202"><ele>189.0</ele><time>2026-04-28T06:40:50.999Z</time></trkpt><trkpt lat="44.87896889311251" lon="8.99031935616434"><ele>189.0</ele><time>2026-04-28T06:40:51.999Z</time></trkpt><trkpt lat="44.87914532128256" lon="8.990129457645384"><ele>189.0</ele><time>2026-04-28T06:40:52.999Z</time></trkpt><trkpt lat="44.87933403160552" lon="8.98995027977284"><ele>189.0</ele><time>2026-04-28T06:40:53.999Z</time></trkpt><trkpt lat="44.87953561259566" lon="8.989794388820998"><ele>188.0</ele><time>2026-04-28T06:40:54.999Z</time></trkpt><trkpt lat="44.87975840878172" lon="8.98966236754645"><ele>187.0</ele><time>2026-04-28T06:40:55.999Z</time></trkpt><trkpt lat="44.87999254365102" lon="8.989540580485695"><ele>186.5</ele><time>2026-04-28T06:40:56.999Z</time></trkpt><trkpt lat="44.88023928461548" lon="8.98942472935329"><ele>186.0</ele><time>2026-04-28T06:40:57.999Z</time></trkpt><trkpt lat="44.8804738313822" lon="8.989311052296108"><ele>186.0</ele><time>2026-04-28T06:40:58.999Z</time></trkpt><trkpt lat="44.88069452305643" lon="8.989198112399443"><ele>186.0</ele><time>2026-04-28T06:40:59.999Z</time></trkpt><trkpt lat="44.88090257799095" lon="8.98908639985369"><ele>185.66666666666666</ele><time>2026-04-28T06:41:00.999Z</time></trkpt><trkpt lat="44.88109874737012" lon="8.988970182339166"><ele>185.33333333333331</ele><time>2026-04-28T06:41:01.999Z</time></trkpt><trkpt lat="44.88128535000903" lon="8.988830011221848"><ele>185.0</ele><time>2026-04-28T06:41:02.999Z</time></trkpt><trkpt lat="44.881464271973755" lon="8.98866160993889"><ele>185.0</ele><time>2026-04-28T06:41:03.999Z</time></trkpt><trkpt lat="44.88162404155411" lon="8.988456843790113"><ele>185.0</ele><time>2026-04-28T06:41:04.999Z</time></trkpt><trkpt lat="44.88177774131867" lon="8.988224432567597"><ele>185.0</ele><time>2026-04-28T06:41:05.999Z</time></trkpt><trkpt lat="44.88192463855831" lon="8.987974364951835"><ele>185.5</ele><time>2026-04-28T06:41:06.999Z</time></trkpt><trkpt lat="44.88207362616771" lon="8.987722010493599"><ele>186.0</ele><time>2026-04-28T06:41:07.999Z</time></trkpt><trkpt lat="44.88222148505863" lon="8.987473781663914"><ele>186.0</ele><time>2026-04-28T06:41:09Z</time></trkpt><trkpt lat="44.88236537958455" lon="8.987240930017284"><ele>186.0</ele><time>2026-04-28T06:41:10Z</time></trkpt><trkpt lat="44.88250489279636" lon="8.987017656523093"><ele>186.0</ele><time>2026-04-28T06:41:11Z</time></trkpt><trkpt lat="44.88263575165687" lon="8.986804213541706"><ele>184.66666666666666</ele><time>2026-04-28T06:41:12Z</time></trkpt><trkpt lat="44.882758420000606" lon="8.986611948647768"><ele>183.33333333333331</ele><time>2026-04-28T06:41:13Z</time></trkpt><trkpt lat="44.88287139291038" lon="8.986426820721857"><ele>182.0</ele><time>2026-04-28T06:41:14Z</time></trkpt><trkpt lat="44.88297494324427" lon="8.986232947417342"><ele>182.0</ele><time>2026-04-28T06:41:15Z</time></trkpt><trkpt lat="44.88308594184553" lon="8.986050487753234"><ele>182.0</ele><time>2026-04-28T06:41:16Z</time></trkpt><trkpt lat="44.883199375095245" lon="8.985868631954872"><ele>182.0</ele><time>2026-04-28T06:41:17Z</time></trkpt><trkpt lat="44.88330723685703" lon="8.985696503154816"><ele>181.66666666666666</ele><time>2026-04-28T06:41:18Z</time></trkpt><trkpt lat="44.88341176269771" lon="8.98552926326054"><ele>181.33333333333334</ele><time>2026-04-28T06:41:19Z</time></trkpt><trkpt lat="44.883507167805604" lon="8.98537154861925"><ele>181.0</ele><time>2026-04-28T06:41:20Z</time></trkpt><trkpt lat="44.88361870489725" lon="8.985225082910128"><ele>181.0</ele><time>2026-04-28T06:41:21Z</time></trkpt><trkpt lat="44.883739047543415" lon="8.985089153994876"><ele>181.0</ele><time>2026-04-28T06:41:22Z</time></trkpt><trkpt lat="44.883864528450495" lon="8.984960706314538"><ele>181.0</ele><time>2026-04-28T06:41:23Z</time></trkpt><trkpt lat="44.88399364702429" lon="8.984833456999544"><ele>181.33333333333334</ele><time>2026-04-28T06:41:24Z</time></trkpt><trkpt lat="44.88412279903805" lon="8.984704272889354"><ele>181.66666666666666</ele><time>2026-04-28T06:41:25Z</time></trkpt><trkpt lat="44.88425732108032" lon="8.984577566272238"><ele>182.0</ele><time>2026-04-28T06:41:26Z</time></trkpt><trkpt lat="44.884387832765384" lon="8.984451826195109"><ele>182.33333333333331</ele><time>2026-04-28T06:41:27Z</time></trkpt><trkpt lat="44.884520672739484" lon="8.984327594294445"><ele>182.66666666666666</ele><time>2026-04-28T06:41:28Z</time></trkpt><trkpt lat="44.88465675299358" lon="8.984199655167378"><ele>183.0</ele><time>2026-04-28T06:41:29Z</time></trkpt><trkpt lat="44.88479991363588" lon="8.984090459243982"><ele>183.0</ele><time>2026-04-28T06:41:30Z</time></trkpt><trkpt lat="44.88492963865521" lon="8.983969545517047"><ele>183.0</ele><time>2026-04-28T06:41:31Z</time></trkpt><trkpt lat="44.88505558210083" lon="8.983835295069861"><ele>183.0</ele><time>2026-04-28T06:41:32Z</time></trkpt><trkpt lat="44.885190289055146" lon="8.983715154199901"><ele>182.75</ele><time>2026-04-28T06:41:33Z</time></trkpt><trkpt lat="44.88531634073072" lon="8.983597393044088"><ele>182.5</ele><time>2026-04-28T06:41:34Z</time></trkpt><trkpt lat="44.885435583613074" lon="8.983487196973499"><ele>182.25</ele><time>2026-04-28T06:41:35Z</time></trkpt><trkpt lat="44.88555559940423" lon="8.983378645779553"><ele>182.0</ele><time>2026-04-28T06:41:36Z</time></trkpt><trkpt lat="44.88567293000777" lon="8.98326663328103"><ele>182.0</ele><time>2026-04-28T06:41:37Z</time></trkpt><trkpt lat="44.88579084112549" lon="8.983155547220438"><ele>182.0</ele><time>2026-04-28T06:41:38Z</time></trkpt><trkpt lat="44.88590449571998" lon="8.983041585639516"><ele>182.0</ele><time>2026-04-28T06:41:39Z</time></trkpt><trkpt lat="44.88600558289366" lon="8.98292883398966"><ele>182.0</ele><time>2026-04-28T06:41:40Z</time></trkpt><trkpt lat="44.88609094017278" lon="8.98282401745064"><ele>181.39999999999998</ele><time>2026-04-28T06:41:41Z</time></trkpt><trkpt lat="44.886160075335255" lon="8.982722947530917"><ele>180.79999999999998</ele><time>2026-04-28T06:41:42Z</time></trkpt><trkpt lat="44.886212860022404" lon="8.982635164062025"><ele>180.2</ele><time>2026-04-28T06:41:43Z</time></trkpt><trkpt lat="44.88627227853343" lon="8.982524801965049"><ele>179.6</ele><time>2026-04-28T06:41:45Z</time></trkpt><trkpt lat="44.88634780546609" lon="8.982465747867042"><ele>179.0</ele><time>2026-04-28T06:42:12.999Z</time></trkpt><trkpt lat="44.886432893799615" lon="8.982325077415108"><ele>179.0</ele><time>2026-04-28T06:42:14.999Z</time></trkpt><trkpt lat="44.88649191506227" lon="8.98223707520534"><ele>179.0</ele><time>2026-04-28T06:42:15.999Z</time></trkpt><trkpt lat="44.88654945431793" lon="8.982111327177993"><ele>179.0</ele><time>2026-04-28T06:42:16.999Z</time></trkpt><trkpt lat="44.886623112855986" lon="8.981969593303978"><ele>179.0</ele><time>2026-04-28T06:42:17.999Z</time></trkpt><trkpt lat="44.886701428424196" lon="8.981833764780644"><ele>179.0</ele><time>2026-04-28T06:42:18.999Z</time></trkpt><trkpt lat="44.88678048322986" lon="8.981690442735767"><ele>178.5</ele><time>2026-04-28T06:42:19.999Z</time></trkpt><trkpt lat="44.88685212211698" lon="8.98155818924558"><ele>178.0</ele><time>2026-04-28T06:42:20.999Z</time></trkpt><trkpt lat="44.88691483246197" lon="8.98142166883556"><ele>177.5</ele><time>2026-04-28T06:42:21.999Z</time></trkpt><trkpt lat="44.88698910180956" lon="8.981268927968125"><ele>177.0</ele><time>2026-04-28T06:42:22.999Z</time></trkpt><trkpt lat="44.88706402831385" lon="8.981103755093095"><ele>177.0</ele><time>2026-04-28T06:42:23.999Z</time></trkpt><trkpt lat="44.88715677283652" lon="8.980958472790022"><ele>177.0</ele><time>2026-04-28T06:42:24.999Z</time></trkpt><trkpt lat="44.887228561775125" lon="8.980781557206198"><ele>177.0</ele><time>2026-04-28T06:42:25.999Z</time></trkpt><trkpt lat="44.8873121065747" lon="8.980591342877714"><ele>177.0</ele><time>2026-04-28T06:42:26.999Z</time></trkpt><trkpt lat="44.88740525289516" lon="8.980406751911763"><ele>176.66666666666666</ele><time>2026-04-28T06:42:27.999Z</time></trkpt><trkpt lat="44.887500947078756" lon="8.980215558790082"><ele>176.33333333333331</ele><time>2026-04-28T06:42:28.999Z</time></trkpt><trkpt lat="44.887602534183706" lon="8.980021366608113"><ele>176.0</ele><time>2026-04-28T06:42:29.999Z</time></trkpt><trkpt lat="44.887697681942335" lon="8.97982698252623"><ele>175.66666666666666</ele><time>2026-04-28T06:42:30.999Z</time></trkpt><trkpt lat="44.88779274555883" lon="8.979631162199107"><ele>175.33333333333334</ele><time>2026-04-28T06:42:31.999Z</time></trkpt><trkpt lat="44.887893128026334" lon="8.979451677801443"><ele>175.0</ele><time>2026-04-28T06:42:32.999Z</time></trkpt><trkpt lat="44.8879863014952" lon="8.979254296279889"><ele>175.66666666666669</ele><time>2026-04-28T06:42:33.999Z</time></trkpt><trkpt lat="44.88807999709937" lon="8.979045055528863"><ele>176.33333333333334</ele><time>2026-04-28T06:42:34.999Z</time></trkpt><trkpt lat="44.88818086491009" lon="8.97884020018843"><ele>177.0</ele><time>2026-04-28T06:42:35.999Z</time></trkpt><trkpt lat="44.888283490845915" lon="8.978636243956842"><ele>177.0</ele><time>2026-04-28T06:42:36.999Z</time></trkpt><trkpt lat="44.88838565052915" lon="8.978421727273455"><ele>177.0</ele><time>2026-04-28T06:42:37.999Z</time></trkpt><trkpt lat="44.8884925073628" lon="8.978214690028786"><ele>177.0</ele><time>2026-04-28T06:42:38.999Z</time></trkpt><trkpt lat="44.88860490325096" lon="8.977989612346745"><ele>176.0</ele><time>2026-04-28T06:42:39.999Z</time></trkpt><trkpt lat="44.88872417946381" lon="8.977759467244995"><ele>175.0</ele><time>2026-04-28T06:42:40.999Z</time></trkpt><trkpt lat="44.888838167470404" lon="8.97754491772719"><ele>174.0</ele><time>2026-04-28T06:42:41.999Z</time></trkpt><trkpt lat="44.88895780723221" lon="8.977342098307451"><ele>174.0</ele><time>2026-04-28T06:42:42.999Z</time></trkpt><trkpt lat="44.88908525136331" lon="8.977135851964038"><ele>174.0</ele><time>2026-04-28T06:42:43.999Z</time></trkpt><trkpt lat="44.8892209124505" lon="8.976926913435845"><ele>174.0</ele><time>2026-04-28T06:42:44.999Z</time></trkpt><trkpt lat="44.88936834851173" lon="8.976710239224964"><ele>173.0</ele><time>2026-04-28T06:42:45.999Z</time></trkpt><trkpt lat="44.88952184904983" lon="8.976481655690261"><ele>172.0</ele><time>2026-04-28T06:42:46.999Z</time></trkpt><trkpt lat="44.889664470960184" lon="8.976268561545181"><ele>171.0</ele><time>2026-04-28T06:42:47.999Z</time></trkpt><trkpt lat="44.88980306763078" lon="8.976066734575891"><ele>171.0</ele><time>2026-04-28T06:42:48.999Z</time></trkpt><trkpt lat="44.889928535685506" lon="8.975870680873852"><ele>171.0</ele><time>2026-04-28T06:42:49.999Z</time></trkpt><trkpt lat="44.890064168002766" lon="8.975676485325362"><ele>171.0</ele><time>2026-04-28T06:42:50.999Z</time></trkpt><trkpt lat="44.89020178167146" lon="8.975478147040336"><ele>171.0</ele><time>2026-04-28T06:42:51.999Z</time></trkpt><trkpt lat="44.89034068654529" lon="8.975274095219387"><ele>171.0</ele><time>2026-04-28T06:42:52.999Z</time></trkpt><trkpt lat="44.89047820123043" lon="8.975076230967344"><ele>171.0</ele><time>2026-04-28T06:42:53.999Z</time></trkpt><trkpt lat="44.8906236508973" lon="8.974871450867928"><ele>171.0</ele><time>2026-04-28T06:42:54.999Z</time></trkpt><trkpt lat="44.89076990114909" lon="8.97466711280154"><ele>171.0</ele><time>2026-04-28T06:42:55.999Z</time></trkpt><trkpt lat="44.8909247215136" lon="8.974439888687485"><ele>171.0</ele><time>2026-04-28T06:42:56.999Z</time></trkpt><trkpt lat="44.89108777629703" lon="8.97419735743105"><ele>170.0</ele><time>2026-04-28T06:42:57.999Z</time></trkpt><trkpt lat="44.89126398260322" lon="8.973934192576603"><ele>169.0</ele><time>2026-04-28T06:42:58.999Z</time></trkpt><trkpt lat="44.89145122680253" lon="8.973661657816926"><ele>169.0</ele><time>2026-04-28T06:42:59.999Z</time></trkpt><trkpt lat="44.891644071101375" lon="8.973367619586204"><ele>169.0</ele><time>2026-04-28T06:43:00.999Z</time></trkpt><trkpt lat="44.89183931762343" lon="8.973063684838918"><ele>168.5</ele><time>2026-04-28T06:43:01.999Z</time></trkpt><trkpt lat="44.892046883011915" lon="8.972758276278972"><ele>168.0</ele><time>2026-04-28T06:43:02.999Z</time></trkpt><trkpt lat="44.892248642132415" lon="8.972451428554116"><ele>168.0</ele><time>2026-04-28T06:43:03.999Z</time></trkpt><trkpt lat="44.89245339116337" lon="8.972123676706483"><ele>168.0</ele><time>2026-04-28T06:43:04.999Z</time></trkpt><trkpt lat="44.892665625363115" lon="8.971791583935737"><ele>167.5</ele><time>2026-04-28T06:43:05.999Z</time></trkpt><trkpt lat="44.892882217720754" lon="8.971467837948376"><ele>167.0</ele><time>2026-04-28T06:43:06.999Z</time></trkpt><trkpt lat="44.893093176937214" lon="8.97116713730585"><ele>167.0</ele><time>2026-04-28T06:43:07.999Z</time></trkpt><trkpt lat="44.89329007888983" lon="8.970883280666115"><ele>167.0</ele><time>2026-04-28T06:43:08.999Z</time></trkpt><trkpt lat="44.89347314266406" lon="8.970610519682488"><ele>166.0</ele><time>2026-04-28T06:43:09.999Z</time></trkpt><trkpt lat="44.89364812466809" lon="8.970341644874932"><ele>165.0</ele><time>2026-04-28T06:43:10.999Z</time></trkpt><trkpt lat="44.89382174201548" lon="8.970078773362733"><ele>166.0</ele><time>2026-04-28T06:43:11.999Z</time></trkpt><trkpt lat="44.893987516002035" lon="8.969833757272054"><ele>167.0</ele><time>2026-04-28T06:43:12.999Z</time></trkpt><trkpt lat="44.89413627610284" lon="8.96960111979218"><ele>167.33333333333331</ele><time>2026-04-28T06:43:13.999Z</time></trkpt><trkpt lat="44.894281352029616" lon="8.96936736266801"><ele>167.66666666666666</ele><time>2026-04-28T06:43:15Z</time></trkpt><trkpt lat="44.89442138156714" lon="8.969119940916155"><ele>168.0</ele><time>2026-04-28T06:43:16Z</time></trkpt><trkpt lat="44.89455920775163" lon="8.968864155810893"><ele>168.0</ele><time>2026-04-28T06:43:17Z</time></trkpt><trkpt lat="44.89469592555601" lon="8.96859022163301"><ele>168.0</ele><time>2026-04-28T06:43:18Z</time></trkpt><trkpt lat="44.894836582887336" lon="8.968295622584078"><ele>168.0</ele><time>2026-04-28T06:43:19Z</time></trkpt><trkpt lat="44.89500791231167" lon="8.968035357467404"><ele>168.0</ele><time>2026-04-28T06:43:20Z</time></trkpt><trkpt lat="44.89517320608279" lon="8.96771365862344"><ele>170.0</ele><time>2026-04-28T06:43:21Z</time></trkpt><trkpt lat="44.89533084177697" lon="8.967377128899622"><ele>172.0</ele><time>2026-04-28T06:43:22Z</time></trkpt><trkpt lat="44.89549846717353" lon="8.967030795311404"><ele>171.5</ele><time>2026-04-28T06:43:23Z</time></trkpt><trkpt lat="44.8956577787097" lon="8.966636456384435"><ele>171.0</ele><time>2026-04-28T06:43:24Z</time></trkpt><trkpt lat="44.89583202233373" lon="8.966242697592845"><ele>169.5</ele><time>2026-04-28T06:43:25Z</time></trkpt><trkpt lat="44.8960044297398" lon="8.965873882828758"><ele>168.0</ele><time>2026-04-28T06:43:26Z</time></trkpt><trkpt lat="44.896164898668914" lon="8.965522595184346"><ele>168.0</ele><time>2026-04-28T06:43:27Z</time></trkpt><trkpt lat="44.89632431673322" lon="8.9652036271517"><ele>168.0</ele><time>2026-04-28T06:43:28Z</time></trkpt><trkpt lat="44.89647077755175" lon="8.96489678875674"><ele>170.5</ele><time>2026-04-28T06:43:29Z</time></trkpt><trkpt lat="44.89661358309776" lon="8.964599632076347"><ele>173.0</ele><time>2026-04-28T06:43:30Z</time></trkpt><trkpt lat="44.8967543815184" lon="8.964302508858115"><ele>173.5</ele><time>2026-04-28T06:43:31Z</time></trkpt><trkpt lat="44.89689634214918" lon="8.964016931517614"><ele>174.0</ele><time>2026-04-28T06:43:32Z</time></trkpt><trkpt lat="44.897028585133825" lon="8.963743957567374"><ele>174.0</ele><time>2026-04-28T06:43:33Z</time></trkpt><trkpt lat="44.89715045834655" lon="8.96348432833524"><ele>174.0</ele><time>2026-04-28T06:43:34Z</time></trkpt><trkpt lat="44.897271777814396" lon="8.963226944970604"><ele>174.0</ele><time>2026-04-28T06:43:35Z</time></trkpt><trkpt lat="44.897395023102774" lon="8.962961473371337"><ele>175.0</ele><time>2026-04-28T06:43:36Z</time></trkpt><trkpt lat="44.897525585371255" lon="8.962686390668463"><ele>176.0</ele><time>2026-04-28T06:43:37Z</time></trkpt><trkpt lat="44.89766742236755" lon="8.962384755964619"><ele>173.0</ele><time>2026-04-28T06:43:38Z</time></trkpt><trkpt lat="44.89780677218198" lon="8.962084466397673"><ele>170.0</ele><time>2026-04-28T06:43:39Z</time></trkpt><trkpt lat="44.8979418303887" lon="8.961800382324357"><ele>169.5</ele><time>2026-04-28T06:43:40Z</time></trkpt><trkpt lat="44.89807058876165" lon="8.961533902244494"><ele>169.0</ele><time>2026-04-28T06:43:41Z</time></trkpt><trkpt lat="44.898191497454604" lon="8.961271689987408"><ele>169.0</ele><time>2026-04-28T06:43:42Z</time></trkpt><trkpt lat="44.89830875708755" lon="8.96101930682956"><ele>169.0</ele><time>2026-04-28T06:43:43Z</time></trkpt><trkpt lat="44.898416683546984" lon="8.960777026177732"><ele>169.0</ele><time>2026-04-28T06:43:44Z</time></trkpt><trkpt lat="44.89853455601219" lon="8.960541641214613"><ele>168.66666666666669</ele><time>2026-04-28T06:43:45Z</time></trkpt><trkpt lat="44.898646900096935" lon="8.960300393149078"><ele>168.33333333333334</ele><time>2026-04-28T06:43:46Z</time></trkpt><trkpt lat="44.8987506411667" lon="8.960065200082225"><ele>168.0</ele><time>2026-04-28T06:43:47Z</time></trkpt><trkpt lat="44.89885703175315" lon="8.95984176116349"><ele>167.66666666666666</ele><time>2026-04-28T06:43:48Z</time></trkpt><trkpt lat="44.89896351408138" lon="8.959621230983073"><ele>167.33333333333331</ele><time>2026-04-28T06:43:49Z</time></trkpt><trkpt lat="44.899067257815496" lon="8.959399718760588"><ele>167.0</ele><time>2026-04-28T06:43:50Z</time></trkpt><trkpt lat="44.89917518693149" lon="8.959175753199558"><ele>166.33333333333331</ele><time>2026-04-28T06:43:51Z</time></trkpt><trkpt lat="44.899291353104644" lon="8.958943808200459"><ele>165.66666666666666</ele><time>2026-04-28T06:43:52Z</time></trkpt><trkpt lat="44.899403175384236" lon="8.95870165074132"><ele>165.0</ele><time>2026-04-28T06:43:53Z</time></trkpt><trkpt lat="44.89952333770949" lon="8.95844830561654"><ele>165.33333333333334</ele><time>2026-04-28T06:43:54Z</time></trkpt><trkpt lat="44.89964882222417" lon="8.958187420903329"><ele>165.66666666666669</ele><time>2026-04-28T06:43:55Z</time></trkpt><trkpt lat="44.899778238262265" lon="8.95792669211571"><ele>166.0</ele><time>2026-04-28T06:43:56Z</time></trkpt><trkpt lat="44.899908270504255" lon="8.957659921155026"><ele>165.33333333333334</ele><time>2026-04-28T06:43:57Z</time></trkpt><trkpt lat="44.9000322700956" lon="8.957395686670287"><ele>164.66666666666666</ele><time>2026-04-28T06:43:58Z</time></trkpt><trkpt lat="44.90015595848846" lon="8.95715082093164"><ele>164.0</ele><time>2026-04-28T06:43:59Z</time></trkpt><trkpt lat="44.9002698976105" lon="8.956909402310972"><ele>162.66666666666666</ele><time>2026-04-28T06:44:00Z</time></trkpt><trkpt lat="44.90038297057106" lon="8.956669506005875"><ele>161.33333333333334</ele><time>2026-04-28T06:44:01Z</time></trkpt><trkpt lat="44.9004885615123" lon="8.95644352511118"><ele>160.0</ele><time>2026-04-28T06:44:02Z</time></trkpt><trkpt lat="44.90059107184661" lon="8.956220169932926"><ele>160.0</ele><time>2026-04-28T06:44:03Z</time></trkpt><trkpt lat="44.90069181147691" lon="8.955994871843345"><ele>160.0</ele><time>2026-04-28T06:44:04Z</time></trkpt><trkpt lat="44.90080387049394" lon="8.955764271404151"><ele>160.0</ele><time>2026-04-28T06:44:05Z</time></trkpt><trkpt lat="44.900913108329334" lon="8.955535189916434"><ele>159.66666666666669</ele><time>2026-04-28T06:44:06Z</time></trkpt><trkpt lat="44.901043141685015" lon="8.955311193399305"><ele>159.33333333333334</ele><time>2026-04-28T06:44:07Z</time></trkpt><trkpt lat="44.90116104718696" lon="8.955070168091265"><ele>159.0</ele><time>2026-04-28T06:44:08Z</time></trkpt><trkpt lat="44.90128053628839" lon="8.954819758990679"><ele>159.0</ele><time>2026-04-28T06:44:09Z</time></trkpt><trkpt lat="44.90141431114494" lon="8.954542043936597"><ele>159.0</ele><time>2026-04-28T06:44:09.999Z</time></trkpt><trkpt lat="44.90155622058862" lon="8.954250153866914"><ele>159.0</ele><time>2026-04-28T06:44:10.999Z</time></trkpt><trkpt lat="44.90168513431821" lon="8.953982910972421"><ele>159.0</ele><time>2026-04-28T06:44:11.999Z</time></trkpt><trkpt lat="44.90180822956337" lon="8.953724530257285"><ele>158.0</ele><time>2026-04-28T06:44:12.999Z</time></trkpt><trkpt lat="44.90191951262649" lon="8.953485035045302"><ele>157.0</ele><time>2026-04-28T06:44:13.999Z</time></trkpt><trkpt lat="44.90202482542265" lon="8.953258109138682"><ele>156.0</ele><time>2026-04-28T06:44:14.999Z</time></trkpt><trkpt lat="44.902124676342396" lon="8.953043553389637"><ele>155.66666666666666</ele><time>2026-04-28T06:44:15.999Z</time></trkpt><trkpt lat="44.90222063708489" lon="8.952839456115834"><ele>155.33333333333331</ele><time>2026-04-28T06:44:16.999Z</time></trkpt><trkpt lat="44.902317145170244" lon="8.9526417335038"><ele>155.0</ele><time>2026-04-28T06:44:17.999Z</time></trkpt><trkpt lat="44.90240981515503" lon="8.952450662051085"><ele>155.0</ele><time>2026-04-28T06:44:18.999Z</time></trkpt><trkpt lat="44.90249829485097" lon="8.952263812990912"><ele>155.0</ele><time>2026-04-28T06:44:19.999Z</time></trkpt><trkpt lat="44.902592728512374" lon="8.952071918760288"><ele>155.0</ele><time>2026-04-28T06:44:20.999Z</time></trkpt><trkpt lat="44.90269177437357" lon="8.951876393124804"><ele>154.66666666666666</ele><time>2026-04-28T06:44:21.999Z</time></trkpt><trkpt lat="44.90278010914328" lon="8.951688887859282"><ele>154.33333333333334</ele><time>2026-04-28T06:44:22.999Z</time></trkpt><trkpt lat="44.902869398911164" lon="8.95150722998749"><ele>154.0</ele><time>2026-04-28T06:44:23.999Z</time></trkpt><trkpt lat="44.90295398932633" lon="8.951335027618915"><ele>154.0</ele><time>2026-04-28T06:44:24.999Z</time></trkpt><trkpt lat="44.90303374271422" lon="8.951167751510479"><ele>154.0</ele><time>2026-04-28T06:44:25.999Z</time></trkpt><trkpt lat="44.90311453212433" lon="8.951008994787083"><ele>154.0</ele><time>2026-04-28T06:44:26.999Z</time></trkpt><trkpt lat="44.903195240392876" lon="8.950855415860737"><ele>154.0</ele><time>2026-04-28T06:44:27.999Z</time></trkpt><trkpt lat="44.9032732474454" lon="8.95070506276842"><ele>153.8</ele><time>2026-04-28T06:44:28.999Z</time></trkpt><trkpt lat="44.90334165820819" lon="8.950569937698816"><ele>153.60000000000002</ele><time>2026-04-28T06:44:29.999Z</time></trkpt><trkpt lat="44.90339660496201" lon="8.95044843324906"><ele>153.4</ele><time>2026-04-28T06:44:30.999Z</time></trkpt><trkpt lat="44.903434734477536" lon="8.950359818234585"><ele>153.20000000000002</ele><time>2026-04-28T06:44:31.999Z</time></trkpt><trkpt lat="44.90347293876896" lon="8.95027610095723"><ele>153.0</ele><time>2026-04-28T06:44:32.999Z</time></trkpt><trkpt lat="44.9035248602443" lon="8.950172360928617"><ele>153.0</ele><time>2026-04-28T06:44:33.999Z</time></trkpt><trkpt lat="44.903584659453664" lon="8.950041882445396"><ele>153.0</ele><time>2026-04-28T06:44:34.999Z</time></trkpt><trkpt lat="44.90364837061612" lon="8.949886148033666"><ele>153.0</ele><time>2026-04-28T06:44:35.999Z</time></trkpt><trkpt lat="44.90372007809382" lon="8.94973013861232"><ele>153.0</ele><time>2026-04-28T06:44:36.999Z</time></trkpt><trkpt lat="44.90381210953734" lon="8.949550061771935"><ele>153.0</ele><time>2026-04-28T06:44:37.999Z</time></trkpt><trkpt lat="44.903918462528296" lon="8.949343378022018"><ele>153.0</ele><time>2026-04-28T06:44:38.999Z</time></trkpt><trkpt lat="44.904039390558026" lon="8.949108127219903"><ele>153.0</ele><time>2026-04-28T06:44:39.999Z</time></trkpt><trkpt lat="44.90414749150824" lon="8.948881460231824"><ele>152.66666666666666</ele><time>2026-04-28T06:44:40.999Z</time></trkpt><trkpt lat="44.90424666901086" lon="8.948670175867964"><ele>152.33333333333331</ele><time>2026-04-28T06:44:41.999Z</time></trkpt><trkpt lat="44.904337680161404" lon="8.948460924873672"><ele>152.0</ele><time>2026-04-28T06:44:42.999Z</time></trkpt><trkpt lat="44.90441369678346" lon="8.948256635308075"><ele>151.33333333333331</ele><time>2026-04-28T06:44:43.999Z</time></trkpt><trkpt lat="44.90446848098185" lon="8.948051472352061"><ele>150.66666666666666</ele><time>2026-04-28T06:44:44.999Z</time></trkpt><trkpt lat="44.904508464489695" lon="8.947841262836615"><ele>150.0</ele><time>2026-04-28T06:44:45.999Z</time></trkpt><trkpt lat="44.90454601431508" lon="8.94765034080926"><ele>150.0</ele><time>2026-04-28T06:44:46.999Z</time></trkpt><trkpt lat="44.90457894784526" lon="8.947472259159408"><ele>150.0</ele><time>2026-04-28T06:44:47.999Z</time></trkpt><trkpt lat="44.90460706274556" lon="8.947331356371452"><ele>150.0</ele><time>2026-04-28T06:44:48.999Z</time></trkpt><trkpt lat="44.90462376057328" lon="8.947239373917109"><ele>150.0</ele><time>2026-04-28T06:44:49.999Z</time></trkpt><trkpt lat="44.90463720766178" lon="8.94714379692148"><ele>150.0</ele><time>2026-04-28T06:44:51.999Z</time></trkpt><trkpt lat="44.90466555196394" lon="8.947020266853668"><ele>150.0</ele><time>2026-04-28T06:44:56.999Z</time></trkpt><trkpt lat="44.90471448190018" lon="8.946960557310565"><ele>150.0</ele><time>2026-04-28T06:44:59.999Z</time></trkpt><trkpt lat="44.90478183308025" lon="8.947001751029088"><ele>150.0</ele><time>2026-04-28T06:45:01.999Z</time></trkpt><trkpt lat="44.90485328243411" lon="8.94696073643369"><ele>150.0</ele><time>2026-04-28T06:45:02.999Z</time></trkpt><trkpt lat="44.90493558966679" lon="8.946969089745"><ele>150.0</ele><time>2026-04-28T06:45:04.999Z</time></trkpt><trkpt lat="44.90499438530053" lon="8.94701842008223"><ele>150.0</ele><time>2026-04-28T06:45:06.999Z</time></trkpt><trkpt lat="44.90502577826954" lon="8.946727418203226"><ele>149.75</ele><time>2026-04-28T06:45:08.999Z</time></trkpt><trkpt lat="44.90503191115379" lon="8.946564685023274"><ele>149.5</ele><time>2026-04-28T06:45:09.999Z</time></trkpt><trkpt lat="44.9050364892853" lon="8.946389824386978"><ele>149.25</ele><time>2026-04-28T06:45:10.999Z</time></trkpt><trkpt lat="44.90503511020109" lon="8.946190055931723"><ele>149.0</ele><time>2026-04-28T06:45:11.999Z</time></trkpt><trkpt lat="44.905042596055864" lon="8.946007201511536"><ele>148.75</ele><time>2026-04-28T06:45:12.999Z</time></trkpt><trkpt lat="44.90505919136581" lon="8.945843256312775"><ele>148.5</ele><time>2026-04-28T06:45:13.999Z</time></trkpt><trkpt lat="44.90506202474705" lon="8.94563252146657"><ele>148.25</ele><time>2026-04-28T06:45:14.999Z</time></trkpt><trkpt lat="44.90507119294436" lon="8.945436083626952"><ele>148.0</ele><time>2026-04-28T06:45:15.999Z</time></trkpt><trkpt lat="44.90507634877897" lon="8.94523397996059"><ele>149.0</ele><time>2026-04-28T06:45:16.999Z</time></trkpt><trkpt lat="44.90509464420298" lon="8.945043004097863"><ele>150.0</ele><time>2026-04-28T06:45:17.999Z</time></trkpt><trkpt lat="44.9051178734302" lon="8.944825105816664"><ele>151.0</ele><time>2026-04-28T06:45:18.999Z</time></trkpt><trkpt lat="44.90514969885524" lon="8.944599897235204"><ele>151.0</ele><time>2026-04-28T06:45:19.999Z</time></trkpt><trkpt lat="44.90518544711141" lon="8.944378789705016"><ele>151.0</ele><time>2026-04-28T06:45:21Z</time></trkpt><trkpt lat="44.905217469561705" lon="8.944161808800159"><ele>151.0</ele><time>2026-04-28T06:45:22Z</time></trkpt><trkpt lat="44.905269679521325" lon="8.943973866163761"><ele>151.33333333333334</ele><time>2026-04-28T06:45:23Z</time></trkpt><trkpt lat="44.905303848513654" lon="8.943764094056196"><ele>151.66666666666666</ele><time>2026-04-28T06:45:24Z</time></trkpt><trkpt lat="44.90535451883773" lon="8.943564436873288"><ele>152.0</ele><time>2026-04-28T06:45:25Z</time></trkpt><trkpt lat="44.90539960986058" lon="8.94336052757632"><ele>150.66666666666666</ele><time>2026-04-28T06:45:26Z</time></trkpt><trkpt lat="44.90543591478325" lon="8.943146509109829"><ele>149.33333333333334</ele><time>2026-04-28T06:45:27Z</time></trkpt><trkpt lat="44.90547417432448" lon="8.942917391788727"><ele>148.0</ele><time>2026-04-28T06:45:28Z</time></trkpt><trkpt lat="44.905514670509056" lon="8.942689500734367"><ele>147.0</ele><time>2026-04-28T06:45:29Z</time></trkpt><trkpt lat="44.90554753286707" lon="8.942436473979189"><ele>146.0</ele><time>2026-04-28T06:45:30Z</time></trkpt><trkpt lat="44.90559227689295" lon="8.942207533600033"><ele>145.0</ele><time>2026-04-28T06:45:31Z</time></trkpt><trkpt lat="44.90563642340238" lon="8.941985728003354"><ele>145.0</ele><time>2026-04-28T06:45:32Z</time></trkpt><trkpt lat="44.90567437224369" lon="8.941755892592136"><ele>145.0</ele><time>2026-04-28T06:45:33Z</time></trkpt><trkpt lat="44.90571605928928" lon="8.941524333043128"><ele>145.0</ele><time>2026-04-28T06:45:34Z</time></trkpt><trkpt lat="44.905758575730076" lon="8.941290177090833"><ele>144.66666666666669</ele><time>2026-04-28T06:45:35Z</time></trkpt><trkpt lat="44.90580477361446" lon="8.941047936189129"><ele>144.33333333333334</ele><time>2026-04-28T06:45:36Z</time></trkpt><trkpt lat="44.90585097765362" lon="8.940803937811747"><ele>144.0</ele><time>2026-04-28T06:45:37Z</time></trkpt><trkpt lat="44.90590162959059" lon="8.940561891923952"><ele>143.66666666666666</ele><time>2026-04-28T06:45:38Z</time></trkpt><trkpt lat="44.90594952837643" lon="8.940319348877773"><ele>143.33333333333331</ele><time>2026-04-28T06:45:39Z</time></trkpt><trkpt lat="44.90599461198869" lon="8.940081095197803"><ele>143.0</ele><time>2026-04-28T06:45:40Z</time></trkpt><trkpt lat="44.90603161797303" lon="8.9398309608587"><ele>142.33333333333331</ele><time>2026-04-28T06:45:41Z</time></trkpt><trkpt lat="44.90606781906768" lon="8.939593914425796"><ele>141.66666666666666</ele><time>2026-04-28T06:45:42Z</time></trkpt><trkpt lat="44.90609726719401" lon="8.939332608779578"><ele>141.0</ele><time>2026-04-28T06:45:43Z</time></trkpt><trkpt lat="44.90611587945995" lon="8.939077758819108"><ele>140.66666666666666</ele><time>2026-04-28T06:45:44Z</time></trkpt><trkpt lat="44.906127105758785" lon="8.938818673002638"><ele>140.33333333333331</ele><time>2026-04-28T06:45:45Z</time></trkpt><trkpt lat="44.90613436826409" lon="8.938563514702336"><ele>140.0</ele><time>2026-04-28T06:45:46Z</time></trkpt><trkpt lat="44.906133890754475" lon="8.93830019378192"><ele>140.0</ele><time>2026-04-28T06:45:47Z</time></trkpt><trkpt lat="44.90613225760931" lon="8.938046611625639"><ele>140.0</ele><time>2026-04-28T06:45:48Z</time></trkpt><trkpt lat="44.90613716734287" lon="8.93777747961975"><ele>140.0</ele><time>2026-04-28T06:45:49Z</time></trkpt><trkpt lat="44.90613939048003" lon="8.937511885080427"><ele>139.66666666666666</ele><time>2026-04-28T06:45:50Z</time></trkpt><trkpt lat="44.90614050859951" lon="8.93725496255821"><ele>139.33333333333334</ele><time>2026-04-28T06:45:51Z</time></trkpt><trkpt lat="44.90613941315555" lon="8.936983440311828"><ele>139.0</ele><time>2026-04-28T06:45:52Z</time></trkpt><trkpt lat="44.90614222035451" lon="8.936717661503423"><ele>138.66666666666669</ele><time>2026-04-28T06:45:53Z</time></trkpt><trkpt lat="44.90614723304246" lon="8.936447947716822"><ele>138.33333333333334</ele><time>2026-04-28T06:45:54Z</time></trkpt><trkpt lat="44.906149561616225" lon="8.936177292830067"><ele>138.0</ele><time>2026-04-28T06:45:55Z</time></trkpt><trkpt lat="44.90615440926099" lon="8.93591347505674"><ele>138.33333333333334</ele><time>2026-04-28T06:45:56Z</time></trkpt><trkpt lat="44.90615799341764" lon="8.935651153514335"><ele>138.66666666666669</ele><time>2026-04-28T06:45:57Z</time></trkpt><trkpt lat="44.90615602900996" lon="8.935381472928107"><ele>139.0</ele><time>2026-04-28T06:45:58Z</time></trkpt><trkpt lat="44.90615842957709" lon="8.935118206501292"><ele>138.66666666666669</ele><time>2026-04-28T06:45:59Z</time></trkpt><trkpt lat="44.90614943764836" lon="8.934843125922706"><ele>138.33333333333334</ele><time>2026-04-28T06:46:00Z</time></trkpt><trkpt lat="44.9061400365478" lon="8.934580998370148"><ele>138.0</ele><time>2026-04-28T06:46:01Z</time></trkpt><trkpt lat="44.906124581798714" lon="8.934297162706416"><ele>137.33333333333334</ele><time>2026-04-28T06:46:02Z</time></trkpt><trkpt lat="44.90610575097791" lon="8.934042879598033"><ele>136.66666666666669</ele><time>2026-04-28T06:46:03Z</time></trkpt><trkpt lat="44.90607544662182" lon="8.933796971611944"><ele>136.0</ele><time>2026-04-28T06:46:04Z</time></trkpt><trkpt lat="44.90606181013411" lon="8.933590069305726"><ele>136.0</ele><time>2026-04-28T06:46:05Z</time></trkpt><trkpt lat="44.906049110197614" lon="8.93339686762886"><ele>136.0</ele><time>2026-04-28T06:46:06Z</time></trkpt><trkpt lat="44.90603185278267" lon="8.93319855450502"><ele>136.0</ele><time>2026-04-28T06:46:07Z</time></trkpt><trkpt lat="44.90602023020088" lon="8.933019347682956"><ele>136.0</ele><time>2026-04-28T06:46:08Z</time></trkpt><trkpt lat="44.906011842975964" lon="8.932839697749586"><ele>135.75</ele><time>2026-04-28T06:46:09Z</time></trkpt><trkpt lat="44.906000163651115" lon="8.932681778967735"><ele>135.5</ele><time>2026-04-28T06:46:10Z</time></trkpt><trkpt lat="44.90598775787816" lon="8.932514578042861"><ele>135.25</ele><time>2026-04-28T06:46:11Z</time></trkpt><trkpt lat="44.905975627723414" lon="8.93234931776767"><ele>135.0</ele><time>2026-04-28T06:46:12Z</time></trkpt><trkpt lat="44.90596788394171" lon="8.932188057191157"><ele>135.25</ele><time>2026-04-28T06:46:13Z</time></trkpt><trkpt lat="44.90595718593748" lon="8.932029805511233"><ele>135.5</ele><time>2026-04-28T06:46:14Z</time></trkpt><trkpt lat="44.9059502379418" lon="8.93187469033312"><ele>135.75</ele><time>2026-04-28T06:46:15Z</time></trkpt><trkpt lat="44.905933766694176" lon="8.931711123351072"><ele>136.0</ele><time>2026-04-28T06:46:16Z</time></trkpt><trkpt lat="44.90591939548587" lon="8.931541253935817"><ele>136.25</ele><time>2026-04-28T06:46:16.999Z</time></trkpt><trkpt lat="44.905907322044825" lon="8.931379714798213"><ele>136.5</ele><time>2026-04-28T06:46:17.999Z</time></trkpt><trkpt lat="44.90589740166534" lon="8.931213704327538"><ele>136.75</ele><time>2026-04-28T06:46:18.999Z</time></trkpt><trkpt lat="44.90588169865184" lon="8.93103864821827"><ele>137.0</ele><time>2026-04-28T06:46:19.999Z</time></trkpt><trkpt lat="44.90587299941181" lon="8.930877495656388"><ele>137.0</ele><time>2026-04-28T06:46:20.999Z</time></trkpt><trkpt lat="44.90586220485235" lon="8.930715546727466"><ele>137.0</ele><time>2026-04-28T06:46:21.999Z</time></trkpt><trkpt lat="44.90585203445659" lon="8.930585844885785"><ele>137.0</ele><time>2026-04-28T06:46:22.999Z</time></trkpt><trkpt lat="44.90584873194366" lon="8.930464821029807"><ele>137.0</ele><time>2026-04-28T06:46:24.999Z</time></trkpt><trkpt lat="44.905821900176115" lon="8.930326654974955"><ele>137.0</ele><time>2026-04-28T06:46:47.999Z</time></trkpt><trkpt lat="44.905811624926" lon="8.930127285647284"><ele>136.5</ele><time>2026-04-28T06:46:49.999Z</time></trkpt><trkpt lat="44.90579936068914" lon="8.92997655533733"><ele>136.0</ele><time>2026-04-28T06:46:50.999Z</time></trkpt><trkpt lat="44.90578643838493" lon="8.929804865139733"><ele>135.5</ele><time>2026-04-28T06:46:51.999Z</time></trkpt><trkpt lat="44.90578116194628" lon="8.929626045428074"><ele>135.0</ele><time>2026-04-28T06:46:52.999Z</time></trkpt><trkpt lat="44.90576298718948" lon="8.929401190404944"><ele>135.0</ele><time>2026-04-28T06:46:53.999Z</time></trkpt><trkpt lat="44.90575371198327" lon="8.92917999876006"><ele>135.0</ele><time>2026-04-28T06:46:54.999Z</time></trkpt><trkpt lat="44.90575032511025" lon="8.928946550534786"><ele>135.0</ele><time>2026-04-28T06:46:55.999Z</time></trkpt><trkpt lat="44.90575309953891" lon="8.928749825035142"><ele>135.0</ele><time>2026-04-28T06:46:56.999Z</time></trkpt><trkpt lat="44.90575518232371" lon="8.92855823522395"><ele>135.0</ele><time>2026-04-28T06:46:57.999Z</time></trkpt><trkpt lat="44.905755267907324" lon="8.92835400118147"><ele>135.0</ele><time>2026-04-28T06:46:58.999Z</time></trkpt><trkpt lat="44.90574711433371" lon="8.92814472607372"><ele>135.0</ele><time>2026-04-28T06:46:59.999Z</time></trkpt><trkpt lat="44.90575081085988" lon="8.927957122728738"><ele>135.25</ele><time>2026-04-28T06:47:00.999Z</time></trkpt><trkpt lat="44.905750114002885" lon="8.92775931507469"><ele>135.5</ele><time>2026-04-28T06:47:01.999Z</time></trkpt><trkpt lat="44.905741733449524" lon="8.927559476093101"><ele>135.75</ele><time>2026-04-28T06:47:02.999Z</time></trkpt><trkpt lat="44.90573362976557" lon="8.927361632944812"><ele>136.0</ele><time>2026-04-28T06:47:03.999Z</time></trkpt><trkpt lat="44.905736492398084" lon="8.927192211277442"><ele>136.0</ele><time>2026-04-28T06:47:04.999Z</time></trkpt><trkpt lat="44.90572172811699" lon="8.926960109886446"><ele>136.0</ele><time>2026-04-28T06:47:05.999Z</time></trkpt><trkpt lat="44.90571718274578" lon="8.926752411429424"><ele>136.0</ele><time>2026-04-28T06:47:06.999Z</time></trkpt><trkpt lat="44.90571407483168" lon="8.926535035440109"><ele>135.66666666666669</ele><time>2026-04-28T06:47:07.999Z</time></trkpt><trkpt lat="44.90571586158508" lon="8.926314678917254"><ele>135.33333333333334</ele><time>2026-04-28T06:47:08.999Z</time></trkpt><trkpt lat="44.90570899418261" lon="8.926081514219828"><ele>135.0</ele><time>2026-04-28T06:47:09.999Z</time></trkpt><trkpt lat="44.905701817498134" lon="8.925835137829987"><ele>134.33333333333334</ele><time>2026-04-28T06:47:10.999Z</time></trkpt><trkpt lat="44.905719823818735" lon="8.925640515770281"><ele>133.66666666666669</ele><time>2026-04-28T06:47:11.999Z</time></trkpt><trkpt lat="44.90572811144879" lon="8.925412555667789"><ele>133.0</ele><time>2026-04-28T06:47:12.999Z</time></trkpt><trkpt lat="44.90572366012885" lon="8.9251667156334"><ele>133.0</ele><time>2026-04-28T06:47:13.999Z</time></trkpt><trkpt lat="44.90573095256797" lon="8.924910998885728"><ele>133.0</ele><time>2026-04-28T06:47:14.999Z</time></trkpt><trkpt lat="44.90574914994056" lon="8.924673106487523"><ele>133.0</ele><time>2026-04-28T06:47:15.999Z</time></trkpt><trkpt lat="44.90576828200283" lon="8.924421346613245"><ele>133.0</ele><time>2026-04-28T06:47:16.999Z</time></trkpt><trkpt lat="44.905801746477415" lon="8.924179490837865"><ele>133.0</ele><time>2026-04-28T06:47:17.999Z</time></trkpt><trkpt lat="44.90583567366463" lon="8.92395114157617"><ele>133.0</ele><time>2026-04-28T06:47:18.999Z</time></trkpt><trkpt lat="44.90588377829289" lon="8.923751613011373"><ele>132.66666666666669</ele><time>2026-04-28T06:47:19.999Z</time></trkpt><trkpt lat="44.90592420932472" lon="8.92353624619047"><ele>132.33333333333334</ele><time>2026-04-28T06:47:20.999Z</time></trkpt><trkpt lat="44.90597381344031" lon="8.923322884572208"><ele>132.0</ele><time>2026-04-28T06:47:21.999Z</time></trkpt><trkpt lat="44.90602846822896" lon="8.923124844902642"><ele>132.0</ele><time>2026-04-28T06:47:22.999Z</time></trkpt><trkpt lat="44.90608586272367" lon="8.922920112231163"><ele>132.0</ele><time>2026-04-28T06:47:23.999Z</time></trkpt><trkpt lat="44.90614674787794" lon="8.922710733174933"><ele>132.0</ele><time>2026-04-28T06:47:24.999Z</time></trkpt><trkpt lat="44.90621790210347" lon="8.92251289792575"><ele>132.0</ele><time>2026-04-28T06:47:25.999Z</time></trkpt><trkpt lat="44.906272593902955" lon="8.922330341483663"><ele>132.0</ele><time>2026-04-28T06:47:27Z</time></trkpt><trkpt lat="44.906327175461406" lon="8.922162997693764"><ele>132.0</ele><time>2026-04-28T06:47:28Z</time></trkpt><trkpt lat="44.90638230889167" lon="8.921998422914179"><ele>132.0</ele><time>2026-04-28T06:47:29Z</time></trkpt><trkpt lat="44.90643341100659" lon="8.921827969144152"><ele>132.0</ele><time>2026-04-28T06:47:30Z</time></trkpt><trkpt lat="44.906485536995795" lon="8.921648680299214"><ele>132.0</ele><time>2026-04-28T06:47:31Z</time></trkpt><trkpt lat="44.906525903495144" lon="8.9214716598159"><ele>132.0</ele><time>2026-04-28T06:47:32Z</time></trkpt><trkpt lat="44.906567775587426" lon="8.921290489659835"><ele>132.0</ele><time>2026-04-28T06:47:33Z</time></trkpt><trkpt lat="44.906613099682254" lon="8.9210843148102"><ele>131.5</ele><time>2026-04-28T06:47:34Z</time></trkpt><trkpt lat="44.906663394351696" lon="8.920891188258901"><ele>131.0</ele><time>2026-04-28T06:47:35Z</time></trkpt><trkpt lat="44.90671025906741" lon="8.920704338804692"><ele>130.5</ele><time>2026-04-28T06:47:36Z</time></trkpt><trkpt lat="44.90674934643087" lon="8.920521971719886"><ele>130.0</ele><time>2026-04-28T06:47:37Z</time></trkpt><trkpt lat="44.90679527762278" lon="8.920345685537104"><ele>129.75</ele><time>2026-04-28T06:47:38Z</time></trkpt><trkpt lat="44.906831462976314" lon="8.920169794744908"><ele>129.5</ele><time>2026-04-28T06:47:39Z</time></trkpt><trkpt lat="44.906865082703504" lon="8.919990291966542"><ele>129.25</ele><time>2026-04-28T06:47:40Z</time></trkpt><trkpt lat="44.90689708352232" lon="8.919832505775068"><ele>129.0</ele><time>2026-04-28T06:47:41Z</time></trkpt><trkpt lat="44.906932785444596" lon="8.919669915738519"><ele>128.8</ele><time>2026-04-28T06:47:42Z</time></trkpt><trkpt lat="44.90696861066973" lon="8.919502244290072"><ele>128.60000000000002</ele><time>2026-04-28T06:47:43Z</time></trkpt><trkpt lat="44.907017541718005" lon="8.919338710271314"><ele>128.4</ele><time>2026-04-28T06:47:44Z</time></trkpt><trkpt lat="44.90704864843429" lon="8.919211438250676"><ele>128.20000000000002</ele><time>2026-04-28T06:47:45Z</time></trkpt><trkpt lat="44.907082823552564" lon="8.919080900258026"><ele>128.0</ele><time>2026-04-28T06:47:46Z</time></trkpt><trkpt lat="44.907103667551766" lon="8.918962322231033"><ele>128.0</ele><time>2026-04-28T06:47:47Z</time></trkpt><trkpt lat="44.907124059230824" lon="8.918818272607602"><ele>128.0</ele><time>2026-04-28T06:47:48Z</time></trkpt><trkpt lat="44.90712921408167" lon="8.918668391897837"><ele>128.0</ele><time>2026-04-28T06:47:49Z</time></trkpt><trkpt lat="44.90715025872622" lon="8.918487182943835"><ele>128.0</ele><time>2026-04-28T06:47:50Z</time></trkpt><trkpt lat="44.9071935693442" lon="8.918274435406762"><ele>128.0</ele><time>2026-04-28T06:47:51Z</time></trkpt><trkpt lat="44.907223932565344" lon="8.918094868581045"><ele>128.0</ele><time>2026-04-28T06:47:52Z</time></trkpt><trkpt lat="44.90723831098024" lon="8.917938856691316"><ele>128.0</ele><time>2026-04-28T06:47:53Z</time></trkpt><trkpt lat="44.90725131259975" lon="8.917807545054421"><ele>128.0</ele><time>2026-04-28T06:47:54Z</time></trkpt><trkpt lat="44.90727649701485" lon="8.917700868400305"><ele>128.0</ele><time>2026-04-28T06:47:55Z</time></trkpt><trkpt lat="44.9072849406326" lon="8.917610162956187"><ele>128.0</ele><time>2026-04-28T06:47:56Z</time></trkpt><trkpt lat="44.90728911473264" lon="8.91750766572909"><ele>128.0</ele><time>2026-04-28T06:47:59Z</time></trkpt><trkpt lat="44.90732195047649" lon="8.917288144929422"><ele>128.0</ele><time>2026-04-28T06:48:04Z</time></trkpt><trkpt lat="44.90733491858423" lon="8.917172420029027"><ele>128.0</ele><time>2026-04-28T06:48:05Z</time></trkpt><trkpt lat="44.90735185853657" lon="8.917057933143761"><ele>128.0</ele><time>2026-04-28T06:48:06Z</time></trkpt><trkpt lat="44.90737232811281" lon="8.916901363251165"><ele>128.0</ele><time>2026-04-28T06:48:07Z</time></trkpt><trkpt lat="44.907372606538786" lon="8.916741505913368"><ele>128.0</ele><time>2026-04-28T06:48:08Z</time></trkpt><trkpt lat="44.90737042141563" lon="8.9165539583871"><ele>128.0</ele><time>2026-04-28T06:48:09Z</time></trkpt><trkpt lat="44.90737327164753" lon="8.91632172526202"><ele>128.0</ele><time>2026-04-28T06:48:10Z</time></trkpt><trkpt lat="44.90736729863737" lon="8.91608743088198"><ele>127.0</ele><time>2026-04-28T06:48:11Z</time></trkpt><trkpt lat="44.907368769256585" lon="8.915831059431024"><ele>126.0</ele><time>2026-04-28T06:48:12Z</time></trkpt><trkpt lat="44.907375247792494" lon="8.915576098458223"><ele>125.0</ele><time>2026-04-28T06:48:13Z</time></trkpt><trkpt lat="44.90737427639602" lon="8.915319233235019"><ele>124.33333333333333</ele><time>2026-04-28T06:48:14Z</time></trkpt><trkpt lat="44.907375182016" lon="8.915053703077865"><ele>123.66666666666666</ele><time>2026-04-28T06:48:15Z</time></trkpt><trkpt lat="44.90738044410031" lon="8.914784823387178"><ele>123.0</ele><time>2026-04-28T06:48:16Z</time></trkpt><trkpt lat="44.90738349128479" lon="8.914492628050317"><ele>122.66666666666666</ele><time>2026-04-28T06:48:17Z</time></trkpt><trkpt lat="44.90738426670625" lon="8.914208420032477"><ele>122.33333333333333</ele><time>2026-04-28T06:48:18Z</time></trkpt><trkpt lat="44.90738893522743" lon="8.913933298302373"><ele>122.0</ele><time>2026-04-28T06:48:18.999Z</time></trkpt><trkpt lat="44.90739240943141" lon="8.913669265496416"><ele>122.0</ele><time>2026-04-28T06:48:19.999Z</time></trkpt><trkpt lat="44.90739811147351" lon="8.913410553622379"><ele>122.0</ele><time>2026-04-28T06:48:20.999Z</time></trkpt><trkpt lat="44.907401013123874" lon="8.913144861126321"><ele>122.0</ele><time>2026-04-28T06:48:21.999Z</time></trkpt><trkpt lat="44.907409668198916" lon="8.912898675416942"><ele>121.66666666666666</ele><time>2026-04-28T06:48:22.999Z</time></trkpt><trkpt lat="44.90741220408649" lon="8.912645310368127"><ele>121.33333333333334</ele><time>2026-04-28T06:48:23.999Z</time></trkpt><trkpt lat="44.907413499194135" lon="8.9123834395213"><ele>121.0</ele><time>2026-04-28T06:48:24.999Z</time></trkpt><trkpt lat="44.90741844570134" lon="8.912132252457267"><ele>121.0</ele><time>2026-04-28T06:48:25.999Z</time></trkpt><trkpt lat="44.90742934116195" lon="8.911883038866064"><ele>121.0</ele><time>2026-04-28T06:48:26.999Z</time></trkpt><trkpt lat="44.90740746213123" lon="8.911597918190152"><ele>121.0</ele><time>2026-04-28T06:48:27.999Z</time></trkpt><trkpt lat="44.907411536147144" lon="8.911332318963952"><ele>120.33333333333334</ele><time>2026-04-28T06:48:28.999Z</time></trkpt><trkpt lat="44.90741305719083" lon="8.911077001831547"><ele>119.66666666666666</ele><time>2026-04-28T06:48:29.999Z</time></trkpt><trkpt lat="44.907417749674956" lon="8.910833745082844"><ele>119.0</ele><time>2026-04-28T06:48:30.999Z</time></trkpt><trkpt lat="44.90742219300074" lon="8.910597954569484"><ele>119.0</ele><time>2026-04-28T06:48:31.999Z</time></trkpt><trkpt lat="44.907426075377984" lon="8.910370580703397"><ele>119.0</ele><time>2026-04-28T06:48:32.999Z</time></trkpt><trkpt lat="44.90743231088665" lon="8.910148652136433"><ele>119.0</ele><time>2026-04-28T06:48:33.999Z</time></trkpt><trkpt lat="44.90743722725982" lon="8.909942068519417"><ele>119.0</ele><time>2026-04-28T06:48:34.999Z</time></trkpt><trkpt lat="44.9074476062281" lon="8.909724668124836"><ele>119.0</ele><time>2026-04-28T06:48:35.999Z</time></trkpt><trkpt lat="44.90746102095855" lon="8.909513281569115"><ele>119.0</ele><time>2026-04-28T06:48:36.999Z</time></trkpt><trkpt lat="44.907472530955395" lon="8.909300688935168"><ele>119.5</ele><time>2026-04-28T06:48:37.999Z</time></trkpt><trkpt lat="44.90748423561087" lon="8.909094658948558"><ele>120.0</ele><time>2026-04-28T06:48:38.999Z</time></trkpt><trkpt lat="44.90749729485422" lon="8.908888778001618"><ele>120.5</ele><time>2026-04-28T06:48:39.999Z</time></trkpt><trkpt lat="44.9075109025314" lon="8.908682758881783"><ele>121.0</ele><time>2026-04-28T06:48:40.999Z</time></trkpt><trkpt lat="44.90751979983609" lon="8.908488755221121"><ele>121.0</ele><time>2026-04-28T06:48:41.999Z</time></trkpt><trkpt lat="44.90752614975561" lon="8.908288619575764"><ele>121.0</ele><time>2026-04-28T06:48:42.999Z</time></trkpt><trkpt lat="44.907536397108885" lon="8.908098437609162"><ele>121.0</ele><time>2026-04-28T06:48:43.999Z</time></trkpt><trkpt lat="44.907547548736886" lon="8.907908352003092"><ele>121.0</ele><time>2026-04-28T06:48:44.999Z</time></trkpt><trkpt lat="44.90756352166935" lon="8.907728526683828"><ele>120.5</ele><time>2026-04-28T06:48:45.999Z</time></trkpt><trkpt lat="44.9075761567713" lon="8.907535015073805"><ele>120.0</ele><time>2026-04-28T06:48:46.999Z</time></trkpt><trkpt lat="44.907592420223246" lon="8.90734696860217"><ele>119.5</ele><time>2026-04-28T06:48:47.999Z</time></trkpt><trkpt lat="44.907605442912846" lon="8.90714942477009"><ele>119.0</ele><time>2026-04-28T06:48:48.999Z</time></trkpt><trkpt lat="44.90762364150042" lon="8.906960710301611"><ele>119.0</ele><time>2026-04-28T06:48:49.999Z</time></trkpt><trkpt lat="44.90763363063798" lon="8.906766803388694"><ele>119.0</ele><time>2026-04-28T06:48:50.999Z</time></trkpt><trkpt lat="44.907644429183456" lon="8.906572837215142"><ele>119.0</ele><time>2026-04-28T06:48:51.999Z</time></trkpt><trkpt lat="44.90766604213157" lon="8.906381836928944"><ele>119.0</ele><time>2026-04-28T06:48:52.999Z</time></trkpt><trkpt lat="44.90768093751285" lon="8.906188820176089"><ele>118.5</ele><time>2026-04-28T06:48:53.999Z</time></trkpt><trkpt lat="44.90769791544179" lon="8.905987372991454"><ele>118.0</ele><time>2026-04-28T06:48:54.999Z</time></trkpt><trkpt lat="44.90771406562646" lon="8.90578304328767"><ele>117.5</ele><time>2026-04-28T06:48:55.999Z</time></trkpt><trkpt lat="44.907730934727645" lon="8.905570283621849"><ele>117.0</ele><time>2026-04-28T06:48:56.999Z</time></trkpt><trkpt lat="44.907751149780935" lon="8.905364363983551"><ele>116.75</ele><time>2026-04-28T06:48:57.999Z</time></trkpt><trkpt lat="44.9077671253431" lon="8.905170693808943"><ele>116.5</ele><time>2026-04-28T06:48:58.999Z</time></trkpt><trkpt lat="44.90777962547868" lon="8.904981359732268"><ele>116.25</ele><time>2026-04-28T06:48:59.999Z</time></trkpt><trkpt lat="44.90778838913473" lon="8.904812142495807"><ele>116.0</ele><time>2026-04-28T06:49:00.999Z</time></trkpt><trkpt lat="44.907790259097006" lon="8.904634518113197"><ele>116.0</ele><time>2026-04-28T06:49:01.999Z</time></trkpt><trkpt lat="44.90780220412201" lon="8.904446676360116"><ele>116.0</ele><time>2026-04-28T06:49:02.999Z</time></trkpt><trkpt lat="44.90780461669973" lon="8.904255153089512"><ele>116.0</ele><time>2026-04-28T06:49:03.999Z</time></trkpt><trkpt lat="44.90779564648606" lon="8.904057898927656"><ele>116.0</ele><time>2026-04-28T06:49:04.999Z</time></trkpt><trkpt lat="44.9077741688803" lon="8.903855368363724"><ele>116.0</ele><time>2026-04-28T06:49:05.999Z</time></trkpt><trkpt lat="44.90773760849126" lon="8.90364924643394"><ele>116.0</ele><time>2026-04-28T06:49:06.999Z</time></trkpt><trkpt lat="44.90768711781665" lon="8.903435120660559"><ele>116.0</ele><time>2026-04-28T06:49:07.999Z</time></trkpt><trkpt lat="44.90763010244729" lon="8.903210450684183"><ele>115.66666666666666</ele><time>2026-04-28T06:49:08.999Z</time></trkpt><trkpt lat="44.90756696719543" lon="8.902980666241758"><ele>115.33333333333334</ele><time>2026-04-28T06:49:09.999Z</time></trkpt><trkpt lat="44.90750278825181" lon="8.902742970359398"><ele>115.0</ele><time>2026-04-28T06:49:10.999Z</time></trkpt><trkpt lat="44.907436810471346" lon="8.902490986819648"><ele>115.0</ele><time>2026-04-28T06:49:11.999Z</time></trkpt><trkpt lat="44.90737358461241" lon="8.902238273144707"><ele>115.0</ele><time>2026-04-28T06:49:12.999Z</time></trkpt><trkpt lat="44.90730851432786" lon="8.901974684148266"><ele>115.0</ele><time>2026-04-28T06:49:13.999Z</time></trkpt><trkpt lat="44.90724634039774" lon="8.901705260964496"><ele>115.0</ele><time>2026-04-28T06:49:14.999Z</time></trkpt><trkpt lat="44.90718754412889" lon="8.901441517943628"><ele>115.0</ele><time>2026-04-28T06:49:15.999Z</time></trkpt><trkpt lat="44.907129877468485" lon="8.901187914662989"><ele>115.0</ele><time>2026-04-28T06:49:16.999Z</time></trkpt><trkpt lat="44.90707338221652" lon="8.900933355524602"><ele>115.0</ele><time>2026-04-28T06:49:17.999Z</time></trkpt><trkpt lat="44.90701775285285" lon="8.90066946074141"><ele>115.0</ele><time>2026-04-28T06:49:18.999Z</time></trkpt><trkpt lat="44.906968222071114" lon="8.900395962484247"><ele>115.0</ele><time>2026-04-28T06:49:19.999Z</time></trkpt><trkpt lat="44.90692941002056" lon="8.90010369237767"><ele>115.0</ele><time>2026-04-28T06:49:20.999Z</time></trkpt><trkpt lat="44.90690114243967" lon="8.899812704679558"><ele>115.0</ele><time>2026-04-28T06:49:21.999Z</time></trkpt><trkpt lat="44.90688266540152" lon="8.899518271596916"><ele>115.0</ele><time>2026-04-28T06:49:22.999Z</time></trkpt><trkpt lat="44.906874453922875" lon="8.899217092260072"><ele>115.0</ele><time>2026-04-28T06:49:23.999Z</time></trkpt><trkpt lat="44.90687174006379" lon="8.898910084963251"><ele>115.0</ele><time>2026-04-28T06:49:24.999Z</time></trkpt><trkpt lat="44.90688073641554" lon="8.898597750529534"><ele>115.0</ele><time>2026-04-28T06:49:25.999Z</time></trkpt><trkpt lat="44.90689610011587" lon="8.898277888670181"><ele>114.5</ele><time>2026-04-28T06:49:26.999Z</time></trkpt><trkpt lat="44.906914180673446" lon="8.897947710964619"><ele>114.0</ele><time>2026-04-28T06:49:27.999Z</time></trkpt><trkpt lat="44.906935727736496" lon="8.897594440097023"><ele>113.5</ele><time>2026-04-28T06:49:28.999Z</time></trkpt><trkpt lat="44.906962307368296" lon="8.897232272488827"><ele>113.0</ele><time>2026-04-28T06:49:29.999Z</time></trkpt><trkpt lat="44.90698443300132" lon="8.896853321483121"><ele>113.0</ele><time>2026-04-28T06:49:30.999Z</time></trkpt><trkpt lat="44.90700208645195" lon="8.896489006647473"><ele>113.0</ele><time>2026-04-28T06:49:31.999Z</time></trkpt><trkpt lat="44.907026206538376" lon="8.896125660350648"><ele>113.5</ele><time>2026-04-28T06:49:33Z</time></trkpt><trkpt lat="44.907048567445756" lon="8.895780564349641"><ele>114.0</ele><time>2026-04-28T06:49:34Z</time></trkpt><trkpt lat="44.907067086015545" lon="8.89545627257875"><ele>114.0</ele><time>2026-04-28T06:49:35Z</time></trkpt><trkpt lat="44.90709004554911" lon="8.89514320973724"><ele>114.0</ele><time>2026-04-28T06:49:36Z</time></trkpt><trkpt lat="44.90711228536082" lon="8.89484282115761"><ele>114.0</ele><time>2026-04-28T06:49:37Z</time></trkpt><trkpt lat="44.90713187626536" lon="8.89455302240392"><ele>114.0</ele><time>2026-04-28T06:49:38Z</time></trkpt><trkpt lat="44.9071526526821" lon="8.894271967554257"><ele>114.0</ele><time>2026-04-28T06:49:39Z</time></trkpt><trkpt lat="44.9071725904907" lon="8.89398093364551"><ele>114.0</ele><time>2026-04-28T06:49:40Z</time></trkpt><trkpt lat="44.90719312949408" lon="8.893697865277725"><ele>113.66666666666666</ele><time>2026-04-28T06:49:41Z</time></trkpt><trkpt lat="44.90720866108109" lon="8.893416337154562"><ele>113.33333333333333</ele><time>2026-04-28T06:49:42Z</time></trkpt><trkpt lat="44.907221486990544" lon="8.893140311368532"><ele>113.0</ele><time>2026-04-28T06:49:43Z</time></trkpt><trkpt lat="44.907237557362436" lon="8.892865968028502"><ele>113.0</ele><time>2026-04-28T06:49:44Z</time></trkpt><trkpt lat="44.90725648950701" lon="8.892608858477447"><ele>113.0</ele><time>2026-04-28T06:49:45Z</time></trkpt><trkpt lat="44.90727072315315" lon="8.892350076451189"><ele>113.0</ele><time>2026-04-28T06:49:46Z</time></trkpt><trkpt lat="44.907285547467346" lon="8.892087317642254"><ele>113.0</ele><time>2026-04-28T06:49:47Z</time></trkpt><trkpt lat="44.90731113228832" lon="8.89182409987761"><ele>113.0</ele><time>2026-04-28T06:49:48Z</time></trkpt><trkpt lat="44.90733900451082" lon="8.891564183541222"><ele>113.0</ele><time>2026-04-28T06:49:49Z</time></trkpt><trkpt lat="44.90736436893322" lon="8.891305109698914"><ele>112.66666666666666</ele><time>2026-04-28T06:49:50Z</time></trkpt><trkpt lat="44.90739308516972" lon="8.891052084849418"><ele>112.33333333333334</ele><time>2026-04-28T06:49:51Z</time></trkpt><trkpt lat="44.90742413718878" lon="8.890798803457903"><ele>112.0</ele><time>2026-04-28T06:49:52Z</time></trkpt><trkpt lat="44.90745736191619" lon="8.890545148670956"><ele>112.0</ele><time>2026-04-28T06:49:53Z</time></trkpt><trkpt lat="44.907492756445464" lon="8.89029928945956"><ele>112.0</ele><time>2026-04-28T06:49:54Z</time></trkpt><trkpt lat="44.907527922841766" lon="8.890059009162892"><ele>112.0</ele><time>2026-04-28T06:49:55Z</time></trkpt><trkpt lat="44.9075599316045" lon="8.889809615376418"><ele>112.0</ele><time>2026-04-28T06:49:56Z</time></trkpt><trkpt lat="44.9075901411282" lon="8.889571365501292"><ele>112.0</ele><time>2026-04-28T06:49:57Z</time></trkpt><trkpt lat="44.90762140853835" lon="8.889337299112427"><ele>112.0</ele><time>2026-04-28T06:49:58Z</time></trkpt><trkpt lat="44.907650904357205" lon="8.889105420184148"><ele>112.0</ele><time>2026-04-28T06:49:59Z</time></trkpt><trkpt lat="44.90768383386309" lon="8.88887020609885"><ele>112.0</ele><time>2026-04-28T06:50:00Z</time></trkpt><trkpt lat="44.907716143411974" lon="8.888635700636208"><ele>112.0</ele><time>2026-04-28T06:50:01Z</time></trkpt><trkpt lat="44.907750691310746" lon="8.888394976608064"><ele>111.33333333333334</ele><time>2026-04-28T06:50:02Z</time></trkpt><trkpt lat="44.90778527781974" lon="8.888158334838986"><ele>110.66666666666666</ele><time>2026-04-28T06:50:03Z</time></trkpt><trkpt lat="44.90781855400447" lon="8.887912334415885"><ele>110.0</ele><time>2026-04-28T06:50:04Z</time></trkpt><trkpt lat="44.90785068792678" lon="8.887672048567264"><ele>110.0</ele><time>2026-04-28T06:50:05Z</time></trkpt><trkpt lat="44.90788004770177" lon="8.887444471404459"><ele>110.0</ele><time>2026-04-28T06:50:06Z</time></trkpt><trkpt lat="44.90790921498894" lon="8.887228004291243"><ele>110.0</ele><time>2026-04-28T06:50:07Z</time></trkpt><trkpt lat="44.907932830768075" lon="8.887016235971567"><ele>110.0</ele><time>2026-04-28T06:50:08Z</time></trkpt><trkpt lat="44.90795258092313" lon="8.88680935698971"><ele>110.0</ele><time>2026-04-28T06:50:09Z</time></trkpt><trkpt lat="44.90796764661825" lon="8.886605909497263"><ele>110.0</ele><time>2026-04-28T06:50:10Z</time></trkpt><trkpt lat="44.90798167957534" lon="8.88640253998225"><ele>110.0</ele><time>2026-04-28T06:50:11Z</time></trkpt><trkpt lat="44.90799206802318" lon="8.886211344156807"><ele>110.2</ele><time>2026-04-28T06:50:12Z</time></trkpt><trkpt lat="44.9079994074431" lon="8.886057278450672"><ele>110.4</ele><time>2026-04-28T06:50:13Z</time></trkpt><trkpt lat="44.90800455473353" lon="8.885937814107896"><ele>110.6</ele><time>2026-04-28T06:50:14Z</time></trkpt><trkpt lat="44.90801115738976" lon="8.885847083400357"><ele>110.8</ele><time>2026-04-28T06:50:15Z</time></trkpt><trkpt lat="44.90802232265709" lon="8.885755113428544"><ele>111.0</ele><time>2026-04-28T06:50:16Z</time></trkpt><trkpt lat="44.9080806871153" lon="8.885595516517565"><ele>111.0</ele><time>2026-04-28T06:50:18Z</time></trkpt><trkpt lat="44.908151074235896" lon="8.885463955784562"><ele>111.0</ele><time>2026-04-28T06:50:20Z</time></trkpt><trkpt lat="44.9081685162486" lon="8.885363838527748"><ele>111.0</ele><time>2026-04-28T06:50:21Z</time></trkpt><trkpt lat="44.908158769451255" lon="8.885245390302579"><ele>111.0</ele><time>2026-04-28T06:50:22Z</time></trkpt><trkpt lat="44.908126328235184" lon="8.885122367937807"><ele>111.0</ele><time>2026-04-28T06:50:23Z</time></trkpt><trkpt lat="44.90816314187222" lon="8.884973134500353"><ele>111.0</ele><time>2026-04-28T06:50:23.999Z</time></trkpt><trkpt lat="44.908191732512435" lon="8.8848323729608"><ele>111.0</ele><time>2026-04-28T06:50:24.999Z</time></trkpt><trkpt lat="44.90821901435906" lon="8.884694970526356"><ele>111.0</ele><time>2026-04-28T06:50:25.999Z</time></trkpt><trkpt lat="44.90824569024301" lon="8.884561584653191"><ele>111.0</ele><time>2026-04-28T06:50:26.999Z</time></trkpt><trkpt lat="44.90827479718262" lon="8.884427146321562"><ele>111.0</ele><time>2026-04-28T06:50:27.999Z</time></trkpt><trkpt lat="44.908303368788765" lon="8.88427978551311"><ele>111.5</ele><time>2026-04-28T06:50:28.999Z</time></trkpt><trkpt lat="44.90833577707844" lon="8.884127177015664"><ele>112.0</ele><time>2026-04-28T06:50:29.999Z</time></trkpt><trkpt lat="44.90836586001774" lon="8.883971032594404"><ele>112.5</ele><time>2026-04-28T06:50:30.999Z</time></trkpt><trkpt lat="44.908382873124374" lon="8.88380549228977"><ele>113.0</ele><time>2026-04-28T06:50:31.999Z</time></trkpt><trkpt lat="44.908398720177686" lon="8.883656311866462"><ele>112.75</ele><time>2026-04-28T06:50:32.999Z</time></trkpt><trkpt lat="44.90841829888843" lon="8.883499958275832"><ele>112.5</ele><time>2026-04-28T06:50:33.999Z</time></trkpt><trkpt lat="44.90842916761033" lon="8.883340045691137"><ele>112.25</ele><time>2026-04-28T06:50:34.999Z</time></trkpt><trkpt lat="44.90843382391921" lon="8.883173542003503"><ele>112.0</ele><time>2026-04-28T06:50:35.999Z</time></trkpt><trkpt lat="44.90842494892347" lon="8.88300466891398"><ele>112.0</ele><time>2026-04-28T06:50:36.999Z</time></trkpt><trkpt lat="44.90840601262225" lon="8.882830570432043"><ele>112.0</ele><time>2026-04-28T06:50:37.999Z</time></trkpt><trkpt lat="44.90837570902463" lon="8.882658445700978"><ele>112.0</ele><time>2026-04-28T06:50:38.999Z</time></trkpt><trkpt lat="44.90834086397166" lon="8.88248767104694"><ele>112.0</ele><time>2026-04-28T06:50:39.999Z</time></trkpt><trkpt lat="44.90829309438745" lon="8.882321729108908"><ele>112.0</ele><time>2026-04-28T06:50:40.999Z</time></trkpt><trkpt lat="44.908236664185395" lon="8.882150761678206"><ele>112.0</ele><time>2026-04-28T06:50:41.999Z</time></trkpt><trkpt lat="44.90817567467722" lon="8.881987341415277"><ele>112.0</ele><time>2026-04-28T06:50:42.999Z</time></trkpt><trkpt lat="44.908118502814425" lon="8.881820322769581"><ele>112.0</ele><time>2026-04-28T06:50:43.999Z</time></trkpt><trkpt lat="44.90806509479111" lon="8.88164895519842"><ele>112.25</ele><time>2026-04-28T06:50:44.999Z</time></trkpt><trkpt lat="44.90801543934681" lon="8.88149195810462"><ele>112.5</ele><time>2026-04-28T06:50:45.999Z</time></trkpt><trkpt lat="44.907968120973095" lon="8.881328283375629"><ele>112.75</ele><time>2026-04-28T06:50:46.999Z</time></trkpt><trkpt lat="44.90792310140151" lon="8.881161615972044"><ele>113.0</ele><time>2026-04-28T06:50:47.999Z</time></trkpt><trkpt lat="44.90788468853229" lon="8.880990370092686"><ele>113.75</ele><time>2026-04-28T06:50:48.999Z</time></trkpt><trkpt lat="44.907852143979255" lon="8.880821234425554"><ele>114.5</ele><time>2026-04-28T06:50:49.999Z</time></trkpt><trkpt lat="44.907823398752015" lon="8.880647166250576"><ele>115.25</ele><time>2026-04-28T06:50:50.999Z</time></trkpt><trkpt lat="44.907797014922984" lon="8.880469885635756"><ele>116.0</ele><time>2026-04-28T06:50:51.999Z</time></trkpt><trkpt lat="44.90778159110584" lon="8.880291099528002"><ele>116.0</ele><time>2026-04-28T06:50:52.999Z</time></trkpt><trkpt lat="44.90776743277593" lon="8.88010653712493"><ele>116.0</ele><time>2026-04-28T06:50:53.999Z</time></trkpt><trkpt lat="44.907758036218354" lon="8.879937241787706"><ele>116.0</ele><time>2026-04-28T06:50:54.999Z</time></trkpt><trkpt lat="44.90775283275433" lon="8.879777610946263"><ele>116.0</ele><time>2026-04-28T06:50:55.999Z</time></trkpt><trkpt lat="44.9077528503949" lon="8.879630569170825"><ele>115.4</ele><time>2026-04-28T06:50:56.999Z</time></trkpt><trkpt lat="44.907756029398676" lon="8.879482569114371"><ele>114.8</ele><time>2026-04-28T06:50:57.999Z</time></trkpt><trkpt lat="44.90776454561494" lon="8.879367999954894"><ele>114.20000000000002</ele><time>2026-04-28T06:50:58.999Z</time></trkpt><trkpt lat="44.90778354909086" lon="8.87924024321426"><ele>113.60000000000001</ele><time>2026-04-28T06:50:59.999Z</time></trkpt><trkpt lat="44.907814583034096" lon="8.879112462500105"><ele>113.0</ele><time>2026-04-28T06:51:00.999Z</time></trkpt><trkpt lat="44.907831144466485" lon="8.878996161356634"><ele>113.0</ele><time>2026-04-28T06:51:01.999Z</time></trkpt><trkpt lat="44.90784580167285" lon="8.878885901781574"><ele>113.00000000000001</ele><time>2026-04-28T06:51:02.999Z</time></trkpt><trkpt lat="44.90792042323717" lon="8.878796986346726"><ele>113.00000000000001</ele><time>2026-04-28T06:51:03.999Z</time></trkpt><trkpt lat="44.90792470809238" lon="8.878677052872371"><ele>113.0</ele><time>2026-04-28T06:51:04.999Z</time></trkpt><trkpt lat="44.907902792019534" lon="8.878541006130249"><ele>113.0</ele><time>2026-04-28T06:51:05.999Z</time></trkpt><trkpt lat="44.90786018066086" lon="8.8783855532903"><ele>113.2</ele><time>2026-04-28T06:51:06.999Z</time></trkpt><trkpt lat="44.907823803848686" lon="8.878270548539817"><ele>113.4</ele><time>2026-04-28T06:51:07.999Z</time></trkpt><trkpt lat="44.907801993241215" lon="8.878119262620896"><ele>113.60000000000001</ele><time>2026-04-28T06:51:08.999Z</time></trkpt><trkpt lat="44.907782209596974" lon="8.87795338957219"><ele>113.80000000000001</ele><time>2026-04-28T06:51:09.999Z</time></trkpt><trkpt lat="44.907769998700296" lon="8.8777710681038"><ele>114.0</ele><time>2026-04-28T06:51:10.999Z</time></trkpt><trkpt lat="44.907765586063185" lon="8.877587063793232"><ele>114.0</ele><time>2026-04-28T06:51:11.999Z</time></trkpt><trkpt lat="44.90777977966323" lon="8.87742502363895"><ele>114.0</ele><time>2026-04-28T06:51:12.999Z</time></trkpt><trkpt lat="44.90778021579884" lon="8.877261292498495"><ele>114.0</ele><time>2026-04-28T06:51:13.999Z</time></trkpt><trkpt lat="44.907759194703395" lon="8.877072126185842"><ele>114.0</ele><time>2026-04-28T06:51:14.999Z</time></trkpt><trkpt lat="44.907750303814005" lon="8.876893419313914"><ele>113.75</ele><time>2026-04-28T06:51:15.999Z</time></trkpt><trkpt lat="44.90773945801491" lon="8.876740709566029"><ele>113.5</ele><time>2026-04-28T06:51:16.999Z</time></trkpt><trkpt lat="44.9077417428683" lon="8.876558866704187"><ele>113.25</ele><time>2026-04-28T06:51:17.999Z</time></trkpt><trkpt lat="44.90774326013317" lon="8.876361336307149"><ele>113.0</ele><time>2026-04-28T06:51:18.999Z</time></trkpt><trkpt lat="44.90774061707905" lon="8.876156355142102"><ele>113.0</ele><time>2026-04-28T06:51:19.999Z</time></trkpt><trkpt lat="44.90774121999678" lon="8.875962070549164"><ele>113.0</ele><time>2026-04-28T06:51:20.999Z</time></trkpt><trkpt lat="44.90773887327449" lon="8.875781632274052"><ele>113.0</ele><time>2026-04-28T06:51:21.999Z</time></trkpt><trkpt lat="44.90772791863513" lon="8.875597885446824"><ele>113.0</ele><time>2026-04-28T06:51:22.999Z</time></trkpt><trkpt lat="44.907724592500465" lon="8.875421386874653"><ele>112.75</ele><time>2026-04-28T06:51:23.999Z</time></trkpt><trkpt lat="44.907723866069766" lon="8.875239296814494"><ele>112.5</ele><time>2026-04-28T06:51:24.999Z</time></trkpt><trkpt lat="44.9077171658438" lon="8.875062340971866"><ele>112.25</ele><time>2026-04-28T06:51:25.999Z</time></trkpt><trkpt lat="44.90771496390295" lon="8.874879726209107"><ele>112.0</ele><time>2026-04-28T06:51:26.999Z</time></trkpt><trkpt lat="44.907716277171865" lon="8.874688400665168"><ele>112.0</ele><time>2026-04-28T06:51:27.999Z</time></trkpt><trkpt lat="44.90771550063555" lon="8.874495267784493"><ele>112.0</ele><time>2026-04-28T06:51:28.999Z</time></trkpt><trkpt lat="44.907715564739654" lon="8.874313867279026"><ele>112.0</ele><time>2026-04-28T06:51:29.999Z</time></trkpt><trkpt lat="44.90771836079243" lon="8.874139549028078"><ele>112.0</ele><time>2026-04-28T06:51:30.999Z</time></trkpt><trkpt lat="44.9077149414758" lon="8.873955596544864"><ele>111.5</ele><time>2026-04-28T06:51:31.999Z</time></trkpt><trkpt lat="44.90772027880041" lon="8.873782947260615"><ele>111.0</ele><time>2026-04-28T06:51:32.999Z</time></trkpt><trkpt lat="44.90771900806437" lon="8.873599853451555"><ele>110.5</ele><time>2026-04-28T06:51:33.999Z</time></trkpt><trkpt lat="44.907716816086335" lon="8.873393671038318"><ele>110.0</ele><time>2026-04-28T06:51:34.999Z</time></trkpt><trkpt lat="44.90771893858829" lon="8.873200980599313"><ele>109.75</ele><time>2026-04-28T06:51:35.999Z</time></trkpt><trkpt lat="44.90771802582161" lon="8.87300158966925"><ele>109.5</ele><time>2026-04-28T06:51:36.999Z</time></trkpt><trkpt lat="44.907713046834466" lon="8.872808909942966"><ele>109.25</ele><time>2026-04-28T06:51:37.999Z</time></trkpt><trkpt lat="44.90770111129344" lon="8.87260856893944"><ele>109.0</ele><time>2026-04-28T06:51:39Z</time></trkpt><trkpt lat="44.907696088185645" lon="8.872422199681267"><ele>109.0</ele><time>2026-04-28T06:51:40Z</time></trkpt><trkpt lat="44.90769858893112" lon="8.872236427744987"><ele>109.0</ele><time>2026-04-28T06:51:41Z</time></trkpt><trkpt lat="44.90769779656067" lon="8.872029596018118"><ele>109.0</ele><time>2026-04-28T06:51:42Z</time></trkpt><trkpt lat="44.907695390104564" lon="8.871800209406517"><ele>109.0</ele><time>2026-04-28T06:51:43Z</time></trkpt><trkpt lat="44.90769985504553" lon="8.871572714315857"><ele>109.0</ele><time>2026-04-28T06:51:44Z</time></trkpt><trkpt lat="44.90769647091032" lon="8.871363558746388"><ele>109.0</ele><time>2026-04-28T06:51:45Z</time></trkpt><trkpt lat="44.907697597580345" lon="8.871168549659645"><ele>109.0</ele><time>2026-04-28T06:51:46Z</time></trkpt><trkpt lat="44.90769774755477" lon="8.870989540343482"><ele>109.0</ele><time>2026-04-28T06:51:47Z</time></trkpt><trkpt lat="44.907698996183754" lon="8.870841364651431"><ele>109.16666666666667</ele><time>2026-04-28T06:51:48Z</time></trkpt><trkpt lat="44.90770570475408" lon="8.870712091933498"><ele>109.33333333333334</ele><time>2026-04-28T06:51:49Z</time></trkpt><trkpt lat="44.90770267470379" lon="8.870591862283058"><ele>109.5</ele><time>2026-04-28T06:51:50Z</time></trkpt><trkpt lat="44.907702600709705" lon="8.87048011599156"><ele>109.66666666666666</ele><time>2026-04-28T06:51:51Z</time></trkpt><trkpt lat="44.907701021696404" lon="8.870387491776071"><ele>109.83333333333333</ele><time>2026-04-28T06:51:52Z</time></trkpt><trkpt lat="44.90769853105174" lon="8.870288742531041"><ele>110.0</ele><time>2026-04-28T06:51:54Z</time></trkpt><trkpt lat="44.907701869722196" lon="8.87018989843904"><ele>110.2</ele><time>2026-04-28T06:51:57Z</time></trkpt><trkpt lat="44.907722544794545" lon="8.870057455605373"><ele>110.4</ele><time>2026-04-28T06:52:00Z</time></trkpt><trkpt lat="44.9077554698222" lon="8.86989878320572"><ele>110.6</ele><time>2026-04-28T06:52:02Z</time></trkpt><trkpt lat="44.90772158289725" lon="8.869778637009627"><ele>110.8</ele><time>2026-04-28T06:52:03Z</time></trkpt><trkpt lat="44.90769906471114" lon="8.869667936091636"><ele>111.0</ele><time>2026-04-28T06:52:04Z</time></trkpt><trkpt lat="44.907689379931355" lon="8.869537516342312"><ele>111.0</ele><time>2026-04-28T06:52:05Z</time></trkpt><trkpt lat="44.907685729004946" lon="8.869388486283476"><ele>111.0</ele><time>2026-04-28T06:52:06Z</time></trkpt><trkpt lat="44.90768688499102" lon="8.869218211740113"><ele>111.0</ele><time>2026-04-28T06:52:07Z</time></trkpt><trkpt lat="44.90768996973783" lon="8.869029634380524"><ele>111.0</ele><time>2026-04-28T06:52:08Z</time></trkpt><trkpt lat="44.90768716170894" lon="8.868824123695825"><ele>111.0</ele><time>2026-04-28T06:52:09Z</time></trkpt><trkpt lat="44.90767995595509" lon="8.868611050859776"><ele>111.0</ele><time>2026-04-28T06:52:10Z</time></trkpt><trkpt lat="44.90766829472632" lon="8.868381470833445"><ele>111.0</ele><time>2026-04-28T06:52:11Z</time></trkpt><trkpt lat="44.90766210848257" lon="8.868128659500677"><ele>111.0</ele><time>2026-04-28T06:52:12Z</time></trkpt><trkpt lat="44.90766197580971" lon="8.8678906830545"><ele>111.0</ele><time>2026-04-28T06:52:13Z</time></trkpt><trkpt lat="44.907664757860395" lon="8.867654104859223"><ele>111.0</ele><time>2026-04-28T06:52:14Z</time></trkpt><trkpt lat="44.907667638862755" lon="8.867430679658678"><ele>111.0</ele><time>2026-04-28T06:52:15Z</time></trkpt><trkpt lat="44.90767302121994" lon="8.867220345810649"><ele>111.0</ele><time>2026-04-28T06:52:16Z</time></trkpt><trkpt lat="44.90767150159337" lon="8.867007389315779"><ele>111.0</ele><time>2026-04-28T06:52:17Z</time></trkpt><trkpt lat="44.9076743459713" lon="8.86679079638563"><ele>110.75</ele><time>2026-04-28T06:52:18Z</time></trkpt><trkpt lat="44.90767214235292" lon="8.866575076862148"><ele>110.5</ele><time>2026-04-28T06:52:19Z</time></trkpt><trkpt lat="44.90766972784688" lon="8.866376050329945"><ele>110.25</ele><time>2026-04-28T06:52:20Z</time></trkpt><trkpt lat="44.90766999696005" lon="8.866175761784364"><ele>110.0</ele><time>2026-04-28T06:52:21Z</time></trkpt><trkpt lat="44.90766871376499" lon="8.865967658804053"><ele>110.0</ele><time>2026-04-28T06:52:22Z</time></trkpt><trkpt lat="44.907664859888776" lon="8.86576178767543"><ele>110.0</ele><time>2026-04-28T06:52:23Z</time></trkpt><trkpt lat="44.907661172570826" lon="8.865554881387949"><ele>110.0</ele><time>2026-04-28T06:52:24Z</time></trkpt><trkpt lat="44.90765761364124" lon="8.865344628364708"><ele>110.0</ele><time>2026-04-28T06:52:25Z</time></trkpt><trkpt lat="44.90765313462614" lon="8.865138224939948"><ele>110.0</ele><time>2026-04-28T06:52:26Z</time></trkpt><trkpt lat="44.90764602812037" lon="8.86492988139853"><ele>110.0</ele><time>2026-04-28T06:52:27Z</time></trkpt><trkpt lat="44.90764241809328" lon="8.864724007463375"><ele>110.0</ele><time>2026-04-28T06:52:28Z</time></trkpt><trkpt lat="44.90764747781883" lon="8.864510306599694"><ele>110.0</ele><time>2026-04-28T06:52:29Z</time></trkpt><trkpt lat="44.90764798761973" lon="8.864294157812251"><ele>110.0</ele><time>2026-04-28T06:52:30Z</time></trkpt><trkpt lat="44.90764811294804" lon="8.864081853106141"><ele>110.0</ele><time>2026-04-28T06:52:31Z</time></trkpt><trkpt lat="44.90764326347445" lon="8.863858069618086"><ele>110.0</ele><time>2026-04-28T06:52:32Z</time></trkpt><trkpt lat="44.90763922548398" lon="8.863639853359471"><ele>110.0</ele><time>2026-04-28T06:52:33Z</time></trkpt><trkpt lat="44.90763390292842" lon="8.8634206235664"><ele>110.0</ele><time>2026-04-28T06:52:34Z</time></trkpt><trkpt lat="44.907628336632" lon="8.863192086962947"><ele>110.0</ele><time>2026-04-28T06:52:34.999Z</time></trkpt><trkpt lat="44.90762490243361" lon="8.862958169215263"><ele>110.0</ele><time>2026-04-28T06:52:35.999Z</time></trkpt><trkpt lat="44.90762514327456" lon="8.86272560973876"><ele>110.0</ele><time>2026-04-28T06:52:36.999Z</time></trkpt><trkpt lat="44.907625638066975" lon="8.862478929870107"><ele>110.0</ele><time>2026-04-28T06:52:37.999Z</time></trkpt><trkpt lat="44.907625913080324" lon="8.862241987434636"><ele>110.66666666666666</ele><time>2026-04-28T06:52:38.999Z</time></trkpt><trkpt lat="44.907619761220545" lon="8.86199654929962"><ele>111.33333333333334</ele><time>2026-04-28T06:52:39.999Z</time></trkpt><trkpt lat="44.90760336164937" lon="8.861744902691731"><ele>112.0</ele><time>2026-04-28T06:52:40.999Z</time></trkpt><trkpt lat="44.90757014828075" lon="8.861499753348655"><ele>112.0</ele><time>2026-04-28T06:52:41.999Z</time></trkpt><trkpt lat="44.907531704621775" lon="8.861275339355641"><ele>112.0</ele><time>2026-04-28T06:52:42.999Z</time></trkpt><trkpt lat="44.90749125548968" lon="8.861065650932044"><ele>112.0</ele><time>2026-04-28T06:52:43.999Z</time></trkpt><trkpt lat="44.90743957683581" lon="8.860857137623427"><ele>112.66666666666667</ele><time>2026-04-28T06:52:44.999Z</time></trkpt><trkpt lat="44.90737923915182" lon="8.860649412655214"><ele>113.33333333333334</ele><time>2026-04-28T06:52:45.999Z</time></trkpt><trkpt lat="44.90730724331992" lon="8.860445857156742"><ele>114.0</ele><time>2026-04-28T06:52:46.999Z</time></trkpt><trkpt lat="44.907235347506735" lon="8.860249062449244"><ele>114.0</ele><time>2026-04-28T06:52:47.999Z</time></trkpt><trkpt lat="44.90716125030714" lon="8.860067041900017"><ele>114.0</ele><time>2026-04-28T06:52:48.999Z</time></trkpt><trkpt lat="44.90708462441271" lon="8.859903860695336"><ele>114.0</ele><time>2026-04-28T06:52:49.999Z</time></trkpt><trkpt lat="44.90699260003962" lon="8.859738327344488"><ele>114.0</ele><time>2026-04-28T06:52:50.999Z</time></trkpt><trkpt lat="44.90688332398846" lon="8.859567945537513"><ele>114.0</ele><time>2026-04-28T06:52:51.999Z</time></trkpt><trkpt lat="44.90676832989705" lon="8.859441221286927"><ele>114.0</ele><time>2026-04-28T06:52:52.999Z</time></trkpt><trkpt lat="44.90664441747301" lon="8.859312712294095"><ele>114.0</ele><time>2026-04-28T06:52:53.999Z</time></trkpt><trkpt lat="44.9065181203345" lon="8.859199735752528"><ele>114.0</ele><time>2026-04-28T06:52:54.999Z</time></trkpt><trkpt lat="44.90639652335173" lon="8.859100828540807"><ele>113.5</ele><time>2026-04-28T06:52:55.999Z</time></trkpt><trkpt lat="44.906272535149476" lon="8.858997987008957"><ele>113.0</ele><time>2026-04-28T06:52:56.999Z</time></trkpt><trkpt lat="44.906145966743566" lon="8.858906125992139"><ele>112.5</ele><time>2026-04-28T06:52:57.999Z</time></trkpt><trkpt lat="44.906018265234955" lon="8.85882138994988"><ele>112.0</ele><time>2026-04-28T06:52:58.999Z</time></trkpt><trkpt lat="44.90589415638719" lon="8.85875142403554"><ele>111.75</ele><time>2026-04-28T06:52:59.999Z</time></trkpt><trkpt lat="44.90577358199738" lon="8.858684206436648"><ele>111.5</ele><time>2026-04-28T06:53:00.999Z</time></trkpt><trkpt lat="44.90565607492931" lon="8.858616605157852"><ele>111.25</ele><time>2026-04-28T06:53:01.999Z</time></trkpt><trkpt lat="44.90553796654188" lon="8.858550359824997"><ele>111.0</ele><time>2026-04-28T06:53:02.999Z</time></trkpt><trkpt lat="44.905421272021066" lon="8.858480502815675"><ele>111.0</ele><time>2026-04-28T06:53:03.999Z</time></trkpt><trkpt lat="44.905307836535975" lon="8.858409525666737"><ele>111.0</ele><time>2026-04-28T06:53:04.999Z</time></trkpt><trkpt lat="44.9051988651545" lon="8.858339933590278"><ele>111.0</ele><time>2026-04-28T06:53:05.999Z</time></trkpt><trkpt lat="44.905093105614334" lon="8.858270597165927"><ele>111.0</ele><time>2026-04-28T06:53:06.999Z</time></trkpt><trkpt lat="44.904989054860486" lon="8.858212873175404"><ele>111.0</ele><time>2026-04-28T06:53:07.999Z</time></trkpt><trkpt lat="44.904886595375345" lon="8.858151290352943"><ele>111.0</ele><time>2026-04-28T06:53:08.999Z</time></trkpt><trkpt lat="44.90478786898898" lon="8.85810279256135"><ele>111.0</ele><time>2026-04-28T06:53:09.999Z</time></trkpt><trkpt lat="44.90469766239811" lon="8.858048817844521"><ele>111.0</ele><time>2026-04-28T06:53:10.999Z</time></trkpt><trkpt lat="44.904623940995556" lon="8.858005301646504"><ele>111.0</ele><time>2026-04-28T06:53:11.999Z</time></trkpt><trkpt lat="44.90453656939048" lon="8.857948292837635"><ele>111.0</ele><time>2026-04-28T06:53:13.999Z</time></trkpt><trkpt lat="44.90446749559459" lon="8.857900405366983"><ele>111.0</ele><time>2026-04-28T06:53:16.999Z</time></trkpt><trkpt lat="44.90441029200994" lon="8.857850413358403"><ele>111.0</ele><time>2026-04-28T06:53:18.999Z</time></trkpt><trkpt lat="44.904334660183565" lon="8.85775752720455"><ele>111.0</ele><time>2026-04-28T06:53:20.999Z</time></trkpt><trkpt lat="44.90429163917981" lon="8.857661963803869"><ele>111.0</ele><time>2026-04-28T06:53:22.999Z</time></trkpt><trkpt lat="44.90418327410989" lon="8.857681251082525"><ele>111.0</ele><time>2026-04-28T06:53:23.999Z</time></trkpt><trkpt lat="44.9041101384035" lon="8.857669409679431"><ele>111.19999999999999</ele><time>2026-04-28T06:53:24.999Z</time></trkpt><trkpt lat="44.90403131860452" lon="8.857649488251496"><ele>111.39999999999999</ele><time>2026-04-28T06:53:25.999Z</time></trkpt><trkpt lat="44.903943955518535" lon="8.857610747183783"><ele>111.6</ele><time>2026-04-28T06:53:26.999Z</time></trkpt><trkpt lat="44.903843704794376" lon="8.857556284627762"><ele>111.8</ele><time>2026-04-28T06:53:27.999Z</time></trkpt><trkpt lat="44.903729693561075" lon="8.857493786354006"><ele>112.0</ele><time>2026-04-28T06:53:28.999Z</time></trkpt><trkpt lat="44.903606132844146" lon="8.857428694689542"><ele>111.5</ele><time>2026-04-28T06:53:29.999Z</time></trkpt><trkpt lat="44.90346454011254" lon="8.857350719948954"><ele>111.0</ele><time>2026-04-28T06:53:30.999Z</time></trkpt><trkpt lat="44.90332911074792" lon="8.857272616677147"><ele>110.5</ele><time>2026-04-28T06:53:31.999Z</time></trkpt><trkpt lat="44.90319944390519" lon="8.857191285961472"><ele>110.0</ele><time>2026-04-28T06:53:32.999Z</time></trkpt><trkpt lat="44.90305573933107" lon="8.857113581811982"><ele>109.75</ele><time>2026-04-28T06:53:33.999Z</time></trkpt><trkpt lat="44.902917622168076" lon="8.857032222006449"><ele>109.5</ele><time>2026-04-28T06:53:34.999Z</time></trkpt><trkpt lat="44.90279203561546" lon="8.856952299653285"><ele>109.25</ele><time>2026-04-28T06:53:35.999Z</time></trkpt><trkpt lat="44.90266887218417" lon="8.856876101158628"><ele>109.0</ele><time>2026-04-28T06:53:36.999Z</time></trkpt><trkpt lat="44.90254126396675" lon="8.856797728610013"><ele>109.5</ele><time>2026-04-28T06:53:37.999Z</time></trkpt><trkpt lat="44.902410726220666" lon="8.85671798454855"><ele>110.0</ele><time>2026-04-28T06:53:38.999Z</time></trkpt><trkpt lat="44.902286673702584" lon="8.85665053442211"><ele>110.5</ele><time>2026-04-28T06:53:39.999Z</time></trkpt><trkpt lat="44.90216795758195" lon="8.856576950208648"><ele>111.0</ele><time>2026-04-28T06:53:40.999Z</time></trkpt><trkpt lat="44.902044653955606" lon="8.85650056161001"><ele>111.0</ele><time>2026-04-28T06:53:41.999Z</time></trkpt><trkpt lat="44.901918725786054" lon="8.856420966497291"><ele>111.0</ele><time>2026-04-28T06:53:42.999Z</time></trkpt><trkpt lat="44.9017950904531" lon="8.856338210720043"><ele>111.0</ele><time>2026-04-28T06:53:43.999Z</time></trkpt><trkpt lat="44.90167299783814" lon="8.856263801054864"><ele>111.0</ele><time>2026-04-28T06:53:45Z</time></trkpt><trkpt lat="44.90155060192645" lon="8.856191574019654"><ele>111.0</ele><time>2026-04-28T06:53:46Z</time></trkpt><trkpt lat="44.901419888843186" lon="8.85611501643602"><ele>111.0</ele><time>2026-04-28T06:53:47Z</time></trkpt><trkpt lat="44.90129716656728" lon="8.856047191887248"><ele>111.0</ele><time>2026-04-28T06:53:48Z</time></trkpt><trkpt lat="44.90117606679785" lon="8.855980718051283"><ele>111.0</ele><time>2026-04-28T06:53:49Z</time></trkpt><trkpt lat="44.90104977533825" lon="8.85591652090989"><ele>111.0</ele><time>2026-04-28T06:53:50Z</time></trkpt><trkpt lat="44.900939442675906" lon="8.855863913426075"><ele>111.0</ele><time>2026-04-28T06:53:51Z</time></trkpt><trkpt lat="44.900828678483194" lon="8.855807972035898"><ele>111.0</ele><time>2026-04-28T06:53:52Z</time></trkpt><trkpt lat="44.90071006709219" lon="8.855731894298945"><ele>111.0</ele><time>2026-04-28T06:53:53Z</time></trkpt><trkpt lat="44.90059812454322" lon="8.855664882413699"><ele>111.5</ele><time>2026-04-28T06:53:54Z</time></trkpt><trkpt lat="44.900480240929355" lon="8.855590635088632"><ele>112.0</ele><time>2026-04-28T06:53:55Z</time></trkpt><trkpt lat="44.900358545735294" lon="8.855521014653444"><ele>112.5</ele><time>2026-04-28T06:53:56Z</time></trkpt><trkpt lat="44.90021975569058" lon="8.855439417028924"><ele>113.0</ele><time>2026-04-28T06:53:57Z</time></trkpt><trkpt lat="44.9000642061768" lon="8.855334513817251"><ele>113.66666666666666</ele><time>2026-04-28T06:53:58Z</time></trkpt><trkpt lat="44.89989746742881" lon="8.855230804148126"><ele>114.33333333333334</ele><time>2026-04-28T06:53:59Z</time></trkpt><trkpt lat="44.899747959460456" lon="8.855147433404989"><ele>115.0</ele><time>2026-04-28T06:54:00Z</time></trkpt><trkpt lat="44.89960343370209" lon="8.85506676639684"><ele>115.0</ele><time>2026-04-28T06:54:01Z</time></trkpt><trkpt lat="44.89946071758204" lon="8.854982132737188"><ele>115.0</ele><time>2026-04-28T06:54:02Z</time></trkpt><trkpt lat="44.89933043505968" lon="8.854897733757536"><ele>115.0</ele><time>2026-04-28T06:54:03Z</time></trkpt><trkpt lat="44.899209451938084" lon="8.854819721061434"><ele>115.0</ele><time>2026-04-28T06:54:04Z</time></trkpt><trkpt lat="44.89908625782392" lon="8.854744618189242"><ele>115.25</ele><time>2026-04-28T06:54:05Z</time></trkpt><trkpt lat="44.8989525065959" lon="8.854669248823422"><ele>115.5</ele><time>2026-04-28T06:54:06Z</time></trkpt><trkpt lat="44.89881077257367" lon="8.854589423487136"><ele>115.75</ele><time>2026-04-28T06:54:07Z</time></trkpt><trkpt lat="44.89867314181749" lon="8.854523854963272"><ele>116.0</ele><time>2026-04-28T06:54:08Z</time></trkpt><trkpt lat="44.89853366725531" lon="8.854482262354152"><ele>115.66666666666666</ele><time>2026-04-28T06:54:09Z</time></trkpt><trkpt lat="44.89838201597282" lon="8.854445658673193"><ele>115.33333333333334</ele><time>2026-04-28T06:54:10Z</time></trkpt><trkpt lat="44.898223153191005" lon="8.854421918359213"><ele>115.0</ele><time>2026-04-28T06:54:11Z</time></trkpt><trkpt lat="44.89806085490835" lon="8.854416190357291"><ele>115.0</ele><time>2026-04-28T06:54:12Z</time></trkpt><trkpt lat="44.89789519757737" lon="8.854426878850568"><ele>115.0</ele><time>2026-04-28T06:54:13Z</time></trkpt><trkpt lat="44.89774008808566" lon="8.854468185031449"><ele>115.0</ele><time>2026-04-28T06:54:14Z</time></trkpt><trkpt lat="44.89758409158482" lon="8.85452800792568"><ele>115.33333333333334</ele><time>2026-04-28T06:54:15Z</time></trkpt><trkpt lat="44.89742813314535" lon="8.854591513675743"><ele>115.66666666666666</ele><time>2026-04-28T06:54:16Z</time></trkpt><trkpt lat="44.89727764944023" lon="8.854665687665808"><ele>116.0</ele><time>2026-04-28T06:54:17Z</time></trkpt><trkpt lat="44.89714645177957" lon="8.85474190056293"><ele>116.0</ele><time>2026-04-28T06:54:18Z</time></trkpt><trkpt lat="44.897030594231175" lon="8.854813283388498"><ele>116.0</ele><time>2026-04-28T06:54:19Z</time></trkpt><trkpt lat="44.89690164285361" lon="8.854887127110691"><ele>116.0</ele><time>2026-04-28T06:54:20Z</time></trkpt><trkpt lat="44.89677730017082" lon="8.854966126169485"><ele>116.0</ele><time>2026-04-28T06:54:21Z</time></trkpt><trkpt lat="44.896662898696455" lon="8.855026860731096"><ele>116.6</ele><time>2026-04-28T06:54:22Z</time></trkpt><trkpt lat="44.89657507946394" lon="8.855070405970698"><ele>117.19999999999999</ele><time>2026-04-28T06:54:23Z</time></trkpt><trkpt lat="44.89651100634203" lon="8.855108951188244"><ele>117.80000000000001</ele><time>2026-04-28T06:54:25Z</time></trkpt><trkpt lat="44.896311502777046" lon="8.855047808763517"><ele>118.4</ele><time>2026-04-28T06:54:35Z</time></trkpt><trkpt lat="44.896263828085445" lon="8.85496058812304"><ele>119.0</ele><time>2026-04-28T06:54:35.999Z</time></trkpt><trkpt lat="44.896236727828445" lon="8.854878863151251"><ele>119.0</ele><time>2026-04-28T06:54:36.999Z</time></trkpt><trkpt lat="44.896212801827296" lon="8.8547934567591"><ele>119.0</ele><time>2026-04-28T06:54:37.999Z</time></trkpt><trkpt lat="44.896175407966986" lon="8.85467915350407"><ele>119.0</ele><time>2026-04-28T06:54:38.999Z</time></trkpt><trkpt lat="44.89612549933433" lon="8.854552817134397"><ele>119.0</ele><time>2026-04-28T06:54:39.999Z</time></trkpt><trkpt lat="44.89606262095026" lon="8.854406028940058"><ele>119.0</ele><time>2026-04-28T06:54:40.999Z</time></trkpt><trkpt lat="44.89599252219287" lon="8.854273474249203"><ele>119.25</ele><time>2026-04-28T06:54:41.999Z</time></trkpt><trkpt lat="44.89590947435852" lon="8.854147871534192"><ele>119.5</ele><time>2026-04-28T06:54:42.999Z</time></trkpt><trkpt lat="44.89582818814445" lon="8.85403202215865"><ele>119.75</ele><time>2026-04-28T06:54:43.999Z</time></trkpt><trkpt lat="44.89574785491208" lon="8.853922176679962"><ele>120.0</ele><time>2026-04-28T06:54:44.999Z</time></trkpt><trkpt lat="44.89567201669025" lon="8.853820162941743"><ele>120.0</ele><time>2026-04-28T06:54:45.999Z</time></trkpt><trkpt lat="44.895602401303044" lon="8.85372523075305"><ele>120.0</ele><time>2026-04-28T06:54:46.999Z</time></trkpt><trkpt lat="44.895529411875" lon="8.853629901309157"><ele>120.0</ele><time>2026-04-28T06:54:47.999Z</time></trkpt><trkpt lat="44.89546105368566" lon="8.8535395155607"><ele>120.0</ele><time>2026-04-28T06:54:48.999Z</time></trkpt><trkpt lat="44.89538903466026" lon="8.853433503998918"><ele>120.0</ele><time>2026-04-28T06:54:49.999Z</time></trkpt><trkpt lat="44.89531877903409" lon="8.853338536153029"><ele>119.5</ele><time>2026-04-28T06:54:50.999Z</time></trkpt><trkpt lat="44.89525285602975" lon="8.853254134516495"><ele>119.0</ele><time>2026-04-28T06:54:51.999Z</time></trkpt><trkpt lat="44.895190696464226" lon="8.853162501281068"><ele>118.5</ele><time>2026-04-28T06:54:52.999Z</time></trkpt><trkpt lat="44.8951333807645" lon="8.853069139310634"><ele>118.0</ele><time>2026-04-28T06:54:53.999Z</time></trkpt><trkpt lat="44.89507877399817" lon="8.852968626408689"><ele>117.5</ele><time>2026-04-28T06:54:54.999Z</time></trkpt><trkpt lat="44.895030042655776" lon="8.85285980794124"><ele>117.0</ele><time>2026-04-28T06:54:55.999Z</time></trkpt><trkpt lat="44.89498670918245" lon="8.852742332418114"><ele>117.39999999999999</ele><time>2026-04-28T06:54:56.999Z</time></trkpt><trkpt lat="44.894940101399136" lon="8.852599865210363"><ele>117.79999999999998</ele><time>2026-04-28T06:54:57.999Z</time></trkpt><trkpt lat="44.89491057541874" lon="8.852470620746997"><ele>118.2</ele><time>2026-04-28T06:54:58.999Z</time></trkpt><trkpt lat="44.89489492405347" lon="8.85232896293773"><ele>118.6</ele><time>2026-04-28T06:54:59.999Z</time></trkpt><trkpt lat="44.894883027090266" lon="8.852181795954971"><ele>119.0</ele><time>2026-04-28T06:55:00.999Z</time></trkpt><trkpt lat="44.89487737213" lon="8.852044945795553"><ele>118.99999999999999</ele><time>2026-04-28T06:55:01.999Z</time></trkpt><trkpt lat="44.89487674576007" lon="8.85190775879921"><ele>119.0</ele><time>2026-04-28T06:55:02.999Z</time></trkpt><trkpt lat="44.894880748603505" lon="8.851780346986978"><ele>119.0</ele><time>2026-04-28T06:55:03.999Z</time></trkpt><trkpt lat="44.89488318673507" lon="8.85166671554915"><ele>119.0</ele><time>2026-04-28T06:55:04.999Z</time></trkpt><trkpt lat="44.894882963254126" lon="8.851572240627181"><ele>118.99999999999999</ele><time>2026-04-28T06:55:05.999Z</time></trkpt><trkpt lat="44.89488515613054" lon="8.85147348853549"><ele>119.0</ele><time>2026-04-28T06:55:06.999Z</time></trkpt><trkpt lat="44.89490705966804" lon="8.851317417599278"><ele>119.0</ele><time>2026-04-28T06:55:08.999Z</time></trkpt><trkpt lat="44.89492832200231" lon="8.8512326326458"><ele>119.0</ele><time>2026-04-28T06:55:10.999Z</time></trkpt><trkpt lat="44.894961898333555" lon="8.851136343749214"><ele>119.0</ele><time>2026-04-28T06:55:12.999Z</time></trkpt><trkpt lat="44.89497173370945" lon="8.850993991709982"><ele>119.0</ele><time>2026-04-28T06:55:14.999Z</time></trkpt><trkpt lat="44.89493554023645" lon="8.850842064895305"><ele>119.0</ele><time>2026-04-28T06:55:16.999Z</time></trkpt><trkpt lat="44.89490484132502" lon="8.850714017136506"><ele>119.0</ele><time>2026-04-28T06:55:17.999Z</time></trkpt><trkpt lat="44.89489275736862" lon="8.850551936989609"><ele>119.0</ele><time>2026-04-28T06:55:18.999Z</time></trkpt><trkpt lat="44.89488815516252" lon="8.850362887187952"><ele>119.0</ele><time>2026-04-28T06:55:19.999Z</time></trkpt><trkpt lat="44.894880978965226" lon="8.8501475492698"><ele>119.0</ele><time>2026-04-28T06:55:20.999Z</time></trkpt><trkpt lat="44.89487216399562" lon="8.849933652880313"><ele>119.33333333333333</ele><time>2026-04-28T06:55:21.999Z</time></trkpt><trkpt lat="44.89486549749822" lon="8.849701112677343"><ele>119.66666666666666</ele><time>2026-04-28T06:55:22.999Z</time></trkpt><trkpt lat="44.89485993080784" lon="8.849455965025475"><ele>120.0</ele><time>2026-04-28T06:55:23.999Z</time></trkpt><trkpt lat="44.89486234579932" lon="8.849195481231037"><ele>119.0</ele><time>2026-04-28T06:55:24.999Z</time></trkpt><trkpt lat="44.89485744560737" lon="8.848943947942656"><ele>118.0</ele><time>2026-04-28T06:55:25.999Z</time></trkpt><trkpt lat="44.89485155972694" lon="8.848688033787262"><ele>117.0</ele><time>2026-04-28T06:55:26.999Z</time></trkpt><trkpt lat="44.894844394030244" lon="8.848424625880826"><ele>117.0</ele><time>2026-04-28T06:55:27.999Z</time></trkpt><trkpt lat="44.89483699475901" lon="8.848185884040342"><ele>117.0</ele><time>2026-04-28T06:55:28.999Z</time></trkpt><trkpt lat="44.89483018766522" lon="8.847949953610902"><ele>117.0</ele><time>2026-04-28T06:55:29.999Z</time></trkpt><trkpt lat="44.894828252474994" lon="8.847728930419864"><ele>117.0</ele><time>2026-04-28T06:55:30.999Z</time></trkpt><trkpt lat="44.89482507003358" lon="8.84751125857539"><ele>117.0</ele><time>2026-04-28T06:55:31.999Z</time></trkpt><trkpt lat="44.89481898907894" lon="8.847306682700493"><ele>117.0</ele><time>2026-04-28T06:55:32.999Z</time></trkpt><trkpt lat="44.894811868708615" lon="8.847105824613713"><ele>117.0</ele><time>2026-04-28T06:55:33.999Z</time></trkpt><trkpt lat="44.89480311759707" lon="8.846909270206872"><ele>116.5</ele><time>2026-04-28T06:55:34.999Z</time></trkpt><trkpt lat="44.894794982959354" lon="8.846711220279392"><ele>116.0</ele><time>2026-04-28T06:55:35.999Z</time></trkpt><trkpt lat="44.8947940653331" lon="8.846501495300814"><ele>115.5</ele><time>2026-04-28T06:55:36.999Z</time></trkpt><trkpt lat="44.89479121074975" lon="8.846283419993632"><ele>115.0</ele><time>2026-04-28T06:55:37.999Z</time></trkpt><trkpt lat="44.89478861776382" lon="8.846054851262531"><ele>113.66666666666667</ele><time>2026-04-28T06:55:38.999Z</time></trkpt><trkpt lat="44.89478156202537" lon="8.845826111796054"><ele>112.33333333333334</ele><time>2026-04-28T06:55:39.999Z</time></trkpt><trkpt lat="44.894773366061024" lon="8.845592947859988"><ele>111.0</ele><time>2026-04-28T06:55:40.999Z</time></trkpt><trkpt lat="44.89476711590961" lon="8.845361614650864"><ele>110.66666666666666</ele><time>2026-04-28T06:55:41.999Z</time></trkpt><trkpt lat="44.89476914709388" lon="8.845113806267618"><ele>110.33333333333333</ele><time>2026-04-28T06:55:42.999Z</time></trkpt><trkpt lat="44.89476239664314" lon="8.844869612198963"><ele>110.0</ele><time>2026-04-28T06:55:43.999Z</time></trkpt><trkpt lat="44.89476111852085" lon="8.844628104971394"><ele>110.0</ele><time>2026-04-28T06:55:44.999Z</time></trkpt><trkpt lat="44.894759130421576" lon="8.844391552599228"><ele>110.0</ele><time>2026-04-28T06:55:45.999Z</time></trkpt><trkpt lat="44.894751614499164" lon="8.844128268687136"><ele>110.0</ele><time>2026-04-28T06:55:46.999Z</time></trkpt><trkpt lat="44.89475179917971" lon="8.843885318516916"><ele>110.0</ele><time>2026-04-28T06:55:47.999Z</time></trkpt><trkpt lat="44.894750182898754" lon="8.843638872891603"><ele>110.0</ele><time>2026-04-28T06:55:48.999Z</time></trkpt><trkpt lat="44.89474545900122" lon="8.843374999022284"><ele>110.0</ele><time>2026-04-28T06:55:49.999Z</time></trkpt><trkpt lat="44.89473849992802" lon="8.843095606582729"><ele>111.33333333333333</ele><time>2026-04-28T06:55:51Z</time></trkpt><trkpt lat="44.89473222450321" lon="8.84280700334387"><ele>112.66666666666666</ele><time>2026-04-28T06:55:52Z</time></trkpt><trkpt lat="44.894733910534164" lon="8.842540937726593"><ele>114.0</ele><time>2026-04-28T06:55:53Z</time></trkpt><trkpt lat="44.894734960863104" lon="8.84228088667605"><ele>114.66666666666666</ele><time>2026-04-28T06:55:54Z</time></trkpt><trkpt lat="44.89473787364447" lon="8.842023537151356"><ele>115.33333333333333</ele><time>2026-04-28T06:55:55Z</time></trkpt><trkpt lat="44.89473600599942" lon="8.841778283753232"><ele>116.0</ele><time>2026-04-28T06:55:56Z</time></trkpt><trkpt lat="44.89473689661812" lon="8.841536526990767"><ele>116.33333333333333</ele><time>2026-04-28T06:55:57Z</time></trkpt><trkpt lat="44.89472992672082" lon="8.841295561659406"><ele>116.66666666666666</ele><time>2026-04-28T06:55:58Z</time></trkpt><trkpt lat="44.89472330685753" lon="8.841050219789215"><ele>117.0</ele><time>2026-04-28T06:55:59Z</time></trkpt><trkpt lat="44.89471980452425" lon="8.840807418441072"><ele>117.0</ele><time>2026-04-28T06:56:00Z</time></trkpt><trkpt lat="44.89471635435969" lon="8.840562243311393"><ele>117.0</ele><time>2026-04-28T06:56:01Z</time></trkpt><trkpt lat="44.89470151926976" lon="8.840301053032716"><ele>117.0</ele><time>2026-04-28T06:56:02Z</time></trkpt><trkpt lat="44.894692276714146" lon="8.840042210600384"><ele>117.33333333333334</ele><time>2026-04-28T06:56:03Z</time></trkpt><trkpt lat="44.89468114545407" lon="8.83978026731133"><ele>117.66666666666667</ele><time>2026-04-28T06:56:04Z</time></trkpt><trkpt lat="44.894670176204876" lon="8.839521478513142"><ele>118.0</ele><time>2026-04-28T06:56:05Z</time></trkpt><trkpt lat="44.89465917617668" lon="8.839261625652838"><ele>117.33333333333334</ele><time>2026-04-28T06:56:06Z</time></trkpt><trkpt lat="44.894652154828144" lon="8.83900706024803"><ele>116.66666666666666</ele><time>2026-04-28T06:56:07Z</time></trkpt><trkpt lat="44.89465668721363" lon="8.83875768680886"><ele>116.0</ele><time>2026-04-28T06:56:08Z</time></trkpt><trkpt lat="44.89465431750399" lon="8.83852066377651"><ele>116.0</ele><time>2026-04-28T06:56:09Z</time></trkpt><trkpt lat="44.89464885349448" lon="8.838283563897646"><ele>116.0</ele><time>2026-04-28T06:56:10Z</time></trkpt><trkpt lat="44.89464090916945" lon="8.838049866074778"><ele>116.0</ele><time>2026-04-28T06:56:11Z</time></trkpt><trkpt lat="44.89463275536232" lon="8.837795529232839"><ele>116.0</ele><time>2026-04-28T06:56:12Z</time></trkpt><trkpt lat="44.89462536428007" lon="8.837542372771201"><ele>116.0</ele><time>2026-04-28T06:56:13Z</time></trkpt><trkpt lat="44.89461846512674" lon="8.837292289333188"><ele>116.0</ele><time>2026-04-28T06:56:14Z</time></trkpt><trkpt lat="44.89461514016434" lon="8.837041964573304"><ele>116.0</ele><time>2026-04-28T06:56:15Z</time></trkpt><trkpt lat="44.89461315275108" lon="8.836805483863078"><ele>116.0</ele><time>2026-04-28T06:56:16Z</time></trkpt><trkpt lat="44.89460933877819" lon="8.836587434451939"><ele>116.0</ele><time>2026-04-28T06:56:17Z</time></trkpt><trkpt lat="44.89460359325219" lon="8.836381193931322"><ele>116.33333333333333</ele><time>2026-04-28T06:56:18Z</time></trkpt><trkpt lat="44.89459909136601" lon="8.836157844412435"><ele>116.66666666666666</ele><time>2026-04-28T06:56:19Z</time></trkpt><trkpt lat="44.89459328266089" lon="8.83592647509383"><ele>117.0</ele><time>2026-04-28T06:56:20Z</time></trkpt><trkpt lat="44.89459374583154" lon="8.835691730842964"><ele>117.33333333333334</ele><time>2026-04-28T06:56:21Z</time></trkpt><trkpt lat="44.89458535861641" lon="8.835455746819491"><ele>117.66666666666667</ele><time>2026-04-28T06:56:22Z</time></trkpt><trkpt lat="44.89457852025965" lon="8.835232941670164"><ele>118.0</ele><time>2026-04-28T06:56:23Z</time></trkpt><trkpt lat="44.89457579052401" lon="8.835017860503534"><ele>118.0</ele><time>2026-04-28T06:56:24Z</time></trkpt><trkpt lat="44.89458351521449" lon="8.834804283166779"><ele>118.0</ele><time>2026-04-28T06:56:25Z</time></trkpt><trkpt lat="44.89458314946611" lon="8.834612499031548"><ele>118.0</ele><time>2026-04-28T06:56:26Z</time></trkpt><trkpt lat="44.89458571319047" lon="8.834415072825978"><ele>118.0</ele><time>2026-04-28T06:56:27Z</time></trkpt><trkpt lat="44.89459284334919" lon="8.834231850461784"><ele>117.33333333333334</ele><time>2026-04-28T06:56:28Z</time></trkpt><trkpt lat="44.894590010133186" lon="8.834017394916067"><ele>116.66666666666666</ele><time>2026-04-28T06:56:29Z</time></trkpt><trkpt lat="44.89457517036223" lon="8.833785733767302"><ele>116.0</ele><time>2026-04-28T06:56:30Z</time></trkpt><trkpt lat="44.89456622697613" lon="8.833550014605908"><ele>116.0</ele><time>2026-04-28T06:56:31Z</time></trkpt><trkpt lat="44.894559082672444" lon="8.833320035754907"><ele>116.0</ele><time>2026-04-28T06:56:32Z</time></trkpt><trkpt lat="44.89454739297967" lon="8.833075127902957"><ele>116.0</ele><time>2026-04-28T06:56:33Z</time></trkpt><trkpt lat="44.89453638131836" lon="8.832841553835998"><ele>116.66666666666666</ele><time>2026-04-28T06:56:34Z</time></trkpt><trkpt lat="44.8945271799727" lon="8.832616492533656"><ele>117.33333333333334</ele><time>2026-04-28T06:56:35Z</time></trkpt><trkpt lat="44.89451775125935" lon="8.832386057027541"><ele>118.0</ele><time>2026-04-28T06:56:36Z</time></trkpt><trkpt lat="44.89451168007431" lon="8.832167822081258"><ele>118.0</ele><time>2026-04-28T06:56:37Z</time></trkpt><trkpt lat="44.89450696691552" lon="8.831936233412401"><ele>118.0</ele><time>2026-04-28T06:56:38Z</time></trkpt><trkpt lat="44.89450650962312" lon="8.831751557826916"><ele>118.0</ele><time>2026-04-28T06:56:39Z</time></trkpt><trkpt lat="44.89450994815549" lon="8.831545767925725"><ele>118.0</ele><time>2026-04-28T06:56:40Z</time></trkpt><trkpt lat="44.894510454736036" lon="8.831346570163078"><ele>117.75</ele><time>2026-04-28T06:56:41Z</time></trkpt><trkpt lat="44.89451360025455" lon="8.83115271643293"><ele>117.5</ele><time>2026-04-28T06:56:42Z</time></trkpt><trkpt lat="44.894512220510016" lon="8.830949306386028"><ele>117.25</ele><time>2026-04-28T06:56:43Z</time></trkpt><trkpt lat="44.89451314310851" lon="8.830749611284093"><ele>117.0</ele><time>2026-04-28T06:56:44Z</time></trkpt><trkpt lat="44.89451305487803" lon="8.830537222265313"><ele>117.0</ele><time>2026-04-28T06:56:45Z</time></trkpt><trkpt lat="44.89451502557775" lon="8.830320934999373"><ele>117.0</ele><time>2026-04-28T06:56:46Z</time></trkpt><trkpt lat="44.894517857322015" lon="8.830085689672721"><ele>117.0</ele><time>2026-04-28T06:56:46.999Z</time></trkpt><trkpt lat="44.8945170144477" lon="8.829855486002439"><ele>116.66666666666666</ele><time>2026-04-28T06:56:47.999Z</time></trkpt><trkpt lat="44.89451348811995" lon="8.829627411456281"><ele>116.33333333333333</ele><time>2026-04-28T06:56:48.999Z</time></trkpt><trkpt lat="44.89450756019175" lon="8.82939014474542"><ele>116.0</ele><time>2026-04-28T06:56:49.999Z</time></trkpt><trkpt lat="44.894501269999765" lon="8.82916388453881"><ele>115.66666666666666</ele><time>2026-04-28T06:56:50.999Z</time></trkpt><trkpt lat="44.89448979114823" lon="8.828939118888028"><ele>115.33333333333334</ele><time>2026-04-28T06:56:51.999Z</time></trkpt><trkpt lat="44.894473276684415" lon="8.828710796316397"><ele>115.0</ele><time>2026-04-28T06:56:52.999Z</time></trkpt><trkpt lat="44.894464268017565" lon="8.82847947133644"><ele>115.66666666666667</ele><time>2026-04-28T06:56:53.999Z</time></trkpt><trkpt lat="44.89445969243521" lon="8.828253795971087"><ele>116.33333333333334</ele><time>2026-04-28T06:56:54.999Z</time></trkpt><trkpt lat="44.894450977333406" lon="8.82802729561265"><ele>117.0</ele><time>2026-04-28T06:56:55.999Z</time></trkpt><trkpt lat="44.894447958130826" lon="8.827803507122718"><ele>116.66666666666666</ele><time>2026-04-28T06:56:56.999Z</time></trkpt><trkpt lat="44.894440543938266" lon="8.827572483395523"><ele>116.33333333333333</ele><time>2026-04-28T06:56:57.999Z</time></trkpt><trkpt lat="44.894437909387385" lon="8.827352097390099"><ele>116.0</ele><time>2026-04-28T06:56:58.999Z</time></trkpt><trkpt lat="44.894433223698755" lon="8.827128071760582"><ele>116.0</ele><time>2026-04-28T06:56:59.999Z</time></trkpt><trkpt lat="44.894425351539006" lon="8.826896684093688"><ele>116.0</ele><time>2026-04-28T06:57:00.999Z</time></trkpt><trkpt lat="44.894416732536406" lon="8.826664177894681"><ele>116.0</ele><time>2026-04-28T06:57:01.999Z</time></trkpt><trkpt lat="44.89440704611666" lon="8.826441571864088"><ele>115.33333333333333</ele><time>2026-04-28T06:57:02.999Z</time></trkpt><trkpt lat="44.89439455459878" lon="8.826205041922522"><ele>114.66666666666666</ele><time>2026-04-28T06:57:03.999Z</time></trkpt><trkpt lat="44.89439687809633" lon="8.825972242531234"><ele>114.0</ele><time>2026-04-28T06:57:04.999Z</time></trkpt><trkpt lat="44.89439582982792" lon="8.825734778478912"><ele>114.0</ele><time>2026-04-28T06:57:05.999Z</time></trkpt><trkpt lat="44.894394737859486" lon="8.82550148359879"><ele>114.0</ele><time>2026-04-28T06:57:06.999Z</time></trkpt><trkpt lat="44.89439459895293" lon="8.825265689672438"><ele>114.0</ele><time>2026-04-28T06:57:07.999Z</time></trkpt><trkpt lat="44.894392498601306" lon="8.825027572546382"><ele>114.33333333333334</ele><time>2026-04-28T06:57:08.999Z</time></trkpt><trkpt lat="44.89438710970454" lon="8.824784820178062"><ele>114.66666666666667</ele><time>2026-04-28T06:57:09.999Z</time></trkpt><trkpt lat="44.89438304932502" lon="8.824547681331646"><ele>115.0</ele><time>2026-04-28T06:57:10.999Z</time></trkpt><trkpt lat="44.89438185655142" lon="8.824316021257832"><ele>115.33333333333334</ele><time>2026-04-28T06:57:11.999Z</time></trkpt><trkpt lat="44.89437753256595" lon="8.824082289790478"><ele>115.66666666666666</ele><time>2026-04-28T06:57:12.999Z</time></trkpt><trkpt lat="44.89437771332026" lon="8.823856566566915"><ele>116.0</ele><time>2026-04-28T06:57:13.999Z</time></trkpt><trkpt lat="44.8943767721187" lon="8.823625998927252"><ele>116.0</ele><time>2026-04-28T06:57:14.999Z</time></trkpt><trkpt lat="44.894367527162785" lon="8.823388485506669"><ele>116.0</ele><time>2026-04-28T06:57:15.999Z</time></trkpt><trkpt lat="44.89435821155438" lon="8.823138292279515"><ele>116.0</ele><time>2026-04-28T06:57:16.999Z</time></trkpt><trkpt lat="44.89435035180672" lon="8.822892652434877"><ele>115.66666666666666</ele><time>2026-04-28T06:57:17.999Z</time></trkpt><trkpt lat="44.89434343293705" lon="8.822610206416721"><ele>115.33333333333334</ele><time>2026-04-28T06:57:18.999Z</time></trkpt><trkpt lat="44.89433764619972" lon="8.822352130467152"><ele>115.0</ele><time>2026-04-28T06:57:19.999Z</time></trkpt><trkpt lat="44.894331554874114" lon="8.82208743668812"><ele>115.0</ele><time>2026-04-28T06:57:20.999Z</time></trkpt><trkpt lat="44.89432283358276" lon="8.821824184885578"><ele>115.0</ele><time>2026-04-28T06:57:21.999Z</time></trkpt><trkpt lat="44.894311000811015" lon="8.821548591549972"><ele>115.0</ele><time>2026-04-28T06:57:22.999Z</time></trkpt><trkpt lat="44.89429681252547" lon="8.82127838040846"><ele>115.0</ele><time>2026-04-28T06:57:23.999Z</time></trkpt><trkpt lat="44.8942893830829" lon="8.821027567268235"><ele>115.0</ele><time>2026-04-28T06:57:24.999Z</time></trkpt><trkpt lat="44.89427829795248" lon="8.820764940779883"><ele>115.0</ele><time>2026-04-28T06:57:25.999Z</time></trkpt><trkpt lat="44.89425999015525" lon="8.820511478147372"><ele>115.33333333333334</ele><time>2026-04-28T06:57:26.999Z</time></trkpt><trkpt lat="44.89423968166175" lon="8.820236691520767"><ele>115.66666666666666</ele><time>2026-04-28T06:57:27.999Z</time></trkpt><trkpt lat="44.894216111692174" lon="8.819977206707382"><ele>116.0</ele><time>2026-04-28T06:57:28.999Z</time></trkpt><trkpt lat="44.894193097913195" lon="8.819714606316316"><ele>116.0</ele><time>2026-04-28T06:57:29.999Z</time></trkpt><trkpt lat="44.89417238347928" lon="8.819448333791362"><ele>116.0</ele><time>2026-04-28T06:57:30.999Z</time></trkpt><trkpt lat="44.894149754062745" lon="8.819192901726861"><ele>116.0</ele><time>2026-04-28T06:57:31.999Z</time></trkpt><trkpt lat="44.8941295600808" lon="8.818945786301647"><ele>116.0</ele><time>2026-04-28T06:57:32.999Z</time></trkpt><trkpt lat="44.89411004541934" lon="8.818683949092575"><ele>116.0</ele><time>2026-04-28T06:57:33.999Z</time></trkpt><trkpt lat="44.89409224887206" lon="8.818428701210872"><ele>116.0</ele><time>2026-04-28T06:57:34.999Z</time></trkpt><trkpt lat="44.8940789604985" lon="8.818190924611374"><ele>115.75</ele><time>2026-04-28T06:57:35.999Z</time></trkpt><trkpt lat="44.89406665963428" lon="8.817962814699872"><ele>115.5</ele><time>2026-04-28T06:57:36.999Z</time></trkpt><trkpt lat="44.89406023290929" lon="8.817787427708636"><ele>115.25</ele><time>2026-04-28T06:57:37.999Z</time></trkpt><trkpt lat="44.89406820179402" lon="8.817599690328219"><ele>115.0</ele><time>2026-04-28T06:57:38.999Z</time></trkpt><trkpt lat="44.8940998022485" lon="8.817430076895002"><ele>115.0</ele><time>2026-04-28T06:57:39.999Z</time></trkpt><trkpt lat="44.89412712461731" lon="8.817279563225172"><ele>115.0</ele><time>2026-04-28T06:57:40.999Z</time></trkpt><trkpt lat="44.894117303956875" lon="8.81712946556326"><ele>115.0</ele><time>2026-04-28T06:57:41.999Z</time></trkpt><trkpt lat="44.894068777558296" lon="8.816978137824574"><ele>115.0</ele><time>2026-04-28T06:57:42.999Z</time></trkpt><trkpt lat="44.89401219060313" lon="8.816803160440799"><ele>115.25</ele><time>2026-04-28T06:57:43.999Z</time></trkpt><trkpt lat="44.89396269407453" lon="8.816613919328486"><ele>115.5</ele><time>2026-04-28T06:57:44.999Z</time></trkpt><trkpt lat="44.89392339750453" lon="8.816413835474322"><ele>115.75</ele><time>2026-04-28T06:57:45.999Z</time></trkpt><trkpt lat="44.89388863259189" lon="8.816203353257853"><ele>116.0</ele><time>2026-04-28T06:57:46.999Z</time></trkpt><trkpt lat="44.89386196718725" lon="8.815985789585486"><ele>116.33333333333333</ele><time>2026-04-28T06:57:47.999Z</time></trkpt><trkpt lat="44.893834579725414" lon="8.815761247571187"><ele>116.66666666666666</ele><time>2026-04-28T06:57:48.999Z</time></trkpt><trkpt lat="44.8938107083257" lon="8.815526957931892"><ele>117.0</ele><time>2026-04-28T06:57:49.999Z</time></trkpt><trkpt lat="44.893788012574824" lon="8.81529072131751"><ele>118.0</ele><time>2026-04-28T06:57:50.999Z</time></trkpt><trkpt lat="44.89376557433554" lon="8.815052296388375"><ele>119.0</ele><time>2026-04-28T06:57:51.999Z</time></trkpt><trkpt lat="44.89374204714178" lon="8.814809028497638"><ele>120.0</ele><time>2026-04-28T06:57:52.999Z</time></trkpt><trkpt lat="44.89371581078016" lon="8.814566180055103"><ele>120.0</ele><time>2026-04-28T06:57:53.999Z</time></trkpt><trkpt lat="44.89369124628615" lon="8.814323865443908"><ele>120.0</ele><time>2026-04-28T06:57:54.999Z</time></trkpt><trkpt lat="44.89367213207809" lon="8.81409304643236"><ele>120.0</ele><time>2026-04-28T06:57:55.999Z</time></trkpt><trkpt lat="44.89365132794959" lon="8.813859949432944"><ele>118.33333333333334</ele><time>2026-04-28T06:57:57Z</time></trkpt><trkpt lat="44.89363176074727" lon="8.81362692002288"><ele>116.66666666666667</ele><time>2026-04-28T06:57:58Z</time></trkpt><trkpt lat="44.893610291529285" lon="8.813391224256488"><ele>115.0</ele><time>2026-04-28T06:57:59Z</time></trkpt><trkpt lat="44.893587907442836" lon="8.813157469249354"><ele>115.0</ele><time>2026-04-28T06:58:00Z</time></trkpt><trkpt lat="44.89356496034737" lon="8.812924991770686"><ele>115.0</ele><time>2026-04-28T06:58:01Z</time></trkpt><trkpt lat="44.893542733013284" lon="8.812683630429023"><ele>115.0</ele><time>2026-04-28T06:58:02Z</time></trkpt><trkpt lat="44.89351707795209" lon="8.812439643392153"><ele>115.0</ele><time>2026-04-28T06:58:03Z</time></trkpt><trkpt lat="44.89349467815767" lon="8.812194852631158"><ele>115.0</ele><time>2026-04-28T06:58:04Z</time></trkpt><trkpt lat="44.893471687294" lon="8.811947686047619"><ele>115.0</ele><time>2026-04-28T06:58:05Z</time></trkpt><trkpt lat="44.89344617669238" lon="8.811696664267949"><ele>115.66666666666667</ele><time>2026-04-28T06:58:06Z</time></trkpt><trkpt lat="44.893420307705455" lon="8.811441523118932"><ele>116.33333333333334</ele><time>2026-04-28T06:58:07Z</time></trkpt><trkpt lat="44.89340095113981" lon="8.811189900945346"><ele>117.0</ele><time>2026-04-28T06:58:08Z</time></trkpt><trkpt lat="44.89337674230748" lon="8.810930933901714"><ele>117.33333333333334</ele><time>2026-04-28T06:58:09Z</time></trkpt><trkpt lat="44.89334662498543" lon="8.810671115715015"><ele>117.66666666666667</ele><time>2026-04-28T06:58:10Z</time></trkpt><trkpt lat="44.89331933746885" lon="8.810408349466616"><ele>118.0</ele><time>2026-04-28T06:58:11Z</time></trkpt><trkpt lat="44.893297759364934" lon="8.810145125377987"><ele>117.33333333333334</ele><time>2026-04-28T06:58:12Z</time></trkpt><trkpt lat="44.893277706535955" lon="8.809877371017967"><ele>116.66666666666666</ele><time>2026-04-28T06:58:13Z</time></trkpt><trkpt lat="44.89325254811272" lon="8.809615838037487"><ele>116.0</ele><time>2026-04-28T06:58:14Z</time></trkpt><trkpt lat="44.893222063900915" lon="8.809347729231943"><ele>116.33333333333333</ele><time>2026-04-28T06:58:15Z</time></trkpt><trkpt lat="44.8931930431357" lon="8.809081969130728"><ele>116.66666666666666</ele><time>2026-04-28T06:58:16Z</time></trkpt><trkpt lat="44.89317136497407" lon="8.808830976247224"><ele>117.0</ele><time>2026-04-28T06:58:17Z</time></trkpt><trkpt lat="44.893148356677614" lon="8.808591831486064"><ele>117.0</ele><time>2026-04-28T06:58:18Z</time></trkpt><trkpt lat="44.89312772868501" lon="8.808361301306965"><ele>117.0</ele><time>2026-04-28T06:58:19Z</time></trkpt><trkpt lat="44.89311093093737" lon="8.808138060057637"><ele>117.0</ele><time>2026-04-28T06:58:20Z</time></trkpt><trkpt lat="44.89309341525685" lon="8.807920605532345"><ele>117.0</ele><time>2026-04-28T06:58:21Z</time></trkpt><trkpt lat="44.89307287823458" lon="8.807692834707698"><ele>117.0</ele><time>2026-04-28T06:58:22Z</time></trkpt><trkpt lat="44.893050437431036" lon="8.807462001568235"><ele>117.0</ele><time>2026-04-28T06:58:23Z</time></trkpt><trkpt lat="44.89302972857558" lon="8.807231251162031"><ele>116.33333333333334</ele><time>2026-04-28T06:58:24Z</time></trkpt><trkpt lat="44.89300534623457" lon="8.807001708040094"><ele>115.66666666666667</ele><time>2026-04-28T06:58:25Z</time></trkpt><trkpt lat="44.89298249409674" lon="8.806770973831219"><ele>115.0</ele><time>2026-04-28T06:58:26Z</time></trkpt><trkpt lat="44.892971341924444" lon="8.806532263167817"><ele>115.0</ele><time>2026-04-28T06:58:27Z</time></trkpt><trkpt lat="44.89295337612707" lon="8.806295847627819"><ele>115.0</ele><time>2026-04-28T06:58:28Z</time></trkpt><trkpt lat="44.89292879520172" lon="8.80606310652062"><ele>115.0</ele><time>2026-04-28T06:58:29Z</time></trkpt><trkpt lat="44.89290561456001" lon="8.805825199828641"><ele>115.33333333333334</ele><time>2026-04-28T06:58:30Z</time></trkpt><trkpt lat="44.892882611722456" lon="8.805586443069462"><ele>115.66666666666666</ele><time>2026-04-28T06:58:31Z</time></trkpt><trkpt lat="44.892858312848894" lon="8.805340886275873"><ele>116.0</ele><time>2026-04-28T06:58:32Z</time></trkpt><trkpt lat="44.89283292784561" lon="8.805089196722893"><ele>116.0</ele><time>2026-04-28T06:58:33Z</time></trkpt><trkpt lat="44.89280838115043" lon="8.80484577577794"><ele>116.0</ele><time>2026-04-28T06:58:34Z</time></trkpt><trkpt lat="44.8927877648402" lon="8.804597919434633"><ele>116.0</ele><time>2026-04-28T06:58:35Z</time></trkpt><trkpt lat="44.89276391786391" lon="8.804341399713405"><ele>116.33333333333333</ele><time>2026-04-28T06:58:36Z</time></trkpt><trkpt lat="44.892740964641845" lon="8.804104351576525"><ele>116.66666666666666</ele><time>2026-04-28T06:58:37Z</time></trkpt><trkpt lat="44.89271083071442" lon="8.803878569129067"><ele>117.0</ele><time>2026-04-28T06:58:38Z</time></trkpt><trkpt lat="44.89269019444808" lon="8.803655195942794"><ele>117.66666666666666</ele><time>2026-04-28T06:58:39Z</time></trkpt><trkpt lat="44.89264485495248" lon="8.80344106035097"><ele>118.33333333333333</ele><time>2026-04-28T06:58:40Z</time></trkpt><trkpt lat="44.89257940968756" lon="8.803232860829063"><ele>119.0</ele><time>2026-04-28T06:58:41Z</time></trkpt><trkpt lat="44.89253096693089" lon="8.803013793229415"><ele>119.0</ele><time>2026-04-28T06:58:42Z</time></trkpt><trkpt lat="44.892492914215765" lon="8.802795650542611"><ele>119.0</ele><time>2026-04-28T06:58:43Z</time></trkpt><trkpt lat="44.892469594290084" lon="8.802569246756244"><ele>119.0</ele><time>2026-04-28T06:58:44Z</time></trkpt><trkpt lat="44.892454465974275" lon="8.802341054018006"><ele>119.0</ele><time>2026-04-28T06:58:45Z</time></trkpt><trkpt lat="44.89244406092352" lon="8.802103473175745"><ele>119.0</ele><time>2026-04-28T06:58:46Z</time></trkpt><trkpt lat="44.89243057503849" lon="8.801864813754829"><ele>119.0</ele><time>2026-04-28T06:58:47Z</time></trkpt><trkpt lat="44.89241756593587" lon="8.801624285408185"><ele>118.66666666666666</ele><time>2026-04-28T06:58:48Z</time></trkpt><trkpt lat="44.892398834889896" lon="8.80138177243572"><ele>118.33333333333334</ele><time>2026-04-28T06:58:48.999Z</time></trkpt><trkpt lat="44.8923810089223" lon="8.801142311890928"><ele>118.0</ele><time>2026-04-28T06:58:49.999Z</time></trkpt><trkpt lat="44.89236187344918" lon="8.800892681360695"><ele>117.33333333333334</ele><time>2026-04-28T06:58:50.999Z</time></trkpt><trkpt lat="44.892345685519544" lon="8.800642485025305"><ele>116.66666666666666</ele><time>2026-04-28T06:58:51.999Z</time></trkpt><trkpt lat="44.89233503719909" lon="8.800405087059278"><ele>116.0</ele><time>2026-04-28T06:58:52.999Z</time></trkpt><trkpt lat="44.8923222267938" lon="8.800181708211852"><ele>116.66666666666666</ele><time>2026-04-28T06:58:53.999Z</time></trkpt><trkpt lat="44.89231023817854" lon="8.79996536235499"><ele>117.33333333333334</ele><time>2026-04-28T06:58:54.999Z</time></trkpt><trkpt lat="44.89229287193171" lon="8.799750260570448"><ele>118.0</ele><time>2026-04-28T06:58:55.999Z</time></trkpt><trkpt lat="44.89227480985419" lon="8.799523747954966"><ele>117.33333333333334</ele><time>2026-04-28T06:58:56.999Z</time></trkpt><trkpt lat="44.892257550556046" lon="8.799293435384131"><ele>116.66666666666666</ele><time>2026-04-28T06:58:57.999Z</time></trkpt><trkpt lat="44.89224043409458" lon="8.799067572531428"><ele>116.0</ele><time>2026-04-28T06:58:58.999Z</time></trkpt><trkpt lat="44.89222575475391" lon="8.798836677210756"><ele>116.0</ele><time>2026-04-28T06:58:59.999Z</time></trkpt><trkpt lat="44.8922065036955" lon="8.798602806166747"><ele>116.0</ele><time>2026-04-28T06:59:00.999Z</time></trkpt><trkpt lat="44.892190272682804" lon="8.798364124106055"><ele>116.0</ele><time>2026-04-28T06:59:01.999Z</time></trkpt><trkpt lat="44.892175214796744" lon="8.7981233552139"><ele>115.66666666666666</ele><time>2026-04-28T06:59:02.999Z</time></trkpt><trkpt lat="44.89215737353596" lon="8.797880989384755"><ele>115.33333333333334</ele><time>2026-04-28T06:59:03.999Z</time></trkpt><trkpt lat="44.892142055554274" lon="8.797626276295222"><ele>115.0</ele><time>2026-04-28T06:59:04.999Z</time></trkpt><trkpt lat="44.89212406556842" lon="8.797376999200242"><ele>115.0</ele><time>2026-04-28T06:59:05.999Z</time></trkpt><trkpt lat="44.89210680253652" lon="8.797131494604868"><ele>115.0</ele><time>2026-04-28T06:59:06.999Z</time></trkpt><trkpt lat="44.89208128971051" lon="8.796869745567628"><ele>115.0</ele><time>2026-04-28T06:59:07.999Z</time></trkpt><trkpt lat="44.89205696525103" lon="8.796617202932412"><ele>114.33333333333334</ele><time>2026-04-28T06:59:08.999Z</time></trkpt><trkpt lat="44.89203180307252" lon="8.79635000586149"><ele>113.66666666666666</ele><time>2026-04-28T06:59:09.999Z</time></trkpt><trkpt lat="44.89200992049426" lon="8.796089251853914"><ele>113.0</ele><time>2026-04-28T06:59:10.999Z</time></trkpt><trkpt lat="44.89198918697642" lon="8.795830196309604"><ele>113.0</ele><time>2026-04-28T06:59:11.999Z</time></trkpt><trkpt lat="44.891965601736516" lon="8.795555456205587"><ele>113.0</ele><time>2026-04-28T06:59:12.999Z</time></trkpt><trkpt lat="44.89194363734827" lon="8.795289567711876"><ele>113.0</ele><time>2026-04-28T06:59:13.999Z</time></trkpt><trkpt lat="44.8919202539092" lon="8.795020144441288"><ele>113.33333333333333</ele><time>2026-04-28T06:59:14.999Z</time></trkpt><trkpt lat="44.891899242381285" lon="8.794756745413325"><ele>113.66666666666666</ele><time>2026-04-28T06:59:15.999Z</time></trkpt><trkpt lat="44.89187766211334" lon="8.794488007806786"><ele>114.0</ele><time>2026-04-28T06:59:16.999Z</time></trkpt><trkpt lat="44.89185935148661" lon="8.79422282037142"><ele>114.0</ele><time>2026-04-28T06:59:17.999Z</time></trkpt><trkpt lat="44.891837530008225" lon="8.793964329368487"><ele>114.0</ele><time>2026-04-28T06:59:18.999Z</time></trkpt><trkpt lat="44.89181649950479" lon="8.793721904439073"><ele>114.0</ele><time>2026-04-28T06:59:19.999Z</time></trkpt><trkpt lat="44.891805899727224" lon="8.793479537965727"><ele>114.0</ele><time>2026-04-28T06:59:20.999Z</time></trkpt><trkpt lat="44.89178423686015" lon="8.79325022364026"><ele>114.0</ele><time>2026-04-28T06:59:21.999Z</time></trkpt><trkpt lat="44.89176185674694" lon="8.793028138762594"><ele>114.0</ele><time>2026-04-28T06:59:22.999Z</time></trkpt><trkpt lat="44.89173988883896" lon="8.792814651217483"><ele>114.0</ele><time>2026-04-28T06:59:23.999Z</time></trkpt><trkpt lat="44.891719266148385" lon="8.79260582684675"><ele>114.0</ele><time>2026-04-28T06:59:24.999Z</time></trkpt><trkpt lat="44.891701078815785" lon="8.792403115877828"><ele>114.0</ele><time>2026-04-28T06:59:25.999Z</time></trkpt><trkpt lat="44.89168305621843" lon="8.792202833083582"><ele>114.0</ele><time>2026-04-28T06:59:26.999Z</time></trkpt><trkpt lat="44.891664535923965" lon="8.791998353428415"><ele>113.5</ele><time>2026-04-28T06:59:27.999Z</time></trkpt><trkpt lat="44.89164341165681" lon="8.791800029599758"><ele>113.0</ele><time>2026-04-28T06:59:28.999Z</time></trkpt><trkpt lat="44.89162436920826" lon="8.791594849567144"><ele>112.5</ele><time>2026-04-28T06:59:29.999Z</time></trkpt><trkpt lat="44.89160700645361" lon="8.79138849935138"><ele>112.0</ele><time>2026-04-28T06:59:30.999Z</time></trkpt><trkpt lat="44.89158359426526" lon="8.791174220091158"><ele>112.33333333333334</ele><time>2026-04-28T06:59:31.999Z</time></trkpt><trkpt lat="44.89156453303708" lon="8.790959481023119"><ele>112.66666666666666</ele><time>2026-04-28T06:59:32.999Z</time></trkpt><trkpt lat="44.89154520518623" lon="8.790742007749845"><ele>113.0</ele><time>2026-04-28T06:59:33.999Z</time></trkpt><trkpt lat="44.89152514526655" lon="8.790514075123825"><ele>113.0</ele><time>2026-04-28T06:59:34.999Z</time></trkpt><trkpt lat="44.891502227500325" lon="8.790280355752035"><ele>113.0</ele><time>2026-04-28T06:59:35.999Z</time></trkpt><trkpt lat="44.891486425614524" lon="8.790053627967337"><ele>113.0</ele><time>2026-04-28T06:59:36.999Z</time></trkpt><trkpt lat="44.89146550832934" lon="8.789825386289136"><ele>113.0</ele><time>2026-04-28T06:59:37.999Z</time></trkpt><trkpt lat="44.89144954831214" lon="8.789591834265352"><ele>113.0</ele><time>2026-04-28T06:59:38.999Z</time></trkpt><trkpt lat="44.89142916532385" lon="8.789354710275013"><ele>113.0</ele><time>2026-04-28T06:59:39.999Z</time></trkpt><trkpt lat="44.8914059097975" lon="8.789113501517603"><ele>113.0</ele><time>2026-04-28T06:59:40.999Z</time></trkpt><trkpt lat="44.89138456105192" lon="8.788870363569517"><ele>113.0</ele><time>2026-04-28T06:59:41.999Z</time></trkpt><trkpt lat="44.891363399961605" lon="8.78863205708664"><ele>113.0</ele><time>2026-04-28T06:59:42.999Z</time></trkpt><trkpt lat="44.891341768550085" lon="8.788402552044943"><ele>113.0</ele><time>2026-04-28T06:59:43.999Z</time></trkpt><trkpt lat="44.89132446889179" lon="8.788180617796904"><ele>113.0</ele><time>2026-04-28T06:59:44.999Z</time></trkpt><trkpt lat="44.891305704694425" lon="8.78795268531142"><ele>113.0</ele><time>2026-04-28T06:59:45.999Z</time></trkpt><trkpt lat="44.89128680649187" lon="8.787736056176625"><ele>113.0</ele><time>2026-04-28T06:59:46.999Z</time></trkpt><trkpt lat="44.89126863655499" lon="8.787550876014013"><ele>113.0</ele><time>2026-04-28T06:59:47.999Z</time></trkpt><trkpt lat="44.89124771149572" lon="8.787360767655935"><ele>113.0</ele><time>2026-04-28T06:59:48.999Z</time></trkpt><trkpt lat="44.891223961664785" lon="8.787177110340942"><ele>113.0</ele><time>2026-04-28T06:59:49.999Z</time></trkpt><trkpt lat="44.89120195227873" lon="8.786995688283163"><ele>113.0</ele><time>2026-04-28T06:59:50.999Z</time></trkpt><trkpt lat="44.89118665957811" lon="8.786824921686376"><ele>113.0</ele><time>2026-04-28T06:59:51.999Z</time></trkpt><trkpt lat="44.89117104708065" lon="8.786650591726294"><ele>113.0</ele><time>2026-04-28T06:59:52.999Z</time></trkpt><trkpt lat="44.89115283275948" lon="8.786471368523713"><ele>113.0</ele><time>2026-04-28T06:59:53.999Z</time></trkpt><trkpt lat="44.891133798193124" lon="8.786279172828351"><ele>113.0</ele><time>2026-04-28T06:59:54.999Z</time></trkpt><trkpt lat="44.89111074120199" lon="8.786082980469601"><ele>113.0</ele><time>2026-04-28T06:59:55.999Z</time></trkpt><trkpt lat="44.89109061697609" lon="8.785881820080329"><ele>113.0</ele><time>2026-04-28T06:59:56.999Z</time></trkpt><trkpt lat="44.89107148382092" lon="8.785666927590317"><ele>113.0</ele><time>2026-04-28T06:59:57.999Z</time></trkpt><trkpt lat="44.89104729736948" lon="8.78545697120123"><ele>113.33333333333333</ele><time>2026-04-28T06:59:58.999Z</time></trkpt><trkpt lat="44.89102334503278" lon="8.785240351683713"><ele>113.66666666666666</ele><time>2026-04-28T06:59:59.999Z</time></trkpt><trkpt lat="44.89100154456493" lon="8.785019593355054"><ele>114.0</ele><time>2026-04-28T07:00:00.999Z</time></trkpt><trkpt lat="44.89098346128271" lon="8.784808697806605"><ele>114.0</ele><time>2026-04-28T07:00:01.999Z</time></trkpt><trkpt lat="44.8909638192621" lon="8.784599710009434"><ele>114.0</ele><time>2026-04-28T07:00:03Z</time></trkpt><trkpt lat="44.89094076746939" lon="8.784395513680652"><ele>114.0</ele><time>2026-04-28T07:00:04Z</time></trkpt><trkpt lat="44.890918444226905" lon="8.784179550050732"><ele>113.66666666666666</ele><time>2026-04-28T07:00:05Z</time></trkpt><trkpt lat="44.89089237060267" lon="8.783966204212135"><ele>113.33333333333333</ele><time>2026-04-28T07:00:06Z</time></trkpt><trkpt lat="44.8908685434581" lon="8.783742601380775"><ele>113.0</ele><time>2026-04-28T07:00:07Z</time></trkpt><trkpt lat="44.89084817467748" lon="8.783522299528185"><ele>113.0</ele><time>2026-04-28T07:00:08Z</time></trkpt><trkpt lat="44.89083030722476" lon="8.783298843242521"><ele>113.0</ele><time>2026-04-28T07:00:09Z</time></trkpt><trkpt lat="44.89081145503266" lon="8.783067805089148"><ele>113.0</ele><time>2026-04-28T07:00:10Z</time></trkpt><trkpt lat="44.89079155186451" lon="8.782848931621862"><ele>112.75</ele><time>2026-04-28T07:00:11Z</time></trkpt><trkpt lat="44.89077004144052" lon="8.782639626290733"><ele>112.5</ele><time>2026-04-28T07:00:12Z</time></trkpt><trkpt lat="44.890750488259556" lon="8.7824460880198"><ele>112.25</ele><time>2026-04-28T07:00:13Z</time></trkpt><trkpt lat="44.890731618511516" lon="8.782251424285764"><ele>112.0</ele><time>2026-04-28T07:00:14Z</time></trkpt><trkpt lat="44.89070685481031" lon="8.78204780055295"><ele>112.33333333333334</ele><time>2026-04-28T07:00:15Z</time></trkpt><trkpt lat="44.890685962413315" lon="8.781834258566793"><ele>112.66666666666666</ele><time>2026-04-28T07:00:16Z</time></trkpt><trkpt lat="44.89066657927682" lon="8.781618282019512"><ele>113.0</ele><time>2026-04-28T07:00:17Z</time></trkpt><trkpt lat="44.89064525066826" lon="8.78140104528287"><ele>113.0</ele><time>2026-04-28T07:00:18Z</time></trkpt><trkpt lat="44.890623239829196" lon="8.781179830685845"><ele>113.0</ele><time>2026-04-28T07:00:19Z</time></trkpt><trkpt lat="44.89060074113831" lon="8.780967853384425"><ele>113.0</ele><time>2026-04-28T07:00:20Z</time></trkpt><trkpt lat="44.89058186333228" lon="8.780763143462186"><ele>113.25</ele><time>2026-04-28T07:00:21Z</time></trkpt><trkpt lat="44.89056660723771" lon="8.780569412810468"><ele>113.5</ele><time>2026-04-28T07:00:22Z</time></trkpt><trkpt lat="44.89054542452005" lon="8.780372415829218"><ele>113.75</ele><time>2026-04-28T07:00:23Z</time></trkpt><trkpt lat="44.890525923969705" lon="8.780179199729762"><ele>114.0</ele><time>2026-04-28T07:00:24Z</time></trkpt><trkpt lat="44.890507671199295" lon="8.7799782870157"><ele>113.75</ele><time>2026-04-28T07:00:25Z</time></trkpt><trkpt lat="44.89048631743525" lon="8.779776018477568"><ele>113.5</ele><time>2026-04-28T07:00:26Z</time></trkpt><trkpt lat="44.890468005961324" lon="8.779566830369548"><ele>113.25</ele><time>2026-04-28T07:00:27Z</time></trkpt><trkpt lat="44.89044861950502" lon="8.779361762305195"><ele>113.0</ele><time>2026-04-28T07:00:28Z</time></trkpt><trkpt lat="44.89042565691891" lon="8.779154591086291"><ele>113.0</ele><time>2026-04-28T07:00:29Z</time></trkpt><trkpt lat="44.890399982900455" lon="8.778946383472132"><ele>113.0</ele><time>2026-04-28T07:00:30Z</time></trkpt><trkpt lat="44.89037738307336" lon="8.77873431145719"><ele>113.0</ele><time>2026-04-28T07:00:31Z</time></trkpt><trkpt lat="44.890355193860124" lon="8.778515563619964"><ele>113.0</ele><time>2026-04-28T07:00:32Z</time></trkpt><trkpt lat="44.890334307343316" lon="8.778301247693586"><ele>113.0</ele><time>2026-04-28T07:00:33Z</time></trkpt><trkpt lat="44.89031238241035" lon="8.778091292483383"><ele>113.0</ele><time>2026-04-28T07:00:34Z</time></trkpt><trkpt lat="44.890288078389474" lon="8.777871567808077"><ele>113.0</ele><time>2026-04-28T07:00:35Z</time></trkpt><trkpt lat="44.89026173898456" lon="8.77764642675783"><ele>113.0</ele><time>2026-04-28T07:00:36Z</time></trkpt><trkpt lat="44.89023662760394" lon="8.777412533670802"><ele>113.0</ele><time>2026-04-28T07:00:37Z</time></trkpt><trkpt lat="44.89021262523166" lon="8.777186338538408"><ele>113.0</ele><time>2026-04-28T07:00:38Z</time></trkpt><trkpt lat="44.8901898747057" lon="8.776957196519891"><ele>113.0</ele><time>2026-04-28T07:00:39Z</time></trkpt><trkpt lat="44.89016822794017" lon="8.776736873388174"><ele>113.0</ele><time>2026-04-28T07:00:40Z</time></trkpt><trkpt lat="44.89014573777987" lon="8.77652745423059"><ele>112.75</ele><time>2026-04-28T07:00:41Z</time></trkpt><trkpt lat="44.89012402167835" lon="8.776341450503804"><ele>112.5</ele><time>2026-04-28T07:00:42Z</time></trkpt><trkpt lat="44.89010027512142" lon="8.77614863526212"><ele>112.25</ele><time>2026-04-28T07:00:43Z</time></trkpt><trkpt lat="44.89008340683416" lon="8.775961657623437"><ele>112.0</ele><time>2026-04-28T07:00:44Z</time></trkpt><trkpt lat="44.89006867460106" lon="8.775783049498527"><ele>112.0</ele><time>2026-04-28T07:00:45Z</time></trkpt><trkpt lat="44.89005038593083" lon="8.77559557002417"><ele>112.0</ele><time>2026-04-28T07:00:46Z</time></trkpt><trkpt lat="44.8900355413652" lon="8.775399294014107"><ele>112.0</ele><time>2026-04-28T07:00:47Z</time></trkpt><trkpt lat="44.890018777062444" lon="8.775215354863215"><ele>112.0</ele><time>2026-04-28T07:00:47.999Z</time></trkpt><trkpt lat="44.89000336978657" lon="8.775042449210945"><ele>112.0</ele><time>2026-04-28T07:00:48.999Z</time></trkpt><trkpt lat="44.88998733324943" lon="8.77487024567554"><ele>112.0</ele><time>2026-04-28T07:00:49.999Z</time></trkpt><trkpt lat="44.889966542837996" lon="8.774694956167432"><ele>112.0</ele><time>2026-04-28T07:00:50.999Z</time></trkpt><trkpt lat="44.88994709384289" lon="8.774508588018444"><ele>112.0</ele><time>2026-04-28T07:00:51.999Z</time></trkpt><trkpt lat="44.88993001006887" lon="8.774331685720636"><ele>112.5</ele><time>2026-04-28T07:00:52.999Z</time></trkpt><trkpt lat="44.88991437108968" lon="8.77415248614617"><ele>113.0</ele><time>2026-04-28T07:00:53.999Z</time></trkpt><trkpt lat="44.8898980754634" lon="8.773962234150861"><ele>113.5</ele><time>2026-04-28T07:00:54.999Z</time></trkpt><trkpt lat="44.889882945316195" lon="8.773770323789888"><ele>114.0</ele><time>2026-04-28T07:00:55.999Z</time></trkpt><trkpt lat="44.88986540651955" lon="8.773602656865974"><ele>114.0</ele><time>2026-04-28T07:00:56.999Z</time></trkpt><trkpt lat="44.88984733941647" lon="8.77341540721392"><ele>114.0</ele><time>2026-04-28T07:00:57.999Z</time></trkpt><trkpt lat="44.889825536111275" lon="8.773224560355919"><ele>114.0</ele><time>2026-04-28T07:00:58.999Z</time></trkpt><trkpt lat="44.88980371585784" lon="8.773024139122876"><ele>114.0</ele><time>2026-04-28T07:00:59.999Z</time></trkpt><trkpt lat="44.8897871949167" lon="8.772817035602605"><ele>114.25</ele><time>2026-04-28T07:01:00.999Z</time></trkpt><trkpt lat="44.88977752509884" lon="8.772619276775547"><ele>114.5</ele><time>2026-04-28T07:01:01.999Z</time></trkpt><trkpt lat="44.88975707908147" lon="8.7724343464197"><ele>114.75</ele><time>2026-04-28T07:01:02.999Z</time></trkpt><trkpt lat="44.88975321919131" lon="8.772246733697743"><ele>115.0</ele><time>2026-04-28T07:01:03.999Z</time></trkpt><trkpt lat="44.88974100616508" lon="8.772057115686488"><ele>115.0</ele><time>2026-04-28T07:01:04.999Z</time></trkpt><trkpt lat="44.889727304768776" lon="8.771864753234807"><ele>115.0</ele><time>2026-04-28T07:01:05.999Z</time></trkpt><trkpt lat="44.88971225786924" lon="8.771679993778926"><ele>115.0</ele><time>2026-04-28T07:01:06.999Z</time></trkpt><trkpt lat="44.88969764385463" lon="8.771489912312713"><ele>115.0</ele><time>2026-04-28T07:01:07.999Z</time></trkpt><trkpt lat="44.88968333978674" lon="8.77129700192497"><ele>114.75</ele><time>2026-04-28T07:01:08.999Z</time></trkpt><trkpt lat="44.889669715415494" lon="8.771128816015858"><ele>114.5</ele><time>2026-04-28T07:01:09.999Z</time></trkpt><trkpt lat="44.889656497836015" lon="8.770956146154692"><ele>114.25</ele><time>2026-04-28T07:01:10.999Z</time></trkpt><trkpt lat="44.889639021764744" lon="8.770775371356"><ele>114.0</ele><time>2026-04-28T07:01:11.999Z</time></trkpt><trkpt lat="44.88962848760111" lon="8.770595878959815"><ele>113.75</ele><time>2026-04-28T07:01:12.999Z</time></trkpt><trkpt lat="44.8896172972205" lon="8.77040517778207"><ele>113.5</ele><time>2026-04-28T07:01:13.999Z</time></trkpt><trkpt lat="44.88960250201128" lon="8.770204702541731"><ele>113.25</ele><time>2026-04-28T07:01:14.999Z</time></trkpt><trkpt lat="44.88958816218456" lon="8.770018280223983"><ele>113.0</ele><time>2026-04-28T07:01:15.999Z</time></trkpt><trkpt lat="44.88957066659044" lon="8.769817917219537"><ele>113.0</ele><time>2026-04-28T07:01:16.999Z</time></trkpt><trkpt lat="44.88955916574262" lon="8.769621454525556"><ele>113.0</ele><time>2026-04-28T07:01:17.999Z</time></trkpt><trkpt lat="44.88954468336889" lon="8.769423911433678"><ele>113.0</ele><time>2026-04-28T07:01:18.999Z</time></trkpt><trkpt lat="44.889526475842025" lon="8.769225142980908"><ele>113.0</ele><time>2026-04-28T07:01:19.999Z</time></trkpt><trkpt lat="44.889510668021906" lon="8.769028712552709"><ele>112.75</ele><time>2026-04-28T07:01:20.999Z</time></trkpt><trkpt lat="44.889496081170726" lon="8.768834657862243"><ele>112.5</ele><time>2026-04-28T07:01:21.999Z</time></trkpt><trkpt lat="44.88948012890075" lon="8.768632224925634"><ele>112.25</ele><time>2026-04-28T07:01:22.999Z</time></trkpt><trkpt lat="44.88946314357314" lon="8.768432427803246"><ele>112.0</ele><time>2026-04-28T07:01:23.999Z</time></trkpt><trkpt lat="44.88944796702108" lon="8.768240016430761"><ele>112.0</ele><time>2026-04-28T07:01:24.999Z</time></trkpt><trkpt lat="44.88943002559757" lon="8.76807258173678"><ele>112.0</ele><time>2026-04-28T07:01:25.999Z</time></trkpt><trkpt lat="44.889428189516764" lon="8.767905954291926"><ele>112.0</ele><time>2026-04-28T07:01:26.999Z</time></trkpt><trkpt lat="44.88941637281499" lon="8.767729599188753"><ele>112.0</ele><time>2026-04-28T07:01:27.999Z</time></trkpt><trkpt lat="44.889407715382006" lon="8.767586324647404"><ele>112.0</ele><time>2026-04-28T07:01:28.999Z</time></trkpt><trkpt lat="44.88939805642973" lon="8.76743082634794"><ele>112.0</ele><time>2026-04-28T07:01:29.999Z</time></trkpt><trkpt lat="44.889388459850785" lon="8.767277647566068"><ele>112.0</ele><time>2026-04-28T07:01:30.999Z</time></trkpt><trkpt lat="44.88937283208153" lon="8.76708784459661"><ele>112.0</ele><time>2026-04-28T07:01:31.999Z</time></trkpt><trkpt lat="44.889353702334525" lon="8.76688147594052"><ele>112.25</ele><time>2026-04-28T07:01:32.999Z</time></trkpt><trkpt lat="44.88933617495092" lon="8.766691117019375"><ele>112.5</ele><time>2026-04-28T07:01:33.999Z</time></trkpt><trkpt lat="44.889320985910324" lon="8.76652122025283"><ele>112.75</ele><time>2026-04-28T07:01:34.999Z</time></trkpt><trkpt lat="44.889311313957414" lon="8.766354576307707"><ele>113.0</ele><time>2026-04-28T07:01:35.999Z</time></trkpt><trkpt lat="44.88930028791178" lon="8.766197067865322"><ele>113.0</ele><time>2026-04-28T07:01:36.999Z</time></trkpt><trkpt lat="44.889290876393815" lon="8.766040975888455"><ele>113.00000000000001</ele><time>2026-04-28T07:01:37.999Z</time></trkpt><trkpt lat="44.88927776100566" lon="8.765896934886028"><ele>113.00000000000001</ele><time>2026-04-28T07:01:38.999Z</time></trkpt><trkpt lat="44.88926615228646" lon="8.76573880885578"><ele>113.0</ele><time>2026-04-28T07:01:39.999Z</time></trkpt><trkpt lat="44.889253392045184" lon="8.765586575561308"><ele>113.0</ele><time>2026-04-28T07:01:40.999Z</time></trkpt><trkpt lat="44.88924608745322" lon="8.765441565037221"><ele>113.2</ele><time>2026-04-28T07:01:41.999Z</time></trkpt><trkpt lat="44.889234950164706" lon="8.7652878079787"><ele>113.4</ele><time>2026-04-28T07:01:42.999Z</time></trkpt><trkpt lat="44.88922088514261" lon="8.765141257575157"><ele>113.60000000000001</ele><time>2026-04-28T07:01:43.999Z</time></trkpt><trkpt lat="44.88920769285977" lon="8.764978975499979"><ele>113.80000000000001</ele><time>2026-04-28T07:01:44.999Z</time></trkpt><trkpt lat="44.88919310853743" lon="8.764814931780332"><ele>114.0</ele><time>2026-04-28T07:01:45.999Z</time></trkpt><trkpt lat="44.88917955550654" lon="8.764654707219384"><ele>114.0</ele><time>2026-04-28T07:01:46.999Z</time></trkpt><trkpt lat="44.889169150348756" lon="8.764500614355132"><ele>114.0</ele><time>2026-04-28T07:01:47.999Z</time></trkpt><trkpt lat="44.889153223920324" lon="8.7643339644226"><ele>114.0</ele><time>2026-04-28T07:01:48.999Z</time></trkpt><trkpt lat="44.88914093594962" lon="8.764169737417875"><ele>114.0</ele><time>2026-04-28T07:01:49.999Z</time></trkpt><trkpt lat="44.88912910347596" lon="8.764019085226108"><ele>114.2</ele><time>2026-04-28T07:01:50.999Z</time></trkpt><trkpt lat="44.8891176894226" lon="8.763877043499141"><ele>114.4</ele><time>2026-04-28T07:01:51.999Z</time></trkpt><trkpt lat="44.88910777777153" lon="8.763742722916506"><ele>114.6</ele><time>2026-04-28T07:01:52.999Z</time></trkpt><trkpt lat="44.889096463572464" lon="8.763601403931542"><ele>114.8</ele><time>2026-04-28T07:01:53.999Z</time></trkpt><trkpt lat="44.88908307939731" lon="8.763439476936114"><ele>115.0</ele><time>2026-04-28T07:01:54.999Z</time></trkpt><trkpt lat="44.88906282353829" lon="8.763272865358633"><ele>115.0</ele><time>2026-04-28T07:01:55.999Z</time></trkpt><trkpt lat="44.88904123144527" lon="8.763076050430506"><ele>115.0</ele><time>2026-04-28T07:01:56.999Z</time></trkpt><trkpt lat="44.8890297575972" lon="8.762876118127314"><ele>115.0</ele><time>2026-04-28T07:01:57.999Z</time></trkpt><trkpt lat="44.88902637199794" lon="8.762709931625558"><ele>115.0</ele><time>2026-04-28T07:01:58.999Z</time></trkpt><trkpt lat="44.889020630051775" lon="8.762552128671974"><ele>114.83333333333334</ele><time>2026-04-28T07:01:59.999Z</time></trkpt><trkpt lat="44.88901355351586" lon="8.762409956846216"><ele>114.66666666666667</ele><time>2026-04-28T07:02:00.999Z</time></trkpt><trkpt lat="44.8890043307034" lon="8.762302827430931"><ele>114.5</ele><time>2026-04-28T07:02:01.999Z</time></trkpt><trkpt lat="44.88899776229089" lon="8.762200531472974"><ele>114.33333333333334</ele><time>2026-04-28T07:02:02.999Z</time></trkpt><trkpt lat="44.88898564988536" lon="8.76210655165347"><ele>114.16666666666667</ele><time>2026-04-28T07:02:03.999Z</time></trkpt><trkpt lat="44.88898564697857" lon="8.761929765193365"><ele>114.0</ele><time>2026-04-28T07:02:05.998Z</time></trkpt><trkpt lat="44.888970687250044" lon="8.761814820747123"><ele>114.0</ele><time>2026-04-28T07:02:06.998Z</time></trkpt><trkpt lat="44.888954443018" lon="8.761670705715645"><ele>114.0</ele><time>2026-04-28T07:02:07.998Z</time></trkpt><trkpt lat="44.888946477244836" lon="8.761553867791642"><ele>114.0</ele><time>2026-04-28T07:02:09Z</time></trkpt><trkpt lat="44.88895007477287" lon="8.761431944548832"><ele>114.0</ele><time>2026-04-28T07:02:10Z</time></trkpt><trkpt lat="44.88894490777701" lon="8.761337979435085"><ele>114.0</ele><time>2026-04-28T07:02:11Z</time></trkpt><trkpt lat="44.8889387199683" lon="8.761233357908988"><ele>114.0</ele><time>2026-04-28T07:02:12Z</time></trkpt><trkpt lat="44.88893104085332" lon="8.761113340642567"><ele>114.33333333333333</ele><time>2026-04-28T07:02:13Z</time></trkpt><trkpt lat="44.88892260502878" lon="8.76100262719612"><ele>114.66666666666666</ele><time>2026-04-28T07:02:14Z</time></trkpt><trkpt lat="44.88891487140319" lon="8.760894064270929"><ele>115.0</ele><time>2026-04-28T07:02:15Z</time></trkpt><trkpt lat="44.888899176052895" lon="8.760780680170937"><ele>115.33333333333333</ele><time>2026-04-28T07:02:16Z</time></trkpt><trkpt lat="44.888889657926846" lon="8.760658171409986"><ele>115.66666666666666</ele><time>2026-04-28T07:02:17Z</time></trkpt><trkpt lat="44.888881945705634" lon="8.7605226798001"><ele>116.0</ele><time>2026-04-28T07:02:18Z</time></trkpt><trkpt lat="44.88886606729723" lon="8.760379336227459"><ele>116.0</ele><time>2026-04-28T07:02:19Z</time></trkpt><trkpt lat="44.888852131859444" lon="8.760221121752071"><ele>116.0</ele><time>2026-04-28T07:02:20Z</time></trkpt><trkpt lat="44.88883605889263" lon="8.760063526318225"><ele>116.0</ele><time>2026-04-28T07:02:21Z</time></trkpt><trkpt lat="44.88882086392002" lon="8.759915846736183"><ele>116.0</ele><time>2026-04-28T07:02:22Z</time></trkpt><trkpt lat="44.88881009999251" lon="8.759784283884247"><ele>116.0</ele><time>2026-04-28T07:02:23Z</time></trkpt><trkpt lat="44.888800212334814" lon="8.759670110865793"><ele>115.8</ele><time>2026-04-28T07:02:24Z</time></trkpt><trkpt lat="44.88879781509077" lon="8.759522232867058"><ele>115.6</ele><time>2026-04-28T07:02:25Z</time></trkpt><trkpt lat="44.88878639114049" lon="8.759385944958165"><ele>115.4</ele><time>2026-04-28T07:02:26Z</time></trkpt><trkpt lat="44.88877753616874" lon="8.759247839557723"><ele>115.2</ele><time>2026-04-28T07:02:27Z</time></trkpt><trkpt lat="44.88876779863667" lon="8.759094058192746"><ele>115.0</ele><time>2026-04-28T07:02:28Z</time></trkpt><trkpt lat="44.888748011903665" lon="8.758906005104725"><ele>114.5</ele><time>2026-04-28T07:02:29Z</time></trkpt><trkpt lat="44.888732880816214" lon="8.758734682311077"><ele>114.0</ele><time>2026-04-28T07:02:30Z</time></trkpt><trkpt lat="44.888720074033166" lon="8.75854466565309"><ele>113.5</ele><time>2026-04-28T07:02:31Z</time></trkpt><trkpt lat="44.88870408415333" lon="8.758363013475352"><ele>113.0</ele><time>2026-04-28T07:02:32Z</time></trkpt><trkpt lat="44.88868669168196" lon="8.758186453338356"><ele>112.5</ele><time>2026-04-28T07:02:33Z</time></trkpt><trkpt lat="44.88867339340065" lon="8.758012571941878"><ele>112.0</ele><time>2026-04-28T07:02:34Z</time></trkpt><trkpt lat="44.88866131567977" lon="8.757850996501285"><ele>111.5</ele><time>2026-04-28T07:02:35Z</time></trkpt><trkpt lat="44.88865262131383" lon="8.757704851473473"><ele>111.0</ele><time>2026-04-28T07:02:36Z</time></trkpt><trkpt lat="44.888641570228074" lon="8.757528662293437"><ele>111.0</ele><time>2026-04-28T07:02:37Z</time></trkpt><trkpt lat="44.88861779877487" lon="8.757329591365732"><ele>111.0</ele><time>2026-04-28T07:02:38Z</time></trkpt><trkpt lat="44.88860332569857" lon="8.75715110968066"><ele>111.0</ele><time>2026-04-28T07:02:39Z</time></trkpt><trkpt lat="44.88858676969086" lon="8.756979700561153"><ele>111.0</ele><time>2026-04-28T07:02:40Z</time></trkpt><trkpt lat="44.888573416182204" lon="8.75682398252069"><ele>111.0</ele><time>2026-04-28T07:02:41Z</time></trkpt><trkpt lat="44.888561959009415" lon="8.756675063239577"><ele>111.0</ele><time>2026-04-28T07:02:42Z</time></trkpt><trkpt lat="44.88854837032292" lon="8.756528971195461"><ele>111.0</ele><time>2026-04-28T07:02:43Z</time></trkpt><trkpt lat="44.88853317182727" lon="8.756385963672223"><ele>111.0</ele><time>2026-04-28T07:02:44Z</time></trkpt><trkpt lat="44.88852060215819" lon="8.75621657882542"><ele>111.0</ele><time>2026-04-28T07:02:45Z</time></trkpt><trkpt lat="44.88850601830122" lon="8.756039824886766"><ele>110.75</ele><time>2026-04-28T07:02:46Z</time></trkpt><trkpt lat="44.888491314825046" lon="8.75585544136542"><ele>110.5</ele><time>2026-04-28T07:02:47Z</time></trkpt><trkpt lat="44.888473900540575" lon="8.75566097185587"><ele>110.25</ele><time>2026-04-28T07:02:48Z</time></trkpt><trkpt lat="44.888453207363945" lon="8.755475314740098"><ele>110.0</ele><time>2026-04-28T07:02:49Z</time></trkpt><trkpt lat="44.88843647723704" lon="8.755288586271343"><ele>110.5</ele><time>2026-04-28T07:02:50Z</time></trkpt><trkpt lat="44.888412516969936" lon="8.755093852911102"><ele>111.0</ele><time>2026-04-28T07:02:51Z</time></trkpt><trkpt lat="44.88839213935081" lon="8.754894610918111"><ele>111.5</ele><time>2026-04-28T07:02:52Z</time></trkpt><trkpt lat="44.88837451774775" lon="8.754709933625504"><ele>112.0</ele><time>2026-04-28T07:02:53Z</time></trkpt><trkpt lat="44.888357025817264" lon="8.754529450691434"><ele>112.0</ele><time>2026-04-28T07:02:54Z</time></trkpt><trkpt lat="44.888338564770194" lon="8.754364102355527"><ele>112.0</ele><time>2026-04-28T07:02:55Z</time></trkpt><trkpt lat="44.8883199437413" lon="8.754185595597681"><ele>112.0</ele><time>2026-04-28T07:02:56Z</time></trkpt><trkpt lat="44.88829878743173" lon="8.753998073507336"><ele>112.0</ele><time>2026-04-28T07:02:57Z</time></trkpt><trkpt lat="44.888283896414066" lon="8.753800248354722"><ele>112.0</ele><time>2026-04-28T07:02:57.999Z</time></trkpt><trkpt lat="44.8882628108849" lon="8.75359821735038"><ele>112.0</ele><time>2026-04-28T07:02:58.999Z</time></trkpt><trkpt lat="44.88824122939416" lon="8.75340527418271"><ele>112.0</ele><time>2026-04-28T07:02:59.999Z</time></trkpt><trkpt lat="44.88822220525313" lon="8.753210807717338"><ele>112.0</ele><time>2026-04-28T07:03:00.999Z</time></trkpt><trkpt lat="44.88820776227853" lon="8.753008232006794"><ele>112.0</ele><time>2026-04-28T07:03:01.999Z</time></trkpt><trkpt lat="44.88819012761678" lon="8.752807091618992"><ele>112.0</ele><time>2026-04-28T07:03:02.999Z</time></trkpt><trkpt lat="44.88817071161556" lon="8.752603645279127"><ele>112.0</ele><time>2026-04-28T07:03:03.999Z</time></trkpt><trkpt lat="44.88814689063139" lon="8.75240945039145"><ele>112.0</ele><time>2026-04-28T07:03:04.999Z</time></trkpt><trkpt lat="44.88813091901745" lon="8.752201594640855"><ele>111.75</ele><time>2026-04-28T07:03:05.999Z</time></trkpt><trkpt lat="44.88811279762479" lon="8.751997655254627"><ele>111.5</ele><time>2026-04-28T07:03:06.999Z</time></trkpt><trkpt lat="44.888093044164506" lon="8.751796266937365"><ele>111.25</ele><time>2026-04-28T07:03:07.999Z</time></trkpt><trkpt lat="44.88807210810636" lon="8.751582903505959"><ele>111.0</ele><time>2026-04-28T07:03:08.999Z</time></trkpt><trkpt lat="44.88805285064852" lon="8.751375930187189"><ele>110.5</ele><time>2026-04-28T07:03:09.999Z</time></trkpt><trkpt lat="44.888035819188524" lon="8.751169603085241"><ele>110.0</ele><time>2026-04-28T07:03:10.999Z</time></trkpt><trkpt lat="44.88801119506417" lon="8.750957906292664"><ele>109.5</ele><time>2026-04-28T07:03:11.999Z</time></trkpt><trkpt lat="44.88798927210804" lon="8.750749508580995"><ele>109.0</ele><time>2026-04-28T07:03:12.999Z</time></trkpt><trkpt lat="44.887969936602545" lon="8.750538364397869"><ele>109.0</ele><time>2026-04-28T07:03:13.999Z</time></trkpt><trkpt lat="44.88794826161611" lon="8.750328464667518"><ele>109.0</ele><time>2026-04-28T07:03:14.999Z</time></trkpt><trkpt lat="44.88793057078702" lon="8.750129303606645"><ele>109.0</ele><time>2026-04-28T07:03:15.999Z</time></trkpt><trkpt lat="44.88791373304468" lon="8.7499365342723"><ele>109.0</ele><time>2026-04-28T07:03:16.999Z</time></trkpt><trkpt lat="44.88790015325286" lon="8.749747406893889"><ele>109.0</ele><time>2026-04-28T07:03:17.999Z</time></trkpt><trkpt lat="44.887881506921914" lon="8.749553175565968"><ele>109.0</ele><time>2026-04-28T07:03:18.999Z</time></trkpt><trkpt lat="44.887866186834934" lon="8.749375176942905"><ele>109.0</ele><time>2026-04-28T07:03:19.999Z</time></trkpt><trkpt lat="44.887848999062214" lon="8.749199763048678"><ele>109.0</ele><time>2026-04-28T07:03:20.999Z</time></trkpt><trkpt lat="44.8878294211102" lon="8.749014727740889"><ele>109.0</ele><time>2026-04-28T07:03:21.999Z</time></trkpt><trkpt lat="44.88781021606957" lon="8.748825437504186"><ele>109.0</ele><time>2026-04-28T07:03:22.999Z</time></trkpt><trkpt lat="44.887792395620444" lon="8.748634565411612"><ele>109.0</ele><time>2026-04-28T07:03:23.999Z</time></trkpt><trkpt lat="44.8877761610809" lon="8.748447322690248"><ele>109.0</ele><time>2026-04-28T07:03:24.999Z</time></trkpt><trkpt lat="44.88775888653898" lon="8.748259189613268"><ele>108.75</ele><time>2026-04-28T07:03:25.999Z</time></trkpt><trkpt lat="44.88773764782685" lon="8.748067714242838"><ele>108.5</ele><time>2026-04-28T07:03:26.999Z</time></trkpt><trkpt lat="44.887717062989" lon="8.747874793329371"><ele>108.25</ele><time>2026-04-28T07:03:27.999Z</time></trkpt><trkpt lat="44.887693216339" lon="8.747680196000742"><ele>108.0</ele><time>2026-04-28T07:03:28.999Z</time></trkpt><trkpt lat="44.88767489397242" lon="8.74748613622462"><ele>108.0</ele><time>2026-04-28T07:03:29.999Z</time></trkpt><trkpt lat="44.88765939991516" lon="8.74729365436444"><ele>108.0</ele><time>2026-04-28T07:03:30.999Z</time></trkpt><trkpt lat="44.88764315335899" lon="8.747108689752313"><ele>108.0</ele><time>2026-04-28T07:03:31.999Z</time></trkpt><trkpt lat="44.887627695841125" lon="8.746928020083656"><ele>108.0</ele><time>2026-04-28T07:03:32.999Z</time></trkpt><trkpt lat="44.887610724811125" lon="8.746755149811134"><ele>108.0</ele><time>2026-04-28T07:03:33.999Z</time></trkpt><trkpt lat="44.8875945000916" lon="8.746590925843204"><ele>108.0</ele><time>2026-04-28T07:03:34.999Z</time></trkpt><trkpt lat="44.887579648445964" lon="8.746425201556013"><ele>108.0</ele><time>2026-04-28T07:03:35.999Z</time></trkpt><trkpt lat="44.8875620585009" lon="8.746255513886094"><ele>108.0</ele><time>2026-04-28T07:03:36.999Z</time></trkpt><trkpt lat="44.88754736446336" lon="8.746079349694986"><ele>108.25</ele><time>2026-04-28T07:03:37.999Z</time></trkpt><trkpt lat="44.88753076303588" lon="8.74590442128502"><ele>108.5</ele><time>2026-04-28T07:03:38.999Z</time></trkpt><trkpt lat="44.887520561782814" lon="8.745733258545693"><ele>108.75</ele><time>2026-04-28T07:03:39.999Z</time></trkpt><trkpt lat="44.88750616347319" lon="8.745569232400126"><ele>109.0</ele><time>2026-04-28T07:03:40.999Z</time></trkpt><trkpt lat="44.88749019536576" lon="8.745410251204783"><ele>109.0</ele><time>2026-04-28T07:03:41.999Z</time></trkpt><trkpt lat="44.88747857778474" lon="8.74524528384845"><ele>109.0</ele><time>2026-04-28T07:03:42.999Z</time></trkpt><trkpt lat="44.887462900096324" lon="8.745076302893661"><ele>109.0</ele><time>2026-04-28T07:03:43.999Z</time></trkpt><trkpt lat="44.8874474519813" lon="8.744903967382108"><ele>109.0</ele><time>2026-04-28T07:03:44.999Z</time></trkpt><trkpt lat="44.88743218606885" lon="8.74473926762774"><ele>109.0</ele><time>2026-04-28T07:03:45.999Z</time></trkpt><trkpt lat="44.88741733755246" lon="8.744573252517082"><ele>109.0</ele><time>2026-04-28T07:03:46.999Z</time></trkpt><trkpt lat="44.88740355533332" lon="8.744410593910075"><ele>109.0</ele><time>2026-04-28T07:03:47.999Z</time></trkpt><trkpt lat="44.88739123600691" lon="8.744241710441658"><ele>109.0</ele><time>2026-04-28T07:03:48.999Z</time></trkpt><trkpt lat="44.88737417412839" lon="8.744071964103165"><ele>109.0</ele><time>2026-04-28T07:03:49.999Z</time></trkpt><trkpt lat="44.88735935365927" lon="8.743900122008524"><ele>109.0</ele><time>2026-04-28T07:03:50.999Z</time></trkpt><trkpt lat="44.887340004073394" lon="8.7437237884811"><ele>109.0</ele><time>2026-04-28T07:03:51.999Z</time></trkpt><trkpt lat="44.88732501662291" lon="8.743526149294576"><ele>109.0</ele><time>2026-04-28T07:03:52.999Z</time></trkpt><trkpt lat="44.887302729514595" lon="8.743319679475189"><ele>108.75</ele><time>2026-04-28T07:03:53.999Z</time></trkpt><trkpt lat="44.88728896947438" lon="8.743123437616465"><ele>108.5</ele><time>2026-04-28T07:03:54.999Z</time></trkpt><trkpt lat="44.88727482540683" lon="8.742942965162364"><ele>108.25</ele><time>2026-04-28T07:03:55.999Z</time></trkpt><trkpt lat="44.88725899529504" lon="8.74276688816777"><ele>108.0</ele><time>2026-04-28T07:03:56.999Z</time></trkpt><trkpt lat="44.88724287553053" lon="8.742601933385853"><ele>108.0</ele><time>2026-04-28T07:03:57.999Z</time></trkpt><trkpt lat="44.88722737439847" lon="8.742434804148822"><ele>108.0</ele><time>2026-04-28T07:03:58.999Z</time></trkpt><trkpt lat="44.887211305601724" lon="8.742249202847296"><ele>108.0</ele><time>2026-04-28T07:03:59.999Z</time></trkpt><trkpt lat="44.88719077361243" lon="8.742054188951265"><ele>108.0</ele><time>2026-04-28T07:04:00.999Z</time></trkpt><trkpt lat="44.88717076759653" lon="8.741823607556729"><ele>108.0</ele><time>2026-04-28T07:04:01.999Z</time></trkpt><trkpt lat="44.88714895410013" lon="8.74157035964132"><ele>108.0</ele><time>2026-04-28T07:04:02.999Z</time></trkpt><trkpt lat="44.88712674051505" lon="8.741321423261898"><ele>108.0</ele><time>2026-04-28T07:04:03.999Z</time></trkpt><trkpt lat="44.887118038653036" lon="8.7410787134569"><ele>107.66666666666666</ele><time>2026-04-28T07:04:04.999Z</time></trkpt><trkpt lat="44.88710122325224" lon="8.740852227344204"><ele>107.33333333333333</ele><time>2026-04-28T07:04:05.999Z</time></trkpt><trkpt lat="44.8870864367256" lon="8.74064241446834"><ele>107.0</ele><time>2026-04-28T07:04:06.999Z</time></trkpt><trkpt lat="44.887070373775444" lon="8.740444208219854"><ele>107.0</ele><time>2026-04-28T07:04:07.999Z</time></trkpt><trkpt lat="44.88705355318979" lon="8.740259569502848"><ele>107.0</ele><time>2026-04-28T07:04:08.999Z</time></trkpt><trkpt lat="44.88703755886466" lon="8.740077711424968"><ele>107.0</ele><time>2026-04-28T07:04:09.999Z</time></trkpt><trkpt lat="44.88701954358284" lon="8.739904383744433"><ele>107.0</ele><time>2026-04-28T07:04:10.999Z</time></trkpt><trkpt lat="44.88700302390129" lon="8.739727403669285"><ele>107.0</ele><time>2026-04-28T07:04:11.999Z</time></trkpt><trkpt lat="44.88698443957603" lon="8.739551123054765"><ele>107.0</ele><time>2026-04-28T07:04:12.999Z</time></trkpt><trkpt lat="44.88696833171019" lon="8.739375977268848"><ele>107.0</ele><time>2026-04-28T07:04:13.999Z</time></trkpt><trkpt lat="44.88695405973768" lon="8.73920310486716"><ele>107.0</ele><time>2026-04-28T07:04:15Z</time></trkpt><trkpt lat="44.886938779736155" lon="8.739030643688276"><ele>107.0</ele><time>2026-04-28T07:04:16Z</time></trkpt><trkpt lat="44.88692258028804" lon="8.738859177656758"><ele>107.0</ele><time>2026-04-28T07:04:17Z</time></trkpt><trkpt lat="44.88690618467678" lon="8.73867727525618"><ele>107.0</ele><time>2026-04-28T07:04:18Z</time></trkpt><trkpt lat="44.8868894154439" lon="8.73849663293637"><ele>107.0</ele><time>2026-04-28T07:04:19Z</time></trkpt><trkpt lat="44.8868700992751" lon="8.738303354629329"><ele>107.0</ele><time>2026-04-28T07:04:20Z</time></trkpt><trkpt lat="44.88684485569344" lon="8.738077413022898"><ele>107.0</ele><time>2026-04-28T07:04:21Z</time></trkpt><trkpt lat="44.88683518984589" lon="8.73782952278514"><ele>107.0</ele><time>2026-04-28T07:04:22Z</time></trkpt><trkpt lat="44.886809410926695" lon="8.737582404170103"><ele>107.33333333333333</ele><time>2026-04-28T07:04:23Z</time></trkpt><trkpt lat="44.88679392004932" lon="8.737356687931372"><ele>107.66666666666666</ele><time>2026-04-28T07:04:24Z</time></trkpt><trkpt lat="44.886778369603185" lon="8.737142406979043"><ele>108.0</ele><time>2026-04-28T07:04:25Z</time></trkpt><trkpt lat="44.886759781937485" lon="8.736943727860792"><ele>108.0</ele><time>2026-04-28T07:04:26Z</time></trkpt><trkpt lat="44.88673707948207" lon="8.736744085677323"><ele>108.0</ele><time>2026-04-28T07:04:27Z</time></trkpt><trkpt lat="44.886716094714096" lon="8.736556100188375"><ele>108.0</ele><time>2026-04-28T07:04:28Z</time></trkpt><trkpt lat="44.88670061420033" lon="8.736368295878766"><ele>108.0</ele><time>2026-04-28T07:04:29Z</time></trkpt><trkpt lat="44.88668340099484" lon="8.736177333582145"><ele>108.0</ele><time>2026-04-28T07:04:30Z</time></trkpt><trkpt lat="44.886666736324806" lon="8.735989126781455"><ele>108.0</ele><time>2026-04-28T07:04:31Z</time></trkpt><trkpt lat="44.886647341070656" lon="8.735798256913945"><ele>108.0</ele><time>2026-04-28T07:04:32Z</time></trkpt><trkpt lat="44.886630738216354" lon="8.735608718076387"><ele>108.0</ele><time>2026-04-28T07:04:33Z</time></trkpt><trkpt lat="44.88661459400055" lon="8.735436009460715"><ele>108.0</ele><time>2026-04-28T07:04:34Z</time></trkpt><trkpt lat="44.88660541694183" lon="8.735264132394727"><ele>108.0</ele><time>2026-04-28T07:04:35Z</time></trkpt><trkpt lat="44.88658965956099" lon="8.73509223951734"><ele>108.0</ele><time>2026-04-28T07:04:36Z</time></trkpt><trkpt lat="44.886577057885944" lon="8.73492443344917"><ele>108.0</ele><time>2026-04-28T07:04:37Z</time></trkpt><trkpt lat="44.88656282876246" lon="8.734744459023927"><ele>107.75</ele><time>2026-04-28T07:04:38Z</time></trkpt><trkpt lat="44.88654785893" lon="8.7345599473368"><ele>107.5</ele><time>2026-04-28T07:04:39Z</time></trkpt><trkpt lat="44.88653470615576" lon="8.734386540990098"><ele>107.25</ele><time>2026-04-28T07:04:40Z</time></trkpt><trkpt lat="44.886519255361726" lon="8.734217460919751"><ele>107.0</ele><time>2026-04-28T07:04:41Z</time></trkpt><trkpt lat="44.88650279037041" lon="8.734050084787636"><ele>107.0</ele><time>2026-04-28T07:04:42Z</time></trkpt><trkpt lat="44.88648929470388" lon="8.733888533307564"><ele>107.0</ele><time>2026-04-28T07:04:43Z</time></trkpt><trkpt lat="44.886474718640926" lon="8.73371601447542"><ele>107.0</ele><time>2026-04-28T07:04:44Z</time></trkpt><trkpt lat="44.886459612270556" lon="8.733550117389159"><ele>107.0</ele><time>2026-04-28T07:04:45Z</time></trkpt><trkpt lat="44.88644094375165" lon="8.733384644389616"><ele>107.0</ele><time>2026-04-28T07:04:46Z</time></trkpt><trkpt lat="44.88642551330002" lon="8.733211443754078"><ele>107.0</ele><time>2026-04-28T07:04:47Z</time></trkpt><trkpt lat="44.886410198821316" lon="8.733039069253005"><ele>107.0</ele><time>2026-04-28T07:04:48Z</time></trkpt><trkpt lat="44.88639472283919" lon="8.732866644915912"><ele>107.0</ele><time>2026-04-28T07:04:49Z</time></trkpt><trkpt lat="44.88637906992412" lon="8.732686844969503"><ele>107.0</ele><time>2026-04-28T07:04:50Z</time></trkpt><trkpt lat="44.8863602434209" lon="8.7325022558609"><ele>107.0</ele><time>2026-04-28T07:04:51Z</time></trkpt><trkpt lat="44.88633731202092" lon="8.73231854079781"><ele>107.0</ele><time>2026-04-28T07:04:52Z</time></trkpt><trkpt lat="44.88633439228435" lon="8.732114942736196"><ele>107.0</ele><time>2026-04-28T07:04:53Z</time></trkpt><trkpt lat="44.88631537631522" lon="8.73189833557504"><ele>107.0</ele><time>2026-04-28T07:04:54Z</time></trkpt><trkpt lat="44.8862959146232" lon="8.731676651218173"><ele>107.0</ele><time>2026-04-28T07:04:55Z</time></trkpt><trkpt lat="44.886274797793924" lon="8.731434574647723"><ele>107.0</ele><time>2026-04-28T07:04:56Z</time></trkpt><trkpt lat="44.886252041787685" lon="8.731171907041505"><ele>106.33333333333333</ele><time>2026-04-28T07:04:57Z</time></trkpt><trkpt lat="44.88622936970939" lon="8.730911760245107"><ele>105.66666666666666</ele><time>2026-04-28T07:04:58Z</time></trkpt><trkpt lat="44.88618942708493" lon="8.730640240191594"><ele>105.0</ele><time>2026-04-28T07:04:59Z</time></trkpt><trkpt lat="44.88618007197879" lon="8.73034794913939"><ele>105.0</ele><time>2026-04-28T07:05:00Z</time></trkpt><trkpt lat="44.88615491458743" lon="8.730060227654693"><ele>105.0</ele><time>2026-04-28T07:05:01Z</time></trkpt><trkpt lat="44.886113372322725" lon="8.729763292025172"><ele>105.0</ele><time>2026-04-28T07:05:02Z</time></trkpt><trkpt lat="44.88610195819137" lon="8.729454572965665"><ele>105.66666666666666</ele><time>2026-04-28T07:05:03Z</time></trkpt><trkpt lat="44.886064481111546" lon="8.729159985363362"><ele>106.33333333333333</ele><time>2026-04-28T07:05:04Z</time></trkpt><trkpt lat="44.88603902474897" lon="8.728863921162931"><ele>107.0</ele><time>2026-04-28T07:05:04.999Z</time></trkpt><trkpt lat="44.886015891983966" lon="8.728582589212891"><ele>107.33333333333333</ele><time>2026-04-28T07:05:05.999Z</time></trkpt><trkpt lat="44.886003843068856" lon="8.728325750398028"><ele>107.66666666666666</ele><time>2026-04-28T07:05:06.999Z</time></trkpt><trkpt lat="44.88597724312204" lon="8.728060217223902"><ele>108.0</ele><time>2026-04-28T07:05:07.999Z</time></trkpt><trkpt lat="44.88595740901467" lon="8.72780158204051"><ele>108.0</ele><time>2026-04-28T07:05:08.999Z</time></trkpt><trkpt lat="44.88593319549523" lon="8.72754614693686"><ele>108.0</ele><time>2026-04-28T07:05:09.999Z</time></trkpt><trkpt lat="44.885912785251435" lon="8.727296977961593"><ele>108.0</ele><time>2026-04-28T07:05:10.999Z</time></trkpt><trkpt lat="44.88589025343079" lon="8.72703707717412"><ele>107.33333333333334</ele><time>2026-04-28T07:05:11.999Z</time></trkpt><trkpt lat="44.88586903993894" lon="8.72678230289333"><ele>106.66666666666667</ele><time>2026-04-28T07:05:12.999Z</time></trkpt><trkpt lat="44.885848018738045" lon="8.726523321728576"><ele>106.0</ele><time>2026-04-28T07:05:13.999Z</time></trkpt><trkpt lat="44.885826666238366" lon="8.72626387690966"><ele>106.33333333333334</ele><time>2026-04-28T07:05:14.999Z</time></trkpt><trkpt lat="44.88580404016399" lon="8.726010291608326"><ele>106.66666666666666</ele><time>2026-04-28T07:05:15.999Z</time></trkpt><trkpt lat="44.88578076324632" lon="8.725758896026553"><ele>107.0</ele><time>2026-04-28T07:05:16.999Z</time></trkpt><trkpt lat="44.8857576164676" lon="8.725510653850941"><ele>107.0</ele><time>2026-04-28T07:05:17.999Z</time></trkpt><trkpt lat="44.88573332557446" lon="8.72526775522747"><ele>107.0</ele><time>2026-04-28T07:05:18.999Z</time></trkpt><trkpt lat="44.88570966920764" lon="8.725027525608088"><ele>107.0</ele><time>2026-04-28T07:05:19.999Z</time></trkpt><trkpt lat="44.88568761100616" lon="8.724785716221433"><ele>106.33333333333333</ele><time>2026-04-28T07:05:20.999Z</time></trkpt><trkpt lat="44.885668212495595" lon="8.724549413714856"><ele>105.66666666666666</ele><time>2026-04-28T07:05:21.999Z</time></trkpt><trkpt lat="44.88564416294312" lon="8.724312333458803"><ele>105.0</ele><time>2026-04-28T07:05:22.999Z</time></trkpt><trkpt lat="44.88562546880588" lon="8.72408671503931"><ele>105.0</ele><time>2026-04-28T07:05:23.999Z</time></trkpt><trkpt lat="44.88560428107199" lon="8.723855034937307"><ele>105.0</ele><time>2026-04-28T07:05:24.999Z</time></trkpt><trkpt lat="44.88558402975361" lon="8.723620884826483"><ele>105.0</ele><time>2026-04-28T07:05:25.999Z</time></trkpt><trkpt lat="44.88556464590007" lon="8.723400101775477"><ele>105.0</ele><time>2026-04-28T07:05:26.999Z</time></trkpt><trkpt lat="44.885551287837124" lon="8.723210461715835"><ele>105.0</ele><time>2026-04-28T07:05:27.999Z</time></trkpt><trkpt lat="44.88553649892894" lon="8.723051930210756"><ele>105.0</ele><time>2026-04-28T07:05:28.999Z</time></trkpt><trkpt lat="44.885524223912824" lon="8.722891141188077"><ele>105.0</ele><time>2026-04-28T07:05:29.999Z</time></trkpt><trkpt lat="44.88550954660233" lon="8.72271398930565"><ele>105.33333333333334</ele><time>2026-04-28T07:05:30.999Z</time></trkpt><trkpt lat="44.885492438256996" lon="8.722522207458546"><ele>105.66666666666667</ele><time>2026-04-28T07:05:31.999Z</time></trkpt><trkpt lat="44.88547336791077" lon="8.722312440967267"><ele>106.0</ele><time>2026-04-28T07:05:32.999Z</time></trkpt><trkpt lat="44.8854517159313" lon="8.722077945302193"><ele>105.66666666666667</ele><time>2026-04-28T07:05:33.999Z</time></trkpt><trkpt lat="44.88542740951862" lon="8.721821129722887"><ele>105.33333333333334</ele><time>2026-04-28T07:05:34.999Z</time></trkpt><trkpt lat="44.88540312910809" lon="8.721562479658227"><ele>105.0</ele><time>2026-04-28T07:05:35.999Z</time></trkpt><trkpt lat="44.88537970571018" lon="8.721303629911642"><ele>105.0</ele><time>2026-04-28T07:05:36.999Z</time></trkpt><trkpt lat="44.88535509837986" lon="8.721034777816554"><ele>105.0</ele><time>2026-04-28T07:05:37.999Z</time></trkpt><trkpt lat="44.88533705769381" lon="8.720769932741353"><ele>105.0</ele><time>2026-04-28T07:05:38.999Z</time></trkpt><trkpt lat="44.88531971190882" lon="8.720523185424364"><ele>105.0</ele><time>2026-04-28T07:05:39.999Z</time></trkpt><trkpt lat="44.88529953527114" lon="8.720286768844419"><ele>105.0</ele><time>2026-04-28T07:05:40.999Z</time></trkpt><trkpt lat="44.88527909874873" lon="8.720052033428752"><ele>105.0</ele><time>2026-04-28T07:05:41.999Z</time></trkpt><trkpt lat="44.88525756638871" lon="8.719826826238817"><ele>105.33333333333334</ele><time>2026-04-28T07:05:42.999Z</time></trkpt><trkpt lat="44.88523845246787" lon="8.719596489448564"><ele>105.66666666666667</ele><time>2026-04-28T07:05:43.999Z</time></trkpt><trkpt lat="44.88522104210739" lon="8.719366839905632"><ele>106.0</ele><time>2026-04-28T07:05:44.999Z</time></trkpt><trkpt lat="44.88519907861743" lon="8.719130847181312"><ele>106.0</ele><time>2026-04-28T07:05:45.999Z</time></trkpt><trkpt lat="44.88517681470961" lon="8.718909008080612"><ele>106.0</ele><time>2026-04-28T07:05:46.999Z</time></trkpt><trkpt lat="44.88515102977032" lon="8.718684876102857"><ele>106.0</ele><time>2026-04-28T07:05:47.999Z</time></trkpt><trkpt lat="44.885133332166674" lon="8.718465172680252"><ele>106.0</ele><time>2026-04-28T07:05:48.999Z</time></trkpt><trkpt lat="44.885118952289275" lon="8.718243882672159"><ele>106.0</ele><time>2026-04-28T07:05:49.999Z</time></trkpt><trkpt lat="44.885100047109205" lon="8.718023052860252"><ele>106.0</ele><time>2026-04-28T07:05:50.999Z</time></trkpt><trkpt lat="44.885076593436295" lon="8.717789003440116"><ele>106.0</ele><time>2026-04-28T07:05:51.999Z</time></trkpt><trkpt lat="44.88505703210106" lon="8.717553252272168"><ele>106.0</ele><time>2026-04-28T07:05:52.999Z</time></trkpt><trkpt lat="44.88503290441049" lon="8.71732711347931"><ele>106.0</ele><time>2026-04-28T07:05:53.999Z</time></trkpt><trkpt lat="44.8850165415782" lon="8.717094231958388"><ele>106.0</ele><time>2026-04-28T07:05:54.999Z</time></trkpt><trkpt lat="44.88499727791889" lon="8.716857350391672"><ele>106.0</ele><time>2026-04-28T07:05:55.999Z</time></trkpt><trkpt lat="44.88497828197984" lon="8.716610695607152"><ele>106.0</ele><time>2026-04-28T07:05:56.999Z</time></trkpt><trkpt lat="44.88495776635647" lon="8.716367978899024"><ele>106.0</ele><time>2026-04-28T07:05:57.999Z</time></trkpt><trkpt lat="44.88493589756256" lon="8.716118845402084"><ele>106.0</ele><time>2026-04-28T07:05:58.999Z</time></trkpt><trkpt lat="44.88491143728773" lon="8.715860438838947"><ele>106.0</ele><time>2026-04-28T07:05:59.999Z</time></trkpt><trkpt lat="44.88488707870904" lon="8.715604792970769"><ele>106.0</ele><time>2026-04-28T07:06:00.999Z</time></trkpt><trkpt lat="44.88486594882569" lon="8.715345977638211"><ele>106.0</ele><time>2026-04-28T07:06:01.999Z</time></trkpt><trkpt lat="44.88484370001058" lon="8.71508299453274"><ele>106.0</ele><time>2026-04-28T07:06:02.999Z</time></trkpt><trkpt lat="44.88482352251178" lon="8.714825997010195"><ele>106.0</ele><time>2026-04-28T07:06:03.999Z</time></trkpt><trkpt lat="44.884803471689104" lon="8.714569803411946"><ele>106.0</ele><time>2026-04-28T07:06:04.999Z</time></trkpt><trkpt lat="44.88477891967918" lon="8.714309427260725"><ele>106.0</ele><time>2026-04-28T07:06:05.999Z</time></trkpt><trkpt lat="44.884752941683004" lon="8.71404642569013"><ele>106.0</ele><time>2026-04-28T07:06:06.999Z</time></trkpt><trkpt lat="44.884729696829545" lon="8.713787714809646"><ele>106.0</ele><time>2026-04-28T07:06:07.999Z</time></trkpt><trkpt lat="44.88470406203916" lon="8.713528738299617"><ele>106.0</ele><time>2026-04-28T07:06:08.999Z</time></trkpt><trkpt lat="44.88468034217503" lon="8.713270540829908"><ele>106.33333333333334</ele><time>2026-04-28T07:06:09.999Z</time></trkpt><trkpt lat="44.884652842435784" lon="8.713013342183897"><ele>106.66666666666666</ele><time>2026-04-28T07:06:10.999Z</time></trkpt><trkpt lat="44.8846254051239" lon="8.712756612369548"><ele>107.0</ele><time>2026-04-28T07:06:11.999Z</time></trkpt><trkpt lat="44.88459989124756" lon="8.712501776322773"><ele>106.0</ele><time>2026-04-28T07:06:12.999Z</time></trkpt><trkpt lat="44.88457377674413" lon="8.712241454869643"><ele>105.0</ele><time>2026-04-28T07:06:13.999Z</time></trkpt><trkpt lat="44.8845425119931" lon="8.711967289477634"><ele>104.0</ele><time>2026-04-28T07:06:14.999Z</time></trkpt><trkpt lat="44.88450461992005" lon="8.711674131291575"><ele>104.0</ele><time>2026-04-28T07:06:15.999Z</time></trkpt><trkpt lat="44.88447148616363" lon="8.711369377309321"><ele>104.0</ele><time>2026-04-28T07:06:16.999Z</time></trkpt><trkpt lat="44.88443390851792" lon="8.71104845470699"><ele>104.0</ele><time>2026-04-28T07:06:17.999Z</time></trkpt><trkpt lat="44.88439554981334" lon="8.710730980018935"><ele>104.5</ele><time>2026-04-28T07:06:18.999Z</time></trkpt><trkpt lat="44.88436825375348" lon="8.710394215070025"><ele>105.0</ele><time>2026-04-28T07:06:19.999Z</time></trkpt><trkpt lat="44.88433143983715" lon="8.710061087590288"><ele>105.0</ele><time>2026-04-28T07:06:21Z</time></trkpt><trkpt lat="44.884297851140765" lon="8.709757144848341"><ele>105.0</ele><time>2026-04-28T07:06:22Z</time></trkpt><trkpt lat="44.88426588589861" lon="8.70946789262135"><ele>105.0</ele><time>2026-04-28T07:06:23Z</time></trkpt><trkpt lat="44.884234524906695" lon="8.70918410850186"><ele>105.0</ele><time>2026-04-28T07:06:24Z</time></trkpt><trkpt lat="44.884204041906" lon="8.708908268989518"><ele>105.0</ele><time>2026-04-28T07:06:25Z</time></trkpt><trkpt lat="44.88417495938376" lon="8.708645102408555"><ele>105.0</ele><time>2026-04-28T07:06:26Z</time></trkpt><trkpt lat="44.884147372577274" lon="8.708395470715317"><ele>105.0</ele><time>2026-04-28T07:06:27Z</time></trkpt><trkpt lat="44.884120529836856" lon="8.70815257179711"><ele>105.0</ele><time>2026-04-28T07:06:28Z</time></trkpt><trkpt lat="44.884078946820566" lon="8.70792171366643"><ele>105.0</ele><time>2026-04-28T07:06:29Z</time></trkpt><trkpt lat="44.88405571112915" lon="8.707694870245298"><ele>105.66666666666666</ele><time>2026-04-28T07:06:30Z</time></trkpt><trkpt lat="44.884034197560524" lon="8.707474380905678"><ele>106.33333333333333</ele><time>2026-04-28T07:06:31Z</time></trkpt><trkpt lat="44.884016173255894" lon="8.707253666494207"><ele>107.0</ele><time>2026-04-28T07:06:32Z</time></trkpt><trkpt lat="44.88399527619065" lon="8.707021114784087"><ele>106.66666666666666</ele><time>2026-04-28T07:06:33Z</time></trkpt><trkpt lat="44.88397274155054" lon="8.7067702327493"><ele>106.33333333333334</ele><time>2026-04-28T07:06:34Z</time></trkpt><trkpt lat="44.88394586633516" lon="8.70653164769346"><ele>106.0</ele><time>2026-04-28T07:06:35Z</time></trkpt><trkpt lat="44.88391814392624" lon="8.706297788540041"><ele>105.33333333333334</ele><time>2026-04-28T07:06:36Z</time></trkpt><trkpt lat="44.88388103278316" lon="8.70604577407297"><ele>104.66666666666666</ele><time>2026-04-28T07:06:37Z</time></trkpt><trkpt lat="44.88383477345144" lon="8.705796317019274"><ele>104.0</ele><time>2026-04-28T07:06:38Z</time></trkpt><trkpt lat="44.88377305383861" lon="8.705542961771691"><ele>104.0</ele><time>2026-04-28T07:06:39Z</time></trkpt><trkpt lat="44.88369396606235" lon="8.705280182635194"><ele>104.0</ele><time>2026-04-28T07:06:40Z</time></trkpt><trkpt lat="44.88359596859209" lon="8.705016923830202"><ele>104.0</ele><time>2026-04-28T07:06:41Z</time></trkpt><trkpt lat="44.883485863761884" lon="8.704735386143408"><ele>103.33333333333333</ele><time>2026-04-28T07:06:42Z</time></trkpt><trkpt lat="44.88337292054497" lon="8.704466653727566"><ele>102.66666666666666</ele><time>2026-04-28T07:06:43Z</time></trkpt><trkpt lat="44.88326232728966" lon="8.704232008596913"><ele>102.0</ele><time>2026-04-28T07:06:44Z</time></trkpt><trkpt lat="44.883146659003366" lon="8.704009919472524"><ele>102.0</ele><time>2026-04-28T07:06:45Z</time></trkpt><trkpt lat="44.883029551160654" lon="8.703810443161643"><ele>102.0</ele><time>2026-04-28T07:06:46Z</time></trkpt><trkpt lat="44.882909168260355" lon="8.703617487976427"><ele>102.0</ele><time>2026-04-28T07:06:47Z</time></trkpt><trkpt lat="44.88279341776096" lon="8.703436733921729"><ele>102.0</ele><time>2026-04-28T07:06:48Z</time></trkpt><trkpt lat="44.88268225760509" lon="8.703261594654027"><ele>102.0</ele><time>2026-04-28T07:06:49Z</time></trkpt><trkpt lat="44.882571426882436" lon="8.7030843624671"><ele>102.0</ele><time>2026-04-28T07:06:50Z</time></trkpt><trkpt lat="44.88245121423415" lon="8.702896220410384"><ele>101.33333333333334</ele><time>2026-04-28T07:06:51Z</time></trkpt><trkpt lat="44.88232082873344" lon="8.702693464145263"><ele>100.66666666666667</ele><time>2026-04-28T07:06:52Z</time></trkpt><trkpt lat="44.88219004358043" lon="8.70248430812159"><ele>100.0</ele><time>2026-04-28T07:06:53Z</time></trkpt><trkpt lat="44.88205744741174" lon="8.702269893582598"><ele>100.0</ele><time>2026-04-28T07:06:54Z</time></trkpt><trkpt lat="44.88192731438871" lon="8.702060839917818"><ele>100.0</ele><time>2026-04-28T07:06:55Z</time></trkpt><trkpt lat="44.88180514615227" lon="8.701866121448708"><ele>100.0</ele><time>2026-04-28T07:06:56Z</time></trkpt><trkpt lat="44.8816923374566" lon="8.701675115733698"><ele>100.33333333333334</ele><time>2026-04-28T07:06:57Z</time></trkpt><trkpt lat="44.881597072803416" lon="8.701471249796118"><ele>100.66666666666666</ele><time>2026-04-28T07:06:58Z</time></trkpt><trkpt lat="44.88151491661501" lon="8.701240701896799"><ele>101.0</ele><time>2026-04-28T07:06:59Z</time></trkpt><trkpt lat="44.881450063985376" lon="8.700972128320789"><ele>101.0</ele><time>2026-04-28T07:07:00Z</time></trkpt><trkpt lat="44.881398653431326" lon="8.70068045486593"><ele>101.0</ele><time>2026-04-28T07:07:01Z</time></trkpt><trkpt lat="44.881370640774776" lon="8.70039074039131"><ele>101.0</ele><time>2026-04-28T07:07:02Z</time></trkpt><trkpt lat="44.881363815163816" lon="8.700118308369746"><ele>100.66666666666666</ele><time>2026-04-28T07:07:03Z</time></trkpt><trkpt lat="44.88137449057743" lon="8.69985685675448"><ele>100.33333333333334</ele><time>2026-04-28T07:07:04Z</time></trkpt><trkpt lat="44.8814054057992" lon="8.699610290643227"><ele>100.0</ele><time>2026-04-28T07:07:05Z</time></trkpt><trkpt lat="44.88145224448973" lon="8.699365770714827"><ele>100.66666666666667</ele><time>2026-04-28T07:07:06Z</time></trkpt><trkpt lat="44.88152152612443" lon="8.699150022146666"><ele>101.33333333333334</ele><time>2026-04-28T07:07:07Z</time></trkpt><trkpt lat="44.88160000040748" lon="8.698918658885193"><ele>102.0</ele><time>2026-04-28T07:07:08Z</time></trkpt><trkpt lat="44.88169365596176" lon="8.698693356004084"><ele>101.66666666666666</ele><time>2026-04-28T07:07:09Z</time></trkpt><trkpt lat="44.881802888324025" lon="8.698455561811754"><ele>101.33333333333333</ele><time>2026-04-28T07:07:10Z</time></trkpt><trkpt lat="44.8819167651003" lon="8.698267344548468"><ele>101.0</ele><time>2026-04-28T07:07:11Z</time></trkpt><trkpt lat="44.88204365436322" lon="8.69809743336207"><ele>101.0</ele><time>2026-04-28T07:07:12Z</time></trkpt><trkpt lat="44.88218526194103" lon="8.697964362887271"><ele>101.0</ele><time>2026-04-28T07:07:13Z</time></trkpt><trkpt lat="44.88230671281489" lon="8.697828262729146"><ele>101.0</ele><time>2026-04-28T07:07:14Z</time></trkpt><trkpt lat="44.88246516482521" lon="8.697751360698676"><ele>101.0</ele><time>2026-04-28T07:07:15Z</time></trkpt><trkpt lat="44.88261925573886" lon="8.697663501735217"><ele>101.0</ele><time>2026-04-28T07:07:15.999Z</time></trkpt><trkpt lat="44.88278155689335" lon="8.697578448827285"><ele>101.0</ele><time>2026-04-28T07:07:16.999Z</time></trkpt><trkpt lat="44.88295600449977" lon="8.69748940504036"><ele>101.0</ele><time>2026-04-28T07:07:17.999Z</time></trkpt><trkpt lat="44.88314376438562" lon="8.697396473292738"><ele>101.0</ele><time>2026-04-28T07:07:18.999Z</time></trkpt><trkpt lat="44.88334960197684" lon="8.697299434374287"><ele>101.0</ele><time>2026-04-28T07:07:19.999Z</time></trkpt><trkpt lat="44.88356457201693" lon="8.69719337333569"><ele>101.0</ele><time>2026-04-28T07:07:20.999Z</time></trkpt><trkpt lat="44.88379144804579" lon="8.697091473121302"><ele>101.0</ele><time>2026-04-28T07:07:21.999Z</time></trkpt><trkpt lat="44.88399654150182" lon="8.696994058903407"><ele>101.33333333333333</ele><time>2026-04-28T07:07:22.999Z</time></trkpt><trkpt lat="44.88419950571801" lon="8.696897834006093"><ele>101.66666666666666</ele><time>2026-04-28T07:07:23.999Z</time></trkpt><trkpt lat="44.88438139830077" lon="8.69680053082344"><ele>102.0</ele><time>2026-04-28T07:07:24.999Z</time></trkpt><trkpt lat="44.88455659140929" lon="8.69670396272847"><ele>102.0</ele><time>2026-04-28T07:07:25.999Z</time></trkpt><trkpt lat="44.88473619491929" lon="8.696593399692484"><ele>102.0</ele><time>2026-04-28T07:07:26.999Z</time></trkpt><trkpt lat="44.88491617665351" lon="8.6964741782215"><ele>102.0</ele><time>2026-04-28T07:07:27.999Z</time></trkpt><trkpt lat="44.88508755343615" lon="8.696341174879239"><ele>101.33333333333334</ele><time>2026-04-28T07:07:28.999Z</time></trkpt><trkpt lat="44.88525463513963" lon="8.696198466147928"><ele>100.66666666666667</ele><time>2026-04-28T07:07:29.999Z</time></trkpt><trkpt lat="44.88542381547846" lon="8.696052807847733"><ele>100.0</ele><time>2026-04-28T07:07:30.999Z</time></trkpt><trkpt lat="44.88559005545763" lon="8.695900395417764"><ele>100.0</ele><time>2026-04-28T07:07:31.999Z</time></trkpt><trkpt lat="44.885745479253195" lon="8.695739474224455"><ele>100.0</ele><time>2026-04-28T07:07:32.999Z</time></trkpt><trkpt lat="44.88589881734178" lon="8.695567667133812"><ele>100.0</ele><time>2026-04-28T07:07:33.999Z</time></trkpt><trkpt lat="44.88603578642092" lon="8.695383780807855"><ele>100.0</ele><time>2026-04-28T07:07:34.999Z</time></trkpt><trkpt lat="44.886163973967584" lon="8.695191028455282"><ele>100.0</ele><time>2026-04-28T07:07:35.999Z</time></trkpt><trkpt lat="44.88628940461596" lon="8.694993874246492"><ele>100.0</ele><time>2026-04-28T07:07:36.999Z</time></trkpt><trkpt lat="44.88641089591381" lon="8.694788309757966"><ele>100.0</ele><time>2026-04-28T07:07:37.999Z</time></trkpt><trkpt lat="44.886523268283106" lon="8.694574884466197"><ele>100.0</ele><time>2026-04-28T07:07:38.999Z</time></trkpt><trkpt lat="44.88662879842275" lon="8.694353396238112"><ele>100.0</ele><time>2026-04-28T07:07:39.999Z</time></trkpt><trkpt lat="44.88673439482201" lon="8.694134137238633"><ele>99.33333333333334</ele><time>2026-04-28T07:07:40.999Z</time></trkpt><trkpt lat="44.886846783111935" lon="8.693912925363268"><ele>98.66666666666666</ele><time>2026-04-28T07:07:41.999Z</time></trkpt><trkpt lat="44.886952483698714" lon="8.693681163362081"><ele>98.0</ele><time>2026-04-28T07:07:42.999Z</time></trkpt><trkpt lat="44.887059123972186" lon="8.69344902616661"><ele>98.0</ele><time>2026-04-28T07:07:43.999Z</time></trkpt><trkpt lat="44.88716347463532" lon="8.693221185377018"><ele>98.0</ele><time>2026-04-28T07:07:44.999Z</time></trkpt><trkpt lat="44.88727620219089" lon="8.69299386156045"><ele>98.0</ele><time>2026-04-28T07:07:45.999Z</time></trkpt><trkpt lat="44.88738940594346" lon="8.692760525830556"><ele>97.66666666666666</ele><time>2026-04-28T07:07:46.999Z</time></trkpt><trkpt lat="44.8875032916852" lon="8.692524791715437"><ele>97.33333333333334</ele><time>2026-04-28T07:07:47.999Z</time></trkpt><trkpt lat="44.88760983346239" lon="8.692280531912667"><ele>97.0</ele><time>2026-04-28T07:07:48.999Z</time></trkpt><trkpt lat="44.887717941503695" lon="8.692045727016888"><ele>97.0</ele><time>2026-04-28T07:07:49.999Z</time></trkpt><trkpt lat="44.88782963903633" lon="8.691806279986146"><ele>97.0</ele><time>2026-04-28T07:07:50.999Z</time></trkpt><trkpt lat="44.887946238778355" lon="8.691564448402069"><ele>97.0</ele><time>2026-04-28T07:07:51.999Z</time></trkpt><trkpt lat="44.88805915966869" lon="8.69133003458341"><ele>97.0</ele><time>2026-04-28T07:07:52.999Z</time></trkpt><trkpt lat="44.88818013447917" lon="8.691085893469408"><ele>97.0</ele><time>2026-04-28T07:07:53.999Z</time></trkpt><trkpt lat="44.88828296145453" lon="8.690853948112055"><ele>97.0</ele><time>2026-04-28T07:07:54.999Z</time></trkpt><trkpt lat="44.88839404256946" lon="8.690610752050212"><ele>96.66666666666667</ele><time>2026-04-28T07:07:55.999Z</time></trkpt><trkpt lat="44.88851048366026" lon="8.690370372235478"><ele>96.33333333333334</ele><time>2026-04-28T07:07:56.999Z</time></trkpt><trkpt lat="44.88862503511435" lon="8.690132045169934"><ele>96.0</ele><time>2026-04-28T07:07:57.999Z</time></trkpt><trkpt lat="44.88873454728948" lon="8.689901822412983"><ele>96.0</ele><time>2026-04-28T07:07:58.999Z</time></trkpt><trkpt lat="44.88883894563551" lon="8.68968504573998"><ele>96.0</ele><time>2026-04-28T07:07:59.999Z</time></trkpt><trkpt lat="44.88894383399719" lon="8.689477685609702"><ele>96.0</ele><time>2026-04-28T07:08:00.999Z</time></trkpt><trkpt lat="44.889040391646695" lon="8.689264999196714"><ele>96.0</ele><time>2026-04-28T07:08:01.999Z</time></trkpt><trkpt lat="44.889140913568326" lon="8.689036745194912"><ele>96.0</ele><time>2026-04-28T07:08:02.999Z</time></trkpt><trkpt lat="44.88923673686533" lon="8.688800305219676"><ele>96.0</ele><time>2026-04-28T07:08:03.999Z</time></trkpt><trkpt lat="44.88935211090106" lon="8.688589326055455"><ele>96.0</ele><time>2026-04-28T07:08:04.999Z</time></trkpt><trkpt lat="44.889452369394384" lon="8.68837475215848"><ele>96.0</ele><time>2026-04-28T07:08:05.999Z</time></trkpt><trkpt lat="44.88954166106576" lon="8.688185115019627"><ele>96.0</ele><time>2026-04-28T07:08:06.999Z</time></trkpt><trkpt lat="44.88962674563469" lon="8.688005699144668"><ele>96.0</ele><time>2026-04-28T07:08:07.999Z</time></trkpt><trkpt lat="44.88968092446628" lon="8.687816262287782"><ele>96.0</ele><time>2026-04-28T07:08:08.999Z</time></trkpt><trkpt lat="44.88975669279031" lon="8.687653151006776"><ele>96.0</ele><time>2026-04-28T07:08:09.999Z</time></trkpt><trkpt lat="44.88983158903107" lon="8.687491261860991"><ele>96.0</ele><time>2026-04-28T07:08:10.999Z</time></trkpt><trkpt lat="44.88990681328402" lon="8.6873300479103"><ele>96.0</ele><time>2026-04-28T07:08:11.999Z</time></trkpt><trkpt lat="44.89001320497071" lon="8.68719181190515"><ele>96.0</ele><time>2026-04-28T07:08:12.999Z</time></trkpt><trkpt lat="44.89008786900247" lon="8.687033193089265"><ele>96.0</ele><time>2026-04-28T07:08:13.999Z</time></trkpt><trkpt lat="44.890160349803516" lon="8.686879211497365"><ele>96.0</ele><time>2026-04-28T07:08:14.999Z</time></trkpt><trkpt lat="44.89021701577256" lon="8.686727423137848"><ele>96.16666666666667</ele><time>2026-04-28T07:08:15.999Z</time></trkpt><trkpt lat="44.890261048806686" lon="8.686625294873476"><ele>96.33333333333334</ele><time>2026-04-28T07:08:16.999Z</time></trkpt><trkpt lat="44.89031978069975" lon="8.686542611773216"><ele>96.5</ele><time>2026-04-28T07:08:17.999Z</time></trkpt><trkpt lat="44.89036441886774" lon="8.686448526771606"><ele>96.66666666666667</ele><time>2026-04-28T07:08:18.999Z</time></trkpt><trkpt lat="44.89040774505513" lon="8.686357207018311"><ele>96.83333333333334</ele><time>2026-04-28T07:08:19.999Z</time></trkpt><trkpt lat="44.890460144804116" lon="8.686246762700742"><ele>97.0</ele><time>2026-04-28T07:08:20.999Z</time></trkpt><trkpt lat="44.890516511998456" lon="8.686127956107512"><ele>97.0</ele><time>2026-04-28T07:08:21.999Z</time></trkpt><trkpt lat="44.89058309161629" lon="8.685987624587097"><ele>97.0</ele><time>2026-04-28T07:08:22.999Z</time></trkpt><trkpt lat="44.89064750486441" lon="8.685811093153744"><ele>97.0</ele><time>2026-04-28T07:08:23.999Z</time></trkpt><trkpt lat="44.890738826879335" lon="8.685642443761646"><ele>97.0</ele><time>2026-04-28T07:08:24.999Z</time></trkpt><trkpt lat="44.8908304756516" lon="8.685441786653174"><ele>96.33333333333334</ele><time>2026-04-28T07:08:25.999Z</time></trkpt><trkpt lat="44.89095372857626" lon="8.685218678803283"><ele>95.66666666666667</ele><time>2026-04-28T07:08:27Z</time></trkpt><trkpt lat="44.891054045988625" lon="8.684988746815133"><ele>95.0</ele><time>2026-04-28T07:08:28Z</time></trkpt><trkpt lat="44.89114750053194" lon="8.684784734909174"><ele>95.0</ele><time>2026-04-28T07:08:29Z</time></trkpt><trkpt lat="44.89123701921916" lon="8.684598005293292"><ele>95.0</ele><time>2026-04-28T07:08:30Z</time></trkpt><trkpt lat="44.89131236563366" lon="8.684429051858364"><ele>95.0</ele><time>2026-04-28T07:08:31Z</time></trkpt><trkpt lat="44.891385253769336" lon="8.684267274010308"><ele>95.0</ele><time>2026-04-28T07:08:32Z</time></trkpt><trkpt lat="44.891451436184234" lon="8.684118660289757"><ele>95.25</ele><time>2026-04-28T07:08:33Z</time></trkpt><trkpt lat="44.891510832074545" lon="8.683976950229416"><ele>95.5</ele><time>2026-04-28T07:08:34Z</time></trkpt><trkpt lat="44.89158656003919" lon="8.683847771158085"><ele>95.75</ele><time>2026-04-28T07:08:35Z</time></trkpt><trkpt lat="44.891639573411425" lon="8.68370892005878"><ele>96.0</ele><time>2026-04-28T07:08:36Z</time></trkpt><trkpt lat="44.89169020914824" lon="8.683573795598226"><ele>96.0</ele><time>2026-04-28T07:08:37Z</time></trkpt><trkpt lat="44.89174191410697" lon="8.683426745080437"><ele>96.0</ele><time>2026-04-28T07:08:38Z</time></trkpt><trkpt lat="44.891799555781425" lon="8.683281521024904"><ele>96.0</ele><time>2026-04-28T07:08:39Z</time></trkpt><trkpt lat="44.8918637918542" lon="8.683121769153722"><ele>96.0</ele><time>2026-04-28T07:08:40Z</time></trkpt><trkpt lat="44.89192128022903" lon="8.682962280618863"><ele>95.75</ele><time>2026-04-28T07:08:41Z</time></trkpt><trkpt lat="44.89197462400756" lon="8.682812066070069"><ele>95.5</ele><time>2026-04-28T07:08:42Z</time></trkpt><trkpt lat="44.89202095339518" lon="8.682668810178575"><ele>95.25</ele><time>2026-04-28T07:08:43Z</time></trkpt><trkpt lat="44.89206019310049" lon="8.682516915923117"><ele>95.0</ele><time>2026-04-28T07:08:44Z</time></trkpt><trkpt lat="44.89210266054969" lon="8.682366952467012"><ele>94.75</ele><time>2026-04-28T07:08:45Z</time></trkpt><trkpt lat="44.89214899288405" lon="8.68221251312035"><ele>94.5</ele><time>2026-04-28T07:08:46Z</time></trkpt><trkpt lat="44.89219495906488" lon="8.682043867920003"><ele>94.25</ele><time>2026-04-28T07:08:47Z</time></trkpt><trkpt lat="44.89223998256823" lon="8.681856406391061"><ele>94.0</ele><time>2026-04-28T07:08:48Z</time></trkpt><trkpt lat="44.89229541916021" lon="8.68165002201218"><ele>94.0</ele><time>2026-04-28T07:08:49Z</time></trkpt><trkpt lat="44.892349646583284" lon="8.68141410813308"><ele>94.0</ele><time>2026-04-28T07:08:50Z</time></trkpt><trkpt lat="44.89240765323505" lon="8.68116877795927"><ele>94.0</ele><time>2026-04-28T07:08:51Z</time></trkpt><trkpt lat="44.89246794944401" lon="8.680957312941013"><ele>94.25</ele><time>2026-04-28T07:08:52Z</time></trkpt><trkpt lat="44.892507500547914" lon="8.680746589494017"><ele>94.5</ele><time>2026-04-28T07:08:53Z</time></trkpt><trkpt lat="44.892544562459335" lon="8.680547221358434"><ele>94.75</ele><time>2026-04-28T07:08:54Z</time></trkpt><trkpt lat="44.892580450839674" lon="8.680351149318836"><ele>95.0</ele><time>2026-04-28T07:08:55Z</time></trkpt><trkpt lat="44.892613989251785" lon="8.680161147235918"><ele>94.5</ele><time>2026-04-28T07:08:56Z</time></trkpt><trkpt lat="44.89263134574187" lon="8.679970401964754"><ele>94.0</ele><time>2026-04-28T07:08:57Z</time></trkpt><trkpt lat="44.892676074082495" lon="8.679793096927856"><ele>93.5</ele><time>2026-04-28T07:08:58Z</time></trkpt><trkpt lat="44.89270511778582" lon="8.67961996699077"><ele>93.0</ele><time>2026-04-28T07:08:59Z</time></trkpt><trkpt lat="44.89273273616426" lon="8.679455333472944"><ele>93.0</ele><time>2026-04-28T07:09:00Z</time></trkpt><trkpt lat="44.89274530755422" lon="8.679283036096589"><ele>93.0</ele><time>2026-04-28T07:09:01Z</time></trkpt><trkpt lat="44.892778562618076" lon="8.679133176625113"><ele>93.0</ele><time>2026-04-28T07:09:02Z</time></trkpt><trkpt lat="44.892800392489995" lon="8.678975597950519"><ele>93.0</ele><time>2026-04-28T07:09:03Z</time></trkpt><trkpt lat="44.89283031569603" lon="8.678834171173277"><ele>93.0</ele><time>2026-04-28T07:09:04Z</time></trkpt><trkpt lat="44.89285217931312" lon="8.678674945608337"><ele>93.0</ele><time>2026-04-28T07:09:05Z</time></trkpt><trkpt lat="44.89287719284952" lon="8.678507616483005"><ele>93.0</ele><time>2026-04-28T07:09:06Z</time></trkpt><trkpt lat="44.89290923087123" lon="8.678349079757787"><ele>93.0</ele><time>2026-04-28T07:09:07Z</time></trkpt><trkpt lat="44.8929416242364" lon="8.67820098971272"><ele>93.0</ele><time>2026-04-28T07:09:08Z</time></trkpt><trkpt lat="44.892971111103236" lon="8.678051880784587"><ele>93.0</ele><time>2026-04-28T07:09:09Z</time></trkpt><trkpt lat="44.892997746971815" lon="8.677907144738523"><ele>93.0</ele><time>2026-04-28T07:09:10Z</time></trkpt><trkpt lat="44.893015679547624" lon="8.67778392164539"><ele>93.0</ele><time>2026-04-28T07:09:11Z</time></trkpt><trkpt lat="44.8930346163881" lon="8.677644931405638"><ele>93.0</ele><time>2026-04-28T07:09:12Z</time></trkpt><trkpt lat="44.89305387167455" lon="8.677495893928555"><ele>93.0</ele><time>2026-04-28T07:09:13Z</time></trkpt><trkpt lat="44.89308557438656" lon="8.677348687256952"><ele>93.0</ele><time>2026-04-28T07:09:14Z</time></trkpt><trkpt lat="44.89311575541604" lon="8.677170137702058"><ele>93.0</ele><time>2026-04-28T07:09:15Z</time></trkpt><trkpt lat="44.893141957777" lon="8.676998540621764"><ele>93.0</ele><time>2026-04-28T07:09:16Z</time></trkpt><trkpt lat="44.8931671636899" lon="8.67683902463173"><ele>92.80000000000001</ele><time>2026-04-28T07:09:17Z</time></trkpt><trkpt lat="44.893191620788215" lon="8.676685316871737"><ele>92.6</ele><time>2026-04-28T07:09:18Z</time></trkpt><trkpt lat="44.893212566056064" lon="8.676555344590339"><ele>92.4</ele><time>2026-04-28T07:09:19Z</time></trkpt><trkpt lat="44.8932294776661" lon="8.676454130335367"><ele>92.19999999999999</ele><time>2026-04-28T07:09:19.999Z</time></trkpt><trkpt lat="44.8932646780086" lon="8.676318089630335"><ele>92.0</ele><time>2026-04-28T07:09:21.999Z</time></trkpt><trkpt lat="44.893318338245884" lon="8.676155803923931"><ele>91.8</ele><time>2026-04-28T07:09:23.999Z</time></trkpt><trkpt lat="44.89336063483132" lon="8.676061701789918"><ele>91.6</ele><time>2026-04-28T07:09:24.999Z</time></trkpt><trkpt lat="44.89346625636944" lon="8.675939465182756"><ele>91.39999999999999</ele><time>2026-04-28T07:09:26.999Z</time></trkpt><trkpt lat="44.89354660159181" lon="8.675854950411205"><ele>91.19999999999999</ele><time>2026-04-28T07:09:27.999Z</time></trkpt><trkpt lat="44.89362266587362" lon="8.675763888350211"><ele>91.0</ele><time>2026-04-28T07:09:28.999Z</time></trkpt><trkpt lat="44.89367122379072" lon="8.675685987344709"><ele>90.8</ele><time>2026-04-28T07:09:29.999Z</time></trkpt><trkpt lat="44.893707521139106" lon="8.6755835127804"><ele>90.6</ele><time>2026-04-28T07:09:30.999Z</time></trkpt><trkpt lat="44.89371464389477" lon="8.675460136593443"><ele>90.4</ele><time>2026-04-28T07:09:31.999Z</time></trkpt><trkpt lat="44.893698964416316" lon="8.67532835499754"><ele>90.2</ele><time>2026-04-28T07:09:32.999Z</time></trkpt><trkpt lat="44.893669446395016" lon="8.675185194045206"><ele>90.0</ele><time>2026-04-28T07:09:33.999Z</time></trkpt><trkpt lat="44.893629321511305" lon="8.675019573551443"><ele>90.66666666666667</ele><time>2026-04-28T07:09:34.999Z</time></trkpt><trkpt lat="44.89361101654803" lon="8.674824181530198"><ele>91.33333333333334</ele><time>2026-04-28T07:09:35.999Z</time></trkpt><trkpt lat="44.89361149345148" lon="8.674611828868818"><ele>92.0</ele><time>2026-04-28T07:09:36.999Z</time></trkpt><trkpt lat="44.89363414811862" lon="8.674351827385188"><ele>92.33333333333334</ele><time>2026-04-28T07:09:37.999Z</time></trkpt><trkpt lat="44.89367963140195" lon="8.67405992291832"><ele>92.66666666666667</ele><time>2026-04-28T07:09:38.999Z</time></trkpt><trkpt lat="44.89373074600775" lon="8.67378176668671"><ele>93.0</ele><time>2026-04-28T07:09:39.999Z</time></trkpt><trkpt lat="44.89377654041997" lon="8.673506702165676"><ele>94.0</ele><time>2026-04-28T07:09:40.999Z</time></trkpt><trkpt lat="44.89381484366373" lon="8.673250056525637"><ele>95.0</ele><time>2026-04-28T07:09:41.999Z</time></trkpt><trkpt lat="44.89385057242174" lon="8.672995423640804"><ele>96.0</ele><time>2026-04-28T07:09:42.999Z</time></trkpt><trkpt lat="44.89388645297762" lon="8.67271929885908"><ele>96.0</ele><time>2026-04-28T07:09:43.999Z</time></trkpt><trkpt lat="44.89393482464859" lon="8.672434271815684"><ele>96.0</ele><time>2026-04-28T07:09:44.999Z</time></trkpt><trkpt lat="44.89398621629282" lon="8.672121206284471"><ele>96.0</ele><time>2026-04-28T07:09:45.999Z</time></trkpt><trkpt lat="44.89403557001413" lon="8.671787839529763"><ele>95.66666666666667</ele><time>2026-04-28T07:09:46.999Z</time></trkpt><trkpt lat="44.89408090768314" lon="8.671489142763575"><ele>95.33333333333334</ele><time>2026-04-28T07:09:47.999Z</time></trkpt><trkpt lat="44.894123074712674" lon="8.67120951888856"><ele>95.0</ele><time>2026-04-28T07:09:48.999Z</time></trkpt><trkpt lat="44.894157970367246" lon="8.67095756193194"><ele>95.0</ele><time>2026-04-28T07:09:49.999Z</time></trkpt><trkpt lat="44.89420087545275" lon="8.67070033412045"><ele>95.0</ele><time>2026-04-28T07:09:50.999Z</time></trkpt><trkpt lat="44.89424162910562" lon="8.67045511693091"><ele>95.0</ele><time>2026-04-28T07:09:51.999Z</time></trkpt><trkpt lat="44.89427792140953" lon="8.67021111181657"><ele>95.0</ele><time>2026-04-28T07:09:52.999Z</time></trkpt><trkpt lat="44.89431619256123" lon="8.669964826129979"><ele>95.0</ele><time>2026-04-28T07:09:53.999Z</time></trkpt><trkpt lat="44.89436882264965" lon="8.669705267083577"><ele>95.0</ele><time>2026-04-28T07:09:54.999Z</time></trkpt><trkpt lat="44.894443647276084" lon="8.669443103794858"><ele>94.0</ele><time>2026-04-28T07:09:55.999Z</time></trkpt><trkpt lat="44.89454788683014" lon="8.669178161584739"><ele>93.0</ele><time>2026-04-28T07:09:56.999Z</time></trkpt><trkpt lat="44.894673920044355" lon="8.668924860463454"><ele>92.0</ele><time>2026-04-28T07:09:57.999Z</time></trkpt><trkpt lat="44.894828689764545" lon="8.668681939910465"><ele>91.5</ele><time>2026-04-28T07:09:58.999Z</time></trkpt><trkpt lat="44.89498754288259" lon="8.668429560483656"><ele>91.0</ele><time>2026-04-28T07:09:59.999Z</time></trkpt><trkpt lat="44.89513923528268" lon="8.66820641839545"><ele>91.0</ele><time>2026-04-28T07:10:00.999Z</time></trkpt><trkpt lat="44.89527308243972" lon="8.667975742837479"><ele>91.0</ele><time>2026-04-28T07:10:01.999Z</time></trkpt><trkpt lat="44.895399754065664" lon="8.667738989047086"><ele>91.0</ele><time>2026-04-28T07:10:02.999Z</time></trkpt><trkpt lat="44.89549750186899" lon="8.66749237044504"><ele>91.0</ele><time>2026-04-28T07:10:03.999Z</time></trkpt><trkpt lat="44.89559029950844" lon="8.667246842095322"><ele>91.0</ele><time>2026-04-28T07:10:04.999Z</time></trkpt><trkpt lat="44.895681317253754" lon="8.66697571792086"><ele>91.0</ele><time>2026-04-28T07:10:05.999Z</time></trkpt><trkpt lat="44.89578299159493" lon="8.66667926410245"><ele>91.5</ele><time>2026-04-28T07:10:06.999Z</time></trkpt><trkpt lat="44.895901648570266" lon="8.666363946389607"><ele>92.0</ele><time>2026-04-28T07:10:07.999Z</time></trkpt><trkpt lat="44.89602431313183" lon="8.666077202775133"><ele>94.0</ele><time>2026-04-28T07:10:08.999Z</time></trkpt><trkpt lat="44.89614812898611" lon="8.665816687091365"><ele>96.0</ele><time>2026-04-28T07:10:09.999Z</time></trkpt><trkpt lat="44.89627738188747" lon="8.665550579633376"><ele>95.5</ele><time>2026-04-28T07:10:10.999Z</time></trkpt><trkpt lat="44.89640588646887" lon="8.665274997096871"><ele>95.0</ele><time>2026-04-28T07:10:11.999Z</time></trkpt><trkpt lat="44.89654051407321" lon="8.664993253603077"><ele>95.0</ele><time>2026-04-28T07:10:12.999Z</time></trkpt><trkpt lat="44.89666982665586" lon="8.664702951414666"><ele>95.0</ele><time>2026-04-28T07:10:13.999Z</time></trkpt><trkpt lat="44.89681500725863" lon="8.664385470190421"><ele>93.0</ele><time>2026-04-28T07:10:14.999Z</time></trkpt><trkpt lat="44.89697328362276" lon="8.66404660457259"><ele>91.0</ele><time>2026-04-28T07:10:15.999Z</time></trkpt><trkpt lat="44.89714301201969" lon="8.66369386440257"><ele>91.0</ele><time>2026-04-28T07:10:16.999Z</time></trkpt><trkpt lat="44.89728436624689" lon="8.663373066660956"><ele>91.0</ele><time>2026-04-28T07:10:17.999Z</time></trkpt><trkpt lat="44.897417294526605" lon="8.663067607559935"><ele>91.0</ele><time>2026-04-28T07:10:18.999Z</time></trkpt><trkpt lat="44.897551996562946" lon="8.662781819239564"><ele>91.0</ele><time>2026-04-28T07:10:19.999Z</time></trkpt><trkpt lat="44.89768296683769" lon="8.662494524783302"><ele>91.0</ele><time>2026-04-28T07:10:20.999Z</time></trkpt><trkpt lat="44.897816070594246" lon="8.662214222102216"><ele>91.0</ele><time>2026-04-28T07:10:21.999Z</time></trkpt><trkpt lat="44.89794161006753" lon="8.661937199787507"><ele>91.0</ele><time>2026-04-28T07:10:22.999Z</time></trkpt><trkpt lat="44.89807166550861" lon="8.661682812728795"><ele>91.0</ele><time>2026-04-28T07:10:23.999Z</time></trkpt><trkpt lat="44.89819069729185" lon="8.661424146269427"><ele>91.0</ele><time>2026-04-28T07:10:24.999Z</time></trkpt><trkpt lat="44.89831177435149" lon="8.661167799000383"><ele>90.33333333333333</ele><time>2026-04-28T07:10:25.999Z</time></trkpt><trkpt lat="44.898413234990535" lon="8.660904169619856"><ele>89.66666666666667</ele><time>2026-04-28T07:10:26.999Z</time></trkpt><trkpt lat="44.89853747681411" lon="8.660649986379198"><ele>89.0</ele><time>2026-04-28T07:10:27.999Z</time></trkpt><trkpt lat="44.89865836774004" lon="8.66039806978247"><ele>89.0</ele><time>2026-04-28T07:10:28.999Z</time></trkpt><trkpt lat="44.89876848526064" lon="8.660144897624757"><ele>89.0</ele><time>2026-04-28T07:10:29.999Z</time></trkpt><trkpt lat="44.89888938546959" lon="8.659913840572553"><ele>89.0</ele><time>2026-04-28T07:10:30.999Z</time></trkpt><trkpt lat="44.89901115015037" lon="8.65968289092384"><ele>89.33333333333334</ele><time>2026-04-28T07:10:31.999Z</time></trkpt><trkpt lat="44.89913461544656" lon="8.659447458931187"><ele>89.66666666666667</ele><time>2026-04-28T07:10:33Z</time></trkpt><trkpt lat="44.89925569661138" lon="8.659196932739595"><ele>90.0</ele><time>2026-04-28T07:10:34Z</time></trkpt><trkpt lat="44.89937887118829" lon="8.658949867496878"><ele>90.0</ele><time>2026-04-28T07:10:35Z</time></trkpt><trkpt lat="44.89949220640161" lon="8.658708433622278"><ele>90.0</ele><time>2026-04-28T07:10:36Z</time></trkpt><trkpt lat="44.89960560670081" lon="8.658459283659298"><ele>90.0</ele><time>2026-04-28T07:10:37Z</time></trkpt><trkpt lat="44.899716794894815" lon="8.658214768812377"><ele>90.0</ele><time>2026-04-28T07:10:38Z</time></trkpt><trkpt lat="44.89983205692562" lon="8.657969430286045"><ele>90.0</ele><time>2026-04-28T07:10:39Z</time></trkpt><trkpt lat="44.89994933578832" lon="8.657714464732553"><ele>90.0</ele><time>2026-04-28T07:10:40Z</time></trkpt><trkpt lat="44.900063612705154" lon="8.657452766833865"><ele>91.0</ele><time>2026-04-28T07:10:41Z</time></trkpt><trkpt lat="44.900182388706455" lon="8.657190776171651"><ele>92.0</ele><time>2026-04-28T07:10:42Z</time></trkpt><trkpt lat="44.90029473616428" lon="8.656947688496693"><ele>93.0</ele><time>2026-04-28T07:10:43Z</time></trkpt><trkpt lat="44.90039360436911" lon="8.656712620284752"><ele>93.0</ele><time>2026-04-28T07:10:44Z</time></trkpt><trkpt lat="44.90049485713377" lon="8.656486884777788"><ele>93.0</ele><time>2026-04-28T07:10:45Z</time></trkpt><trkpt lat="44.90060122400418" lon="8.656268832412943"><ele>93.0</ele><time>2026-04-28T07:10:46Z</time></trkpt><trkpt lat="44.900698698201616" lon="8.656059410502598"><ele>92.66666666666667</ele><time>2026-04-28T07:10:47Z</time></trkpt><trkpt lat="44.90079221415291" lon="8.655853306772897"><ele>92.33333333333334</ele><time>2026-04-28T07:10:48Z</time></trkpt><trkpt lat="44.90088789687614" lon="8.655652548204827"><ele>92.0</ele><time>2026-04-28T07:10:49Z</time></trkpt><trkpt lat="44.90097715265427" lon="8.65545499925853"><ele>91.33333333333334</ele><time>2026-04-28T07:10:50Z</time></trkpt><trkpt lat="44.90106813053916" lon="8.655267894555568"><ele>90.66666666666667</ele><time>2026-04-28T07:10:51Z</time></trkpt><trkpt lat="44.90115283668538" lon="8.655081755598248"><ele>90.0</ele><time>2026-04-28T07:10:52Z</time></trkpt><trkpt lat="44.901236629101774" lon="8.654898435455943"><ele>90.0</ele><time>2026-04-28T07:10:53Z</time></trkpt><trkpt lat="44.90131724994146" lon="8.654724768539735"><ele>90.0</ele><time>2026-04-28T07:10:54Z</time></trkpt><trkpt lat="44.901379219622534" lon="8.654586092918521"><ele>90.0</ele><time>2026-04-28T07:10:55Z</time></trkpt><trkpt lat="44.90143080928347" lon="8.654475081452722"><ele>90.0</ele><time>2026-04-28T07:10:56Z</time></trkpt><trkpt lat="44.90148094519347" lon="8.654393463072061"><ele>90.0</ele><time>2026-04-28T07:10:57Z</time></trkpt><trkpt lat="44.901532790904746" lon="8.654325356731498"><ele>89.83333333333333</ele><time>2026-04-28T07:10:58Z</time></trkpt><trkpt lat="44.90159214629013" lon="8.6542734294641"><ele>89.66666666666667</ele><time>2026-04-28T07:10:59Z</time></trkpt><trkpt lat="44.90167830473089" lon="8.654222370150329"><ele>89.5</ele><time>2026-04-28T07:11:00Z</time></trkpt><trkpt lat="44.90175533584838" lon="8.654171816150683"><ele>89.33333333333334</ele><time>2026-04-28T07:11:01Z</time></trkpt><trkpt lat="44.9018140488763" lon="8.654101134647258"><ele>89.16666666666667</ele><time>2026-04-28T07:11:02Z</time></trkpt><trkpt lat="44.90186209016756" lon="8.6539880929356"><ele>89.0</ele><time>2026-04-28T07:11:03Z</time></trkpt><trkpt lat="44.90187329030812" lon="8.653882257164167"><ele>88.99999999999999</ele><time>2026-04-28T07:11:04Z</time></trkpt><trkpt lat="44.90185540411222" lon="8.65379282714053"><ele>89.0</ele><time>2026-04-28T07:11:05Z</time></trkpt><trkpt lat="44.90181965960585" lon="8.653710475728076"><ele>89.0</ele><time>2026-04-28T07:11:06Z</time></trkpt><trkpt lat="44.90179425100507" lon="8.653628259988214"><ele>89.0</ele><time>2026-04-28T07:11:07Z</time></trkpt><trkpt lat="44.901701495437145" lon="8.653618112872515"><ele>89.0</ele><time>2026-04-28T07:11:08Z</time></trkpt><trkpt lat="44.90163367829749" lon="8.653616120010495"><ele>88.99999999999999</ele><time>2026-04-28T07:11:09Z</time></trkpt><trkpt lat="44.90155991051543" lon="8.65364250728491"><ele>89.0</ele><time>2026-04-28T07:11:10Z</time></trkpt><trkpt lat="44.90149701795937" lon="8.653696310489556"><ele>89.0</ele><time>2026-04-28T07:11:11Z</time></trkpt><trkpt lat="44.90145168125618" lon="8.653789381968844"><ele>89.0</ele><time>2026-04-28T07:11:12Z</time></trkpt><trkpt lat="44.901428393199375" lon="8.653913856431172"><ele>89.0</ele><time>2026-04-28T07:11:13Z</time></trkpt><trkpt lat="44.901422392961095" lon="8.6540795514323"><ele>89.0</ele><time>2026-04-28T07:11:14Z</time></trkpt><trkpt lat="44.90140923373608" lon="8.654258540384031"><ele>89.0</ele><time>2026-04-28T07:11:15Z</time></trkpt><trkpt lat="44.901365178850874" lon="8.65443431489972"><ele>89.33333333333334</ele><time>2026-04-28T07:11:16Z</time></trkpt><trkpt lat="44.901288350697214" lon="8.65462678613991"><ele>89.66666666666667</ele><time>2026-04-28T07:11:17Z</time></trkpt><trkpt lat="44.90117996658784" lon="8.654843841082007"><ele>90.0</ele><time>2026-04-28T07:11:18Z</time></trkpt><trkpt lat="44.9010505148266" lon="8.655093362186363"><ele>90.0</ele><time>2026-04-28T07:11:19Z</time></trkpt><trkpt lat="44.9009254851352" lon="8.655375822825743"><ele>90.0</ele><time>2026-04-28T07:11:20Z</time></trkpt><trkpt lat="44.90079413880635" lon="8.655681706145758"><ele>91.0</ele><time>2026-04-28T07:11:21Z</time></trkpt><trkpt lat="44.90065394192839" lon="8.6559789389603"><ele>92.0</ele><time>2026-04-28T07:11:22Z</time></trkpt><trkpt lat="44.900530730090914" lon="8.65624934723554"><ele>92.33333333333334</ele><time>2026-04-28T07:11:23Z</time></trkpt><trkpt lat="44.90041368552254" lon="8.656507310003793"><ele>92.66666666666667</ele><time>2026-04-28T07:11:24Z</time></trkpt><trkpt lat="44.900296942963706" lon="8.656755881278631"><ele>93.0</ele><time>2026-04-28T07:11:25Z</time></trkpt><trkpt lat="44.90018628905144" lon="8.656994525062514"><ele>93.0</ele><time>2026-04-28T07:11:25.999Z</time></trkpt><trkpt lat="44.90007438501246" lon="8.657235286505657"><ele>93.0</ele><time>2026-04-28T07:11:26.999Z</time></trkpt><trkpt lat="44.89997057014302" lon="8.65745952808983"><ele>93.0</ele><time>2026-04-28T07:11:27.999Z</time></trkpt><trkpt lat="44.899864366045364" lon="8.657677912683711"><ele>92.0</ele><time>2026-04-28T07:11:28.999Z</time></trkpt><trkpt lat="44.89976344112197" lon="8.657888130006715"><ele>91.0</ele><time>2026-04-28T07:11:29.999Z</time></trkpt><trkpt lat="44.89966664205401" lon="8.658103763537529"><ele>90.0</ele><time>2026-04-28T07:11:30.999Z</time></trkpt><trkpt lat="44.89956333683411" lon="8.658321184514355"><ele>90.0</ele><time>2026-04-28T07:11:31.999Z</time></trkpt><trkpt lat="44.89946001374543" lon="8.658544622846366"><ele>90.0</ele><time>2026-04-28T07:11:32.999Z</time></trkpt><trkpt lat="44.899360703948474" lon="8.658769017714096"><ele>90.0</ele><time>2026-04-28T07:11:33.999Z</time></trkpt><trkpt lat="44.89924991122465" lon="8.658998156496137"><ele>90.0</ele><time>2026-04-28T07:11:34.999Z</time></trkpt><trkpt lat="44.89913678152527" lon="8.659228283678878"><ele>90.0</ele><time>2026-04-28T07:11:35.999Z</time></trkpt><trkpt lat="44.89902004500487" lon="8.65946003367956"><ele>90.0</ele><time>2026-04-28T07:11:36.999Z</time></trkpt><trkpt lat="44.898902989883965" lon="8.659686220493002"><ele>89.66666666666667</ele><time>2026-04-28T07:11:37.999Z</time></trkpt><trkpt lat="44.89878079546267" lon="8.659915336205751"><ele>89.33333333333334</ele><time>2026-04-28T07:11:38.999Z</time></trkpt><trkpt lat="44.89866722802861" lon="8.660143426302815"><ele>89.0</ele><time>2026-04-28T07:11:39.999Z</time></trkpt><trkpt lat="44.89855434687507" lon="8.660373363065018"><ele>89.0</ele><time>2026-04-28T07:11:40.999Z</time></trkpt><trkpt lat="44.898446046765955" lon="8.660607167221068"><ele>89.0</ele><time>2026-04-28T07:11:41.999Z</time></trkpt><trkpt lat="44.89834024869002" lon="8.660835651922968"><ele>89.0</ele><time>2026-04-28T07:11:42.999Z</time></trkpt><trkpt lat="44.89823503467627" lon="8.6610569769126"><ele>89.66666666666667</ele><time>2026-04-28T07:11:43.999Z</time></trkpt><trkpt lat="44.89812921845577" lon="8.66127973288051"><ele>90.33333333333333</ele><time>2026-04-28T07:11:44.999Z</time></trkpt><trkpt lat="44.89802636273127" lon="8.661499149931645"><ele>91.0</ele><time>2026-04-28T07:11:45.999Z</time></trkpt><trkpt lat="44.89792367055421" lon="8.66171508725425"><ele>91.0</ele><time>2026-04-28T07:11:46.999Z</time></trkpt><trkpt lat="44.897822900314786" lon="8.661934435807916"><ele>91.0</ele><time>2026-04-28T07:11:47.999Z</time></trkpt><trkpt lat="44.8977239130391" lon="8.662149413273138"><ele>91.0</ele><time>2026-04-28T07:11:48.999Z</time></trkpt><trkpt lat="44.89762219233503" lon="8.662363279422692"><ele>91.0</ele><time>2026-04-28T07:11:49.999Z</time></trkpt><trkpt lat="44.89752357431041" lon="8.662578863014927"><ele>91.0</ele><time>2026-04-28T07:11:50.999Z</time></trkpt><trkpt lat="44.897423321408326" lon="8.66279903681573"><ele>91.0</ele><time>2026-04-28T07:11:51.999Z</time></trkpt><trkpt lat="44.89732277730317" lon="8.663026082456142"><ele>91.0</ele><time>2026-04-28T07:11:52.999Z</time></trkpt><trkpt lat="44.89722025954779" lon="8.66325208277959"><ele>91.0</ele><time>2026-04-28T07:11:53.999Z</time></trkpt><trkpt lat="44.89711852036805" lon="8.663476499821273"><ele>91.0</ele><time>2026-04-28T07:11:54.999Z</time></trkpt><trkpt lat="44.89701642683149" lon="8.663702013480917"><ele>91.0</ele><time>2026-04-28T07:11:55.999Z</time></trkpt><trkpt lat="44.89691319532988" lon="8.663938552905213"><ele>91.0</ele><time>2026-04-28T07:11:56.999Z</time></trkpt><trkpt lat="44.89680419647408" lon="8.664180239270186"><ele>91.0</ele><time>2026-04-28T07:11:57.999Z</time></trkpt><trkpt lat="44.89669236978381" lon="8.664422809356358"><ele>92.33333333333333</ele><time>2026-04-28T07:11:58.999Z</time></trkpt><trkpt lat="44.89657537079679" lon="8.664665237630008"><ele>93.66666666666667</ele><time>2026-04-28T07:11:59.999Z</time></trkpt><trkpt lat="44.89646333822466" lon="8.664913614630182"><ele>95.0</ele><time>2026-04-28T07:12:00.999Z</time></trkpt><trkpt lat="44.89635051064682" lon="8.665160133167921"><ele>95.33333333333334</ele><time>2026-04-28T07:12:01.999Z</time></trkpt><trkpt lat="44.89624019312256" lon="8.665404274630042"><ele>95.66666666666667</ele><time>2026-04-28T07:12:02.999Z</time></trkpt><trkpt lat="44.896127192240655" lon="8.665650993829855"><ele>96.0</ele><time>2026-04-28T07:12:03.999Z</time></trkpt><trkpt lat="44.896017546554326" lon="8.665904082130794"><ele>94.66666666666667</ele><time>2026-04-28T07:12:04.999Z</time></trkpt><trkpt lat="44.89591603286766" lon="8.666150259498172"><ele>93.33333333333334</ele><time>2026-04-28T07:12:05.999Z</time></trkpt><trkpt lat="44.89582096775541" lon="8.666380347949046"><ele>92.0</ele><time>2026-04-28T07:12:06.999Z</time></trkpt><trkpt lat="44.89572994784561" lon="8.666601659877452"><ele>92.0</ele><time>2026-04-28T07:12:07.999Z</time></trkpt><trkpt lat="44.895649005838656" lon="8.666839530517386"><ele>92.0</ele><time>2026-04-28T07:12:08.999Z</time></trkpt><trkpt lat="44.89556563871275" lon="8.667081640583286"><ele>92.0</ele><time>2026-04-28T07:12:09.999Z</time></trkpt><trkpt lat="44.89548061934787" lon="8.667312812200656"><ele>91.66666666666667</ele><time>2026-04-28T07:12:10.999Z</time></trkpt><trkpt lat="44.89538987286867" lon="8.66754038134933"><ele>91.33333333333333</ele><time>2026-04-28T07:12:11.999Z</time></trkpt><trkpt lat="44.895282347670424" lon="8.66778535106761"><ele>91.0</ele><time>2026-04-28T07:12:12.999Z</time></trkpt><trkpt lat="44.89513874110521" lon="8.668043254428826"><ele>91.0</ele><time>2026-04-28T07:12:13.999Z</time></trkpt><trkpt lat="44.89499307748057" lon="8.668275607277984"><ele>91.0</ele><time>2026-04-28T07:12:14.999Z</time></trkpt><trkpt lat="44.89486504553009" lon="8.668497110035773"><ele>91.0</ele><time>2026-04-28T07:12:15.999Z</time></trkpt><trkpt lat="44.8947466657434" lon="8.668707698325985"><ele>91.33333333333333</ele><time>2026-04-28T07:12:16.999Z</time></trkpt><trkpt lat="44.89462480352976" lon="8.66892065010093"><ele>91.66666666666667</ele><time>2026-04-28T07:12:17.999Z</time></trkpt><trkpt lat="44.89451327609794" lon="8.669124126933314"><ele>92.0</ele><time>2026-04-28T07:12:18.999Z</time></trkpt><trkpt lat="44.894418086546345" lon="8.669341676306214"><ele>92.33333333333334</ele><time>2026-04-28T07:12:19.999Z</time></trkpt><trkpt lat="44.894333446755105" lon="8.669578129964417"><ele>92.66666666666667</ele><time>2026-04-28T07:12:20.999Z</time></trkpt><trkpt lat="44.894272127640996" lon="8.669841482036201"><ele>93.0</ele><time>2026-04-28T07:12:21.999Z</time></trkpt><trkpt lat="44.89422098334386" lon="8.6701224046401"><ele>93.66666666666667</ele><time>2026-04-28T07:12:22.999Z</time></trkpt><trkpt lat="44.894173856423365" lon="8.670410324010694"><ele>94.33333333333334</ele><time>2026-04-28T07:12:23.999Z</time></trkpt><trkpt lat="44.89413550494079" lon="8.670673790454375"><ele>95.0</ele><time>2026-04-28T07:12:24.999Z</time></trkpt><trkpt lat="44.894099006096674" lon="8.670925374472517"><ele>95.0</ele><time>2026-04-28T07:12:25.999Z</time></trkpt><trkpt lat="44.89406275270715" lon="8.671156541635206"><ele>95.0</ele><time>2026-04-28T07:12:26.999Z</time></trkpt><trkpt lat="44.89402193115375" lon="8.671385311648685"><ele>95.0</ele><time>2026-04-28T07:12:27.999Z</time></trkpt><trkpt lat="44.89398386427594" lon="8.671611232565152"><ele>95.0</ele><time>2026-04-28T07:12:28.999Z</time></trkpt><trkpt lat="44.89394753809339" lon="8.67182674539991"><ele>95.0</ele><time>2026-04-28T07:12:29.999Z</time></trkpt><trkpt lat="44.89391197523711" lon="8.672048731938771"><ele>95.0</ele><time>2026-04-28T07:12:30.999Z</time></trkpt><trkpt lat="44.89387780385364" lon="8.672272747412482"><ele>95.25</ele><time>2026-04-28T07:12:31.999Z</time></trkpt><trkpt lat="44.893841912481186" lon="8.672491240638955"><ele>95.5</ele><time>2026-04-28T07:12:32.999Z</time></trkpt><trkpt lat="44.893812228211104" lon="8.672690240404263"><ele>95.75</ele><time>2026-04-28T07:12:33.999Z</time></trkpt><trkpt lat="44.89377993834828" lon="8.67286601799588"><ele>96.0</ele><time>2026-04-28T07:12:34.999Z</time></trkpt><trkpt lat="44.89375815217693" lon="8.672993424687004"><ele>96.33333333333333</ele><time>2026-04-28T07:12:35.999Z</time></trkpt><trkpt lat="44.8937374360185" lon="8.673099067030414"><ele>96.66666666666666</ele><time>2026-04-28T07:12:36.999Z</time></trkpt><trkpt lat="44.89371380454533" lon="8.673190536408184"><ele>97.0</ele><time>2026-04-28T07:12:39Z</time></trkpt><trkpt lat="44.89362842665291" lon="8.673215259243399"><ele>97.33333333333333</ele><time>2026-04-28T07:12:42Z</time></trkpt><trkpt lat="44.89355752527384" lon="8.67317517884713"><ele>97.66666666666666</ele><time>2026-04-28T07:12:44Z</time></trkpt><trkpt lat="44.89348453373617" lon="8.673137364884555"><ele>98.0</ele><time>2026-04-28T07:17:28Z</time></trkpt><trkpt lat="44.89353442433476" lon="8.67305047624809"><ele>98.0</ele><time>2026-04-28T07:17:31Z</time></trkpt><trkpt lat="44.893598799127005" lon="8.673007186833965"><ele>98.0</ele><time>2026-04-28T07:17:43Z</time></trkpt><trkpt lat="44.89352739957681" lon="8.672911370618568"><ele>98.0</ele><time>2026-04-28T07:17:54.999Z</time></trkpt><trkpt lat="44.89348850825489" lon="8.672989533292577"><ele>98.0</ele><time>2026-04-28T07:19:18Z</time></trkpt><trkpt lat="44.893541691602785" lon="8.673044749758805"><ele>98.0</ele><time>2026-04-28T07:19:25Z</time></trkpt><trkpt lat="44.893541911891" lon="8.67314969886991"><ele>98.0</ele><time>2026-04-28T07:19:29Z</time></trkpt><trkpt lat="44.89349088526646" lon="8.67321902396425"><ele>98.0</ele><time>2026-04-28T07:19:33Z</time></trkpt><trkpt lat="44.893434280752544" lon="8.673264536333416"><ele>97.99999999999999</ele><time>2026-04-28T07:21:19Z</time></trkpt><trkpt lat="44.89351053245476" lon="8.673237422277245"><ele>98.0</ele><time>2026-04-28T07:23:00.999Z</time></trkpt><trkpt lat="44.893561416410826" lon="8.673155297821754"><ele>98.0</ele><time>2026-04-28T07:23:03.999Z</time></trkpt><trkpt lat="44.89355740446852" lon="8.67305695092009"><ele>98.0</ele><time>2026-04-28T07:23:10Z</time></trkpt><trkpt lat="44.893549822274956" lon="8.673169745649671"><ele>97.99999999999999</ele><time>2026-04-28T07:23:46Z</time></trkpt><trkpt lat="44.89347329112366" lon="8.673195001327318"><ele>98.0</ele><time>2026-04-28T07:23:56Z</time></trkpt><trkpt lat="44.89340244273347" lon="8.673178146678556"><ele>97.99999999999999</ele><time>2026-04-28T07:24:03.999Z</time></trkpt><trkpt lat="44.8933328637109" lon="8.673160035038304"><ele>98.0</ele><time>2026-04-28T07:24:08.999Z</time></trkpt><trkpt lat="44.893399262706666" lon="8.673197894219872"><ele>98.0</ele><time>2026-04-28T07:24:24.999Z</time></trkpt><trkpt lat="44.89345753158378" lon="8.673231701239047"><ele>98.0</ele><time>2026-04-28T07:24:30.999Z</time></trkpt><trkpt lat="44.89351363145572" lon="8.67316010078336"><ele>97.99999999999999</ele><time>2026-04-28T07:24:38.999Z</time></trkpt><trkpt lat="44.89351583589682" lon="8.673038481607682"><ele>98.0</ele><time>2026-04-28T07:24:46.999Z</time></trkpt><trkpt lat="44.893593220372004" lon="8.673107975493457"><ele>98.0</ele><time>2026-04-28T07:25:00.999Z</time></trkpt><trkpt lat="44.8935468263358" lon="8.673186288570387"><ele>98.0</ele><time>2026-04-28T07:25:16Z</time></trkpt><trkpt lat="44.89349664259339" lon="8.673242197521475"><ele>98.0</ele><time>2026-04-28T07:25:20Z</time></trkpt><trkpt lat="44.89344586586519" lon="8.67317528819679"><ele>98.0</ele><time>2026-04-28T07:25:25Z</time></trkpt><trkpt lat="44.893452827538255" lon="8.67328891930754"><ele>98.0</ele><time>2026-04-28T07:25:44Z</time></trkpt><trkpt lat="44.8935178264666" lon="8.673284736491048"><ele>98.0</ele><time>2026-04-28T07:28:39.999Z</time></trkpt><trkpt lat="44.89352654445279" lon="8.673176851030755"><ele>98.0</ele><time>2026-04-28T07:28:45.999Z</time></trkpt><trkpt lat="44.89358459778285" lon="8.673114900339415"><ele>97.99999999999999</ele><time>2026-04-28T07:28:49.999Z</time></trkpt><trkpt lat="44.89352168497903" lon="8.673154959301284"><ele>98.0</ele><time>2026-04-28T07:29:07.999Z</time></trkpt><trkpt lat="44.893476832386014" lon="8.67321804135445"><ele>98.0</ele><time>2026-04-28T07:29:14.999Z</time></trkpt><trkpt lat="44.89340442939749" lon="8.673251824168002"><ele>98.0</ele><time>2026-04-28T07:38:25Z</time></trkpt><trkpt lat="44.89329486914936" lon="8.673184761368066"><ele>97.99999999999999</ele><time>2026-04-28T07:38:28Z</time></trkpt><trkpt lat="44.893239131562225" lon="8.673073484259813"><ele>98.0</ele><time>2026-04-28T07:38:30Z</time></trkpt><trkpt lat="44.89317006090339" lon="8.6730370296502"><ele>97.2</ele><time>2026-04-28T07:38:32Z</time></trkpt><trkpt lat="44.89306142562843" lon="8.673081623287333"><ele>96.4</ele><time>2026-04-28T07:38:34Z</time></trkpt><trkpt lat="44.89296295786599" lon="8.673091221629644"><ele>95.60000000000001</ele><time>2026-04-28T07:38:36Z</time></trkpt><trkpt lat="44.892892817799186" lon="8.673088176240162"><ele>94.80000000000001</ele><time>2026-04-28T07:38:37Z</time></trkpt><trkpt lat="44.89278813833753" lon="8.67307850087071"><ele>94.0</ele><time>2026-04-28T07:38:39Z</time></trkpt><trkpt lat="44.89269965174206" lon="8.67305045011885"><ele>94.0</ele><time>2026-04-28T07:38:41Z</time></trkpt><trkpt lat="44.89262934637892" lon="8.673011314788969"><ele>94.0</ele><time>2026-04-28T07:38:43Z</time></trkpt><trkpt lat="44.89256330087467" lon="8.6729655938556"><ele>94.0</ele><time>2026-04-28T07:38:45Z</time></trkpt><trkpt lat="44.892497423845384" lon="8.672922316983792"><ele>94.0</ele><time>2026-04-28T07:38:47Z</time></trkpt><trkpt lat="44.89246241781016" lon="8.67284229354643"><ele>94.0</ele><time>2026-04-28T07:38:50Z</time></trkpt><trkpt lat="44.89247888603081" lon="8.67274091496359"><ele>94.0</ele><time>2026-04-28T07:38:52Z</time></trkpt><trkpt lat="44.89259489180516" lon="8.672771557954281"><ele>94.0</ele><time>2026-04-28T07:38:55Z</time></trkpt><trkpt lat="44.89265830154236" lon="8.672803576991027"><ele>94.0</ele><time>2026-04-28T07:38:56Z</time></trkpt><trkpt lat="44.892773098226016" lon="8.672851938137773"><ele>94.0</ele><time>2026-04-28T07:38:58Z</time></trkpt><trkpt lat="44.892884364153105" lon="8.672918938571526"><ele>94.0</ele><time>2026-04-28T07:39:00Z</time></trkpt><trkpt lat="44.89296687120793" lon="8.67300885821337"><ele>94.0</ele><time>2026-04-28T07:39:02Z</time></trkpt><trkpt lat="44.893068131409855" lon="8.673068217403202"><ele>94.0</ele><time>2026-04-28T07:39:04Z</time></trkpt><trkpt lat="44.89315193513486" lon="8.673073436493514"><ele>94.0</ele><time>2026-04-28T07:39:06Z</time></trkpt><trkpt lat="44.89322535205244" lon="8.673050485070247"><ele>94.0</ele><time>2026-04-28T07:39:08Z</time></trkpt><trkpt lat="44.89332053947227" lon="8.673102205714157"><ele>94.0</ele><time>2026-04-28T07:39:10Z</time></trkpt><trkpt lat="44.893376831820106" lon="8.673153996667741"><ele>94.0</ele><time>2026-04-28T07:39:11Z</time></trkpt><trkpt lat="44.893441521103156" lon="8.67316390875052"><ele>94.0</ele><time>2026-04-28T07:39:11.999Z</time></trkpt><trkpt lat="44.89354669660189" lon="8.673236323166996"><ele>93.80000000000001</ele><time>2026-04-28T07:39:13.999Z</time></trkpt><trkpt lat="44.89362639995657" lon="8.673248563628341"><ele>93.60000000000001</ele><time>2026-04-28T07:39:15.999Z</time></trkpt><trkpt lat="44.89368626192049" lon="8.673441977768684"><ele>93.4</ele><time>2026-04-28T07:39:26.999Z</time></trkpt><trkpt lat="44.89366937443884" lon="8.67353706656103"><ele>93.2</ele><time>2026-04-28T07:39:29.999Z</time></trkpt><trkpt lat="44.89365045821291" lon="8.673675215801746"><ele>93.0</ele><time>2026-04-28T07:39:30.999Z</time></trkpt><trkpt lat="44.8936121347527" lon="8.673827470937033"><ele>93.0</ele><time>2026-04-28T07:39:31.999Z</time></trkpt><trkpt lat="44.89359414271033" lon="8.673988720082543"><ele>93.0</ele><time>2026-04-28T07:39:32.999Z</time></trkpt><trkpt lat="44.893567530298746" lon="8.674153499543097"><ele>93.0</ele><time>2026-04-28T07:39:33.999Z</time></trkpt><trkpt lat="44.89353850195557" lon="8.674317554754287"><ele>93.0</ele><time>2026-04-28T07:39:34.999Z</time></trkpt><trkpt lat="44.89351390235844" lon="8.674471312109818"><ele>93.0</ele><time>2026-04-28T07:39:35.999Z</time></trkpt><trkpt lat="44.893498764444644" lon="8.674611856039517"><ele>93.0</ele><time>2026-04-28T07:39:36.999Z</time></trkpt><trkpt lat="44.89348079983526" lon="8.67473392082576"><ele>93.0</ele><time>2026-04-28T07:39:37.999Z</time></trkpt><trkpt lat="44.893453439281195" lon="8.674851378835188"><ele>93.0</ele><time>2026-04-28T07:39:38.999Z</time></trkpt><trkpt lat="44.893417552609726" lon="8.674940073532241"><ele>93.0</ele><time>2026-04-28T07:39:39.999Z</time></trkpt><trkpt lat="44.893370478240456" lon="8.67502445476605"><ele>93.0</ele><time>2026-04-28T07:39:40.999Z</time></trkpt><trkpt lat="44.89330988851396" lon="8.675086717196233"><ele>93.0</ele><time>2026-04-28T07:39:41.999Z</time></trkpt><trkpt lat="44.89322891166914" lon="8.675107368046053"><ele>93.0</ele><time>2026-04-28T07:39:42.999Z</time></trkpt><trkpt lat="44.89316658260019" lon="8.675061113430584"><ele>93.0</ele><time>2026-04-28T07:39:43.999Z</time></trkpt><trkpt lat="44.89308854229409" lon="8.675008032372068"><ele>93.0</ele><time>2026-04-28T07:39:44.999Z</time></trkpt><trkpt lat="44.893011010107045" lon="8.674923059357575"><ele>93.0</ele><time>2026-04-28T07:39:45.999Z</time></trkpt><trkpt lat="44.89292498181279" lon="8.674833210111856"><ele>93.0</ele><time>2026-04-28T07:39:46.999Z</time></trkpt><trkpt lat="44.89282087061749" lon="8.674741715887306"><ele>93.0</ele><time>2026-04-28T07:39:47.999Z</time></trkpt><trkpt lat="44.892709140477216" lon="8.6746487350896"><ele>93.0</ele><time>2026-04-28T07:39:48.999Z</time></trkpt><trkpt lat="44.89259332409813" lon="8.67454523824713"><ele>93.0</ele><time>2026-04-28T07:39:49.999Z</time></trkpt><trkpt lat="44.89247156754776" lon="8.674432702221596"><ele>93.0</ele><time>2026-04-28T07:39:50.999Z</time></trkpt><trkpt lat="44.892333954452646" lon="8.674309088017667"><ele>93.0</ele><time>2026-04-28T07:39:51.999Z</time></trkpt><trkpt lat="44.89221098345025" lon="8.67419751754754"><ele>93.0</ele><time>2026-04-28T07:39:52.999Z</time></trkpt><trkpt lat="44.892102287839116" lon="8.674110579393245"><ele>93.0</ele><time>2026-04-28T07:39:53.999Z</time></trkpt><trkpt lat="44.89200750589136" lon="8.67401757268225"><ele>93.0</ele><time>2026-04-28T07:39:54.999Z</time></trkpt><trkpt lat="44.8919267892711" lon="8.673925544859799"><ele>93.0</ele><time>2026-04-28T07:39:55.999Z</time></trkpt><trkpt lat="44.891851666416535" lon="8.67383985102117"><ele>93.0</ele><time>2026-04-28T07:39:57Z</time></trkpt><trkpt lat="44.89179532781173" lon="8.67376279616123"><ele>93.0</ele><time>2026-04-28T07:39:58Z</time></trkpt><trkpt lat="44.891756785819474" lon="8.673675119195426"><ele>93.0</ele><time>2026-04-28T07:39:59Z</time></trkpt><trkpt lat="44.891731411984885" lon="8.673586025136702"><ele>93.0</ele><time>2026-04-28T07:40:00Z</time></trkpt><trkpt lat="44.89170070067134" lon="8.673483149758404"><ele>93.0</ele><time>2026-04-28T07:40:01Z</time></trkpt><trkpt lat="44.891678147081926" lon="8.673364357448925"><ele>92.66666666666667</ele><time>2026-04-28T07:40:02Z</time></trkpt><trkpt lat="44.89162158231341" lon="8.673278419603767"><ele>92.33333333333333</ele><time>2026-04-28T07:40:03Z</time></trkpt><trkpt lat="44.89154001986898" lon="8.67326113820306"><ele>92.0</ele><time>2026-04-28T07:40:04Z</time></trkpt><trkpt lat="44.89146098884474" lon="8.673257539581652"><ele>91.66666666666666</ele><time>2026-04-28T07:40:05Z</time></trkpt><trkpt lat="44.89138048062703" lon="8.673257802813355"><ele>91.33333333333333</ele><time>2026-04-28T07:40:06Z</time></trkpt><trkpt lat="44.891320042768506" lon="8.67338130805298"><ele>91.0</ele><time>2026-04-28T07:40:07Z</time></trkpt><trkpt lat="44.89128279187573" lon="8.673484793597037"><ele>91.19999999999999</ele><time>2026-04-28T07:40:08Z</time></trkpt><trkpt lat="44.8912523376923" lon="8.673612155182235"><ele>91.39999999999999</ele><time>2026-04-28T07:40:09Z</time></trkpt><trkpt lat="44.89121773741942" lon="8.673746724103253"><ele>91.6</ele><time>2026-04-28T07:40:10Z</time></trkpt><trkpt lat="44.89116743423493" lon="8.673891810807474"><ele>91.8</ele><time>2026-04-28T07:40:11Z</time></trkpt><trkpt lat="44.89112769376402" lon="8.674045742747362"><ele>92.0</ele><time>2026-04-28T07:40:12Z</time></trkpt><trkpt lat="44.89103008265552" lon="8.674122288542696"><ele>92.0</ele><time>2026-04-28T07:40:13Z</time></trkpt><trkpt lat="44.89096105700062" lon="8.674185550024228"><ele>92.0</ele><time>2026-04-28T07:40:14Z</time></trkpt><trkpt lat="44.89087384122145" lon="8.6742796650203"><ele>92.0</ele><time>2026-04-28T07:40:15Z</time></trkpt><trkpt lat="44.890791939709786" lon="8.674371378283158"><ele>92.0</ele><time>2026-04-28T07:40:16Z</time></trkpt><trkpt lat="44.8906960357669" lon="8.674481995719768"><ele>92.0</ele><time>2026-04-28T07:40:17Z</time></trkpt><trkpt lat="44.89059414201754" lon="8.674598784467147"><ele>92.33333333333334</ele><time>2026-04-28T07:40:18Z</time></trkpt><trkpt lat="44.89048185087272" lon="8.674731191001548"><ele>92.66666666666667</ele><time>2026-04-28T07:40:19Z</time></trkpt><trkpt lat="44.89035265897255" lon="8.674874245864153"><ele>93.0</ele><time>2026-04-28T07:40:20Z</time></trkpt><trkpt lat="44.89023645913202" lon="8.67500803190595"><ele>93.0</ele><time>2026-04-28T07:40:21Z</time></trkpt><trkpt lat="44.89012832140803" lon="8.67513301065298"><ele>93.0</ele><time>2026-04-28T07:40:22Z</time></trkpt><trkpt lat="44.89001987192007" lon="8.675246412496845"><ele>93.0</ele><time>2026-04-28T07:40:23Z</time></trkpt><trkpt lat="44.88991858053627" lon="8.675358317577365"><ele>93.0</ele><time>2026-04-28T07:40:24Z</time></trkpt><trkpt lat="44.88981595765173" lon="8.675473744195305"><ele>93.25</ele><time>2026-04-28T07:40:25Z</time></trkpt><trkpt lat="44.889718590245565" lon="8.675588213711798"><ele>93.5</ele><time>2026-04-28T07:40:26Z</time></trkpt><trkpt lat="44.88961662692478" lon="8.67570440930659"><ele>93.75</ele><time>2026-04-28T07:40:27Z</time></trkpt><trkpt lat="44.88951574394407" lon="8.67581968841366"><ele>94.0</ele><time>2026-04-28T07:40:28Z</time></trkpt><trkpt lat="44.88940939872734" lon="8.67593178787774"><ele>94.0</ele><time>2026-04-28T07:40:29Z</time></trkpt><trkpt lat="44.88931294985111" lon="8.676052895981275"><ele>94.0</ele><time>2026-04-28T07:40:30Z</time></trkpt><trkpt lat="44.88921825310017" lon="8.676164884998173"><ele>94.0</ele><time>2026-04-28T07:40:31Z</time></trkpt><trkpt lat="44.8891304153886" lon="8.676267400884752"><ele>94.0</ele><time>2026-04-28T07:40:32Z</time></trkpt><trkpt lat="44.88904071896284" lon="8.676361667545471"><ele>94.5</ele><time>2026-04-28T07:40:33Z</time></trkpt><trkpt lat="44.888947548871464" lon="8.676461516687612"><ele>95.0</ele><time>2026-04-28T07:40:34Z</time></trkpt><trkpt lat="44.888857882614545" lon="8.67656178842146"><ele>95.5</ele><time>2026-04-28T07:40:35Z</time></trkpt><trkpt lat="44.88877058278882" lon="8.676666361025907"><ele>96.0</ele><time>2026-04-28T07:40:36Z</time></trkpt><trkpt lat="44.88866600038691" lon="8.676774762107117"><ele>96.0</ele><time>2026-04-28T07:40:37Z</time></trkpt><trkpt lat="44.88854960180872" lon="8.676885802726785"><ele>96.0</ele><time>2026-04-28T07:40:38Z</time></trkpt><trkpt lat="44.88844515161637" lon="8.677013421678595"><ele>96.0</ele><time>2026-04-28T07:40:39Z</time></trkpt><trkpt lat="44.888347976638215" lon="8.677128012923145"><ele>96.0</ele><time>2026-04-28T07:40:40Z</time></trkpt><trkpt lat="44.88825579190538" lon="8.677227785830738"><ele>96.0</ele><time>2026-04-28T07:40:41Z</time></trkpt><trkpt lat="44.888173329790355" lon="8.677318511151057"><ele>96.0</ele><time>2026-04-28T07:40:42Z</time></trkpt><trkpt lat="44.888093927921354" lon="8.677402332751804"><ele>96.0</ele><time>2026-04-28T07:40:43Z</time></trkpt><trkpt lat="44.888026235692045" lon="8.67746932973879"><ele>96.0</ele><time>2026-04-28T07:40:44Z</time></trkpt><trkpt lat="44.887974733468965" lon="8.67752914895437"><ele>96.0</ele><time>2026-04-28T07:40:45Z</time></trkpt><trkpt lat="44.887888243213034" lon="8.677632480623979"><ele>96.0</ele><time>2026-04-28T07:40:47Z</time></trkpt><trkpt lat="44.88781871899795" lon="8.67771840528339"><ele>96.0</ele><time>2026-04-28T07:40:49Z</time></trkpt><trkpt lat="44.88772406666045" lon="8.677807708430258"><ele>96.0</ele><time>2026-04-28T07:40:51Z</time></trkpt><trkpt lat="44.887645095035204" lon="8.677871031851774"><ele>96.0</ele><time>2026-04-28T07:40:53Z</time></trkpt><trkpt lat="44.88755776143074" lon="8.677738572982477"><ele>96.0</ele><time>2026-04-28T07:40:56Z</time></trkpt><trkpt lat="44.887522094428135" lon="8.677661724684437"><ele>96.16666666666667</ele><time>2026-04-28T07:40:57Z</time></trkpt><trkpt lat="44.88747636479949" lon="8.677598964727682"><ele>96.33333333333334</ele><time>2026-04-28T07:40:58Z</time></trkpt><trkpt lat="44.887423611881275" lon="8.677512329602363"><ele>96.5</ele><time>2026-04-28T07:40:59Z</time></trkpt><trkpt lat="44.887366441977115" lon="8.677464433395036"><ele>96.66666666666667</ele><time>2026-04-28T07:41:00Z</time></trkpt><trkpt lat="44.88730416807278" lon="8.677410508670341"><ele>96.83333333333334</ele><time>2026-04-28T07:41:01Z</time></trkpt><trkpt lat="44.88721998878344" lon="8.67742003915247"><ele>97.0</ele><time>2026-04-28T07:41:02Z</time></trkpt><trkpt lat="44.88713411205671" lon="8.677415765440582"><ele>97.0</ele><time>2026-04-28T07:41:03Z</time></trkpt><trkpt lat="44.887056864659755" lon="8.677467981159145"><ele>97.0</ele><time>2026-04-28T07:41:04Z</time></trkpt><trkpt lat="44.88693936565665" lon="8.677526310748336"><ele>97.0</ele><time>2026-04-28T07:41:05Z</time></trkpt><trkpt lat="44.88684094339883" lon="8.67755759011225"><ele>97.0</ele><time>2026-04-28T07:41:06Z</time></trkpt><trkpt lat="44.88674101511076" lon="8.67757742960094"><ele>97.0</ele><time>2026-04-28T07:41:07Z</time></trkpt><trkpt lat="44.88664978313086" lon="8.677598754903267"><ele>97.19999999999999</ele><time>2026-04-28T07:41:08Z</time></trkpt><trkpt lat="44.88653496843812" lon="8.677599830363464"><ele>97.4</ele><time>2026-04-28T07:41:09Z</time></trkpt><trkpt lat="44.88641644865925" lon="8.67762968883647"><ele>97.6</ele><time>2026-04-28T07:41:10Z</time></trkpt><trkpt lat="44.886330174350555" lon="8.67762394225275"><ele>97.80000000000001</ele><time>2026-04-28T07:41:11Z</time></trkpt><trkpt lat="44.886229464886405" lon="8.677640389327438"><ele>98.0</ele><time>2026-04-28T07:41:12Z</time></trkpt><trkpt lat="44.88612234227324" lon="8.67765344775594"><ele>98.0</ele><time>2026-04-28T07:41:13Z</time></trkpt><trkpt lat="44.88602632749883" lon="8.677646639503077"><ele>98.0</ele><time>2026-04-28T07:41:14Z</time></trkpt><trkpt lat="44.88592823069178" lon="8.67766690155186"><ele>98.0</ele><time>2026-04-28T07:41:15Z</time></trkpt><trkpt lat="44.885837398381256" lon="8.677661620482924"><ele>98.0</ele><time>2026-04-28T07:41:16Z</time></trkpt><trkpt lat="44.88574890146962" lon="8.677664335776553"><ele>98.0</ele><time>2026-04-28T07:41:17Z</time></trkpt><trkpt lat="44.885655317212596" lon="8.677651802849034"><ele>98.2</ele><time>2026-04-28T07:41:18Z</time></trkpt><trkpt lat="44.88556692042353" lon="8.677650187469862"><ele>98.4</ele><time>2026-04-28T07:41:18.999Z</time></trkpt><trkpt lat="44.885472350223935" lon="8.67763203527006"><ele>98.60000000000001</ele><time>2026-04-28T07:41:19.999Z</time></trkpt><trkpt lat="44.88538039972376" lon="8.677613061853311"><ele>98.80000000000001</ele><time>2026-04-28T07:41:20.999Z</time></trkpt><trkpt lat="44.8852881928646" lon="8.677589487448682"><ele>99.0</ele><time>2026-04-28T07:41:21.999Z</time></trkpt><trkpt lat="44.88519936813157" lon="8.677566371933395"><ele>99.0</ele><time>2026-04-28T07:41:22.999Z</time></trkpt><trkpt lat="44.88511531198082" lon="8.67753936253251"><ele>99.0</ele><time>2026-04-28T07:41:23.999Z</time></trkpt><trkpt lat="44.885034546893735" lon="8.677509326796523"><ele>99.0</ele><time>2026-04-28T07:41:24.999Z</time></trkpt><trkpt lat="44.884969412026415" lon="8.67748936191886"><ele>99.0</ele><time>2026-04-28T07:41:25.999Z</time></trkpt><trkpt lat="44.88490631452969" lon="8.677465069495932"><ele>99.0</ele><time>2026-04-28T07:41:26.999Z</time></trkpt><trkpt lat="44.88482593512642" lon="8.677416772414102"><ele>99.0</ele><time>2026-04-28T07:41:28.999Z</time></trkpt><trkpt lat="44.88476723266822" lon="8.677378404473755"><ele>99.0</ele><time>2026-04-28T07:41:31.999Z</time></trkpt><trkpt lat="44.88484635410691" lon="8.677450728248482"><ele>99.0</ele><time>2026-04-28T07:41:44.999Z</time></trkpt><trkpt lat="44.88495610138688" lon="8.67748418937058"><ele>99.0</ele><time>2026-04-28T07:41:46.999Z</time></trkpt><trkpt lat="44.88504161717343" lon="8.677511666942022"><ele>99.0</ele><time>2026-04-28T07:41:47.999Z</time></trkpt><trkpt lat="44.88512262209872" lon="8.677538000013985"><ele>99.0</ele><time>2026-04-28T07:41:48.999Z</time></trkpt><trkpt lat="44.885254815939554" lon="8.677590296622784"><ele>99.0</ele><time>2026-04-28T07:41:49.999Z</time></trkpt><trkpt lat="44.88537556529225" lon="8.6776484203648"><ele>99.0</ele><time>2026-04-28T07:41:50.999Z</time></trkpt><trkpt lat="44.88545616650442" lon="8.67767171002853"><ele>99.0</ele><time>2026-04-28T07:41:51.999Z</time></trkpt><trkpt lat="44.885577503030966" lon="8.677687456961227"><ele>99.0</ele><time>2026-04-28T07:41:52.999Z</time></trkpt><trkpt lat="44.88571121830089" lon="8.67768881802333"><ele>99.0</ele><time>2026-04-28T07:41:53.999Z</time></trkpt><trkpt lat="44.88584532557885" lon="8.677694787845684"><ele>99.0</ele><time>2026-04-28T07:41:54.999Z</time></trkpt><trkpt lat="44.88596529519147" lon="8.677698023801632"><ele>99.0</ele><time>2026-04-28T07:41:55.999Z</time></trkpt><trkpt lat="44.88608210082159" lon="8.677688980209332"><ele>99.0</ele><time>2026-04-28T07:41:56.999Z</time></trkpt><trkpt lat="44.88619593208213" lon="8.677679179579012"><ele>98.75</ele><time>2026-04-28T07:41:57.999Z</time></trkpt><trkpt lat="44.88630618164399" lon="8.677675694935212"><ele>98.5</ele><time>2026-04-28T07:41:58.999Z</time></trkpt><trkpt lat="44.88642738613074" lon="8.677666455259143"><ele>98.25</ele><time>2026-04-28T07:41:59.999Z</time></trkpt><trkpt lat="44.88654094381029" lon="8.677654883872792"><ele>98.0</ele><time>2026-04-28T07:42:00.999Z</time></trkpt><trkpt lat="44.886652744621514" lon="8.677637494145612"><ele>98.0</ele><time>2026-04-28T07:42:01.999Z</time></trkpt><trkpt lat="44.88676054579843" lon="8.677622236386531"><ele>98.0</ele><time>2026-04-28T07:42:03Z</time></trkpt><trkpt lat="44.886851495543155" lon="8.6775779353451"><ele>98.0</ele><time>2026-04-28T07:42:04Z</time></trkpt><trkpt lat="44.886961992668134" lon="8.677541564363466"><ele>98.0</ele><time>2026-04-28T07:42:05Z</time></trkpt><trkpt lat="44.887062935603716" lon="8.677513613915341"><ele>98.0</ele><time>2026-04-28T07:42:06Z</time></trkpt><trkpt lat="44.887173547673704" lon="8.677513637711938"><ele>97.83333333333333</ele><time>2026-04-28T07:42:07Z</time></trkpt><trkpt lat="44.887252642773056" lon="8.677438735228902"><ele>97.66666666666666</ele><time>2026-04-28T07:42:08Z</time></trkpt><trkpt lat="44.88734025980229" lon="8.677435388395972"><ele>97.5</ele><time>2026-04-28T07:42:09Z</time></trkpt><trkpt lat="44.88739998540681" lon="8.677482027575193"><ele>97.33333333333334</ele><time>2026-04-28T07:42:10Z</time></trkpt><trkpt lat="44.88743105853166" lon="8.677579004925967"><ele>97.16666666666667</ele><time>2026-04-28T07:42:11Z</time></trkpt><trkpt lat="44.8874940971232" lon="8.67768267278418"><ele>97.0</ele><time>2026-04-28T07:42:13Z</time></trkpt><trkpt lat="44.887536574903564" lon="8.677755371788441"><ele>97.0</ele><time>2026-04-28T07:42:14Z</time></trkpt><trkpt lat="44.88757727843328" lon="8.677839795964166"><ele>97.0</ele><time>2026-04-28T07:42:16Z</time></trkpt><trkpt lat="44.88763623612908" lon="8.677914939992052"><ele>97.0</ele><time>2026-04-28T07:42:23Z</time></trkpt><trkpt lat="44.887788993155745" lon="8.677876555945115"><ele>97.0</ele><time>2026-04-28T07:42:33Z</time></trkpt><trkpt lat="44.88785299123846" lon="8.677788500806287"><ele>97.0</ele><time>2026-04-28T07:42:34Z</time></trkpt><trkpt lat="44.887933773338816" lon="8.677684790779242"><ele>96.8</ele><time>2026-04-28T07:42:35Z</time></trkpt><trkpt lat="44.88801837251946" lon="8.677587016788918"><ele>96.6</ele><time>2026-04-28T07:42:36Z</time></trkpt><trkpt lat="44.88809901854981" lon="8.677499692465243"><ele>96.39999999999999</ele><time>2026-04-28T07:42:37Z</time></trkpt><trkpt lat="44.88817139746864" lon="8.67739603723342"><ele>96.19999999999999</ele><time>2026-04-28T07:42:38Z</time></trkpt><trkpt lat="44.88825414709391" lon="8.677302026733042"><ele>96.0</ele><time>2026-04-28T07:42:39Z</time></trkpt><trkpt lat="44.88832429716506" lon="8.677203332786604"><ele>96.0</ele><time>2026-04-28T07:42:40Z</time></trkpt><trkpt lat="44.8883998913876" lon="8.67711941538324"><ele>96.0</ele><time>2026-04-28T07:42:41Z</time></trkpt><trkpt lat="44.88847379504244" lon="8.67704126503757"><ele>96.0</ele><time>2026-04-28T07:42:42Z</time></trkpt><trkpt lat="44.88854766920326" lon="8.676958044692515"><ele>96.0</ele><time>2026-04-28T07:42:43Z</time></trkpt><trkpt lat="44.888627560848036" lon="8.676875260216718"><ele>96.0</ele><time>2026-04-28T07:42:44Z</time></trkpt><trkpt lat="44.88872154916421" lon="8.676779679778987"><ele>96.0</ele><time>2026-04-28T07:42:45Z</time></trkpt><trkpt lat="44.888815022000685" lon="8.676670671879409"><ele>96.0</ele><time>2026-04-28T07:42:46Z</time></trkpt><trkpt lat="44.88890974653413" lon="8.67656089244645"><ele>96.0</ele><time>2026-04-28T07:42:47Z</time></trkpt><trkpt lat="44.888993482631825" lon="8.676468134129744"><ele>96.0</ele><time>2026-04-28T07:42:48Z</time></trkpt><trkpt lat="44.88907200901558" lon="8.676375231319412"><ele>96.0</ele><time>2026-04-28T07:42:49Z</time></trkpt><trkpt lat="44.88915146472047" lon="8.676277851130745"><ele>96.0</ele><time>2026-04-28T07:42:50Z</time></trkpt><trkpt lat="44.8892383381407" lon="8.676177799029997"><ele>96.0</ele><time>2026-04-28T07:42:51Z</time></trkpt><trkpt lat="44.88931890602593" lon="8.676085266469919"><ele>96.0</ele><time>2026-04-28T07:42:52Z</time></trkpt><trkpt lat="44.889390631698355" lon="8.675996964256937"><ele>96.0</ele><time>2026-04-28T07:42:53Z</time></trkpt><trkpt lat="44.88946127787071" lon="8.67592383290249"><ele>95.6</ele><time>2026-04-28T07:42:54Z</time></trkpt><trkpt lat="44.889538592241955" lon="8.675841524068145"><ele>95.19999999999999</ele><time>2026-04-28T07:42:55Z</time></trkpt><trkpt lat="44.8896254099014" lon="8.675745399357188"><ele>94.80000000000001</ele><time>2026-04-28T07:42:56Z</time></trkpt><trkpt lat="44.8897157023692" lon="8.675638263510496"><ele>94.4</ele><time>2026-04-28T07:42:57Z</time></trkpt><trkpt lat="44.889812072244084" lon="8.675528137626001"><ele>94.0</ele><time>2026-04-28T07:42:58Z</time></trkpt><trkpt lat="44.88990909208753" lon="8.675413423832284"><ele>94.0</ele><time>2026-04-28T07:42:59Z</time></trkpt><trkpt lat="44.890013250977645" lon="8.67530571975107"><ele>94.0</ele><time>2026-04-28T07:43:00Z</time></trkpt><trkpt lat="44.89011248117197" lon="8.675200766487396"><ele>94.0</ele><time>2026-04-28T07:43:01Z</time></trkpt><trkpt lat="44.89020587577735" lon="8.675091518280597"><ele>94.0</ele><time>2026-04-28T07:43:02Z</time></trkpt><trkpt lat="44.89029604381189" lon="8.674990568485297"><ele>93.75</ele><time>2026-04-28T07:43:03Z</time></trkpt><trkpt lat="44.890387829026785" lon="8.674891435073762"><ele>93.5</ele><time>2026-04-28T07:43:04Z</time></trkpt><trkpt lat="44.89046839874855" lon="8.67478930418493"><ele>93.25</ele><time>2026-04-28T07:43:05Z</time></trkpt><trkpt lat="44.890556288667796" lon="8.674685523870926"><ele>93.0</ele><time>2026-04-28T07:43:06Z</time></trkpt><trkpt lat="44.89065592093452" lon="8.674589835810991"><ele>93.0</ele><time>2026-04-28T07:43:07Z</time></trkpt><trkpt lat="44.89073981315602" lon="8.674484834493938"><ele>93.0</ele><time>2026-04-28T07:43:08Z</time></trkpt><trkpt lat="44.89082570333435" lon="8.67438858553178"><ele>93.0</ele><time>2026-04-28T07:43:09Z</time></trkpt><trkpt lat="44.89090427614324" lon="8.674298203558047"><ele>93.0</ele><time>2026-04-28T07:43:10Z</time></trkpt><trkpt lat="44.89098197665904" lon="8.674211967727482"><ele>93.0</ele><time>2026-04-28T07:43:11Z</time></trkpt><trkpt lat="44.891054330027565" lon="8.674132505560456"><ele>92.83333333333333</ele><time>2026-04-28T07:43:12Z</time></trkpt><trkpt lat="44.89112555868369" lon="8.674057351530085"><ele>92.66666666666667</ele><time>2026-04-28T07:43:13Z</time></trkpt><trkpt lat="44.89119648180959" lon="8.673998920865177"><ele>92.5</ele><time>2026-04-28T07:43:14Z</time></trkpt><trkpt lat="44.89126200897323" lon="8.673964031214236"><ele>92.33333333333334</ele><time>2026-04-28T07:43:15Z</time></trkpt><trkpt lat="44.89133451178189" lon="8.673942877421025"><ele>92.16666666666667</ele><time>2026-04-28T07:43:16Z</time></trkpt><trkpt lat="44.89141087082444" lon="8.67392442319367"><ele>92.0</ele><time>2026-04-28T07:43:17Z</time></trkpt><trkpt lat="44.89147398024834" lon="8.673936580233041"><ele>92.0</ele><time>2026-04-28T07:43:18Z</time></trkpt><trkpt lat="44.89154915154034" lon="8.673923781055356"><ele>92.0</ele><time>2026-04-28T07:43:19Z</time></trkpt><trkpt lat="44.89162246981949" lon="8.673911513931092"><ele>92.0</ele><time>2026-04-28T07:43:20Z</time></trkpt><trkpt lat="44.891697904507026" lon="8.673918040398354"><ele>92.0</ele><time>2026-04-28T07:43:21Z</time></trkpt><trkpt lat="44.89177833832362" lon="8.673939043198889"><ele>92.0</ele><time>2026-04-28T07:43:21.999Z</time></trkpt><trkpt lat="44.89184503171632" lon="8.673969581065826"><ele>92.0</ele><time>2026-04-28T07:43:22.999Z</time></trkpt><trkpt lat="44.89191026607015" lon="8.674006191487544"><ele>92.0</ele><time>2026-04-28T07:43:23.999Z</time></trkpt><trkpt lat="44.89197507288426" lon="8.673983425660284"><ele>92.19999999999999</ele><time>2026-04-28T07:43:24.999Z</time></trkpt><trkpt lat="44.8920428838871" lon="8.67409523466621"><ele>92.4</ele><time>2026-04-28T07:43:25.999Z</time></trkpt><trkpt lat="44.892114293777084" lon="8.674156038501543"><ele>92.6</ele><time>2026-04-28T07:43:26.999Z</time></trkpt><trkpt lat="44.89218904862934" lon="8.674227138037608"><ele>92.80000000000001</ele><time>2026-04-28T07:43:27.999Z</time></trkpt><trkpt lat="44.89227065314595" lon="8.674299224713767"><ele>93.0</ele><time>2026-04-28T07:43:28.999Z</time></trkpt><trkpt lat="44.89236192499111" lon="8.674374662513626"><ele>93.0</ele><time>2026-04-28T07:43:29.999Z</time></trkpt><trkpt lat="44.89245399468792" lon="8.674453200724095"><ele>93.0</ele><time>2026-04-28T07:43:30.999Z</time></trkpt><trkpt lat="44.89254376298485" lon="8.674522712153074"><ele>93.0</ele><time>2026-04-28T07:43:31.999Z</time></trkpt><trkpt lat="44.89263396748306" lon="8.674607700279077"><ele>93.0</ele><time>2026-04-28T07:43:32.999Z</time></trkpt><trkpt lat="44.89272188580327" lon="8.674687771278993"><ele>93.0</ele><time>2026-04-28T07:43:33.999Z</time></trkpt><trkpt lat="44.89280216150114" lon="8.674764722082143"><ele>93.0</ele><time>2026-04-28T07:43:34.999Z</time></trkpt><trkpt lat="44.892863880947374" lon="8.67482537327479"><ele>93.0</ele><time>2026-04-28T07:43:35.999Z</time></trkpt><trkpt lat="44.892930577817964" lon="8.674880733316023"><ele>93.0</ele><time>2026-04-28T07:43:37.999Z</time></trkpt><trkpt lat="44.892967564322134" lon="8.674962537280468"><ele>93.0</ele><time>2026-04-28T07:43:40.999Z</time></trkpt><trkpt lat="44.89302450708439" lon="8.675077084963622"><ele>93.0</ele><time>2026-04-28T07:43:42.999Z</time></trkpt><trkpt lat="44.89307730597686" lon="8.675212055844232"><ele>93.0</ele><time>2026-04-28T07:43:44.999Z</time></trkpt><trkpt lat="44.893104176485714" lon="8.675322940796715"><ele>92.60000000000001</ele><time>2026-04-28T07:43:46.999Z</time></trkpt><trkpt lat="44.893116018321805" lon="8.675482734816411"><ele>92.2</ele><time>2026-04-28T07:43:48.999Z</time></trkpt><trkpt lat="44.89313032666311" lon="8.675591832227155"><ele>91.8</ele><time>2026-04-28T07:43:49.999Z</time></trkpt><trkpt lat="44.89315797576577" lon="8.675678055461754"><ele>91.4</ele><time>2026-04-28T07:43:50.999Z</time></trkpt><trkpt lat="44.8931849574566" lon="8.675785350457588"><ele>91.0</ele><time>2026-04-28T07:43:51.999Z</time></trkpt><trkpt lat="44.89314543450048" lon="8.67593588159404"><ele>91.0</ele><time>2026-04-28T07:43:52.999Z</time></trkpt><trkpt lat="44.8932325127764" lon="8.676039191553746"><ele>91.0</ele><time>2026-04-28T07:43:53.999Z</time></trkpt><trkpt lat="44.89322848855847" lon="8.676185992768344"><ele>91.0</ele><time>2026-04-28T07:43:54.999Z</time></trkpt><trkpt lat="44.89321453379515" lon="8.676324694729205"><ele>91.0</ele><time>2026-04-28T07:43:55.999Z</time></trkpt><trkpt lat="44.89318402278957" lon="8.676450043474487"><ele>91.0</ele><time>2026-04-28T07:43:56.999Z</time></trkpt><trkpt lat="44.89316037380059" lon="8.676569768151412"><ele>91.19999999999999</ele><time>2026-04-28T07:43:57.999Z</time></trkpt><trkpt lat="44.89313962086563" lon="8.676692545052026"><ele>91.39999999999999</ele><time>2026-04-28T07:43:58.999Z</time></trkpt><trkpt lat="44.89311854242059" lon="8.676820504346553"><ele>91.6</ele><time>2026-04-28T07:43:59.999Z</time></trkpt><trkpt lat="44.89309393774695" lon="8.676949774839402"><ele>91.8</ele><time>2026-04-28T07:44:00.999Z</time></trkpt><trkpt lat="44.89307270149034" lon="8.677091320921349"><ele>92.0</ele><time>2026-04-28T07:44:01.999Z</time></trkpt><trkpt lat="44.893053570496924" lon="8.677223823147553"><ele>92.19999999999999</ele><time>2026-04-28T07:44:02.999Z</time></trkpt><trkpt lat="44.89302951684111" lon="8.67734938956625"><ele>92.4</ele><time>2026-04-28T07:44:03.999Z</time></trkpt><trkpt lat="44.893005541488286" lon="8.677480887490445"><ele>92.6</ele><time>2026-04-28T07:44:04.999Z</time></trkpt><trkpt lat="44.892984577009706" lon="8.677621033896497"><ele>92.80000000000001</ele><time>2026-04-28T07:44:05.999Z</time></trkpt><trkpt lat="44.89296303086337" lon="8.677767402663887"><ele>93.0</ele><time>2026-04-28T07:44:06.999Z</time></trkpt><trkpt lat="44.89294338812596" lon="8.6779085576056"><ele>93.5</ele><time>2026-04-28T07:44:07.999Z</time></trkpt><trkpt lat="44.8929171712191" lon="8.678057734472505"><ele>94.0</ele><time>2026-04-28T07:44:09Z</time></trkpt><trkpt lat="44.89288769037988" lon="8.678211680025198"><ele>94.5</ele><time>2026-04-28T07:44:10Z</time></trkpt><trkpt lat="44.892856829017724" lon="8.678389078280635"><ele>95.0</ele><time>2026-04-28T07:44:11Z</time></trkpt><trkpt lat="44.892826812253475" lon="8.6785681851843"><ele>94.5</ele><time>2026-04-28T07:44:12Z</time></trkpt><trkpt lat="44.89279770216426" lon="8.678743750320942"><ele>94.0</ele><time>2026-04-28T07:44:13Z</time></trkpt><trkpt lat="44.8927718215632" lon="8.678917808338769"><ele>93.5</ele><time>2026-04-28T07:44:14Z</time></trkpt><trkpt lat="44.89274213748267" lon="8.679103841737575"><ele>93.0</ele><time>2026-04-28T07:44:15Z</time></trkpt><trkpt lat="44.892709196745486" lon="8.679307196221773"><ele>93.0</ele><time>2026-04-28T07:44:16Z</time></trkpt><trkpt lat="44.89267568705311" lon="8.67950258446684"><ele>93.0</ele><time>2026-04-28T07:44:17Z</time></trkpt><trkpt lat="44.892649121428036" lon="8.679706707810784"><ele>93.0</ele><time>2026-04-28T07:44:18Z</time></trkpt><trkpt lat="44.89261359572481" lon="8.679899817545989"><ele>93.0</ele><time>2026-04-28T07:44:19Z</time></trkpt><trkpt lat="44.89257741582088" lon="8.68010474534989"><ele>93.66666666666667</ele><time>2026-04-28T07:44:20Z</time></trkpt><trkpt lat="44.892542391248604" lon="8.680312354728002"><ele>94.33333333333334</ele><time>2026-04-28T07:44:21Z</time></trkpt><trkpt lat="44.8925056709668" lon="8.68051869300705"><ele>95.0</ele><time>2026-04-28T07:44:22Z</time></trkpt><trkpt lat="44.89246550212433" lon="8.680724657766312"><ele>95.0</ele><time>2026-04-28T07:44:23Z</time></trkpt><trkpt lat="44.892418866692346" lon="8.680939836183397"><ele>95.0</ele><time>2026-04-28T07:44:24Z</time></trkpt><trkpt lat="44.89237694264441" lon="8.681145033660354"><ele>95.0</ele><time>2026-04-28T07:44:25Z</time></trkpt><trkpt lat="44.892332352125536" lon="8.681351714289448"><ele>94.66666666666667</ele><time>2026-04-28T07:44:26Z</time></trkpt><trkpt lat="44.892280800018625" lon="8.681549772745077"><ele>94.33333333333333</ele><time>2026-04-28T07:44:27Z</time></trkpt><trkpt lat="44.89222411756336" lon="8.68174851064119"><ele>94.0</ele><time>2026-04-28T07:44:28Z</time></trkpt><trkpt lat="44.8921665544916" lon="8.681946487216113"><ele>94.0</ele><time>2026-04-28T07:44:29Z</time></trkpt><trkpt lat="44.89210985061858" lon="8.682145412670694"><ele>94.0</ele><time>2026-04-28T07:44:30Z</time></trkpt><trkpt lat="44.89205278064769" lon="8.682345315149561"><ele>94.0</ele><time>2026-04-28T07:44:31Z</time></trkpt><trkpt lat="44.891996159422824" lon="8.682538507946129"><ele>94.0</ele><time>2026-04-28T07:44:32Z</time></trkpt><trkpt lat="44.891934403299146" lon="8.682737908218476"><ele>94.0</ele><time>2026-04-28T07:44:33Z</time></trkpt><trkpt lat="44.89186748526886" lon="8.682936995765626"><ele>94.0</ele><time>2026-04-28T07:44:34Z</time></trkpt><trkpt lat="44.89179832811356" lon="8.683132639251873"><ele>94.66666666666666</ele><time>2026-04-28T07:44:35Z</time></trkpt><trkpt lat="44.89172305752287" lon="8.683331953131"><ele>95.33333333333333</ele><time>2026-04-28T07:44:36Z</time></trkpt><trkpt lat="44.89164751148924" lon="8.68351957851095"><ele>96.0</ele><time>2026-04-28T07:44:37Z</time></trkpt><trkpt lat="44.8915711804895" lon="8.683714311746352"><ele>96.33333333333334</ele><time>2026-04-28T07:44:38Z</time></trkpt><trkpt lat="44.891492338821244" lon="8.683905165951673"><ele>96.66666666666667</ele><time>2026-04-28T07:44:39Z</time></trkpt><trkpt lat="44.891410681957424" lon="8.684099059331261"><ele>97.0</ele><time>2026-04-28T07:44:40Z</time></trkpt><trkpt lat="44.891320024346655" lon="8.68429732866473"><ele>96.33333333333334</ele><time>2026-04-28T07:44:41Z</time></trkpt><trkpt lat="44.89122831012548" lon="8.684504639128352"><ele>95.66666666666667</ele><time>2026-04-28T07:44:42Z</time></trkpt><trkpt lat="44.89113311867621" lon="8.68471043132866"><ele>95.0</ele><time>2026-04-28T07:44:43Z</time></trkpt><trkpt lat="44.89103683537951" lon="8.684905669221529"><ele>95.0</ele><time>2026-04-28T07:44:44Z</time></trkpt><trkpt lat="44.8909430405926" lon="8.685100711407037"><ele>95.0</ele><time>2026-04-28T07:44:45Z</time></trkpt><trkpt lat="44.89085288616754" lon="8.68528467032261"><ele>95.0</ele><time>2026-04-28T07:44:46Z</time></trkpt><trkpt lat="44.8907720066851" lon="8.685462291406832"><ele>95.5</ele><time>2026-04-28T07:44:47Z</time></trkpt><trkpt lat="44.89069121364666" lon="8.685633850652707"><ele>96.0</ele><time>2026-04-28T07:44:48Z</time></trkpt><trkpt lat="44.89061089329725" lon="8.685804817402495"><ele>96.5</ele><time>2026-04-28T07:44:49Z</time></trkpt><trkpt lat="44.89052839834733" lon="8.685979038435384"><ele>97.0</ele><time>2026-04-28T07:44:50Z</time></trkpt><trkpt lat="44.890441736404775" lon="8.686157908235856"><ele>97.0</ele><time>2026-04-28T07:44:51Z</time></trkpt><trkpt lat="44.890359714577464" lon="8.686331943367069"><ele>97.0</ele><time>2026-04-28T07:44:52Z</time></trkpt><trkpt lat="44.89027937194007" lon="8.686491585359024"><ele>97.0</ele><time>2026-04-28T07:44:53Z</time></trkpt><trkpt lat="44.89020804409106" lon="8.686646600110077"><ele>97.0</ele><time>2026-04-28T07:44:54Z</time></trkpt><trkpt lat="44.890138287750766" lon="8.686796009125981"><ele>96.8</ele><time>2026-04-28T07:44:55Z</time></trkpt><trkpt lat="44.89007124188211" lon="8.686933632783132"><ele>96.6</ele><time>2026-04-28T07:44:56Z</time></trkpt><trkpt lat="44.89000737767634" lon="8.687052329250871"><ele>96.39999999999999</ele><time>2026-04-28T07:44:57Z</time></trkpt><trkpt lat="44.88996117994971" lon="8.687144677539552"><ele>96.19999999999999</ele><time>2026-04-28T07:44:58Z</time></trkpt><trkpt lat="44.88988748573987" lon="8.687255707701201"><ele>96.0</ele><time>2026-04-28T07:45:00Z</time></trkpt><trkpt lat="44.88979863533478" lon="8.68730782204823"><ele>96.0</ele><time>2026-04-28T07:45:02Z</time></trkpt><trkpt lat="44.88978516741051" lon="8.687400557597584"><ele>96.0</ele><time>2026-04-28T07:45:04Z</time></trkpt><trkpt lat="44.88965389256318" lon="8.687380263090121"><ele>96.0</ele><time>2026-04-28T07:45:06Z</time></trkpt><trkpt lat="44.88959433532815" lon="8.687410562930827"><ele>96.0</ele><time>2026-04-28T07:48:04.999Z</time></trkpt><trkpt lat="44.88958814335693" lon="8.687500280837678"><ele>96.0</ele><time>2026-04-28T07:48:08.999Z</time></trkpt><trkpt lat="44.88957699081354" lon="8.68759253196888"><ele>96.0</ele><time>2026-04-28T07:48:10.999Z</time></trkpt><trkpt lat="44.889614375646964" lon="8.687692872239046"><ele>96.0</ele><time>2026-04-28T07:48:12.999Z</time></trkpt><trkpt lat="44.88980495411455" lon="8.687569462133036"><ele>96.0</ele><time>2026-04-28T07:48:24Z</time></trkpt><trkpt lat="44.88986706183108" lon="8.687450318108805"><ele>96.0</ele><time>2026-04-28T07:48:25Z</time></trkpt><trkpt lat="44.88994955646468" lon="8.68728639354561"><ele>96.0</ele><time>2026-04-28T07:48:26Z</time></trkpt><trkpt lat="44.89003803997094" lon="8.687123536698762"><ele>96.0</ele><time>2026-04-28T07:48:27Z</time></trkpt><trkpt lat="44.89011711471311" lon="8.686952019114816"><ele>96.0</ele><time>2026-04-28T07:48:28Z</time></trkpt><trkpt lat="44.89019846302569" lon="8.686779075694249"><ele>96.0</ele><time>2026-04-28T07:48:29Z</time></trkpt><trkpt lat="44.89027522654569" lon="8.686602238220022"><ele>96.25</ele><time>2026-04-28T07:48:30Z</time></trkpt><trkpt lat="44.890353617897226" lon="8.686434518891497"><ele>96.5</ele><time>2026-04-28T07:48:31Z</time></trkpt><trkpt lat="44.89043721009955" lon="8.686256914015468"><ele>96.75</ele><time>2026-04-28T07:48:32Z</time></trkpt><trkpt lat="44.89053281062576" lon="8.686093604195388"><ele>97.0</ele><time>2026-04-28T07:48:33Z</time></trkpt><trkpt lat="44.89062074266427" lon="8.685908267554323"><ele>97.0</ele><time>2026-04-28T07:48:34Z</time></trkpt><trkpt lat="44.89070942571945" lon="8.685721347948206"><ele>97.0</ele><time>2026-04-28T07:48:35Z</time></trkpt><trkpt lat="44.8907886160378" lon="8.68551680766583"><ele>97.0</ele><time>2026-04-28T07:48:36Z</time></trkpt><trkpt lat="44.89088814213623" lon="8.685344044654274"><ele>96.33333333333334</ele><time>2026-04-28T07:48:37Z</time></trkpt><trkpt lat="44.89098467618576" lon="8.685137430782463"><ele>95.66666666666667</ele><time>2026-04-28T07:48:38Z</time></trkpt><trkpt lat="44.8910744068854" lon="8.684945378326606"><ele>95.0</ele><time>2026-04-28T07:48:39Z</time></trkpt><trkpt lat="44.891140228698724" lon="8.684804498557343"><ele>95.0</ele><time>2026-04-28T07:48:40Z</time></trkpt><trkpt lat="44.89121277099986" lon="8.684649234730339"><ele>95.0</ele><time>2026-04-28T07:48:41Z</time></trkpt><trkpt lat="44.891292754201594" lon="8.684478045003628"><ele>95.0</ele><time>2026-04-28T07:48:42Z</time></trkpt><trkpt lat="44.89138426910321" lon="8.68428857141051"><ele>95.0</ele><time>2026-04-28T07:48:43Z</time></trkpt><trkpt lat="44.89144959976156" lon="8.684091781701333"><ele>95.25</ele><time>2026-04-28T07:48:44Z</time></trkpt><trkpt lat="44.891535941364815" lon="8.683909312595983"><ele>95.5</ele><time>2026-04-28T07:48:45Z</time></trkpt><trkpt lat="44.8916045058577" lon="8.683728040917979"><ele>95.75</ele><time>2026-04-28T07:48:46Z</time></trkpt><trkpt lat="44.891684978702415" lon="8.683560571037596"><ele>96.0</ele><time>2026-04-28T07:48:47Z</time></trkpt><trkpt lat="44.89174602348748" lon="8.683389510063535"><ele>95.75</ele><time>2026-04-28T07:48:48Z</time></trkpt><trkpt lat="44.891825368213446" lon="8.683229602053377"><ele>95.5</ele><time>2026-04-28T07:48:49Z</time></trkpt><trkpt lat="44.89188678149545" lon="8.68305982643004"><ele>95.25</ele><time>2026-04-28T07:48:50Z</time></trkpt><trkpt lat="44.8919624749847" lon="8.68288995656915"><ele>95.0</ele><time>2026-04-28T07:48:51Z</time></trkpt><trkpt lat="44.89200727947399" lon="8.682723216110452"><ele>94.75</ele><time>2026-04-28T07:48:52Z</time></trkpt><trkpt lat="44.89205297893819" lon="8.682531155138612"><ele>94.5</ele><time>2026-04-28T07:48:53Z</time></trkpt><trkpt lat="44.89211767306738" lon="8.682348962335901"><ele>94.25</ele><time>2026-04-28T07:48:54Z</time></trkpt><trkpt lat="44.89217035436121" lon="8.682175020293322"><ele>94.0</ele><time>2026-04-28T07:48:55Z</time></trkpt><trkpt lat="44.892220594654574" lon="8.68199135132141"><ele>94.0</ele><time>2026-04-28T07:48:56Z</time></trkpt><trkpt lat="44.89226425482657" lon="8.681792834504508"><ele>94.0</ele><time>2026-04-28T07:48:57Z</time></trkpt><trkpt lat="44.89231831393646" lon="8.681594799301656"><ele>94.0</ele><time>2026-04-28T07:48:58Z</time></trkpt><trkpt lat="44.89235713246143" lon="8.68138906911676"><ele>94.0</ele><time>2026-04-28T07:48:59Z</time></trkpt><trkpt lat="44.89240993820349" lon="8.68122607909387"><ele>94.25</ele><time>2026-04-28T07:49:00Z</time></trkpt><trkpt lat="44.89244441675287" lon="8.68104357848914"><ele>94.5</ele><time>2026-04-28T07:49:01Z</time></trkpt><trkpt lat="44.892482413841236" lon="8.680846103900063"><ele>94.75</ele><time>2026-04-28T07:49:02Z</time></trkpt><trkpt lat="44.89251905062855" lon="8.680668400246095"><ele>95.0</ele><time>2026-04-28T07:49:03Z</time></trkpt><trkpt lat="44.89255759204098" lon="8.680482752384004"><ele>94.66666666666667</ele><time>2026-04-28T07:49:04Z</time></trkpt><trkpt lat="44.892590117046254" lon="8.680284813012022"><ele>94.33333333333333</ele><time>2026-04-28T07:49:05Z</time></trkpt><trkpt lat="44.89262071516921" lon="8.680082845581232"><ele>94.0</ele><time>2026-04-28T07:49:06Z</time></trkpt><trkpt lat="44.89265296139165" lon="8.679847409211513"><ele>93.66666666666666</ele><time>2026-04-28T07:49:07Z</time></trkpt><trkpt lat="44.89270592887202" lon="8.679615132146397"><ele>93.33333333333333</ele><time>2026-04-28T07:49:08Z</time></trkpt><trkpt lat="44.89274139980829" lon="8.679403689405977"><ele>93.0</ele><time>2026-04-28T07:49:09Z</time></trkpt><trkpt lat="44.89277237576084" lon="8.679219041330644"><ele>93.0</ele><time>2026-04-28T07:49:10Z</time></trkpt><trkpt lat="44.89280015421562" lon="8.679041804096189"><ele>93.0</ele><time>2026-04-28T07:49:11Z</time></trkpt><trkpt lat="44.89283069123096" lon="8.678859657404985"><ele>93.0</ele><time>2026-04-28T07:49:12Z</time></trkpt><trkpt lat="44.892864472061305" lon="8.678659043158824"><ele>93.0</ele><time>2026-04-28T07:49:13Z</time></trkpt><trkpt lat="44.892895920717805" lon="8.678472279001191"><ele>93.0</ele><time>2026-04-28T07:49:14Z</time></trkpt><trkpt lat="44.8929264470118" lon="8.678290992479896"><ele>93.0</ele><time>2026-04-28T07:49:15Z</time></trkpt><trkpt lat="44.892958518764814" lon="8.678101850029005"><ele>93.0</ele><time>2026-04-28T07:49:16Z</time></trkpt><trkpt lat="44.89298344720551" lon="8.677918488009997"><ele>93.0</ele><time>2026-04-28T07:49:17Z</time></trkpt><trkpt lat="44.89301166174667" lon="8.677746605863955"><ele>93.0</ele><time>2026-04-28T07:49:18Z</time></trkpt><trkpt lat="44.893043170632964" lon="8.677573877812812"><ele>93.0</ele><time>2026-04-28T07:49:19Z</time></trkpt><trkpt lat="44.893074719056195" lon="8.677404330179645"><ele>93.0</ele><time>2026-04-28T07:49:20Z</time></trkpt><trkpt lat="44.89309960404703" lon="8.677230700010226"><ele>93.0</ele><time>2026-04-28T07:49:21Z</time></trkpt><trkpt lat="44.893131185565764" lon="8.67706620755943"><ele>92.80000000000001</ele><time>2026-04-28T07:49:22Z</time></trkpt><trkpt lat="44.89315880364548" lon="8.67690445938419"><ele>92.6</ele><time>2026-04-28T07:49:23Z</time></trkpt><trkpt lat="44.893180100255606" lon="8.676745718150647"><ele>92.4</ele><time>2026-04-28T07:49:24Z</time></trkpt><trkpt lat="44.89320057054439" lon="8.676608093733591"><ele>92.19999999999999</ele><time>2026-04-28T07:49:25Z</time></trkpt><trkpt lat="44.89323173129177" lon="8.676467513046543"><ele>92.0</ele><time>2026-04-28T07:49:26Z</time></trkpt><trkpt lat="44.8932593508115" lon="8.676352769789721"><ele>92.0</ele><time>2026-04-28T07:49:27Z</time></trkpt><trkpt lat="44.8932824750052" lon="8.676245039288968"><ele>92.0</ele><time>2026-04-28T07:49:28Z</time></trkpt><trkpt lat="44.89331337644251" lon="8.676161847582431"><ele>92.0</ele><time>2026-04-28T07:49:29Z</time></trkpt><trkpt lat="44.893358439314675" lon="8.676049479363705"><ele>92.0</ele><time>2026-04-28T07:49:31Z</time></trkpt><trkpt lat="44.89341054050163" lon="8.675987353508276"><ele>92.0</ele><time>2026-04-28T07:49:32.999Z</time></trkpt><trkpt lat="44.893493066848116" lon="8.675863763430291"><ele>92.0</ele><time>2026-04-28T07:49:35.999Z</time></trkpt><trkpt lat="44.89357090088819" lon="8.675793322317277"><ele>92.0</ele><time>2026-04-28T07:49:36.999Z</time></trkpt><trkpt lat="44.893642815318" lon="8.675716439633925"><ele>92.0</ele><time>2026-04-28T07:49:37.999Z</time></trkpt><trkpt lat="44.893680204558024" lon="8.675621900500047"><ele>92.0</ele><time>2026-04-28T07:49:38.999Z</time></trkpt><trkpt lat="44.89369888216237" lon="8.675513102059512"><ele>92.0</ele><time>2026-04-28T07:49:39.999Z</time></trkpt><trkpt lat="44.89369135076768" lon="8.675412645116714"><ele>92.0</ele><time>2026-04-28T07:49:40.999Z</time></trkpt><trkpt lat="44.89366713262946" lon="8.675308204217275"><ele>92.0</ele><time>2026-04-28T07:49:41.999Z</time></trkpt><trkpt lat="44.89362328463926" lon="8.675215758803246"><ele>92.0</ele><time>2026-04-28T07:49:42.999Z</time></trkpt><trkpt lat="44.89356704902471" lon="8.675155717206984"><ele>92.0</ele><time>2026-04-28T07:49:43.999Z</time></trkpt><trkpt lat="44.89349871891783" lon="8.675112982509567"><ele>92.0</ele><time>2026-04-28T07:49:44.999Z</time></trkpt><trkpt lat="44.89342555140985" lon="8.675091847260644"><ele>92.0</ele><time>2026-04-28T07:49:45.999Z</time></trkpt><trkpt lat="44.89334766102097" lon="8.675086220150646"><ele>92.0</ele><time>2026-04-28T07:49:46.999Z</time></trkpt><trkpt lat="44.89327779928218" lon="8.67508681211918"><ele>92.0</ele><time>2026-04-28T07:49:47.999Z</time></trkpt><trkpt lat="44.893199358813476" lon="8.675098749514035"><ele>92.0</ele><time>2026-04-28T07:49:48.999Z</time></trkpt><trkpt lat="44.89311963577372" lon="8.675025370464633"><ele>92.19999999999999</ele><time>2026-04-28T07:49:49.999Z</time></trkpt><trkpt lat="44.89305335993937" lon="8.674957628097447"><ele>92.4</ele><time>2026-04-28T07:49:50.999Z</time></trkpt><trkpt lat="44.89298268118344" lon="8.67488793296801"><ele>92.6</ele><time>2026-04-28T07:49:51.999Z</time></trkpt><trkpt lat="44.89291092457477" lon="8.67481962077908"><ele>92.80000000000001</ele><time>2026-04-28T07:49:52.999Z</time></trkpt><trkpt lat="44.892832286079944" lon="8.674748909120604"><ele>93.0</ele><time>2026-04-28T07:49:53.999Z</time></trkpt><trkpt lat="44.892745372956114" lon="8.674667548876384"><ele>93.0</ele><time>2026-04-28T07:49:54.999Z</time></trkpt><trkpt lat="44.89264579267912" lon="8.67458184865174"><ele>93.0</ele><time>2026-04-28T07:49:55.999Z</time></trkpt><trkpt lat="44.892547470212264" lon="8.674498268850119"><ele>93.0</ele><time>2026-04-28T07:49:56.999Z</time></trkpt><trkpt lat="44.892458711942716" lon="8.674413413327983"><ele>93.0</ele><time>2026-04-28T07:49:57.999Z</time></trkpt><trkpt lat="44.89237848359411" lon="8.674343923801057"><ele>93.0</ele><time>2026-04-28T07:49:58.999Z</time></trkpt><trkpt lat="44.892302522697776" lon="8.674284514011447"><ele>93.0</ele><time>2026-04-28T07:49:59.999Z</time></trkpt><trkpt lat="44.89223414708029" lon="8.67422135402501"><ele>93.0</ele><time>2026-04-28T07:50:00.999Z</time></trkpt><trkpt lat="44.89216550328567" lon="8.674155154061125"><ele>93.0</ele><time>2026-04-28T07:50:01.999Z</time></trkpt><trkpt lat="44.892090839210404" lon="8.674089014388082"><ele>93.0</ele><time>2026-04-28T07:50:02.999Z</time></trkpt><trkpt lat="44.89201645711799" lon="8.674024439315984"><ele>93.0</ele><time>2026-04-28T07:50:03.999Z</time></trkpt><trkpt lat="44.89194497130678" lon="8.673958212015984"><ele>93.0</ele><time>2026-04-28T07:50:04.999Z</time></trkpt><trkpt lat="44.89188146002122" lon="8.673894958481874"><ele>93.0</ele><time>2026-04-28T07:50:05.999Z</time></trkpt><trkpt lat="44.89183094932937" lon="8.673828609883616"><ele>93.0</ele><time>2026-04-28T07:50:06.999Z</time></trkpt><trkpt lat="44.89176595919914" lon="8.673672589311233"><ele>93.0</ele><time>2026-04-28T07:50:08.999Z</time></trkpt><trkpt lat="44.891751741600146" lon="8.673581673554956"><ele>93.0</ele><time>2026-04-28T07:50:09.999Z</time></trkpt><trkpt lat="44.89173343571894" lon="8.673494734818401"><ele>93.0</ele><time>2026-04-28T07:50:10.999Z</time></trkpt><trkpt lat="44.89169941569187" lon="8.673398519780713"><ele>93.0</ele><time>2026-04-28T07:50:11.999Z</time></trkpt><trkpt lat="44.891638762746524" lon="8.673331180798431"><ele>92.66666666666667</ele><time>2026-04-28T07:50:12.999Z</time></trkpt><trkpt lat="44.89157688816873" lon="8.673282633404797"><ele>92.33333333333333</ele><time>2026-04-28T07:50:13.999Z</time></trkpt><trkpt lat="44.891504672771354" lon="8.673277602912218"><ele>92.0</ele><time>2026-04-28T07:50:14.999Z</time></trkpt><trkpt lat="44.891431072217785" lon="8.673259777847976"><ele>91.66666666666666</ele><time>2026-04-28T07:50:15.999Z</time></trkpt><trkpt lat="44.89132696810968" lon="8.673408214588065"><ele>91.33333333333333</ele><time>2026-04-28T07:50:17.999Z</time></trkpt><trkpt lat="44.891290920720564" lon="8.673507166541393"><ele>91.0</ele><time>2026-04-28T07:50:18.999Z</time></trkpt><trkpt lat="44.89126789278363" lon="8.673600716134612"><ele>91.19999999999999</ele><time>2026-04-28T07:50:19.999Z</time></trkpt><trkpt lat="44.89122668200275" lon="8.67370777898413"><ele>91.39999999999999</ele><time>2026-04-28T07:50:20.999Z</time></trkpt><trkpt lat="44.89118458053207" lon="8.673817485877658"><ele>91.6</ele><time>2026-04-28T07:50:21.999Z</time></trkpt><trkpt lat="44.89115901240003" lon="8.673932185193726"><ele>91.8</ele><time>2026-04-28T07:50:22.999Z</time></trkpt><trkpt lat="44.891127061328106" lon="8.674048009027286"><ele>92.0</ele><time>2026-04-28T07:50:23.999Z</time></trkpt><trkpt lat="44.89101414455414" lon="8.674115492001729"><ele>92.0</ele><time>2026-04-28T07:50:24.999Z</time></trkpt><trkpt lat="44.89094301996981" lon="8.67420229843578"><ele>92.0</ele><time>2026-04-28T07:50:25.999Z</time></trkpt><trkpt lat="44.89086828858173" lon="8.674282893355606"><ele>92.0</ele><time>2026-04-28T07:50:27Z</time></trkpt><trkpt lat="44.890800106463416" lon="8.67436490530563"><ele>92.0</ele><time>2026-04-28T07:50:28Z</time></trkpt><trkpt lat="44.89072742145041" lon="8.67444145029411"><ele>92.0</ele><time>2026-04-28T07:50:29Z</time></trkpt><trkpt lat="44.89065634966372" lon="8.674517224744902"><ele>92.19999999999999</ele><time>2026-04-28T07:50:30Z</time></trkpt><trkpt lat="44.89058741389378" lon="8.674594351806713"><ele>92.4</ele><time>2026-04-28T07:50:31Z</time></trkpt><trkpt lat="44.89052226644401" lon="8.674669595568664"><ele>92.6</ele><time>2026-04-28T07:50:32Z</time></trkpt><trkpt lat="44.89044008855546" lon="8.674776520007654"><ele>92.80000000000001</ele><time>2026-04-28T07:50:33Z</time></trkpt><trkpt lat="44.89035593617484" lon="8.674884197951707"><ele>93.0</ele><time>2026-04-28T07:50:34Z</time></trkpt><trkpt lat="44.890277214820436" lon="8.674972709119087"><ele>93.0</ele><time>2026-04-28T07:50:35Z</time></trkpt><trkpt lat="44.890202299269504" lon="8.675055813429786"><ele>93.0</ele><time>2026-04-28T07:50:36Z</time></trkpt><trkpt lat="44.89013137162598" lon="8.67513514483571"><ele>93.0</ele><time>2026-04-28T07:50:37Z</time></trkpt><trkpt lat="44.890064117098866" lon="8.675199130702158"><ele>93.0</ele><time>2026-04-28T07:50:38Z</time></trkpt><trkpt lat="44.889994435730806" lon="8.675264275292738"><ele>93.0</ele><time>2026-04-28T07:50:39Z</time></trkpt><trkpt lat="44.88993886719012" lon="8.67533464518269"><ele>93.0</ele><time>2026-04-28T07:50:40Z</time></trkpt><trkpt lat="44.88987990124535" lon="8.675397526196283"><ele>93.16666666666667</ele><time>2026-04-28T07:50:41Z</time></trkpt><trkpt lat="44.889816087251404" lon="8.67546281838674"><ele>93.33333333333333</ele><time>2026-04-28T07:50:42Z</time></trkpt><trkpt lat="44.8897459549049" lon="8.675530948112048"><ele>93.5</ele><time>2026-04-28T07:50:43Z</time></trkpt><trkpt lat="44.889681611634806" lon="8.67560518117594"><ele>93.66666666666666</ele><time>2026-04-28T07:50:44Z</time></trkpt><trkpt lat="44.889615889640055" lon="8.675680833957662"><ele>93.83333333333333</ele><time>2026-04-28T07:50:45Z</time></trkpt><trkpt lat="44.889538129892806" lon="8.67577200232353"><ele>94.0</ele><time>2026-04-28T07:50:46Z</time></trkpt><trkpt lat="44.889459629080136" lon="8.675872336346053"><ele>94.0</ele><time>2026-04-28T07:50:47Z</time></trkpt><trkpt lat="44.889378662109706" lon="8.675956971342972"><ele>94.0</ele><time>2026-04-28T07:50:48Z</time></trkpt><trkpt lat="44.889309628369645" lon="8.67603940343179"><ele>94.0</ele><time>2026-04-28T07:50:49Z</time></trkpt><trkpt lat="44.88925084144164" lon="8.676124961458095"><ele>94.0</ele><time>2026-04-28T07:50:50Z</time></trkpt><trkpt lat="44.88918219581213" lon="8.676204420328819"><ele>94.0</ele><time>2026-04-28T07:50:51Z</time></trkpt><trkpt lat="44.889100869015124" lon="8.676279635071358"><ele>94.4</ele><time>2026-04-28T07:50:52Z</time></trkpt><trkpt lat="44.88903293278069" lon="8.676357836977774"><ele>94.80000000000001</ele><time>2026-04-28T07:50:53Z</time></trkpt><trkpt lat="44.88895052205299" lon="8.676438068171317"><ele>95.19999999999999</ele><time>2026-04-28T07:50:54Z</time></trkpt><trkpt lat="44.88887360960719" lon="8.676534643631612"><ele>95.6</ele><time>2026-04-28T07:50:55Z</time></trkpt><trkpt lat="44.88878166048178" lon="8.676636582438894"><ele>96.0</ele><time>2026-04-28T07:50:56Z</time></trkpt><trkpt lat="44.888695292142636" lon="8.67672170809532"><ele>96.0</ele><time>2026-04-28T07:50:57Z</time></trkpt><trkpt lat="44.88862353309964" lon="8.676797305096263"><ele>96.0</ele><time>2026-04-28T07:50:58Z</time></trkpt><trkpt lat="44.888548131094964" lon="8.67688382335121"><ele>96.0</ele><time>2026-04-28T07:50:59Z</time></trkpt><trkpt lat="44.88847133728671" lon="8.676969220332715"><ele>96.0</ele><time>2026-04-28T07:51:00Z</time></trkpt><trkpt lat="44.88839003468682" lon="8.67705255678329"><ele>96.0</ele><time>2026-04-28T07:51:01Z</time></trkpt><trkpt lat="44.88830738799495" lon="8.67714539342145"><ele>96.0</ele><time>2026-04-28T07:51:02Z</time></trkpt><trkpt lat="44.888218629036224" lon="8.677242875730444"><ele>96.0</ele><time>2026-04-28T07:51:03Z</time></trkpt><trkpt lat="44.8881339410959" lon="8.677346048024726"><ele>96.0</ele><time>2026-04-28T07:51:04Z</time></trkpt><trkpt lat="44.888050015378525" lon="8.677442342885898"><ele>96.0</ele><time>2026-04-28T07:51:05Z</time></trkpt><trkpt lat="44.88797855199842" lon="8.677520909065185"><ele>96.0</ele><time>2026-04-28T07:51:06Z</time></trkpt><trkpt lat="44.887907337611985" lon="8.677598898636884"><ele>96.0</ele><time>2026-04-28T07:51:07Z</time></trkpt><trkpt lat="44.8878376881929" lon="8.677672994860682"><ele>96.0</ele><time>2026-04-28T07:51:08Z</time></trkpt><trkpt lat="44.88779587946983" lon="8.677742216722597"><ele>96.0</ele><time>2026-04-28T07:51:09Z</time></trkpt><trkpt lat="44.88771721847726" lon="8.677822588398376"><ele>96.0</ele><time>2026-04-28T07:51:11Z</time></trkpt><trkpt lat="44.88763663898662" lon="8.677833572586332"><ele>96.0</ele><time>2026-04-28T07:51:13Z</time></trkpt><trkpt lat="44.887584429287436" lon="8.677755906842739"><ele>96.0</ele><time>2026-04-28T07:51:15Z</time></trkpt><trkpt lat="44.88748957086085" lon="8.677567926444622"><ele>96.19999999999999</ele><time>2026-04-28T07:51:17Z</time></trkpt><trkpt lat="44.887391367515605" lon="8.677465242784601"><ele>96.39999999999999</ele><time>2026-04-28T07:51:18Z</time></trkpt><trkpt lat="44.887309178074496" lon="8.677403949795305"><ele>96.6</ele><time>2026-04-28T07:51:19Z</time></trkpt><trkpt lat="44.88724469067573" lon="8.677390492257853"><ele>96.8</ele><time>2026-04-28T07:51:20Z</time></trkpt><trkpt lat="44.88717423529848" lon="8.677422936515459"><ele>97.0</ele><time>2026-04-28T07:51:21Z</time></trkpt><trkpt lat="44.88702354098175" lon="8.677474621811555"><ele>97.0</ele><time>2026-04-28T07:51:23Z</time></trkpt><trkpt lat="44.88693798212853" lon="8.677513117833193"><ele>97.0</ele><time>2026-04-28T07:51:24Z</time></trkpt><trkpt lat="44.88684741697389" lon="8.67755055668471"><ele>97.0</ele><time>2026-04-28T07:51:25Z</time></trkpt><trkpt lat="44.88675519631209" lon="8.677582219457394"><ele>97.0</ele><time>2026-04-28T07:51:26Z</time></trkpt><trkpt lat="44.88662939856579" lon="8.677603668079687"><ele>97.0</ele><time>2026-04-28T07:51:27Z</time></trkpt><trkpt lat="44.88648151293366" lon="8.677614702199087"><ele>97.25</ele><time>2026-04-28T07:51:28Z</time></trkpt><trkpt lat="44.886345323251724" lon="8.677605742752956"><ele>97.5</ele><time>2026-04-28T07:51:29Z</time></trkpt><trkpt lat="44.8862218404008" lon="8.677632079194392"><ele>97.75</ele><time>2026-04-28T07:51:30Z</time></trkpt><trkpt lat="44.88609999274356" lon="8.677645321285038"><ele>98.0</ele><time>2026-04-28T07:51:30.999Z</time></trkpt><trkpt lat="44.88598494592076" lon="8.677648831365845"><ele>98.2</ele><time>2026-04-28T07:51:31.999Z</time></trkpt><trkpt lat="44.885889392030386" lon="8.677643114162057"><ele>98.4</ele><time>2026-04-28T07:51:32.999Z</time></trkpt><trkpt lat="44.88578420282591" lon="8.67764422023655"><ele>98.60000000000001</ele><time>2026-04-28T07:51:33.999Z</time></trkpt><trkpt lat="44.88566812459303" lon="8.677646611260664"><ele>98.80000000000001</ele><time>2026-04-28T07:51:34.999Z</time></trkpt><trkpt lat="44.88555613263777" lon="8.677640309089094"><ele>99.0</ele><time>2026-04-28T07:51:35.999Z</time></trkpt><trkpt lat="44.88543601661994" lon="8.677614629746696"><ele>99.0</ele><time>2026-04-28T07:51:36.999Z</time></trkpt><trkpt lat="44.88530950987081" lon="8.677590069225532"><ele>99.0</ele><time>2026-04-28T07:51:37.999Z</time></trkpt><trkpt lat="44.88519581166794" lon="8.677563652309336"><ele>99.0</ele><time>2026-04-28T07:51:38.999Z</time></trkpt><trkpt lat="44.885093817872004" lon="8.677536228470482"><ele>99.0</ele><time>2026-04-28T07:51:39.999Z</time></trkpt><trkpt lat="44.884999933141216" lon="8.677510171206393"><ele>99.0</ele><time>2026-04-28T07:51:40.999Z</time></trkpt><trkpt lat="44.88490581945315" lon="8.677477575646067"><ele>98.4</ele><time>2026-04-28T07:51:41.999Z</time></trkpt><trkpt lat="44.88481092294978" lon="8.677448602308337"><ele>97.80000000000001</ele><time>2026-04-28T07:51:42.999Z</time></trkpt><trkpt lat="44.88471455814777" lon="8.67741424883319"><ele>97.19999999999999</ele><time>2026-04-28T07:51:43.999Z</time></trkpt><trkpt lat="44.88461673484224" lon="8.677382200693296"><ele>96.6</ele><time>2026-04-28T07:51:44.999Z</time></trkpt><trkpt lat="44.88451183804172" lon="8.67735062665735"><ele>96.0</ele><time>2026-04-28T07:51:45.999Z</time></trkpt><trkpt lat="44.88440798655919" lon="8.677320424286048"><ele>96.0</ele><time>2026-04-28T07:51:46.999Z</time></trkpt><trkpt lat="44.884312286312635" lon="8.677280926287724"><ele>96.0</ele><time>2026-04-28T07:51:47.999Z</time></trkpt><trkpt lat="44.884183471464546" lon="8.677243667459773"><ele>96.0</ele><time>2026-04-28T07:51:49.999Z</time></trkpt><trkpt lat="44.88411574262185" lon="8.677220112149545"><ele>96.0</ele><time>2026-04-28T07:51:50.999Z</time></trkpt><trkpt lat="44.88404756564124" lon="8.677180012270986"><ele>96.0</ele><time>2026-04-28T07:51:51.999Z</time></trkpt><trkpt lat="44.8839485418509" lon="8.677164928795959"><ele>96.25</ele><time>2026-04-28T07:51:52.999Z</time></trkpt><trkpt lat="44.883842088728876" lon="8.677131848725155"><ele>96.5</ele><time>2026-04-28T07:51:53.999Z</time></trkpt><trkpt lat="44.8837184143909" lon="8.67709699361651"><ele>96.75</ele><time>2026-04-28T07:51:54.999Z</time></trkpt><trkpt lat="44.88358020552991" lon="8.67708503835561"><ele>97.0</ele><time>2026-04-28T07:51:55.999Z</time></trkpt><trkpt lat="44.88342113560921" lon="8.677030526094365"><ele>97.33333333333334</ele><time>2026-04-28T07:51:56.999Z</time></trkpt><trkpt lat="44.88326180195731" lon="8.676987033176472"><ele>97.66666666666666</ele><time>2026-04-28T07:51:57.999Z</time></trkpt><trkpt lat="44.88310633073274" lon="8.676945856300602"><ele>98.0</ele><time>2026-04-28T07:51:58.999Z</time></trkpt><trkpt lat="44.882967345709325" lon="8.676904196962896"><ele>98.0</ele><time>2026-04-28T07:51:59.999Z</time></trkpt><trkpt lat="44.88285053890302" lon="8.676873960734332"><ele>98.0</ele><time>2026-04-28T07:52:00.999Z</time></trkpt><trkpt lat="44.88273757892211" lon="8.676831207847796"><ele>98.0</ele><time>2026-04-28T07:52:01.999Z</time></trkpt><trkpt lat="44.88263039657624" lon="8.676789725903525"><ele>98.0</ele><time>2026-04-28T07:52:02.999Z</time></trkpt><trkpt lat="44.88251667309765" lon="8.676753278718097"><ele>98.0</ele><time>2026-04-28T07:52:03.999Z</time></trkpt><trkpt lat="44.88239947876607" lon="8.676714809646443"><ele>98.0</ele><time>2026-04-28T07:52:04.999Z</time></trkpt><trkpt lat="44.8822818420892" lon="8.676673869545288"><ele>98.0</ele><time>2026-04-28T07:52:05.999Z</time></trkpt><trkpt lat="44.8821729187632" lon="8.676636150432142"><ele>98.0</ele><time>2026-04-28T07:52:06.999Z</time></trkpt><trkpt lat="44.88207294731052" lon="8.67660234903654"><ele>97.99999999999999</ele><time>2026-04-28T07:52:07.999Z</time></trkpt><trkpt lat="44.88199169638216" lon="8.676560547038738"><ele>98.0</ele><time>2026-04-28T07:52:08.999Z</time></trkpt><trkpt lat="44.88192981416685" lon="8.67654092737704"><ele>98.0</ele><time>2026-04-28T07:52:09.999Z</time></trkpt><trkpt lat="44.88185463071839" lon="8.676523295834365"><ele>98.0</ele><time>2026-04-28T07:52:11.999Z</time></trkpt><trkpt lat="44.88176512777435" lon="8.676514063050632"><ele>97.99999999999999</ele><time>2026-04-28T07:52:15.999Z</time></trkpt><trkpt lat="44.881685301372244" lon="8.676494980489812"><ele>98.0</ele><time>2026-04-28T07:52:18.999Z</time></trkpt><trkpt lat="44.88160793667503" lon="8.676491228694433"><ele>98.0</ele><time>2026-04-28T07:52:20.999Z</time></trkpt><trkpt lat="44.88150160840049" lon="8.676467804056255"><ele>98.0</ele><time>2026-04-28T07:52:22.999Z</time></trkpt><trkpt lat="44.88142353284352" lon="8.676456227518667"><ele>98.0</ele><time>2026-04-28T07:52:23.999Z</time></trkpt><trkpt lat="44.88132650159279" lon="8.6764443125731"><ele>98.0</ele><time>2026-04-28T07:52:24.999Z</time></trkpt><trkpt lat="44.88123032036427" lon="8.676427752539029"><ele>98.0</ele><time>2026-04-28T07:52:25.999Z</time></trkpt><trkpt lat="44.88108979054292" lon="8.676395159781093"><ele>98.0</ele><time>2026-04-28T07:52:26.999Z</time></trkpt><trkpt lat="44.88097352981338" lon="8.676348009518344"><ele>98.0</ele><time>2026-04-28T07:52:27.999Z</time></trkpt><trkpt lat="44.88085835265643" lon="8.676318795040551"><ele>98.0</ele><time>2026-04-28T07:52:28.999Z</time></trkpt><trkpt lat="44.88074110648674" lon="8.676283292422836"><ele>98.0</ele><time>2026-04-28T07:52:29.999Z</time></trkpt><trkpt lat="44.88062892091811" lon="8.67625190549889"><ele>97.75</ele><time>2026-04-28T07:52:30.999Z</time></trkpt><trkpt lat="44.88051061785629" lon="8.676220917907477"><ele>97.5</ele><time>2026-04-28T07:52:31.999Z</time></trkpt><trkpt lat="44.88038710882016" lon="8.676183468322234"><ele>97.25</ele><time>2026-04-28T07:52:33Z</time></trkpt><trkpt lat="44.880253507618235" lon="8.676140916363531"><ele>97.0</ele><time>2026-04-28T07:52:34Z</time></trkpt><trkpt lat="44.880104774706425" lon="8.67609625499103"><ele>96.66666666666667</ele><time>2026-04-28T07:52:35Z</time></trkpt><trkpt lat="44.8799460173457" lon="8.676044508377815"><ele>96.33333333333334</ele><time>2026-04-28T07:52:36Z</time></trkpt><trkpt lat="44.87979548806456" lon="8.675997796230108"><ele>96.0</ele><time>2026-04-28T07:52:37Z</time></trkpt><trkpt lat="44.87965630232702" lon="8.675956056834533"><ele>96.0</ele><time>2026-04-28T07:52:38Z</time></trkpt><trkpt lat="44.879523320954654" lon="8.675912613261017"><ele>96.0</ele><time>2026-04-28T07:52:39Z</time></trkpt><trkpt lat="44.879401077690346" lon="8.675877369291417"><ele>96.0</ele><time>2026-04-28T07:52:40Z</time></trkpt><trkpt lat="44.87927171976668" lon="8.67583538906994"><ele>96.0</ele><time>2026-04-28T07:52:41Z</time></trkpt><trkpt lat="44.87913594351" lon="8.675788095586746"><ele>95.75</ele><time>2026-04-28T07:52:42Z</time></trkpt><trkpt lat="44.87899530207774" lon="8.675746404467233"><ele>95.5</ele><time>2026-04-28T07:52:43Z</time></trkpt><trkpt lat="44.878850693921436" lon="8.675698259556262"><ele>95.25</ele><time>2026-04-28T07:52:44Z</time></trkpt><trkpt lat="44.87871336677348" lon="8.675655813369689"><ele>95.0</ele><time>2026-04-28T07:52:45Z</time></trkpt><trkpt lat="44.87858468645433" lon="8.675614150028563"><ele>95.0</ele><time>2026-04-28T07:52:46Z</time></trkpt><trkpt lat="44.878462540715674" lon="8.675577813064816"><ele>95.0</ele><time>2026-04-28T07:52:47Z</time></trkpt><trkpt lat="44.87833452016461" lon="8.675529594320418"><ele>95.0</ele><time>2026-04-28T07:52:48Z</time></trkpt><trkpt lat="44.87820887259589" lon="8.675489104325615"><ele>95.0</ele><time>2026-04-28T07:52:49Z</time></trkpt><trkpt lat="44.87807610324125" lon="8.675444006004803"><ele>95.25</ele><time>2026-04-28T07:52:50Z</time></trkpt><trkpt lat="44.87793687563525" lon="8.675398722696759"><ele>95.5</ele><time>2026-04-28T07:52:51Z</time></trkpt><trkpt lat="44.877795100959375" lon="8.675350787813814"><ele>95.75</ele><time>2026-04-28T07:52:52Z</time></trkpt><trkpt lat="44.87765444828889" lon="8.675308792605417"><ele>96.0</ele><time>2026-04-28T07:52:53Z</time></trkpt><trkpt lat="44.87751480261109" lon="8.675259850048143"><ele>96.0</ele><time>2026-04-28T07:52:54Z</time></trkpt><trkpt lat="44.87737715253175" lon="8.675220627509558"><ele>96.0</ele><time>2026-04-28T07:52:55Z</time></trkpt><trkpt lat="44.87724619853623" lon="8.675193647271376"><ele>96.0</ele><time>2026-04-28T07:52:56Z</time></trkpt><trkpt lat="44.87711919453842" lon="8.67514134044377"><ele>96.0</ele><time>2026-04-28T07:52:57Z</time></trkpt><trkpt lat="44.87698002769811" lon="8.675104949950482"><ele>96.0</ele><time>2026-04-28T07:52:58Z</time></trkpt><trkpt lat="44.87682532849303" lon="8.675068759793588"><ele>96.0</ele><time>2026-04-28T07:52:59Z</time></trkpt><trkpt lat="44.87665502073285" lon="8.675032397974425"><ele>96.0</ele><time>2026-04-28T07:53:00Z</time></trkpt><trkpt lat="44.87646559664095" lon="8.67499424623713"><ele>96.0</ele><time>2026-04-28T07:53:01Z</time></trkpt><trkpt lat="44.87625253226383" lon="8.674951333135365"><ele>96.0</ele><time>2026-04-28T07:53:02Z</time></trkpt><trkpt lat="44.87601545821763" lon="8.674903397745043"><ele>96.5</ele><time>2026-04-28T07:53:03Z</time></trkpt><trkpt lat="44.87576013688278" lon="8.67484899939659"><ele>97.0</ele><time>2026-04-28T07:53:04Z</time></trkpt><trkpt lat="44.875503042618" lon="8.67479230346511"><ele>97.0</ele><time>2026-04-28T07:53:05Z</time></trkpt><trkpt lat="44.87525951538974" lon="8.674752187617965"><ele>97.0</ele><time>2026-04-28T07:53:06Z</time></trkpt><trkpt lat="44.87504332712939" lon="8.674687155675251"><ele>97.33333333333334</ele><time>2026-04-28T07:53:07Z</time></trkpt><trkpt lat="44.87483531223513" lon="8.674629242520897"><ele>97.66666666666666</ele><time>2026-04-28T07:53:08Z</time></trkpt><trkpt lat="44.87463335527168" lon="8.674550536672795"><ele>98.0</ele><time>2026-04-28T07:53:09Z</time></trkpt><trkpt lat="44.874420373913885" lon="8.67450768522062"><ele>98.0</ele><time>2026-04-28T07:53:10Z</time></trkpt><trkpt lat="44.874210165433" lon="8.67444557111606"><ele>98.0</ele><time>2026-04-28T07:53:11Z</time></trkpt><trkpt lat="44.8739979256215" lon="8.674384521864868"><ele>98.0</ele><time>2026-04-28T07:53:12Z</time></trkpt><trkpt lat="44.87378552898623" lon="8.674320461687305"><ele>98.0</ele><time>2026-04-28T07:53:13Z</time></trkpt><trkpt lat="44.87357228160606" lon="8.674252136474246"><ele>98.0</ele><time>2026-04-28T07:53:14Z</time></trkpt><trkpt lat="44.873358364242804" lon="8.674183181261382"><ele>98.0</ele><time>2026-04-28T07:53:15Z</time></trkpt><trkpt lat="44.87314019121299" lon="8.674108246918472"><ele>97.5</ele><time>2026-04-28T07:53:16Z</time></trkpt><trkpt lat="44.8729188719388" lon="8.6740351042849"><ele>97.0</ele><time>2026-04-28T07:53:17Z</time></trkpt><trkpt lat="44.87269563060448" lon="8.673952196705486"><ele>97.5</ele><time>2026-04-28T07:53:18Z</time></trkpt><trkpt lat="44.872466728170025" lon="8.673865129078562"><ele>98.0</ele><time>2026-04-28T07:53:19Z</time></trkpt><trkpt lat="44.87223493179691" lon="8.673779768346604"><ele>98.0</ele><time>2026-04-28T07:53:20Z</time></trkpt><trkpt lat="44.87200562200278" lon="8.673698518362167"><ele>98.0</ele><time>2026-04-28T07:53:21Z</time></trkpt><trkpt lat="44.871778191590785" lon="8.673612989107207"><ele>98.33333333333333</ele><time>2026-04-28T07:53:22Z</time></trkpt><trkpt lat="44.8715616031258" lon="8.673532893638697"><ele>98.66666666666666</ele><time>2026-04-28T07:53:23Z</time></trkpt><trkpt lat="44.87135892205148" lon="8.673441496075162"><ele>99.0</ele><time>2026-04-28T07:53:24Z</time></trkpt><trkpt lat="44.87116547206158" lon="8.673355932895184"><ele>99.0</ele><time>2026-04-28T07:53:25Z</time></trkpt><trkpt lat="44.87096610098371" lon="8.673297677143768"><ele>99.0</ele><time>2026-04-28T07:53:26Z</time></trkpt><trkpt lat="44.870752557830976" lon="8.67323389746771"><ele>99.0</ele><time>2026-04-28T07:53:27Z</time></trkpt><trkpt lat="44.870538555885105" lon="8.673181544268054"><ele>98.66666666666666</ele><time>2026-04-28T07:53:28Z</time></trkpt><trkpt lat="44.870330332238595" lon="8.673124868897547"><ele>98.33333333333333</ele><time>2026-04-28T07:53:29Z</time></trkpt><trkpt lat="44.87012117565677" lon="8.67307258403132"><ele>98.0</ele><time>2026-04-28T07:53:30Z</time></trkpt><trkpt lat="44.869912138049735" lon="8.673007163632247"><ele>98.0</ele><time>2026-04-28T07:53:31Z</time></trkpt><trkpt lat="44.86970263866597" lon="8.67293347363805"><ele>98.0</ele><time>2026-04-28T07:53:32Z</time></trkpt><trkpt lat="44.86949141452112" lon="8.672863966748082"><ele>98.0</ele><time>2026-04-28T07:53:32.999Z</time></trkpt><trkpt lat="44.869286830137405" lon="8.67279490750213"><ele>98.0</ele><time>2026-04-28T07:53:33.999Z</time></trkpt><trkpt lat="44.86907586350442" lon="8.672725114826813"><ele>98.0</ele><time>2026-04-28T07:53:34.999Z</time></trkpt><trkpt lat="44.8688644761818" lon="8.672657227404828"><ele>98.0</ele><time>2026-04-28T07:53:35.999Z</time></trkpt><trkpt lat="44.86864698555364" lon="8.67260015278734"><ele>98.5</ele><time>2026-04-28T07:53:36.999Z</time></trkpt><trkpt lat="44.86842199350161" lon="8.672535728767187"><ele>99.0</ele><time>2026-04-28T07:53:37.999Z</time></trkpt><trkpt lat="44.86819008881747" lon="8.672477345074965"><ele>99.0</ele><time>2026-04-28T07:53:38.999Z</time></trkpt><trkpt lat="44.867953128237616" lon="8.672420292421567"><ele>99.0</ele><time>2026-04-28T07:53:39.999Z</time></trkpt><trkpt lat="44.86770120690521" lon="8.672358895971632"><ele>99.0</ele><time>2026-04-28T07:53:40.999Z</time></trkpt><trkpt lat="44.8674356779615" lon="8.672292990493963"><ele>99.0</ele><time>2026-04-28T07:53:41.999Z</time></trkpt><trkpt lat="44.86715095363632" lon="8.672231340823977"><ele>99.0</ele><time>2026-04-28T07:53:42.999Z</time></trkpt><trkpt lat="44.866865873291424" lon="8.672170728946963"><ele>99.0</ele><time>2026-04-28T07:53:43.999Z</time></trkpt><trkpt lat="44.86661896648852" lon="8.672114251942013"><ele>99.0</ele><time>2026-04-28T07:53:44.999Z</time></trkpt><trkpt lat="44.866385074785335" lon="8.67204831075682"><ele>99.0</ele><time>2026-04-28T07:53:45.999Z</time></trkpt><trkpt lat="44.86616240565678" lon="8.671993077143943"><ele>99.0</ele><time>2026-04-28T07:53:46.999Z</time></trkpt><trkpt lat="44.86595933840342" lon="8.671949741334085"><ele>99.0</ele><time>2026-04-28T07:53:47.999Z</time></trkpt><trkpt lat="44.86575543951802" lon="8.671947588600325"><ele>99.0</ele><time>2026-04-28T07:53:48.999Z</time></trkpt><trkpt lat="44.86555125539298" lon="8.671971997480053"><ele>99.33333333333334</ele><time>2026-04-28T07:53:49.999Z</time></trkpt><trkpt lat="44.865345762343864" lon="8.672002507212826"><ele>99.66666666666667</ele><time>2026-04-28T07:53:50.999Z</time></trkpt><trkpt lat="44.865142572748965" lon="8.672039879126567"><ele>100.0</ele><time>2026-04-28T07:53:51.999Z</time></trkpt><trkpt lat="44.864950638748084" lon="8.67207879889519"><ele>100.33333333333334</ele><time>2026-04-28T07:53:52.999Z</time></trkpt><trkpt lat="44.86475797596172" lon="8.672111405574551"><ele>100.66666666666666</ele><time>2026-04-28T07:53:53.999Z</time></trkpt><trkpt lat="44.86456995530187" lon="8.67216469153698"><ele>101.0</ele><time>2026-04-28T07:53:54.999Z</time></trkpt><trkpt lat="44.86438207418574" lon="8.672237173970824"><ele>100.33333333333333</ele><time>2026-04-28T07:53:55.999Z</time></trkpt><trkpt lat="44.864202722721934" lon="8.672336956633362"><ele>99.66666666666666</ele><time>2026-04-28T07:53:56.999Z</time></trkpt><trkpt lat="44.86402196030823" lon="8.672443080348398"><ele>99.0</ele><time>2026-04-28T07:53:57.999Z</time></trkpt><trkpt lat="44.863836783703526" lon="8.672540501231644"><ele>99.0</ele><time>2026-04-28T07:53:58.999Z</time></trkpt><trkpt lat="44.863650799762326" lon="8.672637361415381"><ele>99.0</ele><time>2026-04-28T07:53:59.999Z</time></trkpt><trkpt lat="44.86346409805491" lon="8.672744492799856"><ele>99.0</ele><time>2026-04-28T07:54:00.999Z</time></trkpt><trkpt lat="44.863274775526314" lon="8.67284553635911"><ele>99.33333333333334</ele><time>2026-04-28T07:54:01.999Z</time></trkpt><trkpt lat="44.863084171101114" lon="8.67294678732828"><ele>99.66666666666667</ele><time>2026-04-28T07:54:02.999Z</time></trkpt><trkpt lat="44.862889477226275" lon="8.673055406620692"><ele>100.0</ele><time>2026-04-28T07:54:03.999Z</time></trkpt><trkpt lat="44.86268518567433" lon="8.673158306415047"><ele>99.5</ele><time>2026-04-28T07:54:04.999Z</time></trkpt><trkpt lat="44.86247466732065" lon="8.67327016739755"><ele>99.0</ele><time>2026-04-28T07:54:05.999Z</time></trkpt><trkpt lat="44.86226067502241" lon="8.673390430485046"><ele>99.0</ele><time>2026-04-28T07:54:06.999Z</time></trkpt><trkpt lat="44.862039798293395" lon="8.673504840228588"><ele>99.0</ele><time>2026-04-28T07:54:07.999Z</time></trkpt><trkpt lat="44.861815657013445" lon="8.673622383357202"><ele>99.5</ele><time>2026-04-28T07:54:08.999Z</time></trkpt><trkpt lat="44.861590938817834" lon="8.673738626514123"><ele>100.0</ele><time>2026-04-28T07:54:09.999Z</time></trkpt><trkpt lat="44.86134951592152" lon="8.673861711944895"><ele>100.0</ele><time>2026-04-28T07:54:10.999Z</time></trkpt><trkpt lat="44.8610860047688" lon="8.674000120696887"><ele>100.0</ele><time>2026-04-28T07:54:11.999Z</time></trkpt><trkpt lat="44.86080627413498" lon="8.674150385257187"><ele>100.5</ele><time>2026-04-28T07:54:12.999Z</time></trkpt><trkpt lat="44.86054660279484" lon="8.674288980217373"><ele>101.0</ele><time>2026-04-28T07:54:13.999Z</time></trkpt><trkpt lat="44.8603072909086" lon="8.674413811585175"><ele>101.0</ele><time>2026-04-28T07:54:14.999Z</time></trkpt><trkpt lat="44.86008223607607" lon="8.674535979184943"><ele>101.0</ele><time>2026-04-28T07:54:15.999Z</time></trkpt><trkpt lat="44.85987074149019" lon="8.67465015861907"><ele>101.0</ele><time>2026-04-28T07:54:16.999Z</time></trkpt><trkpt lat="44.8596688083074" lon="8.674757305774893"><ele>101.0</ele><time>2026-04-28T07:54:17.999Z</time></trkpt><trkpt lat="44.85947362501471" lon="8.674858589373182"><ele>101.0</ele><time>2026-04-28T07:54:18.999Z</time></trkpt><trkpt lat="44.859286927328085" lon="8.674955887393846"><ele>101.0</ele><time>2026-04-28T07:54:19.999Z</time></trkpt><trkpt lat="44.85910169251934" lon="8.675058803470616"><ele>101.0</ele><time>2026-04-28T07:54:20.999Z</time></trkpt><trkpt lat="44.85892359228842" lon="8.67515720665478"><ele>101.0</ele><time>2026-04-28T07:54:21.999Z</time></trkpt><trkpt lat="44.858741966045415" lon="8.675253081170894"><ele>101.33333333333333</ele><time>2026-04-28T07:54:22.999Z</time></trkpt><trkpt lat="44.85856038355148" lon="8.675346754121266"><ele>101.66666666666666</ele><time>2026-04-28T07:54:23.999Z</time></trkpt><trkpt lat="44.85837628712549" lon="8.675442775809985"><ele>102.0</ele><time>2026-04-28T07:54:24.999Z</time></trkpt><trkpt lat="44.8581891720528" lon="8.675541144267505"><ele>102.0</ele><time>2026-04-28T07:54:25.999Z</time></trkpt><trkpt lat="44.85799935062667" lon="8.675642441345717"><ele>102.0</ele><time>2026-04-28T07:54:26.999Z</time></trkpt><trkpt lat="44.85780907371571" lon="8.675741764244634"><ele>102.0</ele><time>2026-04-28T07:54:27.999Z</time></trkpt><trkpt lat="44.85761856251373" lon="8.67582889493132"><ele>102.0</ele><time>2026-04-28T07:54:28.999Z</time></trkpt><trkpt lat="44.8574306528255" lon="8.675907298253478"><ele>102.0</ele><time>2026-04-28T07:54:29.999Z</time></trkpt><trkpt lat="44.85723992603266" lon="8.67596900174275"><ele>102.0</ele><time>2026-04-28T07:54:30.999Z</time></trkpt><trkpt lat="44.85703461346497" lon="8.676011647793109"><ele>102.0</ele><time>2026-04-28T07:54:31.999Z</time></trkpt><trkpt lat="44.85681895766188" lon="8.676050663316465"><ele>102.0</ele><time>2026-04-28T07:54:32.999Z</time></trkpt><trkpt lat="44.856609875931454" lon="8.676084940827433"><ele>102.0</ele><time>2026-04-28T07:54:33.999Z</time></trkpt><trkpt lat="44.85639447088681" lon="8.67614924825269"><ele>102.5</ele><time>2026-04-28T07:54:34.999Z</time></trkpt><trkpt lat="44.856172509122814" lon="8.676203580292762"><ele>103.0</ele><time>2026-04-28T07:54:35.999Z</time></trkpt><trkpt lat="44.855943858073495" lon="8.676256168288601"><ele>103.5</ele><time>2026-04-28T07:54:36.999Z</time></trkpt><trkpt lat="44.85571188279216" lon="8.676309239556957"><ele>104.0</ele><time>2026-04-28T07:54:37.999Z</time></trkpt><trkpt lat="44.85547436482336" lon="8.676361791327691"><ele>104.0</ele><time>2026-04-28T07:54:39Z</time></trkpt><trkpt lat="44.855232777775754" lon="8.67641787118002"><ele>104.0</ele><time>2026-04-28T07:54:40Z</time></trkpt><trkpt lat="44.85498791126435" lon="8.676473233212924"><ele>104.5</ele><time>2026-04-28T07:54:41Z</time></trkpt><trkpt lat="44.85475762798733" lon="8.676520880469452"><ele>105.0</ele><time>2026-04-28T07:54:42Z</time></trkpt><trkpt lat="44.854543225588074" lon="8.67657474918812"><ele>105.0</ele><time>2026-04-28T07:54:43Z</time></trkpt><trkpt lat="44.85434265047816" lon="8.676622195384596"><ele>105.0</ele><time>2026-04-28T07:54:44Z</time></trkpt><trkpt lat="44.854148199838534" lon="8.676673245651632"><ele>105.0</ele><time>2026-04-28T07:54:45Z</time></trkpt><trkpt lat="44.853948513327225" lon="8.676725828802622"><ele>105.0</ele><time>2026-04-28T07:54:46Z</time></trkpt><trkpt lat="44.853755242604244" lon="8.676787031772056"><ele>105.0</ele><time>2026-04-28T07:54:47Z</time></trkpt><trkpt lat="44.85355593274677" lon="8.676851670492944"><ele>105.0</ele><time>2026-04-28T07:54:48Z</time></trkpt><trkpt lat="44.85334906436864" lon="8.676919962373686"><ele>105.0</ele><time>2026-04-28T07:54:49Z</time></trkpt><trkpt lat="44.853132807289704" lon="8.676986356626749"><ele>105.0</ele><time>2026-04-28T07:54:50Z</time></trkpt><trkpt lat="44.85289857191973" lon="8.677061170546043"><ele>105.0</ele><time>2026-04-28T07:54:51Z</time></trkpt><trkpt lat="44.85268348777167" lon="8.677125271357763"><ele>105.0</ele><time>2026-04-28T07:54:52Z</time></trkpt><trkpt lat="44.852492817164226" lon="8.67716811620184"><ele>105.0</ele><time>2026-04-28T07:54:53Z</time></trkpt><trkpt lat="44.85231274985634" lon="8.67718243785474"><ele>105.0</ele><time>2026-04-28T07:54:54Z</time></trkpt><trkpt lat="44.85213686945855" lon="8.677182823580589"><ele>105.0</ele><time>2026-04-28T07:54:55Z</time></trkpt><trkpt lat="44.85196005948284" lon="8.677152066351818"><ele>105.0</ele><time>2026-04-28T07:54:56Z</time></trkpt><trkpt lat="44.85178340200906" lon="8.677110534220938"><ele>105.0</ele><time>2026-04-28T07:54:57Z</time></trkpt><trkpt lat="44.85160750315752" lon="8.677058942474543"><ele>105.0</ele><time>2026-04-28T07:54:58Z</time></trkpt><trkpt lat="44.851429673792744" lon="8.676982707100697"><ele>105.0</ele><time>2026-04-28T07:54:59Z</time></trkpt><trkpt lat="44.85125816691559" lon="8.676894995667723"><ele>105.0</ele><time>2026-04-28T07:55:00Z</time></trkpt><trkpt lat="44.851096007901454" lon="8.676804452701484"><ele>105.0</ele><time>2026-04-28T07:55:01Z</time></trkpt><trkpt lat="44.85093892536708" lon="8.676733035603377"><ele>105.0</ele><time>2026-04-28T07:55:02Z</time></trkpt><trkpt lat="44.85078428835362" lon="8.67668601914762"><ele>105.0</ele><time>2026-04-28T07:55:03Z</time></trkpt><trkpt lat="44.850619640892745" lon="8.676682066727766"><ele>105.0</ele><time>2026-04-28T07:55:04Z</time></trkpt><trkpt lat="44.85044337919421" lon="8.676711719862508"><ele>105.0</ele><time>2026-04-28T07:55:05Z</time></trkpt><trkpt lat="44.85025753560187" lon="8.676759900117549"><ele>106.0</ele><time>2026-04-28T07:55:06Z</time></trkpt><trkpt lat="44.85006510935562" lon="8.676816652153079"><ele>107.0</ele><time>2026-04-28T07:55:07Z</time></trkpt><trkpt lat="44.84987095117976" lon="8.676883243294563"><ele>108.0</ele><time>2026-04-28T07:55:08Z</time></trkpt><trkpt lat="44.849666824431914" lon="8.676951017624091"><ele>108.0</ele><time>2026-04-28T07:55:09Z</time></trkpt><trkpt lat="44.8494509809047" lon="8.677024813764236"><ele>108.0</ele><time>2026-04-28T07:55:10Z</time></trkpt><trkpt lat="44.84921650543049" lon="8.677113700661822"><ele>108.0</ele><time>2026-04-28T07:55:11Z</time></trkpt><trkpt lat="44.84899852143665" lon="8.677196701109288"><ele>108.0</ele><time>2026-04-28T07:55:12Z</time></trkpt><trkpt lat="44.84880970990653" lon="8.677267852039106"><ele>108.0</ele><time>2026-04-28T07:55:13Z</time></trkpt><trkpt lat="44.84864325071313" lon="8.677332158610776"><ele>108.0</ele><time>2026-04-28T07:55:14Z</time></trkpt><trkpt lat="44.84851223835771" lon="8.677387556639724"><ele>108.0</ele><time>2026-04-28T07:55:15Z</time></trkpt><trkpt lat="44.8483966679792" lon="8.677427503534368"><ele>108.0</ele><time>2026-04-28T07:55:16Z</time></trkpt><trkpt lat="44.8482875353995" lon="8.677453484798182"><ele>108.0</ele><time>2026-04-28T07:55:17Z</time></trkpt><trkpt lat="44.848183854186715" lon="8.677455363976247"><ele>108.0</ele><time>2026-04-28T07:55:18Z</time></trkpt><trkpt lat="44.8480945371462" lon="8.677429696102841"><ele>108.0</ele><time>2026-04-28T07:55:19Z</time></trkpt><trkpt lat="44.84802271485725" lon="8.6774130065434"><ele>108.0</ele><time>2026-04-28T07:55:20Z</time></trkpt><trkpt lat="44.8479577171056" lon="8.677430859143774"><ele>108.0</ele><time>2026-04-28T07:55:21Z</time></trkpt><trkpt lat="44.847915627344854" lon="8.677499523360789"><ele>108.0</ele><time>2026-04-28T07:55:22Z</time></trkpt><trkpt lat="44.84791013560734" lon="8.67769115811946"><ele>108.0</ele><time>2026-04-28T07:55:24Z</time></trkpt><trkpt lat="44.84793678719565" lon="8.677833471987748"><ele>108.0</ele><time>2026-04-28T07:55:25Z</time></trkpt><trkpt lat="44.847933098851634" lon="8.677982668963802"><ele>108.0</ele><time>2026-04-28T07:55:26Z</time></trkpt><trkpt lat="44.847905293534396" lon="8.678160601079506"><ele>108.0</ele><time>2026-04-28T07:55:27Z</time></trkpt><trkpt lat="44.84786736092808" lon="8.678381115860939"><ele>108.0</ele><time>2026-04-28T07:55:28Z</time></trkpt><trkpt lat="44.847823838949324" lon="8.678644092486541"><ele>108.33333333333334</ele><time>2026-04-28T07:55:29Z</time></trkpt><trkpt lat="44.84777245891445" lon="8.678945520858676"><ele>108.66666666666667</ele><time>2026-04-28T07:55:30Z</time></trkpt><trkpt lat="44.84771729146761" lon="8.679253405003916"><ele>109.0</ele><time>2026-04-28T07:55:31Z</time></trkpt><trkpt lat="44.84765910023454" lon="8.679591165457518"><ele>109.0</ele><time>2026-04-28T07:55:32Z</time></trkpt><trkpt lat="44.84760358162435" lon="8.679910510575908"><ele>109.0</ele><time>2026-04-28T07:55:33Z</time></trkpt><trkpt lat="44.847548468431725" lon="8.68020388968738"><ele>109.0</ele><time>2026-04-28T07:55:34Z</time></trkpt><trkpt lat="44.84749983851398" lon="8.680483103591222"><ele>109.0</ele><time>2026-04-28T07:55:35Z</time></trkpt><trkpt lat="44.847455781553606" lon="8.6807602253166"><ele>109.0</ele><time>2026-04-28T07:55:36Z</time></trkpt><trkpt lat="44.847409517962696" lon="8.681031507466388"><ele>109.0</ele><time>2026-04-28T07:55:37Z</time></trkpt><trkpt lat="44.84736724368187" lon="8.681286312224076"><ele>108.66666666666667</ele><time>2026-04-28T07:55:37.999Z</time></trkpt><trkpt lat="44.84732326682202" lon="8.68152288301328"><ele>108.33333333333334</ele><time>2026-04-28T07:55:38.999Z</time></trkpt><trkpt lat="44.847280031240096" lon="8.681731336622649"><ele>108.0</ele><time>2026-04-28T07:55:39.999Z</time></trkpt><trkpt lat="44.84722669619805" lon="8.68190882130474"><ele>108.0</ele><time>2026-04-28T07:55:40.999Z</time></trkpt><trkpt lat="44.84715739471099" lon="8.682079123583001"><ele>108.00000000000001</ele><time>2026-04-28T07:55:41.999Z</time></trkpt><trkpt lat="44.847093668247595" lon="8.68221117674428"><ele>108.00000000000001</ele><time>2026-04-28T07:55:42.999Z</time></trkpt><trkpt lat="44.84703410410041" lon="8.682284048834969"><ele>108.0</ele><time>2026-04-28T07:55:43.999Z</time></trkpt><trkpt lat="44.846951054460014" lon="8.682336485651938"><ele>108.0</ele><time>2026-04-28T07:55:44.999Z</time></trkpt><trkpt lat="44.84685908183223" lon="8.68239924974955"><ele>108.0</ele><time>2026-04-28T07:55:45.999Z</time></trkpt><trkpt lat="44.846796205610204" lon="8.682505621750312"><ele>108.0</ele><time>2026-04-28T07:55:46.999Z</time></trkpt><trkpt lat="44.84675736178035" lon="8.682648934004323"><ele>108.0</ele><time>2026-04-28T07:55:47.999Z</time></trkpt><trkpt lat="44.84670732832875" lon="8.68279562096143"><ele>108.0</ele><time>2026-04-28T07:55:48.999Z</time></trkpt><trkpt lat="44.84661891914387" lon="8.682941182477702"><ele>108.66666666666666</ele><time>2026-04-28T07:55:49.999Z</time></trkpt><trkpt lat="44.84650598919849" lon="8.683095826327106"><ele>109.33333333333333</ele><time>2026-04-28T07:55:50.999Z</time></trkpt><trkpt lat="44.84637834179611" lon="8.683272039279679"><ele>110.0</ele><time>2026-04-28T07:55:51.999Z</time></trkpt><trkpt lat="44.84623653177706" lon="8.683467178883886"><ele>110.33333333333333</ele><time>2026-04-28T07:55:52.999Z</time></trkpt><trkpt lat="44.84608371772432" lon="8.68367580100142"><ele>110.66666666666666</ele><time>2026-04-28T07:55:53.999Z</time></trkpt><trkpt lat="44.84591772512347" lon="8.683892449315033"><ele>111.0</ele><time>2026-04-28T07:55:54.999Z</time></trkpt><trkpt lat="44.84574136622804" lon="8.684126284492978"><ele>111.0</ele><time>2026-04-28T07:55:55.999Z</time></trkpt><trkpt lat="44.845566726853775" lon="8.68436287071334"><ele>111.0</ele><time>2026-04-28T07:55:56.999Z</time></trkpt><trkpt lat="44.845382553190355" lon="8.684605208002024"><ele>111.0</ele><time>2026-04-28T07:55:57.999Z</time></trkpt><trkpt lat="44.845213599918225" lon="8.684830742722037"><ele>111.0</ele><time>2026-04-28T07:55:58.999Z</time></trkpt><trkpt lat="44.84506001968987" lon="8.685038575496895"><ele>111.0</ele><time>2026-04-28T07:55:59.999Z</time></trkpt><trkpt lat="44.84491148177721" lon="8.68523566817226"><ele>111.0</ele><time>2026-04-28T07:56:00.999Z</time></trkpt><trkpt lat="44.84477155142433" lon="8.68543092042447"><ele>111.0</ele><time>2026-04-28T07:56:01.999Z</time></trkpt><trkpt lat="44.84462407798653" lon="8.685629707609507"><ele>111.0</ele><time>2026-04-28T07:56:02.999Z</time></trkpt><trkpt lat="44.84447791771173" lon="8.685819077225913"><ele>111.0</ele><time>2026-04-28T07:56:03.999Z</time></trkpt><trkpt lat="44.844325266939414" lon="8.686019872902229"><ele>111.0</ele><time>2026-04-28T07:56:04.999Z</time></trkpt><trkpt lat="44.844185621126584" lon="8.686202848192774"><ele>111.0</ele><time>2026-04-28T07:56:05.999Z</time></trkpt><trkpt lat="44.84406354106124" lon="8.686381194347696"><ele>111.5</ele><time>2026-04-28T07:56:06.999Z</time></trkpt><trkpt lat="44.843955432889544" lon="8.686524333736585"><ele>112.0</ele><time>2026-04-28T07:56:07.999Z</time></trkpt><trkpt lat="44.8438648120302" lon="8.686640057570754"><ele>112.5</ele><time>2026-04-28T07:56:08.999Z</time></trkpt><trkpt lat="44.84378482577193" lon="8.686731814327713"><ele>113.0</ele><time>2026-04-28T07:56:09.999Z</time></trkpt><trkpt lat="44.84371084037797" lon="8.686794298180605"><ele>112.99999999999999</ele><time>2026-04-28T07:56:10.999Z</time></trkpt><trkpt lat="44.843629956732336" lon="8.686835020973389"><ele>113.0</ele><time>2026-04-28T07:56:11.999Z</time></trkpt><trkpt lat="44.84355056736903" lon="8.68683586117393"><ele>113.0</ele><time>2026-04-28T07:56:12.999Z</time></trkpt><trkpt lat="44.843480977755775" lon="8.686866540840727"><ele>113.0</ele><time>2026-04-28T07:56:13.999Z</time></trkpt><trkpt lat="44.84342575545607" lon="8.686948588622801"><ele>112.99999999999999</ele><time>2026-04-28T07:56:14.999Z</time></trkpt><trkpt lat="44.84339417461069" lon="8.687068001726752"><ele>113.0</ele><time>2026-04-28T07:56:15.999Z</time></trkpt><trkpt lat="44.84338437485558" lon="8.68722113091434"><ele>113.33333333333333</ele><time>2026-04-28T07:56:16.999Z</time></trkpt><trkpt lat="44.84333765461334" lon="8.687397047632594"><ele>113.66666666666666</ele><time>2026-04-28T07:56:17.999Z</time></trkpt><trkpt lat="44.84323973931393" lon="8.687588068729035"><ele>114.0</ele><time>2026-04-28T07:56:18.999Z</time></trkpt><trkpt lat="44.843099186841215" lon="8.687808215325367"><ele>114.5</ele><time>2026-04-28T07:56:19.999Z</time></trkpt><trkpt lat="44.84294868233869" lon="8.688071027681696"><ele>115.0</ele><time>2026-04-28T07:56:20.999Z</time></trkpt><trkpt lat="44.842808369215255" lon="8.68833881916359"><ele>115.0</ele><time>2026-04-28T07:56:21.999Z</time></trkpt><trkpt lat="44.84268691205845" lon="8.688569288751891"><ele>115.0</ele><time>2026-04-28T07:56:22.999Z</time></trkpt><trkpt lat="44.84256852985881" lon="8.68878215492982"><ele>115.0</ele><time>2026-04-28T07:56:23.999Z</time></trkpt><trkpt lat="44.842446592282975" lon="8.688982696017671"><ele>115.0</ele><time>2026-04-28T07:56:24.999Z</time></trkpt><trkpt lat="44.842324259462515" lon="8.689189928235487"><ele>115.0</ele><time>2026-04-28T07:56:25.999Z</time></trkpt><trkpt lat="44.842202179543" lon="8.689401455302216"><ele>115.0</ele><time>2026-04-28T07:56:26.999Z</time></trkpt><trkpt lat="44.84207307898774" lon="8.689608343745645"><ele>115.0</ele><time>2026-04-28T07:56:27.999Z</time></trkpt><trkpt lat="44.8419231257851" lon="8.689818586454587"><ele>115.0</ele><time>2026-04-28T07:56:28.999Z</time></trkpt><trkpt lat="44.841763548889325" lon="8.690022664655544"><ele>115.0</ele><time>2026-04-28T07:56:29.999Z</time></trkpt><trkpt lat="44.84161372896148" lon="8.69019545800839"><ele>115.0</ele><time>2026-04-28T07:56:30.999Z</time></trkpt><trkpt lat="44.841471691547945" lon="8.690348084771875"><ele>115.0</ele><time>2026-04-28T07:56:31.999Z</time></trkpt><trkpt lat="44.841333887916704" lon="8.69048515902998"><ele>115.0</ele><time>2026-04-28T07:56:32.999Z</time></trkpt><trkpt lat="44.84120003362326" lon="8.690610463736363"><ele>115.0</ele><time>2026-04-28T07:56:33.999Z</time></trkpt><trkpt lat="44.84107349438602" lon="8.69072360140872"><ele>115.0</ele><time>2026-04-28T07:56:34.999Z</time></trkpt><trkpt lat="44.840953591943716" lon="8.690826517666794"><ele>115.0</ele><time>2026-04-28T07:56:35.999Z</time></trkpt><trkpt lat="44.84083915424219" lon="8.690907422770145"><ele>115.0</ele><time>2026-04-28T07:56:36.999Z</time></trkpt><trkpt lat="44.840744961887964" lon="8.690959936213277"><ele>115.00000000000001</ele><time>2026-04-28T07:56:37.999Z</time></trkpt><trkpt lat="44.840662122127256" lon="8.69097807628759"><ele>115.0</ele><time>2026-04-28T07:56:38.999Z</time></trkpt><trkpt lat="44.840583189018574" lon="8.690971470247852"><ele>115.0</ele><time>2026-04-28T07:56:39.999Z</time></trkpt><trkpt lat="44.8405112694672" lon="8.690983747906872"><ele>115.0</ele><time>2026-04-28T07:56:40.999Z</time></trkpt><trkpt lat="44.84043602300609" lon="8.691041676886286"><ele>115.00000000000001</ele><time>2026-04-28T07:56:41.999Z</time></trkpt><trkpt lat="44.840350033273154" lon="8.691135640647277"><ele>115.0</ele><time>2026-04-28T07:56:42.999Z</time></trkpt><trkpt lat="44.84022384362354" lon="8.69124162197957"><ele>115.33333333333334</ele><time>2026-04-28T07:56:43.999Z</time></trkpt><trkpt lat="44.84005940177321" lon="8.69132346325619"><ele>115.66666666666666</ele><time>2026-04-28T07:56:45Z</time></trkpt><trkpt lat="44.83989197860219" lon="8.691354466139552"><ele>116.0</ele><time>2026-04-28T07:56:46Z</time></trkpt><trkpt lat="44.83970456124269" lon="8.691381376128076"><ele>116.0</ele><time>2026-04-28T07:56:47Z</time></trkpt><trkpt lat="44.839491656583476" lon="8.691402038315516"><ele>116.0</ele><time>2026-04-28T07:56:48Z</time></trkpt><trkpt lat="44.839258843399094" lon="8.6914252358034"><ele>116.0</ele><time>2026-04-28T07:56:49Z</time></trkpt><trkpt lat="44.839036409258654" lon="8.69143813150131"><ele>116.33333333333333</ele><time>2026-04-28T07:56:50Z</time></trkpt><trkpt lat="44.83883281198508" lon="8.691445243217784"><ele>116.66666666666666</ele><time>2026-04-28T07:56:51Z</time></trkpt><trkpt lat="44.838637978430654" lon="8.691464969385803"><ele>117.0</ele><time>2026-04-28T07:56:52Z</time></trkpt><trkpt lat="44.83844257543108" lon="8.691477556367365"><ele>117.33333333333334</ele><time>2026-04-28T07:56:53Z</time></trkpt><trkpt lat="44.83824686549026" lon="8.691489284825616"><ele>117.66666666666667</ele><time>2026-04-28T07:56:54Z</time></trkpt><trkpt lat="44.83805645118283" lon="8.691499857668944"><ele>118.0</ele><time>2026-04-28T07:56:55Z</time></trkpt><trkpt lat="44.8378578112868" lon="8.691497746605464"><ele>118.0</ele><time>2026-04-28T07:56:56Z</time></trkpt><trkpt lat="44.83766628757366" lon="8.691503314073247"><ele>118.0</ele><time>2026-04-28T07:56:57Z</time></trkpt><trkpt lat="44.83747293154699" lon="8.691507637937839"><ele>118.0</ele><time>2026-04-28T07:56:58Z</time></trkpt><trkpt lat="44.83727232559702" lon="8.691515448007419"><ele>117.66666666666667</ele><time>2026-04-28T07:56:59Z</time></trkpt><trkpt lat="44.83706706647076" lon="8.691525621612632"><ele>117.33333333333334</ele><time>2026-04-28T07:57:00Z</time></trkpt><trkpt lat="44.83686198820461" lon="8.691533989918614"><ele>117.0</ele><time>2026-04-28T07:57:01Z</time></trkpt><trkpt lat="44.83665538960839" lon="8.69154123070819"><ele>117.0</ele><time>2026-04-28T07:57:02Z</time></trkpt><trkpt lat="44.83644737425553" lon="8.691546771582102"><ele>117.0</ele><time>2026-04-28T07:57:03Z</time></trkpt><trkpt lat="44.836252461553016" lon="8.691555868456476"><ele>117.0</ele><time>2026-04-28T07:57:04Z</time></trkpt><trkpt lat="44.83607869406829" lon="8.691568080062277"><ele>117.66666666666666</ele><time>2026-04-28T07:57:05Z</time></trkpt><trkpt lat="44.83591038754013" lon="8.691570721809107"><ele>118.33333333333333</ele><time>2026-04-28T07:57:06Z</time></trkpt><trkpt lat="44.835746124656055" lon="8.691580097931954"><ele>119.0</ele><time>2026-04-28T07:57:07Z</time></trkpt><trkpt lat="44.835589402294325" lon="8.691586249323597"><ele>119.0</ele><time>2026-04-28T07:57:08Z</time></trkpt><trkpt lat="44.83544735705384" lon="8.691578606387926"><ele>119.0</ele><time>2026-04-28T07:57:09Z</time></trkpt><trkpt lat="44.83531894504633" lon="8.691554000650244"><ele>119.0</ele><time>2026-04-28T07:57:10Z</time></trkpt><trkpt lat="44.83517878285896" lon="8.691487498271448"><ele>119.0</ele><time>2026-04-28T07:57:11Z</time></trkpt><trkpt lat="44.835038020927904" lon="8.691404128930857"><ele>119.5</ele><time>2026-04-28T07:57:12Z</time></trkpt><trkpt lat="44.83490146864822" lon="8.691309170467203"><ele>120.0</ele><time>2026-04-28T07:57:13Z</time></trkpt><trkpt lat="44.83478345296407" lon="8.691196218955394"><ele>120.5</ele><time>2026-04-28T07:57:14Z</time></trkpt><trkpt lat="44.83466807312568" lon="8.691074622998224"><ele>121.0</ele><time>2026-04-28T07:57:15Z</time></trkpt><trkpt lat="44.83453875967739" lon="8.690946590583081"><ele>121.33333333333334</ele><time>2026-04-28T07:57:16Z</time></trkpt><trkpt lat="44.83440157597807" lon="8.690810263425483"><ele>121.66666666666666</ele><time>2026-04-28T07:57:17Z</time></trkpt><trkpt lat="44.834257598145726" lon="8.690664438110575"><ele>122.0</ele><time>2026-04-28T07:57:18Z</time></trkpt><trkpt lat="44.834115677081904" lon="8.690512737360004"><ele>121.66666666666666</ele><time>2026-04-28T07:57:19Z</time></trkpt><trkpt lat="44.833962925959604" lon="8.690359942010947"><ele>121.33333333333334</ele><time>2026-04-28T07:57:20Z</time></trkpt><trkpt lat="44.83383535493511" lon="8.6902320961191"><ele>121.0</ele><time>2026-04-28T07:57:21Z</time></trkpt><trkpt lat="44.83372177166448" lon="8.69011432383952"><ele>121.0</ele><time>2026-04-28T07:57:22Z</time></trkpt><trkpt lat="44.83361432852418" lon="8.689962805438167"><ele>121.0</ele><time>2026-04-28T07:57:23Z</time></trkpt><trkpt lat="44.83351641511752" lon="8.689801832841798"><ele>121.0</ele><time>2026-04-28T07:57:24Z</time></trkpt><trkpt lat="44.83342828149874" lon="8.68962705125675"><ele>121.0</ele><time>2026-04-28T07:57:25Z</time></trkpt><trkpt lat="44.83335102060796" lon="8.689426083273249"><ele>121.0</ele><time>2026-04-28T07:57:26Z</time></trkpt><trkpt lat="44.833284591342014" lon="8.689203076085715"><ele>121.0</ele><time>2026-04-28T07:57:27Z</time></trkpt><trkpt lat="44.833242155428664" lon="8.688946531128542"><ele>121.0</ele><time>2026-04-28T07:57:28Z</time></trkpt><trkpt lat="44.83318554407802" lon="8.688667562655882"><ele>121.0</ele><time>2026-04-28T07:57:29Z</time></trkpt><trkpt lat="44.83312289955261" lon="8.688361763461087"><ele>121.0</ele><time>2026-04-28T07:57:30Z</time></trkpt><trkpt lat="44.8330532125427" lon="8.688021734030189"><ele>120.5</ele><time>2026-04-28T07:57:31Z</time></trkpt><trkpt lat="44.83298502347578" lon="8.687689013662629"><ele>120.0</ele><time>2026-04-28T07:57:32Z</time></trkpt><trkpt lat="44.832924355535035" lon="8.687392991692532"><ele>120.0</ele><time>2026-04-28T07:57:33Z</time></trkpt><trkpt lat="44.83286710021445" lon="8.687113621198456"><ele>120.0</ele><time>2026-04-28T07:57:34Z</time></trkpt><trkpt lat="44.83281216115794" lon="8.68684555261981"><ele>120.0</ele><time>2026-04-28T07:57:35Z</time></trkpt><trkpt lat="44.83275598669426" lon="8.686571455992949"><ele>119.66666666666666</ele><time>2026-04-28T07:57:36Z</time></trkpt><trkpt lat="44.83270171352582" lon="8.686306636674185"><ele>119.33333333333333</ele><time>2026-04-28T07:57:37Z</time></trkpt><trkpt lat="44.83264959699776" lon="8.686056111742156"><ele>119.0</ele><time>2026-04-28T07:57:38Z</time></trkpt><trkpt lat="44.83259948576999" lon="8.68582392548441"><ele>119.0</ele><time>2026-04-28T07:57:39Z</time></trkpt><trkpt lat="44.832547307508044" lon="8.685598476595299"><ele>119.0</ele><time>2026-04-28T07:57:40Z</time></trkpt><trkpt lat="44.832491341206975" lon="8.685385600410608"><ele>119.0</ele><time>2026-04-28T07:57:41Z</time></trkpt><trkpt lat="44.83242538914241" lon="8.685187046128258"><ele>118.66666666666666</ele><time>2026-04-28T07:57:42Z</time></trkpt><trkpt lat="44.832347185956294" lon="8.685002019844369"><ele>118.33333333333334</ele><time>2026-04-28T07:57:43Z</time></trkpt><trkpt lat="44.83226221921333" lon="8.684833595988845"><ele>118.0</ele><time>2026-04-28T07:57:44Z</time></trkpt><trkpt lat="44.832148755822104" lon="8.684693297028254"><ele>118.0</ele><time>2026-04-28T07:57:45Z</time></trkpt><trkpt lat="44.83204036396138" lon="8.684545910081892"><ele>118.0</ele><time>2026-04-28T07:57:46Z</time></trkpt><trkpt lat="44.83191343680625" lon="8.684414451583994"><ele>118.0</ele><time>2026-04-28T07:57:47Z</time></trkpt><trkpt lat="44.83177024257608" lon="8.684292273473966"><ele>118.33333333333334</ele><time>2026-04-28T07:57:48Z</time></trkpt><trkpt lat="44.83162301173611" lon="8.6841963171786"><ele>118.66666666666666</ele><time>2026-04-28T07:57:49Z</time></trkpt><trkpt lat="44.831469762939484" lon="8.684118591046289"><ele>119.0</ele><time>2026-04-28T07:57:50Z</time></trkpt><trkpt lat="44.83132099344781" lon="8.684058375805916"><ele>119.0</ele><time>2026-04-28T07:57:51Z</time></trkpt><trkpt lat="44.83117711496938" lon="8.684029375377564"><ele>119.0</ele><time>2026-04-28T07:57:52Z</time></trkpt><trkpt lat="44.831029403885324" lon="8.684003378942688"><ele>119.0</ele><time>2026-04-28T07:57:52.999Z</time></trkpt><trkpt lat="44.83087806749059" lon="8.683985368689997"><ele>119.0</ele><time>2026-04-28T07:57:53.999Z</time></trkpt><trkpt lat="44.83072128396554" lon="8.683969749888139"><ele>118.66666666666666</ele><time>2026-04-28T07:57:54.999Z</time></trkpt><trkpt lat="44.830557695562796" lon="8.6839511420985"><ele>118.33333333333334</ele><time>2026-04-28T07:57:55.999Z</time></trkpt><trkpt lat="44.83039034805731" lon="8.68393259486379"><ele>118.0</ele><time>2026-04-28T07:57:56.999Z</time></trkpt><trkpt lat="44.830218028848115" lon="8.683916301231175"><ele>118.33333333333334</ele><time>2026-04-28T07:57:57.999Z</time></trkpt><trkpt lat="44.83004534917651" lon="8.683900210152364"><ele>118.66666666666666</ele><time>2026-04-28T07:57:58.999Z</time></trkpt><trkpt lat="44.829869888606304" lon="8.68388505354774"><ele>119.0</ele><time>2026-04-28T07:57:59.999Z</time></trkpt><trkpt lat="44.829692054477206" lon="8.683877033097257"><ele>119.0</ele><time>2026-04-28T07:58:00.999Z</time></trkpt><trkpt lat="44.829512662791025" lon="8.683862520591639"><ele>119.0</ele><time>2026-04-28T07:58:01.999Z</time></trkpt><trkpt lat="44.829334922163476" lon="8.683851735233272"><ele>119.0</ele><time>2026-04-28T07:58:02.999Z</time></trkpt><trkpt lat="44.82916301580209" lon="8.683835144711738"><ele>119.66666666666666</ele><time>2026-04-28T07:58:03.999Z</time></trkpt><trkpt lat="44.82900489169042" lon="8.683814140935546"><ele>120.33333333333334</ele><time>2026-04-28T07:58:04.999Z</time></trkpt><trkpt lat="44.828842090443956" lon="8.68377963258496"><ele>121.0</ele><time>2026-04-28T07:58:05.999Z</time></trkpt><trkpt lat="44.828687849437486" lon="8.683736904727771"><ele>121.0</ele><time>2026-04-28T07:58:06.999Z</time></trkpt><trkpt lat="44.82853276579498" lon="8.683676653408948"><ele>121.0</ele><time>2026-04-28T07:58:07.999Z</time></trkpt><trkpt lat="44.82837845569997" lon="8.683610434632596"><ele>121.0</ele><time>2026-04-28T07:58:08.999Z</time></trkpt><trkpt lat="44.82822948707012" lon="8.683527071612327"><ele>121.66666666666667</ele><time>2026-04-28T07:58:09.999Z</time></trkpt><trkpt lat="44.828083310817185" lon="8.683429978829276"><ele>122.33333333333334</ele><time>2026-04-28T07:58:10.999Z</time></trkpt><trkpt lat="44.82794155441367" lon="8.683322299992334"><ele>123.0</ele><time>2026-04-28T07:58:11.999Z</time></trkpt><trkpt lat="44.82779845847727" lon="8.683201001847014"><ele>123.0</ele><time>2026-04-28T07:58:12.999Z</time></trkpt><trkpt lat="44.82765929630902" lon="8.683082651014443"><ele>123.0</ele><time>2026-04-28T07:58:13.999Z</time></trkpt><trkpt lat="44.827511421705026" lon="8.682960620967677"><ele>123.0</ele><time>2026-04-28T07:58:14.999Z</time></trkpt><trkpt lat="44.827369532932195" lon="8.682834710925128"><ele>123.33333333333334</ele><time>2026-04-28T07:58:15.999Z</time></trkpt><trkpt lat="44.82722003529995" lon="8.682704050709695"><ele>123.66666666666667</ele><time>2026-04-28T07:58:16.999Z</time></trkpt><trkpt lat="44.82706914029371" lon="8.682578049501647"><ele>124.0</ele><time>2026-04-28T07:58:17.999Z</time></trkpt><trkpt lat="44.82691856035228" lon="8.682446911861172"><ele>123.33333333333334</ele><time>2026-04-28T07:58:18.999Z</time></trkpt><trkpt lat="44.826776176668936" lon="8.68232355468113"><ele>122.66666666666666</ele><time>2026-04-28T07:58:19.999Z</time></trkpt><trkpt lat="44.82664919022934" lon="8.68220874218669"><ele>122.0</ele><time>2026-04-28T07:58:20.999Z</time></trkpt><trkpt lat="44.82652767743317" lon="8.682100628241198"><ele>122.0</ele><time>2026-04-28T07:58:21.999Z</time></trkpt><trkpt lat="44.82642051752873" lon="8.682001368382817"><ele>121.99999999999999</ele><time>2026-04-28T07:58:22.999Z</time></trkpt><trkpt lat="44.826341617222226" lon="8.681917363471284"><ele>121.99999999999999</ele><time>2026-04-28T07:58:23.999Z</time></trkpt><trkpt lat="44.826273350573416" lon="8.681760514038745"><ele>122.0</ele><time>2026-04-28T07:58:25.999Z</time></trkpt><trkpt lat="44.82621284345664" lon="8.681687292869604"><ele>122.0</ele><time>2026-04-28T07:58:26.999Z</time></trkpt><trkpt lat="44.826161612142" lon="8.681609625226317"><ele>122.0</ele><time>2026-04-28T07:58:27.999Z</time></trkpt><trkpt lat="44.82607906614382" lon="8.681562370260727"><ele>122.0</ele><time>2026-04-28T07:58:28.999Z</time></trkpt><trkpt lat="44.82598412856652" lon="8.681539412906515"><ele>122.0</ele><time>2026-04-28T07:58:29.999Z</time></trkpt><trkpt lat="44.825865560769756" lon="8.681504231642956"><ele>122.0</ele><time>2026-04-28T07:58:30.999Z</time></trkpt><trkpt lat="44.825725677009935" lon="8.681409041981427"><ele>122.0</ele><time>2026-04-28T07:58:31.999Z</time></trkpt><trkpt lat="44.82556897732495" lon="8.681264414411825"><ele>122.0</ele><time>2026-04-28T07:58:32.999Z</time></trkpt><trkpt lat="44.82541269080362" lon="8.681122160353484"><ele>122.0</ele><time>2026-04-28T07:58:33.999Z</time></trkpt><trkpt lat="44.82526793585572" lon="8.68099955794134"><ele>122.5</ele><time>2026-04-28T07:58:34.999Z</time></trkpt><trkpt lat="44.82513919419392" lon="8.680891515957507"><ele>123.0</ele><time>2026-04-28T07:58:35.999Z</time></trkpt><trkpt lat="44.82501148137334" lon="8.68078814076893"><ele>123.5</ele><time>2026-04-28T07:58:36.999Z</time></trkpt><trkpt lat="44.824883204489026" lon="8.680705845177481"><ele>124.0</ele><time>2026-04-28T07:58:37.999Z</time></trkpt><trkpt lat="44.824753385541925" lon="8.680629781131563"><ele>124.0</ele><time>2026-04-28T07:58:38.999Z</time></trkpt><trkpt lat="44.82461957592589" lon="8.680559340643622"><ele>124.0</ele><time>2026-04-28T07:58:39.999Z</time></trkpt><trkpt lat="44.82447911612008" lon="8.68048976675125"><ele>124.0</ele><time>2026-04-28T07:58:40.999Z</time></trkpt><trkpt lat="44.82434713626438" lon="8.680431172327804"><ele>124.0</ele><time>2026-04-28T07:58:41.999Z</time></trkpt><trkpt lat="44.82422403029268" lon="8.68038317649579"><ele>124.16666666666667</ele><time>2026-04-28T07:58:42.999Z</time></trkpt><trkpt lat="44.82411849612371" lon="8.68034885346883"><ele>124.33333333333334</ele><time>2026-04-28T07:58:43.999Z</time></trkpt><trkpt lat="44.82402715369616" lon="8.680322648140725"><ele>124.5</ele><time>2026-04-28T07:58:44.999Z</time></trkpt><trkpt lat="44.82395817577245" lon="8.680303345475886"><ele>124.66666666666666</ele><time>2026-04-28T07:58:45.999Z</time></trkpt><trkpt lat="44.823876257246376" lon="8.680281668294482"><ele>124.83333333333333</ele><time>2026-04-28T07:58:47.999Z</time></trkpt><trkpt lat="44.82379321979686" lon="8.680248143766237"><ele>125.0</ele><time>2026-04-28T07:59:35Z</time></trkpt><trkpt lat="44.82370292349536" lon="8.680231444813094"><ele>124.5</ele><time>2026-04-28T07:59:36Z</time></trkpt><trkpt lat="44.82360836667495" lon="8.68020575711418"><ele>124.0</ele><time>2026-04-28T07:59:37Z</time></trkpt><trkpt lat="44.8234962871421" lon="8.680173373524305"><ele>123.5</ele><time>2026-04-28T07:59:38Z</time></trkpt><trkpt lat="44.82335253684896" lon="8.680152123075155"><ele>123.0</ele><time>2026-04-28T07:59:39Z</time></trkpt><trkpt lat="44.823208430702536" lon="8.680147737449444"><ele>123.0</ele><time>2026-04-28T07:59:40Z</time></trkpt><trkpt lat="44.823043117869354" lon="8.680157530237299"><ele>123.0</ele><time>2026-04-28T07:59:41Z</time></trkpt><trkpt lat="44.82287201289386" lon="8.680172571592603"><ele>123.0</ele><time>2026-04-28T07:59:42Z</time></trkpt><trkpt lat="44.822706040957655" lon="8.680208039179698"><ele>123.0</ele><time>2026-04-28T07:59:43Z</time></trkpt><trkpt lat="44.822540016112654" lon="8.6802685895474"><ele>123.0</ele><time>2026-04-28T07:59:44Z</time></trkpt><trkpt lat="44.82237718033218" lon="8.680363299310612"><ele>123.0</ele><time>2026-04-28T07:59:45Z</time></trkpt><trkpt lat="44.822209775142305" lon="8.680476595892532"><ele>123.0</ele><time>2026-04-28T07:59:46Z</time></trkpt><trkpt lat="44.82204721466188" lon="8.680585268836168"><ele>123.0</ele><time>2026-04-28T07:59:47Z</time></trkpt><trkpt lat="44.821900234146206" lon="8.680690455591382"><ele>123.0</ele><time>2026-04-28T07:59:48Z</time></trkpt><trkpt lat="44.82175410570099" lon="8.680789719745322"><ele>122.33333333333334</ele><time>2026-04-28T07:59:49Z</time></trkpt><trkpt lat="44.82160985166096" lon="8.680890548452544"><ele>121.66666666666667</ele><time>2026-04-28T07:59:49.999Z</time></trkpt><trkpt lat="44.821460089772046" lon="8.680991424635838"><ele>121.0</ele><time>2026-04-28T07:59:50.999Z</time></trkpt><trkpt lat="44.821308774223596" lon="8.681091973258662"><ele>121.0</ele><time>2026-04-28T07:59:51.999Z</time></trkpt><trkpt lat="44.821166018438625" lon="8.681195262121788"><ele>121.0</ele><time>2026-04-28T07:59:52.999Z</time></trkpt><trkpt lat="44.82102027235793" lon="8.681319752482006"><ele>121.0</ele><time>2026-04-28T07:59:53.999Z</time></trkpt><trkpt lat="44.82085339973328" lon="8.681422392796856"><ele>121.33333333333334</ele><time>2026-04-28T07:59:54.999Z</time></trkpt><trkpt lat="44.8206936514358" lon="8.681524594244545"><ele>121.66666666666666</ele><time>2026-04-28T07:59:55.999Z</time></trkpt><trkpt lat="44.82053929009617" lon="8.68163087271435"><ele>122.0</ele><time>2026-04-28T07:59:56.999Z</time></trkpt><trkpt lat="44.820384511310095" lon="8.681734533309351"><ele>122.0</ele><time>2026-04-28T07:59:57.999Z</time></trkpt><trkpt lat="44.820227725424864" lon="8.681843963062915"><ele>122.0</ele><time>2026-04-28T07:59:58.999Z</time></trkpt><trkpt lat="44.82007866907322" lon="8.681933120945182"><ele>122.0</ele><time>2026-04-28T07:59:59.999Z</time></trkpt><trkpt lat="44.81992848794706" lon="8.682040305372468"><ele>122.5</ele><time>2026-04-28T08:00:00.999Z</time></trkpt><trkpt lat="44.81979292216333" lon="8.682144769231611"><ele>123.0</ele><time>2026-04-28T08:00:01.999Z</time></trkpt><trkpt lat="44.81966708635636" lon="8.682230962781222"><ele>123.5</ele><time>2026-04-28T08:00:02.999Z</time></trkpt><trkpt lat="44.819546318567575" lon="8.682313874984958"><ele>124.0</ele><time>2026-04-28T08:00:03.999Z</time></trkpt><trkpt lat="44.81943718642256" lon="8.68235965233866"><ele>124.0</ele><time>2026-04-28T08:00:04.999Z</time></trkpt><trkpt lat="44.81933911314287" lon="8.682373436070929"><ele>124.0</ele><time>2026-04-28T08:00:05.999Z</time></trkpt><trkpt lat="44.819262926188344" lon="8.6824030877788"><ele>124.0</ele><time>2026-04-28T08:00:06.999Z</time></trkpt><trkpt lat="44.81915639257847" lon="8.682540182677117"><ele>124.0</ele><time>2026-04-28T08:00:07.999Z</time></trkpt><trkpt lat="44.81904289208903" lon="8.682662290768956"><ele>124.0</ele><time>2026-04-28T08:00:08.999Z</time></trkpt><trkpt lat="44.81890550411881" lon="8.682763914602774"><ele>124.0</ele><time>2026-04-28T08:00:09.999Z</time></trkpt><trkpt lat="44.81877420364889" lon="8.682871719001513"><ele>124.0</ele><time>2026-04-28T08:00:10.999Z</time></trkpt><trkpt lat="44.81863325129341" lon="8.682983667830843"><ele>124.33333333333334</ele><time>2026-04-28T08:00:11.999Z</time></trkpt><trkpt lat="44.81848528791353" lon="8.683099788371955"><ele>124.66666666666666</ele><time>2026-04-28T08:00:12.999Z</time></trkpt><trkpt lat="44.818342693876055" lon="8.68323780990028"><ele>125.0</ele><time>2026-04-28T08:00:13.999Z</time></trkpt><trkpt lat="44.81819943460719" lon="8.68337737929688"><ele>125.0</ele><time>2026-04-28T08:00:14.999Z</time></trkpt><trkpt lat="44.81805702677024" lon="8.683516431305112"><ele>125.0</ele><time>2026-04-28T08:00:15.999Z</time></trkpt><trkpt lat="44.817923149758" lon="8.683658496696244"><ele>125.0</ele><time>2026-04-28T08:00:16.999Z</time></trkpt><trkpt lat="44.81778537324125" lon="8.683795432712454"><ele>124.66666666666666</ele><time>2026-04-28T08:00:17.999Z</time></trkpt><trkpt lat="44.817652220095354" lon="8.683934117689086"><ele>124.33333333333334</ele><time>2026-04-28T08:00:18.999Z</time></trkpt><trkpt lat="44.81752529659157" lon="8.684073701115217"><ele>124.0</ele><time>2026-04-28T08:00:19.999Z</time></trkpt><trkpt lat="44.817408604086374" lon="8.684204907997241"><ele>124.5</ele><time>2026-04-28T08:00:20.999Z</time></trkpt><trkpt lat="44.81729853881385" lon="8.684326852638659"><ele>125.0</ele><time>2026-04-28T08:00:21.999Z</time></trkpt><trkpt lat="44.81718293317379" lon="8.684447030748622"><ele>125.5</ele><time>2026-04-28T08:00:22.999Z</time></trkpt><trkpt lat="44.8170672223724" lon="8.68456783543518"><ele>126.0</ele><time>2026-04-28T08:00:23.999Z</time></trkpt><trkpt lat="44.816948776390205" lon="8.684689148571438"><ele>126.0</ele><time>2026-04-28T08:00:24.999Z</time></trkpt><trkpt lat="44.8168281332829" lon="8.684811226766438"><ele>126.0</ele><time>2026-04-28T08:00:25.999Z</time></trkpt><trkpt lat="44.81670836106104" lon="8.6849374723496"><ele>126.0</ele><time>2026-04-28T08:00:26.999Z</time></trkpt><trkpt lat="44.816586268885516" lon="8.685067815256344"><ele>125.66666666666666</ele><time>2026-04-28T08:00:27.999Z</time></trkpt><trkpt lat="44.81645752810454" lon="8.685199225331642"><ele>125.33333333333333</ele><time>2026-04-28T08:00:28.999Z</time></trkpt><trkpt lat="44.816325046860314" lon="8.685333385052573"><ele>125.0</ele><time>2026-04-28T08:00:29.999Z</time></trkpt><trkpt lat="44.816192522212084" lon="8.685473473862785"><ele>125.33333333333333</ele><time>2026-04-28T08:00:30.999Z</time></trkpt><trkpt lat="44.816056876732915" lon="8.685617578425447"><ele>125.66666666666666</ele><time>2026-04-28T08:00:31.999Z</time></trkpt><trkpt lat="44.815912662587074" lon="8.68575626237741"><ele>126.0</ele><time>2026-04-28T08:00:32.999Z</time></trkpt><trkpt lat="44.81576598175913" lon="8.685898978391172"><ele>126.0</ele><time>2026-04-28T08:00:33.999Z</time></trkpt><trkpt lat="44.81561693871141" lon="8.686039019143086"><ele>126.0</ele><time>2026-04-28T08:00:34.999Z</time></trkpt><trkpt lat="44.81546147399659" lon="8.68617067741892"><ele>126.0</ele><time>2026-04-28T08:00:35.999Z</time></trkpt><trkpt lat="44.81526574807116" lon="8.686288337043885"><ele>125.0</ele><time>2026-04-28T08:00:36.999Z</time></trkpt><trkpt lat="44.815040610573355" lon="8.686402066885883"><ele>124.0</ele><time>2026-04-28T08:00:37.999Z</time></trkpt><trkpt lat="44.8148044499977" lon="8.68650461622677"><ele>124.0</ele><time>2026-04-28T08:00:38.999Z</time></trkpt><trkpt lat="44.81457688772329" lon="8.686599378615135"><ele>124.0</ele><time>2026-04-28T08:00:39.999Z</time></trkpt><trkpt lat="44.814369792181495" lon="8.68669059700003"><ele>124.66666666666667</ele><time>2026-04-28T08:00:40.999Z</time></trkpt><trkpt lat="44.81417269634361" lon="8.686773756855489"><ele>125.33333333333334</ele><time>2026-04-28T08:00:41.999Z</time></trkpt><trkpt lat="44.81397966412938" lon="8.686864097040603"><ele>126.0</ele><time>2026-04-28T08:00:42.999Z</time></trkpt><trkpt lat="44.81379110924074" lon="8.686961659834177"><ele>126.0</ele><time>2026-04-28T08:00:43.999Z</time></trkpt><trkpt lat="44.81360684641032" lon="8.687081274686854"><ele>126.0</ele><time>2026-04-28T08:00:44.999Z</time></trkpt><trkpt lat="44.81342908932269" lon="8.687230390925327"><ele>126.0</ele><time>2026-04-28T08:00:45.999Z</time></trkpt><trkpt lat="44.81324832602845" lon="8.687384464763833"><ele>126.33333333333334</ele><time>2026-04-28T08:00:46.999Z</time></trkpt><trkpt lat="44.813062555277746" lon="8.687555936273792"><ele>126.66666666666667</ele><time>2026-04-28T08:00:47.999Z</time></trkpt><trkpt lat="44.8128737910479" lon="8.687732164328489"><ele>127.0</ele><time>2026-04-28T08:00:48.999Z</time></trkpt><trkpt lat="44.812664834784854" lon="8.68792268590661"><ele>127.0</ele><time>2026-04-28T08:00:49.999Z</time></trkpt><trkpt lat="44.812432538280376" lon="8.688126660682016"><ele>127.0</ele><time>2026-04-28T08:00:50.999Z</time></trkpt><trkpt lat="44.812191541087245" lon="8.688347827572827"><ele>127.0</ele><time>2026-04-28T08:00:51.999Z</time></trkpt><trkpt lat="44.81195673639238" lon="8.688564362639996"><ele>127.0</ele><time>2026-04-28T08:00:52.999Z</time></trkpt><trkpt lat="44.8117285188699" lon="8.68878087794647"><ele>128.0</ele><time>2026-04-28T08:00:53.999Z</time></trkpt><trkpt lat="44.81152175223016" lon="8.688984358884726"><ele>129.0</ele><time>2026-04-28T08:00:54.999Z</time></trkpt><trkpt lat="44.811329519580205" lon="8.68918157212034"><ele>129.0</ele><time>2026-04-28T08:00:55.999Z</time></trkpt><trkpt lat="44.81113817905977" lon="8.68938767207591"><ele>129.0</ele><time>2026-04-28T08:00:57Z</time></trkpt><trkpt lat="44.81094268652866" lon="8.689614311506926"><ele>128.5</ele><time>2026-04-28T08:00:58Z</time></trkpt><trkpt lat="44.81075094749476" lon="8.689834776195987"><ele>128.0</ele><time>2026-04-28T08:00:59Z</time></trkpt><trkpt lat="44.81057701499591" lon="8.690035672130355"><ele>128.0</ele><time>2026-04-28T08:01:00Z</time></trkpt><trkpt lat="44.81040644007682" lon="8.690230873063518"><ele>128.0</ele><time>2026-04-28T08:01:01Z</time></trkpt><trkpt lat="44.81024121420511" lon="8.690418475623916"><ele>128.0</ele><time>2026-04-28T08:01:02Z</time></trkpt><trkpt lat="44.81008191283933" lon="8.690599941382915"><ele>128.66666666666666</ele><time>2026-04-28T08:01:03Z</time></trkpt><trkpt lat="44.809919515828454" lon="8.690773137003456"><ele>129.33333333333334</ele><time>2026-04-28T08:01:04Z</time></trkpt><trkpt lat="44.80974868525834" lon="8.690929438938596"><ele>130.0</ele><time>2026-04-28T08:01:05Z</time></trkpt><trkpt lat="44.80956576738477" lon="8.691067058148429"><ele>130.0</ele><time>2026-04-28T08:01:06Z</time></trkpt><trkpt lat="44.809363138297826" lon="8.691172759971453"><ele>130.0</ele><time>2026-04-28T08:01:07Z</time></trkpt><trkpt lat="44.809138764159925" lon="8.691266514053252"><ele>131.0</ele><time>2026-04-28T08:01:08Z</time></trkpt><trkpt lat="44.80889317601873" lon="8.691347728171786"><ele>132.0</ele><time>2026-04-28T08:01:09Z</time></trkpt><trkpt lat="44.80862649443079" lon="8.691437129523717"><ele>131.5</ele><time>2026-04-28T08:01:10Z</time></trkpt><trkpt lat="44.808368784522386" lon="8.691520951666707"><ele>131.0</ele><time>2026-04-28T08:01:11Z</time></trkpt><trkpt lat="44.80813235657788" lon="8.691602456861027"><ele>131.0</ele><time>2026-04-28T08:01:12Z</time></trkpt><trkpt lat="44.80791287671569" lon="8.691676641832643"><ele>131.0</ele><time>2026-04-28T08:01:13Z</time></trkpt><trkpt lat="44.807710207860744" lon="8.691740165937421"><ele>131.0</ele><time>2026-04-28T08:01:14Z</time></trkpt><trkpt lat="44.80751825061445" lon="8.691788813494133"><ele>131.33333333333331</ele><time>2026-04-28T08:01:15Z</time></trkpt><trkpt lat="44.80733130756958" lon="8.691814326517106"><ele>131.66666666666666</ele><time>2026-04-28T08:01:16Z</time></trkpt><trkpt lat="44.80714719317054" lon="8.691824400953713"><ele>132.0</ele><time>2026-04-28T08:01:17Z</time></trkpt><trkpt lat="44.80696142762514" lon="8.691816668020126"><ele>132.33333333333334</ele><time>2026-04-28T08:01:18Z</time></trkpt><trkpt lat="44.806772526895585" lon="8.691792021492729"><ele>132.66666666666669</ele><time>2026-04-28T08:01:19Z</time></trkpt><trkpt lat="44.80658068556858" lon="8.691750885072016"><ele>133.0</ele><time>2026-04-28T08:01:20Z</time></trkpt><trkpt lat="44.80637954529672" lon="8.691673489403403"><ele>133.0</ele><time>2026-04-28T08:01:21Z</time></trkpt><trkpt lat="44.80616560588667" lon="8.691582215058485"><ele>133.0</ele><time>2026-04-28T08:01:22Z</time></trkpt><trkpt lat="44.805939256778295" lon="8.69149380994064"><ele>133.0</ele><time>2026-04-28T08:01:23Z</time></trkpt><trkpt lat="44.8056932853662" lon="8.691378817510463"><ele>133.0</ele><time>2026-04-28T08:01:24Z</time></trkpt><trkpt lat="44.805442547982" lon="8.69127969082335"><ele>133.0</ele><time>2026-04-28T08:01:25Z</time></trkpt><trkpt lat="44.80517673649463" lon="8.691172871141156"><ele>133.0</ele><time>2026-04-28T08:01:26Z</time></trkpt><trkpt lat="44.804934456865716" lon="8.691074969513826"><ele>133.0</ele><time>2026-04-28T08:01:27Z</time></trkpt><trkpt lat="44.804711572643754" lon="8.690984657596145"><ele>133.0</ele><time>2026-04-28T08:01:28Z</time></trkpt><trkpt lat="44.80448680857122" lon="8.690899666241389"><ele>132.5</ele><time>2026-04-28T08:01:29Z</time></trkpt><trkpt lat="44.804254611295406" lon="8.690818438381863"><ele>132.0</ele><time>2026-04-28T08:01:30Z</time></trkpt><trkpt lat="44.80401849001213" lon="8.690739020784925"><ele>132.0</ele><time>2026-04-28T08:01:31Z</time></trkpt><trkpt lat="44.80378494399279" lon="8.690657255057204"><ele>132.0</ele><time>2026-04-28T08:01:32Z</time></trkpt><trkpt lat="44.80354421807961" lon="8.6905705028938"><ele>132.0</ele><time>2026-04-28T08:01:33Z</time></trkpt><trkpt lat="44.8033045980528" lon="8.69048221072209"><ele>132.0</ele><time>2026-04-28T08:01:34Z</time></trkpt><trkpt lat="44.80306574993057" lon="8.690397402099721"><ele>132.0</ele><time>2026-04-28T08:01:35Z</time></trkpt><trkpt lat="44.80282672234119" lon="8.690310887850776"><ele>132.0</ele><time>2026-04-28T08:01:36Z</time></trkpt><trkpt lat="44.80259618378995" lon="8.69023194702099"><ele>132.0</ele><time>2026-04-28T08:01:37Z</time></trkpt><trkpt lat="44.802366861535404" lon="8.690158365744594"><ele>132.0</ele><time>2026-04-28T08:01:38Z</time></trkpt><trkpt lat="44.80213392302131" lon="8.690082240778127"><ele>132.0</ele><time>2026-04-28T08:01:39Z</time></trkpt><trkpt lat="44.801901790714325" lon="8.690002769345556"><ele>132.0</ele><time>2026-04-28T08:01:40Z</time></trkpt><trkpt lat="44.80166991471739" lon="8.689922335939286"><ele>132.0</ele><time>2026-04-28T08:01:41Z</time></trkpt><trkpt lat="44.80143209575002" lon="8.689844337766305"><ele>132.0</ele><time>2026-04-28T08:01:42Z</time></trkpt><trkpt lat="44.80117982097493" lon="8.689761589850109"><ele>132.5</ele><time>2026-04-28T08:01:43Z</time></trkpt><trkpt lat="44.800900009601314" lon="8.689668988417854"><ele>133.0</ele><time>2026-04-28T08:01:44Z</time></trkpt><trkpt lat="44.80059887990244" lon="8.689565644710749"><ele>133.0</ele><time>2026-04-28T08:01:45Z</time></trkpt><trkpt lat="44.8002909835492" lon="8.689460311469727"><ele>133.0</ele><time>2026-04-28T08:01:46Z</time></trkpt><trkpt lat="44.80001442560161" lon="8.689365590237355"><ele>133.5</ele><time>2026-04-28T08:01:47Z</time></trkpt><trkpt lat="44.79975360443169" lon="8.68927755754847"><ele>134.0</ele><time>2026-04-28T08:01:48Z</time></trkpt><trkpt lat="44.7995053636694" lon="8.689191391141462"><ele>133.5</ele><time>2026-04-28T08:01:49Z</time></trkpt><trkpt lat="44.799264138521295" lon="8.689110749402886"><ele>133.0</ele><time>2026-04-28T08:01:50Z</time></trkpt><trkpt lat="44.799026409656406" lon="8.689029283496389"><ele>133.0</ele><time>2026-04-28T08:01:51Z</time></trkpt><trkpt lat="44.79879231347712" lon="8.688951943280593"><ele>133.0</ele><time>2026-04-28T08:01:52Z</time></trkpt><trkpt lat="44.79856906859087" lon="8.688878359959912"><ele>133.5</ele><time>2026-04-28T08:01:53Z</time></trkpt><trkpt lat="44.79833647509233" lon="8.68880122500886"><ele>134.0</ele><time>2026-04-28T08:01:54Z</time></trkpt><trkpt lat="44.798111794008804" lon="8.688725942274907"><ele>134.0</ele><time>2026-04-28T08:01:55Z</time></trkpt><trkpt lat="44.79789323078004" lon="8.688653836920333"><ele>134.0</ele><time>2026-04-28T08:01:56Z</time></trkpt><trkpt lat="44.7976790869276" lon="8.68858691673202"><ele>134.0</ele><time>2026-04-28T08:01:56.999Z</time></trkpt><trkpt lat="44.79746465547345" lon="8.688523735309657"><ele>134.33333333333331</ele><time>2026-04-28T08:01:57.999Z</time></trkpt><trkpt lat="44.79725731566864" lon="8.688455618122232"><ele>134.66666666666666</ele><time>2026-04-28T08:01:58.999Z</time></trkpt><trkpt lat="44.797054170974384" lon="8.688386156427644"><ele>135.0</ele><time>2026-04-28T08:01:59.999Z</time></trkpt><trkpt lat="44.79685201214564" lon="8.688320196987696"><ele>134.66666666666666</ele><time>2026-04-28T08:02:00.999Z</time></trkpt><trkpt lat="44.796653155086844" lon="8.688257440920323"><ele>134.33333333333331</ele><time>2026-04-28T08:02:01.999Z</time></trkpt><trkpt lat="44.79645375462201" lon="8.68818864967507"><ele>134.0</ele><time>2026-04-28T08:02:02.999Z</time></trkpt><trkpt lat="44.79625228748113" lon="8.688120636410725"><ele>134.0</ele><time>2026-04-28T08:02:03.999Z</time></trkpt><trkpt lat="44.79605247444603" lon="8.688052424753499"><ele>134.0</ele><time>2026-04-28T08:02:04.999Z</time></trkpt><trkpt lat="44.795849612718335" lon="8.687979615466793"><ele>134.0</ele><time>2026-04-28T08:02:05.999Z</time></trkpt><trkpt lat="44.79564904063147" lon="8.68791487455791"><ele>133.66666666666666</ele><time>2026-04-28T08:02:06.999Z</time></trkpt><trkpt lat="44.795448952879404" lon="8.687849877024583"><ele>133.33333333333334</ele><time>2026-04-28T08:02:07.999Z</time></trkpt><trkpt lat="44.79524638796965" lon="8.687786549982558"><ele>133.0</ele><time>2026-04-28T08:02:08.999Z</time></trkpt><trkpt lat="44.79505278522043" lon="8.687718869196765"><ele>133.0</ele><time>2026-04-28T08:02:09.999Z</time></trkpt><trkpt lat="44.79486783352047" lon="8.687654262651419"><ele>133.0</ele><time>2026-04-28T08:02:10.999Z</time></trkpt><trkpt lat="44.79468946212162" lon="8.687600299672136"><ele>133.0</ele><time>2026-04-28T08:02:11.999Z</time></trkpt><trkpt lat="44.79451265917534" lon="8.687556721895119"><ele>131.33333333333334</ele><time>2026-04-28T08:02:12.999Z</time></trkpt><trkpt lat="44.79432346911969" lon="8.687552493610738"><ele>129.66666666666666</ele><time>2026-04-28T08:02:13.999Z</time></trkpt><trkpt lat="44.79412168876571" lon="8.687570568526084"><ele>128.0</ele><time>2026-04-28T08:02:14.999Z</time></trkpt><trkpt lat="44.79389965332637" lon="8.687608731728215"><ele>128.0</ele><time>2026-04-28T08:02:15.999Z</time></trkpt><trkpt lat="44.79366571041053" lon="8.687647617116925"><ele>128.0</ele><time>2026-04-28T08:02:16.999Z</time></trkpt><trkpt lat="44.793422906025235" lon="8.687681549396363"><ele>126.5</ele><time>2026-04-28T08:02:17.999Z</time></trkpt><trkpt lat="44.79318541767901" lon="8.687722936839313"><ele>125.0</ele><time>2026-04-28T08:02:18.999Z</time></trkpt><trkpt lat="44.79296809562002" lon="8.687764495547368"><ele>125.0</ele><time>2026-04-28T08:02:19.999Z</time></trkpt><trkpt lat="44.79275647817174" lon="8.687801481486362"><ele>125.0</ele><time>2026-04-28T08:02:20.999Z</time></trkpt><trkpt lat="44.79254620542126" lon="8.687839949472327"><ele>125.0</ele><time>2026-04-28T08:02:21.999Z</time></trkpt><trkpt lat="44.79233379086155" lon="8.687879457495706"><ele>125.0</ele><time>2026-04-28T08:02:22.999Z</time></trkpt><trkpt lat="44.79212163513972" lon="8.687918014881884"><ele>125.0</ele><time>2026-04-28T08:02:23.999Z</time></trkpt><trkpt lat="44.79191725266638" lon="8.687956230207607"><ele>125.0</ele><time>2026-04-28T08:02:24.999Z</time></trkpt><trkpt lat="44.79172287200697" lon="8.687991163171532"><ele>125.33333333333333</ele><time>2026-04-28T08:02:25.999Z</time></trkpt><trkpt lat="44.79154635239071" lon="8.68800988897573"><ele>125.66666666666666</ele><time>2026-04-28T08:02:26.999Z</time></trkpt><trkpt lat="44.791383209011045" lon="8.68798686021541"><ele>126.0</ele><time>2026-04-28T08:02:27.999Z</time></trkpt><trkpt lat="44.79122732461915" lon="8.68792641989882"><ele>126.0</ele><time>2026-04-28T08:02:28.999Z</time></trkpt><trkpt lat="44.791062422391065" lon="8.687838679220953"><ele>126.0</ele><time>2026-04-28T08:02:29.999Z</time></trkpt><trkpt lat="44.790905639807775" lon="8.6877819952116"><ele>126.0</ele><time>2026-04-28T08:02:30.999Z</time></trkpt><trkpt lat="44.79075845312414" lon="8.687755155624656"><ele>128.0</ele><time>2026-04-28T08:02:31.999Z</time></trkpt><trkpt lat="44.79061843368067" lon="8.687768634973304"><ele>130.0</ele><time>2026-04-28T08:02:32.999Z</time></trkpt><trkpt lat="44.79047926007658" lon="8.687832569833981"><ele>132.0</ele><time>2026-04-28T08:02:33.999Z</time></trkpt><trkpt lat="44.79034141339405" lon="8.687929780034276"><ele>134.0</ele><time>2026-04-28T08:02:34.999Z</time></trkpt><trkpt lat="44.79019126302027" lon="8.688032981844358"><ele>134.66666666666666</ele><time>2026-04-28T08:02:35.999Z</time></trkpt><trkpt lat="44.79002606157168" lon="8.68813565775237"><ele>135.33333333333334</ele><time>2026-04-28T08:02:36.999Z</time></trkpt><trkpt lat="44.78985078761653" lon="8.688244397071403"><ele>136.0</ele><time>2026-04-28T08:02:37.999Z</time></trkpt><trkpt lat="44.78966769962407" lon="8.688363220412873"><ele>136.0</ele><time>2026-04-28T08:02:38.999Z</time></trkpt><trkpt lat="44.789478254881175" lon="8.688490082791018"><ele>136.0</ele><time>2026-04-28T08:02:39.999Z</time></trkpt><trkpt lat="44.789272870112356" lon="8.688616326215941"><ele>136.0</ele><time>2026-04-28T08:02:40.999Z</time></trkpt><trkpt lat="44.789072225021386" lon="8.688744230269828"><ele>137.66666666666669</ele><time>2026-04-28T08:02:41.999Z</time></trkpt><trkpt lat="44.78889093549473" lon="8.688858593187463"><ele>139.33333333333334</ele><time>2026-04-28T08:02:42.999Z</time></trkpt><trkpt lat="44.78872181881473" lon="8.688967842250102"><ele>141.0</ele><time>2026-04-28T08:02:43.999Z</time></trkpt><trkpt lat="44.78855476348637" lon="8.689073777803635"><ele>140.33333333333334</ele><time>2026-04-28T08:02:44.999Z</time></trkpt><trkpt lat="44.788384082811014" lon="8.689177246207723"><ele>139.66666666666669</ele><time>2026-04-28T08:02:45.999Z</time></trkpt><trkpt lat="44.788206002008714" lon="8.689271750987047"><ele>139.0</ele><time>2026-04-28T08:02:46.999Z</time></trkpt><trkpt lat="44.78802620381312" lon="8.689364547834176"><ele>139.0</ele><time>2026-04-28T08:02:47.999Z</time></trkpt><trkpt lat="44.78783575326693" lon="8.689449204226154"><ele>139.0</ele><time>2026-04-28T08:02:48.999Z</time></trkpt><trkpt lat="44.78764361582168" lon="8.689532069790994"><ele>139.0</ele><time>2026-04-28T08:02:49.999Z</time></trkpt><trkpt lat="44.787461492085804" lon="8.689605875849663"><ele>139.0</ele><time>2026-04-28T08:02:50.999Z</time></trkpt><trkpt lat="44.78728818445968" lon="8.689666874549506"><ele>139.0</ele><time>2026-04-28T08:02:51.999Z</time></trkpt><trkpt lat="44.787102395938675" lon="8.689721403672795"><ele>139.0</ele><time>2026-04-28T08:02:52.999Z</time></trkpt><trkpt lat="44.78691772710273" lon="8.689751231174881"><ele>139.33333333333334</ele><time>2026-04-28T08:02:53.999Z</time></trkpt><trkpt lat="44.78674040286073" lon="8.689751835929831"><ele>139.66666666666666</ele><time>2026-04-28T08:02:54.999Z</time></trkpt><trkpt lat="44.78658104057447" lon="8.689714462185684"><ele>140.0</ele><time>2026-04-28T08:02:55.999Z</time></trkpt><trkpt lat="44.786430406049455" lon="8.689641986720616"><ele>140.0</ele><time>2026-04-28T08:02:56.999Z</time></trkpt><trkpt lat="44.78627928575226" lon="8.689545199639548"><ele>140.0</ele><time>2026-04-28T08:02:57.999Z</time></trkpt><trkpt lat="44.78612068409757" lon="8.689450135734637"><ele>140.0</ele><time>2026-04-28T08:02:58.999Z</time></trkpt><trkpt lat="44.78595769417185" lon="8.689362332301327"><ele>141.0</ele><time>2026-04-28T08:02:59.999Z</time></trkpt><trkpt lat="44.7857990268605" lon="8.689282316494147"><ele>142.0</ele><time>2026-04-28T08:03:00.999Z</time></trkpt><trkpt lat="44.78564621620506" lon="8.689204386998213"><ele>143.0</ele><time>2026-04-28T08:03:01.999Z</time></trkpt><trkpt lat="44.785498402289335" lon="8.68914054704247"><ele>143.0</ele><time>2026-04-28T08:03:03Z</time></trkpt><trkpt lat="44.785349339312134" lon="8.689101027530452"><ele>143.0</ele><time>2026-04-28T08:03:04Z</time></trkpt><trkpt lat="44.785198033819114" lon="8.689081415327841"><ele>143.0</ele><time>2026-04-28T08:03:05Z</time></trkpt><trkpt lat="44.7850534006584" lon="8.689077961181088"><ele>143.0</ele><time>2026-04-28T08:03:06Z</time></trkpt><trkpt lat="44.78492720346819" lon="8.689104471807719"><ele>143.25</ele><time>2026-04-28T08:03:07Z</time></trkpt><trkpt lat="44.784813224443845" lon="8.689160536076798"><ele>143.5</ele><time>2026-04-28T08:03:08Z</time></trkpt><trkpt lat="44.784700145744935" lon="8.68924886896496"><ele>143.75</ele><time>2026-04-28T08:03:09Z</time></trkpt><trkpt lat="44.784584844834484" lon="8.689343642582857"><ele>144.0</ele><time>2026-04-28T08:03:10Z</time></trkpt><trkpt lat="44.78447672059052" lon="8.689430841612195"><ele>144.0</ele><time>2026-04-28T08:03:11Z</time></trkpt><trkpt lat="44.784359390491765" lon="8.68952212921294"><ele>144.0</ele><time>2026-04-28T08:03:12Z</time></trkpt><trkpt lat="44.784242691081715" lon="8.689593287922664"><ele>144.0</ele><time>2026-04-28T08:03:13Z</time></trkpt><trkpt lat="44.78412264385479" lon="8.689638123360377"><ele>144.0</ele><time>2026-04-28T08:03:14Z</time></trkpt><trkpt lat="44.78398565041913" lon="8.689636993926602"><ele>143.75</ele><time>2026-04-28T08:03:15Z</time></trkpt><trkpt lat="44.78384368078694" lon="8.689620855530464"><ele>143.5</ele><time>2026-04-28T08:03:16Z</time></trkpt><trkpt lat="44.78370540242097" lon="8.689600368949733"><ele>143.25</ele><time>2026-04-28T08:03:17Z</time></trkpt><trkpt lat="44.78359199258893" lon="8.689596355091625"><ele>143.0</ele><time>2026-04-28T08:03:18Z</time></trkpt><trkpt lat="44.78347401784345" lon="8.689630680864127"><ele>143.0</ele><time>2026-04-28T08:03:19Z</time></trkpt><trkpt lat="44.783346911053165" lon="8.689693818584322"><ele>143.0</ele><time>2026-04-28T08:03:20Z</time></trkpt><trkpt lat="44.783218734539396" lon="8.689763452814208"><ele>143.0</ele><time>2026-04-28T08:03:21Z</time></trkpt><trkpt lat="44.783084948340296" lon="8.689826583980201"><ele>143.0</ele><time>2026-04-28T08:03:22Z</time></trkpt><trkpt lat="44.78294629532216" lon="8.689886336974777"><ele>143.0</ele><time>2026-04-28T08:03:23Z</time></trkpt><trkpt lat="44.78280452289861" lon="8.689948489461402"><ele>143.0</ele><time>2026-04-28T08:03:24Z</time></trkpt><trkpt lat="44.78265857560265" lon="8.690015482408487"><ele>143.0</ele><time>2026-04-28T08:03:25Z</time></trkpt><trkpt lat="44.78250908252188" lon="8.690090588456084"><ele>143.5</ele><time>2026-04-28T08:03:26Z</time></trkpt><trkpt lat="44.7823713498479" lon="8.690162626247945"><ele>144.0</ele><time>2026-04-28T08:03:27Z</time></trkpt><trkpt lat="44.78223400329519" lon="8.690227163141895"><ele>144.5</ele><time>2026-04-28T08:03:28Z</time></trkpt><trkpt lat="44.78209243104706" lon="8.690294764604975"><ele>145.0</ele><time>2026-04-28T08:03:29Z</time></trkpt><trkpt lat="44.78195734196304" lon="8.690354112953452"><ele>145.25</ele><time>2026-04-28T08:03:30Z</time></trkpt><trkpt lat="44.78182908517373" lon="8.690415109929743"><ele>145.5</ele><time>2026-04-28T08:03:31Z</time></trkpt><trkpt lat="44.78171094076642" lon="8.690468544907288"><ele>145.75</ele><time>2026-04-28T08:03:32Z</time></trkpt><trkpt lat="44.7815929314572" lon="8.69052404693629"><ele>146.0</ele><time>2026-04-28T08:03:33Z</time></trkpt><trkpt lat="44.78148557665447" lon="8.690608693298795"><ele>146.0</ele><time>2026-04-28T08:03:34Z</time></trkpt><trkpt lat="44.78140103905111" lon="8.69073903154576"><ele>146.0</ele><time>2026-04-28T08:03:35Z</time></trkpt><trkpt lat="44.78132863376838" lon="8.690896993495404"><ele>146.0</ele><time>2026-04-28T08:03:36Z</time></trkpt><trkpt lat="44.78124964865189" lon="8.691070920908546"><ele>146.0</ele><time>2026-04-28T08:03:37Z</time></trkpt><trkpt lat="44.7811702619904" lon="8.691253300729375"><ele>145.66666666666666</ele><time>2026-04-28T08:03:38Z</time></trkpt><trkpt lat="44.781077773496754" lon="8.69143642948766"><ele>145.33333333333334</ele><time>2026-04-28T08:03:39Z</time></trkpt><trkpt lat="44.780982684430555" lon="8.69163153804589"><ele>145.0</ele><time>2026-04-28T08:03:40Z</time></trkpt><trkpt lat="44.78088570696274" lon="8.691835235003282"><ele>145.0</ele><time>2026-04-28T08:03:41Z</time></trkpt><trkpt lat="44.78078683380652" lon="8.692043117498146"><ele>145.0</ele><time>2026-04-28T08:03:42Z</time></trkpt><trkpt lat="44.780680609922776" lon="8.69225857787361"><ele>145.0</ele><time>2026-04-28T08:03:43Z</time></trkpt><trkpt lat="44.78057205944042" lon="8.692480283501368"><ele>145.0</ele><time>2026-04-28T08:03:44Z</time></trkpt><trkpt lat="44.780460211137246" lon="8.692704270697194"><ele>145.0</ele><time>2026-04-28T08:03:45Z</time></trkpt><trkpt lat="44.78035623210012" lon="8.692911212626555"><ele>145.0</ele><time>2026-04-28T08:03:46Z</time></trkpt><trkpt lat="44.78024760964007" lon="8.693103700782562"><ele>145.0</ele><time>2026-04-28T08:03:47Z</time></trkpt><trkpt lat="44.780140962753116" lon="8.693283514381225"><ele>145.0</ele><time>2026-04-28T08:03:48Z</time></trkpt><trkpt lat="44.78001730667525" lon="8.693434639715818"><ele>145.0</ele><time>2026-04-28T08:03:49Z</time></trkpt><trkpt lat="44.77987690348295" lon="8.693578998147224"><ele>145.0</ele><time>2026-04-28T08:03:50Z</time></trkpt><trkpt lat="44.779726326347394" lon="8.693720315922372"><ele>145.0</ele><time>2026-04-28T08:03:51Z</time></trkpt><trkpt lat="44.77956872930436" lon="8.693859866351893"><ele>145.0</ele><time>2026-04-28T08:03:52Z</time></trkpt><trkpt lat="44.77939140521407" lon="8.694001742142335"><ele>146.33333333333334</ele><time>2026-04-28T08:03:53Z</time></trkpt><trkpt lat="44.77920389154265" lon="8.694156642436067"><ele>147.66666666666666</ele><time>2026-04-28T08:03:54Z</time></trkpt><trkpt lat="44.779028550140445" lon="8.694296639603346"><ele>149.0</ele><time>2026-04-28T08:03:55Z</time></trkpt><trkpt lat="44.778864619264695" lon="8.694419545791328"><ele>148.33333333333331</ele><time>2026-04-28T08:03:56Z</time></trkpt><trkpt lat="44.77869551314672" lon="8.694514092986255"><ele>147.66666666666666</ele><time>2026-04-28T08:03:57Z</time></trkpt><trkpt lat="44.77851486934746" lon="8.694586342472759"><ele>147.0</ele><time>2026-04-28T08:03:58Z</time></trkpt><trkpt lat="44.77831295572824" lon="8.694648156354791"><ele>146.5</ele><time>2026-04-28T08:03:59Z</time></trkpt><trkpt lat="44.77809251962501" lon="8.694725949165747"><ele>146.0</ele><time>2026-04-28T08:03:59.999Z</time></trkpt><trkpt lat="44.77785826072211" lon="8.69481073840934"><ele>146.33333333333331</ele><time>2026-04-28T08:04:00.999Z</time></trkpt><trkpt lat="44.77764015256609" lon="8.694883168492312"><ele>146.66666666666666</ele><time>2026-04-28T08:04:01.999Z</time></trkpt><trkpt lat="44.777436608740246" lon="8.69495874403097"><ele>147.0</ele><time>2026-04-28T08:04:02.999Z</time></trkpt><trkpt lat="44.77724221127747" lon="8.695042864308235"><ele>147.0</ele><time>2026-04-28T08:04:03.999Z</time></trkpt><trkpt lat="44.77705297592476" lon="8.695131240909497"><ele>147.0</ele><time>2026-04-28T08:04:04.999Z</time></trkpt><trkpt lat="44.776863743358376" lon="8.695220464893273"><ele>147.0</ele><time>2026-04-28T08:04:05.999Z</time></trkpt><trkpt lat="44.776670976802734" lon="8.69531540740136"><ele>147.33333333333334</ele><time>2026-04-28T08:04:06.999Z</time></trkpt><trkpt lat="44.77646681022836" lon="8.695416384138282"><ele>147.66666666666669</ele><time>2026-04-28T08:04:07.999Z</time></trkpt><trkpt lat="44.7762507245929" lon="8.69551367919987"><ele>148.0</ele><time>2026-04-28T08:04:08.999Z</time></trkpt><trkpt lat="44.77602901709908" lon="8.69561951369467"><ele>147.66666666666669</ele><time>2026-04-28T08:04:09.999Z</time></trkpt><trkpt lat="44.77582646816877" lon="8.695718063595555"><ele>147.33333333333334</ele><time>2026-04-28T08:04:10.999Z</time></trkpt><trkpt lat="44.77563923384594" lon="8.695814520201338"><ele>147.0</ele><time>2026-04-28T08:04:11.999Z</time></trkpt><trkpt lat="44.775462538497344" lon="8.695925482975017"><ele>147.0</ele><time>2026-04-28T08:04:12.999Z</time></trkpt><trkpt lat="44.7752886661971" lon="8.696021353229362"><ele>147.0</ele><time>2026-04-28T08:04:13.999Z</time></trkpt><trkpt lat="44.775107124363515" lon="8.696105057303598"><ele>147.0</ele><time>2026-04-28T08:04:14.999Z</time></trkpt><trkpt lat="44.77492457238422" lon="8.696193096854284"><ele>146.33333333333334</ele><time>2026-04-28T08:04:15.999Z</time></trkpt><trkpt lat="44.77474316756503" lon="8.696287998452656"><ele>145.66666666666669</ele><time>2026-04-28T08:04:16.999Z</time></trkpt><trkpt lat="44.77456096939385" lon="8.696381123615225"><ele>145.0</ele><time>2026-04-28T08:04:17.999Z</time></trkpt><trkpt lat="44.774394241768164" lon="8.696497196419035"><ele>144.33333333333334</ele><time>2026-04-28T08:04:18.999Z</time></trkpt><trkpt lat="44.774224446084155" lon="8.696619069391797"><ele>143.66666666666666</ele><time>2026-04-28T08:04:19.999Z</time></trkpt><trkpt lat="44.77405055155782" lon="8.696731609673009"><ele>143.0</ele><time>2026-04-28T08:04:20.999Z</time></trkpt><trkpt lat="44.77387761824742" lon="8.696836777946343"><ele>144.0</ele><time>2026-04-28T08:04:21.999Z</time></trkpt><trkpt lat="44.773703164816595" lon="8.696926697239615"><ele>145.0</ele><time>2026-04-28T08:04:22.999Z</time></trkpt><trkpt lat="44.77350741626347" lon="8.696995009420508"><ele>146.0</ele><time>2026-04-28T08:04:23.999Z</time></trkpt><trkpt lat="44.77330825262779" lon="8.697033803096584"><ele>146.0</ele><time>2026-04-28T08:04:24.999Z</time></trkpt><trkpt lat="44.773096394991605" lon="8.697083515597573"><ele>146.0</ele><time>2026-04-28T08:04:25.999Z</time></trkpt><trkpt lat="44.77288164579958" lon="8.697136392563852"><ele>146.0</ele><time>2026-04-28T08:04:26.999Z</time></trkpt><trkpt lat="44.77267931730526" lon="8.697183903051647"><ele>145.66666666666666</ele><time>2026-04-28T08:04:27.999Z</time></trkpt><trkpt lat="44.772486141811854" lon="8.697231377604004"><ele>145.33333333333334</ele><time>2026-04-28T08:04:28.999Z</time></trkpt><trkpt lat="44.77229707788367" lon="8.697288711278027"><ele>145.0</ele><time>2026-04-28T08:04:29.999Z</time></trkpt><trkpt lat="44.77209954598481" lon="8.697360143759356"><ele>145.0</ele><time>2026-04-28T08:04:30.999Z</time></trkpt><trkpt lat="44.77190682712621" lon="8.69746216759749"><ele>145.0</ele><time>2026-04-28T08:04:31.999Z</time></trkpt><trkpt lat="44.771713132244464" lon="8.697562755215685"><ele>145.0</ele><time>2026-04-28T08:04:32.999Z</time></trkpt><trkpt lat="44.77151949509374" lon="8.697673167942293"><ele>144.66666666666669</ele><time>2026-04-28T08:04:33.999Z</time></trkpt><trkpt lat="44.771319518089335" lon="8.697791502719603"><ele>144.33333333333334</ele><time>2026-04-28T08:04:34.999Z</time></trkpt><trkpt lat="44.771123521428855" lon="8.697921754666888"><ele>144.0</ele><time>2026-04-28T08:04:35.999Z</time></trkpt><trkpt lat="44.77094379842258" lon="8.698052153282626"><ele>143.66666666666666</ele><time>2026-04-28T08:04:36.999Z</time></trkpt><trkpt lat="44.77076539867417" lon="8.698146711038504"><ele>143.33333333333331</ele><time>2026-04-28T08:04:37.999Z</time></trkpt><trkpt lat="44.770609507808764" lon="8.698327361021725"><ele>143.0</ele><time>2026-04-28T08:04:38.999Z</time></trkpt><trkpt lat="44.77044244555115" lon="8.698480211563227"><ele>143.33333333333331</ele><time>2026-04-28T08:04:39.999Z</time></trkpt><trkpt lat="44.77028115265945" lon="8.698616462623473"><ele>143.66666666666666</ele><time>2026-04-28T08:04:40.999Z</time></trkpt><trkpt lat="44.7701404157949" lon="8.698757311557076"><ele>144.0</ele><time>2026-04-28T08:04:41.999Z</time></trkpt><trkpt lat="44.770018933629586" lon="8.698916392683302"><ele>144.0</ele><time>2026-04-28T08:04:42.999Z</time></trkpt><trkpt lat="44.76990980171506" lon="8.699083770674008"><ele>144.0</ele><time>2026-04-28T08:04:43.999Z</time></trkpt><trkpt lat="44.7698014163176" lon="8.699255940604452"><ele>144.0</ele><time>2026-04-28T08:04:44.999Z</time></trkpt><trkpt lat="44.76970465103801" lon="8.699438427601532"><ele>144.33333333333334</ele><time>2026-04-28T08:04:45.999Z</time></trkpt><trkpt lat="44.76961424769365" lon="8.69962488382084"><ele>144.66666666666669</ele><time>2026-04-28T08:04:46.999Z</time></trkpt><trkpt lat="44.769525151355076" lon="8.69982250582461"><ele>145.0</ele><time>2026-04-28T08:04:47.999Z</time></trkpt><trkpt lat="44.769440110931214" lon="8.700025199213774"><ele>145.0</ele><time>2026-04-28T08:04:48.999Z</time></trkpt><trkpt lat="44.76937518523135" lon="8.70024520747001"><ele>145.0</ele><time>2026-04-28T08:04:49.999Z</time></trkpt><trkpt lat="44.76931791436215" lon="8.70048197130838"><ele>145.0</ele><time>2026-04-28T08:04:50.999Z</time></trkpt><trkpt lat="44.76927556619025" lon="8.70069442933368"><ele>145.2</ele><time>2026-04-28T08:04:51.999Z</time></trkpt><trkpt lat="44.7692362125824" lon="8.700874058218364"><ele>145.4</ele><time>2026-04-28T08:04:52.999Z</time></trkpt><trkpt lat="44.76920362960578" lon="8.701034297032635"><ele>145.6</ele><time>2026-04-28T08:04:53.999Z</time></trkpt><trkpt lat="44.76918059209159" lon="8.70116290273253"><ele>145.8</ele><time>2026-04-28T08:04:54.999Z</time></trkpt><trkpt lat="44.7691362585398" lon="8.701254252995525"><ele>146.0</ele><time>2026-04-28T08:04:55.999Z</time></trkpt><trkpt lat="44.76909686135558" lon="8.701350998559445"><ele>146.33333333333331</ele><time>2026-04-28T08:04:57.999Z</time></trkpt><trkpt lat="44.76907205147899" lon="8.701570185889656"><ele>146.66666666666666</ele><time>2026-04-28T08:04:59.999Z</time></trkpt><trkpt lat="44.76909165589206" lon="8.701747432197594"><ele>147.0</ele><time>2026-04-28T08:05:00.999Z</time></trkpt><trkpt lat="44.76913349679498" lon="8.701979118843688"><ele>147.0</ele><time>2026-04-28T08:05:01.999Z</time></trkpt><trkpt lat="44.76916470064771" lon="8.702243093394355"><ele>147.0</ele><time>2026-04-28T08:05:02.999Z</time></trkpt><trkpt lat="44.76919689476404" lon="8.702500899686076"><ele>147.0</ele><time>2026-04-28T08:05:03.999Z</time></trkpt><trkpt lat="44.769223952084104" lon="8.702720671222677"><ele>147.0</ele><time>2026-04-28T08:05:04.999Z</time></trkpt><trkpt lat="44.769250898466574" lon="8.702926467208218"><ele>147.0</ele><time>2026-04-28T08:05:05.999Z</time></trkpt><trkpt lat="44.76926974212853" lon="8.703129008093384"><ele>147.0</ele><time>2026-04-28T08:05:06.999Z</time></trkpt><trkpt lat="44.76929367744479" lon="8.703328640568918"><ele>147.0</ele><time>2026-04-28T08:05:07.999Z</time></trkpt><trkpt lat="44.76931483689645" lon="8.703529518308232"><ele>147.66666666666666</ele><time>2026-04-28T08:05:09Z</time></trkpt><trkpt lat="44.76934218077665" lon="8.703730570997092"><ele>148.33333333333331</ele><time>2026-04-28T08:05:10Z</time></trkpt><trkpt lat="44.769359996261144" lon="8.703962047469545"><ele>149.0</ele><time>2026-04-28T08:05:11Z</time></trkpt><trkpt lat="44.769383805990856" lon="8.704167719281784"><ele>149.0</ele><time>2026-04-28T08:05:12Z</time></trkpt><trkpt lat="44.769403004498024" lon="8.704373471137313"><ele>149.0</ele><time>2026-04-28T08:05:13Z</time></trkpt><trkpt lat="44.76941861807211" lon="8.704590389900485"><ele>149.0</ele><time>2026-04-28T08:05:14Z</time></trkpt><trkpt lat="44.769419145378514" lon="8.704802506027352"><ele>149.0</ele><time>2026-04-28T08:05:15Z</time></trkpt><trkpt lat="44.76941240910005" lon="8.705014898814579"><ele>149.0</ele><time>2026-04-28T08:05:16Z</time></trkpt><trkpt lat="44.76939162400378" lon="8.705223978061397"><ele>149.0</ele><time>2026-04-28T08:05:17Z</time></trkpt><trkpt lat="44.76935520903235" lon="8.705432228355223"><ele>149.0</ele><time>2026-04-28T08:05:18Z</time></trkpt><trkpt lat="44.769306261283795" lon="8.7056244460423"><ele>149.0</ele><time>2026-04-28T08:05:19Z</time></trkpt><trkpt lat="44.76924671323431" lon="8.705810110642208"><ele>149.0</ele><time>2026-04-28T08:05:20Z</time></trkpt><trkpt lat="44.7691760858175" lon="8.705996133130439"><ele>149.0</ele><time>2026-04-28T08:05:21Z</time></trkpt><trkpt lat="44.76911059595639" lon="8.7061884185335"><ele>149.66666666666666</ele><time>2026-04-28T08:05:22Z</time></trkpt><trkpt lat="44.76904315956767" lon="8.706379919042236"><ele>150.33333333333334</ele><time>2026-04-28T08:05:23Z</time></trkpt><trkpt lat="44.76897439176965" lon="8.706582187756627"><ele>151.0</ele><time>2026-04-28T08:05:24Z</time></trkpt><trkpt lat="44.768915360176415" lon="8.706774004042906"><ele>151.6</ele><time>2026-04-28T08:05:25Z</time></trkpt><trkpt lat="44.768863408109254" lon="8.70695104182325"><ele>152.2</ele><time>2026-04-28T08:05:26Z</time></trkpt><trkpt lat="44.76882035861676" lon="8.707096064001673"><ele>152.8</ele><time>2026-04-28T08:05:27Z</time></trkpt><trkpt lat="44.76880051428973" lon="8.70719216125734"><ele>153.4</ele><time>2026-04-28T08:05:28Z</time></trkpt><trkpt lat="44.76873992630259" lon="8.707229924449447"><ele>154.0</ele><time>2026-04-28T08:05:30Z</time></trkpt><trkpt lat="44.76864551205817" lon="8.707193305275926"><ele>154.0</ele><time>2026-04-28T08:05:32Z</time></trkpt><trkpt lat="44.768633946851686" lon="8.707105318621103"><ele>154.0</ele><time>2026-04-28T08:05:33Z</time></trkpt><trkpt lat="44.76863113693371" lon="8.706974934527604"><ele>154.0</ele><time>2026-04-28T08:05:34Z</time></trkpt><trkpt lat="44.768630256837504" lon="8.70685164492206"><ele>154.0</ele><time>2026-04-28T08:05:35Z</time></trkpt><trkpt lat="44.76862633441508" lon="8.706727019251215"><ele>154.0</ele><time>2026-04-28T08:05:36Z</time></trkpt><trkpt lat="44.76861851928861" lon="8.70663621001163"><ele>154.0</ele><time>2026-04-28T08:05:37Z</time></trkpt><trkpt lat="44.76856761684377" lon="8.706496844918963"><ele>153.6</ele><time>2026-04-28T08:05:39Z</time></trkpt><trkpt lat="44.76847608823301" lon="8.70642953584109"><ele>153.2</ele><time>2026-04-28T08:05:41Z</time></trkpt><trkpt lat="44.768394779354246" lon="8.70638934749229"><ele>152.79999999999998</ele><time>2026-04-28T08:05:42Z</time></trkpt><trkpt lat="44.768294185050046" lon="8.706324267151931"><ele>152.4</ele><time>2026-04-28T08:05:43Z</time></trkpt><trkpt lat="44.7681748404934" lon="8.706250960677362"><ele>152.0</ele><time>2026-04-28T08:05:44Z</time></trkpt><trkpt lat="44.76802275008453" lon="8.706173196891424"><ele>152.0</ele><time>2026-04-28T08:05:45Z</time></trkpt><trkpt lat="44.767862085858596" lon="8.70608541757711"><ele>152.0</ele><time>2026-04-28T08:05:46Z</time></trkpt><trkpt lat="44.767701531069235" lon="8.705991299301493"><ele>152.0</ele><time>2026-04-28T08:05:47Z</time></trkpt><trkpt lat="44.76756578861636" lon="8.705929190644499"><ele>151.25</ele><time>2026-04-28T08:05:48Z</time></trkpt><trkpt lat="44.767435313880846" lon="8.705859084458993"><ele>150.5</ele><time>2026-04-28T08:05:49Z</time></trkpt><trkpt lat="44.7673204447457" lon="8.705775165966438"><ele>149.75</ele><time>2026-04-28T08:05:50Z</time></trkpt><trkpt lat="44.76723282342284" lon="8.70571845507656"><ele>149.0</ele><time>2026-04-28T08:05:51Z</time></trkpt><trkpt lat="44.767148727612934" lon="8.705675183557313"><ele>149.0</ele><time>2026-04-28T08:05:52Z</time></trkpt><trkpt lat="44.767069441110294" lon="8.705643024333702"><ele>149.0</ele><time>2026-04-28T08:05:53Z</time></trkpt><trkpt lat="44.76698089982945" lon="8.705619525461678"><ele>149.0</ele><time>2026-04-28T08:05:54Z</time></trkpt><trkpt lat="44.76689777407113" lon="8.705587233675665"><ele>149.0</ele><time>2026-04-28T08:05:55Z</time></trkpt><trkpt lat="44.766809457994874" lon="8.705537590933996"><ele>149.0</ele><time>2026-04-28T08:05:56Z</time></trkpt><trkpt lat="44.766730888337186" lon="8.705495083378533"><ele>149.0</ele><time>2026-04-28T08:05:57Z</time></trkpt><trkpt lat="44.76666262706845" lon="8.705449593787431"><ele>148.83333333333331</ele><time>2026-04-28T08:05:58Z</time></trkpt><trkpt lat="44.76658340243573" lon="8.705381100698952"><ele>148.66666666666666</ele><time>2026-04-28T08:06:00Z</time></trkpt><trkpt lat="44.76651303356918" lon="8.705394993958214"><ele>148.5</ele><time>2026-04-28T08:06:02Z</time></trkpt><trkpt lat="44.76647378053866" lon="8.70546594383757"><ele>148.33333333333334</ele><time>2026-04-28T08:06:03Z</time></trkpt><trkpt lat="44.76644505060616" lon="8.70560807408069"><ele>148.16666666666669</ele><time>2026-04-28T08:06:04Z</time></trkpt><trkpt lat="44.7663836666153" lon="8.705740367256574"><ele>148.0</ele><time>2026-04-28T08:06:05Z</time></trkpt><trkpt lat="44.766309978145465" lon="8.705867820495333"><ele>148.0</ele><time>2026-04-28T08:06:06Z</time></trkpt><trkpt lat="44.76624486055879" lon="8.706054550689199"><ele>148.0</ele><time>2026-04-28T08:06:06.999Z</time></trkpt><trkpt lat="44.76617508952583" lon="8.70622730317776"><ele>148.0</ele><time>2026-04-28T08:06:07.999Z</time></trkpt><trkpt lat="44.76608473620625" lon="8.706413879804272"><ele>148.0</ele><time>2026-04-28T08:06:08.999Z</time></trkpt><trkpt lat="44.76597011768035" lon="8.706620705616093"><ele>147.66666666666669</ele><time>2026-04-28T08:06:09.999Z</time></trkpt><trkpt lat="44.76586368067527" lon="8.706827246442504"><ele>147.33333333333334</ele><time>2026-04-28T08:06:10.999Z</time></trkpt><trkpt lat="44.765789189596084" lon="8.707018683301541"><ele>147.0</ele><time>2026-04-28T08:06:11.999Z</time></trkpt><trkpt lat="44.76572914182658" lon="8.70716025016924"><ele>147.0</ele><time>2026-04-28T08:06:12.999Z</time></trkpt><trkpt lat="44.765670846371265" lon="8.707331102359786"><ele>147.0</ele><time>2026-04-28T08:06:13.999Z</time></trkpt><trkpt lat="44.76560437048644" lon="8.70750487572133"><ele>147.0</ele><time>2026-04-28T08:06:14.999Z</time></trkpt><trkpt lat="44.76553889226799" lon="8.707685218688098"><ele>147.0</ele><time>2026-04-28T08:06:15.999Z</time></trkpt><trkpt lat="44.76546668531207" lon="8.707882742909481"><ele>147.33333333333334</ele><time>2026-04-28T08:06:16.999Z</time></trkpt><trkpt lat="44.76539254573735" lon="8.70808649000484"><ele>147.66666666666669</ele><time>2026-04-28T08:06:17.999Z</time></trkpt><trkpt lat="44.76532403471268" lon="8.708288665436864"><ele>148.0</ele><time>2026-04-28T08:06:18.999Z</time></trkpt><trkpt lat="44.76524515322697" lon="8.70848948615009"><ele>148.0</ele><time>2026-04-28T08:06:19.999Z</time></trkpt><trkpt lat="44.76515631472133" lon="8.708690036280439"><ele>148.0</ele><time>2026-04-28T08:06:20.999Z</time></trkpt><trkpt lat="44.76506200460648" lon="8.708896065005845"><ele>148.0</ele><time>2026-04-28T08:06:21.999Z</time></trkpt><trkpt lat="44.764970523816984" lon="8.70909061162531"><ele>148.0</ele><time>2026-04-28T08:06:22.999Z</time></trkpt><trkpt lat="44.76487295627899" lon="8.70925700221971"><ele>148.0</ele><time>2026-04-28T08:06:23.999Z</time></trkpt><trkpt lat="44.7647517437991" lon="8.709398898168073"><ele>148.0</ele><time>2026-04-28T08:06:24.999Z</time></trkpt><trkpt lat="44.76459882872109" lon="8.709512599995511"><ele>148.33333333333334</ele><time>2026-04-28T08:06:25.999Z</time></trkpt><trkpt lat="44.76445530642109" lon="8.709619019103387"><ele>148.66666666666666</ele><time>2026-04-28T08:06:26.999Z</time></trkpt><trkpt lat="44.7643192067589" lon="8.709760961274293"><ele>149.0</ele><time>2026-04-28T08:06:27.999Z</time></trkpt><trkpt lat="44.76418148535223" lon="8.709922758534407"><ele>149.0</ele><time>2026-04-28T08:06:28.999Z</time></trkpt><trkpt lat="44.76404088817556" lon="8.710093780917052"><ele>149.0</ele><time>2026-04-28T08:06:29.999Z</time></trkpt><trkpt lat="44.76389996172714" lon="8.71027810383769"><ele>149.0</ele><time>2026-04-28T08:06:30.999Z</time></trkpt><trkpt lat="44.763754619472486" lon="8.710469828083905"><ele>149.33333333333331</ele><time>2026-04-28T08:06:31.999Z</time></trkpt><trkpt lat="44.763609304307906" lon="8.710666568844825"><ele>149.66666666666666</ele><time>2026-04-28T08:06:32.999Z</time></trkpt><trkpt lat="44.76347626390867" lon="8.710848162949851"><ele>150.0</ele><time>2026-04-28T08:06:33.999Z</time></trkpt><trkpt lat="44.763351295739625" lon="8.711014868416427"><ele>150.0</ele><time>2026-04-28T08:06:34.999Z</time></trkpt><trkpt lat="44.76322980268539" lon="8.711170685285337"><ele>150.0</ele><time>2026-04-28T08:06:35.999Z</time></trkpt><trkpt lat="44.763111836771095" lon="8.711323182980784"><ele>150.0</ele><time>2026-04-28T08:06:36.999Z</time></trkpt><trkpt lat="44.76298997338877" lon="8.711473043537113"><ele>150.0</ele><time>2026-04-28T08:06:37.999Z</time></trkpt><trkpt lat="44.762851281534054" lon="8.711600421628424"><ele>150.0</ele><time>2026-04-28T08:06:38.999Z</time></trkpt><trkpt lat="44.762701089086846" lon="8.711711878008229"><ele>150.0</ele><time>2026-04-28T08:06:39.999Z</time></trkpt><trkpt lat="44.76253091201807" lon="8.711810641773098"><ele>149.66666666666666</ele><time>2026-04-28T08:06:40.999Z</time></trkpt><trkpt lat="44.76235535512081" lon="8.711898816839094"><ele>149.33333333333331</ele><time>2026-04-28T08:06:41.999Z</time></trkpt><trkpt lat="44.76219794080435" lon="8.712009910669252"><ele>149.0</ele><time>2026-04-28T08:06:42.999Z</time></trkpt><trkpt lat="44.762042953991376" lon="8.712167631314976"><ele>149.33333333333331</ele><time>2026-04-28T08:06:43.999Z</time></trkpt><trkpt lat="44.76187620754286" lon="8.71234821794663"><ele>149.66666666666666</ele><time>2026-04-28T08:06:44.999Z</time></trkpt><trkpt lat="44.76170619915927" lon="8.71254040226333"><ele>150.0</ele><time>2026-04-28T08:06:45.999Z</time></trkpt><trkpt lat="44.76155493021388" lon="8.71270426218711"><ele>150.33333333333334</ele><time>2026-04-28T08:06:46.999Z</time></trkpt><trkpt lat="44.76141220931903" lon="8.712851756235706"><ele>150.66666666666669</ele><time>2026-04-28T08:06:47.999Z</time></trkpt><trkpt lat="44.76127994177139" lon="8.71297003711722"><ele>151.0</ele><time>2026-04-28T08:06:48.999Z</time></trkpt><trkpt lat="44.76114050177241" lon="8.713067443903139"><ele>150.66666666666669</ele><time>2026-04-28T08:06:49.999Z</time></trkpt><trkpt lat="44.76099656904074" lon="8.7131466007537"><ele>150.33333333333334</ele><time>2026-04-28T08:06:50.999Z</time></trkpt><trkpt lat="44.76084668406022" lon="8.713212423475122"><ele>150.0</ele><time>2026-04-28T08:06:51.999Z</time></trkpt><trkpt lat="44.760690255344535" lon="8.713270011027596"><ele>150.0</ele><time>2026-04-28T08:06:52.999Z</time></trkpt><trkpt lat="44.76051897034223" lon="8.713333497436981"><ele>150.0</ele><time>2026-04-28T08:06:53.999Z</time></trkpt><trkpt lat="44.76034728635936" lon="8.713407356471274"><ele>150.0</ele><time>2026-04-28T08:06:54.999Z</time></trkpt><trkpt lat="44.76017892006645" lon="8.71350348658609"><ele>149.0</ele><time>2026-04-28T08:06:55.999Z</time></trkpt><trkpt lat="44.759998063421264" lon="8.71360732374871"><ele>148.0</ele><time>2026-04-28T08:06:56.999Z</time></trkpt><trkpt lat="44.75981537172266" lon="8.713722403729893"><ele>147.0</ele><time>2026-04-28T08:06:57.999Z</time></trkpt><trkpt lat="44.759625100732336" lon="8.713852793955626"><ele>147.0</ele><time>2026-04-28T08:06:58.999Z</time></trkpt><trkpt lat="44.759426179922556" lon="8.713982438966811"><ele>147.0</ele><time>2026-04-28T08:06:59.999Z</time></trkpt><trkpt lat="44.75921775248163" lon="8.714114809508752"><ele>147.0</ele><time>2026-04-28T08:07:00.999Z</time></trkpt><trkpt lat="44.759008150311494" lon="8.714256132287714"><ele>148.0</ele><time>2026-04-28T08:07:01.999Z</time></trkpt><trkpt lat="44.75878063047393" lon="8.71440151722211"><ele>149.0</ele><time>2026-04-28T08:07:02.999Z</time></trkpt><trkpt lat="44.758547160726714" lon="8.71455676319171"><ele>147.0</ele><time>2026-04-28T08:07:03.999Z</time></trkpt><trkpt lat="44.758309836277476" lon="8.714715423010416"><ele>145.0</ele><time>2026-04-28T08:07:04.999Z</time></trkpt><trkpt lat="44.75807037208529" lon="8.714874770915294"><ele>145.0</ele><time>2026-04-28T08:07:05.999Z</time></trkpt><trkpt lat="44.75783043833642" lon="8.71503932048764"><ele>145.0</ele><time>2026-04-28T08:07:06.999Z</time></trkpt><trkpt lat="44.75759410669298" lon="8.715193029776842"><ele>147.5</ele><time>2026-04-28T08:07:07.999Z</time></trkpt><trkpt lat="44.757360021197556" lon="8.715339334517859"><ele>150.0</ele><time>2026-04-28T08:07:08.999Z</time></trkpt><trkpt lat="44.75713539892673" lon="8.7154892503116"><ele>150.0</ele><time>2026-04-28T08:07:09.999Z</time></trkpt><trkpt lat="44.75691794546472" lon="8.715633269721387"><ele>150.0</ele><time>2026-04-28T08:07:10.999Z</time></trkpt><trkpt lat="44.756715118833206" lon="8.715765042619939"><ele>151.33333333333334</ele><time>2026-04-28T08:07:11.999Z</time></trkpt><trkpt lat="44.756518240647594" lon="8.715886105863696"><ele>152.66666666666669</ele><time>2026-04-28T08:07:12.999Z</time></trkpt><trkpt lat="44.75633875007508" lon="8.716001818040121"><ele>154.0</ele><time>2026-04-28T08:07:13.999Z</time></trkpt><trkpt lat="44.756165042301575" lon="8.716119583272782"><ele>151.33333333333334</ele><time>2026-04-28T08:07:15Z</time></trkpt><trkpt lat="44.75601543663107" lon="8.716232321276541"><ele>148.66666666666666</ele><time>2026-04-28T08:07:16Z</time></trkpt><trkpt lat="44.75588485667187" lon="8.716363797165137"><ele>146.0</ele><time>2026-04-28T08:07:17Z</time></trkpt><trkpt lat="44.755768941271505" lon="8.716533580770536"><ele>146.0</ele><time>2026-04-28T08:07:18Z</time></trkpt><trkpt lat="44.755658677348386" lon="8.716732318202093"><ele>146.0</ele><time>2026-04-28T08:07:19Z</time></trkpt><trkpt lat="44.75554574475271" lon="8.716946746184464"><ele>146.0</ele><time>2026-04-28T08:07:20Z</time></trkpt><trkpt lat="44.755421965594245" lon="8.717161703406056"><ele>145.66666666666666</ele><time>2026-04-28T08:07:21Z</time></trkpt><trkpt lat="44.75529138759483" lon="8.7173916889517"><ele>145.33333333333334</ele><time>2026-04-28T08:07:22Z</time></trkpt><trkpt lat="44.755161765995354" lon="8.717604980261182"><ele>145.0</ele><time>2026-04-28T08:07:23Z</time></trkpt><trkpt lat="44.75500975805524" lon="8.717808162290012"><ele>149.5</ele><time>2026-04-28T08:07:24Z</time></trkpt><trkpt lat="44.75483303851353" lon="8.71800671918048"><ele>154.0</ele><time>2026-04-28T08:07:25Z</time></trkpt><trkpt lat="44.754646732499275" lon="8.718207743512199"><ele>154.0</ele><time>2026-04-28T08:07:26Z</time></trkpt><trkpt lat="44.75447736197308" lon="8.718384505052748"><ele>154.0</ele><time>2026-04-28T08:07:27Z</time></trkpt><trkpt lat="44.75432158029885" lon="8.718553795649791"><ele>154.0</ele><time>2026-04-28T08:07:28Z</time></trkpt><trkpt lat="44.75417644801281" lon="8.718711040444315"><ele>154.0</ele><time>2026-04-28T08:07:29Z</time></trkpt><trkpt lat="44.75403093869178" lon="8.718865060698327"><ele>154.0</ele><time>2026-04-28T08:07:30Z</time></trkpt><trkpt lat="44.75389323419075" lon="8.71900997122757"><ele>154.0</ele><time>2026-04-28T08:07:31Z</time></trkpt><trkpt lat="44.75375440822992" lon="8.719156268306204"><ele>154.0</ele><time>2026-04-28T08:07:32Z</time></trkpt><trkpt lat="44.753617051145525" lon="8.719294874221552"><ele>154.0</ele><time>2026-04-28T08:07:33Z</time></trkpt><trkpt lat="44.75348135795038" lon="8.719433718253404"><ele>154.0</ele><time>2026-04-28T08:07:34Z</time></trkpt><trkpt lat="44.753350613540064" lon="8.71957284213639"><ele>153.33333333333334</ele><time>2026-04-28T08:07:35Z</time></trkpt><trkpt lat="44.75321520428406" lon="8.719699173846411"><ele>152.66666666666666</ele><time>2026-04-28T08:07:36Z</time></trkpt><trkpt lat="44.75308029535489" lon="8.719798408877804"><ele>152.0</ele><time>2026-04-28T08:07:37Z</time></trkpt><trkpt lat="44.752937672362044" lon="8.719859540968098"><ele>152.0</ele><time>2026-04-28T08:07:38Z</time></trkpt><trkpt lat="44.75278981584388" lon="8.719892398925444"><ele>152.0</ele><time>2026-04-28T08:07:39Z</time></trkpt><trkpt lat="44.75263733475035" lon="8.71991767671796"><ele>152.0</ele><time>2026-04-28T08:07:40Z</time></trkpt><trkpt lat="44.75248137007307" lon="8.71991706730278"><ele>149.66666666666666</ele><time>2026-04-28T08:07:41Z</time></trkpt><trkpt lat="44.752318102538176" lon="8.719919923613064"><ele>147.33333333333334</ele><time>2026-04-28T08:07:42Z</time></trkpt><trkpt lat="44.75214986770574" lon="8.719919989986716"><ele>145.0</ele><time>2026-04-28T08:07:43Z</time></trkpt><trkpt lat="44.751979182895326" lon="8.719915251891777"><ele>144.66666666666669</ele><time>2026-04-28T08:07:44Z</time></trkpt><trkpt lat="44.751808793058785" lon="8.719906920832186"><ele>144.33333333333334</ele><time>2026-04-28T08:07:45Z</time></trkpt><trkpt lat="44.75163196522985" lon="8.719900658548294"><ele>144.0</ele><time>2026-04-28T08:07:46Z</time></trkpt><trkpt lat="44.751458590862434" lon="8.719893478513166"><ele>144.0</ele><time>2026-04-28T08:07:47Z</time></trkpt><trkpt lat="44.751284443083804" lon="8.71987588962603"><ele>144.0</ele><time>2026-04-28T08:07:48Z</time></trkpt><trkpt lat="44.75111163586432" lon="8.719869205663393"><ele>144.0</ele><time>2026-04-28T08:07:49Z</time></trkpt><trkpt lat="44.75093771131914" lon="8.719867269887088"><ele>143.33333333333334</ele><time>2026-04-28T08:07:50Z</time></trkpt><trkpt lat="44.750756554446724" lon="8.719866288485521"><ele>142.66666666666669</ele><time>2026-04-28T08:07:51Z</time></trkpt><trkpt lat="44.750581933903135" lon="8.719858304258704"><ele>142.0</ele><time>2026-04-28T08:07:52Z</time></trkpt><trkpt lat="44.750401542621574" lon="8.719849931781964"><ele>142.0</ele><time>2026-04-28T08:07:53Z</time></trkpt><trkpt lat="44.75024001487643" lon="8.719847595159777"><ele>142.0</ele><time>2026-04-28T08:07:54Z</time></trkpt><trkpt lat="44.750085896445874" lon="8.719864621044573"><ele>142.0</ele><time>2026-04-28T08:07:55Z</time></trkpt><trkpt lat="44.74993189739759" lon="8.719908662776458"><ele>143.66666666666669</ele><time>2026-04-28T08:07:56Z</time></trkpt><trkpt lat="44.74977467740628" lon="8.719976939265802"><ele>145.33333333333334</ele><time>2026-04-28T08:07:57Z</time></trkpt><trkpt lat="44.74962355592971" lon="8.720072534488306"><ele>147.0</ele><time>2026-04-28T08:07:58Z</time></trkpt><trkpt lat="44.74947718715351" lon="8.720180723173625"><ele>148.33333333333334</ele><time>2026-04-28T08:07:59Z</time></trkpt><trkpt lat="44.749321749364" lon="8.720280921252911"><ele>149.66666666666669</ele><time>2026-04-28T08:08:00Z</time></trkpt><trkpt lat="44.74916992963944" lon="8.720388538762885"><ele>151.0</ele><time>2026-04-28T08:08:01Z</time></trkpt><trkpt lat="44.74905965690582" lon="8.720489165369697"><ele>151.0</ele><time>2026-04-28T08:08:02Z</time></trkpt><trkpt lat="44.74897011329737" lon="8.720615691097203"><ele>151.0</ele><time>2026-04-28T08:08:03Z</time></trkpt><trkpt lat="44.748880495921114" lon="8.7207558159743"><ele>151.0</ele><time>2026-04-28T08:08:04Z</time></trkpt><trkpt lat="44.74878464729308" lon="8.720871878196565"><ele>151.0</ele><time>2026-04-28T08:08:05Z</time></trkpt><trkpt lat="44.748668088135105" lon="8.720969501060663"><ele>150.25</ele><time>2026-04-28T08:08:06Z</time></trkpt><trkpt lat="44.748535441427" lon="8.721036011956992"><ele>149.5</ele><time>2026-04-28T08:08:07Z</time></trkpt><trkpt lat="44.74839162964022" lon="8.721075007844522"><ele>148.75</ele><time>2026-04-28T08:08:08Z</time></trkpt><trkpt lat="44.748235836206725" lon="8.721111477656747"><ele>148.0</ele><time>2026-04-28T08:08:09Z</time></trkpt><trkpt lat="44.748060889858145" lon="8.72116432657915"><ele>149.66666666666669</ele><time>2026-04-28T08:08:09.999Z</time></trkpt><trkpt lat="44.74787541106685" lon="8.721226622421757"><ele>151.33333333333334</ele><time>2026-04-28T08:08:10.999Z</time></trkpt><trkpt lat="44.747672059274045" lon="8.721292393496652"><ele>153.0</ele><time>2026-04-28T08:08:11.999Z</time></trkpt><trkpt lat="44.747453858386145" lon="8.721361610701043"><ele>153.0</ele><time>2026-04-28T08:08:12.999Z</time></trkpt><trkpt lat="44.747225209261664" lon="8.721437451254115"><ele>153.0</ele><time>2026-04-28T08:08:13.999Z</time></trkpt><trkpt lat="44.74699999593455" lon="8.7215115741548"><ele>151.0</ele><time>2026-04-28T08:08:14.999Z</time></trkpt><trkpt lat="44.74676865911819" lon="8.721589788163522"><ele>149.0</ele><time>2026-04-28T08:08:15.999Z</time></trkpt><trkpt lat="44.74655503198037" lon="8.721665944211278"><ele>149.0</ele><time>2026-04-28T08:08:16.999Z</time></trkpt><trkpt lat="44.746363572693966" lon="8.721736822261818"><ele>149.0</ele><time>2026-04-28T08:08:17.999Z</time></trkpt><trkpt lat="44.74618750564394" lon="8.721800641172333"><ele>149.0</ele><time>2026-04-28T08:08:18.999Z</time></trkpt><trkpt lat="44.74602870632093" lon="8.721880388662864"><ele>149.66666666666666</ele><time>2026-04-28T08:08:19.999Z</time></trkpt><trkpt lat="44.74587532605458" lon="8.721985367534577"><ele>150.33333333333334</ele><time>2026-04-28T08:08:20.999Z</time></trkpt><trkpt lat="44.74571102314808" lon="8.722120531650356"><ele>151.0</ele><time>2026-04-28T08:08:21.999Z</time></trkpt><trkpt lat="44.745546402150055" lon="8.722270136591925"><ele>151.0</ele><time>2026-04-28T08:08:22.999Z</time></trkpt><trkpt lat="44.745377825353145" lon="8.722424723371484"><ele>151.0</ele><time>2026-04-28T08:08:23.999Z</time></trkpt><trkpt lat="44.74519927469171" lon="8.72259283590076"><ele>151.0</ele><time>2026-04-28T08:08:24.999Z</time></trkpt><trkpt lat="44.745005438306904" lon="8.722767337180363"><ele>150.0</ele><time>2026-04-28T08:08:25.999Z</time></trkpt><trkpt lat="44.74479771464377" lon="8.722956234548198"><ele>149.0</ele><time>2026-04-28T08:08:26.999Z</time></trkpt><trkpt lat="44.74457874440741" lon="8.72315801513837"><ele>149.5</ele><time>2026-04-28T08:08:27.999Z</time></trkpt><trkpt lat="44.74434530071915" lon="8.723381035664074"><ele>150.0</ele><time>2026-04-28T08:08:28.999Z</time></trkpt><trkpt lat="44.74409611796321" lon="8.723607665726538"><ele>150.0</ele><time>2026-04-28T08:08:29.999Z</time></trkpt><trkpt lat="44.74383116055886" lon="8.723839840430605"><ele>150.0</ele><time>2026-04-28T08:08:30.999Z</time></trkpt><trkpt lat="44.74355973266685" lon="8.724087297731986"><ele>151.0</ele><time>2026-04-28T08:08:31.999Z</time></trkpt><trkpt lat="44.7432811282519" lon="8.724343346247169"><ele>152.0</ele><time>2026-04-28T08:08:32.999Z</time></trkpt><trkpt lat="44.74300829941984" lon="8.724588962480587"><ele>152.0</ele><time>2026-04-28T08:08:33.999Z</time></trkpt><trkpt lat="44.742764475405785" lon="8.724815088002686"><ele>152.0</ele><time>2026-04-28T08:08:34.999Z</time></trkpt><trkpt lat="44.74253514345889" lon="8.72502612189437"><ele>152.0</ele><time>2026-04-28T08:08:35.999Z</time></trkpt><trkpt lat="44.742310935796795" lon="8.725228820783366"><ele>152.0</ele><time>2026-04-28T08:08:36.999Z</time></trkpt><trkpt lat="44.742094029630344" lon="8.725428561640594"><ele>152.5</ele><time>2026-04-28T08:08:37.999Z</time></trkpt><trkpt lat="44.741888533043365" lon="8.725617637370446"><ele>153.0</ele><time>2026-04-28T08:08:38.999Z</time></trkpt><trkpt lat="44.74167977189162" lon="8.725803052895895"><ele>153.0</ele><time>2026-04-28T08:08:39.999Z</time></trkpt><trkpt lat="44.74147539192664" lon="8.72599623374"><ele>153.0</ele><time>2026-04-28T08:08:40.999Z</time></trkpt><trkpt lat="44.741275433380444" lon="8.726173851391888"><ele>154.0</ele><time>2026-04-28T08:08:41.999Z</time></trkpt><trkpt lat="44.7410754055234" lon="8.726352617709281"><ele>155.0</ele><time>2026-04-28T08:08:42.999Z</time></trkpt><trkpt lat="44.74087998228266" lon="8.72653728742088"><ele>155.0</ele><time>2026-04-28T08:08:43.999Z</time></trkpt><trkpt lat="44.740683179911336" lon="8.726716178578142"><ele>155.0</ele><time>2026-04-28T08:08:44.999Z</time></trkpt><trkpt lat="44.740496680458435" lon="8.726880475302018"><ele>155.0</ele><time>2026-04-28T08:08:45.999Z</time></trkpt><trkpt lat="44.74031623932842" lon="8.727047417079772"><ele>155.0</ele><time>2026-04-28T08:08:46.999Z</time></trkpt><trkpt lat="44.74013932960554" lon="8.727207669862512"><ele>155.0</ele><time>2026-04-28T08:08:47.999Z</time></trkpt><trkpt lat="44.73996499083333" lon="8.727367614420723"><ele>155.0</ele><time>2026-04-28T08:08:48.999Z</time></trkpt><trkpt lat="44.73978856468492" lon="8.727530394718029"><ele>155.0</ele><time>2026-04-28T08:08:49.999Z</time></trkpt><trkpt lat="44.73960582396404" lon="8.727698398514208"><ele>155.0</ele><time>2026-04-28T08:08:50.999Z</time></trkpt><trkpt lat="44.739410078705724" lon="8.72787856054677"><ele>156.5</ele><time>2026-04-28T08:08:51.999Z</time></trkpt><trkpt lat="44.73920659520409" lon="8.728065299624694"><ele>158.0</ele><time>2026-04-28T08:08:52.999Z</time></trkpt><trkpt lat="44.739010998541914" lon="8.728245917827591"><ele>158.0</ele><time>2026-04-28T08:08:53.999Z</time></trkpt><trkpt lat="44.73882354880243" lon="8.728422893676308"><ele>158.0</ele><time>2026-04-28T08:08:54.999Z</time></trkpt><trkpt lat="44.738651136851594" lon="8.728588410589238"><ele>158.0</ele><time>2026-04-28T08:08:55.999Z</time></trkpt><trkpt lat="44.738477561339025" lon="8.7287485628638"><ele>160.0</ele><time>2026-04-28T08:08:56.999Z</time></trkpt><trkpt lat="44.73830997162419" lon="8.728900799895193"><ele>162.0</ele><time>2026-04-28T08:08:57.999Z</time></trkpt><trkpt lat="44.73814844583961" lon="8.729046522000893"><ele>164.0</ele><time>2026-04-28T08:08:58.999Z</time></trkpt><trkpt lat="44.73799614806571" lon="8.729184233797223"><ele>164.0</ele><time>2026-04-28T08:08:59.999Z</time></trkpt><trkpt lat="44.73785412323607" lon="8.72931543473797"><ele>164.0</ele><time>2026-04-28T08:09:00.999Z</time></trkpt><trkpt lat="44.737696961460465" lon="8.72945705496833"><ele>164.0</ele><time>2026-04-28T08:09:01.999Z</time></trkpt><trkpt lat="44.737537566622706" lon="8.729599489796309"><ele>164.0</ele><time>2026-04-28T08:09:02.999Z</time></trkpt><trkpt lat="44.737381976208056" lon="8.729741396906649"><ele>164.0</ele><time>2026-04-28T08:09:03.999Z</time></trkpt><trkpt lat="44.73722736282169" lon="8.72988261194881"><ele>164.0</ele><time>2026-04-28T08:09:04.999Z</time></trkpt><trkpt lat="44.737075055682325" lon="8.730014705609822"><ele>164.0</ele><time>2026-04-28T08:09:05.999Z</time></trkpt><trkpt lat="44.73692847493053" lon="8.730151517612056"><ele>164.0</ele><time>2026-04-28T08:09:06.999Z</time></trkpt><trkpt lat="44.73678468737537" lon="8.730282134035077"><ele>164.0</ele><time>2026-04-28T08:09:07.999Z</time></trkpt><trkpt lat="44.736643176022" lon="8.730410962941795"><ele>164.0</ele><time>2026-04-28T08:09:08.999Z</time></trkpt><trkpt lat="44.736514003733376" lon="8.730529467188614"><ele>164.0</ele><time>2026-04-28T08:09:09.999Z</time></trkpt><trkpt lat="44.7363922645682" lon="8.730644625966292"><ele>164.0</ele><time>2026-04-28T08:09:10.999Z</time></trkpt><trkpt lat="44.73627635676142" lon="8.730751913949733"><ele>164.0</ele><time>2026-04-28T08:09:11.999Z</time></trkpt><trkpt lat="44.736164626595354" lon="8.730854522155482"><ele>164.0</ele><time>2026-04-28T08:09:12.999Z</time></trkpt><trkpt lat="44.73605270211709" lon="8.730959937072777"><ele>164.0</ele><time>2026-04-28T08:09:13.999Z</time></trkpt><trkpt lat="44.73593725914945" lon="8.731063869779062"><ele>164.0</ele><time>2026-04-28T08:09:14.999Z</time></trkpt><trkpt lat="44.73583238104032" lon="8.731167086743687"><ele>164.0</ele><time>2026-04-28T08:09:15.999Z</time></trkpt><trkpt lat="44.735748395962176" lon="8.731243332860723"><ele>164.2</ele><time>2026-04-28T08:09:16.999Z</time></trkpt><trkpt lat="44.73568102042259" lon="8.731296821830018"><ele>164.39999999999998</ele><time>2026-04-28T08:09:17.999Z</time></trkpt><trkpt lat="44.735573943156425" lon="8.731383465334979"><ele>164.6</ele><time>2026-04-28T08:09:19.999Z</time></trkpt><trkpt lat="44.73551433011232" lon="8.73144031606324"><ele>164.8</ele><time>2026-04-28T08:09:21Z</time></trkpt><trkpt lat="44.73542977122202" lon="8.731520299114225"><ele>165.0</ele><time>2026-04-28T08:09:22Z</time></trkpt><trkpt lat="44.73534918676171" lon="8.731601145832824"><ele>165.0</ele><time>2026-04-28T08:09:23Z</time></trkpt><trkpt lat="44.73523874599594" lon="8.731699021293466"><ele>165.0</ele><time>2026-04-28T08:09:24Z</time></trkpt><trkpt lat="44.73512131789471" lon="8.731799590916923"><ele>165.0</ele><time>2026-04-28T08:09:25Z</time></trkpt><trkpt lat="44.73500012219037" lon="8.731910383605776"><ele>165.0</ele><time>2026-04-28T08:09:26Z</time></trkpt><trkpt lat="44.73487545621833" lon="8.73202964089371"><ele>165.33333333333334</ele><time>2026-04-28T08:09:27Z</time></trkpt><trkpt lat="44.73474213205176" lon="8.732147114085597"><ele>165.66666666666669</ele><time>2026-04-28T08:09:28Z</time></trkpt><trkpt lat="44.73461115323317" lon="8.732258805148277"><ele>166.0</ele><time>2026-04-28T08:09:29Z</time></trkpt><trkpt lat="44.734486510559655" lon="8.732377678413174"><ele>166.20000000000002</ele><time>2026-04-28T08:09:30Z</time></trkpt><trkpt lat="44.734365097197085" lon="8.732488387212124"><ele>166.4</ele><time>2026-04-28T08:09:31Z</time></trkpt><trkpt lat="44.734268750757586" lon="8.732581892670483"><ele>166.6</ele><time>2026-04-28T08:09:32Z</time></trkpt><trkpt lat="44.7341855237502" lon="8.732657449435417"><ele>166.8</ele><time>2026-04-28T08:09:33Z</time></trkpt><trkpt lat="44.73411792345715" lon="8.732718725739833"><ele>167.0</ele><time>2026-04-28T08:09:34Z</time></trkpt><trkpt lat="44.73404960761317" lon="8.732783718816744"><ele>168.25</ele><time>2026-04-28T08:09:35Z</time></trkpt><trkpt lat="44.733970646760376" lon="8.732864913870305"><ele>169.5</ele><time>2026-04-28T08:09:36Z</time></trkpt><trkpt lat="44.733875978742205" lon="8.73295951186793"><ele>170.75</ele><time>2026-04-28T08:09:37Z</time></trkpt><trkpt lat="44.733767599078206" lon="8.733064056623157"><ele>172.0</ele><time>2026-04-28T08:09:38Z</time></trkpt><trkpt lat="44.733656173022695" lon="8.733166528259435"><ele>171.75</ele><time>2026-04-28T08:09:39Z</time></trkpt><trkpt lat="44.7335384419841" lon="8.733278001480967"><ele>171.5</ele><time>2026-04-28T08:09:40Z</time></trkpt><trkpt lat="44.73342218478258" lon="8.733384575529689"><ele>171.25</ele><time>2026-04-28T08:09:41Z</time></trkpt><trkpt lat="44.73330789285695" lon="8.73349015939553"><ele>171.0</ele><time>2026-04-28T08:09:42Z</time></trkpt><trkpt lat="44.73317987324383" lon="8.733562603770924"><ele>171.0</ele><time>2026-04-28T08:09:43Z</time></trkpt><trkpt lat="44.733046800723244" lon="8.733622079223045"><ele>171.0</ele><time>2026-04-28T08:09:44Z</time></trkpt><trkpt lat="44.73291866222425" lon="8.7337004387849"><ele>171.0</ele><time>2026-04-28T08:09:45Z</time></trkpt><trkpt lat="44.732799612235645" lon="8.73378295773712"><ele>171.0</ele><time>2026-04-28T08:09:46Z</time></trkpt><trkpt lat="44.7326746409832" lon="8.733903071991378"><ele>168.33333333333334</ele><time>2026-04-28T08:09:47Z</time></trkpt><trkpt lat="44.73254621046203" lon="8.734036616033169"><ele>165.66666666666669</ele><time>2026-04-28T08:09:48Z</time></trkpt><trkpt lat="44.73243903197544" lon="8.734170108425607"><ele>163.0</ele><time>2026-04-28T08:09:49Z</time></trkpt><trkpt lat="44.73233317938536" lon="8.73431422482906"><ele>167.66666666666669</ele><time>2026-04-28T08:09:50Z</time></trkpt><trkpt lat="44.73221878032748" lon="8.734477183850549"><ele>172.33333333333334</ele><time>2026-04-28T08:09:51Z</time></trkpt><trkpt lat="44.73210144063873" lon="8.734617289429579"><ele>177.0</ele><time>2026-04-28T08:09:52Z</time></trkpt><trkpt lat="44.731987815220535" lon="8.734735426805608"><ele>174.0</ele><time>2026-04-28T08:09:53Z</time></trkpt><trkpt lat="44.731880148575804" lon="8.734825755892432"><ele>171.0</ele><time>2026-04-28T08:09:54Z</time></trkpt><trkpt lat="44.73180126485594" lon="8.734900757218083"><ele>168.0</ele><time>2026-04-28T08:09:55Z</time></trkpt><trkpt lat="44.731706582921966" lon="8.734943594582166"><ele>165.0</ele><time>2026-04-28T08:09:56Z</time></trkpt><trkpt lat="44.731586124646086" lon="8.735015311626507"><ele>165.0</ele><time>2026-04-28T08:09:57Z</time></trkpt><trkpt lat="44.73147817866549" lon="8.735067613751214"><ele>165.0</ele><time>2026-04-28T08:09:58Z</time></trkpt><trkpt lat="44.731377180864634" lon="8.735115571750567"><ele>165.0</ele><time>2026-04-28T08:09:59Z</time></trkpt><trkpt lat="44.731263144640124" lon="8.735157843520684"><ele>165.0</ele><time>2026-04-28T08:10:00Z</time></trkpt><trkpt lat="44.731118004616796" lon="8.735186722370731"><ele>164.25</ele><time>2026-04-28T08:10:01Z</time></trkpt><trkpt lat="44.730982376582084" lon="8.735200192349735"><ele>163.5</ele><time>2026-04-28T08:10:02Z</time></trkpt><trkpt lat="44.73086495506014" lon="8.73522819646455"><ele>162.75</ele><time>2026-04-28T08:10:03Z</time></trkpt><trkpt lat="44.730746907326356" lon="8.735291411442914"><ele>162.0</ele><time>2026-04-28T08:10:04Z</time></trkpt><trkpt lat="44.73063081701637" lon="8.735376269775122"><ele>165.66666666666666</ele><time>2026-04-28T08:10:05Z</time></trkpt><trkpt lat="44.73051896810235" lon="8.735500199641958"><ele>169.33333333333331</ele><time>2026-04-28T08:10:06Z</time></trkpt><trkpt lat="44.730400655550184" lon="8.735658312472468"><ele>173.0</ele><time>2026-04-28T08:10:07Z</time></trkpt><trkpt lat="44.73026369408523" lon="8.735835303418488"><ele>173.0</ele><time>2026-04-28T08:10:08Z</time></trkpt><trkpt lat="44.73011728608117" lon="8.736026048804916"><ele>173.0</ele><time>2026-04-28T08:10:09Z</time></trkpt><trkpt lat="44.72996610287266" lon="8.736214654708379"><ele>173.0</ele><time>2026-04-28T08:10:10Z</time></trkpt><trkpt lat="44.729818579642384" lon="8.736385834365874"><ele>173.0</ele><time>2026-04-28T08:10:11Z</time></trkpt><trkpt lat="44.72967733615129" lon="8.73654473130123"><ele>173.0</ele><time>2026-04-28T08:10:12Z</time></trkpt><trkpt lat="44.72954613169629" lon="8.736683746823301"><ele>173.0</ele><time>2026-04-28T08:10:13Z</time></trkpt><trkpt lat="44.72941886221701" lon="8.736814730080704"><ele>172.75</ele><time>2026-04-28T08:10:14Z</time></trkpt><trkpt lat="44.72929702297027" lon="8.73693135236348"><ele>172.5</ele><time>2026-04-28T08:10:15Z</time></trkpt><trkpt lat="44.72917838778749" lon="8.737043608957036"><ele>172.25</ele><time>2026-04-28T08:10:16Z</time></trkpt><trkpt lat="44.72906655723303" lon="8.737153642551531"><ele>172.0</ele><time>2026-04-28T08:10:17Z</time></trkpt><trkpt lat="44.728961639074974" lon="8.737257193848372"><ele>172.0</ele><time>2026-04-28T08:10:17.999Z</time></trkpt><trkpt lat="44.72884823637078" lon="8.737366036401124"><ele>172.0</ele><time>2026-04-28T08:10:18.999Z</time></trkpt><trkpt lat="44.7287092907955" lon="8.737483849116817"><ele>172.0</ele><time>2026-04-28T08:10:19.999Z</time></trkpt><trkpt lat="44.72855001697498" lon="8.737600193709431"><ele>168.66666666666669</ele><time>2026-04-28T08:10:20.999Z</time></trkpt><trkpt lat="44.72837449108649" lon="8.73772194738456"><ele>165.33333333333334</ele><time>2026-04-28T08:10:21.999Z</time></trkpt><trkpt lat="44.728182082893696" lon="8.737842193769513"><ele>162.0</ele><time>2026-04-28T08:10:22.999Z</time></trkpt><trkpt lat="44.72798357622712" lon="8.737965249631925"><ele>162.0</ele><time>2026-04-28T08:10:23.999Z</time></trkpt><trkpt lat="44.72778214456774" lon="8.738099090813781"><ele>162.0</ele><time>2026-04-28T08:10:24.999Z</time></trkpt><trkpt lat="44.727570634573276" lon="8.738236051528752"><ele>161.5</ele><time>2026-04-28T08:10:25.999Z</time></trkpt><trkpt lat="44.72734244734745" lon="8.738381380393616"><ele>161.0</ele><time>2026-04-28T08:10:26.999Z</time></trkpt><trkpt lat="44.727114028596866" lon="8.73852550788991"><ele>160.5</ele><time>2026-04-28T08:10:27.999Z</time></trkpt><trkpt lat="44.7268773838615" lon="8.738674294549195"><ele>160.0</ele><time>2026-04-28T08:10:28.999Z</time></trkpt><trkpt lat="44.72663629259756" lon="8.738831727254633"><ele>160.0</ele><time>2026-04-28T08:10:29.999Z</time></trkpt><trkpt lat="44.72639639241307" lon="8.738995749822507"><ele>160.0</ele><time>2026-04-28T08:10:30.999Z</time></trkpt><trkpt lat="44.72615018081784" lon="8.739165942290496"><ele>160.5</ele><time>2026-04-28T08:10:31.999Z</time></trkpt><trkpt lat="44.72589672180049" lon="8.739330857792023"><ele>161.0</ele><time>2026-04-28T08:10:32.999Z</time></trkpt><trkpt lat="44.725656853297544" lon="8.73949547316098"><ele>161.0</ele><time>2026-04-28T08:10:33.999Z</time></trkpt><trkpt lat="44.72542497389931" lon="8.739645802407322"><ele>161.0</ele><time>2026-04-28T08:10:34.999Z</time></trkpt><trkpt lat="44.725197079999" lon="8.739792184024335"><ele>161.5</ele><time>2026-04-28T08:10:35.999Z</time></trkpt><trkpt lat="44.72497460560164" lon="8.739946427123932"><ele>162.0</ele><time>2026-04-28T08:10:36.999Z</time></trkpt><trkpt lat="44.724742237660344" lon="8.740096439835119"><ele>162.0</ele><time>2026-04-28T08:10:37.999Z</time></trkpt><trkpt lat="44.72449665902342" lon="8.740260145363973"><ele>162.0</ele><time>2026-04-28T08:10:38.999Z</time></trkpt><trkpt lat="44.724240340507016" lon="8.740430551242726"><ele>162.0</ele><time>2026-04-28T08:10:39.999Z</time></trkpt><trkpt lat="44.723969109747195" lon="8.740608756569086"><ele>162.0</ele><time>2026-04-28T08:10:40.999Z</time></trkpt><trkpt lat="44.72371501953901" lon="8.740776455872764"><ele>162.0</ele><time>2026-04-28T08:10:41.999Z</time></trkpt><trkpt lat="44.72347560591228" lon="8.740931825636487"><ele>162.0</ele><time>2026-04-28T08:10:42.999Z</time></trkpt><trkpt lat="44.72324467791144" lon="8.741082374488457"><ele>162.0</ele><time>2026-04-28T08:10:43.999Z</time></trkpt><trkpt lat="44.72301804261945" lon="8.741231023945332"><ele>162.0</ele><time>2026-04-28T08:10:44.999Z</time></trkpt><trkpt lat="44.722790577401554" lon="8.74137359965987"><ele>162.5</ele><time>2026-04-28T08:10:45.999Z</time></trkpt><trkpt lat="44.722569646176254" lon="8.741516231707363"><ele>163.0</ele><time>2026-04-28T08:10:46.999Z</time></trkpt><trkpt lat="44.72235429073389" lon="8.741658220708896"><ele>163.0</ele><time>2026-04-28T08:10:47.999Z</time></trkpt><trkpt lat="44.72214790261851" lon="8.741796837851338"><ele>163.0</ele><time>2026-04-28T08:10:48.999Z</time></trkpt><trkpt lat="44.72195451803202" lon="8.741923862969367"><ele>163.0</ele><time>2026-04-28T08:10:49.999Z</time></trkpt><trkpt lat="44.72176828915791" lon="8.742045652081636"><ele>164.33333333333334</ele><time>2026-04-28T08:10:50.999Z</time></trkpt><trkpt lat="44.72159582249615" lon="8.742157544517783"><ele>165.66666666666666</ele><time>2026-04-28T08:10:51.999Z</time></trkpt><trkpt lat="44.721430571917786" lon="8.742282315144134"><ele>167.0</ele><time>2026-04-28T08:10:52.999Z</time></trkpt><trkpt lat="44.72125395947775" lon="8.742388652444001"><ele>167.0</ele><time>2026-04-28T08:10:53.999Z</time></trkpt><trkpt lat="44.721103457534" lon="8.742590482016624"><ele>167.0</ele><time>2026-04-28T08:10:54.999Z</time></trkpt><trkpt lat="44.72093449864586" lon="8.742769023040838"><ele>167.0</ele><time>2026-04-28T08:10:55.999Z</time></trkpt><trkpt lat="44.7207569319436" lon="8.742956055111813"><ele>168.0</ele><time>2026-04-28T08:10:56.999Z</time></trkpt><trkpt lat="44.720566484227746" lon="8.743157719501212"><ele>169.0</ele><time>2026-04-28T08:10:57.999Z</time></trkpt><trkpt lat="44.72036622871276" lon="8.743373521912435"><ele>168.5</ele><time>2026-04-28T08:10:58.999Z</time></trkpt><trkpt lat="44.72015584917683" lon="8.743604466241933"><ele>168.0</ele><time>2026-04-28T08:10:59.999Z</time></trkpt><trkpt lat="44.71993188990329" lon="8.743843789425998"><ele>168.0</ele><time>2026-04-28T08:11:00.999Z</time></trkpt><trkpt lat="44.71969381680563" lon="8.74409813677128"><ele>168.0</ele><time>2026-04-28T08:11:01.999Z</time></trkpt><trkpt lat="44.719442504263334" lon="8.744369621494645"><ele>169.5</ele><time>2026-04-28T08:11:02.999Z</time></trkpt><trkpt lat="44.71918078041282" lon="8.744648510463886"><ele>171.0</ele><time>2026-04-28T08:11:03.999Z</time></trkpt><trkpt lat="44.718911244032455" lon="8.74493669059695"><ele>170.0</ele><time>2026-04-28T08:11:04.999Z</time></trkpt><trkpt lat="44.71863445544064" lon="8.745235125795881"><ele>169.0</ele><time>2026-04-28T08:11:05.999Z</time></trkpt><trkpt lat="44.71835148893022" lon="8.74554327947686"><ele>169.0</ele><time>2026-04-28T08:11:06.999Z</time></trkpt><trkpt lat="44.718077543798316" lon="8.745843743482244"><ele>169.0</ele><time>2026-04-28T08:11:07.999Z</time></trkpt><trkpt lat="44.71782899713997" lon="8.746112495021618"><ele>168.0</ele><time>2026-04-28T08:11:08.999Z</time></trkpt><trkpt lat="44.71759540183215" lon="8.746359210464684"><ele>167.0</ele><time>2026-04-28T08:11:09.999Z</time></trkpt><trkpt lat="44.7173772930668" lon="8.746595366798385"><ele>167.0</ele><time>2026-04-28T08:11:10.999Z</time></trkpt><trkpt lat="44.717169662926835" lon="8.746817245635349"><ele>167.0</ele><time>2026-04-28T08:11:11.999Z</time></trkpt><trkpt lat="44.716977438875205" lon="8.747024074378244"><ele>166.0</ele><time>2026-04-28T08:11:12.999Z</time></trkpt><trkpt lat="44.71679728277945" lon="8.747216136823083"><ele>165.0</ele><time>2026-04-28T08:11:13.999Z</time></trkpt><trkpt lat="44.71662426604736" lon="8.747403873445434"><ele>164.0</ele><time>2026-04-28T08:11:14.999Z</time></trkpt><trkpt lat="44.71645600378435" lon="8.747581637617843"><ele>165.0</ele><time>2026-04-28T08:11:15.999Z</time></trkpt><trkpt lat="44.71628270263954" lon="8.747762407848938"><ele>166.0</ele><time>2026-04-28T08:11:16.999Z</time></trkpt><trkpt lat="44.71611846160687" lon="8.747940598258905"><ele>167.0</ele><time>2026-04-28T08:11:17.999Z</time></trkpt><trkpt lat="44.7159639678341" lon="8.748106195609203"><ele>167.0</ele><time>2026-04-28T08:11:18.999Z</time></trkpt><trkpt lat="44.71581611519827" lon="8.748259481950178"><ele>167.0</ele><time>2026-04-28T08:11:19.999Z</time></trkpt><trkpt lat="44.71567550010091" lon="8.74840280353613"><ele>167.0</ele><time>2026-04-28T08:11:20.999Z</time></trkpt><trkpt lat="44.715538569273015" lon="8.748528726553056"><ele>167.66666666666666</ele><time>2026-04-28T08:11:21.999Z</time></trkpt><trkpt lat="44.71540153676269" lon="8.748638633970918"><ele>168.33333333333334</ele><time>2026-04-28T08:11:22.999Z</time></trkpt><trkpt lat="44.71525768671008" lon="8.748743539462138"><ele>169.0</ele><time>2026-04-28T08:11:23.999Z</time></trkpt><trkpt lat="44.71510796511017" lon="8.748849785453148"><ele>169.0</ele><time>2026-04-28T08:11:24.999Z</time></trkpt><trkpt lat="44.71495188365621" lon="8.748957849035882"><ele>169.0</ele><time>2026-04-28T08:11:25.999Z</time></trkpt><trkpt lat="44.714767346589284" lon="8.749060369582738"><ele>169.0</ele><time>2026-04-28T08:11:27Z</time></trkpt><trkpt lat="44.71456941038729" lon="8.749148718039322"><ele>169.0</ele><time>2026-04-28T08:11:28Z</time></trkpt><trkpt lat="44.714390166664344" lon="8.749235264497642"><ele>169.0</ele><time>2026-04-28T08:11:29Z</time></trkpt><trkpt lat="44.71421949452977" lon="8.749313992816223"><ele>169.0</ele><time>2026-04-28T08:11:30Z</time></trkpt><trkpt lat="44.71405394972028" lon="8.749398290829777"><ele>169.66666666666669</ele><time>2026-04-28T08:11:31Z</time></trkpt><trkpt lat="44.71388799706096" lon="8.749485589244529"><ele>170.33333333333334</ele><time>2026-04-28T08:11:32Z</time></trkpt><trkpt lat="44.713726101412895" lon="8.749568859488797"><ele>171.0</ele><time>2026-04-28T08:11:33Z</time></trkpt><trkpt lat="44.713565152592565" lon="8.749653452845545"><ele>171.0</ele><time>2026-04-28T08:11:34Z</time></trkpt><trkpt lat="44.71340586722507" lon="8.749741256030813"><ele>171.0</ele><time>2026-04-28T08:11:35Z</time></trkpt><trkpt lat="44.713247186317794" lon="8.749834453722004"><ele>171.0</ele><time>2026-04-28T08:11:36Z</time></trkpt><trkpt lat="44.7130927683227" lon="8.749941727445055"><ele>171.0</ele><time>2026-04-28T08:11:37Z</time></trkpt><trkpt lat="44.71293690922916" lon="8.750040085095813"><ele>171.0</ele><time>2026-04-28T08:11:38Z</time></trkpt><trkpt lat="44.71278069490395" lon="8.750132117411784"><ele>171.0</ele><time>2026-04-28T08:11:39Z</time></trkpt><trkpt lat="44.7126227123626" lon="8.750225027382326"><ele>173.33333333333334</ele><time>2026-04-28T08:11:40Z</time></trkpt><trkpt lat="44.71246031470395" lon="8.750324536366692"><ele>175.66666666666669</ele><time>2026-04-28T08:11:41Z</time></trkpt><trkpt lat="44.71229738124076" lon="8.750424773801345"><ele>178.0</ele><time>2026-04-28T08:11:42Z</time></trkpt><trkpt lat="44.71213488547058" lon="8.75051575020127"><ele>178.0</ele><time>2026-04-28T08:11:43Z</time></trkpt><trkpt lat="44.71197203254492" lon="8.750606527194314"><ele>178.0</ele><time>2026-04-28T08:11:44Z</time></trkpt><trkpt lat="44.71180215454307" lon="8.750672606088026"><ele>178.0</ele><time>2026-04-28T08:11:45Z</time></trkpt><trkpt lat="44.711618996198446" lon="8.750706559929439"><ele>178.0</ele><time>2026-04-28T08:11:46Z</time></trkpt><trkpt lat="44.711432122003934" lon="8.750743218304393"><ele>178.0</ele><time>2026-04-28T08:11:47Z</time></trkpt><trkpt lat="44.71125303779952" lon="8.750797408293666"><ele>178.0</ele><time>2026-04-28T08:11:48Z</time></trkpt><trkpt lat="44.711089455124636" lon="8.750854925544115"><ele>177.0</ele><time>2026-04-28T08:11:49Z</time></trkpt><trkpt lat="44.71093341737271" lon="8.750941765675924"><ele>176.0</ele><time>2026-04-28T08:11:50Z</time></trkpt><trkpt lat="44.710774349967295" lon="8.751070403134547"><ele>175.0</ele><time>2026-04-28T08:11:51Z</time></trkpt><trkpt lat="44.710611362934934" lon="8.751207702774122"><ele>176.33333333333334</ele><time>2026-04-28T08:11:52Z</time></trkpt><trkpt lat="44.71045380827326" lon="8.751344497485677"><ele>177.66666666666666</ele><time>2026-04-28T08:11:53Z</time></trkpt><trkpt lat="44.7102878640909" lon="8.751457709629602"><ele>179.0</ele><time>2026-04-28T08:11:54Z</time></trkpt><trkpt lat="44.71012312025629" lon="8.751562946036087"><ele>179.0</ele><time>2026-04-28T08:11:55Z</time></trkpt><trkpt lat="44.70995624796523" lon="8.751666688401658"><ele>179.0</ele><time>2026-04-28T08:11:56Z</time></trkpt><trkpt lat="44.709781647935124" lon="8.75175955041817"><ele>179.0</ele><time>2026-04-28T08:11:57Z</time></trkpt><trkpt lat="44.70960335470803" lon="8.751839411662237"><ele>181.33333333333331</ele><time>2026-04-28T08:11:58Z</time></trkpt><trkpt lat="44.709425518735266" lon="8.751915891230611"><ele>183.66666666666666</ele><time>2026-04-28T08:11:59Z</time></trkpt><trkpt lat="44.7092501309523" lon="8.752001621641424"><ele>186.0</ele><time>2026-04-28T08:12:00Z</time></trkpt><trkpt lat="44.70907800769158" lon="8.752094595393096"><ele>186.0</ele><time>2026-04-28T08:12:01Z</time></trkpt><trkpt lat="44.708905907756964" lon="8.752199267324771"><ele>186.0</ele><time>2026-04-28T08:12:02Z</time></trkpt><trkpt lat="44.70872788965382" lon="8.752317676425779"><ele>186.0</ele><time>2026-04-28T08:12:03Z</time></trkpt><trkpt lat="44.70854229807698" lon="8.752441064204952"><ele>188.0</ele><time>2026-04-28T08:12:04Z</time></trkpt><trkpt lat="44.708336841399124" lon="8.75257116816172"><ele>190.0</ele><time>2026-04-28T08:12:05Z</time></trkpt><trkpt lat="44.7081108954253" lon="8.752717256718967"><ele>190.0</ele><time>2026-04-28T08:12:06Z</time></trkpt><trkpt lat="44.70786465126901" lon="8.752872927207973"><ele>190.0</ele><time>2026-04-28T08:12:07Z</time></trkpt><trkpt lat="44.70759854341814" lon="8.753030868362726"><ele>184.5</ele><time>2026-04-28T08:12:08Z</time></trkpt><trkpt lat="44.707343157759226" lon="8.753177403872405"><ele>179.0</ele><time>2026-04-28T08:12:09Z</time></trkpt><trkpt lat="44.70710551584729" lon="8.75329704577251"><ele>177.0</ele><time>2026-04-28T08:12:10Z</time></trkpt><trkpt lat="44.706876709952645" lon="8.753399594921241"><ele>175.0</ele><time>2026-04-28T08:12:11Z</time></trkpt><trkpt lat="44.70665777929166" lon="8.753494906203716"><ele>175.0</ele><time>2026-04-28T08:12:12Z</time></trkpt><trkpt lat="44.70644512708096" lon="8.753587123689334"><ele>175.0</ele><time>2026-04-28T08:12:13Z</time></trkpt><trkpt lat="44.70624159939315" lon="8.753678798126439"><ele>175.0</ele><time>2026-04-28T08:12:14Z</time></trkpt><trkpt lat="44.706048351656285" lon="8.753770171045588"><ele>175.0</ele><time>2026-04-28T08:12:15Z</time></trkpt><trkpt lat="44.70586022240315" lon="8.753860810096883"><ele>175.0</ele><time>2026-04-28T08:12:16Z</time></trkpt><trkpt lat="44.70567269773666" lon="8.753945703985536"><ele>175.0</ele><time>2026-04-28T08:12:17Z</time></trkpt><trkpt lat="44.70549003701142" lon="8.754025325486682"><ele>175.0</ele><time>2026-04-28T08:12:18Z</time></trkpt><trkpt lat="44.70531749661541" lon="8.754099899929413"><ele>175.0</ele><time>2026-04-28T08:12:19Z</time></trkpt><trkpt lat="44.70515474037702" lon="8.754168470752361"><ele>175.0</ele><time>2026-04-28T08:12:20Z</time></trkpt><trkpt lat="44.704991549717015" lon="8.754232544302155"><ele>175.0</ele><time>2026-04-28T08:12:21Z</time></trkpt><trkpt lat="44.70483898307984" lon="8.754297697764171"><ele>175.0</ele><time>2026-04-28T08:12:22Z</time></trkpt><trkpt lat="44.704690272144695" lon="8.754357299466887"><ele>175.0</ele><time>2026-04-28T08:12:23Z</time></trkpt><trkpt lat="44.704541431152826" lon="8.75441324728607"><ele>175.5</ele><time>2026-04-28T08:12:24Z</time></trkpt><trkpt lat="44.70439646163005" lon="8.754466841402794"><ele>176.0</ele><time>2026-04-28T08:12:25Z</time></trkpt><trkpt lat="44.70425241237582" lon="8.754523305915288"><ele>176.5</ele><time>2026-04-28T08:12:26Z</time></trkpt><trkpt lat="44.70412226356244" lon="8.754571594654836"><ele>177.0</ele><time>2026-04-28T08:12:26.999Z</time></trkpt><trkpt lat="44.70402283308108" lon="8.754611665198377"><ele>177.0</ele><time>2026-04-28T08:12:27.999Z</time></trkpt><trkpt lat="44.703951892484646" lon="8.754640029004026"><ele>177.0</ele><time>2026-04-28T08:12:28.999Z</time></trkpt><trkpt lat="44.7038761610437" lon="8.754644302660365"><ele>177.0</ele><time>2026-04-28T08:12:30.999Z</time></trkpt><trkpt lat="44.703809972065145" lon="8.754586970501299"><ele>177.0</ele><time>2026-04-28T08:12:32.999Z</time></trkpt><trkpt lat="44.703756197849714" lon="8.754507505392692"><ele>177.0</ele><time>2026-04-28T08:12:34.999Z</time></trkpt><trkpt lat="44.70370176929629" lon="8.754429280666459"><ele>177.0</ele><time>2026-04-28T08:12:36.999Z</time></trkpt><trkpt lat="44.70365096800396" lon="8.754360688585164"><ele>177.0</ele><time>2026-04-28T08:12:38.999Z</time></trkpt><trkpt lat="44.70368784459597" lon="8.754494241366656"><ele>177.0</ele><time>2026-04-28T08:15:34.999Z</time></trkpt><trkpt lat="44.70374420970247" lon="8.754564271416422"><ele>177.0</ele><time>2026-04-28T08:15:35.999Z</time></trkpt><trkpt lat="44.703785026420256" lon="8.754632309268546"><ele>177.0</ele><time>2026-04-28T08:15:36.999Z</time></trkpt><trkpt lat="44.70382742856019" lon="8.754714429090164"><ele>177.0</ele><time>2026-04-28T08:15:39Z</time></trkpt><trkpt lat="44.703779670173546" lon="8.754834635452426"><ele>177.0</ele><time>2026-04-28T08:15:41Z</time></trkpt><trkpt lat="44.70373404386864" lon="8.754923932230293"><ele>177.0</ele><time>2026-04-28T08:15:42Z</time></trkpt><trkpt lat="44.70367020970751" lon="8.755055873132552"><ele>177.0</ele><time>2026-04-28T08:15:43Z</time></trkpt><trkpt lat="44.703608364048435" lon="8.755214859802363"><ele>177.0</ele><time>2026-04-28T08:15:44Z</time></trkpt><trkpt lat="44.70352419743316" lon="8.755389672215577"><ele>177.0</ele><time>2026-04-28T08:15:45Z</time></trkpt><trkpt lat="44.7034424215419" lon="8.75556283537556"><ele>177.25</ele><time>2026-04-28T08:15:46Z</time></trkpt><trkpt lat="44.703351753562856" lon="8.755750211301946"><ele>177.5</ele><time>2026-04-28T08:15:47Z</time></trkpt><trkpt lat="44.70326664473208" lon="8.75592493682827"><ele>177.75</ele><time>2026-04-28T08:15:48Z</time></trkpt><trkpt lat="44.703179251578405" lon="8.756068232176005"><ele>178.0</ele><time>2026-04-28T08:15:49Z</time></trkpt><trkpt lat="44.703084372077925" lon="8.75617507895742"><ele>178.75</ele><time>2026-04-28T08:15:50Z</time></trkpt><trkpt lat="44.70298016862117" lon="8.756264511815736"><ele>179.5</ele><time>2026-04-28T08:15:51Z</time></trkpt><trkpt lat="44.7028649504535" lon="8.756367028173088"><ele>180.25</ele><time>2026-04-28T08:15:52Z</time></trkpt><trkpt lat="44.702741804833266" lon="8.756474363995462"><ele>181.0</ele><time>2026-04-28T08:15:53Z</time></trkpt><trkpt lat="44.702619719197585" lon="8.756585115958448"><ele>181.0</ele><time>2026-04-28T08:15:54Z</time></trkpt><trkpt lat="44.70251242282455" lon="8.75671136632285"><ele>181.0</ele><time>2026-04-28T08:15:55Z</time></trkpt><trkpt lat="44.702399283236204" lon="8.756854328739287"><ele>181.0</ele><time>2026-04-28T08:15:56Z</time></trkpt><trkpt lat="44.70228648407722" lon="8.756999423393934"><ele>181.0</ele><time>2026-04-28T08:15:57Z</time></trkpt><trkpt lat="44.702172350956175" lon="8.7571569545238"><ele>183.0</ele><time>2026-04-28T08:15:58Z</time></trkpt><trkpt lat="44.70205871503974" lon="8.75731244908372"><ele>185.0</ele><time>2026-04-28T08:15:59Z</time></trkpt><trkpt lat="44.70194730105129" lon="8.757482163376304"><ele>187.0</ele><time>2026-04-28T08:16:00Z</time></trkpt><trkpt lat="44.70183244448765" lon="8.757660347072806"><ele>186.66666666666669</ele><time>2026-04-28T08:16:01Z</time></trkpt><trkpt lat="44.70170777466641" lon="8.757834569145441"><ele>186.33333333333334</ele><time>2026-04-28T08:16:02Z</time></trkpt><trkpt lat="44.701589327255334" lon="8.758010123888543"><ele>186.0</ele><time>2026-04-28T08:16:03Z</time></trkpt><trkpt lat="44.70147257838217" lon="8.758180602234162"><ele>186.0</ele><time>2026-04-28T08:16:04Z</time></trkpt><trkpt lat="44.701370884763406" lon="8.758336620265615"><ele>186.0</ele><time>2026-04-28T08:16:05Z</time></trkpt><trkpt lat="44.701273157881516" lon="8.758504434432172"><ele>186.0</ele><time>2026-04-28T08:16:06Z</time></trkpt><trkpt lat="44.70118098273849" lon="8.758694917522725"><ele>185.33333333333334</ele><time>2026-04-28T08:16:07Z</time></trkpt><trkpt lat="44.70109597632584" lon="8.758906577712711"><ele>184.66666666666669</ele><time>2026-04-28T08:16:08Z</time></trkpt><trkpt lat="44.701017487969125" lon="8.759131027628502"><ele>184.0</ele><time>2026-04-28T08:16:09Z</time></trkpt><trkpt lat="44.70093765279944" lon="8.759367695938932"><ele>184.0</ele><time>2026-04-28T08:16:10Z</time></trkpt><trkpt lat="44.700848583783014" lon="8.75960838733855"><ele>184.0</ele><time>2026-04-28T08:16:11Z</time></trkpt><trkpt lat="44.70075666394105" lon="8.759864590030919"><ele>184.0</ele><time>2026-04-28T08:16:12Z</time></trkpt><trkpt lat="44.70066873323737" lon="8.760126426083135"><ele>185.66666666666669</ele><time>2026-04-28T08:16:13Z</time></trkpt><trkpt lat="44.70057817428477" lon="8.760380700123449"><ele>187.33333333333334</ele><time>2026-04-28T08:16:14Z</time></trkpt><trkpt lat="44.70049574747442" lon="8.760620104541635"><ele>189.0</ele><time>2026-04-28T08:16:15Z</time></trkpt><trkpt lat="44.7004191985139" lon="8.760849060465246"><ele>189.66666666666666</ele><time>2026-04-28T08:16:16Z</time></trkpt><trkpt lat="44.700347911924" lon="8.761071143798837"><ele>190.33333333333331</ele><time>2026-04-28T08:16:17Z</time></trkpt><trkpt lat="44.700280102842115" lon="8.761300028558292"><ele>191.0</ele><time>2026-04-28T08:16:18Z</time></trkpt><trkpt lat="44.700222991227996" lon="8.76154231411754"><ele>191.0</ele><time>2026-04-28T08:16:19Z</time></trkpt><trkpt lat="44.70017336564056" lon="8.761755566498584"><ele>191.0</ele><time>2026-04-28T08:16:20Z</time></trkpt><trkpt lat="44.70011398340659" lon="8.761944593951933"><ele>191.0</ele><time>2026-04-28T08:16:21Z</time></trkpt><trkpt lat="44.70002382112358" lon="8.76212429056333"><ele>192.0</ele><time>2026-04-28T08:16:22Z</time></trkpt><trkpt lat="44.69991151046916" lon="8.762304635901712"><ele>193.0</ele><time>2026-04-28T08:16:23Z</time></trkpt><trkpt lat="44.69979093907929" lon="8.762491879030023"><ele>194.0</ele><time>2026-04-28T08:16:24Z</time></trkpt><trkpt lat="44.69965510119071" lon="8.762689700528169"><ele>195.0</ele><time>2026-04-28T08:16:25Z</time></trkpt><trkpt lat="44.699532727324645" lon="8.762881412884752"><ele>196.0</ele><time>2026-04-28T08:16:26Z</time></trkpt><trkpt lat="44.699425689709074" lon="8.76305045355865"><ele>197.0</ele><time>2026-04-28T08:16:27Z</time></trkpt><trkpt lat="44.69932077965167" lon="8.763222400786663"><ele>197.0</ele><time>2026-04-28T08:16:28Z</time></trkpt><trkpt lat="44.69921598472397" lon="8.763408589025284"><ele>197.0</ele><time>2026-04-28T08:16:29Z</time></trkpt><trkpt lat="44.699115631288464" lon="8.763611940928362"><ele>197.0</ele><time>2026-04-28T08:16:29.999Z</time></trkpt><trkpt lat="44.69901121492158" lon="8.76382572285377"><ele>197.66666666666669</ele><time>2026-04-28T08:16:30.999Z</time></trkpt><trkpt lat="44.69890200856146" lon="8.764046398216358"><ele>198.33333333333331</ele><time>2026-04-28T08:16:31.999Z</time></trkpt><trkpt lat="44.698783635674296" lon="8.764285070384199"><ele>199.0</ele><time>2026-04-28T08:16:32.999Z</time></trkpt><trkpt lat="44.698652443929994" lon="8.7645635591398"><ele>200.5</ele><time>2026-04-28T08:16:33.999Z</time></trkpt><trkpt lat="44.69852048222083" lon="8.76485662477391"><ele>202.0</ele><time>2026-04-28T08:16:34.999Z</time></trkpt><trkpt lat="44.6984044610771" lon="8.765119048441539"><ele>203.0</ele><time>2026-04-28T08:16:35.999Z</time></trkpt><trkpt lat="44.698299442444224" lon="8.765362572783772"><ele>204.0</ele><time>2026-04-28T08:16:36.999Z</time></trkpt><trkpt lat="44.69819182407013" lon="8.765596525322914"><ele>205.0</ele><time>2026-04-28T08:16:37.999Z</time></trkpt><trkpt lat="44.698080020565975" lon="8.765827436294874"><ele>205.0</ele><time>2026-04-28T08:16:38.999Z</time></trkpt><trkpt lat="44.69796164333411" lon="8.766052896314832"><ele>205.0</ele><time>2026-04-28T08:16:39.999Z</time></trkpt><trkpt lat="44.69784167024362" lon="8.76626087560474"><ele>205.0</ele><time>2026-04-28T08:16:40.999Z</time></trkpt><trkpt lat="44.69772042521975" lon="8.766460646426246"><ele>205.0</ele><time>2026-04-28T08:16:41.999Z</time></trkpt><trkpt lat="44.69760206050977" lon="8.766646972351653"><ele>205.0</ele><time>2026-04-28T08:16:42.999Z</time></trkpt><trkpt lat="44.697486245268905" lon="8.766812206150112"><ele>205.0</ele><time>2026-04-28T08:16:43.999Z</time></trkpt><trkpt lat="44.697386011139855" lon="8.766989029092976"><ele>205.0</ele><time>2026-04-28T08:16:44.999Z</time></trkpt><trkpt lat="44.697300405534136" lon="8.767192062994583"><ele>205.0</ele><time>2026-04-28T08:16:45.999Z</time></trkpt><trkpt lat="44.69722636024365" lon="8.767416340025868"><ele>205.0</ele><time>2026-04-28T08:16:46.999Z</time></trkpt><trkpt lat="44.697153754724546" lon="8.767647010139067"><ele>206.33333333333331</ele><time>2026-04-28T08:16:47.999Z</time></trkpt><trkpt lat="44.69708379693657" lon="8.767870328466897"><ele>207.66666666666669</ele><time>2026-04-28T08:16:48.999Z</time></trkpt><trkpt lat="44.697006438724245" lon="8.76809584442996"><ele>209.0</ele><time>2026-04-28T08:16:49.999Z</time></trkpt><trkpt lat="44.69692788907829" lon="8.768290178059704"><ele>207.75</ele><time>2026-04-28T08:16:50.999Z</time></trkpt><trkpt lat="44.6968446149812" lon="8.768452229674388"><ele>206.5</ele><time>2026-04-28T08:16:51.999Z</time></trkpt><trkpt lat="44.696740769611345" lon="8.76859149444372"><ele>205.25</ele><time>2026-04-28T08:16:52.999Z</time></trkpt><trkpt lat="44.69662697957854" lon="8.768692880120101"><ele>204.0</ele><time>2026-04-28T08:16:53.999Z</time></trkpt><trkpt lat="44.69650199600615" lon="8.768782356338168"><ele>207.25</ele><time>2026-04-28T08:16:54.999Z</time></trkpt><trkpt lat="44.69636725437934" lon="8.768864301618489"><ele>210.5</ele><time>2026-04-28T08:16:55.999Z</time></trkpt><trkpt lat="44.696250926170464" lon="8.768946103275466"><ele>213.75</ele><time>2026-04-28T08:16:56.999Z</time></trkpt><trkpt lat="44.69613308443585" lon="8.769016721237268"><ele>217.0</ele><time>2026-04-28T08:16:57.999Z</time></trkpt><trkpt lat="44.69602222097296" lon="8.769094507351502"><ele>217.0</ele><time>2026-04-28T08:16:58.999Z</time></trkpt><trkpt lat="44.69591415926605" lon="8.76917685858224"><ele>217.0</ele><time>2026-04-28T08:16:59.999Z</time></trkpt><trkpt lat="44.695809030899085" lon="8.769269409191791"><ele>217.0</ele><time>2026-04-28T08:17:00.999Z</time></trkpt><trkpt lat="44.695707393549434" lon="8.769369496419667"><ele>217.0</ele><time>2026-04-28T08:17:01.999Z</time></trkpt><trkpt lat="44.69561015007698" lon="8.769476242430924"><ele>221.25</ele><time>2026-04-28T08:17:02.999Z</time></trkpt><trkpt lat="44.69553179037789" lon="8.769582082269558"><ele>225.5</ele><time>2026-04-28T08:17:03.999Z</time></trkpt><trkpt lat="44.69545335514034" lon="8.769736696010884"><ele>229.75</ele><time>2026-04-28T08:17:04.999Z</time></trkpt><trkpt lat="44.69535834549939" lon="8.769921287520159"><ele>234.0</ele><time>2026-04-28T08:17:05.999Z</time></trkpt><trkpt lat="44.695264539917424" lon="8.77011513777428"><ele>227.5</ele><time>2026-04-28T08:17:06.999Z</time></trkpt><trkpt lat="44.695201517185446" lon="8.770276359807736"><ele>221.0</ele><time>2026-04-28T08:17:07.999Z</time></trkpt><trkpt lat="44.695160322012285" lon="8.770440974381584"><ele>214.5</ele><time>2026-04-28T08:17:08.999Z</time></trkpt><trkpt lat="44.69514449486353" lon="8.770613912435879"><ele>208.0</ele><time>2026-04-28T08:17:09.999Z</time></trkpt><trkpt lat="44.695139800010246" lon="8.77076459646942"><ele>208.0</ele><time>2026-04-28T08:17:10.999Z</time></trkpt><trkpt lat="44.695144607973816" lon="8.770910654032747"><ele>208.0</ele><time>2026-04-28T08:17:11.999Z</time></trkpt><trkpt lat="44.6951694742785" lon="8.77106582413923"><ele>208.0</ele><time>2026-04-28T08:17:12.999Z</time></trkpt><trkpt lat="44.69521937182692" lon="8.771232172338836"><ele>208.0</ele><time>2026-04-28T08:17:13.999Z</time></trkpt><trkpt lat="44.6952816510705" lon="8.771416123506443"><ele>218.0</ele><time>2026-04-28T08:17:14.999Z</time></trkpt><trkpt lat="44.69532921301039" lon="8.771623076416452"><ele>228.0</ele><time>2026-04-28T08:17:15.999Z</time></trkpt><trkpt lat="44.69535665745743" lon="8.771811609332495"><ele>238.0</ele><time>2026-04-28T08:17:16.999Z</time></trkpt><trkpt lat="44.69537364576325" lon="8.77203388021426"><ele>238.0</ele><time>2026-04-28T08:17:17.999Z</time></trkpt><trkpt lat="44.695374594604665" lon="8.772262391011084"><ele>238.0</ele><time>2026-04-28T08:17:18.999Z</time></trkpt><trkpt lat="44.69537047641258" lon="8.772477530788185"><ele>238.0</ele><time>2026-04-28T08:17:19.999Z</time></trkpt><trkpt lat="44.69536206112904" lon="8.77267459442732"><ele>239.0</ele><time>2026-04-28T08:17:20.999Z</time></trkpt><trkpt lat="44.695381606861076" lon="8.772866717160037"><ele>240.0</ele><time>2026-04-28T08:17:21.999Z</time></trkpt><trkpt lat="44.69541147001686" lon="8.77307165688066"><ele>241.0</ele><time>2026-04-28T08:17:22.999Z</time></trkpt><trkpt lat="44.69544397989646" lon="8.773288931414164"><ele>242.0</ele><time>2026-04-28T08:17:23.999Z</time></trkpt><trkpt lat="44.69546513783573" lon="8.773529674406811"><ele>244.33333333333334</ele><time>2026-04-28T08:17:24.999Z</time></trkpt><trkpt lat="44.69548216051788" lon="8.773793043934843"><ele>246.66666666666669</ele><time>2026-04-28T08:17:25.999Z</time></trkpt><trkpt lat="44.69550027462914" lon="8.774025817254921"><ele>249.0</ele><time>2026-04-28T08:17:26.999Z</time></trkpt><trkpt lat="44.69551383375091" lon="8.774231503684227"><ele>249.33333333333331</ele><time>2026-04-28T08:17:27.999Z</time></trkpt><trkpt lat="44.695517826095724" lon="8.774447765959861"><ele>249.66666666666666</ele><time>2026-04-28T08:17:28.999Z</time></trkpt><trkpt lat="44.69550627042838" lon="8.774674999589518"><ele>250.0</ele><time>2026-04-28T08:17:29.999Z</time></trkpt><trkpt lat="44.695485970173536" lon="8.774907771408413"><ele>250.0</ele><time>2026-04-28T08:17:30.999Z</time></trkpt><trkpt lat="44.695475070640924" lon="8.775139055638311"><ele>250.0</ele><time>2026-04-28T08:17:31.999Z</time></trkpt><trkpt lat="44.69546589418654" lon="8.775370033849804"><ele>250.0</ele><time>2026-04-28T08:17:32.999Z</time></trkpt><trkpt lat="44.69546398655465" lon="8.775588082235302"><ele>249.25</ele><time>2026-04-28T08:17:33.999Z</time></trkpt><trkpt lat="44.69547973179639" lon="8.775799243453667"><ele>248.5</ele><time>2026-04-28T08:17:34.999Z</time></trkpt><trkpt lat="44.695498291105956" lon="8.775998785024871"><ele>247.75</ele><time>2026-04-28T08:17:35.999Z</time></trkpt><trkpt lat="44.69554933745832" lon="8.776191199609961"><ele>247.0</ele><time>2026-04-28T08:17:36.999Z</time></trkpt><trkpt lat="44.69562842237172" lon="8.77637928033126"><ele>243.33333333333331</ele><time>2026-04-28T08:17:37.999Z</time></trkpt><trkpt lat="44.69570642784622" lon="8.776592062132055"><ele>239.66666666666669</ele><time>2026-04-28T08:17:38.999Z</time></trkpt><trkpt lat="44.695763644597875" lon="8.77679999916941"><ele>236.0</ele><time>2026-04-28T08:17:39.999Z</time></trkpt><trkpt lat="44.695789447738974" lon="8.777012363940015"><ele>233.0</ele><time>2026-04-28T08:17:40.999Z</time></trkpt><trkpt lat="44.69579461552084" lon="8.777251528268573"><ele>230.0</ele><time>2026-04-28T08:17:41.999Z</time></trkpt><trkpt lat="44.69577470841069" lon="8.777501503478762"><ele>227.0</ele><time>2026-04-28T08:17:42.999Z</time></trkpt><trkpt lat="44.69573525065675" lon="8.77775260799444"><ele>225.66666666666669</ele><time>2026-04-28T08:17:43.999Z</time></trkpt><trkpt lat="44.69568931511931" lon="8.778005533504938"><ele>224.33333333333331</ele><time>2026-04-28T08:17:45Z</time></trkpt><trkpt lat="44.69564753732066" lon="8.778228131428351"><ele>223.0</ele><time>2026-04-28T08:17:46Z</time></trkpt><trkpt lat="44.695609831781304" lon="8.778407307406303"><ele>224.2</ele><time>2026-04-28T08:17:47Z</time></trkpt><trkpt lat="44.69557484942138" lon="8.778561703497527"><ele>225.4</ele><time>2026-04-28T08:17:48Z</time></trkpt><trkpt lat="44.69553424240554" lon="8.778685957338851"><ele>226.59999999999997</ele><time>2026-04-28T08:17:49Z</time></trkpt><trkpt lat="44.69546762152699" lon="8.778792544201652"><ele>227.79999999999998</ele><time>2026-04-28T08:17:50Z</time></trkpt><trkpt lat="44.69538473618061" lon="8.77885389228427"><ele>229.0</ele><time>2026-04-28T08:17:51Z</time></trkpt><trkpt lat="44.69528597863445" lon="8.778879322701748"><ele>225.75</ele><time>2026-04-28T08:17:52Z</time></trkpt><trkpt lat="44.69515025178404" lon="8.778874656677205"><ele>222.5</ele><time>2026-04-28T08:17:53Z</time></trkpt><trkpt lat="44.6950140722013" lon="8.778784119347186"><ele>219.25</ele><time>2026-04-28T08:17:54Z</time></trkpt><trkpt lat="44.69486425347193" lon="8.77870108972075"><ele>216.0</ele><time>2026-04-28T08:17:55Z</time></trkpt><trkpt lat="44.69469608712167" lon="8.778615827940259"><ele>216.0</ele><time>2026-04-28T08:17:56Z</time></trkpt><trkpt lat="44.694555838347966" lon="8.778526275363877"><ele>216.0</ele><time>2026-04-28T08:17:57Z</time></trkpt><trkpt lat="44.69443529742443" lon="8.778461113973034"><ele>216.0</ele><time>2026-04-28T08:17:58Z</time></trkpt><trkpt lat="44.69433664283863" lon="8.778421599436557"><ele>216.0</ele><time>2026-04-28T08:17:59Z</time></trkpt><trkpt lat="44.6942484502657" lon="8.778415824300438"><ele>214.4</ele><time>2026-04-28T08:18:00Z</time></trkpt><trkpt lat="44.69416160016224" lon="8.778457473451509"><ele>212.8</ele><time>2026-04-28T08:18:01Z</time></trkpt><trkpt lat="44.69408462138012" lon="8.778542078870556"><ele>211.20000000000002</ele><time>2026-04-28T08:18:02Z</time></trkpt><trkpt lat="44.694016381949176" lon="8.778679055896529"><ele>209.60000000000002</ele><time>2026-04-28T08:18:03Z</time></trkpt><trkpt lat="44.693969653109576" lon="8.778861146702125"><ele>208.0</ele><time>2026-04-28T08:18:04Z</time></trkpt><trkpt lat="44.69393815090143" lon="8.779087151026639"><ele>208.0</ele><time>2026-04-28T08:18:05Z</time></trkpt><trkpt lat="44.693898417600145" lon="8.779339715561093"><ele>208.0</ele><time>2026-04-28T08:18:06Z</time></trkpt><trkpt lat="44.693861441594" lon="8.779606541396804"><ele>208.0</ele><time>2026-04-28T08:18:07Z</time></trkpt><trkpt lat="44.69382802301449" lon="8.77988681112054"><ele>208.66666666666666</ele><time>2026-04-28T08:18:08Z</time></trkpt><trkpt lat="44.69378795853559" lon="8.780160078218621"><ele>209.33333333333331</ele><time>2026-04-28T08:18:09Z</time></trkpt><trkpt lat="44.69376173837574" lon="8.780402123119783"><ele>210.0</ele><time>2026-04-28T08:18:10Z</time></trkpt><trkpt lat="44.69374248037501" lon="8.78063778017669"><ele>210.0</ele><time>2026-04-28T08:18:11Z</time></trkpt><trkpt lat="44.69373785147972" lon="8.780868258552264"><ele>210.0</ele><time>2026-04-28T08:18:12Z</time></trkpt><trkpt lat="44.69375794867465" lon="8.78110531747283"><ele>210.0</ele><time>2026-04-28T08:18:13Z</time></trkpt><trkpt lat="44.69379970853057" lon="8.781356025280726"><ele>210.0</ele><time>2026-04-28T08:18:14Z</time></trkpt><trkpt lat="44.69385802889544" lon="8.781611945429391"><ele>210.0</ele><time>2026-04-28T08:18:15Z</time></trkpt><trkpt lat="44.693921615585005" lon="8.781880795246545"><ele>210.0</ele><time>2026-04-28T08:18:16Z</time></trkpt><trkpt lat="44.69398582275774" lon="8.782154231351793"><ele>210.0</ele><time>2026-04-28T08:18:17Z</time></trkpt><trkpt lat="44.694057678678334" lon="8.782420594029222"><ele>210.0</ele><time>2026-04-28T08:18:18Z</time></trkpt><trkpt lat="44.694147071587736" lon="8.782696033185147"><ele>210.0</ele><time>2026-04-28T08:18:19Z</time></trkpt><trkpt lat="44.694245443108414" lon="8.782973779936018"><ele>207.33333333333331</ele><time>2026-04-28T08:18:20Z</time></trkpt><trkpt lat="44.69433587460576" lon="8.78322692679051"><ele>204.66666666666666</ele><time>2026-04-28T08:18:21Z</time></trkpt><trkpt lat="44.69441521254401" lon="8.783478629425906"><ele>202.0</ele><time>2026-04-28T08:18:22Z</time></trkpt><trkpt lat="44.69449122332377" lon="8.783717933046914"><ele>206.66666666666666</ele><time>2026-04-28T08:18:23Z</time></trkpt><trkpt lat="44.69455534826248" lon="8.783948559937155"><ele>211.33333333333331</ele><time>2026-04-28T08:18:24Z</time></trkpt><trkpt lat="44.69461372248084" lon="8.78417639303693"><ele>216.0</ele><time>2026-04-28T08:18:25Z</time></trkpt><trkpt lat="44.6946793525055" lon="8.784405617314766"><ele>216.0</ele><time>2026-04-28T08:18:26Z</time></trkpt><trkpt lat="44.694755381420215" lon="8.784634907316923"><ele>216.0</ele><time>2026-04-28T08:18:27Z</time></trkpt><trkpt lat="44.69484764663167" lon="8.784854779754898"><ele>216.0</ele><time>2026-04-28T08:18:28Z</time></trkpt><trkpt lat="44.69494092319149" lon="8.785078818278768"><ele>212.66666666666669</ele><time>2026-04-28T08:18:29Z</time></trkpt><trkpt lat="44.69502729006254" lon="8.78530611422913"><ele>209.33333333333334</ele><time>2026-04-28T08:18:30Z</time></trkpt><trkpt lat="44.69509826824876" lon="8.785539263782434"><ele>206.0</ele><time>2026-04-28T08:18:31Z</time></trkpt><trkpt lat="44.69512419148783" lon="8.785798420205525"><ele>205.33333333333334</ele><time>2026-04-28T08:18:32Z</time></trkpt><trkpt lat="44.69517401898319" lon="8.786047154908559"><ele>204.66666666666669</ele><time>2026-04-28T08:18:33Z</time></trkpt><trkpt lat="44.69523936575383" lon="8.786292612954748"><ele>204.0</ele><time>2026-04-28T08:18:34Z</time></trkpt><trkpt lat="44.695321583969836" lon="8.786545520898336"><ele>205.66666666666669</ele><time>2026-04-28T08:18:35Z</time></trkpt><trkpt lat="44.69542962803993" lon="8.786799202956143"><ele>207.33333333333334</ele><time>2026-04-28T08:18:36Z</time></trkpt><trkpt lat="44.69553568106118" lon="8.787064045271515"><ele>209.0</ele><time>2026-04-28T08:18:37Z</time></trkpt><trkpt lat="44.69566043611383" lon="8.787348228528622"><ele>209.0</ele><time>2026-04-28T08:18:38Z</time></trkpt><trkpt lat="44.69579760737294" lon="8.787616844955226"><ele>209.0</ele><time>2026-04-28T08:18:39Z</time></trkpt><trkpt lat="44.69592282857257" lon="8.7878468851419"><ele>209.0</ele><time>2026-04-28T08:18:39.999Z</time></trkpt><trkpt lat="44.696031617156045" lon="8.788074366733827"><ele>212.66666666666669</ele><time>2026-04-28T08:18:40.999Z</time></trkpt><trkpt lat="44.696119187568456" lon="8.788307271790876"><ele>216.33333333333331</ele><time>2026-04-28T08:18:41.999Z</time></trkpt><trkpt lat="44.69619166790545" lon="8.78855387942054"><ele>220.0</ele><time>2026-04-28T08:18:42.999Z</time></trkpt><trkpt lat="44.6962614853573" lon="8.788798800070241"><ele>220.0</ele><time>2026-04-28T08:18:43.999Z</time></trkpt><trkpt lat="44.69633707898205" lon="8.789017498311582"><ele>220.0</ele><time>2026-04-28T08:18:44.999Z</time></trkpt><trkpt lat="44.696413803536196" lon="8.789228552058509"><ele>220.0</ele><time>2026-04-28T08:18:45.999Z</time></trkpt><trkpt lat="44.69649577893144" lon="8.789417503864126"><ele>217.0</ele><time>2026-04-28T08:18:46.999Z</time></trkpt><trkpt lat="44.69657435501385" lon="8.78961399671596"><ele>214.0</ele><time>2026-04-28T08:18:47.999Z</time></trkpt><trkpt lat="44.6966468683663" lon="8.789796126219985"><ele>211.0</ele><time>2026-04-28T08:18:48.999Z</time></trkpt><trkpt lat="44.696686473157605" lon="8.790011797577383"><ele>209.5</ele><time>2026-04-28T08:18:49.999Z</time></trkpt><trkpt lat="44.69673021828308" lon="8.790207620170738"><ele>208.0</ele><time>2026-04-28T08:18:50.999Z</time></trkpt><trkpt lat="44.696764983779886" lon="8.790407819280496"><ele>206.5</ele><time>2026-04-28T08:18:51.999Z</time></trkpt><trkpt lat="44.69680096857357" lon="8.790619849837546"><ele>205.0</ele><time>2026-04-28T08:18:52.999Z</time></trkpt><trkpt lat="44.6968234218591" lon="8.790837888551552"><ele>204.66666666666666</ele><time>2026-04-28T08:18:53.999Z</time></trkpt><trkpt lat="44.69683373838695" lon="8.791070051314987"><ele>204.33333333333331</ele><time>2026-04-28T08:18:54.999Z</time></trkpt><trkpt lat="44.69684058297694" lon="8.791299683339988"><ele>204.0</ele><time>2026-04-28T08:18:55.999Z</time></trkpt><trkpt lat="44.6968462024451" lon="8.791543620544276"><ele>204.0</ele><time>2026-04-28T08:18:56.999Z</time></trkpt><trkpt lat="44.696864078592306" lon="8.791782229092775"><ele>204.0</ele><time>2026-04-28T08:18:57.999Z</time></trkpt><trkpt lat="44.696885581230454" lon="8.792012341291409"><ele>204.0</ele><time>2026-04-28T08:18:58.999Z</time></trkpt><trkpt lat="44.69690623839518" lon="8.792249152214428"><ele>209.5</ele><time>2026-04-28T08:18:59.999Z</time></trkpt><trkpt lat="44.69692870538745" lon="8.79246840206691"><ele>215.0</ele><time>2026-04-28T08:19:00.999Z</time></trkpt><trkpt lat="44.696949134569245" lon="8.792671597677764"><ele>220.5</ele><time>2026-04-28T08:19:01.999Z</time></trkpt><trkpt lat="44.69694779147859" lon="8.79285433267653"><ele>226.0</ele><time>2026-04-28T08:19:02.999Z</time></trkpt><trkpt lat="44.69692407747921" lon="8.79301815392022"><ele>227.0</ele><time>2026-04-28T08:19:03.999Z</time></trkpt><trkpt lat="44.69686429410233" lon="8.793193765458305"><ele>228.0</ele><time>2026-04-28T08:19:04.999Z</time></trkpt><trkpt lat="44.69678154647105" lon="8.793382244309573"><ele>229.0</ele><time>2026-04-28T08:19:05.999Z</time></trkpt><trkpt lat="44.69667803811627" lon="8.793568502181147"><ele>229.0</ele><time>2026-04-28T08:19:06.999Z</time></trkpt><trkpt lat="44.69655261347679" lon="8.793757969625863"><ele>229.0</ele><time>2026-04-28T08:19:07.999Z</time></trkpt><trkpt lat="44.696417621405665" lon="8.79395717813547"><ele>229.0</ele><time>2026-04-28T08:19:08.999Z</time></trkpt><trkpt lat="44.696303118783" lon="8.79413092627828"><ele>229.0</ele><time>2026-04-28T08:19:09.999Z</time></trkpt><trkpt lat="44.696197709820474" lon="8.794286639926064"><ele>229.0</ele><time>2026-04-28T08:19:10.999Z</time></trkpt><trkpt lat="44.696084141402736" lon="8.79442930967981"><ele>229.0</ele><time>2026-04-28T08:19:11.999Z</time></trkpt><trkpt lat="44.69594444410902" lon="8.794560087445346"><ele>231.66666666666666</ele><time>2026-04-28T08:19:12.999Z</time></trkpt><trkpt lat="44.69577696763288" lon="8.794675154396792"><ele>234.33333333333331</ele><time>2026-04-28T08:19:13.999Z</time></trkpt><trkpt lat="44.69562724365157" lon="8.794791394594316"><ele>237.0</ele><time>2026-04-28T08:19:14.999Z</time></trkpt><trkpt lat="44.69548529975148" lon="8.794901103695732"><ele>237.0</ele><time>2026-04-28T08:19:15.999Z</time></trkpt><trkpt lat="44.69533776959426" lon="8.795005497579133"><ele>237.0</ele><time>2026-04-28T08:19:16.999Z</time></trkpt><trkpt lat="44.69520335969631" lon="8.795102151010036"><ele>237.0</ele><time>2026-04-28T08:19:17.999Z</time></trkpt><trkpt lat="44.69507161100372" lon="8.795194412015507"><ele>238.5</ele><time>2026-04-28T08:19:18.999Z</time></trkpt><trkpt lat="44.694947147302756" lon="8.795261807909307"><ele>240.0</ele><time>2026-04-28T08:19:19.999Z</time></trkpt><trkpt lat="44.694817696208666" lon="8.795318208100676"><ele>241.5</ele><time>2026-04-28T08:19:20.999Z</time></trkpt><trkpt lat="44.69469809467061" lon="8.795378076939977"><ele>243.0</ele><time>2026-04-28T08:19:21.999Z</time></trkpt><trkpt lat="44.6946099896937" lon="8.795463644109196"><ele>243.0</ele><time>2026-04-28T08:19:22.999Z</time></trkpt><trkpt lat="44.694528470562716" lon="8.795587826905182"><ele>243.0</ele><time>2026-04-28T08:19:23.999Z</time></trkpt><trkpt lat="44.69445568374551" lon="8.795728635334484"><ele>243.0</ele><time>2026-04-28T08:19:24.999Z</time></trkpt><trkpt lat="44.694356503163895" lon="8.795864359753079"><ele>243.0</ele><time>2026-04-28T08:19:25.999Z</time></trkpt><trkpt lat="44.69427162386808" lon="8.795992528858337"><ele>242.25</ele><time>2026-04-28T08:19:26.999Z</time></trkpt><trkpt lat="44.6941935467979" lon="8.796115757582518"><ele>241.5</ele><time>2026-04-28T08:19:27.999Z</time></trkpt><trkpt lat="44.69410947687315" lon="8.796232990082453"><ele>240.75</ele><time>2026-04-28T08:19:28.999Z</time></trkpt><trkpt lat="44.69400953936178" lon="8.796339820333896"><ele>240.0</ele><time>2026-04-28T08:19:29.999Z</time></trkpt><trkpt lat="44.693908681396174" lon="8.796437043843012"><ele>240.0</ele><time>2026-04-28T08:19:30.999Z</time></trkpt><trkpt lat="44.693810023370304" lon="8.796515503795243"><ele>240.0</ele><time>2026-04-28T08:19:31.999Z</time></trkpt><trkpt lat="44.69371866597139" lon="8.796593560735975"><ele>240.0</ele><time>2026-04-28T08:19:32.999Z</time></trkpt><trkpt lat="44.69363419438478" lon="8.796698371895692"><ele>240.0</ele><time>2026-04-28T08:19:33.999Z</time></trkpt><trkpt lat="44.69356804397878" lon="8.796842991241963"><ele>238.5</ele><time>2026-04-28T08:19:34.999Z</time></trkpt><trkpt lat="44.693514455862584" lon="8.79702240655007"><ele>237.0</ele><time>2026-04-28T08:19:35.999Z</time></trkpt><trkpt lat="44.693445743306015" lon="8.79722570989093"><ele>235.5</ele><time>2026-04-28T08:19:36.999Z</time></trkpt><trkpt lat="44.69338031001777" lon="8.797397937873253"><ele>234.0</ele><time>2026-04-28T08:19:37.999Z</time></trkpt><trkpt lat="44.69331597686582" lon="8.79755821258121"><ele>238.0</ele><time>2026-04-28T08:19:38.999Z</time></trkpt><trkpt lat="44.69323172384865" lon="8.797716138497092"><ele>242.0</ele><time>2026-04-28T08:19:39.999Z</time></trkpt><trkpt lat="44.693128324556774" lon="8.797877664550596"><ele>246.0</ele><time>2026-04-28T08:19:40.999Z</time></trkpt><trkpt lat="44.69302534732955" lon="8.79804154248498"><ele>246.0</ele><time>2026-04-28T08:19:41.999Z</time></trkpt><trkpt lat="44.69292971472534" lon="8.798213453638311"><ele>246.0</ele><time>2026-04-28T08:19:42.999Z</time></trkpt><trkpt lat="44.69283849479526" lon="8.79836508964687"><ele>246.0</ele><time>2026-04-28T08:19:43.999Z</time></trkpt><trkpt lat="44.69275794571052" lon="8.798505420741996"><ele>246.0</ele><time>2026-04-28T08:19:44.999Z</time></trkpt><trkpt lat="44.69267285514003" lon="8.798637597082163"><ele>242.20000000000002</ele><time>2026-04-28T08:19:45.999Z</time></trkpt><trkpt lat="44.69256941972343" lon="8.798743309177167"><ele>238.40000000000003</ele><time>2026-04-28T08:19:46.999Z</time></trkpt><trkpt lat="44.69246449570105" lon="8.798827555718725"><ele>234.6</ele><time>2026-04-28T08:19:47.999Z</time></trkpt><trkpt lat="44.69237941930683" lon="8.79891458356666"><ele>230.8</ele><time>2026-04-28T08:19:48.999Z</time></trkpt><trkpt lat="44.692308956552594" lon="8.799002841903503"><ele>227.0</ele><time>2026-04-28T08:19:49.999Z</time></trkpt><trkpt lat="44.69225523139107" lon="8.79910230109281"><ele>227.0</ele><time>2026-04-28T08:19:51Z</time></trkpt><trkpt lat="44.692242025826594" lon="8.799227342506397"><ele>227.0</ele><time>2026-04-28T08:19:52Z</time></trkpt><trkpt lat="44.69225811293009" lon="8.799394530456306"><ele>227.0</ele><time>2026-04-28T08:19:53Z</time></trkpt><trkpt lat="44.69227146498623" lon="8.799530831772389"><ele>227.0</ele><time>2026-04-28T08:19:54Z</time></trkpt><trkpt lat="44.69224858425412" lon="8.799633373049451"><ele>227.0</ele><time>2026-04-28T08:19:55Z</time></trkpt><trkpt lat="44.69219718583904" lon="8.799729704877135"><ele>225.8</ele><time>2026-04-28T08:19:56Z</time></trkpt><trkpt lat="44.692104184941556" lon="8.799784302587764"><ele>224.6</ele><time>2026-04-28T08:19:57Z</time></trkpt><trkpt lat="44.69202859831393" lon="8.799845820442464"><ele>223.40000000000003</ele><time>2026-04-28T08:19:58Z</time></trkpt><trkpt lat="44.691951254020594" lon="8.799945522124155"><ele>222.20000000000002</ele><time>2026-04-28T08:19:59Z</time></trkpt><trkpt lat="44.691866843301106" lon="8.799978284124107"><ele>221.0</ele><time>2026-04-28T08:20:00Z</time></trkpt><trkpt lat="44.69177825265556" lon="8.799996922797225"><ele>220.60000000000002</ele><time>2026-04-28T08:20:01Z</time></trkpt><trkpt lat="44.691657869420986" lon="8.799978768524156"><ele>220.20000000000002</ele><time>2026-04-28T08:20:02Z</time></trkpt><trkpt lat="44.69155442995644" lon="8.799964720820958"><ele>219.79999999999998</ele><time>2026-04-28T08:20:03Z</time></trkpt><trkpt lat="44.69145184614" lon="8.799954239716204"><ele>219.39999999999998</ele><time>2026-04-28T08:20:04Z</time></trkpt><trkpt lat="44.691367359733" lon="8.799948878255162"><ele>219.0</ele><time>2026-04-28T08:20:05Z</time></trkpt><trkpt lat="44.69128385675235" lon="8.799939536159432"><ele>219.0</ele><time>2026-04-28T08:20:06Z</time></trkpt><trkpt lat="44.69120766046084" lon="8.799919649001794"><ele>219.0</ele><time>2026-04-28T08:20:07Z</time></trkpt><trkpt lat="44.691144074367486" lon="8.799892130098216"><ele>219.0</ele><time>2026-04-28T08:20:08Z</time></trkpt><trkpt lat="44.691061136834264" lon="8.799853776510043"><ele>219.0</ele><time>2026-04-28T08:20:09Z</time></trkpt><trkpt lat="44.69098178579677" lon="8.799804392990806"><ele>219.0</ele><time>2026-04-28T08:20:10Z</time></trkpt><trkpt lat="44.690903937187535" lon="8.79977936891503"><ele>219.0</ele><time>2026-04-28T08:20:11Z</time></trkpt><trkpt lat="44.69083256646821" lon="8.799789312832727"><ele>220.0</ele><time>2026-04-28T08:20:12Z</time></trkpt><trkpt lat="44.69076820868854" lon="8.799816975113668"><ele>220.99999999999997</ele><time>2026-04-28T08:20:13Z</time></trkpt><trkpt lat="44.69070908866628" lon="8.799860449282443"><ele>221.99999999999997</ele><time>2026-04-28T08:20:14Z</time></trkpt><trkpt lat="44.690617745437436" lon="8.799938670009325"><ele>223.0</ele><time>2026-04-28T08:20:16Z</time></trkpt><trkpt lat="44.69052127090172" lon="8.800037164069407"><ele>224.0</ele><time>2026-04-28T08:20:18Z</time></trkpt><trkpt lat="44.690419826021405" lon="8.800106535605321"><ele>224.00000000000003</ele><time>2026-04-28T08:20:20Z</time></trkpt><trkpt lat="44.69033072140569" lon="8.800052989279052"><ele>224.0</ele><time>2026-04-28T08:20:22Z</time></trkpt><trkpt lat="44.69026348854805" lon="8.80005171531263"><ele>224.0</ele><time>2026-04-28T08:20:23Z</time></trkpt><trkpt lat="44.69019979254582" lon="8.80006582342767"><ele>224.0</ele><time>2026-04-28T08:20:24Z</time></trkpt><trkpt lat="44.69013310219737" lon="8.8000879840613"><ele>224.00000000000003</ele><time>2026-04-28T08:20:25Z</time></trkpt><trkpt lat="44.690087101323286" lon="8.800158458558839"><ele>224.0</ele><time>2026-04-28T08:20:26Z</time></trkpt><trkpt lat="44.68998298146643" lon="8.800261542116864"><ele>224.33333333333334</ele><time>2026-04-28T08:20:28Z</time></trkpt><trkpt lat="44.68992459836238" lon="8.800301715863393"><ele>224.66666666666669</ele><time>2026-04-28T08:20:29Z</time></trkpt><trkpt lat="44.689876082949134" lon="8.800376515679275"><ele>225.0</ele><time>2026-04-28T08:20:30Z</time></trkpt><trkpt lat="44.68982660865161" lon="8.800442756106236"><ele>225.33333333333331</ele><time>2026-04-28T08:20:31Z</time></trkpt><trkpt lat="44.68977318367752" lon="8.800500636123646"><ele>225.66666666666666</ele><time>2026-04-28T08:20:32Z</time></trkpt><trkpt lat="44.68970637235282" lon="8.800613286551542"><ele>226.0</ele><time>2026-04-28T08:20:34Z</time></trkpt><trkpt lat="44.68963866211964" lon="8.800744076261472"><ele>226.0</ele><time>2026-04-28T08:20:36Z</time></trkpt><trkpt lat="44.68958091368987" lon="8.800887017016919"><ele>226.00000000000003</ele><time>2026-04-28T08:20:38Z</time></trkpt><trkpt lat="44.689531306910865" lon="8.801015730445613"><ele>226.00000000000003</ele><time>2026-04-28T08:20:40Z</time></trkpt><trkpt lat="44.689483376807935" lon="8.801099070820172"><ele>226.0</ele><time>2026-04-28T08:20:41Z</time></trkpt><trkpt lat="44.68943367616826" lon="8.801219403438205"><ele>226.0</ele><time>2026-04-28T08:20:42Z</time></trkpt><trkpt lat="44.68937561763409" lon="8.801338883970473"><ele>226.4</ele><time>2026-04-28T08:20:43Z</time></trkpt><trkpt lat="44.68929285245566" lon="8.801452235551867"><ele>226.8</ele><time>2026-04-28T08:20:44Z</time></trkpt><trkpt lat="44.68925569395038" lon="8.801574529832111"><ele>227.20000000000002</ele><time>2026-04-28T08:20:44.999Z</time></trkpt><trkpt lat="44.68918064767384" lon="8.801678719707478"><ele>227.60000000000002</ele><time>2026-04-28T08:20:45.999Z</time></trkpt><trkpt lat="44.68911611947497" lon="8.801783263234935"><ele>228.0</ele><time>2026-04-28T08:20:46.999Z</time></trkpt><trkpt lat="44.689046746672595" lon="8.801879631475053"><ele>228.66666666666666</ele><time>2026-04-28T08:20:47.999Z</time></trkpt><trkpt lat="44.68897433775114" lon="8.801936439245546"><ele>229.33333333333331</ele><time>2026-04-28T08:20:48.999Z</time></trkpt><trkpt lat="44.6889118301286" lon="8.802019258237587"><ele>230.0</ele><time>2026-04-28T08:20:49.999Z</time></trkpt><trkpt lat="44.688850083487196" lon="8.802115355157012"><ele>230.66666666666666</ele><time>2026-04-28T08:20:50.999Z</time></trkpt><trkpt lat="44.688798044299986" lon="8.802204725772064"><ele>231.33333333333331</ele><time>2026-04-28T08:20:51.999Z</time></trkpt><trkpt lat="44.68876670865867" lon="8.802320226822118"><ele>232.0</ele><time>2026-04-28T08:20:52.999Z</time></trkpt><trkpt lat="44.68871081576324" lon="8.802408182067953"><ele>232.0</ele><time>2026-04-28T08:20:53.999Z</time></trkpt><trkpt lat="44.688675718519036" lon="8.80248484070354"><ele>232.0</ele><time>2026-04-28T08:20:54.999Z</time></trkpt><trkpt lat="44.688597621150876" lon="8.802586749615008"><ele>232.0</ele><time>2026-04-28T08:20:56.999Z</time></trkpt><trkpt lat="44.68853721729433" lon="8.802674646773346"><ele>232.0</ele><time>2026-04-28T08:20:58.999Z</time></trkpt><trkpt lat="44.68847911509764" lon="8.802797378182166"><ele>232.0</ele><time>2026-04-28T08:21:00.999Z</time></trkpt><trkpt lat="44.68843047749512" lon="8.802908146239629"><ele>231.99999999999997</ele><time>2026-04-28T08:21:02.999Z</time></trkpt><trkpt lat="44.6883882198131" lon="8.802983260483211"><ele>232.0</ele><time>2026-04-28T08:21:04.999Z</time></trkpt><trkpt lat="44.688341707309796" lon="8.803085449912222"><ele>232.0</ele><time>2026-04-28T08:21:07.999Z</time></trkpt><trkpt lat="44.688298938719576" lon="8.803173424807849"><ele>232.0</ele><time>2026-04-28T08:21:09.999Z</time></trkpt><trkpt lat="44.68827435355949" lon="8.803296870617071"><ele>231.99999999999997</ele><time>2026-04-28T08:21:12.999Z</time></trkpt><trkpt lat="44.688246984404685" lon="8.803401842205078"><ele>232.0</ele><time>2026-04-28T08:21:15.999Z</time></trkpt><trkpt lat="44.68822047457028" lon="8.803496450486474"><ele>231.83333333333331</ele><time>2026-04-28T08:21:18.999Z</time></trkpt><trkpt lat="44.68817132120175" lon="8.803593430032791"><ele>231.66666666666666</ele><time>2026-04-28T08:21:21.999Z</time></trkpt><trkpt lat="44.688114361117194" lon="8.803699601760743"><ele>231.5</ele><time>2026-04-28T08:21:24.999Z</time></trkpt><trkpt lat="44.68810047498025" lon="8.803845003076157"><ele>231.33333333333331</ele><time>2026-04-28T08:21:27.999Z</time></trkpt><trkpt lat="44.68810556705864" lon="8.803946309126166"><ele>231.16666666666666</ele><time>2026-04-28T08:21:29.999Z</time></trkpt><trkpt lat="44.68809479345174" lon="8.804057723114944"><ele>231.0</ele><time>2026-04-28T08:21:31.999Z</time></trkpt><trkpt lat="44.688079170122755" lon="8.804188219997643"><ele>231.0</ele><time>2026-04-28T08:21:34.999Z</time></trkpt><trkpt lat="44.688064080190124" lon="8.804297982600815"><ele>231.0</ele><time>2026-04-28T08:21:36.999Z</time></trkpt><trkpt lat="44.68808358213679" lon="8.804415829048333"><ele>231.0</ele><time>2026-04-28T08:21:38.999Z</time></trkpt><trkpt lat="44.68810023079048" lon="8.804530604892246"><ele>231.0</ele><time>2026-04-28T08:21:40.999Z</time></trkpt><trkpt lat="44.68811557435369" lon="8.804631949134048"><ele>231.0</ele><time>2026-04-28T08:21:42.999Z</time></trkpt><trkpt lat="44.688133133938095" lon="8.804717576097008"><ele>231.0</ele><time>2026-04-28T08:21:44.999Z</time></trkpt><trkpt lat="44.68815729603361" lon="8.80482942671421"><ele>230.85714285714286</ele><time>2026-04-28T08:21:46.999Z</time></trkpt><trkpt lat="44.68816762355886" lon="8.80492088942683"><ele>230.71428571428572</ele><time>2026-04-28T08:21:48.999Z</time></trkpt><trkpt lat="44.68817201913545" lon="8.805024591354746"><ele>230.57142857142856</ele><time>2026-04-28T08:21:50.999Z</time></trkpt><trkpt lat="44.68818328767754" lon="8.805121778859103"><ele>230.42857142857142</ele><time>2026-04-28T08:21:52.999Z</time></trkpt><trkpt lat="44.68819626077343" lon="8.80522436309999"><ele>230.28571428571428</ele><time>2026-04-28T08:21:54.999Z</time></trkpt><trkpt lat="44.688208745092304" lon="8.805319069217548"><ele>230.1428571428571</ele><time>2026-04-28T08:21:57Z</time></trkpt><trkpt lat="44.68822024987926" lon="8.805406344585949"><ele>229.99999999999997</ele><time>2026-04-28T08:21:59Z</time></trkpt><trkpt lat="44.68824027558402" lon="8.80552265210439"><ele>229.8</ele><time>2026-04-28T08:22:01Z</time></trkpt><trkpt lat="44.68822050672372" lon="8.805655991118096"><ele>229.6</ele><time>2026-04-28T08:22:03Z</time></trkpt><trkpt lat="44.68811675062118" lon="8.805708881269343"><ele>229.39999999999998</ele><time>2026-04-28T08:22:04Z</time></trkpt><trkpt lat="44.68808247792226" lon="8.805812004244851"><ele>229.2</ele><time>2026-04-28T08:22:05Z</time></trkpt><trkpt lat="44.68804777311405" lon="8.80594855436984"><ele>229.0</ele><time>2026-04-28T08:22:06Z</time></trkpt><trkpt lat="44.688005142168905" lon="8.806109266451786"><ele>229.6</ele><time>2026-04-28T08:22:07Z</time></trkpt><trkpt lat="44.68796436214466" lon="8.806270375896297"><ele>230.2</ele><time>2026-04-28T08:22:08Z</time></trkpt><trkpt lat="44.68792619475495" lon="8.806420030085384"><ele>230.79999999999998</ele><time>2026-04-28T08:22:09Z</time></trkpt><trkpt lat="44.687886633731836" lon="8.806565338691007"><ele>231.39999999999998</ele><time>2026-04-28T08:22:10Z</time></trkpt><trkpt lat="44.687848817467504" lon="8.806697113928026"><ele>232.0</ele><time>2026-04-28T08:22:11Z</time></trkpt><trkpt lat="44.68779372996403" lon="8.806803565030425"><ele>231.0</ele><time>2026-04-28T08:22:12Z</time></trkpt><trkpt lat="44.687709217833756" lon="8.806880672680265"><ele>230.0</ele><time>2026-04-28T08:22:13Z</time></trkpt><trkpt lat="44.687626112995794" lon="8.806913193525292"><ele>229.0</ele><time>2026-04-28T08:22:14Z</time></trkpt><trkpt lat="44.687543841309214" lon="8.80688472991711"><ele>228.0</ele><time>2026-04-28T08:22:15Z</time></trkpt><trkpt lat="44.68743813490124" lon="8.806853222115562"><ele>227.0</ele><time>2026-04-28T08:22:16Z</time></trkpt><trkpt lat="44.687314371077726" lon="8.806821926954232"><ele>225.75</ele><time>2026-04-28T08:22:17Z</time></trkpt><trkpt lat="44.68718867456015" lon="8.806780238766603"><ele>224.5</ele><time>2026-04-28T08:22:18Z</time></trkpt><trkpt lat="44.6870663160967" lon="8.80671425484089"><ele>223.25</ele><time>2026-04-28T08:22:19Z</time></trkpt><trkpt lat="44.6869506742471" lon="8.806633729757511"><ele>222.0</ele><time>2026-04-28T08:22:20Z</time></trkpt><trkpt lat="44.686839644382054" lon="8.806564465145865"><ele>220.75</ele><time>2026-04-28T08:22:21Z</time></trkpt><trkpt lat="44.686731255233724" lon="8.806516565602243"><ele>219.5</ele><time>2026-04-28T08:22:22Z</time></trkpt><trkpt lat="44.6866130134477" lon="8.806509164966453"><ele>218.25</ele><time>2026-04-28T08:22:23Z</time></trkpt><trkpt lat="44.68647668093451" lon="8.806525007223161"><ele>217.0</ele><time>2026-04-28T08:22:24Z</time></trkpt><trkpt lat="44.68632885379357" lon="8.806541212143602"><ele>217.0</ele><time>2026-04-28T08:22:25Z</time></trkpt><trkpt lat="44.6861749941649" lon="8.806544369803568"><ele>217.0</ele><time>2026-04-28T08:22:26Z</time></trkpt><trkpt lat="44.68603044046883" lon="8.806545984774141"><ele>217.0</ele><time>2026-04-28T08:22:27Z</time></trkpt><trkpt lat="44.685899439782766" lon="8.806533910204374"><ele>217.0</ele><time>2026-04-28T08:22:28Z</time></trkpt><trkpt lat="44.68576997296118" lon="8.806535142996212"><ele>217.25</ele><time>2026-04-28T08:22:29Z</time></trkpt><trkpt lat="44.685633106892915" lon="8.806567224875028"><ele>217.5</ele><time>2026-04-28T08:22:30Z</time></trkpt><trkpt lat="44.68548706583802" lon="8.806624063832835"><ele>217.75</ele><time>2026-04-28T08:22:31Z</time></trkpt><trkpt lat="44.68533991895385" lon="8.806687435172723"><ele>218.0</ele><time>2026-04-28T08:22:32Z</time></trkpt><trkpt lat="44.68519086609965" lon="8.806749005312282"><ele>218.0</ele><time>2026-04-28T08:22:33Z</time></trkpt><trkpt lat="44.68504659527504" lon="8.806810970354965"><ele>218.0</ele><time>2026-04-28T08:22:34Z</time></trkpt><trkpt lat="44.684904390944716" lon="8.806877428858568"><ele>218.0</ele><time>2026-04-28T08:22:35Z</time></trkpt><trkpt lat="44.68476149358446" lon="8.806956105137166"><ele>218.66666666666669</ele><time>2026-04-28T08:22:36Z</time></trkpt><trkpt lat="44.68460088320949" lon="8.80706106974558"><ele>219.33333333333331</ele><time>2026-04-28T08:22:37Z</time></trkpt><trkpt lat="44.68446120713302" lon="8.807162414755147"><ele>220.0</ele><time>2026-04-28T08:22:38Z</time></trkpt><trkpt lat="44.68432947002227" lon="8.807248214907231"><ele>220.0</ele><time>2026-04-28T08:22:39Z</time></trkpt><trkpt lat="44.68419096389299" lon="8.807322551683436"><ele>220.0</ele><time>2026-04-28T08:22:40Z</time></trkpt><trkpt lat="44.68404246702989" lon="8.807383964539687"><ele>220.0</ele><time>2026-04-28T08:22:41Z</time></trkpt><trkpt lat="44.683886059411705" lon="8.807440919742072"><ele>220.0</ele><time>2026-04-28T08:22:42Z</time></trkpt><trkpt lat="44.68371530740358" lon="8.807497529588865"><ele>220.0</ele><time>2026-04-28T08:22:43Z</time></trkpt><trkpt lat="44.68354103008877" lon="8.807560041892483"><ele>220.0</ele><time>2026-04-28T08:22:44Z</time></trkpt><trkpt lat="44.68336983842242" lon="8.807615898086324"><ele>220.66666666666666</ele><time>2026-04-28T08:22:45Z</time></trkpt><trkpt lat="44.68321397161307" lon="8.807669848749445"><ele>221.33333333333331</ele><time>2026-04-28T08:22:46Z</time></trkpt><trkpt lat="44.6830648681641" lon="8.807718181279231"><ele>222.0</ele><time>2026-04-28T08:22:47Z</time></trkpt><trkpt lat="44.68292700025457" lon="8.80775671370174"><ele>222.0</ele><time>2026-04-28T08:22:48Z</time></trkpt><trkpt lat="44.68279941091771" lon="8.807792860358058"><ele>222.0</ele><time>2026-04-28T08:22:49Z</time></trkpt><trkpt lat="44.68268180257404" lon="8.80783685255376"><ele>222.0</ele><time>2026-04-28T08:22:50Z</time></trkpt><trkpt lat="44.68257277166032" lon="8.807877265270164"><ele>222.0</ele><time>2026-04-28T08:22:51Z</time></trkpt><trkpt lat="44.682463563531584" lon="8.807936640253766"><ele>221.75</ele><time>2026-04-28T08:22:52Z</time></trkpt><trkpt lat="44.6823582936391" lon="8.808020598984848"><ele>221.5</ele><time>2026-04-28T08:22:53Z</time></trkpt><trkpt lat="44.68226124712539" lon="8.808137525270144"><ele>221.25</ele><time>2026-04-28T08:22:54Z</time></trkpt><trkpt lat="44.682165981349215" lon="8.808280227993555"><ele>221.0</ele><time>2026-04-28T08:22:55Z</time></trkpt><trkpt lat="44.682067644314365" lon="8.808457276569934"><ele>220.66666666666669</ele><time>2026-04-28T08:22:56Z</time></trkpt><trkpt lat="44.68195169172127" lon="8.808652979427002"><ele>220.33333333333331</ele><time>2026-04-28T08:22:56.999Z</time></trkpt><trkpt lat="44.681827393187454" lon="8.808876584060396"><ele>220.0</ele><time>2026-04-28T08:22:57.999Z</time></trkpt><trkpt lat="44.681693259873946" lon="8.809117355838318"><ele>220.0</ele><time>2026-04-28T08:22:58.999Z</time></trkpt><trkpt lat="44.68157431007956" lon="8.809333653430881"><ele>220.0</ele><time>2026-04-28T08:22:59.999Z</time></trkpt><trkpt lat="44.68146022739583" lon="8.809532119185668"><ele>220.0</ele><time>2026-04-28T08:23:00.999Z</time></trkpt><trkpt lat="44.6813530225488" lon="8.809722410360264"><ele>220.0</ele><time>2026-04-28T08:23:01.999Z</time></trkpt><trkpt lat="44.68125387322114" lon="8.809915066997775"><ele>220.0</ele><time>2026-04-28T08:23:02.999Z</time></trkpt><trkpt lat="44.68115566352083" lon="8.81010209108041"><ele>220.0</ele><time>2026-04-28T08:23:03.999Z</time></trkpt><trkpt lat="44.681056935564236" lon="8.810289576602342"><ele>219.66666666666666</ele><time>2026-04-28T08:23:04.999Z</time></trkpt><trkpt lat="44.68096484448552" lon="8.810470260660862"><ele>219.33333333333331</ele><time>2026-04-28T08:23:05.999Z</time></trkpt><trkpt lat="44.68086461932532" lon="8.810636282252217"><ele>219.0</ele><time>2026-04-28T08:23:06.999Z</time></trkpt><trkpt lat="44.68076536809743" lon="8.810796965984897"><ele>219.0</ele><time>2026-04-28T08:23:07.999Z</time></trkpt><trkpt lat="44.68066530599881" lon="8.810966788040322"><ele>219.0</ele><time>2026-04-28T08:23:08.999Z</time></trkpt><trkpt lat="44.680574516342865" lon="8.811124174384187"><ele>219.0</ele><time>2026-04-28T08:23:09.999Z</time></trkpt><trkpt lat="44.680488924291296" lon="8.811268247459104"><ele>219.0</ele><time>2026-04-28T08:23:10.999Z</time></trkpt><trkpt lat="44.68041572946171" lon="8.811410590224364"><ele>220.0</ele><time>2026-04-28T08:23:11.999Z</time></trkpt><trkpt lat="44.68036260569724" lon="8.81155743672445"><ele>221.0</ele><time>2026-04-28T08:23:12.999Z</time></trkpt><trkpt lat="44.680310599271756" lon="8.811691259178257"><ele>222.0</ele><time>2026-04-28T08:23:13.999Z</time></trkpt><trkpt lat="44.680221027787695" lon="8.811845252913146"><ele>223.0</ele><time>2026-04-28T08:23:14.999Z</time></trkpt><trkpt lat="44.68012161599828" lon="8.812027477578926"><ele>223.0</ele><time>2026-04-28T08:23:15.999Z</time></trkpt><trkpt lat="44.68002106261025" lon="8.812234060935415"><ele>223.0</ele><time>2026-04-28T08:23:16.999Z</time></trkpt><trkpt lat="44.67993544798198" lon="8.81245185508096"><ele>223.0</ele><time>2026-04-28T08:23:17.999Z</time></trkpt><trkpt lat="44.67986910444506" lon="8.812657860840723"><ele>224.5</ele><time>2026-04-28T08:23:18.999Z</time></trkpt><trkpt lat="44.67981498447466" lon="8.812859126408993"><ele>226.0</ele><time>2026-04-28T08:23:19.999Z</time></trkpt><trkpt lat="44.67978117687268" lon="8.813026879716588"><ele>227.5</ele><time>2026-04-28T08:23:20.999Z</time></trkpt><trkpt lat="44.67973321755374" lon="8.81313905460504"><ele>229.0</ele><time>2026-04-28T08:23:21.999Z</time></trkpt><trkpt lat="44.679653671147044" lon="8.813210270358411"><ele>229.0</ele><time>2026-04-28T08:23:24.999Z</time></trkpt><trkpt lat="44.679716545426636" lon="8.813144846835796"><ele>229.0</ele><time>2026-04-28T08:23:43.999Z</time></trkpt><trkpt lat="44.679575298061195" lon="8.813278976033647"><ele>229.0</ele><time>2026-04-28T08:23:47.999Z</time></trkpt><trkpt lat="44.67949234948017" lon="8.813349118924258"><ele>229.0</ele><time>2026-04-28T08:23:48.999Z</time></trkpt><trkpt lat="44.679390258977776" lon="8.813438445649677"><ele>227.5</ele><time>2026-04-28T08:23:49.999Z</time></trkpt><trkpt lat="44.67927161231772" lon="8.813531981243264"><ele>226.0</ele><time>2026-04-28T08:23:50.999Z</time></trkpt><trkpt lat="44.67915343282324" lon="8.813626519722234"><ele>224.5</ele><time>2026-04-28T08:23:51.999Z</time></trkpt><trkpt lat="44.6790268173067" lon="8.813728252658034"><ele>223.0</ele><time>2026-04-28T08:23:52.999Z</time></trkpt><trkpt lat="44.678891504476645" lon="8.81384266806611"><ele>223.0</ele><time>2026-04-28T08:23:53.999Z</time></trkpt><trkpt lat="44.67875419749014" lon="8.813952108971048"><ele>223.0</ele><time>2026-04-28T08:23:54.999Z</time></trkpt><trkpt lat="44.67863483955099" lon="8.814047263884845"><ele>223.0</ele><time>2026-04-28T08:23:55.999Z</time></trkpt><trkpt lat="44.678524891155234" lon="8.814105634474107"><ele>223.0</ele><time>2026-04-28T08:23:56.999Z</time></trkpt><trkpt lat="44.678400304008626" lon="8.814101841494928"><ele>222.75</ele><time>2026-04-28T08:23:57.999Z</time></trkpt><trkpt lat="44.67826181645759" lon="8.814073367633407"><ele>222.5</ele><time>2026-04-28T08:23:58.999Z</time></trkpt><trkpt lat="44.678123950771884" lon="8.814041203083978"><ele>222.25</ele><time>2026-04-28T08:23:59.999Z</time></trkpt><trkpt lat="44.67798642923179" lon="8.81404227458627"><ele>222.0</ele><time>2026-04-28T08:24:00.999Z</time></trkpt><trkpt lat="44.67784137514852" lon="8.814098422219072"><ele>222.33333333333331</ele><time>2026-04-28T08:24:01.999Z</time></trkpt><trkpt lat="44.67769168991616" lon="8.814199662765535"><ele>222.66666666666666</ele><time>2026-04-28T08:24:03Z</time></trkpt><trkpt lat="44.67755251666268" lon="8.814354911097693"><ele>223.0</ele><time>2026-04-28T08:24:04Z</time></trkpt><trkpt lat="44.67739529848553" lon="8.814540896152513"><ele>223.33333333333331</ele><time>2026-04-28T08:24:05Z</time></trkpt><trkpt lat="44.67723281319943" lon="8.814725374506544"><ele>223.66666666666669</ele><time>2026-04-28T08:24:06Z</time></trkpt><trkpt lat="44.67705719170699" lon="8.814912436368765"><ele>224.0</ele><time>2026-04-28T08:24:07Z</time></trkpt><trkpt lat="44.676887136336205" lon="8.815086246380117"><ele>224.33333333333334</ele><time>2026-04-28T08:24:08Z</time></trkpt><trkpt lat="44.676716082067955" lon="8.815269537299601"><ele>224.66666666666669</ele><time>2026-04-28T08:24:09Z</time></trkpt><trkpt lat="44.67656575951818" lon="8.815425188070591"><ele>225.0</ele><time>2026-04-28T08:24:10Z</time></trkpt><trkpt lat="44.67641960269122" lon="8.815580604495223"><ele>225.0</ele><time>2026-04-28T08:24:11Z</time></trkpt><trkpt lat="44.67627780551319" lon="8.815730841767307"><ele>225.0</ele><time>2026-04-28T08:24:12Z</time></trkpt><trkpt lat="44.676147394823246" lon="8.815868145743037"><ele>225.0</ele><time>2026-04-28T08:24:13Z</time></trkpt><trkpt lat="44.676018594722876" lon="8.81601272845872"><ele>227.66666666666669</ele><time>2026-04-28T08:24:14Z</time></trkpt><trkpt lat="44.67588864690224" lon="8.816156774814038"><ele>230.33333333333334</ele><time>2026-04-28T08:24:15Z</time></trkpt><trkpt lat="44.675764434690876" lon="8.816303190550055"><ele>233.0</ele><time>2026-04-28T08:24:16Z</time></trkpt><trkpt lat="44.6756405920975" lon="8.816466985087196"><ele>233.0</ele><time>2026-04-28T08:24:17Z</time></trkpt><trkpt lat="44.67552026181423" lon="8.816634192802725"><ele>233.0</ele><time>2026-04-28T08:24:18Z</time></trkpt><trkpt lat="44.675395502769504" lon="8.816810557460764"><ele>233.0</ele><time>2026-04-28T08:24:19Z</time></trkpt><trkpt lat="44.675274187446114" lon="8.81699319550274"><ele>234.0</ele><time>2026-04-28T08:24:20Z</time></trkpt><trkpt lat="44.67515828861994" lon="8.817187577429536"><ele>235.0</ele><time>2026-04-28T08:24:21Z</time></trkpt><trkpt lat="44.67504185044887" lon="8.817383849638736"><ele>236.0</ele><time>2026-04-28T08:24:22Z</time></trkpt><trkpt lat="44.67491717970884" lon="8.817585333595039"><ele>237.0</ele><time>2026-04-28T08:24:23Z</time></trkpt><trkpt lat="44.674788926766176" lon="8.81778749704682"><ele>238.0</ele><time>2026-04-28T08:24:24Z</time></trkpt><trkpt lat="44.67465523257367" lon="8.817994043240747"><ele>239.0</ele><time>2026-04-28T08:24:25Z</time></trkpt><trkpt lat="44.674516348320445" lon="8.818195805389484"><ele>238.66666666666669</ele><time>2026-04-28T08:24:26Z</time></trkpt><trkpt lat="44.67436584226347" lon="8.818383553715016"><ele>238.33333333333331</ele><time>2026-04-28T08:24:27Z</time></trkpt><trkpt lat="44.67421349184591" lon="8.818560316468739"><ele>238.0</ele><time>2026-04-28T08:24:28Z</time></trkpt><trkpt lat="44.674052852134594" lon="8.818720036692769"><ele>238.66666666666666</ele><time>2026-04-28T08:24:29Z</time></trkpt><trkpt lat="44.67388625872521" lon="8.818863895978062"><ele>239.33333333333331</ele><time>2026-04-28T08:24:30Z</time></trkpt><trkpt lat="44.673714166227015" lon="8.818995475406371"><ele>240.0</ele><time>2026-04-28T08:24:31Z</time></trkpt><trkpt lat="44.67353291509154" lon="8.819108871145753"><ele>240.0</ele><time>2026-04-28T08:24:32Z</time></trkpt><trkpt lat="44.67334382088411" lon="8.81919338590253"><ele>240.0</ele><time>2026-04-28T08:24:33Z</time></trkpt><trkpt lat="44.67313552177952" lon="8.819263275801417"><ele>240.0</ele><time>2026-04-28T08:24:34Z</time></trkpt><trkpt lat="44.672906959446365" lon="8.819327958368595"><ele>239.5</ele><time>2026-04-28T08:24:35Z</time></trkpt><trkpt lat="44.67267120680509" lon="8.81940206712331"><ele>239.0</ele><time>2026-04-28T08:24:36Z</time></trkpt><trkpt lat="44.67246359047273" lon="8.819464203766463"><ele>239.0</ele><time>2026-04-28T08:24:37Z</time></trkpt><trkpt lat="44.672271679810045" lon="8.819520141198508"><ele>239.0</ele><time>2026-04-28T08:24:38Z</time></trkpt><trkpt lat="44.67208769281456" lon="8.81956799124081"><ele>239.0</ele><time>2026-04-28T08:24:39Z</time></trkpt><trkpt lat="44.67190705645028" lon="8.819627661548"><ele>240.33333333333334</ele><time>2026-04-28T08:24:40Z</time></trkpt><trkpt lat="44.6717212782678" lon="8.819684571239561"><ele>241.66666666666669</ele><time>2026-04-28T08:24:41Z</time></trkpt><trkpt lat="44.67153096197293" lon="8.819743857787055"><ele>243.0</ele><time>2026-04-28T08:24:42Z</time></trkpt><trkpt lat="44.67133782893426" lon="8.81979925371068"><ele>243.0</ele><time>2026-04-28T08:24:43Z</time></trkpt><trkpt lat="44.67116320105495" lon="8.819853573900636"><ele>243.0</ele><time>2026-04-28T08:24:44Z</time></trkpt><trkpt lat="44.67098083426072" lon="8.819903180352487"><ele>243.0</ele><time>2026-04-28T08:24:45Z</time></trkpt><trkpt lat="44.67080290905452" lon="8.819955141187775"><ele>245.66666666666669</ele><time>2026-04-28T08:24:46Z</time></trkpt><trkpt lat="44.67062670694505" lon="8.820010433022004"><ele>248.33333333333334</ele><time>2026-04-28T08:24:47Z</time></trkpt><trkpt lat="44.670448456705245" lon="8.820061670234786"><ele>251.0</ele><time>2026-04-28T08:24:48Z</time></trkpt><trkpt lat="44.67027229991305" lon="8.820114772670383"><ele>250.33333333333334</ele><time>2026-04-28T08:24:49Z</time></trkpt><trkpt lat="44.67009697408043" lon="8.820169680515503"><ele>249.66666666666669</ele><time>2026-04-28T08:24:50Z</time></trkpt><trkpt lat="44.66992252436047" lon="8.820223002562694"><ele>249.0</ele><time>2026-04-28T08:24:51Z</time></trkpt><trkpt lat="44.669745524361296" lon="8.820268471165077"><ele>249.0</ele><time>2026-04-28T08:24:52Z</time></trkpt><trkpt lat="44.669574665245854" lon="8.820324946259953"><ele>249.0</ele><time>2026-04-28T08:24:53Z</time></trkpt><trkpt lat="44.669402103442586" lon="8.820394677609563"><ele>249.0</ele><time>2026-04-28T08:24:54Z</time></trkpt><trkpt lat="44.66922696517872" lon="8.820481980717629"><ele>249.33333333333331</ele><time>2026-04-28T08:24:55Z</time></trkpt><trkpt lat="44.66905914984789" lon="8.820594049866566"><ele>249.66666666666666</ele><time>2026-04-28T08:24:56Z</time></trkpt><trkpt lat="44.668896438583765" lon="8.820722125844863"><ele>250.0</ele><time>2026-04-28T08:24:57Z</time></trkpt><trkpt lat="44.66873653169843" lon="8.820859300352566"><ele>250.33333333333331</ele><time>2026-04-28T08:24:58Z</time></trkpt><trkpt lat="44.668576141909185" lon="8.820999272140305"><ele>250.66666666666669</ele><time>2026-04-28T08:24:59Z</time></trkpt><trkpt lat="44.66841854928112" lon="8.821141935358098"><ele>251.0</ele><time>2026-04-28T08:25:00Z</time></trkpt><trkpt lat="44.66826266212041" lon="8.821294503888586"><ele>251.0</ele><time>2026-04-28T08:25:01Z</time></trkpt><trkpt lat="44.66811033072982" lon="8.821442524457119"><ele>251.0</ele><time>2026-04-28T08:25:02Z</time></trkpt><trkpt lat="44.66796130111693" lon="8.821575509193124"><ele>251.0</ele><time>2026-04-28T08:25:03Z</time></trkpt><trkpt lat="44.667807402114626" lon="8.821704440747077"><ele>252.0</ele><time>2026-04-28T08:25:04Z</time></trkpt><trkpt lat="44.66765419621835" lon="8.821833953550241"><ele>253.0</ele><time>2026-04-28T08:25:05Z</time></trkpt><trkpt lat="44.66749448352579" lon="8.821964013227122"><ele>254.0</ele><time>2026-04-28T08:25:05.999Z</time></trkpt><trkpt lat="44.66733343751846" lon="8.822095485550667"><ele>254.0</ele><time>2026-04-28T08:25:06.999Z</time></trkpt><trkpt lat="44.667175339754024" lon="8.822226755159546"><ele>254.0</ele><time>2026-04-28T08:25:07.999Z</time></trkpt><trkpt lat="44.66701703578091" lon="8.822365331821945"><ele>254.0</ele><time>2026-04-28T08:25:08.999Z</time></trkpt><trkpt lat="44.66686235918506" lon="8.822508405793588"><ele>254.66666666666669</ele><time>2026-04-28T08:25:09.999Z</time></trkpt><trkpt lat="44.666713858224675" lon="8.822666490646776"><ele>255.33333333333331</ele><time>2026-04-28T08:25:10.999Z</time></trkpt><trkpt lat="44.66656712501661" lon="8.822839714427962"><ele>256.0</ele><time>2026-04-28T08:25:11.999Z</time></trkpt><trkpt lat="44.666431622064074" lon="8.823016446640898"><ele>256.0</ele><time>2026-04-28T08:25:12.999Z</time></trkpt><trkpt lat="44.666305703518574" lon="8.823196001941708"><ele>256.0</ele><time>2026-04-28T08:25:13.999Z</time></trkpt><trkpt lat="44.666180569726826" lon="8.823370090297919"><ele>256.0</ele><time>2026-04-28T08:25:14.999Z</time></trkpt><trkpt lat="44.66605150209723" lon="8.823534586721829"><ele>255.33333333333331</ele><time>2026-04-28T08:25:15.999Z</time></trkpt><trkpt lat="44.665912491039904" lon="8.823681498241468"><ele>254.66666666666669</ele><time>2026-04-28T08:25:16.999Z</time></trkpt><trkpt lat="44.665763716158885" lon="8.823811960841754"><ele>254.0</ele><time>2026-04-28T08:25:17.999Z</time></trkpt><trkpt lat="44.66561183445155" lon="8.823933703828372"><ele>254.0</ele><time>2026-04-28T08:25:18.999Z</time></trkpt><trkpt lat="44.66545355933665" lon="8.82405429931937"><ele>254.0</ele><time>2026-04-28T08:25:19.999Z</time></trkpt><trkpt lat="44.665294954039844" lon="8.824179097204867"><ele>254.0</ele><time>2026-04-28T08:25:20.999Z</time></trkpt><trkpt lat="44.66513846527412" lon="8.824299530461541"><ele>255.33333333333334</ele><time>2026-04-28T08:25:21.999Z</time></trkpt><trkpt lat="44.66497835723243" lon="8.824415585324608"><ele>256.6666666666667</ele><time>2026-04-28T08:25:22.999Z</time></trkpt><trkpt lat="44.66481994414896" lon="8.824524477861779"><ele>258.0</ele><time>2026-04-28T08:25:23.999Z</time></trkpt><trkpt lat="44.66465609534129" lon="8.82463109443345"><ele>258.0</ele><time>2026-04-28T08:25:24.999Z</time></trkpt><trkpt lat="44.66449348339109" lon="8.824733596920806"><ele>258.0</ele><time>2026-04-28T08:25:25.999Z</time></trkpt><trkpt lat="44.66433143924329" lon="8.824838444206629"><ele>258.0</ele><time>2026-04-28T08:25:26.999Z</time></trkpt><trkpt lat="44.664167533169575" lon="8.824940596993464"><ele>257.0</ele><time>2026-04-28T08:25:27.999Z</time></trkpt><trkpt lat="44.66400605123763" lon="8.825046703486375"><ele>256.0</ele><time>2026-04-28T08:25:28.999Z</time></trkpt><trkpt lat="44.663843626256224" lon="8.82515013606652"><ele>255.0</ele><time>2026-04-28T08:25:29.999Z</time></trkpt><trkpt lat="44.66367570827963" lon="8.825256926091075"><ele>254.66666666666669</ele><time>2026-04-28T08:25:30.999Z</time></trkpt><trkpt lat="44.66351544304296" lon="8.825358008084358"><ele>254.33333333333334</ele><time>2026-04-28T08:25:31.999Z</time></trkpt><trkpt lat="44.66335934279095" lon="8.82545927064523"><ele>254.0</ele><time>2026-04-28T08:25:32.999Z</time></trkpt><trkpt lat="44.66320933222041" lon="8.825556880903601"><ele>254.0</ele><time>2026-04-28T08:25:33.999Z</time></trkpt><trkpt lat="44.663062794707194" lon="8.825655060453514"><ele>254.0</ele><time>2026-04-28T08:25:34.999Z</time></trkpt><trkpt lat="44.662921324295475" lon="8.825762413595282"><ele>254.0</ele><time>2026-04-28T08:25:35.999Z</time></trkpt><trkpt lat="44.66278445541761" lon="8.825893076725183"><ele>252.0</ele><time>2026-04-28T08:25:36.999Z</time></trkpt><trkpt lat="44.66265536939932" lon="8.826069210325214"><ele>250.0</ele><time>2026-04-28T08:25:37.999Z</time></trkpt><trkpt lat="44.66252817863475" lon="8.826266374376514"><ele>248.0</ele><time>2026-04-28T08:25:38.999Z</time></trkpt><trkpt lat="44.66241400487244" lon="8.82649319797113"><ele>248.0</ele><time>2026-04-28T08:25:39.999Z</time></trkpt><trkpt lat="44.66230899062601" lon="8.826747364070917"><ele>248.0</ele><time>2026-04-28T08:25:40.999Z</time></trkpt><trkpt lat="44.66220498441761" lon="8.82701144968729"><ele>248.0</ele><time>2026-04-28T08:25:41.999Z</time></trkpt><trkpt lat="44.66210243269851" lon="8.827270712643694"><ele>248.66666666666669</ele><time>2026-04-28T08:25:42.999Z</time></trkpt><trkpt lat="44.662008315451956" lon="8.827517995071878"><ele>249.33333333333331</ele><time>2026-04-28T08:25:43.999Z</time></trkpt><trkpt lat="44.66191997973305" lon="8.8277632785129"><ele>250.0</ele><time>2026-04-28T08:25:44.999Z</time></trkpt><trkpt lat="44.6618235869662" lon="8.82800333399369"><ele>250.0</ele><time>2026-04-28T08:25:45.999Z</time></trkpt><trkpt lat="44.66173458243324" lon="8.828224379610818"><ele>250.0</ele><time>2026-04-28T08:25:46.999Z</time></trkpt><trkpt lat="44.66165449114276" lon="8.828429969329754"><ele>250.0</ele><time>2026-04-28T08:25:47.999Z</time></trkpt><trkpt lat="44.66157612148165" lon="8.828633295752692"><ele>250.66666666666666</ele><time>2026-04-28T08:25:48.999Z</time></trkpt><trkpt lat="44.661492774670116" lon="8.828834587357063"><ele>251.33333333333331</ele><time>2026-04-28T08:25:49.999Z</time></trkpt><trkpt lat="44.66141284582301" lon="8.829034323372156"><ele>252.0</ele><time>2026-04-28T08:25:50.999Z</time></trkpt><trkpt lat="44.661332158381654" lon="8.829233611118648"><ele>252.0</ele><time>2026-04-28T08:25:51.999Z</time></trkpt><trkpt lat="44.66124423600243" lon="8.829422141926054"><ele>252.0</ele><time>2026-04-28T08:25:52.999Z</time></trkpt><trkpt lat="44.6611581845828" lon="8.82960295577906"><ele>252.0</ele><time>2026-04-28T08:25:53.999Z</time></trkpt><trkpt lat="44.6610560143045" lon="8.829769982301682"><ele>252.0</ele><time>2026-04-28T08:25:54.999Z</time></trkpt><trkpt lat="44.66093640786819" lon="8.829917045101892"><ele>252.0</ele><time>2026-04-28T08:25:55.999Z</time></trkpt><trkpt lat="44.66081122990154" lon="8.830057182795068"><ele>252.0</ele><time>2026-04-28T08:25:56.999Z</time></trkpt><trkpt lat="44.66068394022558" lon="8.830215262887416"><ele>251.66666666666669</ele><time>2026-04-28T08:25:57.999Z</time></trkpt><trkpt lat="44.6605534190811" lon="8.830366216802501"><ele>251.33333333333334</ele><time>2026-04-28T08:25:58.999Z</time></trkpt><trkpt lat="44.66042776581432" lon="8.830517442160408"><ele>251.0</ele><time>2026-04-28T08:25:59.999Z</time></trkpt><trkpt lat="44.660307389683325" lon="8.830666631883178"><ele>251.66666666666669</ele><time>2026-04-28T08:26:00.999Z</time></trkpt><trkpt lat="44.66018194128006" lon="8.830821012881504"><ele>252.33333333333331</ele><time>2026-04-28T08:26:01.999Z</time></trkpt><trkpt lat="44.6600522865895" lon="8.83097344550731"><ele>253.0</ele><time>2026-04-28T08:26:02.999Z</time></trkpt><trkpt lat="44.659941228920836" lon="8.831105479176998"><ele>254.25</ele><time>2026-04-28T08:26:03.999Z</time></trkpt><trkpt lat="44.65983735220912" lon="8.83121827040241"><ele>255.5</ele><time>2026-04-28T08:26:04.999Z</time></trkpt><trkpt lat="44.659729246694255" lon="8.831331692284849"><ele>256.75</ele><time>2026-04-28T08:26:05.999Z</time></trkpt><trkpt lat="44.65962758550095" lon="8.831420883237357"><ele>258.0</ele><time>2026-04-28T08:26:06.999Z</time></trkpt><trkpt lat="44.65950183946041" lon="8.83147424984208"><ele>259.5</ele><time>2026-04-28T08:26:07.999Z</time></trkpt><trkpt lat="44.65938079273215" lon="8.831469101094127"><ele>261.0</ele><time>2026-04-28T08:26:09Z</time></trkpt><trkpt lat="44.659267687557154" lon="8.83143473394341"><ele>262.5</ele><time>2026-04-28T08:26:10Z</time></trkpt><trkpt lat="44.65914065102718" lon="8.831368220355113"><ele>264.0</ele><time>2026-04-28T08:26:11Z</time></trkpt><trkpt lat="44.65903283878039" lon="8.83128485409493"><ele>264.0</ele><time>2026-04-28T08:26:12Z</time></trkpt><trkpt lat="44.65891484337661" lon="8.831188308574554"><ele>264.0</ele><time>2026-04-28T08:26:13Z</time></trkpt><trkpt lat="44.65878622149188" lon="8.831090123174977"><ele>264.0</ele><time>2026-04-28T08:26:14Z</time></trkpt><trkpt lat="44.65865024556775" lon="8.8309839558421"><ele>264.0</ele><time>2026-04-28T08:26:15Z</time></trkpt><trkpt lat="44.65850406994026" lon="8.830886161844049"><ele>266.6666666666667</ele><time>2026-04-28T08:26:16Z</time></trkpt><trkpt lat="44.65834544659335" lon="8.830800982349997"><ele>269.33333333333337</ele><time>2026-04-28T08:26:17Z</time></trkpt><trkpt lat="44.65816900925473" lon="8.83071765236588"><ele>272.0</ele><time>2026-04-28T08:26:18Z</time></trkpt><trkpt lat="44.65797015905325" lon="8.830631454273963"><ele>272.0</ele><time>2026-04-28T08:26:19Z</time></trkpt><trkpt lat="44.65778668475412" lon="8.83054590003017"><ele>272.0</ele><time>2026-04-28T08:26:20Z</time></trkpt><trkpt lat="44.65762210387136" lon="8.830469904766632"><ele>272.0</ele><time>2026-04-28T08:26:21Z</time></trkpt><trkpt lat="44.657476895561985" lon="8.83041611735127"><ele>273.25</ele><time>2026-04-28T08:26:22Z</time></trkpt><trkpt lat="44.65734953088155" lon="8.830359438890865"><ele>274.5</ele><time>2026-04-28T08:26:23Z</time></trkpt><trkpt lat="44.657229800754145" lon="8.830304591098042"><ele>275.75</ele><time>2026-04-28T08:26:24Z</time></trkpt><trkpt lat="44.65709980473123" lon="8.830278045539982"><ele>277.0</ele><time>2026-04-28T08:26:25Z</time></trkpt><trkpt lat="44.65696012219259" lon="8.830285616361355"><ele>276.66666666666663</ele><time>2026-04-28T08:26:26Z</time></trkpt><trkpt lat="44.656795700733525" lon="8.830321239206288"><ele>276.3333333333333</ele><time>2026-04-28T08:26:27Z</time></trkpt><trkpt lat="44.656630903487624" lon="8.830344854190447"><ele>276.0</ele><time>2026-04-28T08:26:28Z</time></trkpt><trkpt lat="44.65645812961546" lon="8.830361830443588"><ele>276.0</ele><time>2026-04-28T08:26:29Z</time></trkpt><trkpt lat="44.656286905473436" lon="8.830377840798132"><ele>276.0</ele><time>2026-04-28T08:26:30Z</time></trkpt><trkpt lat="44.65612492998462" lon="8.830395920778427"><ele>276.0</ele><time>2026-04-28T08:26:31Z</time></trkpt><trkpt lat="44.65597487389466" lon="8.8304142302845"><ele>276.25</ele><time>2026-04-28T08:26:32Z</time></trkpt><trkpt lat="44.6558360896375" lon="8.83042915283136"><ele>276.5</ele><time>2026-04-28T08:26:33Z</time></trkpt><trkpt lat="44.6556952342804" lon="8.830438229228506"><ele>276.75</ele><time>2026-04-28T08:26:34Z</time></trkpt><trkpt lat="44.65554904876713" lon="8.830442893430698"><ele>277.0</ele><time>2026-04-28T08:26:35Z</time></trkpt><trkpt lat="44.65539767875556" lon="8.830444422801804"><ele>277.0</ele><time>2026-04-28T08:26:36Z</time></trkpt><trkpt lat="44.655248156134604" lon="8.830355296937453"><ele>277.0</ele><time>2026-04-28T08:26:37Z</time></trkpt><trkpt lat="44.65509066344538" lon="8.830443047393945"><ele>277.0</ele><time>2026-04-28T08:26:38Z</time></trkpt><trkpt lat="44.6549359673274" lon="8.83044657745585"><ele>277.0</ele><time>2026-04-28T08:26:39Z</time></trkpt><trkpt lat="44.654781365084965" lon="8.830452216651324"><ele>277.0</ele><time>2026-04-28T08:26:40Z</time></trkpt><trkpt lat="44.65463137723903" lon="8.830452877769952"><ele>277.0</ele><time>2026-04-28T08:26:41Z</time></trkpt><trkpt lat="44.654477786446705" lon="8.830455123035843"><ele>278.3333333333333</ele><time>2026-04-28T08:26:42Z</time></trkpt><trkpt lat="44.65432398919191" lon="8.830460508872164"><ele>279.6666666666667</ele><time>2026-04-28T08:26:43Z</time></trkpt><trkpt lat="44.654167575005395" lon="8.830463380070807"><ele>281.0</ele><time>2026-04-28T08:26:44Z</time></trkpt><trkpt lat="44.65401331194778" lon="8.830468500869289"><ele>281.0</ele><time>2026-04-28T08:26:45Z</time></trkpt><trkpt lat="44.65385362148415" lon="8.83047263704012"><ele>281.0</ele><time>2026-04-28T08:26:46Z</time></trkpt><trkpt lat="44.65369586285755" lon="8.830479557825369"><ele>281.0</ele><time>2026-04-28T08:26:47Z</time></trkpt><trkpt lat="44.6535392279469" lon="8.830485577767604"><ele>280.0</ele><time>2026-04-28T08:26:48Z</time></trkpt><trkpt lat="44.65338118263924" lon="8.830489900259291"><ele>279.0</ele><time>2026-04-28T08:26:49Z</time></trkpt><trkpt lat="44.6532314492159" lon="8.830483600956354"><ele>278.0</ele><time>2026-04-28T08:26:50Z</time></trkpt><trkpt lat="44.653085502764476" lon="8.83044773569317"><ele>278.0</ele><time>2026-04-28T08:26:51Z</time></trkpt><trkpt lat="44.65294830730957" lon="8.830384252970434"><ele>278.0</ele><time>2026-04-28T08:26:52Z</time></trkpt><trkpt lat="44.65282268069042" lon="8.830313092454888"><ele>278.0</ele><time>2026-04-28T08:26:53Z</time></trkpt><trkpt lat="44.65269436273807" lon="8.830277564673196"><ele>278.0</ele><time>2026-04-28T08:26:54Z</time></trkpt><trkpt lat="44.652557496438796" lon="8.830288126988204"><ele>276.0</ele><time>2026-04-28T08:26:55Z</time></trkpt><trkpt lat="44.65240556867466" lon="8.830316641545481"><ele>274.0</ele><time>2026-04-28T08:26:56Z</time></trkpt><trkpt lat="44.65224755368668" lon="8.830341957900105"><ele>272.0</ele><time>2026-04-28T08:26:57Z</time></trkpt><trkpt lat="44.652105176092334" lon="8.830374387905357"><ele>272.0</ele><time>2026-04-28T08:26:58Z</time></trkpt><trkpt lat="44.6519652796191" lon="8.830449166724147"><ele>272.0</ele><time>2026-04-28T08:26:59Z</time></trkpt><trkpt lat="44.651827075949875" lon="8.830545189730882"><ele>272.0</ele><time>2026-04-28T08:27:00Z</time></trkpt><trkpt lat="44.65168703278865" lon="8.83063568736738"><ele>273.25</ele><time>2026-04-28T08:27:01Z</time></trkpt><trkpt lat="44.65155552621551" lon="8.830730661255288"><ele>274.5</ele><time>2026-04-28T08:27:02Z</time></trkpt><trkpt lat="44.651426126931455" lon="8.830837095395161"><ele>275.75</ele><time>2026-04-28T08:27:03Z</time></trkpt><trkpt lat="44.65130700767384" lon="8.830947180809265"><ele>277.0</ele><time>2026-04-28T08:27:04Z</time></trkpt><trkpt lat="44.65118398819391" lon="8.831050829332117"><ele>275.0</ele><time>2026-04-28T08:27:05Z</time></trkpt><trkpt lat="44.651056895855824" lon="8.831152843162942"><ele>273.0</ele><time>2026-04-28T08:27:06Z</time></trkpt><trkpt lat="44.65090815475321" lon="8.831245865133509"><ele>271.0</ele><time>2026-04-28T08:27:07Z</time></trkpt><trkpt lat="44.65075904180223" lon="8.831326047744975"><ele>271.0</ele><time>2026-04-28T08:27:07.999Z</time></trkpt><trkpt lat="44.65060191638159" lon="8.83141282796044"><ele>271.0</ele><time>2026-04-28T08:27:08.999Z</time></trkpt><trkpt lat="44.65043720640575" lon="8.831514275760087"><ele>271.0</ele><time>2026-04-28T08:27:09.999Z</time></trkpt><trkpt lat="44.65026742827831" lon="8.831609294133735"><ele>270.0</ele><time>2026-04-28T08:27:10.999Z</time></trkpt><trkpt lat="44.65010173075337" lon="8.83170773159599"><ele>269.0</ele><time>2026-04-28T08:27:11.999Z</time></trkpt><trkpt lat="44.649932802905155" lon="8.831806585207286"><ele>268.0</ele><time>2026-04-28T08:27:12.999Z</time></trkpt><trkpt lat="44.649769219591775" lon="8.831904505789419"><ele>268.0</ele><time>2026-04-28T08:27:13.999Z</time></trkpt><trkpt lat="44.64959837400054" lon="8.83201740488726"><ele>268.0</ele><time>2026-04-28T08:27:14.999Z</time></trkpt><trkpt lat="44.64944665396265" lon="8.832128028904888"><ele>268.0</ele><time>2026-04-28T08:27:15.999Z</time></trkpt><trkpt lat="44.649326411751986" lon="8.832213045113626"><ele>270.0</ele><time>2026-04-28T08:27:16.999Z</time></trkpt><trkpt lat="44.64922922623862" lon="8.83227583549432"><ele>272.0</ele><time>2026-04-28T08:27:17.999Z</time></trkpt><trkpt lat="44.64911887394711" lon="8.832283759226451"><ele>274.0</ele><time>2026-04-28T08:27:18.999Z</time></trkpt><trkpt lat="44.64900793387296" lon="8.832238548513672"><ele>276.0</ele><time>2026-04-28T08:27:19.999Z</time></trkpt><trkpt lat="44.64891855671338" lon="8.832138338746699"><ele>278.0</ele><time>2026-04-28T08:27:20.999Z</time></trkpt><trkpt lat="44.648843563494516" lon="8.831994101139399"><ele>278.0</ele><time>2026-04-28T08:27:21.999Z</time></trkpt><trkpt lat="44.648773356210505" lon="8.831843950437731"><ele>278.0</ele><time>2026-04-28T08:27:22.999Z</time></trkpt><trkpt lat="44.64869716566363" lon="8.83170463923173"><ele>278.0</ele><time>2026-04-28T08:27:23.999Z</time></trkpt><trkpt lat="44.648591503545305" lon="8.831588090558837"><ele>278.0</ele><time>2026-04-28T08:27:24.999Z</time></trkpt><trkpt lat="44.64847166113417" lon="8.831518570179536"><ele>279.33333333333337</ele><time>2026-04-28T08:27:25.999Z</time></trkpt><trkpt lat="44.64833820342423" lon="8.831493955593725"><ele>280.6666666666667</ele><time>2026-04-28T08:27:26.999Z</time></trkpt><trkpt lat="44.64819138518041" lon="8.831478192311685"><ele>282.0</ele><time>2026-04-28T08:27:27.999Z</time></trkpt><trkpt lat="44.64800922942233" lon="8.831458476689464"><ele>282.0</ele><time>2026-04-28T08:27:28.999Z</time></trkpt><trkpt lat="44.647811526231806" lon="8.831454491184983"><ele>282.0</ele><time>2026-04-28T08:27:29.999Z</time></trkpt><trkpt lat="44.647627460873665" lon="8.831423246626596"><ele>282.0</ele><time>2026-04-28T08:27:30.999Z</time></trkpt><trkpt lat="44.64743328946618" lon="8.831460027829033"><ele>277.0</ele><time>2026-04-28T08:27:31.999Z</time></trkpt><trkpt lat="44.64722893515448" lon="8.831556080217666"><ele>272.0</ele><time>2026-04-28T08:27:32.999Z</time></trkpt><trkpt lat="44.646991805059784" lon="8.831668568686865"><ele>271.0</ele><time>2026-04-28T08:27:33.999Z</time></trkpt><trkpt lat="44.64674145787798" lon="8.831782009894027"><ele>270.0</ele><time>2026-04-28T08:27:34.999Z</time></trkpt><trkpt lat="44.64647410452653" lon="8.831880304328061"><ele>270.0</ele><time>2026-04-28T08:27:35.999Z</time></trkpt><trkpt lat="44.646239693304004" lon="8.83193626354555"><ele>270.0</ele><time>2026-04-28T08:27:36.999Z</time></trkpt><trkpt lat="44.64602322439975" lon="8.831968680781708"><ele>272.6666666666667</ele><time>2026-04-28T08:27:37.999Z</time></trkpt><trkpt lat="44.64581142496129" lon="8.832048081109004"><ele>275.33333333333337</ele><time>2026-04-28T08:27:38.999Z</time></trkpt><trkpt lat="44.645601485831264" lon="8.832148569998084"><ele>278.0</ele><time>2026-04-28T08:27:39.999Z</time></trkpt><trkpt lat="44.64541723684881" lon="8.832242556063857"><ele>279.0</ele><time>2026-04-28T08:27:40.999Z</time></trkpt><trkpt lat="44.64524722163268" lon="8.832334474055688"><ele>280.0</ele><time>2026-04-28T08:27:41.999Z</time></trkpt><trkpt lat="44.64508158112271" lon="8.832439787646615"><ele>281.0</ele><time>2026-04-28T08:27:42.999Z</time></trkpt><trkpt lat="44.64492178062835" lon="8.832550230783143"><ele>281.33333333333337</ele><time>2026-04-28T08:27:43.999Z</time></trkpt><trkpt lat="44.644761886264064" lon="8.832662764615062"><ele>281.6666666666667</ele><time>2026-04-28T08:27:44.999Z</time></trkpt><trkpt lat="44.644609207296" lon="8.832771736707011"><ele>282.0</ele><time>2026-04-28T08:27:45.999Z</time></trkpt><trkpt lat="44.64444893474807" lon="8.832857567345396"><ele>284.0</ele><time>2026-04-28T08:27:46.999Z</time></trkpt><trkpt lat="44.64428561971266" lon="8.832923647944286"><ele>286.0</ele><time>2026-04-28T08:27:47.999Z</time></trkpt><trkpt lat="44.644110524566315" lon="8.832974689345575"><ele>288.0</ele><time>2026-04-28T08:27:48.999Z</time></trkpt><trkpt lat="44.64393247546379" lon="8.833025736746645"><ele>288.0</ele><time>2026-04-28T08:27:49.999Z</time></trkpt><trkpt lat="44.64374846751102" lon="8.83308136260153"><ele>288.0</ele><time>2026-04-28T08:27:50.999Z</time></trkpt><trkpt lat="44.643564814494646" lon="8.833145290088378"><ele>288.0</ele><time>2026-04-28T08:27:51.999Z</time></trkpt><trkpt lat="44.6433731183246" lon="8.833209674517526"><ele>290.6666666666667</ele><time>2026-04-28T08:27:52.999Z</time></trkpt><trkpt lat="44.64319201679415" lon="8.83327167976437"><ele>293.33333333333337</ele><time>2026-04-28T08:27:53.999Z</time></trkpt><trkpt lat="44.64303041440387" lon="8.833333736863432"><ele>296.0</ele><time>2026-04-28T08:27:54.999Z</time></trkpt><trkpt lat="44.64287589280827" lon="8.833397512212292"><ele>296.33333333333337</ele><time>2026-04-28T08:27:55.999Z</time></trkpt><trkpt lat="44.64271912861326" lon="8.833454872036585"><ele>296.6666666666667</ele><time>2026-04-28T08:27:56.999Z</time></trkpt><trkpt lat="44.642559233785185" lon="8.833520759691389"><ele>297.0</ele><time>2026-04-28T08:27:57.999Z</time></trkpt><trkpt lat="44.64240121305026" lon="8.833606565266114"><ele>297.0</ele><time>2026-04-28T08:27:58.999Z</time></trkpt><trkpt lat="44.64224729267861" lon="8.833696924167855"><ele>297.0</ele><time>2026-04-28T08:27:59.999Z</time></trkpt><trkpt lat="44.64208861793201" lon="8.833795958808428"><ele>297.0</ele><time>2026-04-28T08:28:00.999Z</time></trkpt><trkpt lat="44.641924241419225" lon="8.83390132622783"><ele>300.0</ele><time>2026-04-28T08:28:01.999Z</time></trkpt><trkpt lat="44.64176874015541" lon="8.834003696801869"><ele>303.0</ele><time>2026-04-28T08:28:02.999Z</time></trkpt><trkpt lat="44.64161164497649" lon="8.834098616443356"><ele>306.0</ele><time>2026-04-28T08:28:03.999Z</time></trkpt><trkpt lat="44.64145005278346" lon="8.834190114061055"><ele>306.0</ele><time>2026-04-28T08:28:04.999Z</time></trkpt><trkpt lat="44.64127974491254" lon="8.834275714151733"><ele>306.0</ele><time>2026-04-28T08:28:05.999Z</time></trkpt><trkpt lat="44.64110423500109" lon="8.834347509436666"><ele>306.0</ele><time>2026-04-28T08:28:06.999Z</time></trkpt><trkpt lat="44.64095628489207" lon="8.834411742143025"><ele>302.75</ele><time>2026-04-28T08:28:07.999Z</time></trkpt><trkpt lat="44.64081185674484" lon="8.834447254654851"><ele>299.5</ele><time>2026-04-28T08:28:08.999Z</time></trkpt><trkpt lat="44.64068744638329" lon="8.834435345145382"><ele>296.25</ele><time>2026-04-28T08:28:09.999Z</time></trkpt><trkpt lat="44.640567090712004" lon="8.834392367167812"><ele>293.0</ele><time>2026-04-28T08:28:10.999Z</time></trkpt><trkpt lat="44.64046161324056" lon="8.83434705623043"><ele>294.75</ele><time>2026-04-28T08:28:11.999Z</time></trkpt><trkpt lat="44.64034835975081" lon="8.83430352381768"><ele>296.5</ele><time>2026-04-28T08:28:12.999Z</time></trkpt><trkpt lat="44.64024050470918" lon="8.834286778892666"><ele>298.25</ele><time>2026-04-28T08:28:13.999Z</time></trkpt><trkpt lat="44.64011624918275" lon="8.834294200286536"><ele>300.0</ele><time>2026-04-28T08:28:15Z</time></trkpt><trkpt lat="44.639991160835244" lon="8.834319711627868"><ele>300.0</ele><time>2026-04-28T08:28:16Z</time></trkpt><trkpt lat="44.639870309997676" lon="8.834368684980074"><ele>300.0</ele><time>2026-04-28T08:28:17Z</time></trkpt><trkpt lat="44.6397626492728" lon="8.834424543127792"><ele>300.0</ele><time>2026-04-28T08:28:18Z</time></trkpt><trkpt lat="44.63966850917182" lon="8.834503540537254"><ele>300.0</ele><time>2026-04-28T08:28:19Z</time></trkpt><trkpt lat="44.639573541298184" lon="8.83461797940752"><ele>300.0</ele><time>2026-04-28T08:28:20Z</time></trkpt><trkpt lat="44.6394991462585" lon="8.834769460857382"><ele>300.0</ele><time>2026-04-28T08:28:21Z</time></trkpt><trkpt lat="44.63942811480377" lon="8.834910532400286"><ele>300.0</ele><time>2026-04-28T08:28:22Z</time></trkpt><trkpt lat="44.639325357262706" lon="8.835025698825866"><ele>300.0</ele><time>2026-04-28T08:28:23Z</time></trkpt><trkpt lat="44.63919121171467" lon="8.835125727716054"><ele>303.0</ele><time>2026-04-28T08:28:24Z</time></trkpt><trkpt lat="44.63905341986582" lon="8.835191791806585"><ele>306.0</ele><time>2026-04-28T08:28:25Z</time></trkpt><trkpt lat="44.63893561651526" lon="8.835239135421675"><ele>309.0</ele><time>2026-04-28T08:28:26Z</time></trkpt><trkpt lat="44.638840313806504" lon="8.835275240734621"><ele>312.0</ele><time>2026-04-28T08:28:27Z</time></trkpt><trkpt lat="44.638765327821645" lon="8.835305809694066"><ele>315.0</ele><time>2026-04-28T08:28:28Z</time></trkpt><trkpt lat="44.63869130870723" lon="8.835374248125163"><ele>316.4</ele><time>2026-04-28T08:29:36.999Z</time></trkpt><trkpt lat="44.63860408650873" lon="8.835420089020513"><ele>317.8</ele><time>2026-04-28T08:29:37.999Z</time></trkpt><trkpt lat="44.63853386749161" lon="8.835480655098948"><ele>319.20000000000005</ele><time>2026-04-28T08:29:38.999Z</time></trkpt><trkpt lat="44.638478643535244" lon="8.835542179332654"><ele>320.6</ele><time>2026-04-28T08:29:39.999Z</time></trkpt><trkpt lat="44.638435237406085" lon="8.835677353491088"><ele>322.0</ele><time>2026-04-28T08:29:40.999Z</time></trkpt><trkpt lat="44.63840830177236" lon="8.835826738903586"><ele>321.66666666666663</ele><time>2026-04-28T08:29:41.999Z</time></trkpt><trkpt lat="44.63840521103807" lon="8.83602903868668"><ele>321.3333333333333</ele><time>2026-04-28T08:29:42.999Z</time></trkpt><trkpt lat="44.63838267687662" lon="8.836230023240951"><ele>321.0</ele><time>2026-04-28T08:29:43.999Z</time></trkpt><trkpt lat="44.638328901788505" lon="8.83644325797538"><ele>321.0</ele><time>2026-04-28T08:29:44.999Z</time></trkpt><trkpt lat="44.63825308285023" lon="8.836680182623038"><ele>321.0</ele><time>2026-04-28T08:29:45.999Z</time></trkpt><trkpt lat="44.638155062309494" lon="8.836934126733299"><ele>321.0</ele><time>2026-04-28T08:29:46.999Z</time></trkpt><trkpt lat="44.6380336230419" lon="8.837232005072101"><ele>322.6666666666667</ele><time>2026-04-28T08:29:47.999Z</time></trkpt><trkpt lat="44.637911187011156" lon="8.837513011371469"><ele>324.33333333333337</ele><time>2026-04-28T08:29:48.999Z</time></trkpt><trkpt lat="44.63781039562024" lon="8.837764155021905"><ele>326.0</ele><time>2026-04-28T08:29:49.999Z</time></trkpt><trkpt lat="44.63770197465181" lon="8.837994762350197"><ele>326.0</ele><time>2026-04-28T08:29:50.999Z</time></trkpt><trkpt lat="44.637600398123766" lon="8.83820300719402"><ele>326.0</ele><time>2026-04-28T08:29:51.999Z</time></trkpt><trkpt lat="44.637521515531056" lon="8.838400966557968"><ele>326.0</ele><time>2026-04-28T08:29:52.999Z</time></trkpt><trkpt lat="44.637453635058414" lon="8.838634971474503"><ele>323.0</ele><time>2026-04-28T08:29:53.999Z</time></trkpt><trkpt lat="44.63739064318362" lon="8.838866072060753"><ele>320.0</ele><time>2026-04-28T08:29:54.999Z</time></trkpt><trkpt lat="44.63732848673549" lon="8.839069609069218"><ele>317.0</ele><time>2026-04-28T08:29:55.999Z</time></trkpt><trkpt lat="44.63723851966582" lon="8.839246803697693"><ele>315.33333333333337</ele><time>2026-04-28T08:29:56.999Z</time></trkpt><trkpt lat="44.63710222060072" lon="8.839390288963942"><ele>313.6666666666667</ele><time>2026-04-28T08:29:57.999Z</time></trkpt><trkpt lat="44.636955416872084" lon="8.839582771494708"><ele>312.0</ele><time>2026-04-28T08:29:58.999Z</time></trkpt><trkpt lat="44.636796874887324" lon="8.839807536279501"><ele>312.6666666666667</ele><time>2026-04-28T08:29:59.999Z</time></trkpt><trkpt lat="44.63664092345237" lon="8.840026848332808"><ele>313.33333333333337</ele><time>2026-04-28T08:30:00.999Z</time></trkpt><trkpt lat="44.636494671004556" lon="8.840221988686089"><ele>314.0</ele><time>2026-04-28T08:30:01.999Z</time></trkpt><trkpt lat="44.63636077536571" lon="8.840410965429525"><ele>314.0</ele><time>2026-04-28T08:30:02.999Z</time></trkpt><trkpt lat="44.63622854210551" lon="8.84059265950861"><ele>314.0</ele><time>2026-04-28T08:30:03.999Z</time></trkpt><trkpt lat="44.63609742502055" lon="8.840782322598898"><ele>314.0</ele><time>2026-04-28T08:30:04.999Z</time></trkpt><trkpt lat="44.63596391437401" lon="8.840999435098565"><ele>316.33333333333337</ele><time>2026-04-28T08:30:05.999Z</time></trkpt><trkpt lat="44.63583396510491" lon="8.841249119358636"><ele>318.6666666666667</ele><time>2026-04-28T08:30:06.999Z</time></trkpt><trkpt lat="44.63571436308332" lon="8.841486507564204"><ele>321.0</ele><time>2026-04-28T08:30:07.999Z</time></trkpt><trkpt lat="44.63562049803931" lon="8.84169776109523"><ele>315.6666666666667</ele><time>2026-04-28T08:30:08.999Z</time></trkpt><trkpt lat="44.63553317852956" lon="8.841876258460157"><ele>310.33333333333337</ele><time>2026-04-28T08:30:09.999Z</time></trkpt><trkpt lat="44.63544357108376" lon="8.842057581663239"><ele>305.0</ele><time>2026-04-28T08:30:10.999Z</time></trkpt><trkpt lat="44.63535946300771" lon="8.842221853703633"><ele>309.25</ele><time>2026-04-28T08:30:11.999Z</time></trkpt><trkpt lat="44.63526315932868" lon="8.842358982868195"><ele>313.5</ele><time>2026-04-28T08:30:12.999Z</time></trkpt><trkpt lat="44.63514759940089" lon="8.842413232612207"><ele>317.75</ele><time>2026-04-28T08:30:13.999Z</time></trkpt><trkpt lat="44.634991468620534" lon="8.842458205184284"><ele>322.0</ele><time>2026-04-28T08:30:14.999Z</time></trkpt><trkpt lat="44.6348189630151" lon="8.842485255171617"><ele>322.0</ele><time>2026-04-28T08:30:15.999Z</time></trkpt><trkpt lat="44.63462598636936" lon="8.842552122624765"><ele>322.0</ele><time>2026-04-28T08:30:16.999Z</time></trkpt><trkpt lat="44.63440765072346" lon="8.842650046794224"><ele>322.0</ele><time>2026-04-28T08:30:17.999Z</time></trkpt><trkpt lat="44.6342156330376" lon="8.842711155934353"><ele>319.66666666666663</ele><time>2026-04-28T08:30:18.999Z</time></trkpt><trkpt lat="44.63402390735049" lon="8.842761594641399"><ele>317.3333333333333</ele><time>2026-04-28T08:30:19.999Z</time></trkpt><trkpt lat="44.633801111919695" lon="8.842792181953744"><ele>315.0</ele><time>2026-04-28T08:30:21Z</time></trkpt><trkpt lat="44.63358705997571" lon="8.842811375308838"><ele>315.0</ele><time>2026-04-28T08:30:22Z</time></trkpt><trkpt lat="44.63340089479938" lon="8.842830652456945"><ele>315.0</ele><time>2026-04-28T08:30:23Z</time></trkpt><trkpt lat="44.63321387653572" lon="8.842890606021765"><ele>315.0</ele><time>2026-04-28T08:30:24Z</time></trkpt><trkpt lat="44.63304857807245" lon="8.842979833003806"><ele>315.0</ele><time>2026-04-28T08:30:25Z</time></trkpt><trkpt lat="44.632892137768" lon="8.843065379348461"><ele>315.0</ele><time>2026-04-28T08:30:26Z</time></trkpt><trkpt lat="44.63276596388581" lon="8.843093965890343"><ele>315.0</ele><time>2026-04-28T08:30:27Z</time></trkpt><trkpt lat="44.632649542943994" lon="8.843060383966176"><ele>315.0</ele><time>2026-04-28T08:30:28Z</time></trkpt><trkpt lat="44.63253722704944" lon="8.842974022458602"><ele>315.2</ele><time>2026-04-28T08:30:29Z</time></trkpt><trkpt lat="44.63246875678663" lon="8.84285816951808"><ele>315.4</ele><time>2026-04-28T08:30:30Z</time></trkpt><trkpt lat="44.63244422222224" lon="8.84273677242685"><ele>315.6</ele><time>2026-04-28T08:30:31Z</time></trkpt><trkpt lat="44.63247891561555" lon="8.842590564573486"><ele>315.8</ele><time>2026-04-28T08:30:32Z</time></trkpt><trkpt lat="44.632488154463985" lon="8.842422250016687"><ele>316.0</ele><time>2026-04-28T08:30:33Z</time></trkpt><trkpt lat="44.632483419903515" lon="8.842231333040576"><ele>318.5</ele><time>2026-04-28T08:30:34Z</time></trkpt><trkpt lat="44.632442301088616" lon="8.842048356547464"><ele>321.0</ele><time>2026-04-28T08:30:35Z</time></trkpt><trkpt lat="44.63236566263763" lon="8.841904532981433"><ele>323.5</ele><time>2026-04-28T08:30:36Z</time></trkpt><trkpt lat="44.63225450394883" lon="8.841778491681774"><ele>326.0</ele><time>2026-04-28T08:30:37Z</time></trkpt><trkpt lat="44.63213319252413" lon="8.841696558458832"><ele>327.75</ele><time>2026-04-28T08:30:38Z</time></trkpt><trkpt lat="44.6320088056139" lon="8.841659909802141"><ele>329.5</ele><time>2026-04-28T08:30:39Z</time></trkpt><trkpt lat="44.63187753531866" lon="8.841662697159839"><ele>331.25</ele><time>2026-04-28T08:30:40Z</time></trkpt><trkpt lat="44.631743937128526" lon="8.841722626053018"><ele>333.0</ele><time>2026-04-28T08:30:41Z</time></trkpt><trkpt lat="44.631588325871" lon="8.841791943515043"><ele>325.6666666666667</ele><time>2026-04-28T08:30:42Z</time></trkpt><trkpt lat="44.63143126930499" lon="8.841863914191856"><ele>318.33333333333337</ele><time>2026-04-28T08:30:43Z</time></trkpt><trkpt lat="44.63126468206014" lon="8.841895027003094"><ele>311.0</ele><time>2026-04-28T08:30:44Z</time></trkpt><trkpt lat="44.631121917234616" lon="8.841958666322782"><ele>310.75</ele><time>2026-04-28T08:30:45Z</time></trkpt><trkpt lat="44.63098663884308" lon="8.842035480122627"><ele>310.5</ele><time>2026-04-28T08:30:46Z</time></trkpt><trkpt lat="44.63085668681127" lon="8.842082991120261"><ele>310.25</ele><time>2026-04-28T08:30:47Z</time></trkpt><trkpt lat="44.63074095357063" lon="8.842098867786001"><ele>310.0</ele><time>2026-04-28T08:30:48Z</time></trkpt><trkpt lat="44.630612323252066" lon="8.842082002984858"><ele>310.0</ele><time>2026-04-28T08:30:49Z</time></trkpt><trkpt lat="44.63048081044319" lon="8.842032920395877"><ele>310.0</ele><time>2026-04-28T08:30:50Z</time></trkpt><trkpt lat="44.63037239997719" lon="8.84197067426009"><ele>310.0</ele><time>2026-04-28T08:30:51Z</time></trkpt><trkpt lat="44.6302464746179" lon="8.841948997239149"><ele>310.0</ele><time>2026-04-28T08:30:52Z</time></trkpt><trkpt lat="44.6301144821866" lon="8.842002096587754"><ele>311.66666666666663</ele><time>2026-04-28T08:30:53Z</time></trkpt><trkpt lat="44.62996921903123" lon="8.842070898609853"><ele>313.3333333333333</ele><time>2026-04-28T08:30:54Z</time></trkpt><trkpt lat="44.62982608217675" lon="8.842170316527158"><ele>315.0</ele><time>2026-04-28T08:30:55Z</time></trkpt><trkpt lat="44.629661293919206" lon="8.84228349116166"><ele>315.0</ele><time>2026-04-28T08:30:56Z</time></trkpt><trkpt lat="44.62949398483188" lon="8.84241530809335"><ele>315.0</ele><time>2026-04-28T08:30:57Z</time></trkpt><trkpt lat="44.629337767192" lon="8.842524663437896"><ele>315.0</ele><time>2026-04-28T08:30:58Z</time></trkpt><trkpt lat="44.6291896172142" lon="8.842614158133392"><ele>315.0</ele><time>2026-04-28T08:30:59Z</time></trkpt><trkpt lat="44.629031053866306" lon="8.842679393032675"><ele>315.0</ele><time>2026-04-28T08:31:00Z</time></trkpt><trkpt lat="44.628853906793786" lon="8.842709694066048"><ele>315.0</ele><time>2026-04-28T08:31:01Z</time></trkpt><trkpt lat="44.628647901410595" lon="8.842718626117433"><ele>316.3333333333333</ele><time>2026-04-28T08:31:02Z</time></trkpt><trkpt lat="44.62843109870872" lon="8.84271284148303"><ele>317.66666666666663</ele><time>2026-04-28T08:31:03Z</time></trkpt><trkpt lat="44.62822628470343" lon="8.842724623560121"><ele>319.0</ele><time>2026-04-28T08:31:04Z</time></trkpt><trkpt lat="44.62803420994136" lon="8.842750983120753"><ele>319.0</ele><time>2026-04-28T08:31:05Z</time></trkpt><trkpt lat="44.627852067795786" lon="8.842777383286792"><ele>319.0</ele><time>2026-04-28T08:31:06Z</time></trkpt><trkpt lat="44.62767323219246" lon="8.84281041231189"><ele>319.0</ele><time>2026-04-28T08:31:07Z</time></trkpt><trkpt lat="44.62750315365047" lon="8.842843638529343"><ele>321.3333333333333</ele><time>2026-04-28T08:31:08Z</time></trkpt><trkpt lat="44.627341227576345" lon="8.842876927564843"><ele>323.6666666666667</ele><time>2026-04-28T08:31:09Z</time></trkpt><trkpt lat="44.627187518007624" lon="8.84291962148553"><ele>326.0</ele><time>2026-04-28T08:31:10Z</time></trkpt><trkpt lat="44.62703508569423" lon="8.842972408931939"><ele>326.33333333333337</ele><time>2026-04-28T08:31:11Z</time></trkpt><trkpt lat="44.626881175615054" lon="8.843032576549367"><ele>326.6666666666667</ele><time>2026-04-28T08:31:12Z</time></trkpt><trkpt lat="44.62672496686182" lon="8.843101604170455"><ele>327.0</ele><time>2026-04-28T08:31:13Z</time></trkpt><trkpt lat="44.62657572257116" lon="8.843195596387362"><ele>327.0</ele><time>2026-04-28T08:31:14Z</time></trkpt><trkpt lat="44.626429377978795" lon="8.843307600293302"><ele>327.0</ele><time>2026-04-28T08:31:15Z</time></trkpt><trkpt lat="44.626288047313665" lon="8.843440815743149"><ele>327.0</ele><time>2026-04-28T08:31:16Z</time></trkpt><trkpt lat="44.62615720929319" lon="8.843592096789639"><ele>327.3333333333333</ele><time>2026-04-28T08:31:17Z</time></trkpt><trkpt lat="44.626027026755516" lon="8.843755391230923"><ele>327.66666666666663</ele><time>2026-04-28T08:31:18Z</time></trkpt><trkpt lat="44.625897969470856" lon="8.843918712010435"><ele>328.0</ele><time>2026-04-28T08:31:19Z</time></trkpt><trkpt lat="44.62576611188493" lon="8.844083583226634"><ele>328.0</ele><time>2026-04-28T08:31:20Z</time></trkpt><trkpt lat="44.625635018915325" lon="8.844250826397142"><ele>328.0</ele><time>2026-04-28T08:31:21Z</time></trkpt><trkpt lat="44.62550611883525" lon="8.844414881161832"><ele>328.0</ele><time>2026-04-28T08:31:22Z</time></trkpt><trkpt lat="44.62538378581118" lon="8.844576106555548"><ele>326.3333333333333</ele><time>2026-04-28T08:31:22.999Z</time></trkpt><trkpt lat="44.62526179269422" lon="8.84473594621994"><ele>324.6666666666667</ele><time>2026-04-28T08:31:23.999Z</time></trkpt><trkpt lat="44.625136010838304" lon="8.844897817067292"><ele>323.0</ele><time>2026-04-28T08:31:24.999Z</time></trkpt><trkpt lat="44.62500506415359" lon="8.84506317011525"><ele>322.33333333333337</ele><time>2026-04-28T08:31:25.999Z</time></trkpt><trkpt lat="44.6248738805024" lon="8.845230501798394"><ele>321.6666666666667</ele><time>2026-04-28T08:31:26.999Z</time></trkpt><trkpt lat="44.62474293514619" lon="8.845401399950978"><ele>321.0</ele><time>2026-04-28T08:31:27.999Z</time></trkpt><trkpt lat="44.62460129560165" lon="8.845580540284091"><ele>321.3333333333333</ele><time>2026-04-28T08:31:28.999Z</time></trkpt><trkpt lat="44.62446084770778" lon="8.845755843943671"><ele>321.66666666666663</ele><time>2026-04-28T08:31:29.999Z</time></trkpt><trkpt lat="44.624322040984374" lon="8.845932264179487"><ele>322.0</ele><time>2026-04-28T08:31:30.999Z</time></trkpt><trkpt lat="44.62418024003158" lon="8.84610193435917"><ele>322.0</ele><time>2026-04-28T08:31:31.999Z</time></trkpt><trkpt lat="44.62405379852206" lon="8.846240437364017"><ele>322.0</ele><time>2026-04-28T08:31:32.999Z</time></trkpt><trkpt lat="44.62393371784858" lon="8.846357823573758"><ele>322.0</ele><time>2026-04-28T08:31:33.999Z</time></trkpt><trkpt lat="44.62380443730359" lon="8.846457564887544"><ele>322.0</ele><time>2026-04-28T08:31:34.999Z</time></trkpt><trkpt lat="44.62366239148092" lon="8.846528670212637"><ele>322.0</ele><time>2026-04-28T08:31:35.999Z</time></trkpt><trkpt lat="44.623506159773804" lon="8.846566890368004"><ele>322.0</ele><time>2026-04-28T08:31:36.999Z</time></trkpt><trkpt lat="44.62333221562032" lon="8.846583111421749"><ele>322.0</ele><time>2026-04-28T08:31:37.999Z</time></trkpt><trkpt lat="44.62316754955778" lon="8.846572334075015"><ele>322.0</ele><time>2026-04-28T08:31:38.999Z</time></trkpt><trkpt lat="44.623009223834224" lon="8.846519261564163"><ele>322.0</ele><time>2026-04-28T08:31:39.999Z</time></trkpt><trkpt lat="44.62284552400415" lon="8.846440796192317"><ele>319.3333333333333</ele><time>2026-04-28T08:31:40.999Z</time></trkpt><trkpt lat="44.62267166568497" lon="8.846319697391804"><ele>316.6666666666667</ele><time>2026-04-28T08:31:41.999Z</time></trkpt><trkpt lat="44.62248179548886" lon="8.84617993325934"><ele>314.0</ele><time>2026-04-28T08:31:42.999Z</time></trkpt><trkpt lat="44.622267043293725" lon="8.846036424393175"><ele>313.6666666666667</ele><time>2026-04-28T08:31:43.999Z</time></trkpt><trkpt lat="44.62205383943821" lon="8.845897324789917"><ele>313.3333333333333</ele><time>2026-04-28T08:31:44.999Z</time></trkpt><trkpt lat="44.62186367538261" lon="8.845767391648508"><ele>313.0</ele><time>2026-04-28T08:31:45.999Z</time></trkpt><trkpt lat="44.62167744896969" lon="8.845648154972459"><ele>313.0</ele><time>2026-04-28T08:31:46.999Z</time></trkpt><trkpt lat="44.621505640298395" lon="8.845542900342798"><ele>313.0</ele><time>2026-04-28T08:31:47.999Z</time></trkpt><trkpt lat="44.62132333592955" lon="8.845454560706642"><ele>313.0</ele><time>2026-04-28T08:31:48.999Z</time></trkpt><trkpt lat="44.62113967780199" lon="8.845373948935261"><ele>313.3333333333333</ele><time>2026-04-28T08:31:49.999Z</time></trkpt><trkpt lat="44.620958107235126" lon="8.845306195635397"><ele>313.6666666666667</ele><time>2026-04-28T08:31:50.999Z</time></trkpt><trkpt lat="44.62077405966145" lon="8.84522872544937"><ele>314.0</ele><time>2026-04-28T08:31:51.999Z</time></trkpt><trkpt lat="44.62059783803935" lon="8.84517343956251"><ele>314.33333333333337</ele><time>2026-04-28T08:31:52.999Z</time></trkpt><trkpt lat="44.62041686632964" lon="8.845101404808526"><ele>314.6666666666667</ele><time>2026-04-28T08:31:53.999Z</time></trkpt><trkpt lat="44.62024623631947" lon="8.845034934734114"><ele>315.0</ele><time>2026-04-28T08:31:54.999Z</time></trkpt><trkpt lat="44.62008309243367" lon="8.844975202172321"><ele>316.6666666666667</ele><time>2026-04-28T08:31:55.999Z</time></trkpt><trkpt lat="44.61992716291105" lon="8.844909952829914"><ele>318.33333333333337</ele><time>2026-04-28T08:31:56.999Z</time></trkpt><trkpt lat="44.61977546836562" lon="8.844842083284579"><ele>320.0</ele><time>2026-04-28T08:31:57.999Z</time></trkpt><trkpt lat="44.61961958130735" lon="8.844783776559842"><ele>324.33333333333337</ele><time>2026-04-28T08:31:58.999Z</time></trkpt><trkpt lat="44.619471390088606" lon="8.844719437760348"><ele>328.6666666666667</ele><time>2026-04-28T08:31:59.999Z</time></trkpt><trkpt lat="44.619314735085915" lon="8.84464731823285"><ele>333.0</ele><time>2026-04-28T08:32:00.999Z</time></trkpt><trkpt lat="44.619158978955525" lon="8.844593077694363"><ele>333.0</ele><time>2026-04-28T08:32:01.999Z</time></trkpt><trkpt lat="44.61901513606804" lon="8.84456058713507"><ele>333.0</ele><time>2026-04-28T08:32:02.999Z</time></trkpt><trkpt lat="44.61886236282293" lon="8.844575238483989"><ele>333.0</ele><time>2026-04-28T08:32:03.999Z</time></trkpt><trkpt lat="44.618706707276324" lon="8.844623948136983"><ele>332.3333333333333</ele><time>2026-04-28T08:32:04.999Z</time></trkpt><trkpt lat="44.61855956102498" lon="8.844708933307295"><ele>331.66666666666663</ele><time>2026-04-28T08:32:05.999Z</time></trkpt><trkpt lat="44.61842059463448" lon="8.844829302657475"><ele>331.0</ele><time>2026-04-28T08:32:06.999Z</time></trkpt><trkpt lat="44.61829039334026" lon="8.844983078761835"><ele>331.0</ele><time>2026-04-28T08:32:07.999Z</time></trkpt><trkpt lat="44.61816857739278" lon="8.845128180722512"><ele>331.0</ele><time>2026-04-28T08:32:08.999Z</time></trkpt><trkpt lat="44.61804156465291" lon="8.845225967577184"><ele>331.0</ele><time>2026-04-28T08:32:09.999Z</time></trkpt><trkpt lat="44.617907385830584" lon="8.84527782736928"><ele>331.0</ele><time>2026-04-28T08:32:10.999Z</time></trkpt><trkpt lat="44.61775762829802" lon="8.845308327235553"><ele>337.66666666666663</ele><time>2026-04-28T08:32:11.999Z</time></trkpt><trkpt lat="44.61760956043007" lon="8.845286725220372"><ele>344.3333333333333</ele><time>2026-04-28T08:32:12.999Z</time></trkpt><trkpt lat="44.6174514015242" lon="8.845241458040888"><ele>351.0</ele><time>2026-04-28T08:32:13.999Z</time></trkpt><trkpt lat="44.61728470289706" lon="8.845165335779754"><ele>348.3333333333333</ele><time>2026-04-28T08:32:14.999Z</time></trkpt><trkpt lat="44.61710336792655" lon="8.845061215052727"><ele>345.66666666666663</ele><time>2026-04-28T08:32:15.999Z</time></trkpt><trkpt lat="44.61693071266145" lon="8.84496833611003"><ele>343.0</ele><time>2026-04-28T08:32:16.999Z</time></trkpt><trkpt lat="44.61677165077813" lon="8.844896516869321"><ele>343.0</ele><time>2026-04-28T08:32:17.999Z</time></trkpt><trkpt lat="44.61662440366766" lon="8.844824450453892"><ele>343.0</ele><time>2026-04-28T08:32:18.999Z</time></trkpt><trkpt lat="44.61648304383791" lon="8.844759971594257"><ele>343.0</ele><time>2026-04-28T08:32:19.999Z</time></trkpt><trkpt lat="44.61633646610275" lon="8.844704146713788"><ele>343.0</ele><time>2026-04-28T08:32:20.999Z</time></trkpt><trkpt lat="44.61618836536897" lon="8.844656876985264"><ele>343.0</ele><time>2026-04-28T08:32:21.999Z</time></trkpt><trkpt lat="44.61604826631472" lon="8.844641756182034"><ele>343.0</ele><time>2026-04-28T08:32:22.999Z</time></trkpt><trkpt lat="44.61592259955965" lon="8.844659532260144"><ele>343.0</ele><time>2026-04-28T08:32:23.999Z</time></trkpt><trkpt lat="44.615804591118" lon="8.84468698843883"><ele>343.2</ele><time>2026-04-28T08:32:24.999Z</time></trkpt><trkpt lat="44.61570211436398" lon="8.844695373482036"><ele>343.4</ele><time>2026-04-28T08:32:25.999Z</time></trkpt><trkpt lat="44.61563251186375" lon="8.844705559968714"><ele>343.59999999999997</ele><time>2026-04-28T08:32:27Z</time></trkpt><trkpt lat="44.61555480428491" lon="8.844735914458983"><ele>343.79999999999995</ele><time>2026-04-28T08:32:28Z</time></trkpt><trkpt lat="44.615468689004885" lon="8.84479872951352"><ele>344.0</ele><time>2026-04-28T08:32:29Z</time></trkpt><trkpt lat="44.6153758469303" lon="8.844879458118848"><ele>343.25</ele><time>2026-04-28T08:32:30Z</time></trkpt><trkpt lat="44.61527491991323" lon="8.844972494771193"><ele>342.5</ele><time>2026-04-28T08:32:31Z</time></trkpt><trkpt lat="44.61516931512104" lon="8.845063701229654"><ele>341.75</ele><time>2026-04-28T08:32:32Z</time></trkpt><trkpt lat="44.615071990697565" lon="8.845165258510038"><ele>341.0</ele><time>2026-04-28T08:32:33Z</time></trkpt><trkpt lat="44.614975810328886" lon="8.845291834566137"><ele>343.0</ele><time>2026-04-28T08:32:34Z</time></trkpt><trkpt lat="44.61487870794545" lon="8.845435400667442"><ele>345.0</ele><time>2026-04-28T08:32:35Z</time></trkpt><trkpt lat="44.614788789695154" lon="8.845562376237462"><ele>347.0</ele><time>2026-04-28T08:32:36Z</time></trkpt><trkpt lat="44.61469259551247" lon="8.845674373349521"><ele>349.0</ele><time>2026-04-28T08:32:37Z</time></trkpt><trkpt lat="44.61459028238147" lon="8.845760522075187"><ele>347.5</ele><time>2026-04-28T08:32:38Z</time></trkpt><trkpt lat="44.614485254242354" lon="8.845827870302438"><ele>346.0</ele><time>2026-04-28T08:32:39Z</time></trkpt><trkpt lat="44.61437313449892" lon="8.845888785919701"><ele>344.5</ele><time>2026-04-28T08:32:40Z</time></trkpt><trkpt lat="44.61424660245512" lon="8.845925358835249"><ele>343.0</ele><time>2026-04-28T08:32:41Z</time></trkpt><trkpt lat="44.6141086580982" lon="8.845962575252278"><ele>347.66666666666663</ele><time>2026-04-28T08:32:42Z</time></trkpt><trkpt lat="44.61396521271894" lon="8.846010035490114"><ele>352.3333333333333</ele><time>2026-04-28T08:32:43Z</time></trkpt><trkpt lat="44.6138126948551" lon="8.846064425393102"><ele>357.0</ele><time>2026-04-28T08:32:44Z</time></trkpt><trkpt lat="44.61364461957252" lon="8.846122969346542"><ele>357.0</ele><time>2026-04-28T08:32:45Z</time></trkpt><trkpt lat="44.61345142554989" lon="8.846187676293477"><ele>357.0</ele><time>2026-04-28T08:32:46Z</time></trkpt><trkpt lat="44.61327544709857" lon="8.846241572768639"><ele>357.0</ele><time>2026-04-28T08:32:47Z</time></trkpt><trkpt lat="44.613133043577214" lon="8.846298684380118"><ele>357.0</ele><time>2026-04-28T08:32:48Z</time></trkpt><trkpt lat="44.61298598671531" lon="8.84634826560546"><ele>357.0</ele><time>2026-04-28T08:32:49Z</time></trkpt><trkpt lat="44.612838840795625" lon="8.846394573691363"><ele>357.0</ele><time>2026-04-28T08:32:50Z</time></trkpt><trkpt lat="44.61270184946149" lon="8.84643276856877"><ele>357.0</ele><time>2026-04-28T08:32:51Z</time></trkpt><trkpt lat="44.61256385829621" lon="8.846458691185026"><ele>356.25</ele><time>2026-04-28T08:32:52Z</time></trkpt><trkpt lat="44.612426189450595" lon="8.846472567508787"><ele>355.5</ele><time>2026-04-28T08:32:53Z</time></trkpt><trkpt lat="44.61228174299784" lon="8.846495886084488"><ele>354.75</ele><time>2026-04-28T08:32:54Z</time></trkpt><trkpt lat="44.61213894933609" lon="8.846519392946423"><ele>354.0</ele><time>2026-04-28T08:32:55Z</time></trkpt><trkpt lat="44.61198774872187" lon="8.846544690089766"><ele>352.25</ele><time>2026-04-28T08:32:56Z</time></trkpt><trkpt lat="44.61184040286794" lon="8.8465916277388"><ele>350.5</ele><time>2026-04-28T08:32:57Z</time></trkpt><trkpt lat="44.6116984545338" lon="8.846649469995299"><ele>348.75</ele><time>2026-04-28T08:32:58Z</time></trkpt><trkpt lat="44.61156381111375" lon="8.846707969780388"><ele>347.0</ele><time>2026-04-28T08:32:59Z</time></trkpt><trkpt lat="44.61143340607051" lon="8.846765782678737"><ele>351.25</ele><time>2026-04-28T08:33:00Z</time></trkpt><trkpt lat="44.611303459259545" lon="8.846814276421018"><ele>355.5</ele><time>2026-04-28T08:33:01Z</time></trkpt><trkpt lat="44.61116164597534" lon="8.846851041701772"><ele>359.75</ele><time>2026-04-28T08:33:02Z</time></trkpt><trkpt lat="44.61101417572295" lon="8.846877070286824"><ele>364.0</ele><time>2026-04-28T08:33:03Z</time></trkpt><trkpt lat="44.610869987527174" lon="8.846895248281648"><ele>364.66666666666663</ele><time>2026-04-28T08:33:04Z</time></trkpt><trkpt lat="44.610723635946265" lon="8.84691520296824"><ele>365.3333333333333</ele><time>2026-04-28T08:33:05Z</time></trkpt><trkpt lat="44.61057788466856" lon="8.846937218566385"><ele>366.0</ele><time>2026-04-28T08:33:06Z</time></trkpt><trkpt lat="44.61042254376749" lon="8.84695765266204"><ele>368.6666666666667</ele><time>2026-04-28T08:33:07Z</time></trkpt><trkpt lat="44.610275750786954" lon="8.846967578238418"><ele>371.33333333333337</ele><time>2026-04-28T08:33:08Z</time></trkpt><trkpt lat="44.61012529082441" lon="8.846983495494998"><ele>374.0</ele><time>2026-04-28T08:33:09Z</time></trkpt><trkpt lat="44.609973592082405" lon="8.846991618669866"><ele>374.0</ele><time>2026-04-28T08:33:10Z</time></trkpt><trkpt lat="44.609809840081745" lon="8.847006244900207"><ele>374.0</ele><time>2026-04-28T08:33:11Z</time></trkpt><trkpt lat="44.60968154680377" lon="8.84702358235458"><ele>374.0</ele><time>2026-04-28T08:33:12Z</time></trkpt><trkpt lat="44.60955596095818" lon="8.847070037866803"><ele>374.0</ele><time>2026-04-28T08:33:13Z</time></trkpt><trkpt lat="44.60939216336764" lon="8.847112837251855"><ele>370.0</ele><time>2026-04-28T08:33:14Z</time></trkpt><trkpt lat="44.60925662428449" lon="8.847205839071183"><ele>366.0</ele><time>2026-04-28T08:33:15Z</time></trkpt><trkpt lat="44.60911597936152" lon="8.847340875607843"><ele>362.0</ele><time>2026-04-28T08:33:16Z</time></trkpt><trkpt lat="44.608979844443255" lon="8.847487052757481"><ele>364.0</ele><time>2026-04-28T08:33:17Z</time></trkpt><trkpt lat="44.60885333040954" lon="8.847656881790714"><ele>366.0</ele><time>2026-04-28T08:33:18Z</time></trkpt><trkpt lat="44.60874204978018" lon="8.847842925547598"><ele>368.0</ele><time>2026-04-28T08:33:19Z</time></trkpt><trkpt lat="44.608639275725274" lon="8.848015157353958"><ele>368.0</ele><time>2026-04-28T08:33:19.999Z</time></trkpt><trkpt lat="44.60855082585442" lon="8.848180919226523"><ele>368.0</ele><time>2026-04-28T08:33:20.999Z</time></trkpt><trkpt lat="44.60845919248817" lon="8.848367192837456"><ele>368.0</ele><time>2026-04-28T08:33:21.999Z</time></trkpt><trkpt lat="44.608394494008905" lon="8.848571096746793"><ele>369.6666666666667</ele><time>2026-04-28T08:33:22.999Z</time></trkpt><trkpt lat="44.60834769699495" lon="8.848786251108974"><ele>371.3333333333333</ele><time>2026-04-28T08:33:23.999Z</time></trkpt><trkpt lat="44.60831607535511" lon="8.849007283506204"><ele>373.0</ele><time>2026-04-28T08:33:24.999Z</time></trkpt><trkpt lat="44.60830419364099" lon="8.849231374356433"><ele>374.0</ele><time>2026-04-28T08:33:25.999Z</time></trkpt><trkpt lat="44.60830856125504" lon="8.849451013727714"><ele>375.0</ele><time>2026-04-28T08:33:26.999Z</time></trkpt><trkpt lat="44.608329108030674" lon="8.849662033344798"><ele>376.0</ele><time>2026-04-28T08:33:27.999Z</time></trkpt><trkpt lat="44.60835326842896" lon="8.849874867814716"><ele>376.0</ele><time>2026-04-28T08:33:28.999Z</time></trkpt><trkpt lat="44.608379971048414" lon="8.850090911139691"><ele>376.0</ele><time>2026-04-28T08:33:29.999Z</time></trkpt><trkpt lat="44.608402687709635" lon="8.850307442535234"><ele>376.0</ele><time>2026-04-28T08:33:30.999Z</time></trkpt><trkpt lat="44.60841964516741" lon="8.850528070594317"><ele>375.3333333333333</ele><time>2026-04-28T08:33:31.999Z</time></trkpt><trkpt lat="44.608445991280945" lon="8.850748764316586"><ele>374.6666666666667</ele><time>2026-04-28T08:33:32.999Z</time></trkpt><trkpt lat="44.608470302531764" lon="8.850965967082407"><ele>374.0</ele><time>2026-04-28T08:33:33.999Z</time></trkpt><trkpt lat="44.608503896166575" lon="8.851166413762254"><ele>374.0</ele><time>2026-04-28T08:33:34.999Z</time></trkpt><trkpt lat="44.60854112175312" lon="8.85136843806027"><ele>374.0</ele><time>2026-04-28T08:33:35.999Z</time></trkpt><trkpt lat="44.60858388031657" lon="8.851549631500054"><ele>374.0</ele><time>2026-04-28T08:33:36.999Z</time></trkpt><trkpt lat="44.60864982849849" lon="8.851713818708422"><ele>374.0</ele><time>2026-04-28T08:33:37.999Z</time></trkpt><trkpt lat="44.60872508360002" lon="8.85185021184884"><ele>379.4</ele><time>2026-04-28T08:33:38.999Z</time></trkpt><trkpt lat="44.60879499116625" lon="8.851975938604962"><ele>384.79999999999995</ele><time>2026-04-28T08:33:39.999Z</time></trkpt><trkpt lat="44.60881269235474" lon="8.852094566855605"><ele>390.20000000000005</ele><time>2026-04-28T08:33:40.999Z</time></trkpt><trkpt lat="44.608791585824264" lon="8.852240308810659"><ele>395.6</ele><time>2026-04-28T08:33:41.999Z</time></trkpt><trkpt lat="44.60874357674086" lon="8.852364814548562"><ele>401.0</ele><time>2026-04-28T08:33:42.999Z</time></trkpt><trkpt lat="44.60866534294114" lon="8.852506225014046"><ele>399.75</ele><time>2026-04-28T08:33:43.999Z</time></trkpt><trkpt lat="44.608554015599324" lon="8.852634887835551"><ele>398.5</ele><time>2026-04-28T08:33:44.999Z</time></trkpt><trkpt lat="44.60842121877512" lon="8.852731410588515"><ele>397.25</ele><time>2026-04-28T08:33:45.999Z</time></trkpt><trkpt lat="44.608282740885436" lon="8.852815857237783"><ele>396.0</ele><time>2026-04-28T08:33:46.999Z</time></trkpt><trkpt lat="44.60811325569571" lon="8.852897867741452"><ele>396.0</ele><time>2026-04-28T08:33:47.999Z</time></trkpt><trkpt lat="44.6079361751573" lon="8.852980622182047"><ele>396.0</ele><time>2026-04-28T08:33:48.999Z</time></trkpt><trkpt lat="44.60775194020573" lon="8.853051048238038"><ele>396.0</ele><time>2026-04-28T08:33:49.999Z</time></trkpt><trkpt lat="44.60755274068537" lon="8.853108111420559"><ele>389.6666666666667</ele><time>2026-04-28T08:33:50.999Z</time></trkpt><trkpt lat="44.60735975984975" lon="8.853171995798169"><ele>383.33333333333337</ele><time>2026-04-28T08:33:51.999Z</time></trkpt><trkpt lat="44.607187466257756" lon="8.853228814152766"><ele>377.0</ele><time>2026-04-28T08:33:52.999Z</time></trkpt><trkpt lat="44.60702329957072" lon="8.85327405748388"><ele>375.6666666666667</ele><time>2026-04-28T08:33:53.999Z</time></trkpt><trkpt lat="44.606851813398045" lon="8.853325391349466"><ele>374.3333333333333</ele><time>2026-04-28T08:33:54.999Z</time></trkpt><trkpt lat="44.606689611133476" lon="8.85338509031069"><ele>373.0</ele><time>2026-04-28T08:33:55.999Z</time></trkpt><trkpt lat="44.60652417988994" lon="8.8534367903311"><ele>374.0</ele><time>2026-04-28T08:33:56.999Z</time></trkpt><trkpt lat="44.60635864992798" lon="8.853498232454305"><ele>375.0</ele><time>2026-04-28T08:33:57.999Z</time></trkpt><trkpt lat="44.60619523861905" lon="8.853573291833138"><ele>376.0</ele><time>2026-04-28T08:33:58.999Z</time></trkpt><trkpt lat="44.60602334098085" lon="8.853656686641306"><ele>376.0</ele><time>2026-04-28T08:33:59.999Z</time></trkpt><trkpt lat="44.60585616495064" lon="8.853731421623777"><ele>376.0</ele><time>2026-04-28T08:34:00.999Z</time></trkpt><trkpt lat="44.60569101589956" lon="8.85378954229428"><ele>376.0</ele><time>2026-04-28T08:34:01.999Z</time></trkpt><trkpt lat="44.60552881002236" lon="8.8538571402051"><ele>376.0</ele><time>2026-04-28T08:34:02.999Z</time></trkpt><trkpt lat="44.605364375709414" lon="8.853944088828541"><ele>376.0</ele><time>2026-04-28T08:34:03.999Z</time></trkpt><trkpt lat="44.60519513745386" lon="8.854024581756823"><ele>376.0</ele><time>2026-04-28T08:34:04.999Z</time></trkpt><trkpt lat="44.605028197734285" lon="8.8541052093068"><ele>375.66666666666663</ele><time>2026-04-28T08:34:05.999Z</time></trkpt><trkpt lat="44.6048598042901" lon="8.854199511873205"><ele>375.3333333333333</ele><time>2026-04-28T08:34:06.999Z</time></trkpt><trkpt lat="44.60469866446349" lon="8.854292507726187"><ele>375.0</ele><time>2026-04-28T08:34:07.999Z</time></trkpt><trkpt lat="44.60455261849035" lon="8.854380388104543"><ele>375.75</ele><time>2026-04-28T08:34:08.999Z</time></trkpt><trkpt lat="44.60443124141982" lon="8.854456670330473"><ele>376.5</ele><time>2026-04-28T08:34:09.999Z</time></trkpt><trkpt lat="44.60430326211161" lon="8.854547442025925"><ele>377.25</ele><time>2026-04-28T08:34:10.999Z</time></trkpt><trkpt lat="44.60418619833503" lon="8.854671949581011"><ele>378.0</ele><time>2026-04-28T08:34:11.999Z</time></trkpt><trkpt lat="44.60406775980923" lon="8.854819902652352"><ele>378.0</ele><time>2026-04-28T08:34:12.999Z</time></trkpt><trkpt lat="44.6039473165762" lon="8.854982321575596"><ele>378.0</ele><time>2026-04-28T08:34:13.999Z</time></trkpt><trkpt lat="44.60382248557891" lon="8.855159797822829"><ele>378.0</ele><time>2026-04-28T08:34:14.999Z</time></trkpt><trkpt lat="44.60370471977652" lon="8.855352987508722"><ele>379.3333333333333</ele><time>2026-04-28T08:34:15.999Z</time></trkpt><trkpt lat="44.60358387521806" lon="8.855557703852291"><ele>380.66666666666663</ele><time>2026-04-28T08:34:16.999Z</time></trkpt><trkpt lat="44.60345979269812" lon="8.85576594981153"><ele>382.0</ele><time>2026-04-28T08:34:17.999Z</time></trkpt><trkpt lat="44.60334267901182" lon="8.855973668425467"><ele>382.66666666666663</ele><time>2026-04-28T08:34:18.999Z</time></trkpt><trkpt lat="44.60323313697762" lon="8.856184238522724"><ele>383.3333333333333</ele><time>2026-04-28T08:34:19.999Z</time></trkpt><trkpt lat="44.603126008666564" lon="8.85639103186407"><ele>384.0</ele><time>2026-04-28T08:34:20.999Z</time></trkpt><trkpt lat="44.60302268666196" lon="8.856591871670927"><ele>385.33333333333337</ele><time>2026-04-28T08:34:21.999Z</time></trkpt><trkpt lat="44.602929753743275" lon="8.856798639633283"><ele>386.6666666666667</ele><time>2026-04-28T08:34:22.999Z</time></trkpt><trkpt lat="44.602822194210205" lon="8.856986318022651"><ele>388.0</ele><time>2026-04-28T08:34:23.999Z</time></trkpt><trkpt lat="44.60272911167914" lon="8.85716967445261"><ele>388.0</ele><time>2026-04-28T08:34:24.999Z</time></trkpt><trkpt lat="44.60263861322948" lon="8.857347144663175"><ele>388.0</ele><time>2026-04-28T08:34:25.999Z</time></trkpt><trkpt lat="44.60253906013788" lon="8.85752459811197"><ele>388.0</ele><time>2026-04-28T08:34:26.999Z</time></trkpt><trkpt lat="44.602435034416935" lon="8.857683219744423"><ele>393.5</ele><time>2026-04-28T08:34:27.999Z</time></trkpt><trkpt lat="44.60231784550381" lon="8.857828764484397"><ele>399.0</ele><time>2026-04-28T08:34:28.999Z</time></trkpt><trkpt lat="44.60220903722431" lon="8.85796010723143"><ele>404.5</ele><time>2026-04-28T08:34:29.999Z</time></trkpt><trkpt lat="44.60210744175892" lon="8.85807746181976"><ele>410.0</ele><time>2026-04-28T08:34:30.999Z</time></trkpt><trkpt lat="44.60200924274228" lon="8.858203887203745"><ele>411.25</ele><time>2026-04-28T08:34:31.999Z</time></trkpt><trkpt lat="44.601920145999756" lon="8.858330267422659"><ele>412.5</ele><time>2026-04-28T08:34:33Z</time></trkpt><trkpt lat="44.60182561911261" lon="8.858447828253347"><ele>413.75</ele><time>2026-04-28T08:34:34Z</time></trkpt><trkpt lat="44.601724590750464" lon="8.85853672916708"><ele>415.0</ele><time>2026-04-28T08:34:35Z</time></trkpt><trkpt lat="44.601617120393044" lon="8.858606579495342"><ele>415.0</ele><time>2026-04-28T08:34:36Z</time></trkpt><trkpt lat="44.60148292841055" lon="8.858625024622"><ele>415.0</ele><time>2026-04-28T08:34:37Z</time></trkpt><trkpt lat="44.60133805006565" lon="8.858627746554404"><ele>415.0</ele><time>2026-04-28T08:34:38Z</time></trkpt><trkpt lat="44.601177286866445" lon="8.858628312980443"><ele>415.0</ele><time>2026-04-28T08:34:39Z</time></trkpt><trkpt lat="44.60101903537453" lon="8.858636297487065"><ele>416.25</ele><time>2026-04-28T08:34:40Z</time></trkpt><trkpt lat="44.60086688966767" lon="8.858652657030655"><ele>417.5</ele><time>2026-04-28T08:34:41Z</time></trkpt><trkpt lat="44.6007183158021" lon="8.858656194997815"><ele>418.75</ele><time>2026-04-28T08:34:42Z</time></trkpt><trkpt lat="44.6005725475827" lon="8.858679764472386"><ele>420.0</ele><time>2026-04-28T08:34:43Z</time></trkpt><trkpt lat="44.60041467149157" lon="8.858704327640755"><ele>415.5</ele><time>2026-04-28T08:34:44Z</time></trkpt><trkpt lat="44.600255075980684" lon="8.85872669346339"><ele>411.0</ele><time>2026-04-28T08:34:45Z</time></trkpt><trkpt lat="44.600110078709015" lon="8.858754181626518"><ele>406.5</ele><time>2026-04-28T08:34:46Z</time></trkpt><trkpt lat="44.59997219189515" lon="8.858793986210202"><ele>402.0</ele><time>2026-04-28T08:34:47Z</time></trkpt><trkpt lat="44.59984797114704" lon="8.858855113841617"><ele>402.0</ele><time>2026-04-28T08:34:48Z</time></trkpt><trkpt lat="44.599724578697085" lon="8.858931114538349"><ele>402.0</ele><time>2026-04-28T08:34:49Z</time></trkpt><trkpt lat="44.59961762666892" lon="8.859042676070958"><ele>402.0</ele><time>2026-04-28T08:34:50Z</time></trkpt><trkpt lat="44.59951763367054" lon="8.859174441427767"><ele>402.0</ele><time>2026-04-28T08:34:51Z</time></trkpt><trkpt lat="44.59941590513228" lon="8.859339237775773"><ele>402.33333333333337</ele><time>2026-04-28T08:34:52Z</time></trkpt><trkpt lat="44.599294314096994" lon="8.859535978475392"><ele>402.6666666666667</ele><time>2026-04-28T08:34:53Z</time></trkpt><trkpt lat="44.59915482907276" lon="8.85974834186387"><ele>403.0</ele><time>2026-04-28T08:34:54Z</time></trkpt><trkpt lat="44.59903035029249" lon="8.859918733846953"><ele>403.0</ele><time>2026-04-28T08:34:55Z</time></trkpt><trkpt lat="44.598922670574744" lon="8.86005400188786"><ele>403.0</ele><time>2026-04-28T08:34:56Z</time></trkpt><trkpt lat="44.59881126015588" lon="8.860154228222246"><ele>403.0</ele><time>2026-04-28T08:34:57Z</time></trkpt><trkpt lat="44.59869813800669" lon="8.86020666511081"><ele>403.0</ele><time>2026-04-28T08:34:58Z</time></trkpt><trkpt lat="44.598561099966595" lon="8.860238587734084"><ele>404.75</ele><time>2026-04-28T08:34:59Z</time></trkpt><trkpt lat="44.59842901588551" lon="8.860273532870636"><ele>406.5</ele><time>2026-04-28T08:35:00Z</time></trkpt><trkpt lat="44.59828600279328" lon="8.860319135361005"><ele>408.25</ele><time>2026-04-28T08:35:01Z</time></trkpt><trkpt lat="44.59813808064296" lon="8.8603877464566"><ele>410.0</ele><time>2026-04-28T08:35:02Z</time></trkpt><trkpt lat="44.59798531296725" lon="8.860491590492835"><ele>407.0</ele><time>2026-04-28T08:35:03Z</time></trkpt><trkpt lat="44.59781599377476" lon="8.860623445284379"><ele>404.0</ele><time>2026-04-28T08:35:04Z</time></trkpt><trkpt lat="44.597651641892334" lon="8.86073600797596"><ele>401.0</ele><time>2026-04-28T08:35:05Z</time></trkpt><trkpt lat="44.59748995141682" lon="8.860838617865939"><ele>401.0</ele><time>2026-04-28T08:35:06Z</time></trkpt><trkpt lat="44.59733590395816" lon="8.860919582827298"><ele>401.0</ele><time>2026-04-28T08:35:07Z</time></trkpt><trkpt lat="44.59718894632991" lon="8.860989360584606"><ele>401.0</ele><time>2026-04-28T08:35:08Z</time></trkpt><trkpt lat="44.597048157586805" lon="8.86105208466159"><ele>402.0</ele><time>2026-04-28T08:35:09Z</time></trkpt><trkpt lat="44.59689978694157" lon="8.861080350625715"><ele>403.0</ele><time>2026-04-28T08:35:10Z</time></trkpt><trkpt lat="44.59674129331747" lon="8.861094226273972"><ele>404.0</ele><time>2026-04-28T08:35:11Z</time></trkpt><trkpt lat="44.596575893678654" lon="8.86109715998359"><ele>404.0</ele><time>2026-04-28T08:35:12Z</time></trkpt><trkpt lat="44.596402782987475" lon="8.86109498155478"><ele>404.0</ele><time>2026-04-28T08:35:13Z</time></trkpt><trkpt lat="44.596231975777066" lon="8.861101778051195"><ele>404.0</ele><time>2026-04-28T08:35:14Z</time></trkpt><trkpt lat="44.59606830134899" lon="8.861102565716244"><ele>403.0</ele><time>2026-04-28T08:35:15Z</time></trkpt><trkpt lat="44.595924312242545" lon="8.861098682133884"><ele>402.0</ele><time>2026-04-28T08:35:16Z</time></trkpt><trkpt lat="44.59577554940995" lon="8.861066240776537"><ele>401.0</ele><time>2026-04-28T08:35:17Z</time></trkpt><trkpt lat="44.59562668573084" lon="8.861010446965562"><ele>400.0</ele><time>2026-04-28T08:35:18Z</time></trkpt><trkpt lat="44.595485147314896" lon="8.860930848506943"><ele>400.6666666666667</ele><time>2026-04-28T08:35:19Z</time></trkpt><trkpt lat="44.59533542301769" lon="8.8608160445653"><ele>401.33333333333337</ele><time>2026-04-28T08:35:20Z</time></trkpt><trkpt lat="44.595192288560675" lon="8.860682424259153"><ele>402.0</ele><time>2026-04-28T08:35:21Z</time></trkpt><trkpt lat="44.595047116421895" lon="8.860549929414962"><ele>402.0</ele><time>2026-04-28T08:35:22Z</time></trkpt><trkpt lat="44.594893837366584" lon="8.860421047022664"><ele>402.0</ele><time>2026-04-28T08:35:23Z</time></trkpt><trkpt lat="44.594743839036084" lon="8.86029055050284"><ele>402.0</ele><time>2026-04-28T08:35:24Z</time></trkpt><trkpt lat="44.5946029244415" lon="8.860158337780337"><ele>406.0</ele><time>2026-04-28T08:35:25Z</time></trkpt><trkpt lat="44.594472095449234" lon="8.860014106560218"><ele>410.0</ele><time>2026-04-28T08:35:26Z</time></trkpt><trkpt lat="44.59434670383471" lon="8.859840442995882"><ele>414.0</ele><time>2026-04-28T08:35:27Z</time></trkpt><trkpt lat="44.594225392991326" lon="8.859657351634977"><ele>414.0</ele><time>2026-04-28T08:35:28Z</time></trkpt><trkpt lat="44.59412135392294" lon="8.859485134374683"><ele>414.0</ele><time>2026-04-28T08:35:29Z</time></trkpt><trkpt lat="44.59404052600853" lon="8.859329208511223"><ele>414.0</ele><time>2026-04-28T08:35:29.999Z</time></trkpt><trkpt lat="44.593972415961275" lon="8.85918597784423"><ele>414.0</ele><time>2026-04-28T08:35:30.999Z</time></trkpt><trkpt lat="44.59389533582338" lon="8.859045672192355"><ele>418.75</ele><time>2026-04-28T08:35:31.999Z</time></trkpt><trkpt lat="44.593806018763246" lon="8.85890647123895"><ele>423.5</ele><time>2026-04-28T08:35:32.999Z</time></trkpt><trkpt lat="44.593724491209116" lon="8.858752601440989"><ele>428.25</ele><time>2026-04-28T08:35:33.999Z</time></trkpt><trkpt lat="44.593649503416046" lon="8.858587576035616"><ele>433.0</ele><time>2026-04-28T08:35:34.999Z</time></trkpt><trkpt lat="44.593578965845005" lon="8.85842721049525"><ele>433.0</ele><time>2026-04-28T08:35:35.999Z</time></trkpt><trkpt lat="44.59352586566169" lon="8.858266938893053"><ele>433.0</ele><time>2026-04-28T08:35:36.999Z</time></trkpt><trkpt lat="44.5934681687526" lon="8.858125092510754"><ele>433.0</ele><time>2026-04-28T08:35:37.999Z</time></trkpt><trkpt lat="44.59339044442409" lon="8.857998049662706"><ele>433.0</ele><time>2026-04-28T08:35:38.999Z</time></trkpt><trkpt lat="44.5932814638315" lon="8.857885093569195"><ele>433.0</ele><time>2026-04-28T08:35:39.999Z</time></trkpt><trkpt lat="44.59317170220422" lon="8.85776654117428"><ele>433.0</ele><time>2026-04-28T08:35:40.999Z</time></trkpt><trkpt lat="44.59307318238076" lon="8.857641710305902"><ele>433.0</ele><time>2026-04-28T08:35:41.999Z</time></trkpt><trkpt lat="44.59298482095661" lon="8.8575261855029"><ele>433.0</ele><time>2026-04-28T08:35:42.999Z</time></trkpt><trkpt lat="44.59289268117484" lon="8.857414862123218"><ele>430.0</ele><time>2026-04-28T08:35:43.999Z</time></trkpt><trkpt lat="44.592755416209094" lon="8.857348731554024"><ele>427.0</ele><time>2026-04-28T08:35:44.999Z</time></trkpt><trkpt lat="44.59259088527947" lon="8.857281011696319"><ele>424.0</ele><time>2026-04-28T08:35:45.999Z</time></trkpt><trkpt lat="44.59244548282418" lon="8.857208379224689"><ele>424.0</ele><time>2026-04-28T08:35:46.999Z</time></trkpt><trkpt lat="44.59232016510525" lon="8.857112776540427"><ele>424.0</ele><time>2026-04-28T08:35:47.999Z</time></trkpt><trkpt lat="44.59221657464635" lon="8.857015505913624"><ele>424.0</ele><time>2026-04-28T08:35:48.999Z</time></trkpt><trkpt lat="44.59210588780846" lon="8.856909059066725"><ele>424.0</ele><time>2026-04-28T08:35:49.999Z</time></trkpt><trkpt lat="44.59200421038085" lon="8.856804823156468"><ele>424.1666666666667</ele><time>2026-04-28T08:35:50.999Z</time></trkpt><trkpt lat="44.59193595770329" lon="8.85674044394606"><ele>424.33333333333337</ele><time>2026-04-28T08:35:51.999Z</time></trkpt><trkpt lat="44.59187505506708" lon="8.856691898186622"><ele>424.5</ele><time>2026-04-28T08:35:52.999Z</time></trkpt><trkpt lat="44.59182022018842" lon="8.856646943676738"><ele>424.66666666666663</ele><time>2026-04-28T08:35:53.999Z</time></trkpt><trkpt lat="44.591722792982736" lon="8.856711796322081"><ele>424.8333333333333</ele><time>2026-04-28T08:35:54.999Z</time></trkpt><trkpt lat="44.591637789348574" lon="8.856786631378608"><ele>425.0</ele><time>2026-04-28T08:35:55.999Z</time></trkpt><trkpt lat="44.59155182470678" lon="8.856878680728892"><ele>426.0</ele><time>2026-04-28T08:35:56.999Z</time></trkpt><trkpt lat="44.59146700708592" lon="8.857019011851001"><ele>427.0</ele><time>2026-04-28T08:35:57.999Z</time></trkpt><trkpt lat="44.59137464200319" lon="8.85717825944132"><ele>428.0</ele><time>2026-04-28T08:35:58.999Z</time></trkpt><trkpt lat="44.59129982908209" lon="8.857327164636612"><ele>429.0</ele><time>2026-04-28T08:35:59.999Z</time></trkpt><trkpt lat="44.591249441712584" lon="8.85745822497755"><ele>429.0</ele><time>2026-04-28T08:36:00.999Z</time></trkpt><trkpt lat="44.591235090028775" lon="8.857605269682422"><ele>429.0</ele><time>2026-04-28T08:36:01.999Z</time></trkpt><trkpt lat="44.59124538811109" lon="8.857782329231735"><ele>429.0</ele><time>2026-04-28T08:36:02.999Z</time></trkpt><trkpt lat="44.591310501107586" lon="8.857983222072246"><ele>429.0</ele><time>2026-04-28T08:36:03.999Z</time></trkpt><trkpt lat="44.591375918877006" lon="8.8582062141279"><ele>433.66666666666663</ele><time>2026-04-28T08:36:04.999Z</time></trkpt><trkpt lat="44.59141958358648" lon="8.8583983430043"><ele>438.3333333333333</ele><time>2026-04-28T08:36:05.999Z</time></trkpt><trkpt lat="44.591445247676795" lon="8.858617812194439"><ele>443.0</ele><time>2026-04-28T08:36:06.999Z</time></trkpt><trkpt lat="44.59145767940274" lon="8.858856992506416"><ele>442.66666666666663</ele><time>2026-04-28T08:36:07.999Z</time></trkpt><trkpt lat="44.59146916834197" lon="8.859069920350382"><ele>442.33333333333337</ele><time>2026-04-28T08:36:08.999Z</time></trkpt><trkpt lat="44.59150003894521" lon="8.859302007253659"><ele>442.0</ele><time>2026-04-28T08:36:09.999Z</time></trkpt><trkpt lat="44.59156396435459" lon="8.859531064459963"><ele>442.0</ele><time>2026-04-28T08:36:10.999Z</time></trkpt><trkpt lat="44.591619333073254" lon="8.859714139627469"><ele>442.0</ele><time>2026-04-28T08:36:11.999Z</time></trkpt><trkpt lat="44.59165840632524" lon="8.85988898160517"><ele>442.0</ele><time>2026-04-28T08:36:12.999Z</time></trkpt><trkpt lat="44.591665553033295" lon="8.860068024482471"><ele>442.0</ele><time>2026-04-28T08:36:13.999Z</time></trkpt><trkpt lat="44.591637601244585" lon="8.86024154590579"><ele>445.5</ele><time>2026-04-28T08:36:14.999Z</time></trkpt><trkpt lat="44.59158952861879" lon="8.860452894455921"><ele>449.0</ele><time>2026-04-28T08:36:15.999Z</time></trkpt><trkpt lat="44.59152089171839" lon="8.860636629644452"><ele>452.5</ele><time>2026-04-28T08:36:16.999Z</time></trkpt><trkpt lat="44.5914478203457" lon="8.860799864188419"><ele>456.0</ele><time>2026-04-28T08:36:17.999Z</time></trkpt><trkpt lat="44.59136880400748" lon="8.860930475475673"><ele>454.5</ele><time>2026-04-28T08:36:18.999Z</time></trkpt><trkpt lat="44.591262842056246" lon="8.861035396911454"><ele>453.0</ele><time>2026-04-28T08:36:19.999Z</time></trkpt><trkpt lat="44.59113544260814" lon="8.86110169259539"><ele>451.5</ele><time>2026-04-28T08:36:20.999Z</time></trkpt><trkpt lat="44.59098732521742" lon="8.861143784810325"><ele>450.0</ele><time>2026-04-28T08:36:21.999Z</time></trkpt><trkpt lat="44.59081953942891" lon="8.861161501833712"><ele>450.0</ele><time>2026-04-28T08:36:22.999Z</time></trkpt><trkpt lat="44.59066922879518" lon="8.86119274983197"><ele>450.0</ele><time>2026-04-28T08:36:23.999Z</time></trkpt><trkpt lat="44.59054445350488" lon="8.861213940162472"><ele>450.0</ele><time>2026-04-28T08:36:24.999Z</time></trkpt><trkpt lat="44.590411886386214" lon="8.861189067462659"><ele>450.0</ele><time>2026-04-28T08:36:25.999Z</time></trkpt><trkpt lat="44.590263067577816" lon="8.861124363392562"><ele>450.66666666666663</ele><time>2026-04-28T08:36:26.999Z</time></trkpt><trkpt lat="44.590086431744226" lon="8.86106062939527"><ele>451.3333333333333</ele><time>2026-04-28T08:36:27.999Z</time></trkpt><trkpt lat="44.58991852061804" lon="8.861040325434328"><ele>452.0</ele><time>2026-04-28T08:36:28.999Z</time></trkpt><trkpt lat="44.589734403761696" lon="8.86103120523945"><ele>452.0</ele><time>2026-04-28T08:36:29.999Z</time></trkpt><trkpt lat="44.58957108750133" lon="8.861021484030315"><ele>452.0</ele><time>2026-04-28T08:36:30.999Z</time></trkpt><trkpt lat="44.5894218827485" lon="8.86102545871198"><ele>452.0</ele><time>2026-04-28T08:36:31.999Z</time></trkpt><trkpt lat="44.5892883717929" lon="8.861034912122179"><ele>452.0</ele><time>2026-04-28T08:36:32.999Z</time></trkpt><trkpt lat="44.589165574173386" lon="8.861050659227658"><ele>452.75</ele><time>2026-04-28T08:36:33.999Z</time></trkpt><trkpt lat="44.58905557813473" lon="8.861090947712881"><ele>453.5</ele><time>2026-04-28T08:36:34.999Z</time></trkpt><trkpt lat="44.58896125395262" lon="8.861165163698127"><ele>454.25</ele><time>2026-04-28T08:36:35.999Z</time></trkpt><trkpt lat="44.58887396120657" lon="8.861269310235881"><ele>455.0</ele><time>2026-04-28T08:36:36.999Z</time></trkpt><trkpt lat="44.58879999244403" lon="8.86139783492084"><ele>455.0</ele><time>2026-04-28T08:36:37.999Z</time></trkpt><trkpt lat="44.58873635588744" lon="8.861545457690653"><ele>455.0</ele><time>2026-04-28T08:36:39Z</time></trkpt><trkpt lat="44.58868870733909" lon="8.861675267039029"><ele>455.0</ele><time>2026-04-28T08:36:40Z</time></trkpt><trkpt lat="44.58866085839317" lon="8.861809039337306"><ele>455.0</ele><time>2026-04-28T08:36:41Z</time></trkpt><trkpt lat="44.58867856478551" lon="8.861960541690436"><ele>455.0</ele><time>2026-04-28T08:36:42Z</time></trkpt><trkpt lat="44.588748240388966" lon="8.862092990589641"><ele>455.2</ele><time>2026-04-28T08:36:43Z</time></trkpt><trkpt lat="44.588856016133875" lon="8.862217524763535"><ele>455.4</ele><time>2026-04-28T08:36:44Z</time></trkpt><trkpt lat="44.58892784337175" lon="8.862322314175012"><ele>455.6</ele><time>2026-04-28T08:36:45Z</time></trkpt><trkpt lat="44.58896038028305" lon="8.862436397932465"><ele>455.8</ele><time>2026-04-28T08:36:46Z</time></trkpt><trkpt lat="44.58899651471335" lon="8.862544549837592"><ele>456.0</ele><time>2026-04-28T08:36:47Z</time></trkpt><trkpt lat="44.588969058473765" lon="8.862661564853846"><ele>457.0</ele><time>2026-04-28T08:36:48Z</time></trkpt><trkpt lat="44.5890052452056" lon="8.86277358802458"><ele>458.0</ele><time>2026-04-28T08:36:49Z</time></trkpt><trkpt lat="44.589030309555646" lon="8.862907981487924"><ele>459.0</ele><time>2026-04-28T08:36:50Z</time></trkpt><trkpt lat="44.588750808661565" lon="8.863195262685542"><ele>458.0</ele><time>2026-04-28T08:36:51Z</time></trkpt><trkpt lat="44.58865869344013" lon="8.863398702709011"><ele>457.0</ele><time>2026-04-28T08:36:52Z</time></trkpt><trkpt lat="44.58858564435204" lon="8.863597029856795"><ele>456.0</ele><time>2026-04-28T08:36:53Z</time></trkpt><trkpt lat="44.588538533359504" lon="8.86381583382372"><ele>455.0</ele><time>2026-04-28T08:36:54Z</time></trkpt><trkpt lat="44.588510931532646" lon="8.864075756502888"><ele>454.0</ele><time>2026-04-28T08:36:55Z</time></trkpt><trkpt lat="44.58848259032252" lon="8.864308535649636"><ele>453.0</ele><time>2026-04-28T08:36:56Z</time></trkpt><trkpt lat="44.58844885871678" lon="8.864499427877805"><ele>455.0</ele><time>2026-04-28T08:36:57Z</time></trkpt><trkpt lat="44.58838961768131" lon="8.864676387890723"><ele>457.0</ele><time>2026-04-28T08:36:58Z</time></trkpt><trkpt lat="44.588317408388235" lon="8.864839347630696"><ele>459.0</ele><time>2026-04-28T08:36:59Z</time></trkpt><trkpt lat="44.5882375594032" lon="8.864977824873883"><ele>461.0</ele><time>2026-04-28T08:37:00Z</time></trkpt><trkpt lat="44.58813555010486" lon="8.865089174013454"><ele>460.75</ele><time>2026-04-28T08:37:01Z</time></trkpt><trkpt lat="44.588037395497174" lon="8.865163262587906"><ele>460.5</ele><time>2026-04-28T08:37:02Z</time></trkpt><trkpt lat="44.58790980195238" lon="8.865204560097204"><ele>460.25</ele><time>2026-04-28T08:37:03Z</time></trkpt><trkpt lat="44.587765412733035" lon="8.865230628966412"><ele>460.0</ele><time>2026-04-28T08:37:04Z</time></trkpt><trkpt lat="44.587599071999776" lon="8.86526537181065"><ele>460.0</ele><time>2026-04-28T08:37:05Z</time></trkpt><trkpt lat="44.58742178650948" lon="8.865308412462776"><ele>460.0</ele><time>2026-04-28T08:37:06Z</time></trkpt><trkpt lat="44.58725788059388" lon="8.86538340708199"><ele>460.0</ele><time>2026-04-28T08:37:07Z</time></trkpt><trkpt lat="44.58712993953748" lon="8.865456421107323"><ele>460.0</ele><time>2026-04-28T08:37:08Z</time></trkpt><trkpt lat="44.58701385094516" lon="8.865512357066905"><ele>460.0</ele><time>2026-04-28T08:37:09Z</time></trkpt><trkpt lat="44.58692886992927" lon="8.865531843123678"><ele>460.0</ele><time>2026-04-28T08:37:10Z</time></trkpt><trkpt lat="44.58685299035241" lon="8.86552421032261"><ele>460.0</ele><time>2026-04-28T08:37:11Z</time></trkpt><trkpt lat="44.58678527619056" lon="8.865458320546301"><ele>460.0</ele><time>2026-04-28T08:37:12Z</time></trkpt><trkpt lat="44.58668269671156" lon="8.865401136794052"><ele>460.75</ele><time>2026-04-28T08:37:13Z</time></trkpt><trkpt lat="44.58655880141483" lon="8.865375152683697"><ele>461.5</ele><time>2026-04-28T08:37:14Z</time></trkpt><trkpt lat="44.586432922143494" lon="8.865366632331728"><ele>462.25</ele><time>2026-04-28T08:37:15Z</time></trkpt><trkpt lat="44.5863048836487" lon="8.865387483986687"><ele>463.0</ele><time>2026-04-28T08:37:16Z</time></trkpt><trkpt lat="44.58618269516442" lon="8.865420885257123"><ele>463.4</ele><time>2026-04-28T08:37:17Z</time></trkpt><trkpt lat="44.586085361889396" lon="8.865483650895888"><ele>463.79999999999995</ele><time>2026-04-28T08:37:18Z</time></trkpt><trkpt lat="44.58601285304663" lon="8.86555696928662"><ele>464.2</ele><time>2026-04-28T08:37:19Z</time></trkpt><trkpt lat="44.585955420125146" lon="8.86564439236998"><ele>464.6</ele><time>2026-04-28T08:37:20Z</time></trkpt><trkpt lat="44.5859194333091" lon="8.865781932179718"><ele>465.0</ele><time>2026-04-28T08:37:21Z</time></trkpt><trkpt lat="44.58590227109893" lon="8.865956885815415"><ele>466.75</ele><time>2026-04-28T08:37:22Z</time></trkpt><trkpt lat="44.58589646535923" lon="8.866180119758981"><ele>468.5</ele><time>2026-04-28T08:37:23Z</time></trkpt><trkpt lat="44.58590248877541" lon="8.86639955744573"><ele>470.25</ele><time>2026-04-28T08:37:24Z</time></trkpt><trkpt lat="44.58591649594524" lon="8.86658095892132"><ele>472.0</ele><time>2026-04-28T08:37:25Z</time></trkpt><trkpt lat="44.58590362014862" lon="8.866726689018"><ele>474.0</ele><time>2026-04-28T08:37:26Z</time></trkpt><trkpt lat="44.58587804154704" lon="8.866861515338131"><ele>476.0</ele><time>2026-04-28T08:37:26.999Z</time></trkpt><trkpt lat="44.585795150938296" lon="8.867019770172465"><ele>478.0</ele><time>2026-04-28T08:37:27.999Z</time></trkpt><trkpt lat="44.58569771495363" lon="8.867184734624267"><ele>480.0</ele><time>2026-04-28T08:37:28.999Z</time></trkpt><trkpt lat="44.58560758768373" lon="8.867333900913927"><ele>480.0</ele><time>2026-04-28T08:37:29.999Z</time></trkpt><trkpt lat="44.58551809197029" lon="8.86746533814624"><ele>480.0</ele><time>2026-04-28T08:37:30.999Z</time></trkpt><trkpt lat="44.58543880116207" lon="8.867582006837795"><ele>480.0</ele><time>2026-04-28T08:37:31.999Z</time></trkpt><trkpt lat="44.58535494176598" lon="8.867691766613667"><ele>480.0</ele><time>2026-04-28T08:37:32.999Z</time></trkpt><trkpt lat="44.58526944496578" lon="8.867802380203415"><ele>479.5</ele><time>2026-04-28T08:37:33.999Z</time></trkpt><trkpt lat="44.58518656584358" lon="8.867921482248217"><ele>479.0</ele><time>2026-04-28T08:37:34.999Z</time></trkpt><trkpt lat="44.585090635369724" lon="8.868040510873293"><ele>478.5</ele><time>2026-04-28T08:37:35.999Z</time></trkpt><trkpt lat="44.58498030637767" lon="8.868145226100456"><ele>478.0</ele><time>2026-04-28T08:37:36.999Z</time></trkpt><trkpt lat="44.58487036039668" lon="8.868268081651511"><ele>478.0</ele><time>2026-04-28T08:37:37.999Z</time></trkpt><trkpt lat="44.584748758177234" lon="8.868401634500595"><ele>478.0</ele><time>2026-04-28T08:37:38.999Z</time></trkpt><trkpt lat="44.58460631921401" lon="8.868552174206412"><ele>478.0</ele><time>2026-04-28T08:37:39.999Z</time></trkpt><trkpt lat="44.58446518668302" lon="8.86869462897055"><ele>478.5</ele><time>2026-04-28T08:37:40.999Z</time></trkpt><trkpt lat="44.584332060140014" lon="8.868808761951684"><ele>479.0</ele><time>2026-04-28T08:37:41.999Z</time></trkpt><trkpt lat="44.58420321876849" lon="8.868905889171923"><ele>479.5</ele><time>2026-04-28T08:37:42.999Z</time></trkpt><trkpt lat="44.5840933234215" lon="8.869026004855169"><ele>480.0</ele><time>2026-04-28T08:37:43.999Z</time></trkpt><trkpt lat="44.58398337854487" lon="8.86916812981555"><ele>482.33333333333337</ele><time>2026-04-28T08:37:44.999Z</time></trkpt><trkpt lat="44.58386858313459" lon="8.869325164771796"><ele>484.6666666666667</ele><time>2026-04-28T08:37:45.999Z</time></trkpt><trkpt lat="44.583740054550226" lon="8.86950570206382"><ele>487.0</ele><time>2026-04-28T08:37:46.999Z</time></trkpt><trkpt lat="44.5836193905121" lon="8.869685911852724"><ele>487.0</ele><time>2026-04-28T08:37:47.999Z</time></trkpt><trkpt lat="44.58351220631007" lon="8.86983581640362"><ele>487.0</ele><time>2026-04-28T08:37:48.999Z</time></trkpt><trkpt lat="44.58339632255083" lon="8.869959365213159"><ele>487.0</ele><time>2026-04-28T08:37:49.999Z</time></trkpt><trkpt lat="44.58328144593609" lon="8.870079933711295"><ele>487.0</ele><time>2026-04-28T08:37:50.999Z</time></trkpt><trkpt lat="44.58316755517351" lon="8.87018905601956"><ele>489.0</ele><time>2026-04-28T08:37:51.999Z</time></trkpt><trkpt lat="44.58304772821951" lon="8.870286383140284"><ele>491.0</ele><time>2026-04-28T08:37:52.999Z</time></trkpt><trkpt lat="44.58292821519881" lon="8.870382494779584"><ele>493.0</ele><time>2026-04-28T08:37:53.999Z</time></trkpt><trkpt lat="44.58280499437427" lon="8.870459314786864"><ele>495.0</ele><time>2026-04-28T08:37:54.999Z</time></trkpt><trkpt lat="44.58266706877671" lon="8.870515856199697"><ele>495.0</ele><time>2026-04-28T08:37:55.999Z</time></trkpt><trkpt lat="44.58253864268149" lon="8.870550677557889"><ele>495.0</ele><time>2026-04-28T08:37:56.999Z</time></trkpt><trkpt lat="44.5824254719148" lon="8.870583483838875"><ele>495.0</ele><time>2026-04-28T08:37:57.999Z</time></trkpt><trkpt lat="44.58232531083385" lon="8.870619577446474"><ele>495.0</ele><time>2026-04-28T08:37:58.999Z</time></trkpt><trkpt lat="44.58223971001677" lon="8.870690541138728"><ele>495.0</ele><time>2026-04-28T08:37:59.999Z</time></trkpt><trkpt lat="44.582175864197836" lon="8.870821774317445"><ele>498.66666666666663</ele><time>2026-04-28T08:38:00.999Z</time></trkpt><trkpt lat="44.58209532586285" lon="8.870977921438172"><ele>502.3333333333333</ele><time>2026-04-28T08:38:01.999Z</time></trkpt><trkpt lat="44.58198467022191" lon="8.871124698333276"><ele>506.0</ele><time>2026-04-28T08:38:02.999Z</time></trkpt><trkpt lat="44.5818502515505" lon="8.871278528737454"><ele>506.0</ele><time>2026-04-28T08:38:03.999Z</time></trkpt><trkpt lat="44.581707454893134" lon="8.871426491723446"><ele>506.0</ele><time>2026-04-28T08:38:04.999Z</time></trkpt><trkpt lat="44.58154692829538" lon="8.871571246016716"><ele>506.0</ele><time>2026-04-28T08:38:05.999Z</time></trkpt><trkpt lat="44.5814079768015" lon="8.871690642018386"><ele>506.25</ele><time>2026-04-28T08:38:06.999Z</time></trkpt><trkpt lat="44.58128299271198" lon="8.871794696668037"><ele>506.5</ele><time>2026-04-28T08:38:07.999Z</time></trkpt><trkpt lat="44.58117619263203" lon="8.871890146293572"><ele>506.75</ele><time>2026-04-28T08:38:08.999Z</time></trkpt><trkpt lat="44.581080372380264" lon="8.871984434469802"><ele>507.0</ele><time>2026-04-28T08:38:09.999Z</time></trkpt><trkpt lat="44.580999117238086" lon="8.872094166679773"><ele>507.0</ele><time>2026-04-28T08:38:10.999Z</time></trkpt><trkpt lat="44.58093165858201" lon="8.872244227934415"><ele>507.0</ele><time>2026-04-28T08:38:11.999Z</time></trkpt><trkpt lat="44.58086545843204" lon="8.872420979309243"><ele>507.0</ele><time>2026-04-28T08:38:12.999Z</time></trkpt><trkpt lat="44.58078911152742" lon="8.872610168611695"><ele>507.0</ele><time>2026-04-28T08:38:13.999Z</time></trkpt><trkpt lat="44.580707195753305" lon="8.87281126455847"><ele>513.0</ele><time>2026-04-28T08:38:14.999Z</time></trkpt><trkpt lat="44.5806340388498" lon="8.872994193971028"><ele>519.0</ele><time>2026-04-28T08:38:15.999Z</time></trkpt><trkpt lat="44.580559088995" lon="8.873141728478721"><ele>525.0</ele><time>2026-04-28T08:38:16.999Z</time></trkpt><trkpt lat="44.58047201213683" lon="8.873268601953386"><ele>531.0</ele><time>2026-04-28T08:38:17.999Z</time></trkpt><trkpt lat="44.58036850397092" lon="8.873380860613741"><ele>530.6666666666666</ele><time>2026-04-28T08:38:18.999Z</time></trkpt><trkpt lat="44.58024421171111" lon="8.873492812224672"><ele>530.3333333333333</ele><time>2026-04-28T08:38:19.999Z</time></trkpt><trkpt lat="44.58010817102029" lon="8.87360368920903"><ele>530.0</ele><time>2026-04-28T08:38:20.999Z</time></trkpt><trkpt lat="44.579967060488656" lon="8.873707325049265"><ele>530.0</ele><time>2026-04-28T08:38:21.999Z</time></trkpt><trkpt lat="44.57983052755439" lon="8.873803966333728"><ele>530.0</ele><time>2026-04-28T08:38:22.999Z</time></trkpt><trkpt lat="44.579696769189106" lon="8.87389180197009"><ele>530.0</ele><time>2026-04-28T08:38:23.999Z</time></trkpt><trkpt lat="44.57957222639903" lon="8.873953589881427"><ele>530.0</ele><time>2026-04-28T08:38:24.999Z</time></trkpt><trkpt lat="44.57945698816848" lon="8.87402028471221"><ele>530.5</ele><time>2026-04-28T08:38:25.999Z</time></trkpt><trkpt lat="44.57934850734879" lon="8.874096488509188"><ele>531.0</ele><time>2026-04-28T08:38:26.999Z</time></trkpt><trkpt lat="44.579253474300174" lon="8.87418336703955"><ele>531.5</ele><time>2026-04-28T08:38:27.999Z</time></trkpt><trkpt lat="44.579147341641225" lon="8.874336636404761"><ele>532.0</ele><time>2026-04-28T08:38:28.999Z</time></trkpt><trkpt lat="44.57902952389178" lon="8.874527313239772"><ele>532.0</ele><time>2026-04-28T08:38:29.999Z</time></trkpt><trkpt lat="44.57891928557738" lon="8.87468416879661"><ele>532.0</ele><time>2026-04-28T08:38:30.999Z</time></trkpt><trkpt lat="44.57883309894247" lon="8.874780146801044"><ele>532.0</ele><time>2026-04-28T08:38:31.999Z</time></trkpt><trkpt lat="44.578746462655374" lon="8.874852133201827"><ele>532.0</ele><time>2026-04-28T08:38:32.999Z</time></trkpt><trkpt lat="44.578632848263474" lon="8.874890939781174"><ele>530.0</ele><time>2026-04-28T08:38:33.999Z</time></trkpt><trkpt lat="44.57850719177319" lon="8.874903123834525"><ele>528.0</ele><time>2026-04-28T08:38:34.999Z</time></trkpt><trkpt lat="44.578382605306764" lon="8.874906164386392"><ele>526.0</ele><time>2026-04-28T08:38:35.999Z</time></trkpt><trkpt lat="44.57828915638159" lon="8.874924454354089"><ele>524.0</ele><time>2026-04-28T08:38:36.999Z</time></trkpt><trkpt lat="44.57819585473607" lon="8.87498477065844"><ele>522.0</ele><time>2026-04-28T08:38:37.999Z</time></trkpt><trkpt lat="44.57811836241285" lon="8.875086262018788"><ele>525.6</ele><time>2026-04-28T08:38:38.999Z</time></trkpt><trkpt lat="44.578053297422734" lon="8.875197398345986"><ele>529.2</ele><time>2026-04-28T08:38:39.999Z</time></trkpt><trkpt lat="44.578005555545396" lon="8.875311603510669"><ele>532.8</ele><time>2026-04-28T08:38:40.999Z</time></trkpt><trkpt lat="44.577991612277216" lon="8.875429383850138"><ele>536.4</ele><time>2026-04-28T08:38:41.999Z</time></trkpt><trkpt lat="44.57800307851727" lon="8.875584337293427"><ele>540.0</ele><time>2026-04-28T08:38:42.999Z</time></trkpt><trkpt lat="44.577987836601025" lon="8.875759739774864"><ele>537.6666666666666</ele><time>2026-04-28T08:38:43.999Z</time></trkpt><trkpt lat="44.577931328589884" lon="8.875938351151698"><ele>535.3333333333333</ele><time>2026-04-28T08:38:45Z</time></trkpt><trkpt lat="44.57786329672836" lon="8.876140076302397"><ele>533.0</ele><time>2026-04-28T08:38:46Z</time></trkpt><trkpt lat="44.577811766902386" lon="8.876349683151115"><ele>533.0</ele><time>2026-04-28T08:38:47Z</time></trkpt><trkpt lat="44.57774932329016" lon="8.876538255437532"><ele>533.0</ele><time>2026-04-28T08:38:48Z</time></trkpt><trkpt lat="44.57768353595062" lon="8.87669520852822"><ele>533.0</ele><time>2026-04-28T08:38:49Z</time></trkpt><trkpt lat="44.577616060831886" lon="8.876830672231824"><ele>533.0</ele><time>2026-04-28T08:38:50Z</time></trkpt><trkpt lat="44.577571771657944" lon="8.876970265665783"><ele>533.75</ele><time>2026-04-28T08:38:51Z</time></trkpt><trkpt lat="44.57753031324884" lon="8.87714679407289"><ele>534.5</ele><time>2026-04-28T08:38:52Z</time></trkpt><trkpt lat="44.57752565490393" lon="8.877348826619134"><ele>535.25</ele><time>2026-04-28T08:38:53Z</time></trkpt><trkpt lat="44.577520112532326" lon="8.877545854777008"><ele>536.0</ele><time>2026-04-28T08:38:54Z</time></trkpt><trkpt lat="44.57753872002533" lon="8.877740075819279"><ele>537.0</ele><time>2026-04-28T08:38:55Z</time></trkpt><trkpt lat="44.57756978095649" lon="8.877927197002133"><ele>538.0</ele><time>2026-04-28T08:38:56Z</time></trkpt><trkpt lat="44.57760340770046" lon="8.878106694894859"><ele>539.0</ele><time>2026-04-28T08:38:57Z</time></trkpt><trkpt lat="44.57758595209614" lon="8.878233514629528"><ele>540.0</ele><time>2026-04-28T08:38:58Z</time></trkpt><trkpt lat="44.57758589652563" lon="8.878342411375682"><ele>541.0</ele><time>2026-04-28T08:38:59Z</time></trkpt><trkpt lat="44.57748882854598" lon="8.878429130399272"><ele>541.0</ele><time>2026-04-28T08:39:00Z</time></trkpt><trkpt lat="44.57739753270151" lon="8.87852532451434"><ele>541.0</ele><time>2026-04-28T08:39:01Z</time></trkpt><trkpt lat="44.57728572706612" lon="8.878633165047429"><ele>541.0</ele><time>2026-04-28T08:39:02Z</time></trkpt><trkpt lat="44.5771555586159" lon="8.878773178491524"><ele>541.0</ele><time>2026-04-28T08:39:03Z</time></trkpt><trkpt lat="44.57701400852073" lon="8.878855462146825"><ele>541.0</ele><time>2026-04-28T08:39:04Z</time></trkpt><trkpt lat="44.57690384255999" lon="8.878933720307785"><ele>541.0</ele><time>2026-04-28T08:39:05Z</time></trkpt><trkpt lat="44.57680697833244" lon="8.879044952864035"><ele>541.0</ele><time>2026-04-28T08:39:06Z</time></trkpt><trkpt lat="44.57671170168211" lon="8.879214712898955"><ele>541.0</ele><time>2026-04-28T08:39:07Z</time></trkpt><trkpt lat="44.57660043216931" lon="8.879377361845664"><ele>543.0</ele><time>2026-04-28T08:39:08Z</time></trkpt><trkpt lat="44.57645670221475" lon="8.879528793999254"><ele>545.0</ele><time>2026-04-28T08:39:09Z</time></trkpt><trkpt lat="44.576296161826015" lon="8.879663647150142"><ele>547.0</ele><time>2026-04-28T08:39:10Z</time></trkpt><trkpt lat="44.57616146009192" lon="8.879823293813907"><ele>547.0</ele><time>2026-04-28T08:39:11Z</time></trkpt><trkpt lat="44.576050438911004" lon="8.879923651513241"><ele>547.0</ele><time>2026-04-28T08:39:12Z</time></trkpt><trkpt lat="44.57593918333665" lon="8.87998577201051"><ele>547.0</ele><time>2026-04-28T08:39:13Z</time></trkpt><trkpt lat="44.5758106125514" lon="8.88001873334972"><ele>547.0</ele><time>2026-04-28T08:39:14Z</time></trkpt><trkpt lat="44.575682675089254" lon="8.880094013537244"><ele>548.5</ele><time>2026-04-28T08:39:15Z</time></trkpt><trkpt lat="44.57556028294754" lon="8.880205905030147"><ele>550.0</ele><time>2026-04-28T08:39:16Z</time></trkpt><trkpt lat="44.57545349986022" lon="8.880326439873246"><ele>551.5</ele><time>2026-04-28T08:39:17Z</time></trkpt><trkpt lat="44.57537390694298" lon="8.880461570017419"><ele>553.0</ele><time>2026-04-28T08:39:18Z</time></trkpt><trkpt lat="44.57531659104986" lon="8.880644620496973"><ele>553.0</ele><time>2026-04-28T08:39:19Z</time></trkpt><trkpt lat="44.57525616284018" lon="8.880824344388685"><ele>553.0</ele><time>2026-04-28T08:39:20Z</time></trkpt><trkpt lat="44.575181645848716" lon="8.880950610051118"><ele>553.0</ele><time>2026-04-28T08:39:21Z</time></trkpt><trkpt lat="44.57508635273756" lon="8.881042441775548"><ele>553.0</ele><time>2026-04-28T08:39:22Z</time></trkpt><trkpt lat="44.57498170822166" lon="8.88108842291993"><ele>555.75</ele><time>2026-04-28T08:39:23Z</time></trkpt><trkpt lat="44.57484760199133" lon="8.881094370540914"><ele>558.5</ele><time>2026-04-28T08:39:24Z</time></trkpt><trkpt lat="44.57468833675228" lon="8.881078718729373"><ele>561.25</ele><time>2026-04-28T08:39:25Z</time></trkpt><trkpt lat="44.57453503431554" lon="8.881071384414964"><ele>564.0</ele><time>2026-04-28T08:39:26Z</time></trkpt><trkpt lat="44.57441099537761" lon="8.881092573543144"><ele>564.0</ele><time>2026-04-28T08:39:27Z</time></trkpt><trkpt lat="44.574285102493285" lon="8.881144790617368"><ele>564.0</ele><time>2026-04-28T08:39:28Z</time></trkpt><trkpt lat="44.57413329742346" lon="8.88124064296792"><ele>564.0</ele><time>2026-04-28T08:39:29Z</time></trkpt><trkpt lat="44.57398828383075" lon="8.881348069628208"><ele>564.0</ele><time>2026-04-28T08:39:30Z</time></trkpt><trkpt lat="44.57387563247523" lon="8.881447484045134"><ele>564.0</ele><time>2026-04-28T08:39:31Z</time></trkpt><trkpt lat="44.57378311491296" lon="8.881534954154601"><ele>564.0</ele><time>2026-04-28T08:39:32Z</time></trkpt><trkpt lat="44.57368916922119" lon="8.881648679858968"><ele>564.0</ele><time>2026-04-28T08:39:33Z</time></trkpt><trkpt lat="44.57358481025534" lon="8.881778406903784"><ele>565.6666666666666</ele><time>2026-04-28T08:39:34Z</time></trkpt><trkpt lat="44.573462176005336" lon="8.881912331548195"><ele>567.3333333333333</ele><time>2026-04-28T08:39:35Z</time></trkpt><trkpt lat="44.57333329915371" lon="8.882035312867124"><ele>569.0</ele><time>2026-04-28T08:39:36Z</time></trkpt><trkpt lat="44.573206998189775" lon="8.882149876211995"><ele>569.0</ele><time>2026-04-28T08:39:37Z</time></trkpt><trkpt lat="44.57309255733321" lon="8.882279182127503"><ele>569.0</ele><time>2026-04-28T08:39:38Z</time></trkpt><trkpt lat="44.57298759476417" lon="8.882421562754812"><ele>569.0</ele><time>2026-04-28T08:39:39Z</time></trkpt><trkpt lat="44.572901316395" lon="8.882558768276917"><ele>569.0</ele><time>2026-04-28T08:39:40Z</time></trkpt><trkpt lat="44.572845348448254" lon="8.88270328254906"><ele>570.75</ele><time>2026-04-28T08:39:41Z</time></trkpt><trkpt lat="44.57281536239641" lon="8.88287814372845"><ele>572.5</ele><time>2026-04-28T08:39:41.999Z</time></trkpt><trkpt lat="44.57277152194845" lon="8.883073729342406"><ele>574.25</ele><time>2026-04-28T08:39:42.999Z</time></trkpt><trkpt lat="44.572732506226345" lon="8.883235535394281"><ele>576.0</ele><time>2026-04-28T08:39:43.999Z</time></trkpt><trkpt lat="44.57268916520402" lon="8.883361615169006"><ele>579.0</ele><time>2026-04-28T08:39:44.999Z</time></trkpt><trkpt lat="44.57263623959619" lon="8.883433044445837"><ele>582.0</ele><time>2026-04-28T08:39:45.999Z</time></trkpt><trkpt lat="44.57257585680686" lon="8.883474513213212"><ele>585.0</ele><time>2026-04-28T08:39:46.999Z</time></trkpt><trkpt lat="44.572492113441484" lon="8.883506752792009"><ele>588.0</ele><time>2026-04-28T08:39:47.999Z</time></trkpt><trkpt lat="44.57233825496601" lon="8.883472717795875"><ele>591.0</ele><time>2026-04-28T08:39:48.999Z</time></trkpt><trkpt lat="44.57222899992658" lon="8.883473069202385"><ele>591.0</ele><time>2026-04-28T08:39:49.999Z</time></trkpt><trkpt lat="44.572139343185334" lon="8.883525006175892"><ele>591.0</ele><time>2026-04-28T08:39:50.999Z</time></trkpt><trkpt lat="44.57205024407845" lon="8.883621375256446"><ele>591.0</ele><time>2026-04-28T08:39:51.999Z</time></trkpt><trkpt lat="44.57197869883744" lon="8.88381061165262"><ele>591.0</ele><time>2026-04-28T08:39:52.999Z</time></trkpt><trkpt lat="44.57189965136983" lon="8.884024747601385"><ele>590.75</ele><time>2026-04-28T08:39:53.999Z</time></trkpt><trkpt lat="44.5718197587571" lon="8.884177139642533"><ele>590.5</ele><time>2026-04-28T08:39:54.999Z</time></trkpt><trkpt lat="44.57175198984665" lon="8.884318294724336"><ele>590.25</ele><time>2026-04-28T08:39:55.999Z</time></trkpt><trkpt lat="44.57169046496499" lon="8.884417356040528"><ele>590.0</ele><time>2026-04-28T08:39:56.999Z</time></trkpt><trkpt lat="44.57161401399591" lon="8.884519410978548"><ele>591.0</ele><time>2026-04-28T08:39:57.999Z</time></trkpt><trkpt lat="44.57150962324038" lon="8.884590266227478"><ele>592.0</ele><time>2026-04-28T08:39:58.999Z</time></trkpt><trkpt lat="44.571404355977606" lon="8.884614725064962"><ele>593.0</ele><time>2026-04-28T08:39:59.999Z</time></trkpt><trkpt lat="44.57133269587594" lon="8.884590059212181"><ele>594.0</ele><time>2026-04-28T08:40:00.999Z</time></trkpt><trkpt lat="44.571218055596184" lon="8.884513670958142"><ele>595.0</ele><time>2026-04-28T08:40:01.999Z</time></trkpt><trkpt lat="44.57110041847803" lon="8.884430411448452"><ele>595.75</ele><time>2026-04-28T08:40:02.999Z</time></trkpt><trkpt lat="44.570969772917536" lon="8.88439420713746"><ele>596.5</ele><time>2026-04-28T08:40:03.999Z</time></trkpt><trkpt lat="44.57084931814031" lon="8.884420578463592"><ele>597.25</ele><time>2026-04-28T08:40:04.999Z</time></trkpt><trkpt lat="44.57073468500025" lon="8.884479919612275"><ele>598.0</ele><time>2026-04-28T08:40:05.999Z</time></trkpt><trkpt lat="44.57060320224767" lon="8.884558666948537"><ele>598.0</ele><time>2026-04-28T08:40:06.999Z</time></trkpt><trkpt lat="44.570466458170614" lon="8.884669284194551"><ele>598.0</ele><time>2026-04-28T08:40:07.999Z</time></trkpt><trkpt lat="44.570360038760015" lon="8.884828338269042"><ele>598.0</ele><time>2026-04-28T08:40:08.999Z</time></trkpt><trkpt lat="44.57025297850916" lon="8.884973009802414"><ele>601.3333333333334</ele><time>2026-04-28T08:40:09.999Z</time></trkpt><trkpt lat="44.57014700156757" lon="8.885118216140391"><ele>604.6666666666666</ele><time>2026-04-28T08:40:10.999Z</time></trkpt><trkpt lat="44.570002851194076" lon="8.88521787032678"><ele>608.0</ele><time>2026-04-28T08:40:11.999Z</time></trkpt><trkpt lat="44.56986887839416" lon="8.885324113582456"><ele>608.0</ele><time>2026-04-28T08:40:12.999Z</time></trkpt><trkpt lat="44.56976470896573" lon="8.885492714623242"><ele>608.0</ele><time>2026-04-28T08:40:13.999Z</time></trkpt><trkpt lat="44.569671159998485" lon="8.885694143992"><ele>608.0</ele><time>2026-04-28T08:40:14.999Z</time></trkpt><trkpt lat="44.56958732206533" lon="8.88584848030054"><ele>609.25</ele><time>2026-04-28T08:40:15.999Z</time></trkpt><trkpt lat="44.56946481825884" lon="8.885946088437485"><ele>610.5</ele><time>2026-04-28T08:40:16.999Z</time></trkpt><trkpt lat="44.56934571161702" lon="8.88601574990207"><ele>611.75</ele><time>2026-04-28T08:40:17.999Z</time></trkpt><trkpt lat="44.5692129620811" lon="8.886058995346183"><ele>613.0</ele><time>2026-04-28T08:40:18.999Z</time></trkpt><trkpt lat="44.56908070235991" lon="8.886103019232724"><ele>613.0</ele><time>2026-04-28T08:40:19.999Z</time></trkpt><trkpt lat="44.56894199208079" lon="8.886194593504545"><ele>613.0</ele><time>2026-04-28T08:40:20.999Z</time></trkpt><trkpt lat="44.568809440222395" lon="8.88634077028232"><ele>613.0</ele><time>2026-04-28T08:40:21.999Z</time></trkpt><trkpt lat="44.568694450002404" lon="8.886479529026753"><ele>613.75</ele><time>2026-04-28T08:40:22.999Z</time></trkpt><trkpt lat="44.56858413242598" lon="8.886602097575308"><ele>614.5</ele><time>2026-04-28T08:40:23.999Z</time></trkpt><trkpt lat="44.56847159421074" lon="8.886683962473274"><ele>615.25</ele><time>2026-04-28T08:40:24.999Z</time></trkpt><trkpt lat="44.56834599067807" lon="8.88675687420038"><ele>616.0</ele><time>2026-04-28T08:40:25.999Z</time></trkpt><trkpt lat="44.56821349320185" lon="8.886805646199322"><ele>616.5</ele><time>2026-04-28T08:40:26.999Z</time></trkpt><trkpt lat="44.56808034649052" lon="8.886836564012128"><ele>617.0</ele><time>2026-04-28T08:40:27.999Z</time></trkpt><trkpt lat="44.567945528421674" lon="8.886873223053813"><ele>617.5</ele><time>2026-04-28T08:40:28.999Z</time></trkpt><trkpt lat="44.56780683148464" lon="8.88693797176669"><ele>618.0</ele><time>2026-04-28T08:40:29.999Z</time></trkpt><trkpt lat="44.56767608135367" lon="8.887058811892022"><ele>618.0</ele><time>2026-04-28T08:40:30.999Z</time></trkpt><trkpt lat="44.5675462417576" lon="8.887198742953302"><ele>618.0</ele><time>2026-04-28T08:40:31.999Z</time></trkpt><trkpt lat="44.567438623320015" lon="8.887324076874963"><ele>618.0</ele><time>2026-04-28T08:40:32.999Z</time></trkpt><trkpt lat="44.567331898192656" lon="8.887415990311531"><ele>618.0</ele><time>2026-04-28T08:40:33.999Z</time></trkpt><trkpt lat="44.56722259890787" lon="8.887459861852058"><ele>618.0</ele><time>2026-04-28T08:40:34.999Z</time></trkpt><trkpt lat="44.56711513496791" lon="8.887455883594658"><ele>618.0</ele><time>2026-04-28T08:40:35.999Z</time></trkpt><trkpt lat="44.56698513949579" lon="8.887412117668353"><ele>618.0</ele><time>2026-04-28T08:40:36.999Z</time></trkpt><trkpt lat="44.56685040242467" lon="8.887365703174853"><ele>618.0</ele><time>2026-04-28T08:40:37.999Z</time></trkpt><trkpt lat="44.56670833092532" lon="8.88734254313566"><ele>620.0</ele><time>2026-04-28T08:40:38.999Z</time></trkpt><trkpt lat="44.566565660183976" lon="8.88730249611169"><ele>622.0</ele><time>2026-04-28T08:40:39.999Z</time></trkpt><trkpt lat="44.56641394089811" lon="8.887260971702737"><ele>624.0</ele><time>2026-04-28T08:40:40.999Z</time></trkpt><trkpt lat="44.5662787251482" lon="8.887218758883579"><ele>626.0</ele><time>2026-04-28T08:40:41.999Z</time></trkpt><trkpt lat="44.56613041388231" lon="8.887248525610048"><ele>629.0</ele><time>2026-04-28T08:40:42.999Z</time></trkpt><trkpt lat="44.56597628342968" lon="8.88731489827129"><ele>632.0</ele><time>2026-04-28T08:40:43.999Z</time></trkpt><trkpt lat="44.56581430787691" lon="8.887325069985032"><ele>635.0</ele><time>2026-04-28T08:40:44.999Z</time></trkpt><trkpt lat="44.56566699316358" lon="8.887303614653906"><ele>635.0</ele><time>2026-04-28T08:40:45.999Z</time></trkpt><trkpt lat="44.56552708431174" lon="8.887290414454988"><ele>635.0</ele><time>2026-04-28T08:40:46.999Z</time></trkpt><trkpt lat="44.56537974219088" lon="8.887275416854857"><ele>635.0</ele><time>2026-04-28T08:40:47.999Z</time></trkpt><trkpt lat="44.56524928620291" lon="8.887275274888355"><ele>635.0</ele><time>2026-04-28T08:40:48.999Z</time></trkpt><trkpt lat="44.565123818582485" lon="8.887254272690067"><ele>636.75</ele><time>2026-04-28T08:40:49.999Z</time></trkpt><trkpt lat="44.56498260464623" lon="8.887201724234037"><ele>638.5</ele><time>2026-04-28T08:40:51Z</time></trkpt><trkpt lat="44.564841951970806" lon="8.887142500792216"><ele>640.25</ele><time>2026-04-28T08:40:52Z</time></trkpt><trkpt lat="44.56471086350866" lon="8.88707511019449"><ele>642.0</ele><time>2026-04-28T08:40:53Z</time></trkpt><trkpt lat="44.56457132323819" lon="8.887021857928373"><ele>642.25</ele><time>2026-04-28T08:40:54Z</time></trkpt><trkpt lat="44.56441879257492" lon="8.886987175916069"><ele>642.5</ele><time>2026-04-28T08:40:55Z</time></trkpt><trkpt lat="44.56429479806871" lon="8.886990073572441"><ele>642.75</ele><time>2026-04-28T08:40:56Z</time></trkpt><trkpt lat="44.564169995734126" lon="8.887028799975797"><ele>643.0</ele><time>2026-04-28T08:40:57Z</time></trkpt><trkpt lat="44.56403821824092" lon="8.8871230381564"><ele>643.0</ele><time>2026-04-28T08:40:58Z</time></trkpt><trkpt lat="44.563901106174" lon="8.887233592670867"><ele>643.0</ele><time>2026-04-28T08:40:59Z</time></trkpt><trkpt lat="44.56376593029556" lon="8.88735381163977"><ele>643.0</ele><time>2026-04-28T08:41:00Z</time></trkpt><trkpt lat="44.563628610704406" lon="8.887454397080894"><ele>643.5</ele><time>2026-04-28T08:41:01Z</time></trkpt><trkpt lat="44.56350561692392" lon="8.88753721975621"><ele>644.0</ele><time>2026-04-28T08:41:02Z</time></trkpt><trkpt lat="44.56338318553682" lon="8.887582942135797"><ele>644.5</ele><time>2026-04-28T08:41:03Z</time></trkpt><trkpt lat="44.56325024052088" lon="8.88758609721634"><ele>645.0</ele><time>2026-04-28T08:41:04Z</time></trkpt><trkpt lat="44.56311318153412" lon="8.88756062506501"><ele>645.0</ele><time>2026-04-28T08:41:05Z</time></trkpt><trkpt lat="44.56300029870062" lon="8.88757991643154"><ele>645.0</ele><time>2026-04-28T08:41:06Z</time></trkpt><trkpt lat="44.56285781185165" lon="8.88766186146339"><ele>645.0</ele><time>2026-04-28T08:41:07Z</time></trkpt><trkpt lat="44.56270645873747" lon="8.887733737165982"><ele>645.0</ele><time>2026-04-28T08:41:08Z</time></trkpt><trkpt lat="44.562592386539905" lon="8.887797462696698"><ele>649.0</ele><time>2026-04-28T08:41:09Z</time></trkpt><trkpt lat="44.56248084339975" lon="8.887820246292026"><ele>653.0</ele><time>2026-04-28T08:41:10Z</time></trkpt><trkpt lat="44.562348296854026" lon="8.887813432376115"><ele>657.0</ele><time>2026-04-28T08:41:11Z</time></trkpt><trkpt lat="44.56220666304148" lon="8.887799465421113"><ele>661.0</ele><time>2026-04-28T08:41:12Z</time></trkpt><trkpt lat="44.56204228158598" lon="8.88779071926156"><ele>661.6666666666667</ele><time>2026-04-28T08:41:13Z</time></trkpt><trkpt lat="44.561862423860255" lon="8.887810081898934"><ele>662.3333333333334</ele><time>2026-04-28T08:41:14Z</time></trkpt><trkpt lat="44.561655463819186" lon="8.887832475881003"><ele>663.0</ele><time>2026-04-28T08:41:15Z</time></trkpt><trkpt lat="44.561453180290655" lon="8.887851566914257"><ele>663.0</ele><time>2026-04-28T08:41:16Z</time></trkpt><trkpt lat="44.56128030528413" lon="8.88787408623313"><ele>663.0</ele><time>2026-04-28T08:41:17Z</time></trkpt><trkpt lat="44.56110245090398" lon="8.887889253313666"><ele>663.0</ele><time>2026-04-28T08:41:18Z</time></trkpt><trkpt lat="44.56090837999631" lon="8.88787460032312"><ele>663.3333333333334</ele><time>2026-04-28T08:41:19Z</time></trkpt><trkpt lat="44.560704515505165" lon="8.887805055080085"><ele>663.6666666666667</ele><time>2026-04-28T08:41:20Z</time></trkpt><trkpt lat="44.56048549776015" lon="8.887761498106126"><ele>664.0</ele><time>2026-04-28T08:41:21Z</time></trkpt><trkpt lat="44.56026531022868" lon="8.887762617197515"><ele>664.0</ele><time>2026-04-28T08:41:22Z</time></trkpt><trkpt lat="44.560082022085204" lon="8.887778147652527"><ele>664.0</ele><time>2026-04-28T08:41:23Z</time></trkpt><trkpt lat="44.55991946190545" lon="8.887756515337738"><ele>664.0</ele><time>2026-04-28T08:41:24Z</time></trkpt><trkpt lat="44.559765435718674" lon="8.88778504893528"><ele>664.0</ele><time>2026-04-28T08:41:25Z</time></trkpt><trkpt lat="44.55963418681626" lon="8.887804921396993"><ele>664.0</ele><time>2026-04-28T08:41:26Z</time></trkpt><trkpt lat="44.559486713480084" lon="8.88787510683493"><ele>664.0</ele><time>2026-04-28T08:41:27Z</time></trkpt><trkpt lat="44.559364723808265" lon="8.887988247388986"><ele>664.0</ele><time>2026-04-28T08:41:28Z</time></trkpt><trkpt lat="44.559263151518586" lon="8.888091902476734"><ele>665.5</ele><time>2026-04-28T08:41:29Z</time></trkpt><trkpt lat="44.559171841428196" lon="8.888156616359135"><ele>667.0</ele><time>2026-04-28T08:41:30Z</time></trkpt><trkpt lat="44.55906975019764" lon="8.888171783669716"><ele>668.5</ele><time>2026-04-28T08:41:31Z</time></trkpt><trkpt lat="44.55895243059243" lon="8.888148904716234"><ele>670.0</ele><time>2026-04-28T08:41:32Z</time></trkpt><trkpt lat="44.55883535120692" lon="8.888071575632969"><ele>670.0</ele><time>2026-04-28T08:41:33Z</time></trkpt><trkpt lat="44.55872705802184" lon="8.887993238075095"><ele>670.0</ele><time>2026-04-28T08:41:34Z</time></trkpt><trkpt lat="44.55866320506083" lon="8.887843827178129"><ele>670.0</ele><time>2026-04-28T08:41:35Z</time></trkpt><trkpt lat="44.55862017772181" lon="8.887714558814698"><ele>670.0</ele><time>2026-04-28T08:41:36Z</time></trkpt><trkpt lat="44.55859373536232" lon="8.887541401116582"><ele>672.1666666666667</ele><time>2026-04-28T08:41:37Z</time></trkpt><trkpt lat="44.55857703104546" lon="8.887387865558036"><ele>674.3333333333334</ele><time>2026-04-28T08:41:38Z</time></trkpt><trkpt lat="44.558549731298655" lon="8.887286934043962"><ele>676.5</ele><time>2026-04-28T08:41:39Z</time></trkpt><trkpt lat="44.55850236454481" lon="8.887212886994694"><ele>678.6666666666666</ele><time>2026-04-28T08:41:40Z</time></trkpt><trkpt lat="44.55841251977469" lon="8.887188262275066"><ele>680.8333333333333</ele><time>2026-04-28T08:41:41Z</time></trkpt><trkpt lat="44.558318782622585" lon="8.88717721441629"><ele>683.0</ele><time>2026-04-28T08:41:42Z</time></trkpt><trkpt lat="44.5582422179004" lon="8.887153709949803"><ele>683.0</ele><time>2026-04-28T08:41:42.999Z</time></trkpt><trkpt lat="44.558185718200356" lon="8.887104177211896"><ele>683.0</ele><time>2026-04-28T08:41:43.999Z</time></trkpt><trkpt lat="44.55812575483868" lon="8.887048585622262"><ele>683.0</ele><time>2026-04-28T08:41:44.999Z</time></trkpt><trkpt lat="44.558070543389334" lon="8.88693892711481"><ele>683.0</ele><time>2026-04-28T08:41:45.999Z</time></trkpt><trkpt lat="44.55802826734783" lon="8.886789083500796"><ele>683.0</ele><time>2026-04-28T08:41:46.999Z</time></trkpt><trkpt lat="44.55798834592876" lon="8.886642784509402"><ele>685.2</ele><time>2026-04-28T08:41:47.999Z</time></trkpt><trkpt lat="44.557957593000765" lon="8.886520427576471"><ele>687.4</ele><time>2026-04-28T08:41:48.999Z</time></trkpt><trkpt lat="44.55791208429977" lon="8.886415761947202"><ele>689.6</ele><time>2026-04-28T08:41:49.999Z</time></trkpt><trkpt lat="44.55785328832659" lon="8.886317482352204"><ele>691.8000000000001</ele><time>2026-04-28T08:41:50.999Z</time></trkpt><trkpt lat="44.557761564565894" lon="8.88624904559505"><ele>694.0</ele><time>2026-04-28T08:41:51.999Z</time></trkpt><trkpt lat="44.557653052106396" lon="8.886198694002253"><ele>694.1666666666667</ele><time>2026-04-28T08:41:52.999Z</time></trkpt><trkpt lat="44.5575639480107" lon="8.886173526601242"><ele>694.3333333333334</ele><time>2026-04-28T08:41:53.999Z</time></trkpt><trkpt lat="44.55748836333051" lon="8.886145694001822"><ele>694.5</ele><time>2026-04-28T08:41:54.999Z</time></trkpt><trkpt lat="44.557379979870234" lon="8.886163511322009"><ele>694.6666666666666</ele><time>2026-04-28T08:41:56.999Z</time></trkpt><trkpt lat="44.557318274725226" lon="8.886277890169556"><ele>694.8333333333333</ele><time>2026-04-28T08:41:58.999Z</time></trkpt><trkpt lat="44.55733046483622" lon="8.886371235411778"><ele>695.0</ele><time>2026-04-28T08:41:59.999Z</time></trkpt><trkpt lat="44.55740797515828" lon="8.886453600456958"><ele>695.0</ele><time>2026-04-28T08:42:00.999Z</time></trkpt><trkpt lat="44.557497856292386" lon="8.886520831584852"><ele>695.0</ele><time>2026-04-28T08:42:01.999Z</time></trkpt><trkpt lat="44.55755909149761" lon="8.886591891379634"><ele>695.0</ele><time>2026-04-28T08:42:02.999Z</time></trkpt><trkpt lat="44.557607368198546" lon="8.886669771558793"><ele>695.0</ele><time>2026-04-28T08:42:03.999Z</time></trkpt><trkpt lat="44.55764230248285" lon="8.886761402720014"><ele>695.0</ele><time>2026-04-28T08:42:04.999Z</time></trkpt><trkpt lat="44.557651923826675" lon="8.886874037607955"><ele>695.0</ele><time>2026-04-28T08:42:05.999Z</time></trkpt><trkpt lat="44.55764354674442" lon="8.88698864661054"><ele>693.3333333333333</ele><time>2026-04-28T08:42:06.999Z</time></trkpt><trkpt lat="44.5576277322246" lon="8.887088292201351"><ele>691.6666666666666</ele><time>2026-04-28T08:42:07.999Z</time></trkpt><trkpt lat="44.55756788562806" lon="8.887164917152456"><ele>690.0</ele><time>2026-04-28T08:42:08.999Z</time></trkpt><trkpt lat="44.55749564280299" lon="8.887221402299122"><ele>688.3333333333334</ele><time>2026-04-28T08:42:09.999Z</time></trkpt><trkpt lat="44.55742944874782" lon="8.887231703615935"><ele>686.6666666666667</ele><time>2026-04-28T08:42:10.999Z</time></trkpt><trkpt lat="44.557358237950936" lon="8.887172431614323"><ele>685.0</ele><time>2026-04-28T08:42:11.999Z</time></trkpt><trkpt lat="44.55725340684176" lon="8.8871115683055"><ele>685.0</ele><time>2026-04-28T08:42:12.999Z</time></trkpt><trkpt lat="44.557121101400625" lon="8.887064209423674"><ele>685.0</ele><time>2026-04-28T08:42:13.999Z</time></trkpt><trkpt lat="44.55698481392416" lon="8.88699292827445"><ele>685.0</ele><time>2026-04-28T08:42:14.999Z</time></trkpt><trkpt lat="44.55682290863041" lon="8.88692467723179"><ele>686.0</ele><time>2026-04-28T08:42:15.999Z</time></trkpt><trkpt lat="44.55665307468153" lon="8.88686073460943"><ele>687.0</ele><time>2026-04-28T08:42:16.999Z</time></trkpt><trkpt lat="44.55651702057298" lon="8.886787898017577"><ele>688.0</ele><time>2026-04-28T08:42:17.999Z</time></trkpt><trkpt lat="44.55639893407501" lon="8.886753788863249"><ele>689.0</ele><time>2026-04-28T08:42:18.999Z</time></trkpt><trkpt lat="44.55629404517351" lon="8.886729392403328"><ele>692.8000000000001</ele><time>2026-04-28T08:42:19.999Z</time></trkpt><trkpt lat="44.556205550910434" lon="8.886704187525641"><ele>696.6</ele><time>2026-04-28T08:42:20.999Z</time></trkpt><trkpt lat="44.556115599869266" lon="8.886659681651699"><ele>700.4</ele><time>2026-04-28T08:42:21.999Z</time></trkpt><trkpt lat="44.55601928420109" lon="8.886599039960958"><ele>704.2</ele><time>2026-04-28T08:42:22.999Z</time></trkpt><trkpt lat="44.555908051453585" lon="8.88654474898158"><ele>708.0</ele><time>2026-04-28T08:42:23.999Z</time></trkpt><trkpt lat="44.555814033656745" lon="8.88651581008625"><ele>709.4</ele><time>2026-04-28T08:42:24.999Z</time></trkpt><trkpt lat="44.555737378626816" lon="8.886536666924112"><ele>710.8</ele><time>2026-04-28T08:42:25.999Z</time></trkpt><trkpt lat="44.55566243132659" lon="8.886606779190863"><ele>712.2</ele><time>2026-04-28T08:42:26.999Z</time></trkpt><trkpt lat="44.555584823963024" lon="8.886706918766349"><ele>713.6</ele><time>2026-04-28T08:42:27.999Z</time></trkpt><trkpt lat="44.555499617378445" lon="8.886817716492576"><ele>715.0</ele><time>2026-04-28T08:42:28.999Z</time></trkpt><trkpt lat="44.55543071652962" lon="8.886933039788222"><ele>714.5</ele><time>2026-04-28T08:42:29.999Z</time></trkpt><trkpt lat="44.55538002642819" lon="8.887025715212179"><ele>714.0</ele><time>2026-04-28T08:42:30.999Z</time></trkpt><trkpt lat="44.55532718955137" lon="8.88710708500241"><ele>713.5</ele><time>2026-04-28T08:42:31.999Z</time></trkpt><trkpt lat="44.55527485704569" lon="8.88717533246909"><ele>713.0</ele><time>2026-04-28T08:42:32.999Z</time></trkpt><trkpt lat="44.555220611547725" lon="8.887246974845766"><ele>712.5</ele><time>2026-04-28T08:42:33.999Z</time></trkpt><trkpt lat="44.555144766709745" lon="8.887271061925087"><ele>712.0</ele><time>2026-04-28T08:42:34.999Z</time></trkpt><trkpt lat="44.55505493176158" lon="8.88729929265835"><ele>712.0</ele><time>2026-04-28T08:42:35.999Z</time></trkpt><trkpt lat="44.55495614682256" lon="8.887272400790192"><ele>712.0</ele><time>2026-04-28T08:42:36.999Z</time></trkpt><trkpt lat="44.55485609442125" lon="8.887205120549636"><ele>712.0</ele><time>2026-04-28T08:42:37.999Z</time></trkpt><trkpt lat="44.55475864826406" lon="8.887128376657365"><ele>712.0</ele><time>2026-04-28T08:42:38.999Z</time></trkpt><trkpt lat="44.554688237117354" lon="8.887065945463"><ele>712.0</ele><time>2026-04-28T08:42:39.999Z</time></trkpt><trkpt lat="44.55461763421925" lon="8.887024264851515"><ele>712.0</ele><time>2026-04-28T08:42:40.999Z</time></trkpt><trkpt lat="44.55454409461255" lon="8.887008829484579"><ele>712.0</ele><time>2026-04-28T08:42:41.999Z</time></trkpt><trkpt lat="44.55446200318718" lon="8.887042725666541"><ele>712.0</ele><time>2026-04-28T08:42:42.999Z</time></trkpt><trkpt lat="44.55439117782561" lon="8.887111079591879"><ele>712.0</ele><time>2026-04-28T08:42:43.999Z</time></trkpt><trkpt lat="44.55433923443127" lon="8.88719933130451"><ele>712.0</ele><time>2026-04-28T08:42:44.999Z</time></trkpt><trkpt lat="44.55427983546764" lon="8.887263533129705"><ele>712.0</ele><time>2026-04-28T08:42:45.999Z</time></trkpt><trkpt lat="44.554226455309994" lon="8.887314825374046"><ele>715.0</ele><time>2026-04-28T08:42:46.999Z</time></trkpt><trkpt lat="44.55414106985262" lon="8.887414074103555"><ele>718.0</ele><time>2026-04-28T08:42:48.999Z</time></trkpt><trkpt lat="44.55404975098436" lon="8.887472354029567"><ele>721.0</ele><time>2026-04-28T08:42:50.999Z</time></trkpt><trkpt lat="44.55396652406454" lon="8.887474921006602"><ele>724.0</ele><time>2026-04-28T08:42:52.999Z</time></trkpt><trkpt lat="44.55388783205136" lon="8.88749353442355"><ele>727.0</ele><time>2026-04-28T08:42:54.999Z</time></trkpt><trkpt lat="44.5538177488532" lon="8.887476236110063"><ele>730.0</ele><time>2026-04-28T08:42:55.999Z</time></trkpt><trkpt lat="44.55371814277377" lon="8.887440095740219"><ele>730.4</ele><time>2026-04-28T08:42:57Z</time></trkpt><trkpt lat="44.5536054087955" lon="8.887362680903825"><ele>730.8</ele><time>2026-04-28T08:42:58Z</time></trkpt><trkpt lat="44.553515781452504" lon="8.88733326710435"><ele>731.2</ele><time>2026-04-28T08:42:59Z</time></trkpt><trkpt lat="44.553446425939306" lon="8.887280051296003"><ele>731.6</ele><time>2026-04-28T08:43:00Z</time></trkpt><trkpt lat="44.553368431884095" lon="8.887146467842891"><ele>732.0</ele><time>2026-04-28T08:43:02Z</time></trkpt><trkpt lat="44.553344793944966" lon="8.88704839103299"><ele>732.0</ele><time>2026-04-28T08:43:03Z</time></trkpt><trkpt lat="44.553344157443085" lon="8.886934763386739"><ele>732.0</ele><time>2026-04-28T08:43:04Z</time></trkpt><trkpt lat="44.553368205156644" lon="8.886813719376207"><ele>732.0</ele><time>2026-04-28T08:43:05Z</time></trkpt><trkpt lat="44.55338575747792" lon="8.886684437514674"><ele>732.0</ele><time>2026-04-28T08:43:06Z</time></trkpt><trkpt lat="44.55337379731644" lon="8.886585977613949"><ele>732.0</ele><time>2026-04-28T08:43:07Z</time></trkpt><trkpt lat="44.55331141190776" lon="8.886443350238563"><ele>736.75</ele><time>2026-04-28T08:43:09Z</time></trkpt><trkpt lat="44.55320272671903" lon="8.886398956091998"><ele>741.5</ele><time>2026-04-28T08:43:10Z</time></trkpt><trkpt lat="44.553059174362076" lon="8.886361050010702"><ele>746.25</ele><time>2026-04-28T08:43:11Z</time></trkpt><trkpt lat="44.55293181807388" lon="8.88631632829485"><ele>751.0</ele><time>2026-04-28T08:43:12Z</time></trkpt><trkpt lat="44.552837492188445" lon="8.886258259714253"><ele>751.0</ele><time>2026-04-28T08:43:13Z</time></trkpt><trkpt lat="44.55277429956072" lon="8.886173245485304"><ele>751.0</ele><time>2026-04-28T08:43:14Z</time></trkpt><trkpt lat="44.55271887991107" lon="8.886080450940536"><ele>751.0</ele><time>2026-04-28T08:43:15Z</time></trkpt><trkpt lat="44.55266768044836" lon="8.885956792133229"><ele>751.0</ele><time>2026-04-28T08:43:16Z</time></trkpt><trkpt lat="44.55263232285548" lon="8.885822579395535"><ele>751.0</ele><time>2026-04-28T08:43:17Z</time></trkpt><trkpt lat="44.55260906244354" lon="8.88568785718229"><ele>753.8</ele><time>2026-04-28T08:43:18Z</time></trkpt><trkpt lat="44.55258678862439" lon="8.885585979643889"><ele>756.5999999999999</ele><time>2026-04-28T08:43:19Z</time></trkpt><trkpt lat="44.55250221499519" lon="8.885522615113253"><ele>759.4</ele><time>2026-04-28T08:43:21Z</time></trkpt><trkpt lat="44.552420626530505" lon="8.885612925758375"><ele>762.2</ele><time>2026-04-28T08:43:23Z</time></trkpt><trkpt lat="44.552403415704674" lon="8.885761979084181"><ele>765.0</ele><time>2026-04-28T08:43:24Z</time></trkpt><trkpt lat="44.55234625730596" lon="8.885925706563267"><ele>761.5</ele><time>2026-04-28T08:43:25Z</time></trkpt><trkpt lat="44.552296749875275" lon="8.886116109947164"><ele>758.0</ele><time>2026-04-28T08:43:26Z</time></trkpt><trkpt lat="44.55224803814338" lon="8.886294562084915"><ele>754.5</ele><time>2026-04-28T08:43:27Z</time></trkpt><trkpt lat="44.552200547934284" lon="8.886432683934192"><ele>751.0</ele><time>2026-04-28T08:43:28Z</time></trkpt><trkpt lat="44.55213869946008" lon="8.886550889098343"><ele>751.0</ele><time>2026-04-28T08:43:29Z</time></trkpt><trkpt lat="44.552053147388165" lon="8.886670680359853"><ele>751.0</ele><time>2026-04-28T08:43:30Z</time></trkpt><trkpt lat="44.55196856766205" lon="8.886831365129183"><ele>751.0</ele><time>2026-04-28T08:43:31Z</time></trkpt><trkpt lat="44.55187302143841" lon="8.886972828156642"><ele>751.0</ele><time>2026-04-28T08:43:32Z</time></trkpt><trkpt lat="44.55179603676139" lon="8.887113075885004"><ele>754.75</ele><time>2026-04-28T08:43:33Z</time></trkpt><trkpt lat="44.55170521971605" lon="8.88723950504154"><ele>758.5</ele><time>2026-04-28T08:43:34Z</time></trkpt><trkpt lat="44.55160097298371" lon="8.887352499575364"><ele>762.25</ele><time>2026-04-28T08:43:35Z</time></trkpt><trkpt lat="44.55148674153475" lon="8.887450383914048"><ele>766.0</ele><time>2026-04-28T08:43:36Z</time></trkpt><trkpt lat="44.55138884236743" lon="8.887523557976666"><ele>766.0</ele><time>2026-04-28T08:43:37Z</time></trkpt><trkpt lat="44.55131214239065" lon="8.88757597935614"><ele>766.0</ele><time>2026-04-28T08:43:38Z</time></trkpt><trkpt lat="44.55119852043917" lon="8.887647992186109"><ele>766.0</ele><time>2026-04-28T08:43:40Z</time></trkpt><trkpt lat="44.551127925560316" lon="8.887692738798856"><ele>766.0</ele><time>2026-04-28T08:43:41Z</time></trkpt><trkpt lat="44.55103212486202" lon="8.8877429417829"><ele>766.0</ele><time>2026-04-28T08:43:42Z</time></trkpt><trkpt lat="44.55095244785512" lon="8.887824861415796"><ele>768.4</ele><time>2026-04-28T08:43:43Z</time></trkpt><trkpt lat="44.55087758256322" lon="8.887840660889117"><ele>770.8</ele><time>2026-04-28T08:43:44Z</time></trkpt><trkpt lat="44.5508042865715" lon="8.887844849745283"><ele>773.1999999999999</ele><time>2026-04-28T08:43:45Z</time></trkpt><trkpt lat="44.55069308780975" lon="8.887805610780902"><ele>775.5999999999999</ele><time>2026-04-28T08:43:47Z</time></trkpt><trkpt lat="44.55058789335403" lon="8.887726090193377"><ele>778.0</ele><time>2026-04-28T08:43:49Z</time></trkpt><trkpt lat="44.55051543868077" lon="8.887567570087146"><ele>778.0</ele><time>2026-04-28T08:43:51Z</time></trkpt><trkpt lat="44.55049647795263" lon="8.8874624069855"><ele>778.0</ele><time>2026-04-28T08:43:52Z</time></trkpt><trkpt lat="44.550464337502255" lon="8.887340626220315"><ele>778.0</ele><time>2026-04-28T08:43:53Z</time></trkpt><trkpt lat="44.55045732631421" lon="8.88720452231707"><ele>778.0</ele><time>2026-04-28T08:43:54Z</time></trkpt><trkpt lat="44.55045696417533" lon="8.887070702588911"><ele>778.0</ele><time>2026-04-28T08:43:54.999Z</time></trkpt><trkpt lat="44.55046874821181" lon="8.886946856150253"><ele>778.0</ele><time>2026-04-28T08:43:55.999Z</time></trkpt><trkpt lat="44.55050097104446" lon="8.88680396197324"><ele>778.0</ele><time>2026-04-28T08:43:56.999Z</time></trkpt><trkpt lat="44.55054832939119" lon="8.886667073060208"><ele>778.0</ele><time>2026-04-28T08:43:57.999Z</time></trkpt><trkpt lat="44.550600690035274" lon="8.886542392201305"><ele>778.0</ele><time>2026-04-28T08:43:58.999Z</time></trkpt><trkpt lat="44.55067069663374" lon="8.886442692394981"><ele>778.0</ele><time>2026-04-28T08:43:59.999Z</time></trkpt><trkpt lat="44.55072835376817" lon="8.886338499357299"><ele>776.25</ele><time>2026-04-28T08:44:00.999Z</time></trkpt><trkpt lat="44.55081671569222" lon="8.886243503388988"><ele>774.5</ele><time>2026-04-28T08:44:01.999Z</time></trkpt><trkpt lat="44.55093762287546" lon="8.88614352000613"><ele>772.75</ele><time>2026-04-28T08:44:02.999Z</time></trkpt><trkpt lat="44.55105334781897" lon="8.886033206512296"><ele>771.0</ele><time>2026-04-28T08:44:03.999Z</time></trkpt><trkpt lat="44.5511486417942" lon="8.885957780199258"><ele>772.0</ele><time>2026-04-28T08:44:04.999Z</time></trkpt><trkpt lat="44.55119889855458" lon="8.885876750583211"><ele>773.0</ele><time>2026-04-28T08:44:05.999Z</time></trkpt><trkpt lat="44.5512462868916" lon="8.885708374163974"><ele>774.0</ele><time>2026-04-28T08:44:07.999Z</time></trkpt><trkpt lat="44.55117910598702" lon="8.885612291765959"><ele>775.0</ele><time>2026-04-28T08:44:08.999Z</time></trkpt><trkpt lat="44.551086617471775" lon="8.88549969130065"><ele>776.0</ele><time>2026-04-28T08:44:09.999Z</time></trkpt><trkpt lat="44.550987842494195" lon="8.885402168965046"><ele>771.4</ele><time>2026-04-28T08:44:10.999Z</time></trkpt><trkpt lat="44.55089898960185" lon="8.885293913670283"><ele>766.8</ele><time>2026-04-28T08:44:11.999Z</time></trkpt><trkpt lat="44.55083876969235" lon="8.885175542129025"><ele>762.1999999999999</ele><time>2026-04-28T08:44:12.999Z</time></trkpt><trkpt lat="44.550809413286196" lon="8.88503206428136"><ele>757.5999999999999</ele><time>2026-04-28T08:44:13.999Z</time></trkpt><trkpt lat="44.55078191693258" lon="8.884871106563391"><ele>753.0</ele><time>2026-04-28T08:44:14.999Z</time></trkpt><trkpt lat="44.55075172358768" lon="8.8847077173742"><ele>752.0</ele><time>2026-04-28T08:44:15.999Z</time></trkpt><trkpt lat="44.5507247885607" lon="8.884547102452338"><ele>751.0</ele><time>2026-04-28T08:44:16.999Z</time></trkpt><trkpt lat="44.55072064625367" lon="8.88440791303836"><ele>750.0</ele><time>2026-04-28T08:44:17.999Z</time></trkpt><trkpt lat="44.55075693858074" lon="8.884263370834203"><ele>749.0</ele><time>2026-04-28T08:44:18.999Z</time></trkpt><trkpt lat="44.55080904572043" lon="8.884085249649216"><ele>748.5</ele><time>2026-04-28T08:44:19.999Z</time></trkpt><trkpt lat="44.55083481034213" lon="8.883897457234573"><ele>748.0</ele><time>2026-04-28T08:44:20.999Z</time></trkpt><trkpt lat="44.55084218063722" lon="8.883720819255537"><ele>747.5</ele><time>2026-04-28T08:44:21.999Z</time></trkpt><trkpt lat="44.55086250494998" lon="8.883578327521024"><ele>747.0</ele><time>2026-04-28T08:44:22.999Z</time></trkpt><trkpt lat="44.550908532174155" lon="8.883439905406902"><ele>744.75</ele><time>2026-04-28T08:44:23.999Z</time></trkpt><trkpt lat="44.55096499181877" lon="8.883300116209558"><ele>742.5</ele><time>2026-04-28T08:44:24.999Z</time></trkpt><trkpt lat="44.55104998985289" lon="8.883164130849798"><ele>740.25</ele><time>2026-04-28T08:44:25.999Z</time></trkpt><trkpt lat="44.551125549595476" lon="8.883030247349266"><ele>738.0</ele><time>2026-04-28T08:44:26.999Z</time></trkpt><trkpt lat="44.55119623907012" lon="8.882902103487531"><ele>739.1666666666666</ele><time>2026-04-28T08:44:27.999Z</time></trkpt><trkpt lat="44.5512692168599" lon="8.88281014195853"><ele>740.3333333333334</ele><time>2026-04-28T08:44:28.999Z</time></trkpt><trkpt lat="44.55130312025185" lon="8.882708079507413"><ele>741.5</ele><time>2026-04-28T08:44:29.999Z</time></trkpt><trkpt lat="44.551322283759404" lon="8.882613031938744"><ele>742.6666666666667</ele><time>2026-04-28T08:44:30.999Z</time></trkpt><trkpt lat="44.55127415426974" lon="8.882467762459294"><ele>743.8333333333334</ele><time>2026-04-28T08:44:32.999Z</time></trkpt><trkpt lat="44.55120578629759" lon="8.882431675771084"><ele>745.0</ele><time>2026-04-28T08:44:33.999Z</time></trkpt><trkpt lat="44.551121573929315" lon="8.882468726871815"><ele>745.0</ele><time>2026-04-28T08:44:34.999Z</time></trkpt><trkpt lat="44.55102618282506" lon="8.882566353321282"><ele>745.0</ele><time>2026-04-28T08:44:35.999Z</time></trkpt><trkpt lat="44.55090453144021" lon="8.882691161204175"><ele>745.0</ele><time>2026-04-28T08:44:36.999Z</time></trkpt><trkpt lat="44.55074977448612" lon="8.882793770789393"><ele>745.0</ele><time>2026-04-28T08:44:37.999Z</time></trkpt><trkpt lat="44.550601474176425" lon="8.882886592778572"><ele>742.6666666666667</ele><time>2026-04-28T08:44:38.999Z</time></trkpt><trkpt lat="44.55045612378469" lon="8.882989242218242"><ele>740.3333333333334</ele><time>2026-04-28T08:44:39.999Z</time></trkpt><trkpt lat="44.55033171412479" lon="8.883110424256278"><ele>738.0</ele><time>2026-04-28T08:44:40.999Z</time></trkpt><trkpt lat="44.55020928079804" lon="8.88323037097616"><ele>734.25</ele><time>2026-04-28T08:44:41.999Z</time></trkpt><trkpt lat="44.550106060647195" lon="8.883379083727814"><ele>730.5</ele><time>2026-04-28T08:44:42.999Z</time></trkpt><trkpt lat="44.54997465650511" lon="8.883468386280617"><ele>726.75</ele><time>2026-04-28T08:44:43.999Z</time></trkpt><trkpt lat="44.54987181348605" lon="8.883587489561851"><ele>723.0</ele><time>2026-04-28T08:44:44.999Z</time></trkpt><trkpt lat="44.5497907974283" lon="8.883691496649966"><ele>720.8</ele><time>2026-04-28T08:44:45.999Z</time></trkpt><trkpt lat="44.54972979207641" lon="8.88376637411355"><ele>718.5999999999999</ele><time>2026-04-28T08:44:46.999Z</time></trkpt><trkpt lat="44.54964204651225" lon="8.883791842107673"><ele>716.4000000000001</ele><time>2026-04-28T08:44:47.999Z</time></trkpt><trkpt lat="44.549543590261585" lon="8.883795817090943"><ele>714.2</ele><time>2026-04-28T08:44:48.999Z</time></trkpt><trkpt lat="44.54940572248468" lon="8.883762506728445"><ele>712.0</ele><time>2026-04-28T08:44:49.999Z</time></trkpt><trkpt lat="44.549254081710835" lon="8.883715156866664"><ele>709.2</ele><time>2026-04-28T08:44:50.999Z</time></trkpt><trkpt lat="44.549116461287674" lon="8.883693136448048"><ele>706.4000000000001</ele><time>2026-04-28T08:44:51.999Z</time></trkpt><trkpt lat="44.54901901814721" lon="8.883666749874186"><ele>703.5999999999999</ele><time>2026-04-28T08:44:52.999Z</time></trkpt><trkpt lat="44.54893669825986" lon="8.883633952348298"><ele>700.8</ele><time>2026-04-28T08:44:53.999Z</time></trkpt><trkpt lat="44.548884689518324" lon="8.883553275889746"><ele>698.0</ele><time>2026-04-28T08:44:54.999Z</time></trkpt><trkpt lat="44.54886166599918" lon="8.883446576039333"><ele>701.5</ele><time>2026-04-28T08:44:55.999Z</time></trkpt><trkpt lat="44.54886478424757" lon="8.883316501526872"><ele>705.0</ele><time>2026-04-28T08:44:56.999Z</time></trkpt><trkpt lat="44.54888363044098" lon="8.883110431036961"><ele>708.5</ele><time>2026-04-28T08:44:57.999Z</time></trkpt><trkpt lat="44.54890312285308" lon="8.882939927306644"><ele>712.0</ele><time>2026-04-28T08:44:58.999Z</time></trkpt><trkpt lat="44.54891132712224" lon="8.88281703259195"><ele>712.0</ele><time>2026-04-28T08:44:59.999Z</time></trkpt><trkpt lat="44.54890337941352" lon="8.88271980301862"><ele>712.0</ele><time>2026-04-28T08:45:00.999Z</time></trkpt><trkpt lat="44.54885297597784" lon="8.882642953826323"><ele>712.0</ele><time>2026-04-28T08:45:01.999Z</time></trkpt><trkpt lat="44.54878473542222" lon="8.882625517556205"><ele>712.0</ele><time>2026-04-28T08:45:03Z</time></trkpt><trkpt lat="44.54871366150449" lon="8.88265302161674"><ele>712.0</ele><time>2026-04-28T08:45:04Z</time></trkpt><trkpt lat="44.548624992908806" lon="8.882753463545194"><ele>712.0</ele><time>2026-04-28T08:45:05Z</time></trkpt><trkpt lat="44.548517696275944" lon="8.882861798766081"><ele>707.2</ele><time>2026-04-28T08:45:06Z</time></trkpt><trkpt lat="44.548430127135134" lon="8.88293156829762"><ele>702.4000000000001</ele><time>2026-04-28T08:45:07Z</time></trkpt><trkpt lat="44.5483377580784" lon="8.882985960639438"><ele>697.5999999999999</ele><time>2026-04-28T08:45:08Z</time></trkpt><trkpt lat="44.54824726527824" lon="8.882996378523139"><ele>692.8</ele><time>2026-04-28T08:45:09Z</time></trkpt><trkpt lat="44.5481603959216" lon="8.882968903214794"><ele>688.0</ele><time>2026-04-28T08:45:10Z</time></trkpt><trkpt lat="44.54806666101539" lon="8.882892529577033"><ele>688.0</ele><time>2026-04-28T08:45:11Z</time></trkpt><trkpt lat="44.547972088455715" lon="8.882787077431859"><ele>688.0</ele><time>2026-04-28T08:45:12Z</time></trkpt><trkpt lat="44.5478787950411" lon="8.882652596618309"><ele>688.0</ele><time>2026-04-28T08:45:13Z</time></trkpt><trkpt lat="44.54779708113105" lon="8.882538066470199"><ele>688.0</ele><time>2026-04-28T08:45:14Z</time></trkpt><trkpt lat="44.547718927624054" lon="8.882445253931436"><ele>687.25</ele><time>2026-04-28T08:45:15Z</time></trkpt><trkpt lat="44.54761564205477" lon="8.882397256462651"><ele>686.5</ele><time>2026-04-28T08:45:16Z</time></trkpt><trkpt lat="44.547496309703334" lon="8.882367298584848"><ele>685.75</ele><time>2026-04-28T08:45:17Z</time></trkpt><trkpt lat="44.5473728292257" lon="8.882315353015423"><ele>685.0</ele><time>2026-04-28T08:45:18Z</time></trkpt><trkpt lat="44.54724544458781" lon="8.882246965639727"><ele>685.0</ele><time>2026-04-28T08:45:19Z</time></trkpt><trkpt lat="44.54712018932845" lon="8.882151316178275"><ele>685.0</ele><time>2026-04-28T08:45:20Z</time></trkpt><trkpt lat="44.54698209835392" lon="8.88204407311495"><ele>685.0</ele><time>2026-04-28T08:45:21Z</time></trkpt><trkpt lat="44.546850328936266" lon="8.881956249681183"><ele>685.0</ele><time>2026-04-28T08:45:22Z</time></trkpt><trkpt lat="44.54671459364842" lon="8.881914674408117"><ele>678.75</ele><time>2026-04-28T08:45:23Z</time></trkpt><trkpt lat="44.54657626547106" lon="8.881859108452192"><ele>672.5</ele><time>2026-04-28T08:45:24Z</time></trkpt><trkpt lat="44.546454139375754" lon="8.881809381052676"><ele>666.25</ele><time>2026-04-28T08:45:25Z</time></trkpt><trkpt lat="44.54633777612676" lon="8.88178798953933"><ele>660.0</ele><time>2026-04-28T08:45:26Z</time></trkpt><trkpt lat="44.54621487040312" lon="8.881804867826236"><ele>657.0</ele><time>2026-04-28T08:45:27Z</time></trkpt><trkpt lat="44.54606816553669" lon="8.881852034404766"><ele>654.0</ele><time>2026-04-28T08:45:28Z</time></trkpt><trkpt lat="44.54591832036025" lon="8.881893293002344"><ele>651.0</ele><time>2026-04-28T08:45:29Z</time></trkpt><trkpt lat="44.5457801672615" lon="8.881921711651414"><ele>648.0</ele><time>2026-04-28T08:45:30Z</time></trkpt><trkpt lat="44.545656114186215" lon="8.881948684644142"><ele>648.0</ele><time>2026-04-28T08:45:31Z</time></trkpt><trkpt lat="44.545532321900154" lon="8.881956322643775"><ele>648.0</ele><time>2026-04-28T08:45:32Z</time></trkpt><trkpt lat="44.54543968152861" lon="8.881955144207424"><ele>648.0</ele><time>2026-04-28T08:45:33Z</time></trkpt><trkpt lat="44.54532930402047" lon="8.881900514098461"><ele>648.0</ele><time>2026-04-28T08:45:34Z</time></trkpt><trkpt lat="44.54520916098685" lon="8.881830119408235"><ele>652.6666666666666</ele><time>2026-04-28T08:45:35Z</time></trkpt><trkpt lat="44.54504417628863" lon="8.881755415151318"><ele>657.3333333333333</ele><time>2026-04-28T08:45:36Z</time></trkpt><trkpt lat="44.54485015743953" lon="8.88166688688356"><ele>662.0</ele><time>2026-04-28T08:45:37Z</time></trkpt><trkpt lat="44.544659365981296" lon="8.881583432527094"><ele>657.6666666666666</ele><time>2026-04-28T08:45:38Z</time></trkpt><trkpt lat="44.544474477364275" lon="8.881495280329759"><ele>653.3333333333334</ele><time>2026-04-28T08:45:39Z</time></trkpt><trkpt lat="44.544302900921515" lon="8.881407944709766"><ele>649.0</ele><time>2026-04-28T08:45:40Z</time></trkpt><trkpt lat="44.544134792395205" lon="8.88131193133876"><ele>649.0</ele><time>2026-04-28T08:45:41Z</time></trkpt><trkpt lat="44.54397463210229" lon="8.881256281548612"><ele>649.0</ele><time>2026-04-28T08:45:42Z</time></trkpt><trkpt lat="44.54380973596967" lon="8.881176786327451"><ele>649.0</ele><time>2026-04-28T08:45:43Z</time></trkpt><trkpt lat="44.543653819981685" lon="8.881087176667588"><ele>649.6666666666667</ele><time>2026-04-28T08:45:44Z</time></trkpt><trkpt lat="44.54349614356463" lon="8.881010837378064"><ele>650.3333333333334</ele><time>2026-04-28T08:45:45Z</time></trkpt><trkpt lat="44.54334441034659" lon="8.880930990083918"><ele>651.0</ele><time>2026-04-28T08:45:46Z</time></trkpt><trkpt lat="44.54320334450958" lon="8.880875750047702"><ele>651.0</ele><time>2026-04-28T08:45:47Z</time></trkpt><trkpt lat="44.54306408362961" lon="8.880838588846272"><ele>651.0</ele><time>2026-04-28T08:45:48Z</time></trkpt><trkpt lat="44.542950947207906" lon="8.880814825172715"><ele>651.0</ele><time>2026-04-28T08:45:49Z</time></trkpt><trkpt lat="44.54286257629446" lon="8.880785532618138"><ele>651.0</ele><time>2026-04-28T08:45:50Z</time></trkpt><trkpt lat="44.54278101515677" lon="8.88072431202993"><ele>651.0</ele><time>2026-04-28T08:45:51Z</time></trkpt><trkpt lat="44.542722994056525" lon="8.880618747262933"><ele>646.3333333333334</ele><time>2026-04-28T08:45:52Z</time></trkpt><trkpt lat="44.54269345192508" lon="8.880493977887472"><ele>641.6666666666666</ele><time>2026-04-28T08:45:53Z</time></trkpt><trkpt lat="44.54269086686752" lon="8.880372542372823"><ele>637.0</ele><time>2026-04-28T08:45:54Z</time></trkpt><trkpt lat="44.54267899357467" lon="8.880279590290094"><ele>632.3333333333333</ele><time>2026-04-28T08:45:55Z</time></trkpt><trkpt lat="44.54263164813128" lon="8.880204784845017"><ele>627.6666666666666</ele><time>2026-04-28T08:45:56Z</time></trkpt><trkpt lat="44.54251217776576" lon="8.88018932303069"><ele>623.0</ele><time>2026-04-28T08:45:58Z</time></trkpt><trkpt lat="44.54245758338151" lon="8.88027153875131"><ele>623.0</ele><time>2026-04-28T08:45:59Z</time></trkpt><trkpt lat="44.54245030392838" lon="8.880380837354577"><ele>623.0</ele><time>2026-04-28T08:45:59.999Z</time></trkpt><trkpt lat="44.54247479640616" lon="8.880535228737587"><ele>623.0</ele><time>2026-04-28T08:46:00.999Z</time></trkpt><trkpt lat="44.54247828830462" lon="8.880737046774192"><ele>623.0</ele><time>2026-04-28T08:46:01.999Z</time></trkpt><trkpt lat="44.54248614267744" lon="8.880917563902376"><ele>619.8</ele><time>2026-04-28T08:46:02.999Z</time></trkpt><trkpt lat="44.54252241573888" lon="8.88106030195281"><ele>616.5999999999999</ele><time>2026-04-28T08:46:03.999Z</time></trkpt><trkpt lat="44.54255558370783" lon="8.881206202908423"><ele>613.4000000000001</ele><time>2026-04-28T08:46:04.999Z</time></trkpt><trkpt lat="44.54263236388991" lon="8.88131399780848"><ele>610.2</ele><time>2026-04-28T08:46:05.999Z</time></trkpt><trkpt lat="44.54269934213784" lon="8.881407102861257"><ele>607.0</ele><time>2026-04-28T08:46:06.999Z</time></trkpt><trkpt lat="44.54275668228887" lon="8.881486216971053"><ele>607.0</ele><time>2026-04-28T08:46:07.999Z</time></trkpt><trkpt lat="44.54286394834804" lon="8.881519704015995"><ele>607.0</ele><time>2026-04-28T08:46:08.999Z</time></trkpt><trkpt lat="44.54298744159095" lon="8.881547552949149"><ele>607.0</ele><time>2026-04-28T08:46:09.999Z</time></trkpt><trkpt lat="44.5430921819646" lon="8.881620486398482"><ele>607.0</ele><time>2026-04-28T08:46:10.999Z</time></trkpt><trkpt lat="44.54317417345858" lon="8.881700298504464"><ele>607.4</ele><time>2026-04-28T08:46:11.999Z</time></trkpt><trkpt lat="44.54324560135842" lon="8.88181948576897"><ele>607.8000000000001</ele><time>2026-04-28T08:46:12.999Z</time></trkpt><trkpt lat="44.543311931746224" lon="8.881937641152064"><ele>608.2</ele><time>2026-04-28T08:46:13.999Z</time></trkpt><trkpt lat="44.543355647793526" lon="8.882076248298675"><ele>608.6</ele><time>2026-04-28T08:46:14.999Z</time></trkpt><trkpt lat="44.54341310539628" lon="8.882199088841245"><ele>609.0</ele><time>2026-04-28T08:46:15.999Z</time></trkpt><trkpt lat="44.54345314091085" lon="8.882320865586797"><ele>609.0</ele><time>2026-04-28T08:46:16.999Z</time></trkpt><trkpt lat="44.543526762314045" lon="8.882411458402398"><ele>609.0</ele><time>2026-04-28T08:46:17.999Z</time></trkpt><trkpt lat="44.543645009582455" lon="8.882437879668478"><ele>609.0</ele><time>2026-04-28T08:46:18.999Z</time></trkpt><trkpt lat="44.54371390590636" lon="8.882505892751366"><ele>609.0</ele><time>2026-04-28T08:46:19.999Z</time></trkpt><trkpt lat="44.54377082060638" lon="8.882565848742248"><ele>609.0</ele><time>2026-04-28T08:46:20.999Z</time></trkpt><trkpt lat="44.543798621849724" lon="8.882691339396311"><ele>607.25</ele><time>2026-04-28T08:46:22.999Z</time></trkpt><trkpt lat="44.54372057288448" lon="8.882773984730331"><ele>605.5</ele><time>2026-04-28T08:46:24.999Z</time></trkpt><trkpt lat="44.54360858062452" lon="8.882755022838642"><ele>603.75</ele><time>2026-04-28T08:46:25.999Z</time></trkpt><trkpt lat="44.54349630700405" lon="8.882764055438258"><ele>602.0</ele><time>2026-04-28T08:46:26.999Z</time></trkpt><trkpt lat="44.54335871626515" lon="8.882732990308075"><ele>603.75</ele><time>2026-04-28T08:46:27.999Z</time></trkpt><trkpt lat="44.54323895514657" lon="8.882688073500427"><ele>605.5</ele><time>2026-04-28T08:46:28.999Z</time></trkpt><trkpt lat="44.5431276570885" lon="8.882644918788298"><ele>607.25</ele><time>2026-04-28T08:46:29.999Z</time></trkpt><trkpt lat="44.543018187582575" lon="8.882564997658164"><ele>609.0</ele><time>2026-04-28T08:46:30.999Z</time></trkpt><trkpt lat="44.54289783114539" lon="8.88245093105213"><ele>606.0</ele><time>2026-04-28T08:46:31.999Z</time></trkpt><trkpt lat="44.54278167162247" lon="8.882397453535873"><ele>603.0</ele><time>2026-04-28T08:46:32.999Z</time></trkpt><trkpt lat="44.54267133210473" lon="8.882364162875081"><ele>600.0</ele><time>2026-04-28T08:46:33.999Z</time></trkpt><trkpt lat="44.54256011370411" lon="8.882358172723302"><ele>597.0</ele><time>2026-04-28T08:46:34.999Z</time></trkpt><trkpt lat="44.54245778131472" lon="8.882351648077792"><ele>594.0</ele><time>2026-04-28T08:46:35.999Z</time></trkpt><trkpt lat="44.54236056516138" lon="8.882398945169582"><ele>594.0</ele><time>2026-04-28T08:46:36.999Z</time></trkpt><trkpt lat="44.542269560648286" lon="8.882488229815529"><ele>594.0</ele><time>2026-04-28T08:46:37.999Z</time></trkpt><trkpt lat="44.54217576507314" lon="8.88256421820892"><ele>594.0</ele><time>2026-04-28T08:46:38.999Z</time></trkpt><trkpt lat="44.54206539276085" lon="8.882602308573787"><ele>594.0</ele><time>2026-04-28T08:46:39.999Z</time></trkpt><trkpt lat="44.5419553535508" lon="8.882598792834797"><ele>594.0</ele><time>2026-04-28T08:46:40.999Z</time></trkpt><trkpt lat="44.541858374628234" lon="8.882574174400217"><ele>592.0</ele><time>2026-04-28T08:46:41.999Z</time></trkpt><trkpt lat="44.54177954273637" lon="8.882516016389761"><ele>590.0</ele><time>2026-04-28T08:46:42.999Z</time></trkpt><trkpt lat="44.541745463710264" lon="8.88244017211432"><ele>588.0</ele><time>2026-04-28T08:46:43.999Z</time></trkpt><trkpt lat="44.54173029143081" lon="8.882337101558617"><ele>586.0</ele><time>2026-04-28T08:46:44.999Z</time></trkpt><trkpt lat="44.541738717671365" lon="8.882204078063229"><ele>584.0</ele><time>2026-04-28T08:46:46.999Z</time></trkpt><trkpt lat="44.54172787591748" lon="8.88208833658091"><ele>582.0</ele><time>2026-04-28T08:46:53.999Z</time></trkpt><trkpt lat="44.541729050251185" lon="8.8819580398705"><ele>582.0</ele><time>2026-04-28T08:46:55.999Z</time></trkpt><trkpt lat="44.54173398681147" lon="8.881843203441422"><ele>582.0</ele><time>2026-04-28T08:46:57.999Z</time></trkpt><trkpt lat="44.54170538206632" lon="8.881712329635889"><ele>582.0</ele><time>2026-04-28T08:46:59.999Z</time></trkpt><trkpt lat="44.54164102402276" lon="8.881592950728558"><ele>582.0</ele><time>2026-04-28T08:47:01.999Z</time></trkpt><trkpt lat="44.54153774113274" lon="8.881616339792258"><ele>582.0</ele><time>2026-04-28T08:47:02.999Z</time></trkpt><trkpt lat="44.54144246414799" lon="8.881673337570062"><ele>582.0</ele><time>2026-04-28T08:47:03.999Z</time></trkpt><trkpt lat="44.54132860202203" lon="8.881770738530218"><ele>582.0</ele><time>2026-04-28T08:47:04.999Z</time></trkpt><trkpt lat="44.54121655513103" lon="8.881877909615106"><ele>582.0</ele><time>2026-04-28T08:47:05.999Z</time></trkpt><trkpt lat="44.54110317135056" lon="8.881975767943485"><ele>582.0</ele><time>2026-04-28T08:47:06.999Z</time></trkpt><trkpt lat="44.54099017589313" lon="8.882041594091296"><ele>579.1666666666666</ele><time>2026-04-28T08:47:07.999Z</time></trkpt><trkpt lat="44.540908627136226" lon="8.882121343266796"><ele>576.3333333333334</ele><time>2026-04-28T08:47:09Z</time></trkpt><trkpt lat="44.5408238710522" lon="8.882184418925243"><ele>573.5</ele><time>2026-04-28T08:47:10Z</time></trkpt><trkpt lat="44.54074031224515" lon="8.882241929743435"><ele>570.6666666666667</ele><time>2026-04-28T08:47:11Z</time></trkpt><trkpt lat="44.540667320692066" lon="8.882272481044474"><ele>567.8333333333334</ele><time>2026-04-28T08:47:12Z</time></trkpt><trkpt lat="44.54059905734494" lon="8.882265711795409"><ele>565.0</ele><time>2026-04-28T08:47:13Z</time></trkpt><trkpt lat="44.54053950167967" lon="8.88222166584924"><ele>565.0</ele><time>2026-04-28T08:47:14Z</time></trkpt><trkpt lat="44.54048770370315" lon="8.882146370028288"><ele>565.0</ele><time>2026-04-28T08:47:15Z</time></trkpt><trkpt lat="44.5404558370995" lon="8.882049806137895"><ele>565.0</ele><time>2026-04-28T08:47:16Z</time></trkpt><trkpt lat="44.54046562904279" lon="8.881916519444164"><ele>565.0</ele><time>2026-04-28T08:47:17Z</time></trkpt><trkpt lat="44.54046306988299" lon="8.881742360916759"><ele>565.0</ele><time>2026-04-28T08:47:18Z</time></trkpt><trkpt lat="44.54047719014303" lon="8.881539860432255"><ele>564.6</ele><time>2026-04-28T08:47:19Z</time></trkpt><trkpt lat="44.54048212177106" lon="8.881334971404558"><ele>564.2</ele><time>2026-04-28T08:47:20Z</time></trkpt><trkpt lat="44.54048476750562" lon="8.881175620123015"><ele>563.8</ele><time>2026-04-28T08:47:21Z</time></trkpt><trkpt lat="44.54048409517665" lon="8.881048992899736"><ele>563.4</ele><time>2026-04-28T08:47:22Z</time></trkpt><trkpt lat="44.5404645606749" lon="8.880958671830728"><ele>563.0</ele><time>2026-04-28T08:47:23Z</time></trkpt><trkpt lat="44.54040908294975" lon="8.880893216358352"><ele>560.75</ele><time>2026-04-28T08:47:24Z</time></trkpt><trkpt lat="44.54031601981772" lon="8.880869227528828"><ele>558.5</ele><time>2026-04-28T08:47:25Z</time></trkpt><trkpt lat="44.54019377711565" lon="8.880853606575412"><ele>556.25</ele><time>2026-04-28T08:47:26Z</time></trkpt><trkpt lat="44.54007692260162" lon="8.880795700569303"><ele>554.0</ele><time>2026-04-28T08:47:27Z</time></trkpt><trkpt lat="44.53996702319238" lon="8.88070525185245"><ele>554.0</ele><time>2026-04-28T08:47:28Z</time></trkpt><trkpt lat="44.53988017106108" lon="8.880594085447791"><ele>554.0</ele><time>2026-04-28T08:47:29Z</time></trkpt><trkpt lat="44.53981896274008" lon="8.88046369986082"><ele>554.0</ele><time>2026-04-28T08:47:30Z</time></trkpt><trkpt lat="44.53977729482339" lon="8.880328806231168"><ele>554.0</ele><time>2026-04-28T08:47:31Z</time></trkpt><trkpt lat="44.539728060783894" lon="8.880215854572166"><ele>554.0</ele><time>2026-04-28T08:47:32Z</time></trkpt><trkpt lat="44.53966005423733" lon="8.88012172788613"><ele>552.4</ele><time>2026-04-28T08:47:33Z</time></trkpt><trkpt lat="44.53957715898624" lon="8.880053530314369"><ele>550.8</ele><time>2026-04-28T08:47:34Z</time></trkpt><trkpt lat="44.5394885227528" lon="8.88001305332206"><ele>549.2</ele><time>2026-04-28T08:47:35Z</time></trkpt><trkpt lat="44.53940507934735" lon="8.879960369507645"><ele>547.6</ele><time>2026-04-28T08:47:36Z</time></trkpt><trkpt lat="44.53930681080556" lon="8.87992448081036"><ele>546.0</ele><time>2026-04-28T08:47:37Z</time></trkpt><trkpt lat="44.53921027146685" lon="8.879907263501854"><ele>546.0</ele><time>2026-04-28T08:47:38Z</time></trkpt><trkpt lat="44.53910841927946" lon="8.87989838562522"><ele>546.0</ele><time>2026-04-28T08:47:39Z</time></trkpt><trkpt lat="44.5390060400685" lon="8.879899999100349"><ele>546.0</ele><time>2026-04-28T08:47:40Z</time></trkpt><trkpt lat="44.5389121364433" lon="8.879929623097343"><ele>546.0</ele><time>2026-04-28T08:47:41Z</time></trkpt><trkpt lat="44.5388262796364" lon="8.879946850566434"><ele>546.0</ele><time>2026-04-28T08:47:42Z</time></trkpt><trkpt lat="44.53875013294041" lon="8.880026529412117"><ele>545.4</ele><time>2026-04-28T08:47:43Z</time></trkpt><trkpt lat="44.5387002551009" lon="8.880143437064717"><ele>544.8</ele><time>2026-04-28T08:47:44Z</time></trkpt><trkpt lat="44.53868712445609" lon="8.88025648104066"><ele>544.1999999999999</ele><time>2026-04-28T08:47:45Z</time></trkpt><trkpt lat="44.53870588816173" lon="8.880395729360492"><ele>543.6</ele><time>2026-04-28T08:47:46Z</time></trkpt><trkpt lat="44.538745610042874" lon="8.880504119352999"><ele>543.0</ele><time>2026-04-28T08:47:47Z</time></trkpt><trkpt lat="44.53881423733943" lon="8.880657279549832"><ele>543.0</ele><time>2026-04-28T08:47:48Z</time></trkpt><trkpt lat="44.53889738071798" lon="8.88082543824682"><ele>543.0</ele><time>2026-04-28T08:47:49Z</time></trkpt><trkpt lat="44.538986720819885" lon="8.88097814133661"><ele>543.0</ele><time>2026-04-28T08:47:50Z</time></trkpt><trkpt lat="44.53908936491521" lon="8.881104488153897"><ele>543.0</ele><time>2026-04-28T08:47:51Z</time></trkpt><trkpt lat="44.53919113174473" lon="8.881217176059755"><ele>540.4</ele><time>2026-04-28T08:47:52Z</time></trkpt><trkpt lat="44.53927232103245" lon="8.881305886904038"><ele>537.8</ele><time>2026-04-28T08:47:53Z</time></trkpt><trkpt lat="44.539306463692384" lon="8.881464904865961"><ele>535.2</ele><time>2026-04-28T08:47:55Z</time></trkpt><trkpt lat="44.53928400066176" lon="8.881548702295914"><ele>532.6</ele><time>2026-04-28T08:47:56Z</time></trkpt><trkpt lat="44.539245552777956" lon="8.881656977054297"><ele>530.0</ele><time>2026-04-28T08:47:57Z</time></trkpt><trkpt lat="44.53916526461189" lon="8.881775479297982"><ele>530.0</ele><time>2026-04-28T08:47:58Z</time></trkpt><trkpt lat="44.53908992802716" lon="8.881885679074117"><ele>530.0</ele><time>2026-04-28T08:47:59Z</time></trkpt><trkpt lat="44.53900981660637" lon="8.882038591577944"><ele>530.0</ele><time>2026-04-28T08:48:00Z</time></trkpt><trkpt lat="44.538961130350145" lon="8.88216284237061"><ele>530.0</ele><time>2026-04-28T08:48:01Z</time></trkpt><trkpt lat="44.538932348507174" lon="8.882282202899825"><ele>530.0</ele><time>2026-04-28T08:48:01.999Z</time></trkpt><trkpt lat="44.538944519313226" lon="8.882410192856874"><ele>530.0</ele><time>2026-04-28T08:48:02.999Z</time></trkpt><trkpt lat="44.538998526618236" lon="8.88256567973014"><ele>530.0</ele><time>2026-04-28T08:48:03.999Z</time></trkpt><trkpt lat="44.53905932389498" lon="8.882716075577838"><ele>530.0</ele><time>2026-04-28T08:48:04.999Z</time></trkpt><trkpt lat="44.53909705961205" lon="8.882857253282971"><ele>530.0</ele><time>2026-04-28T08:48:05.999Z</time></trkpt><trkpt lat="44.53909510615044" lon="8.882999440369169"><ele>527.4</ele><time>2026-04-28T08:48:06.999Z</time></trkpt><trkpt lat="44.53905230772814" lon="8.883114544586245"><ele>524.8</ele><time>2026-04-28T08:48:07.999Z</time></trkpt><trkpt lat="44.538964637770576" lon="8.883168774277081"><ele>522.2</ele><time>2026-04-28T08:48:08.999Z</time></trkpt><trkpt lat="44.53886985695443" lon="8.883192483502905"><ele>519.6</ele><time>2026-04-28T08:48:09.999Z</time></trkpt><trkpt lat="44.53876142465665" lon="8.883232267841368"><ele>517.0</ele><time>2026-04-28T08:48:10.999Z</time></trkpt><trkpt lat="44.538638029517905" lon="8.88319238530869"><ele>515.0</ele><time>2026-04-28T08:48:11.999Z</time></trkpt><trkpt lat="44.538531927726865" lon="8.883176085611185"><ele>513.0</ele><time>2026-04-28T08:48:12.999Z</time></trkpt><trkpt lat="44.538430596678715" lon="8.883127380830178"><ele>511.00000000000006</ele><time>2026-04-28T08:48:13.999Z</time></trkpt><trkpt lat="44.53834046226205" lon="8.883060939817979"><ele>509.0</ele><time>2026-04-28T08:48:14.999Z</time></trkpt><trkpt lat="44.5382396814025" lon="8.883043411428794"><ele>507.0</ele><time>2026-04-28T08:48:15.999Z</time></trkpt><trkpt lat="44.53810867821964" lon="8.883056508447497"><ele>507.0</ele><time>2026-04-28T08:48:16.999Z</time></trkpt><trkpt lat="44.538007544881715" lon="8.883083624837456"><ele>507.00000000000006</ele><time>2026-04-28T08:48:17.999Z</time></trkpt><trkpt lat="44.537911847534936" lon="8.883134615311754"><ele>507.00000000000006</ele><time>2026-04-28T08:48:18.999Z</time></trkpt><trkpt lat="44.537811860617055" lon="8.883170554067709"><ele>507.0</ele><time>2026-04-28T08:48:19.999Z</time></trkpt><trkpt lat="44.537706896119516" lon="8.8832238463895"><ele>507.0</ele><time>2026-04-28T08:48:20.999Z</time></trkpt><trkpt lat="44.53760362630904" lon="8.883262103752275"><ele>505.8</ele><time>2026-04-28T08:48:21.999Z</time></trkpt><trkpt lat="44.53750195193048" lon="8.88330421955324"><ele>504.6</ele><time>2026-04-28T08:48:22.999Z</time></trkpt><trkpt lat="44.537409712381645" lon="8.883337181415245"><ele>503.40000000000003</ele><time>2026-04-28T08:48:23.999Z</time></trkpt><trkpt lat="44.53732032440147" lon="8.883380584022747"><ele>502.20000000000005</ele><time>2026-04-28T08:48:24.999Z</time></trkpt><trkpt lat="44.53721441522073" lon="8.883453710292427"><ele>501.0</ele><time>2026-04-28T08:48:25.999Z</time></trkpt><trkpt lat="44.53711098655547" lon="8.883521044128983"><ele>500.20000000000005</ele><time>2026-04-28T08:48:26.999Z</time></trkpt><trkpt lat="44.53702787076785" lon="8.88356153318209"><ele>499.40000000000003</ele><time>2026-04-28T08:48:27.999Z</time></trkpt><trkpt lat="44.536947845991165" lon="8.883575976756811"><ele>498.6</ele><time>2026-04-28T08:48:28.999Z</time></trkpt><trkpt lat="44.53684327171499" lon="8.88357151393784"><ele>497.8</ele><time>2026-04-28T08:48:29.999Z</time></trkpt><trkpt lat="44.53669669280915" lon="8.883569952064835"><ele>497.0</ele><time>2026-04-28T08:48:30.999Z</time></trkpt><trkpt lat="44.536552747919664" lon="8.88358646833852"><ele>497.0</ele><time>2026-04-28T08:48:31.999Z</time></trkpt><trkpt lat="44.53641865922458" lon="8.883587001150943"><ele>497.00000000000006</ele><time>2026-04-28T08:48:32.999Z</time></trkpt><trkpt lat="44.53633072813067" lon="8.88361021321489"><ele>497.00000000000006</ele><time>2026-04-28T08:48:33.999Z</time></trkpt><trkpt lat="44.536253306978736" lon="8.883617971883211"><ele>497.0</ele><time>2026-04-28T08:48:34.999Z</time></trkpt><trkpt lat="44.536157995899416" lon="8.883679821555086"><ele>497.0</ele><time>2026-04-28T08:48:36.999Z</time></trkpt><trkpt lat="44.53601348397494" lon="8.883746082242855"><ele>499.75</ele><time>2026-04-28T08:48:38.999Z</time></trkpt><trkpt lat="44.53589542018938" lon="8.883808852921026"><ele>502.5</ele><time>2026-04-28T08:48:39.999Z</time></trkpt><trkpt lat="44.5357500089826" lon="8.88388271648391"><ele>505.25</ele><time>2026-04-28T08:48:40.999Z</time></trkpt><trkpt lat="44.535608947279925" lon="8.883938004644392"><ele>508.0</ele><time>2026-04-28T08:48:41.999Z</time></trkpt><trkpt lat="44.535484704959764" lon="8.88397587812542"><ele>507.5</ele><time>2026-04-28T08:48:42.999Z</time></trkpt><trkpt lat="44.53536618091155" lon="8.884008320914196"><ele>507.0</ele><time>2026-04-28T08:48:43.999Z</time></trkpt><trkpt lat="44.535260399256714" lon="8.884052035439622"><ele>506.5</ele><time>2026-04-28T08:48:44.999Z</time></trkpt><trkpt lat="44.535146399491744" lon="8.884085229118993"><ele>506.0</ele><time>2026-04-28T08:48:45.999Z</time></trkpt><trkpt lat="44.53502895199502" lon="8.884121130234913"><ele>506.0</ele><time>2026-04-28T08:48:46.999Z</time></trkpt><trkpt lat="44.534919503039596" lon="8.884148168528187"><ele>506.0</ele><time>2026-04-28T08:48:47.999Z</time></trkpt><trkpt lat="44.53481975792356" lon="8.884167628630083"><ele>506.0</ele><time>2026-04-28T08:48:48.999Z</time></trkpt><trkpt lat="44.534721251276046" lon="8.884171444679513"><ele>506.0</ele><time>2026-04-28T08:48:49.999Z</time></trkpt><trkpt lat="44.53464550435292" lon="8.88413914845419"><ele>506.0</ele><time>2026-04-28T08:48:50.999Z</time></trkpt><trkpt lat="44.534565221388625" lon="8.884070513865415"><ele>508.75</ele><time>2026-04-28T08:48:51.999Z</time></trkpt><trkpt lat="44.534472152614825" lon="8.883969705427909"><ele>511.5</ele><time>2026-04-28T08:48:52.999Z</time></trkpt><trkpt lat="44.534369167467894" lon="8.883838983473508"><ele>514.25</ele><time>2026-04-28T08:48:53.999Z</time></trkpt><trkpt lat="44.53426226713974" lon="8.883701276185052"><ele>517.0</ele><time>2026-04-28T08:48:54.999Z</time></trkpt><trkpt lat="44.53416321960822" lon="8.883575919979972"><ele>517.0</ele><time>2026-04-28T08:48:55.999Z</time></trkpt><trkpt lat="44.534080010287454" lon="8.883458563020119"><ele>517.0</ele><time>2026-04-28T08:48:56.999Z</time></trkpt><trkpt lat="44.53399765872678" lon="8.883345223146211"><ele>517.0</ele><time>2026-04-28T08:48:57.999Z</time></trkpt><trkpt lat="44.533872434795036" lon="8.883246011225353"><ele>517.0</ele><time>2026-04-28T08:48:58.999Z</time></trkpt><trkpt lat="44.533728225225516" lon="8.883143549275232"><ele>516.75</ele><time>2026-04-28T08:48:59.999Z</time></trkpt><trkpt lat="44.533616809980245" lon="8.883030081736804"><ele>516.5</ele><time>2026-04-28T08:49:00.999Z</time></trkpt><trkpt lat="44.533521782680246" lon="8.882907981532899"><ele>516.25</ele><time>2026-04-28T08:49:01.999Z</time></trkpt><trkpt lat="44.53343146435679" lon="8.882799302252785"><ele>516.0</ele><time>2026-04-28T08:49:02.999Z</time></trkpt><trkpt lat="44.533349065475214" lon="8.882689336329545"><ele>511.0</ele><time>2026-04-28T08:49:03.999Z</time></trkpt><trkpt lat="44.53328755996741" lon="8.882542536380523"><ele>506.0</ele><time>2026-04-28T08:49:04.999Z</time></trkpt><trkpt lat="44.53325233118397" lon="8.882379418770766"><ele>501.0</ele><time>2026-04-28T08:49:05.999Z</time></trkpt><trkpt lat="44.53322924586674" lon="8.882220851325984"><ele>496.0</ele><time>2026-04-28T08:49:06.999Z</time></trkpt><trkpt lat="44.53319751197008" lon="8.882075485025943"><ele>496.0</ele><time>2026-04-28T08:49:07.999Z</time></trkpt><trkpt lat="44.53313931673071" lon="8.88195521243355"><ele>496.0</ele><time>2026-04-28T08:49:08.999Z</time></trkpt><trkpt lat="44.533062238286384" lon="8.881852334215374"><ele>496.0</ele><time>2026-04-28T08:49:09.999Z</time></trkpt><trkpt lat="44.53292779963115" lon="8.881754192472178"><ele>496.0</ele><time>2026-04-28T08:49:10.999Z</time></trkpt><trkpt lat="44.53278106147108" lon="8.881640239383282"><ele>491.0</ele><time>2026-04-28T08:49:11.999Z</time></trkpt><trkpt lat="44.53263378673638" lon="8.881542467527185"><ele>486.0</ele><time>2026-04-28T08:49:12.999Z</time></trkpt><trkpt lat="44.53250790070707" lon="8.881432519444193"><ele>481.0</ele><time>2026-04-28T08:49:13.999Z</time></trkpt><trkpt lat="44.53238848486258" lon="8.881297095593135"><ele>481.0</ele><time>2026-04-28T08:49:15Z</time></trkpt><trkpt lat="44.532254777890444" lon="8.881201269329797"><ele>481.0</ele><time>2026-04-28T08:49:16Z</time></trkpt><trkpt lat="44.532137310523744" lon="8.881099215720146"><ele>481.0</ele><time>2026-04-28T08:49:17Z</time></trkpt><trkpt lat="44.53202401954975" lon="8.881007185011624"><ele>481.0</ele><time>2026-04-28T08:49:18Z</time></trkpt><trkpt lat="44.531931425230624" lon="8.880905354682966"><ele>481.75</ele><time>2026-04-28T08:49:19Z</time></trkpt><trkpt lat="44.531852371715914" lon="8.880769813987687"><ele>482.5</ele><time>2026-04-28T08:49:20Z</time></trkpt><trkpt lat="44.53178742021781" lon="8.880633163879835"><ele>483.25</ele><time>2026-04-28T08:49:21Z</time></trkpt><trkpt lat="44.53173408639593" lon="8.880493098876766"><ele>484.0</ele><time>2026-04-28T08:49:22Z</time></trkpt><trkpt lat="44.53170025644127" lon="8.88034813962507"><ele>484.0</ele><time>2026-04-28T08:49:23Z</time></trkpt><trkpt lat="44.53167797559447" lon="8.880237010138291"><ele>484.0</ele><time>2026-04-28T08:49:24Z</time></trkpt><trkpt lat="44.53166063410572" lon="8.880130385425824"><ele>484.0</ele><time>2026-04-28T08:49:25Z</time></trkpt><trkpt lat="44.531613654278104" lon="8.879981616171593"><ele>484.0</ele><time>2026-04-28T08:49:27Z</time></trkpt><trkpt lat="44.53151268471691" lon="8.87989087520724"><ele>484.0</ele><time>2026-04-28T08:49:29Z</time></trkpt><trkpt lat="44.5314356119354" lon="8.879877480479779"><ele>481.4285714285714</ele><time>2026-04-28T08:49:30Z</time></trkpt><trkpt lat="44.5313534475221" lon="8.879886181362693"><ele>478.8571428571428</ele><time>2026-04-28T08:49:31Z</time></trkpt><trkpt lat="44.53127378952266" lon="8.879906075952363"><ele>476.2857142857143</ele><time>2026-04-28T08:49:32Z</time></trkpt><trkpt lat="44.53119735754" lon="8.879915042831218"><ele>473.71428571428567</ele><time>2026-04-28T08:49:33Z</time></trkpt><trkpt lat="44.53113515324602" lon="8.879932833702663"><ele>471.1428571428571</ele><time>2026-04-28T08:49:34Z</time></trkpt><trkpt lat="44.531069772077714" lon="8.879943931630251"><ele>468.57142857142856</ele><time>2026-04-28T08:49:35Z</time></trkpt><trkpt lat="44.53099137152428" lon="8.879957567331003"><ele>466.0</ele><time>2026-04-28T08:49:36Z</time></trkpt><trkpt lat="44.530910949588375" lon="8.879972851221753"><ele>465.42857142857144</ele><time>2026-04-28T08:49:37Z</time></trkpt><trkpt lat="44.53083816077707" lon="8.879988283244057"><ele>464.85714285714283</ele><time>2026-04-28T08:49:38Z</time></trkpt><trkpt lat="44.53076613729697" lon="8.88000030932357"><ele>464.2857142857143</ele><time>2026-04-28T08:49:39Z</time></trkpt><trkpt lat="44.53069401877" lon="8.88000227222594"><ele>463.7142857142857</ele><time>2026-04-28T08:49:40Z</time></trkpt><trkpt lat="44.530620874993936" lon="8.879993986614629"><ele>463.1428571428571</ele><time>2026-04-28T08:49:41Z</time></trkpt><trkpt lat="44.530552647045425" lon="8.879982497035178"><ele>462.57142857142856</ele><time>2026-04-28T08:49:42Z</time></trkpt><trkpt lat="44.530485310808395" lon="8.879975471913633"><ele>462.0</ele><time>2026-04-28T08:49:43Z</time></trkpt><trkpt lat="44.530416811439785" lon="8.879974036866463"><ele>460.1428571428571</ele><time>2026-04-28T08:49:44Z</time></trkpt><trkpt lat="44.53035140279015" lon="8.87998267583471"><ele>458.2857142857143</ele><time>2026-04-28T08:49:45Z</time></trkpt><trkpt lat="44.53028505559245" lon="8.879990419515897"><ele>456.42857142857144</ele><time>2026-04-28T08:49:46Z</time></trkpt><trkpt lat="44.53021339543576" lon="8.879987445499003"><ele>454.57142857142856</ele><time>2026-04-28T08:49:47Z</time></trkpt><trkpt lat="44.530143196735004" lon="8.879970511772488"><ele>452.71428571428567</ele><time>2026-04-28T08:49:48Z</time></trkpt><trkpt lat="44.530066340848194" lon="8.879956024586956"><ele>450.85714285714283</ele><time>2026-04-28T08:49:49Z</time></trkpt><trkpt lat="44.52999347228764" lon="8.879929001583301"><ele>449.0</ele><time>2026-04-28T08:49:50Z</time></trkpt><trkpt lat="44.52992516851055" lon="8.87990147870576"><ele>449.0</ele><time>2026-04-28T08:49:51Z</time></trkpt><trkpt lat="44.52983449855527" lon="8.879867706926756"><ele>449.0</ele><time>2026-04-28T08:49:53Z</time></trkpt><trkpt lat="44.52974695729047" lon="8.879868441501708"><ele>449.0</ele><time>2026-04-28T08:49:55Z</time></trkpt><trkpt lat="44.52967261485479" lon="8.879912197520381"><ele>449.0</ele><time>2026-04-28T08:49:57Z</time></trkpt><trkpt lat="44.52965522636153" lon="8.880064423069499"><ele>449.0</ele><time>2026-04-28T08:49:58Z</time></trkpt><trkpt lat="44.52966545530161" lon="8.880208353647692"><ele>450.4</ele><time>2026-04-28T08:49:59Z</time></trkpt><trkpt lat="44.52967528595694" lon="8.880351076959142"><ele>451.79999999999995</ele><time>2026-04-28T08:50:00Z</time></trkpt><trkpt lat="44.52966793512375" lon="8.88048524893957"><ele>453.20000000000005</ele><time>2026-04-28T08:50:01Z</time></trkpt><trkpt lat="44.52965707410303" lon="8.880603697328134"><ele>454.6</ele><time>2026-04-28T08:50:02Z</time></trkpt><trkpt lat="44.52964035306426" lon="8.880728406146012"><ele>456.0</ele><time>2026-04-28T08:50:03Z</time></trkpt><trkpt lat="44.529634355727346" lon="8.880836561834764"><ele>458.0</ele><time>2026-04-28T08:50:04Z</time></trkpt><trkpt lat="44.52965613881918" lon="8.88102115457228"><ele>460.0</ele><time>2026-04-28T08:50:05Z</time></trkpt><trkpt lat="44.5297037805275" lon="8.881183821312545"><ele>462.0</ele><time>2026-04-28T08:50:06Z</time></trkpt><trkpt lat="44.52969547630863" lon="8.881318902990598"><ele>464.0</ele><time>2026-04-28T08:50:07Z</time></trkpt><trkpt lat="44.52970041173344" lon="8.881422919941274"><ele>466.0</ele><time>2026-04-28T08:50:08Z</time></trkpt><trkpt lat="44.529607244478385" lon="8.881584549843533"><ele>463.0</ele><time>2026-04-28T08:50:10Z</time></trkpt><trkpt lat="44.52948898237028" lon="8.881665635779964"><ele>460.0</ele><time>2026-04-28T08:50:11Z</time></trkpt><trkpt lat="44.52935899551599" lon="8.881749496448778"><ele>457.0</ele><time>2026-04-28T08:50:12Z</time></trkpt><trkpt lat="44.529213499517574" lon="8.881854738940591"><ele>454.0</ele><time>2026-04-28T08:50:13Z</time></trkpt><trkpt lat="44.52908005145506" lon="8.881946603302556"><ele>454.0</ele><time>2026-04-28T08:50:13.999Z</time></trkpt><trkpt lat="44.52895666159376" lon="8.882029297236711"><ele>454.0</ele><time>2026-04-28T08:50:14.999Z</time></trkpt><trkpt lat="44.52883113754609" lon="8.882094088002084"><ele>454.0</ele><time>2026-04-28T08:50:15.999Z</time></trkpt><trkpt lat="44.528696742760054" lon="8.882115884876084"><ele>454.0</ele><time>2026-04-28T08:50:16.999Z</time></trkpt><trkpt lat="44.528573400007176" lon="8.882149984577627"><ele>448.5</ele><time>2026-04-28T08:50:17.999Z</time></trkpt><trkpt lat="44.528440780363276" lon="8.882196935783027"><ele>443.0</ele><time>2026-04-28T08:50:18.999Z</time></trkpt><trkpt lat="44.52831285269715" lon="8.882264721396785"><ele>437.5</ele><time>2026-04-28T08:50:19.999Z</time></trkpt><trkpt lat="44.52817592151872" lon="8.882337039419935"><ele>432.0</ele><time>2026-04-28T08:50:20.999Z</time></trkpt><trkpt lat="44.52804619083442" lon="8.88239575692955"><ele>432.0</ele><time>2026-04-28T08:50:21.999Z</time></trkpt><trkpt lat="44.527923931913236" lon="8.882469277150324"><ele>432.0</ele><time>2026-04-28T08:50:22.999Z</time></trkpt><trkpt lat="44.52780375813677" lon="8.882496408808532"><ele>432.0</ele><time>2026-04-28T08:50:23.999Z</time></trkpt><trkpt lat="44.527705000703975" lon="8.882530265831084"><ele>432.0</ele><time>2026-04-28T08:50:24.999Z</time></trkpt><trkpt lat="44.52760976938348" lon="8.882545813364935"><ele>428.6666666666667</ele><time>2026-04-28T08:50:25.999Z</time></trkpt><trkpt lat="44.527531978713355" lon="8.88258259737292"><ele>425.33333333333337</ele><time>2026-04-28T08:50:26.999Z</time></trkpt><trkpt lat="44.52746757180253" lon="8.882630191731739"><ele>422.0</ele><time>2026-04-28T08:50:27.999Z</time></trkpt><trkpt lat="44.527415180098046" lon="8.88270572289927"><ele>418.6666666666667</ele><time>2026-04-28T08:50:28.999Z</time></trkpt><trkpt lat="44.5273920915744" lon="8.882800229402472"><ele>415.33333333333337</ele><time>2026-04-28T08:50:29.999Z</time></trkpt><trkpt lat="44.52738751741682" lon="8.882914022581144"><ele>412.0</ele><time>2026-04-28T08:50:30.999Z</time></trkpt><trkpt lat="44.52741437768398" lon="8.883050042909288"><ele>412.0</ele><time>2026-04-28T08:50:31.999Z</time></trkpt><trkpt lat="44.52748023484336" lon="8.883218221406175"><ele>412.0</ele><time>2026-04-28T08:50:32.999Z</time></trkpt><trkpt lat="44.5275443480045" lon="8.883381094709037"><ele>412.0</ele><time>2026-04-28T08:50:33.999Z</time></trkpt><trkpt lat="44.52759973387809" lon="8.8835238604015"><ele>412.0</ele><time>2026-04-28T08:50:34.999Z</time></trkpt><trkpt lat="44.52766836397898" lon="8.883668547581552"><ele>412.20000000000005</ele><time>2026-04-28T08:50:35.999Z</time></trkpt><trkpt lat="44.52775438511993" lon="8.88377549787839"><ele>412.4</ele><time>2026-04-28T08:50:36.999Z</time></trkpt><trkpt lat="44.52785513777913" lon="8.883840588604322"><ele>412.6</ele><time>2026-04-28T08:50:37.999Z</time></trkpt><trkpt lat="44.527953509115115" lon="8.883889772810988"><ele>412.79999999999995</ele><time>2026-04-28T08:50:38.999Z</time></trkpt><trkpt lat="44.52804135733913" lon="8.88391534153509"><ele>413.0</ele><time>2026-04-28T08:50:39.999Z</time></trkpt><trkpt lat="44.528134212651224" lon="8.883917472216927"><ele>412.99999999999994</ele><time>2026-04-28T08:50:40.999Z</time></trkpt><trkpt lat="44.52823389232737" lon="8.883883494006879"><ele>413.0</ele><time>2026-04-28T08:50:41.999Z</time></trkpt><trkpt lat="44.52830932622062" lon="8.88386177361633"><ele>413.0</ele><time>2026-04-28T08:50:42.999Z</time></trkpt><trkpt lat="44.52838173297317" lon="8.883864160263819"><ele>413.0</ele><time>2026-04-28T08:50:43.999Z</time></trkpt><trkpt lat="44.528417019126344" lon="8.883966956730074"><ele>412.99999999999994</ele><time>2026-04-28T08:50:44.999Z</time></trkpt><trkpt lat="44.528458458688725" lon="8.884083016631163"><ele>413.0</ele><time>2026-04-28T08:50:45.999Z</time></trkpt><trkpt lat="44.52851689696823" lon="8.884215072715314"><ele>411.16666666666663</ele><time>2026-04-28T08:50:46.999Z</time></trkpt><trkpt lat="44.52858541994808" lon="8.884311962560384"><ele>409.3333333333333</ele><time>2026-04-28T08:50:47.999Z</time></trkpt><trkpt lat="44.528659395648155" lon="8.884388654859904"><ele>407.5</ele><time>2026-04-28T08:50:48.999Z</time></trkpt><trkpt lat="44.52874173512363" lon="8.88443947865305"><ele>405.66666666666663</ele><time>2026-04-28T08:50:49.999Z</time></trkpt><trkpt lat="44.52881169633998" lon="8.884479572492435"><ele>403.8333333333333</ele><time>2026-04-28T08:50:50.999Z</time></trkpt><trkpt lat="44.52887193622647" lon="8.884541314446855"><ele>402.0</ele><time>2026-04-28T08:50:51.999Z</time></trkpt><trkpt lat="44.52893451896829" lon="8.884660353372025"><ele>402.0</ele><time>2026-04-28T08:50:53.999Z</time></trkpt><trkpt lat="44.528838739273766" lon="8.884763301482103"><ele>402.0</ele><time>2026-04-28T08:50:55.999Z</time></trkpt><trkpt lat="44.52871250224547" lon="8.884831452200828"><ele>402.0</ele><time>2026-04-28T08:50:56.999Z</time></trkpt><trkpt lat="44.5285847701489" lon="8.884844320274786"><ele>402.0</ele><time>2026-04-28T08:50:57.999Z</time></trkpt><trkpt lat="44.5284923884714" lon="8.884873724364637"><ele>402.0</ele><time>2026-04-28T08:50:58.999Z</time></trkpt><trkpt lat="44.52838034595503" lon="8.884898757577659"><ele>402.0</ele><time>2026-04-28T08:50:59.999Z</time></trkpt><trkpt lat="44.52825390270085" lon="8.884964285682463"><ele>402.0</ele><time>2026-04-28T08:51:00.999Z</time></trkpt><trkpt lat="44.52812049717104" lon="8.885129383562301"><ele>402.0</ele><time>2026-04-28T08:51:01.999Z</time></trkpt><trkpt lat="44.52803831551853" lon="8.885273462797617"><ele>400.40000000000003</ele><time>2026-04-28T08:51:02.999Z</time></trkpt><trkpt lat="44.52798011873536" lon="8.885376696117573"><ele>398.8</ele><time>2026-04-28T08:51:03.999Z</time></trkpt><trkpt lat="44.52790755205601" lon="8.885430454722336"><ele>397.2</ele><time>2026-04-28T08:51:04.999Z</time></trkpt><trkpt lat="44.5278140656486" lon="8.885438837427348"><ele>395.6</ele><time>2026-04-28T08:51:05.999Z</time></trkpt><trkpt lat="44.52772079530932" lon="8.885463010103482"><ele>394.0</ele><time>2026-04-28T08:51:06.999Z</time></trkpt><trkpt lat="44.52760322297998" lon="8.88556582110255"><ele>394.0</ele><time>2026-04-28T08:51:07.999Z</time></trkpt><trkpt lat="44.52750693531182" lon="8.885671035330555"><ele>394.0</ele><time>2026-04-28T08:51:08.999Z</time></trkpt><trkpt lat="44.52743123155595" lon="8.885794549985357"><ele>394.0</ele><time>2026-04-28T08:51:09.999Z</time></trkpt><trkpt lat="44.527375231692496" lon="8.885918092448454"><ele>394.0</ele><time>2026-04-28T08:51:10.999Z</time></trkpt><trkpt lat="44.52730964063373" lon="8.885984368331647"><ele>394.0</ele><time>2026-04-28T08:51:11.999Z</time></trkpt><trkpt lat="44.52722755677742" lon="8.886001281488175"><ele>394.0</ele><time>2026-04-28T08:51:13.999Z</time></trkpt><trkpt lat="44.52715522785591" lon="8.885913261034412"><ele>394.0</ele><time>2026-04-28T08:51:14.999Z</time></trkpt><trkpt lat="44.52712876427084" lon="8.88578757671944"><ele>394.0</ele><time>2026-04-28T08:51:15.999Z</time></trkpt><trkpt lat="44.52706522439742" lon="8.885681377880855"><ele>394.0</ele><time>2026-04-28T08:51:16.999Z</time></trkpt><trkpt lat="44.526972579193675" lon="8.885621206639279"><ele>394.0</ele><time>2026-04-28T08:51:17.999Z</time></trkpt><trkpt lat="44.52687017067888" lon="8.885618612955545"><ele>390.33333333333337</ele><time>2026-04-28T08:51:18.999Z</time></trkpt><trkpt lat="44.52677542434708" lon="8.885598692798746"><ele>386.6666666666667</ele><time>2026-04-28T08:51:19.999Z</time></trkpt><trkpt lat="44.52668858514037" lon="8.88562329853091"><ele>383.0</ele><time>2026-04-28T08:51:21Z</time></trkpt><trkpt lat="44.52662584064208" lon="8.88565083203132"><ele>379.33333333333337</ele><time>2026-04-28T08:51:22Z</time></trkpt><trkpt lat="44.52657779663586" lon="8.885717351521478"><ele>375.6666666666667</ele><time>2026-04-28T08:51:23Z</time></trkpt><trkpt lat="44.52652030926201" lon="8.885795985058172"><ele>372.0</ele><time>2026-04-28T08:51:24Z</time></trkpt><trkpt lat="44.52648747946974" lon="8.885905762865832"><ele>374.6666666666667</ele><time>2026-04-28T08:51:25Z</time></trkpt><trkpt lat="44.52644585167283" lon="8.885999870500731"><ele>377.33333333333337</ele><time>2026-04-28T08:51:26Z</time></trkpt><trkpt lat="44.526371008199135" lon="8.886009496313982"><ele>380.0</ele><time>2026-04-28T08:51:27Z</time></trkpt><trkpt lat="44.52629691405024" lon="8.885980721551574"><ele>382.6666666666667</ele><time>2026-04-28T08:51:28Z</time></trkpt><trkpt lat="44.526207290674954" lon="8.885915092044081"><ele>385.33333333333337</ele><time>2026-04-28T08:51:29Z</time></trkpt><trkpt lat="44.52610864494041" lon="8.885848041011423"><ele>388.0</ele><time>2026-04-28T08:51:30Z</time></trkpt><trkpt lat="44.52600913719561" lon="8.885843178357156"><ele>381.25</ele><time>2026-04-28T08:51:31Z</time></trkpt><trkpt lat="44.525891418808634" lon="8.88586293174105"><ele>374.5</ele><time>2026-04-28T08:51:32Z</time></trkpt><trkpt lat="44.52576043119056" lon="8.88589075047912"><ele>367.75</ele><time>2026-04-28T08:51:33Z</time></trkpt><trkpt lat="44.52563697927597" lon="8.885917421968333"><ele>361.0</ele><time>2026-04-28T08:51:34Z</time></trkpt><trkpt lat="44.52551017668664" lon="8.885950099426292"><ele>356.0</ele><time>2026-04-28T08:51:35Z</time></trkpt><trkpt lat="44.52538285625996" lon="8.885966634336256"><ele>351.0</ele><time>2026-04-28T08:51:36Z</time></trkpt><trkpt lat="44.525243663409896" lon="8.885951735464065"><ele>346.0</ele><time>2026-04-28T08:51:37Z</time></trkpt><trkpt lat="44.52511270080438" lon="8.885937761077688"><ele>341.0</ele><time>2026-04-28T08:51:38Z</time></trkpt><trkpt lat="44.52497809644827" lon="8.885910990525625"><ele>341.0</ele><time>2026-04-28T08:51:39Z</time></trkpt><trkpt lat="44.52485712714153" lon="8.885882093871842"><ele>341.0</ele><time>2026-04-28T08:51:40Z</time></trkpt><trkpt lat="44.524739051909684" lon="8.885822450486232"><ele>341.0</ele><time>2026-04-28T08:51:41Z</time></trkpt><trkpt lat="44.524634405885095" lon="8.885733017442186"><ele>341.0</ele><time>2026-04-28T08:51:42Z</time></trkpt><trkpt lat="44.52453378015172" lon="8.885635035242483"><ele>340.25</ele><time>2026-04-28T08:51:43Z</time></trkpt><trkpt lat="44.524427217598685" lon="8.885519148067068"><ele>339.5</ele><time>2026-04-28T08:51:44Z</time></trkpt><trkpt lat="44.524337488682704" lon="8.885427609258294"><ele>338.75</ele><time>2026-04-28T08:51:45Z</time></trkpt><trkpt lat="44.52424406784935" lon="8.885376698080565"><ele>338.0</ele><time>2026-04-28T08:51:46Z</time></trkpt><trkpt lat="44.524149930591456" lon="8.885299593383444"><ele>338.0</ele><time>2026-04-28T08:51:47Z</time></trkpt><trkpt lat="44.524071584420206" lon="8.8852237145333"><ele>338.0</ele><time>2026-04-28T08:51:48Z</time></trkpt><trkpt lat="44.523992262750184" lon="8.885151379958824"><ele>338.0</ele><time>2026-04-28T08:51:49Z</time></trkpt><trkpt lat="44.52389950239881" lon="8.88507339402299"><ele>338.0</ele><time>2026-04-28T08:51:50Z</time></trkpt><trkpt lat="44.5238070414668" lon="8.885024643195262"><ele>338.0</ele><time>2026-04-28T08:51:51Z</time></trkpt><trkpt lat="44.52370177774358" lon="8.88501872037718"><ele>335.75</ele><time>2026-04-28T08:51:52Z</time></trkpt><trkpt lat="44.523580525936666" lon="8.885042711080917"><ele>333.5</ele><time>2026-04-28T08:51:53Z</time></trkpt><trkpt lat="44.52344035291028" lon="8.885053458851948"><ele>331.25</ele><time>2026-04-28T08:51:54Z</time></trkpt><trkpt lat="44.52332523512799" lon="8.885036597882888"><ele>329.0</ele><time>2026-04-28T08:51:55Z</time></trkpt><trkpt lat="44.52320400165467" lon="8.884993649919451"><ele>329.0</ele><time>2026-04-28T08:51:56Z</time></trkpt><trkpt lat="44.52307509034335" lon="8.884939248228523"><ele>329.0</ele><time>2026-04-28T08:51:57Z</time></trkpt><trkpt lat="44.52292302365966" lon="8.884869057648379"><ele>329.0</ele><time>2026-04-28T08:51:58Z</time></trkpt><trkpt lat="44.52277568528974" lon="8.884814567857637"><ele>329.0</ele><time>2026-04-28T08:51:59Z</time></trkpt><trkpt lat="44.52264528050467" lon="8.884765248185808"><ele>327.75</ele><time>2026-04-28T08:52:00Z</time></trkpt><trkpt lat="44.52253000802605" lon="8.884730267409497"><ele>326.5</ele><time>2026-04-28T08:52:01Z</time></trkpt><trkpt lat="44.5224153672482" lon="8.884688892232765"><ele>325.25</ele><time>2026-04-28T08:52:02Z</time></trkpt><trkpt lat="44.52231071669185" lon="8.88464792376031"><ele>324.0</ele><time>2026-04-28T08:52:03Z</time></trkpt><trkpt lat="44.522207812204805" lon="8.884601534785123"><ele>324.0</ele><time>2026-04-28T08:52:04Z</time></trkpt><trkpt lat="44.52210771389068" lon="8.884546030472652"><ele>324.0</ele><time>2026-04-28T08:52:05Z</time></trkpt><trkpt lat="44.52200807685637" lon="8.884528146943705"><ele>324.0</ele><time>2026-04-28T08:52:06Z</time></trkpt><trkpt lat="44.52190767773233" lon="8.88449738794765"><ele>324.0</ele><time>2026-04-28T08:52:07Z</time></trkpt><trkpt lat="44.52179849449116" lon="8.884455875793174"><ele>324.0</ele><time>2026-04-28T08:52:08Z</time></trkpt><trkpt lat="44.521680319357216" lon="8.88442142257186"><ele>323.25</ele><time>2026-04-28T08:52:09Z</time></trkpt><trkpt lat="44.52156228670816" lon="8.884389905894096"><ele>322.5</ele><time>2026-04-28T08:52:10Z</time></trkpt><trkpt lat="44.5214297358233" lon="8.88437983684555"><ele>321.75</ele><time>2026-04-28T08:52:11Z</time></trkpt><trkpt lat="44.52128716827602" lon="8.884395083280044"><ele>321.0</ele><time>2026-04-28T08:52:12Z</time></trkpt><trkpt lat="44.52115126626188" lon="8.884429970958738"><ele>321.0</ele><time>2026-04-28T08:52:13Z</time></trkpt><trkpt lat="44.52103661018004" lon="8.884462338542061"><ele>321.0</ele><time>2026-04-28T08:52:14Z</time></trkpt><trkpt lat="44.52093293255581" lon="8.88448150704182"><ele>321.0</ele><time>2026-04-28T08:52:14.999Z</time></trkpt><trkpt lat="44.52084780339433" lon="8.884487624784887"><ele>321.0</ele><time>2026-04-28T08:52:15.999Z</time></trkpt><trkpt lat="44.52076186047523" lon="8.884496199234775"><ele>321.0</ele><time>2026-04-28T08:52:16.999Z</time></trkpt><trkpt lat="44.52066982312588" lon="8.884488232572062"><ele>321.0</ele><time>2026-04-28T08:52:17.999Z</time></trkpt><trkpt lat="44.52055376274308" lon="8.884470413719294"><ele>321.0</ele><time>2026-04-28T08:52:18.999Z</time></trkpt><trkpt lat="44.520414905568344" lon="8.88445902743998"><ele>321.0</ele><time>2026-04-28T08:52:19.999Z</time></trkpt><trkpt lat="44.52029038261014" lon="8.884478103389746"><ele>321.0</ele><time>2026-04-28T08:52:20.999Z</time></trkpt><trkpt lat="44.52018381064034" lon="8.884489433832051"><ele>320.2</ele><time>2026-04-28T08:52:21.999Z</time></trkpt><trkpt lat="44.52008241588715" lon="8.884484222056985"><ele>319.40000000000003</ele><time>2026-04-28T08:52:22.999Z</time></trkpt><trkpt lat="44.51998563672983" lon="8.884494514983375"><ele>318.6</ele><time>2026-04-28T08:52:23.999Z</time></trkpt><trkpt lat="44.519886485514164" lon="8.884501758150275"><ele>317.8</ele><time>2026-04-28T08:52:24.999Z</time></trkpt><trkpt lat="44.51980425814488" lon="8.884505429016247"><ele>317.0</ele><time>2026-04-28T08:52:25.999Z</time></trkpt><trkpt lat="44.519732505777306" lon="8.884512078058492"><ele>317.0</ele><time>2026-04-28T08:52:26.999Z</time></trkpt><trkpt lat="44.519657956843716" lon="8.88448554062765"><ele>317.0</ele><time>2026-04-28T08:52:28.999Z</time></trkpt><trkpt lat="44.51959517556065" lon="8.884515000741695"><ele>317.0</ele><time>2026-04-28T08:52:42.999Z</time></trkpt><trkpt lat="44.5196963336566" lon="8.884524999646864"><ele>317.0</ele><time>2026-04-28T08:52:48.999Z</time></trkpt><trkpt lat="44.5197627241387" lon="8.884501436346971"><ele>317.0</ele><time>2026-04-28T08:52:51.999Z</time></trkpt><trkpt lat="44.51968888330924" lon="8.884536406303942"><ele>317.0</ele><time>2026-04-28T08:52:55.999Z</time></trkpt><trkpt lat="44.519616748447426" lon="8.884552773363572"><ele>317.2</ele><time>2026-04-28T08:52:57.999Z</time></trkpt><trkpt lat="44.51954948501348" lon="8.88456378100291"><ele>317.4</ele><time>2026-04-28T08:52:58.999Z</time></trkpt><trkpt lat="44.519474802108356" lon="8.884599045546992"><ele>317.6</ele><time>2026-04-28T08:52:59.999Z</time></trkpt><trkpt lat="44.51939164662949" lon="8.884610002707099"><ele>317.8</ele><time>2026-04-28T08:53:00.999Z</time></trkpt><trkpt lat="44.51930341378575" lon="8.884690608624716"><ele>318.0</ele><time>2026-04-28T08:53:01.999Z</time></trkpt><trkpt lat="44.51916620420343" lon="8.884784237056142"><ele>318.0</ele><time>2026-04-28T08:53:02.999Z</time></trkpt><trkpt lat="44.51904735560798" lon="8.884878015993747"><ele>318.0</ele><time>2026-04-28T08:53:03.999Z</time></trkpt><trkpt lat="44.51891814614528" lon="8.88498898385786"><ele>318.0</ele><time>2026-04-28T08:53:04.999Z</time></trkpt><trkpt lat="44.51881335945665" lon="8.885092583651405"><ele>318.0</ele><time>2026-04-28T08:53:05.999Z</time></trkpt><trkpt lat="44.51870630456987" lon="8.885181743070268"><ele>316.75</ele><time>2026-04-28T08:53:06.999Z</time></trkpt><trkpt lat="44.51860937218286" lon="8.885257087650993"><ele>315.5</ele><time>2026-04-28T08:53:07.999Z</time></trkpt><trkpt lat="44.5185084972596" lon="8.88532776270551"><ele>314.25</ele><time>2026-04-28T08:53:08.999Z</time></trkpt><trkpt lat="44.518403760236666" lon="8.885367956609652"><ele>313.0</ele><time>2026-04-28T08:53:09.999Z</time></trkpt><trkpt lat="44.51828496789325" lon="8.885378976685892"><ele>313.0</ele><time>2026-04-28T08:53:10.999Z</time></trkpt><trkpt lat="44.51817171574819" lon="8.885389784355906"><ele>313.0</ele><time>2026-04-28T08:53:11.999Z</time></trkpt><trkpt lat="44.51805586122348" lon="8.885412235565033"><ele>313.0</ele><time>2026-04-28T08:53:12.999Z</time></trkpt><trkpt lat="44.517945622205474" lon="8.88542804884919"><ele>313.0</ele><time>2026-04-28T08:53:13.999Z</time></trkpt><trkpt lat="44.51784560742077" lon="8.885457041716906"><ele>313.0</ele><time>2026-04-28T08:53:14.999Z</time></trkpt><trkpt lat="44.517733596782406" lon="8.885493840269367"><ele>313.0</ele><time>2026-04-28T08:53:15.999Z</time></trkpt><trkpt lat="44.51766450085789" lon="8.885583901824308"><ele>313.0</ele><time>2026-04-28T08:53:16.999Z</time></trkpt><trkpt lat="44.51758009094898" lon="8.885667670229397"><ele>313.0</ele><time>2026-04-28T08:53:17.999Z</time></trkpt><trkpt lat="44.51750392764564" lon="8.885755949182215"><ele>313.0</ele><time>2026-04-28T08:53:18.999Z</time></trkpt><trkpt lat="44.517421891590985" lon="8.885838896844412"><ele>313.0</ele><time>2026-04-28T08:53:19.999Z</time></trkpt><trkpt lat="44.51734396562477" lon="8.885918858498798"><ele>311.2</ele><time>2026-04-28T08:53:20.999Z</time></trkpt><trkpt lat="44.5172527760604" lon="8.885975952361731"><ele>309.4</ele><time>2026-04-28T08:53:21.999Z</time></trkpt><trkpt lat="44.517155323368286" lon="8.886044658149215"><ele>307.59999999999997</ele><time>2026-04-28T08:53:22.999Z</time></trkpt><trkpt lat="44.517049687704485" lon="8.886134237000633"><ele>305.8</ele><time>2026-04-28T08:53:23.999Z</time></trkpt><trkpt lat="44.51695609663868" lon="8.886208649011794"><ele>304.0</ele><time>2026-04-28T08:53:24.999Z</time></trkpt><trkpt lat="44.516874435775215" lon="8.886317943749944"><ele>304.0</ele><time>2026-04-28T08:53:25.999Z</time></trkpt><trkpt lat="44.516807184749666" lon="8.886458023473232"><ele>304.0</ele><time>2026-04-28T08:53:27Z</time></trkpt><trkpt lat="44.51675918361986" lon="8.886653855689056"><ele>304.0</ele><time>2026-04-28T08:53:28Z</time></trkpt><trkpt lat="44.51670125462703" lon="8.886875172048493"><ele>304.0</ele><time>2026-04-28T08:53:29Z</time></trkpt><trkpt lat="44.516636370062464" lon="8.887069091121838"><ele>301.0</ele><time>2026-04-28T08:53:30Z</time></trkpt><trkpt lat="44.516565486263204" lon="8.887221181849336"><ele>298.0</ele><time>2026-04-28T08:53:31Z</time></trkpt><trkpt lat="44.51651511324628" lon="8.887376312398715"><ele>295.0</ele><time>2026-04-28T08:53:32Z</time></trkpt><trkpt lat="44.51649467431126" lon="8.887507494600452"><ele>292.0</ele><time>2026-04-28T08:53:33Z</time></trkpt><trkpt lat="44.51651108653376" lon="8.887674167297753"><ele>288.8</ele><time>2026-04-28T08:53:34Z</time></trkpt><trkpt lat="44.516553416657125" lon="8.887857565058638"><ele>285.6</ele><time>2026-04-28T08:53:35Z</time></trkpt><trkpt lat="44.51657687477778" lon="8.888007333174171"><ele>282.40000000000003</ele><time>2026-04-28T08:53:36Z</time></trkpt><trkpt lat="44.51657153806948" lon="8.888134620537443"><ele>279.2</ele><time>2026-04-28T08:53:37Z</time></trkpt><trkpt lat="44.516549509909275" lon="8.88824716193371"><ele>276.0</ele><time>2026-04-28T08:53:38Z</time></trkpt><trkpt lat="44.51650214661232" lon="8.888348435038408"><ele>274.5</ele><time>2026-04-28T08:53:39Z</time></trkpt><trkpt lat="44.5164268571535" lon="8.888434287638994"><ele>273.0</ele><time>2026-04-28T08:53:40Z</time></trkpt><trkpt lat="44.51633424341223" lon="8.888501635090702"><ele>271.5</ele><time>2026-04-28T08:53:41Z</time></trkpt><trkpt lat="44.51625457691083" lon="8.888528691076306"><ele>270.0</ele><time>2026-04-28T08:53:42Z</time></trkpt><trkpt lat="44.51618198743055" lon="8.888504701431449"><ele>268.5</ele><time>2026-04-28T08:53:43Z</time></trkpt><trkpt lat="44.516094399143576" lon="8.888493693799104"><ele>267.0</ele><time>2026-04-28T08:53:44Z</time></trkpt><trkpt lat="44.516015814782826" lon="8.8884695365484"><ele>267.0</ele><time>2026-04-28T08:53:45Z</time></trkpt><trkpt lat="44.515910605737474" lon="8.888471724299396"><ele>267.0</ele><time>2026-04-28T08:53:47Z</time></trkpt><trkpt lat="44.515828184539764" lon="8.88859493470198"><ele>267.0</ele><time>2026-04-28T08:53:49Z</time></trkpt><trkpt lat="44.51579509108158" lon="8.888751280680147"><ele>267.0</ele><time>2026-04-28T08:53:50Z</time></trkpt><trkpt lat="44.51576622731855" lon="8.888867829925287"><ele>267.0</ele><time>2026-04-28T08:53:51Z</time></trkpt><trkpt lat="44.51573170807376" lon="8.888986051340487"><ele>267.0</ele><time>2026-04-28T08:53:52Z</time></trkpt><trkpt lat="44.51563260235014" lon="8.889050760875945"><ele>267.0</ele><time>2026-04-28T08:53:53Z</time></trkpt><trkpt lat="44.51553908017706" lon="8.889085436783114"><ele>267.0</ele><time>2026-04-28T08:53:54Z</time></trkpt><trkpt lat="44.51545190418571" lon="8.88908783357534"><ele>267.0</ele><time>2026-04-28T08:53:55Z</time></trkpt><trkpt lat="44.51536783382906" lon="8.889096905765037"><ele>267.0</ele><time>2026-04-28T08:53:56Z</time></trkpt><trkpt lat="44.51529972024719" lon="8.88909715613936"><ele>267.0</ele><time>2026-04-28T08:53:57Z</time></trkpt><trkpt lat="44.515262124145465" lon="8.889202168858764"><ele>264.8</ele><time>2026-04-28T08:53:58Z</time></trkpt><trkpt lat="44.51521152239854" lon="8.889321956858785"><ele>262.6</ele><time>2026-04-28T08:53:59Z</time></trkpt><trkpt lat="44.515213084832496" lon="8.889450515086013"><ele>260.40000000000003</ele><time>2026-04-28T08:54:00Z</time></trkpt><trkpt lat="44.51521010123504" lon="8.889577275497007"><ele>258.2</ele><time>2026-04-28T08:54:01Z</time></trkpt><trkpt lat="44.51519441982813" lon="8.889681742357016"><ele>256.0</ele><time>2026-04-28T08:54:02Z</time></trkpt><trkpt lat="44.51516938391235" lon="8.889810097199437"><ele>255.99999999999997</ele><time>2026-04-28T08:54:03Z</time></trkpt><trkpt lat="44.51511270008476" lon="8.88990957303148"><ele>256.0</ele><time>2026-04-28T08:54:04Z</time></trkpt><trkpt lat="44.515051180169316" lon="8.889978808691517"><ele>256.0</ele><time>2026-04-28T08:54:05Z</time></trkpt><trkpt lat="44.51498922697801" lon="8.89000791886301"><ele>256.0</ele><time>2026-04-28T08:54:06Z</time></trkpt><trkpt lat="44.51491530437155" lon="8.889992468191142"><ele>255.99999999999997</ele><time>2026-04-28T08:54:07Z</time></trkpt><trkpt lat="44.51482559426856" lon="8.889951635317438"><ele>256.0</ele><time>2026-04-28T08:54:08Z</time></trkpt><trkpt lat="44.51474039429796" lon="8.889885037506152"><ele>256.0</ele><time>2026-04-28T08:54:09Z</time></trkpt><trkpt lat="44.51462230714263" lon="8.889808693453862"><ele>256.0</ele><time>2026-04-28T08:54:10Z</time></trkpt><trkpt lat="44.514509121400216" lon="8.889741337152586"><ele>256.0</ele><time>2026-04-28T08:54:11Z</time></trkpt><trkpt lat="44.51440126940514" lon="8.889677718626327"><ele>256.0</ele><time>2026-04-28T08:54:12Z</time></trkpt><trkpt lat="44.514303787472656" lon="8.889607799081443"><ele>254.16666666666666</ele><time>2026-04-28T08:54:13Z</time></trkpt><trkpt lat="44.5142358553113" lon="8.889490170620586"><ele>252.33333333333331</ele><time>2026-04-28T08:54:14Z</time></trkpt><trkpt lat="44.514156393666866" lon="8.889417425733203"><ele>250.5</ele><time>2026-04-28T08:54:15Z</time></trkpt><trkpt lat="44.51408963630738" lon="8.889379867679294"><ele>248.66666666666669</ele><time>2026-04-28T08:54:16Z</time></trkpt><trkpt lat="44.51402337013923" lon="8.889369509372106"><ele>246.83333333333334</ele><time>2026-04-28T08:54:17Z</time></trkpt><trkpt lat="44.51395163355369" lon="8.88940344344369"><ele>245.0</ele><time>2026-04-28T08:54:18Z</time></trkpt><trkpt lat="44.51384819435512" lon="8.889452232727567"><ele>244.2</ele><time>2026-04-28T08:54:18.999Z</time></trkpt><trkpt lat="44.513729674485774" lon="8.889531536409955"><ele>243.4</ele><time>2026-04-28T08:54:19.999Z</time></trkpt><trkpt lat="44.51362293819432" lon="8.889618386635489"><ele>242.60000000000002</ele><time>2026-04-28T08:54:20.999Z</time></trkpt><trkpt lat="44.51352391633265" lon="8.889665116280218"><ele>241.8</ele><time>2026-04-28T08:54:21.999Z</time></trkpt><trkpt lat="44.513464242201074" lon="8.889738356934167"><ele>241.0</ele><time>2026-04-28T08:54:22.999Z</time></trkpt><trkpt lat="44.513405322652964" lon="8.889794428062869"><ele>241.0</ele><time>2026-04-28T08:54:23.999Z</time></trkpt><trkpt lat="44.513381105197816" lon="8.889924947959056"><ele>241.00000000000003</ele><time>2026-04-28T08:54:24.999Z</time></trkpt><trkpt lat="44.51336305634911" lon="8.890055802297974"><ele>241.00000000000003</ele><time>2026-04-28T08:54:25.999Z</time></trkpt><trkpt lat="44.5133527411871" lon="8.89017512389411"><ele>241.0</ele><time>2026-04-28T08:54:26.999Z</time></trkpt><trkpt lat="44.51331860120775" lon="8.890285676548068"><ele>241.0</ele><time>2026-04-28T08:54:27.999Z</time></trkpt><trkpt lat="44.5132504199599" lon="8.890369339304982"><ele>238.20000000000002</ele><time>2026-04-28T08:54:28.999Z</time></trkpt><trkpt lat="44.51317831626403" lon="8.890441232154565"><ele>235.40000000000003</ele><time>2026-04-28T08:54:29.999Z</time></trkpt><trkpt lat="44.513080374013875" lon="8.890495420889918"><ele>232.6</ele><time>2026-04-28T08:54:30.999Z</time></trkpt><trkpt lat="44.51297953575468" lon="8.890532428811245"><ele>229.8</ele><time>2026-04-28T08:54:31.999Z</time></trkpt><trkpt lat="44.51289721025308" lon="8.890533500527718"><ele>227.0</ele><time>2026-04-28T08:54:32.999Z</time></trkpt><trkpt lat="44.51280956255222" lon="8.89050564216293"><ele>225.33333333333334</ele><time>2026-04-28T08:54:33.999Z</time></trkpt><trkpt lat="44.51273559855093" lon="8.890437290478806"><ele>223.66666666666669</ele><time>2026-04-28T08:54:34.999Z</time></trkpt><trkpt lat="44.51268621078458" lon="8.890349280934291"><ele>222.0</ele><time>2026-04-28T08:54:35.999Z</time></trkpt><trkpt lat="44.51263225413305" lon="8.890251794902037"><ele>220.33333333333331</ele><time>2026-04-28T08:54:36.999Z</time></trkpt><trkpt lat="44.51256954096932" lon="8.890235020325076"><ele>218.66666666666666</ele><time>2026-04-28T08:54:37.999Z</time></trkpt><trkpt lat="44.51248396222286" lon="8.89027550488848"><ele>217.0</ele><time>2026-04-28T08:54:38.999Z</time></trkpt><trkpt lat="44.51238426228766" lon="8.890345112976608"><ele>217.0</ele><time>2026-04-28T08:54:39.999Z</time></trkpt><trkpt lat="44.51227557524017" lon="8.890429878545943"><ele>217.0</ele><time>2026-04-28T08:54:40.999Z</time></trkpt><trkpt lat="44.51218617755367" lon="8.890539669145936"><ele>217.0</ele><time>2026-04-28T08:54:41.999Z</time></trkpt><trkpt lat="44.51211360655808" lon="8.890667576998732"><ele>217.0</ele><time>2026-04-28T08:54:42.999Z</time></trkpt><trkpt lat="44.51205687719255" lon="8.890791650381766"><ele>217.8</ele><time>2026-04-28T08:54:43.999Z</time></trkpt><trkpt lat="44.51200412366623" lon="8.890888593179167"><ele>218.6</ele><time>2026-04-28T08:54:44.999Z</time></trkpt><trkpt lat="44.51195581014465" lon="8.890974898208666"><ele>219.40000000000003</ele><time>2026-04-28T08:54:45.999Z</time></trkpt><trkpt lat="44.51190801478671" lon="8.891050127079142"><ele>220.20000000000002</ele><time>2026-04-28T08:54:46.999Z</time></trkpt><trkpt lat="44.511776231955466" lon="8.891089066781605"><ele>221.0</ele><time>2026-04-28T08:54:48.999Z</time></trkpt><trkpt lat="44.511679113854356" lon="8.891056025704806"><ele>221.0</ele><time>2026-04-28T08:54:49.999Z</time></trkpt><trkpt lat="44.51156600258184" lon="8.89098567374343"><ele>221.00000000000003</ele><time>2026-04-28T08:54:50.999Z</time></trkpt><trkpt lat="44.51147515455036" lon="8.890932300686435"><ele>221.00000000000003</ele><time>2026-04-28T08:54:51.999Z</time></trkpt><trkpt lat="44.511411703542734" lon="8.890865632859418"><ele>221.0</ele><time>2026-04-28T08:54:52.999Z</time></trkpt><trkpt lat="44.511333121234166" lon="8.891000327362363"><ele>221.0</ele><time>2026-04-28T08:54:53.999Z</time></trkpt><trkpt lat="44.51127722863535" lon="8.891138385161327"><ele>217.60000000000002</ele><time>2026-04-28T08:54:54.999Z</time></trkpt><trkpt lat="44.511222621665446" lon="8.891281696005358"><ele>214.20000000000002</ele><time>2026-04-28T08:54:55.999Z</time></trkpt><trkpt lat="44.51118123406853" lon="8.891386761474083"><ele>210.8</ele><time>2026-04-28T08:54:56.999Z</time></trkpt><trkpt lat="44.5111251732596" lon="8.891456072487042"><ele>207.39999999999998</ele><time>2026-04-28T08:54:57.999Z</time></trkpt><trkpt lat="44.51103932386565" lon="8.89147481117368"><ele>204.0</ele><time>2026-04-28T08:54:58.999Z</time></trkpt><trkpt lat="44.51093684466492" lon="8.891526279500273"><ele>204.0</ele><time>2026-04-28T08:54:59.999Z</time></trkpt><trkpt lat="44.51081337587221" lon="8.891565740879999"><ele>204.0</ele><time>2026-04-28T08:55:00.999Z</time></trkpt><trkpt lat="44.51070584753063" lon="8.891606905902027"><ele>204.0</ele><time>2026-04-28T08:55:01.999Z</time></trkpt><trkpt lat="44.51059223401551" lon="8.891643265570764"><ele>204.0</ele><time>2026-04-28T08:55:02.999Z</time></trkpt><trkpt lat="44.51049040320063" lon="8.891643596645281"><ele>204.0</ele><time>2026-04-28T08:55:03.999Z</time></trkpt><trkpt lat="44.51041328828501" lon="8.89162120182809"><ele>204.0</ele><time>2026-04-28T08:55:04.999Z</time></trkpt><trkpt lat="44.51029704783442" lon="8.891584068292223"><ele>204.0</ele><time>2026-04-28T08:55:05.999Z</time></trkpt><trkpt lat="44.51018878598122" lon="8.891542050532344"><ele>204.0</ele><time>2026-04-28T08:55:06.999Z</time></trkpt><trkpt lat="44.51007977346435" lon="8.891531474455189"><ele>204.0</ele><time>2026-04-28T08:55:07.999Z</time></trkpt><trkpt lat="44.50998610545366" lon="8.891505999447926"><ele>202.0</ele><time>2026-04-28T08:55:08.999Z</time></trkpt><trkpt lat="44.50989951056278" lon="8.891458498024695"><ele>200.0</ele><time>2026-04-28T08:55:09.999Z</time></trkpt><trkpt lat="44.5098168711263" lon="8.89138350344065"><ele>198.0</ele><time>2026-04-28T08:55:10.999Z</time></trkpt><trkpt lat="44.50974488729551" lon="8.891297973263761"><ele>196.0</ele><time>2026-04-28T08:55:11.999Z</time></trkpt><trkpt lat="44.50967951174429" lon="8.89120461244743"><ele>194.0</ele><time>2026-04-28T08:55:12.999Z</time></trkpt><trkpt lat="44.50962760596748" lon="8.89110783681281"><ele>189.2</ele><time>2026-04-28T08:55:13.999Z</time></trkpt><trkpt lat="44.50956554308263" lon="8.891042260870009"><ele>184.39999999999998</ele><time>2026-04-28T08:55:14.999Z</time></trkpt><trkpt lat="44.509436431817775" lon="8.891043430808134"><ele>179.6</ele><time>2026-04-28T08:55:16.999Z</time></trkpt><trkpt lat="44.509384714855024" lon="8.891131069610886"><ele>174.8</ele><time>2026-04-28T08:55:17.999Z</time></trkpt><trkpt lat="44.50939404721068" lon="8.89126087128575"><ele>170.0</ele><time>2026-04-28T08:55:18.999Z</time></trkpt><trkpt lat="44.509421876306554" lon="8.891356111991689"><ele>170.0</ele><time>2026-04-28T08:55:19.999Z</time></trkpt><trkpt lat="44.50944711723889" lon="8.891483620478601"><ele>170.0</ele><time>2026-04-28T08:55:20.999Z</time></trkpt><trkpt lat="44.509483527864454" lon="8.891636977333189"><ele>170.0</ele><time>2026-04-28T08:55:21.999Z</time></trkpt><trkpt lat="44.50951571756728" lon="8.891764367607761"><ele>170.0</ele><time>2026-04-28T08:55:22.999Z</time></trkpt><trkpt lat="44.509528662476704" lon="8.891917339512743"><ele>170.0</ele><time>2026-04-28T08:55:23.999Z</time></trkpt><trkpt lat="44.509564812585964" lon="8.89206314843097"><ele>170.2</ele><time>2026-04-28T08:55:24.999Z</time></trkpt><trkpt lat="44.50964618140681" lon="8.892168582650896"><ele>170.4</ele><time>2026-04-28T08:55:25.999Z</time></trkpt><trkpt lat="44.509716474880456" lon="8.892238443600414"><ele>170.60000000000002</ele><time>2026-04-28T08:55:26.999Z</time></trkpt><trkpt lat="44.509789226531446" lon="8.892259663745968"><ele>170.8</ele><time>2026-04-28T08:55:27.999Z</time></trkpt><trkpt lat="44.50984530602562" lon="8.892348458121887"><ele>171.0</ele><time>2026-04-28T08:55:29.999Z</time></trkpt><trkpt lat="44.5097875746272" lon="8.892456705919082"><ele>171.0</ele><time>2026-04-28T08:55:31.999Z</time></trkpt><trkpt lat="44.509665468228505" lon="8.892405673566467"><ele>171.0</ele><time>2026-04-28T08:55:34Z</time></trkpt><trkpt lat="44.50959023107858" lon="8.892352837759947"><ele>171.0</ele><time>2026-04-28T08:55:35Z</time></trkpt><trkpt lat="44.509508483858795" lon="8.892293062349701"><ele>171.0</ele><time>2026-04-28T08:55:36Z</time></trkpt><trkpt lat="44.509421314952114" lon="8.892229322786035"><ele>171.0</ele><time>2026-04-28T08:55:37Z</time></trkpt><trkpt lat="44.50934068632904" lon="8.892173762251268"><ele>170.60000000000002</ele><time>2026-04-28T08:55:38Z</time></trkpt><trkpt lat="44.50925896768018" lon="8.892143648985057"><ele>170.2</ele><time>2026-04-28T08:55:39Z</time></trkpt><trkpt lat="44.50914986623087" lon="8.892080156882951"><ele>169.8</ele><time>2026-04-28T08:55:40Z</time></trkpt><trkpt lat="44.50906232485276" lon="8.8920602622324"><ele>169.39999999999998</ele><time>2026-04-28T08:55:41Z</time></trkpt><trkpt lat="44.50894242521181" lon="8.892057057490288"><ele>169.0</ele><time>2026-04-28T08:55:42Z</time></trkpt><trkpt lat="44.50882001994161" lon="8.892085509837244"><ele>166.79999999999998</ele><time>2026-04-28T08:55:43Z</time></trkpt><trkpt lat="44.508726686784065" lon="8.892114890216671"><ele>164.6</ele><time>2026-04-28T08:55:44Z</time></trkpt><trkpt lat="44.50862452850423" lon="8.892151895702124"><ele>162.4</ele><time>2026-04-28T08:55:45Z</time></trkpt><trkpt lat="44.50853581710577" lon="8.892188924560156"><ele>160.2</ele><time>2026-04-28T08:55:46Z</time></trkpt><trkpt lat="44.50844707507619" lon="8.892226933387015"><ele>158.0</ele><time>2026-04-28T08:55:47Z</time></trkpt><trkpt lat="44.50835755854469" lon="8.892276467764948"><ele>158.0</ele><time>2026-04-28T08:55:48Z</time></trkpt><trkpt lat="44.50827147329403" lon="8.892317916383751"><ele>158.0</ele><time>2026-04-28T08:55:49Z</time></trkpt><trkpt lat="44.508190269154056" lon="8.892369051297813"><ele>158.0</ele><time>2026-04-28T08:55:50Z</time></trkpt><trkpt lat="44.50811882716311" lon="8.892434862999579"><ele>158.0</ele><time>2026-04-28T08:55:51Z</time></trkpt><trkpt lat="44.50804900188751" lon="8.892509919450353"><ele>158.0</ele><time>2026-04-28T08:55:52Z</time></trkpt><trkpt lat="44.507973317254276" lon="8.89259690372643"><ele>155.0</ele><time>2026-04-28T08:55:53Z</time></trkpt><trkpt lat="44.5078896349979" lon="8.892682066748074"><ele>152.0</ele><time>2026-04-28T08:55:54Z</time></trkpt><trkpt lat="44.507804613444954" lon="8.892742126497595"><ele>149.0</ele><time>2026-04-28T08:55:55Z</time></trkpt><trkpt lat="44.507736546617615" lon="8.892781462324395"><ele>146.0</ele><time>2026-04-28T08:55:56Z</time></trkpt><trkpt lat="44.50767403975936" lon="8.892808369951748"><ele>143.0</ele><time>2026-04-28T08:55:57Z</time></trkpt><trkpt lat="44.50757713667324" lon="8.892704924081198"><ele>143.0</ele><time>2026-04-28T08:55:59Z</time></trkpt><trkpt lat="44.507557700944105" lon="8.892598040018191"><ele>143.0</ele><time>2026-04-28T08:56:00Z</time></trkpt><trkpt lat="44.507559544917726" lon="8.892486733673001"><ele>143.0</ele><time>2026-04-28T08:56:01Z</time></trkpt><trkpt lat="44.50758313611011" lon="8.89235264183752"><ele>143.0</ele><time>2026-04-28T08:56:02Z</time></trkpt><trkpt lat="44.50760027678615" lon="8.892174013648033"><ele>143.0</ele><time>2026-04-28T08:56:03Z</time></trkpt><trkpt lat="44.5076070956791" lon="8.892016240625978"><ele>142.6</ele><time>2026-04-28T08:56:04Z</time></trkpt><trkpt lat="44.50760338236527" lon="8.891850417005669"><ele>142.20000000000002</ele><time>2026-04-28T08:56:05Z</time></trkpt><trkpt lat="44.507601556069034" lon="8.89169360297122"><ele>141.8</ele><time>2026-04-28T08:56:06Z</time></trkpt><trkpt lat="44.50760497284796" lon="8.891563774435305"><ele>141.4</ele><time>2026-04-28T08:56:07Z</time></trkpt><trkpt lat="44.50761731815163" lon="8.89142724687227"><ele>141.0</ele><time>2026-04-28T08:56:08Z</time></trkpt><trkpt lat="44.507618728117805" lon="8.891292227484344"><ele>140.0</ele><time>2026-04-28T08:56:09Z</time></trkpt><trkpt lat="44.50761281500214" lon="8.891163894031148"><ele>139.0</ele><time>2026-04-28T08:56:10Z</time></trkpt><trkpt lat="44.50760864646892" lon="8.891028137777582"><ele>138.0</ele><time>2026-04-28T08:56:11Z</time></trkpt><trkpt lat="44.50761056217367" lon="8.890894190763532"><ele>137.0</ele><time>2026-04-28T08:56:12Z</time></trkpt><trkpt lat="44.50758848543621" lon="8.8907616707982"><ele>136.0</ele><time>2026-04-28T08:56:13Z</time></trkpt><trkpt lat="44.50758558074271" lon="8.890634166241043"><ele>136.0</ele><time>2026-04-28T08:56:14Z</time></trkpt><trkpt lat="44.507577967674266" lon="8.89053204273073"><ele>136.0</ele><time>2026-04-28T08:56:15Z</time></trkpt><trkpt lat="44.507554052920156" lon="8.890416111512426"><ele>136.0</ele><time>2026-04-28T08:56:17Z</time></trkpt><trkpt lat="44.50753495603087" lon="8.890329757364686"><ele>136.0</ele><time>2026-04-28T08:56:19Z</time></trkpt><trkpt lat="44.50747929546272" lon="8.89027685814991"><ele>136.0</ele><time>2026-04-28T08:56:25Z</time></trkpt><trkpt lat="44.50738973069053" lon="8.890237921044816"><ele>136.0</ele><time>2026-04-28T08:56:26.999Z</time></trkpt><trkpt lat="44.50725442110352" lon="8.890222934966769"><ele>136.0</ele><time>2026-04-28T08:56:28.999Z</time></trkpt><trkpt lat="44.50717133811032" lon="8.890227228177052"><ele>136.0</ele><time>2026-04-28T08:56:30.999Z</time></trkpt><trkpt lat="44.50709144818913" lon="8.890283761682436"><ele>136.0</ele><time>2026-04-28T08:56:34.999Z</time></trkpt><trkpt lat="44.50703490604282" lon="8.890445501568395"><ele>136.0</ele><time>2026-04-28T08:56:36.999Z</time></trkpt><trkpt lat="44.50700617226841" lon="8.890531673468102"><ele>136.0</ele><time>2026-04-28T08:56:37.999Z</time></trkpt><trkpt lat="44.506971510583654" lon="8.89066725242503"><ele>134.4</ele><time>2026-04-28T08:56:39.999Z</time></trkpt><trkpt lat="44.50696002868752" lon="8.89081577054868"><ele>132.8</ele><time>2026-04-28T08:56:41.999Z</time></trkpt><trkpt lat="44.506920162442825" lon="8.89095697043849"><ele>131.20000000000002</ele><time>2026-04-28T08:56:43.999Z</time></trkpt><trkpt lat="44.50689381883535" lon="8.89110775285261"><ele>129.6</ele><time>2026-04-28T08:56:45.999Z</time></trkpt><trkpt lat="44.50688952518105" lon="8.891199075085074"><ele>128.0</ele><time>2026-04-28T08:56:46.999Z</time></trkpt><trkpt lat="44.506874742428124" lon="8.891319701837835"><ele>127.99999999999999</ele><time>2026-04-28T08:56:48.999Z</time></trkpt><trkpt lat="44.50685965109502" lon="8.891409423723749"><ele>128.0</ele><time>2026-04-28T08:56:50.999Z</time></trkpt><trkpt lat="44.50686074398884" lon="8.891517420785075"><ele>128.0</ele><time>2026-04-28T08:56:52.999Z</time></trkpt><trkpt lat="44.506850143342646" lon="8.891643389963596"><ele>128.0</ele><time>2026-04-28T08:56:54.999Z</time></trkpt><trkpt lat="44.506840588386275" lon="8.891741601451532"><ele>127.99999999999999</ele><time>2026-04-28T08:56:55.999Z</time></trkpt><trkpt lat="44.506827600124446" lon="8.891852400408093"><ele>128.0</ele><time>2026-04-28T08:56:56.999Z</time></trkpt><trkpt lat="44.506806216323646" lon="8.89195411371807"><ele>127.66666666666666</ele><time>2026-04-28T08:56:57.999Z</time></trkpt><trkpt lat="44.50677147990399" lon="8.89208275961599"><ele>127.33333333333333</ele><time>2026-04-28T08:56:59.999Z</time></trkpt><trkpt lat="44.50669421792641" lon="8.892128731601463"><ele>127.0</ele><time>2026-04-28T08:57:00.999Z</time></trkpt><trkpt lat="44.506667774207" lon="8.892221258302914"><ele>126.66666666666666</ele><time>2026-04-28T08:57:01.999Z</time></trkpt><trkpt lat="44.50660597340161" lon="8.892334955264838"><ele>126.33333333333333</ele><time>2026-04-28T08:57:03.999Z</time></trkpt><trkpt lat="44.50656672211458" lon="8.892430120414154"><ele>126.0</ele><time>2026-04-28T08:57:06.999Z</time></trkpt><trkpt lat="44.50653362553964" lon="8.892512666027546"><ele>125.75</ele><time>2026-04-28T08:57:08.999Z</time></trkpt><trkpt lat="44.506503854145755" lon="8.892603186529026"><ele>125.5</ele><time>2026-04-28T08:57:11.999Z</time></trkpt><trkpt lat="44.506485168028846" lon="8.892708797537095"><ele>125.25</ele><time>2026-04-28T08:57:13.999Z</time></trkpt><trkpt lat="44.50645866206405" lon="8.892811614112608"><ele>125.0</ele><time>2026-04-28T08:57:15.999Z</time></trkpt><trkpt lat="44.50645711082525" lon="8.893158598446274"><ele>125.0</ele><time>2026-04-28T09:03:23.999Z</time></trkpt><trkpt lat="44.50646586328971" lon="8.893328462884202"><ele>125.0</ele><time>2026-04-28T09:03:24.999Z</time></trkpt><trkpt lat="44.50648164909419" lon="8.89348912961982"><ele>125.0</ele><time>2026-04-28T09:03:26.999Z</time></trkpt><trkpt lat="44.50649329808508" lon="8.89358881187459"><ele>125.0</ele><time>2026-04-28T09:03:27.999Z</time></trkpt><trkpt lat="44.50651091033309" lon="8.893675878640611"><ele>125.0</ele><time>2026-04-28T09:03:28.999Z</time></trkpt><trkpt lat="44.50649505195767" lon="8.893784429678078"><ele>124.66666666666666</ele><time>2026-04-28T09:03:29.999Z</time></trkpt><trkpt lat="44.50648350533249" lon="8.893884759594231"><ele>124.33333333333333</ele><time>2026-04-28T09:03:30.999Z</time></trkpt><trkpt lat="44.50647366819694" lon="8.89401264274978"><ele>124.0</ele><time>2026-04-28T09:03:31.999Z</time></trkpt><trkpt lat="44.50645726625668" lon="8.89412936041859"><ele>123.66666666666666</ele><time>2026-04-28T09:03:32.999Z</time></trkpt><trkpt lat="44.50644505503187" lon="8.894237742754287"><ele>123.33333333333333</ele><time>2026-04-28T09:03:33.999Z</time></trkpt><trkpt lat="44.50643364624131" lon="8.89436425527676"><ele>123.0</ele><time>2026-04-28T09:03:34.999Z</time></trkpt><trkpt lat="44.5064241884809" lon="8.894485726169158"><ele>121.80000000000001</ele><time>2026-04-28T09:03:35.999Z</time></trkpt><trkpt lat="44.50640647425199" lon="8.894614585860028"><ele>120.60000000000001</ele><time>2026-04-28T09:03:36.999Z</time></trkpt><trkpt lat="44.50638642162532" lon="8.894768299883845"><ele>119.39999999999999</ele><time>2026-04-28T09:03:37.999Z</time></trkpt><trkpt lat="44.506369672545034" lon="8.894914893530308"><ele>118.19999999999999</ele><time>2026-04-28T09:03:38.999Z</time></trkpt><trkpt lat="44.506356582508076" lon="8.895037978801613"><ele>117.0</ele><time>2026-04-28T09:03:39.999Z</time></trkpt><trkpt lat="44.506340450774374" lon="8.895179957992397"><ele>117.0</ele><time>2026-04-28T09:03:40.999Z</time></trkpt><trkpt lat="44.50633225374043" lon="8.8952993841578"><ele>117.0</ele><time>2026-04-28T09:03:41.999Z</time></trkpt><trkpt lat="44.50633011521801" lon="8.895411131931008"><ele>117.0</ele><time>2026-04-28T09:03:42.999Z</time></trkpt><trkpt lat="44.50631028066741" lon="8.895537179143757"><ele>117.0</ele><time>2026-04-28T09:03:43.999Z</time></trkpt><trkpt lat="44.50629643136627" lon="8.895656904130323"><ele>117.0</ele><time>2026-04-28T09:03:44.999Z</time></trkpt><trkpt lat="44.50628910269611" lon="8.895771635998091"><ele>117.0</ele><time>2026-04-28T09:03:45.999Z</time></trkpt><trkpt lat="44.50626063296621" lon="8.895871862981517"><ele>117.0</ele><time>2026-04-28T09:03:46.999Z</time></trkpt><trkpt lat="44.50622808894612" lon="8.895985971398197"><ele>117.0</ele><time>2026-04-28T09:03:47.999Z</time></trkpt><trkpt lat="44.50618925196904" lon="8.896081708828172"><ele>117.0</ele><time>2026-04-28T09:03:48.999Z</time></trkpt><trkpt lat="44.50615212015391" lon="8.896160376775983"><ele>117.0</ele><time>2026-04-28T09:03:49.999Z</time></trkpt><trkpt lat="44.50609704961027" lon="8.896216721365567"><ele>117.0</ele><time>2026-04-28T09:03:50.999Z</time></trkpt><trkpt lat="44.50601869359748" lon="8.89633460051083"><ele>117.0</ele><time>2026-04-28T09:03:52.999Z</time></trkpt><trkpt lat="44.50589090209742" lon="8.896423358487398"><ele>117.0</ele><time>2026-04-28T09:03:54.999Z</time></trkpt><trkpt lat="44.50583464761843" lon="8.896509334944419"><ele>117.0</ele><time>2026-04-28T09:03:55.999Z</time></trkpt><trkpt lat="44.505769810353655" lon="8.896581834992904"><ele>117.0</ele><time>2026-04-28T09:03:57Z</time></trkpt><trkpt lat="44.50571065619096" lon="8.896664400010009"><ele>117.0</ele><time>2026-04-28T09:03:58Z</time></trkpt><trkpt lat="44.505662136687675" lon="8.896750270247983"><ele>117.0</ele><time>2026-04-28T09:03:59Z</time></trkpt><trkpt lat="44.50559639625717" lon="8.896825904782869"><ele>117.0</ele><time>2026-04-28T09:04:00Z</time></trkpt><trkpt lat="44.50553271490143" lon="8.896903745478138"><ele>117.66666666666667</ele><time>2026-04-28T09:04:01Z</time></trkpt><trkpt lat="44.50547089047227" lon="8.896972629755476"><ele>118.33333333333334</ele><time>2026-04-28T09:04:02Z</time></trkpt><trkpt lat="44.505408624745634" lon="8.897036454518403"><ele>119.0</ele><time>2026-04-28T09:04:03Z</time></trkpt><trkpt lat="44.5053493889321" lon="8.89709693076955"><ele>119.66666666666667</ele><time>2026-04-28T09:04:04Z</time></trkpt><trkpt lat="44.50528220513432" lon="8.897157163807744"><ele>120.33333333333334</ele><time>2026-04-28T09:04:05Z</time></trkpt><trkpt lat="44.50520603494471" lon="8.897227295795155"><ele>121.0</ele><time>2026-04-28T09:04:06Z</time></trkpt><trkpt lat="44.505120326635165" lon="8.897300347304947"><ele>121.0</ele><time>2026-04-28T09:04:07Z</time></trkpt><trkpt lat="44.505023464489234" lon="8.89736241060344"><ele>121.0</ele><time>2026-04-28T09:04:08Z</time></trkpt><trkpt lat="44.50493558295385" lon="8.897425414601301"><ele>121.0</ele><time>2026-04-28T09:04:09Z</time></trkpt><trkpt lat="44.504858211241384" lon="8.897478827549312"><ele>121.0</ele><time>2026-04-28T09:04:10Z</time></trkpt><trkpt lat="44.50477922007168" lon="8.897548212785464"><ele>121.0</ele><time>2026-04-28T09:04:11Z</time></trkpt><trkpt lat="44.504699662777" lon="8.897600536586674"><ele>121.16666666666667</ele><time>2026-04-28T09:04:12Z</time></trkpt><trkpt lat="44.504628349289625" lon="8.897651647201492"><ele>121.33333333333334</ele><time>2026-04-28T09:04:13Z</time></trkpt><trkpt lat="44.50455461518778" lon="8.897687804494472"><ele>121.5</ele><time>2026-04-28T09:04:14Z</time></trkpt><trkpt lat="44.50448377546004" lon="8.89773190911789"><ele>121.66666666666666</ele><time>2026-04-28T09:04:15Z</time></trkpt><trkpt lat="44.504403171270624" lon="8.897787836606433"><ele>121.83333333333333</ele><time>2026-04-28T09:04:16Z</time></trkpt><trkpt lat="44.504328484558556" lon="8.89784105150611"><ele>122.0</ele><time>2026-04-28T09:04:17Z</time></trkpt><trkpt lat="44.50424557257401" lon="8.897898984310208"><ele>122.0</ele><time>2026-04-28T09:04:18Z</time></trkpt><trkpt lat="44.504162036349086" lon="8.897950941741044"><ele>121.99999999999999</ele><time>2026-04-28T09:04:19Z</time></trkpt><trkpt lat="44.50408541683816" lon="8.898000179242617"><ele>121.99999999999999</ele><time>2026-04-28T09:04:20Z</time></trkpt><trkpt lat="44.503992664319036" lon="8.898057787601228"><ele>122.0</ele><time>2026-04-28T09:04:21Z</time></trkpt><trkpt lat="44.50390340873012" lon="8.898114365569903"><ele>122.0</ele><time>2026-04-28T09:04:22Z</time></trkpt><trkpt lat="44.5038220153904" lon="8.898162628443973"><ele>121.33333333333333</ele><time>2026-04-28T09:04:23Z</time></trkpt><trkpt lat="44.50374661649611" lon="8.89822819139265"><ele>120.66666666666666</ele><time>2026-04-28T09:04:24Z</time></trkpt><trkpt lat="44.50366836275419" lon="8.898279771092719"><ele>120.0</ele><time>2026-04-28T09:04:25Z</time></trkpt><trkpt lat="44.50359239808991" lon="8.89832946120192"><ele>119.33333333333334</ele><time>2026-04-28T09:04:26Z</time></trkpt><trkpt lat="44.50353180338664" lon="8.898387865994522"><ele>118.66666666666667</ele><time>2026-04-28T09:04:27Z</time></trkpt><trkpt lat="44.503475878387746" lon="8.898455466311756"><ele>118.0</ele><time>2026-04-28T09:04:28Z</time></trkpt><trkpt lat="44.503428224819736" lon="8.898528534545104"><ele>118.0</ele><time>2026-04-28T09:04:29Z</time></trkpt><trkpt lat="44.50338896218469" lon="8.898607817178599"><ele>118.00000000000001</ele><time>2026-04-28T09:04:30Z</time></trkpt><trkpt lat="44.50333739981746" lon="8.898705599192324"><ele>118.00000000000001</ele><time>2026-04-28T09:04:31Z</time></trkpt><trkpt lat="44.50327989242201" lon="8.898811144559819"><ele>118.0</ele><time>2026-04-28T09:04:32Z</time></trkpt><trkpt lat="44.50321572901941" lon="8.898929973092809"><ele>118.0</ele><time>2026-04-28T09:04:33Z</time></trkpt><trkpt lat="44.50312718778414" lon="8.899075966350436"><ele>118.0</ele><time>2026-04-28T09:04:34Z</time></trkpt><trkpt lat="44.50303794399366" lon="8.899231309408803"><ele>118.0</ele><time>2026-04-28T09:04:35Z</time></trkpt><trkpt lat="44.50295136751941" lon="8.8993745873327"><ele>118.0</ele><time>2026-04-28T09:04:36Z</time></trkpt><trkpt lat="44.502850651679104" lon="8.8994986874037"><ele>118.0</ele><time>2026-04-28T09:04:37Z</time></trkpt><trkpt lat="44.50274590809749" lon="8.899581188904918"><ele>117.0</ele><time>2026-04-28T09:04:38Z</time></trkpt><trkpt lat="44.50263990314633" lon="8.899668500837333"><ele>116.00000000000001</ele><time>2026-04-28T09:04:39Z</time></trkpt><trkpt lat="44.50254807447287" lon="8.899727127975583"><ele>115.00000000000001</ele><time>2026-04-28T09:04:40Z</time></trkpt><trkpt lat="44.50246143619492" lon="8.899783923250094"><ele>114.0</ele><time>2026-04-28T09:04:41Z</time></trkpt><trkpt lat="44.50237622680151" lon="8.899840713740447"><ele>113.0</ele><time>2026-04-28T09:04:42Z</time></trkpt><trkpt lat="44.50228281258423" lon="8.899936993144618"><ele>113.0</ele><time>2026-04-28T09:04:43Z</time></trkpt><trkpt lat="44.502200953883865" lon="8.900029201908536"><ele>113.00000000000001</ele><time>2026-04-28T09:04:44Z</time></trkpt><trkpt lat="44.502115699727085" lon="8.900100191238673"><ele>113.00000000000001</ele><time>2026-04-28T09:04:45Z</time></trkpt><trkpt lat="44.502039996318224" lon="8.900183177504852"><ele>113.0</ele><time>2026-04-28T09:04:46Z</time></trkpt><trkpt lat="44.501963596405034" lon="8.900266941260497"><ele>113.0</ele><time>2026-04-28T09:04:46.999Z</time></trkpt><trkpt lat="44.50188693736981" lon="8.900350999014428"><ele>114.4</ele><time>2026-04-28T09:04:47.999Z</time></trkpt><trkpt lat="44.50181460558473" lon="8.90044663238798"><ele>115.80000000000001</ele><time>2026-04-28T09:04:48.999Z</time></trkpt><trkpt lat="44.501731861063945" lon="8.90052268064879"><ele>117.2</ele><time>2026-04-28T09:04:49.999Z</time></trkpt><trkpt lat="44.50165519093563" lon="8.900602438256637"><ele>118.6</ele><time>2026-04-28T09:04:50.999Z</time></trkpt><trkpt lat="44.50159350331261" lon="8.900682777855206"><ele>120.0</ele><time>2026-04-28T09:04:51.999Z</time></trkpt><trkpt lat="44.501523696000554" lon="8.900756975234863"><ele>120.0</ele><time>2026-04-28T09:04:52.999Z</time></trkpt><trkpt lat="44.501457216235224" lon="8.900834802626296"><ele>120.0</ele><time>2026-04-28T09:04:53.999Z</time></trkpt><trkpt lat="44.50138378119707" lon="8.900902367947689"><ele>120.0</ele><time>2026-04-28T09:04:54.999Z</time></trkpt><trkpt lat="44.50131275625615" lon="8.900955788535127"><ele>120.0</ele><time>2026-04-28T09:04:55.999Z</time></trkpt><trkpt lat="44.501237114079345" lon="8.901004935677406"><ele>120.0</ele><time>2026-04-28T09:04:56.999Z</time></trkpt><trkpt lat="44.501153820523406" lon="8.901038042767103"><ele>120.0</ele><time>2026-04-28T09:04:57.999Z</time></trkpt><trkpt lat="44.50108154338916" lon="8.901080806550885"><ele>120.0</ele><time>2026-04-28T09:04:58.999Z</time></trkpt><trkpt lat="44.50100606232693" lon="8.90112152341084"><ele>120.0</ele><time>2026-04-28T09:04:59.999Z</time></trkpt><trkpt lat="44.5009148376815" lon="8.901164820393436"><ele>120.0</ele><time>2026-04-28T09:05:00.999Z</time></trkpt><trkpt lat="44.500820167459324" lon="8.901217562334079"><ele>120.0</ele><time>2026-04-28T09:05:01.999Z</time></trkpt><trkpt lat="44.50074074358081" lon="8.901261450786821"><ele>120.0</ele><time>2026-04-28T09:05:02.999Z</time></trkpt><trkpt lat="44.500670616620006" lon="8.901299666767214"><ele>120.0</ele><time>2026-04-28T09:05:03.999Z</time></trkpt><trkpt lat="44.50060930078474" lon="8.901333926549608"><ele>120.0</ele><time>2026-04-28T09:05:04.999Z</time></trkpt><trkpt lat="44.50054484835988" lon="8.901377970408634"><ele>120.0</ele><time>2026-04-28T09:05:05.999Z</time></trkpt><trkpt lat="44.50047219560195" lon="8.90143874751742"><ele>120.0</ele><time>2026-04-28T09:05:06.999Z</time></trkpt><trkpt lat="44.50040591608931" lon="8.901515493437559"><ele>120.0</ele><time>2026-04-28T09:05:07.999Z</time></trkpt><trkpt lat="44.500354862302466" lon="8.901593789400708"><ele>120.0</ele><time>2026-04-28T09:05:08.999Z</time></trkpt><trkpt lat="44.500296512751305" lon="8.901666452757409"><ele>120.0</ele><time>2026-04-28T09:05:09.999Z</time></trkpt><trkpt lat="44.50025352772949" lon="8.90175856273091"><ele>117.66666666666667</ele><time>2026-04-28T09:05:10.999Z</time></trkpt><trkpt lat="44.500218812445326" lon="8.901849614918557"><ele>115.33333333333334</ele><time>2026-04-28T09:05:11.999Z</time></trkpt><trkpt lat="44.50019404293288" lon="8.90194339403427"><ele>113.0</ele><time>2026-04-28T09:05:12.999Z</time></trkpt><trkpt lat="44.500181828681754" lon="8.902040269850277"><ele>110.66666666666667</ele><time>2026-04-28T09:05:13.999Z</time></trkpt><trkpt lat="44.500189509223034" lon="8.902141391025818"><ele>108.33333333333334</ele><time>2026-04-28T09:05:14.999Z</time></trkpt><trkpt lat="44.500250177102224" lon="8.90230573494309"><ele>106.0</ele><time>2026-04-28T09:05:16.999Z</time></trkpt><trkpt lat="44.50029958886957" lon="8.902382153696735"><ele>106.00000000000001</ele><time>2026-04-28T09:05:17.999Z</time></trkpt><trkpt lat="44.5003586222922" lon="8.90245314663526"><ele>106.0</ele><time>2026-04-28T09:05:18.999Z</time></trkpt><trkpt lat="44.50041879149811" lon="8.902517701320907"><ele>106.0</ele><time>2026-04-28T09:05:19.999Z</time></trkpt><trkpt lat="44.500465047295506" lon="8.902603287691777"><ele>106.0</ele><time>2026-04-28T09:05:20.999Z</time></trkpt><trkpt lat="44.50052737717517" lon="8.902670659164762"><ele>106.00000000000001</ele><time>2026-04-28T09:05:21.999Z</time></trkpt><trkpt lat="44.50059419871494" lon="8.90275440938678"><ele>106.0</ele><time>2026-04-28T09:05:22.999Z</time></trkpt><trkpt lat="44.50065410092931" lon="8.902834445323018"><ele>106.66666666666667</ele><time>2026-04-28T09:05:23.999Z</time></trkpt><trkpt lat="44.50071165386353" lon="8.902920095139715"><ele>107.33333333333334</ele><time>2026-04-28T09:05:24.999Z</time></trkpt><trkpt lat="44.500751634941864" lon="8.903003231395799"><ele>108.0</ele><time>2026-04-28T09:05:25.999Z</time></trkpt><trkpt lat="44.50084883775168" lon="8.903052233085852"><ele>108.66666666666666</ele><time>2026-04-28T09:05:26.999Z</time></trkpt><trkpt lat="44.5008136756599" lon="8.903185208779307"><ele>109.33333333333333</ele><time>2026-04-28T09:05:27.999Z</time></trkpt><trkpt lat="44.50084048320233" lon="8.903294281434588"><ele>110.0</ele><time>2026-04-28T09:05:28.999Z</time></trkpt><trkpt lat="44.50090498935603" lon="8.903384667810583"><ele>108.66666666666666</ele><time>2026-04-28T09:05:29.999Z</time></trkpt><trkpt lat="44.5009314479877" lon="8.903475787377486"><ele>107.33333333333333</ele><time>2026-04-28T09:05:30.999Z</time></trkpt><trkpt lat="44.50095513089263" lon="8.903577430470568"><ele>106.0</ele><time>2026-04-28T09:05:31.999Z</time></trkpt><trkpt lat="44.50101301765365" lon="8.903680981475098"><ele>104.66666666666666</ele><time>2026-04-28T09:05:33.999Z</time></trkpt><trkpt lat="44.501044679018335" lon="8.903774709053575"><ele>103.33333333333333</ele><time>2026-04-28T09:05:35.999Z</time></trkpt><trkpt lat="44.50107923076051" lon="8.903872762877127"><ele>102.0</ele><time>2026-04-28T09:05:38.999Z</time></trkpt><trkpt lat="44.50105788254894" lon="8.903966204411349"><ele>102.0</ele><time>2026-04-28T09:05:40.999Z</time></trkpt><trkpt lat="44.50106332303933" lon="8.904059528315527"><ele>102.0</ele><time>2026-04-28T09:05:42.999Z</time></trkpt><trkpt lat="44.50103956210414" lon="8.904166832832246"><ele>102.0</ele><time>2026-04-28T09:06:42Z</time></trkpt><trkpt lat="44.50095576817913" lon="8.904176359526442"><ele>102.0</ele><time>2026-04-28T09:07:41.999Z</time></trkpt><trkpt lat="44.5009734245836" lon="8.904277833571207"><ele>102.0</ele><time>2026-04-28T09:08:42Z</time></trkpt><trkpt lat="44.501019813914844" lon="8.904173703262085"><ele>102.0</ele><time>2026-04-28T09:08:58Z</time></trkpt><trkpt lat="44.501027769522246" lon="8.904038902283553"><ele>102.0</ele><time>2026-04-28T09:09:08.999Z</time></trkpt><trkpt lat="44.5010917510935" lon="8.904062417338142"><ele>102.0</ele><time>2026-04-28T09:09:18.999Z</time></trkpt><trkpt lat="44.50111244220088" lon="8.904146361036661"><ele>102.0</ele><time>2026-04-28T09:09:20.999Z</time></trkpt><trkpt lat="44.50115517809011" lon="8.904219893632568"><ele>102.0</ele><time>2026-04-28T09:09:23.999Z</time></trkpt><trkpt lat="44.501211531992276" lon="8.904335096597014"><ele>102.0</ele><time>2026-04-28T09:09:26.999Z</time></trkpt><trkpt lat="44.50122338982335" lon="8.904425575727215"><ele>102.0</ele><time>2026-04-28T09:09:29.999Z</time></trkpt><trkpt lat="44.5012887370994" lon="8.904483285830946"><ele>102.0</ele><time>2026-04-28T09:10:04.999Z</time></trkpt><trkpt lat="44.50130778949352" lon="8.904591085437884"><ele>102.0</ele><time>2026-04-28T09:10:06.999Z</time></trkpt><trkpt lat="44.50124496982036" lon="8.904678034584368"><ele>102.0</ele><time>2026-04-28T09:10:08.999Z</time></trkpt><trkpt lat="44.50114833505179" lon="8.904634320686949"><ele>102.0</ele><time>2026-04-28T09:10:10.999Z</time></trkpt><trkpt lat="44.50108420742598" lon="8.904459843089322"><ele>102.0</ele><time>2026-04-28T09:10:12.999Z</time></trkpt><trkpt lat="44.501030364177225" lon="8.904346951103348"><ele>102.0</ele><time>2026-04-28T09:10:13.999Z</time></trkpt><trkpt lat="44.50098010307691" lon="8.904244969053027"><ele>102.0</ele><time>2026-04-28T09:10:15Z</time></trkpt><trkpt lat="44.50093890783122" lon="8.904165853394993"><ele>102.0</ele><time>2026-04-28T09:10:17Z</time></trkpt><trkpt lat="44.50082915260497" lon="8.9042649197382"><ele>102.0</ele><time>2026-04-28T09:10:20Z</time></trkpt><trkpt lat="44.50074424352765" lon="8.90434920197224"><ele>102.0</ele><time>2026-04-28T09:10:22Z</time></trkpt><trkpt lat="44.50069364654694" lon="8.90442561138456"><ele>102.0</ele><time>2026-04-28T09:10:26Z</time></trkpt><trkpt lat="44.50072845707495" lon="8.9045645332582"><ele>101.6</ele><time>2026-04-28T09:10:27Z</time></trkpt><trkpt lat="44.50083391540272" lon="8.904599414869434"><ele>101.19999999999999</ele><time>2026-04-28T09:10:28Z</time></trkpt><trkpt lat="44.50091736126201" lon="8.9047069124402"><ele>100.8</ele><time>2026-04-28T09:10:30Z</time></trkpt><trkpt lat="44.500969201750436" lon="8.904774046957701"><ele>100.4</ele><time>2026-04-28T09:10:31Z</time></trkpt><trkpt lat="44.50103886700171" lon="8.904863222881586"><ele>100.0</ele><time>2026-04-28T09:10:32Z</time></trkpt><trkpt lat="44.50112439783391" lon="8.90496258499585"><ele>100.0</ele><time>2026-04-28T09:10:33Z</time></trkpt><trkpt lat="44.50124292997077" lon="8.905041851835394"><ele>100.0</ele><time>2026-04-28T09:10:34Z</time></trkpt><trkpt lat="44.501325102433306" lon="8.90515568977994"><ele>100.0</ele><time>2026-04-28T09:10:35Z</time></trkpt><trkpt lat="44.50139569231278" lon="8.90527615446148"><ele>100.0</ele><time>2026-04-28T09:10:36Z</time></trkpt><trkpt lat="44.50144946468339" lon="8.90540302947062"><ele>99.75</ele><time>2026-04-28T09:10:37Z</time></trkpt><trkpt lat="44.501520785649966" lon="8.905524473930072"><ele>99.5</ele><time>2026-04-28T09:10:38Z</time></trkpt><trkpt lat="44.501646902888815" lon="8.9056216673289"><ele>99.25</ele><time>2026-04-28T09:10:39Z</time></trkpt><trkpt lat="44.501773831010965" lon="8.905699032957145"><ele>99.0</ele><time>2026-04-28T09:10:40Z</time></trkpt><trkpt lat="44.50190819658458" lon="8.90579304282941"><ele>99.0</ele><time>2026-04-28T09:10:41Z</time></trkpt><trkpt lat="44.50204047758198" lon="8.905887973183486"><ele>99.0</ele><time>2026-04-28T09:10:42Z</time></trkpt><trkpt lat="44.50215946200081" lon="8.905978022609634"><ele>99.0</ele><time>2026-04-28T09:10:43Z</time></trkpt><trkpt lat="44.50226756370576" lon="8.906058478326562"><ele>99.0</ele><time>2026-04-28T09:10:44Z</time></trkpt><trkpt lat="44.50236698343696" lon="8.906135764036073"><ele>99.4</ele><time>2026-04-28T09:10:45Z</time></trkpt><trkpt lat="44.50246682864495" lon="8.906186174119856"><ele>99.80000000000001</ele><time>2026-04-28T09:10:46Z</time></trkpt><trkpt lat="44.50256570060361" lon="8.90619511123008"><ele>100.19999999999999</ele><time>2026-04-28T09:10:47Z</time></trkpt><trkpt lat="44.50266324388104" lon="8.906145862840347"><ele>100.6</ele><time>2026-04-28T09:10:48Z</time></trkpt><trkpt lat="44.502767037055555" lon="8.906068906792243"><ele>101.0</ele><time>2026-04-28T09:10:49Z</time></trkpt><trkpt lat="44.502896725712674" lon="8.90599715864943"><ele>101.25</ele><time>2026-04-28T09:10:50Z</time></trkpt><trkpt lat="44.50302645742976" lon="8.905976444348967"><ele>101.5</ele><time>2026-04-28T09:10:51Z</time></trkpt><trkpt lat="44.503169981497884" lon="8.905989810682978"><ele>101.75</ele><time>2026-04-28T09:10:52Z</time></trkpt><trkpt lat="44.50331158954003" lon="8.906064717005425"><ele>102.0</ele><time>2026-04-28T09:10:53Z</time></trkpt><trkpt lat="44.503446058593155" lon="8.906136886375247"><ele>102.0</ele><time>2026-04-28T09:10:54Z</time></trkpt><trkpt lat="44.50355391127318" lon="8.906233866668275"><ele>102.0</ele><time>2026-04-28T09:10:55Z</time></trkpt><trkpt lat="44.50363696738072" lon="8.906336728835758"><ele>102.0</ele><time>2026-04-28T09:10:56Z</time></trkpt><trkpt lat="44.50373467731985" lon="8.90645430723326"><ele>102.0</ele><time>2026-04-28T09:10:57Z</time></trkpt><trkpt lat="44.50379942604295" lon="8.906624276956357"><ele>102.25</ele><time>2026-04-28T09:10:58Z</time></trkpt><trkpt lat="44.50388834211733" lon="8.906773738326486"><ele>102.5</ele><time>2026-04-28T09:10:59Z</time></trkpt><trkpt lat="44.503978960431795" lon="8.906915465218578"><ele>102.75</ele><time>2026-04-28T09:11:00Z</time></trkpt><trkpt lat="44.504074515305135" lon="8.907037362413396"><ele>103.0</ele><time>2026-04-28T09:11:01Z</time></trkpt><trkpt lat="44.50417320953071" lon="8.907152518904658"><ele>103.0</ele><time>2026-04-28T09:11:01.999Z</time></trkpt><trkpt lat="44.50427051578208" lon="8.90724635873606"><ele>103.0</ele><time>2026-04-28T09:11:02.999Z</time></trkpt><trkpt lat="44.504378285434036" lon="8.907345026948128"><ele>103.0</ele><time>2026-04-28T09:11:03.999Z</time></trkpt><trkpt lat="44.50449044822182" lon="8.907444680678104"><ele>103.0</ele><time>2026-04-28T09:11:04.999Z</time></trkpt><trkpt lat="44.50459541384389" lon="8.907537134781988"><ele>104.0</ele><time>2026-04-28T09:11:05.999Z</time></trkpt><trkpt lat="44.50469573657233" lon="8.907643497445655"><ele>105.0</ele><time>2026-04-28T09:11:06.999Z</time></trkpt><trkpt lat="44.50481130476447" lon="8.907752708497267"><ele>106.0</ele><time>2026-04-28T09:11:07.999Z</time></trkpt><trkpt lat="44.5049328193529" lon="8.90785813392321"><ele>107.0</ele><time>2026-04-28T09:11:08.999Z</time></trkpt><trkpt lat="44.50505956269545" lon="8.907952395260445"><ele>107.0</ele><time>2026-04-28T09:11:09.999Z</time></trkpt><trkpt lat="44.50518028465851" lon="8.908061934430522"><ele>107.0</ele><time>2026-04-28T09:11:10.999Z</time></trkpt><trkpt lat="44.50530331948941" lon="8.908167095017816"><ele>107.0</ele><time>2026-04-28T09:11:11.999Z</time></trkpt><trkpt lat="44.50542541503382" lon="8.908271832057055"><ele>107.0</ele><time>2026-04-28T09:11:12.999Z</time></trkpt><trkpt lat="44.50555041008848" lon="8.908380316729296"><ele>107.25</ele><time>2026-04-28T09:11:13.999Z</time></trkpt><trkpt lat="44.50567387150864" lon="8.90849207049873"><ele>107.5</ele><time>2026-04-28T09:11:14.999Z</time></trkpt><trkpt lat="44.505798215285466" lon="8.908607089952215"><ele>107.75</ele><time>2026-04-28T09:11:15.999Z</time></trkpt><trkpt lat="44.50592193436647" lon="8.908726980961779"><ele>108.0</ele><time>2026-04-28T09:11:16.999Z</time></trkpt><trkpt lat="44.5060612280466" lon="8.908831425353464"><ele>108.0</ele><time>2026-04-28T09:11:17.999Z</time></trkpt><trkpt lat="44.50619191456136" lon="8.908917670436834"><ele>108.0</ele><time>2026-04-28T09:11:18.999Z</time></trkpt><trkpt lat="44.506333344775335" lon="8.908965315066176"><ele>108.0</ele><time>2026-04-28T09:11:19.999Z</time></trkpt><trkpt lat="44.50648576509805" lon="8.909005979025896"><ele>108.0</ele><time>2026-04-28T09:11:20.999Z</time></trkpt><trkpt lat="44.506652123717465" lon="8.909069301761138"><ele>108.0</ele><time>2026-04-28T09:11:21.999Z</time></trkpt><trkpt lat="44.5067922233216" lon="8.909144367486196"><ele>108.0</ele><time>2026-04-28T09:11:22.999Z</time></trkpt><trkpt lat="44.50692244631263" lon="8.909226887125968"><ele>108.0</ele><time>2026-04-28T09:11:23.999Z</time></trkpt><trkpt lat="44.507045991652326" lon="8.909307204903353"><ele>108.0</ele><time>2026-04-28T09:11:24.999Z</time></trkpt><trkpt lat="44.507158628836336" lon="8.909391181058723"><ele>108.75</ele><time>2026-04-28T09:11:25.999Z</time></trkpt><trkpt lat="44.507271589721064" lon="8.90948448288427"><ele>109.5</ele><time>2026-04-28T09:11:26.999Z</time></trkpt><trkpt lat="44.50738563335181" lon="8.9095847386617"><ele>110.25</ele><time>2026-04-28T09:11:27.999Z</time></trkpt><trkpt lat="44.507484984916076" lon="8.90969546320119"><ele>111.0</ele><time>2026-04-28T09:11:28.999Z</time></trkpt><trkpt lat="44.50756465423443" lon="8.90980533550744"><ele>111.0</ele><time>2026-04-28T09:11:29.999Z</time></trkpt><trkpt lat="44.50763127756642" lon="8.909939098799857"><ele>111.0</ele><time>2026-04-28T09:11:30.999Z</time></trkpt><trkpt lat="44.50769274152222" lon="8.910087281900536"><ele>111.0</ele><time>2026-04-28T09:11:31.999Z</time></trkpt><trkpt lat="44.50774367133238" lon="8.910250352133858"><ele>111.0</ele><time>2026-04-28T09:11:32.999Z</time></trkpt><trkpt lat="44.507787370793075" lon="8.910418357352725"><ele>111.0</ele><time>2026-04-28T09:11:33.999Z</time></trkpt><trkpt lat="44.50783550366749" lon="8.910589804706452"><ele>111.0</ele><time>2026-04-28T09:11:34.999Z</time></trkpt><trkpt lat="44.507893119993355" lon="8.910766967797686"><ele>111.0</ele><time>2026-04-28T09:11:35.999Z</time></trkpt><trkpt lat="44.50794115581187" lon="8.910949812879641"><ele>111.0</ele><time>2026-04-28T09:11:36.999Z</time></trkpt><trkpt lat="44.507979880098546" lon="8.911112193273297"><ele>112.5</ele><time>2026-04-28T09:11:37.999Z</time></trkpt><trkpt lat="44.5080087852941" lon="8.911277614397024"><ele>114.0</ele><time>2026-04-28T09:11:38.999Z</time></trkpt><trkpt lat="44.50809857506143" lon="8.911419188705825"><ele>115.5</ele><time>2026-04-28T09:11:39.999Z</time></trkpt><trkpt lat="44.508143426928484" lon="8.911563701478158"><ele>117.0</ele><time>2026-04-28T09:11:40.999Z</time></trkpt><trkpt lat="44.50816471989953" lon="8.911709361928425"><ele>117.0</ele><time>2026-04-28T09:11:41.999Z</time></trkpt><trkpt lat="44.50820607162483" lon="8.911835463814674"><ele>116.99999999999999</ele><time>2026-04-28T09:11:42.999Z</time></trkpt><trkpt lat="44.508221111749954" lon="8.911948496436782"><ele>116.99999999999999</ele><time>2026-04-28T09:11:43.999Z</time></trkpt><trkpt lat="44.508259902191476" lon="8.912072330010364"><ele>117.0</ele><time>2026-04-28T09:11:44.999Z</time></trkpt><trkpt lat="44.50831276533094" lon="8.91219743450195"><ele>117.0</ele><time>2026-04-28T09:11:45.999Z</time></trkpt><trkpt lat="44.50836280221495" lon="8.912361757384813"><ele>117.0</ele><time>2026-04-28T09:11:46.999Z</time></trkpt><trkpt lat="44.5084041701711" lon="8.912496425574346"><ele>116.99999999999999</ele><time>2026-04-28T09:11:47.999Z</time></trkpt><trkpt lat="44.50845983935993" lon="8.912615459119243"><ele>116.99999999999999</ele><time>2026-04-28T09:11:48.999Z</time></trkpt><trkpt lat="44.50853136148284" lon="8.912717752147556"><ele>117.0</ele><time>2026-04-28T09:11:49.999Z</time></trkpt><trkpt lat="44.50860636258995" lon="8.912795237408837"><ele>117.0</ele><time>2026-04-28T09:11:50.999Z</time></trkpt><trkpt lat="44.508684434282365" lon="8.912832759344822"><ele>117.16666666666667</ele><time>2026-04-28T09:11:51.999Z</time></trkpt><trkpt lat="44.50876050553144" lon="8.912849183970648"><ele>117.33333333333334</ele><time>2026-04-28T09:11:52.999Z</time></trkpt><trkpt lat="44.50883242094738" lon="8.912840791529781"><ele>117.5</ele><time>2026-04-28T09:11:53.999Z</time></trkpt><trkpt lat="44.50892301325292" lon="8.9128287926956"><ele>117.66666666666667</ele><time>2026-04-28T09:11:54.999Z</time></trkpt><trkpt lat="44.509002839387534" lon="8.912792365455534"><ele>117.83333333333334</ele><time>2026-04-28T09:11:55.999Z</time></trkpt><trkpt lat="44.509078491683084" lon="8.912746802001632"><ele>118.0</ele><time>2026-04-28T09:11:56.999Z</time></trkpt><trkpt lat="44.509172895876844" lon="8.912704724948261"><ele>118.0</ele><time>2026-04-28T09:11:57.999Z</time></trkpt><trkpt lat="44.50927036780106" lon="8.912650804362062"><ele>118.0</ele><time>2026-04-28T09:11:58.999Z</time></trkpt><trkpt lat="44.50937884344057" lon="8.912592515104368"><ele>118.0</ele><time>2026-04-28T09:11:59.999Z</time></trkpt><trkpt lat="44.509494386982155" lon="8.912533780178743"><ele>118.0</ele><time>2026-04-28T09:12:00.999Z</time></trkpt><trkpt lat="44.50959884786751" lon="8.91247898775093"><ele>119.0</ele><time>2026-04-28T09:12:01.999Z</time></trkpt><trkpt lat="44.509692781837195" lon="8.912427751497269"><ele>120.00000000000001</ele><time>2026-04-28T09:12:02.999Z</time></trkpt><trkpt lat="44.509790985859574" lon="8.912389353943778"><ele>121.00000000000001</ele><time>2026-04-28T09:12:03.999Z</time></trkpt><trkpt lat="44.50987784492646" lon="8.91234828561075"><ele>122.0</ele><time>2026-04-28T09:12:04.999Z</time></trkpt><trkpt lat="44.5099731080101" lon="8.912310131603729"><ele>123.0</ele><time>2026-04-28T09:12:05.999Z</time></trkpt><trkpt lat="44.5100717459013" lon="8.9122840802791"><ele>123.0</ele><time>2026-04-28T09:12:06.999Z</time></trkpt><trkpt lat="44.51017942471347" lon="8.912268578619482"><ele>123.00000000000001</ele><time>2026-04-28T09:12:07.999Z</time></trkpt><trkpt lat="44.51028682904477" lon="8.912255083426032"><ele>123.00000000000001</ele><time>2026-04-28T09:12:08.999Z</time></trkpt><trkpt lat="44.510399230938525" lon="8.912258274556612"><ele>123.0</ele><time>2026-04-28T09:12:09.999Z</time></trkpt><trkpt lat="44.51051757020177" lon="8.91228275252372"><ele>123.0</ele><time>2026-04-28T09:12:10.999Z</time></trkpt><trkpt lat="44.51063308260277" lon="8.912297065635347"><ele>123.0</ele><time>2026-04-28T09:12:11.999Z</time></trkpt><trkpt lat="44.510762835311205" lon="8.912311846557362"><ele>123.0</ele><time>2026-04-28T09:12:12.999Z</time></trkpt><trkpt lat="44.51087609815616" lon="8.912344629068487"><ele>123.0</ele><time>2026-04-28T09:12:13.999Z</time></trkpt><trkpt lat="44.51098471401253" lon="8.912382852648314"><ele>123.0</ele><time>2026-04-28T09:12:14.999Z</time></trkpt><trkpt lat="44.51108805367606" lon="8.912447140869602"><ele>123.0</ele><time>2026-04-28T09:12:15.999Z</time></trkpt><trkpt lat="44.511190645183014" lon="8.912527752854244"><ele>123.0</ele><time>2026-04-28T09:12:16.999Z</time></trkpt><trkpt lat="44.511291214988724" lon="8.912636783268404"><ele>123.0</ele><time>2026-04-28T09:12:17.999Z</time></trkpt><trkpt lat="44.51139209158578" lon="8.912757866700852"><ele>123.0</ele><time>2026-04-28T09:12:18.999Z</time></trkpt><trkpt lat="44.511494397850875" lon="8.912870783057347"><ele>123.5</ele><time>2026-04-28T09:12:19.999Z</time></trkpt><trkpt lat="44.51161034496114" lon="8.91295337045616"><ele>124.0</ele><time>2026-04-28T09:12:21Z</time></trkpt><trkpt lat="44.511714178027475" lon="8.91305056229319"><ele>124.5</ele><time>2026-04-28T09:12:22Z</time></trkpt><trkpt lat="44.5118263596928" lon="8.913148771419774"><ele>125.0</ele><time>2026-04-28T09:12:23Z</time></trkpt><trkpt lat="44.51194127360887" lon="8.913241709297242"><ele>125.0</ele><time>2026-04-28T09:12:24Z</time></trkpt><trkpt lat="44.51205132917798" lon="8.913338597575217"><ele>125.0</ele><time>2026-04-28T09:12:25Z</time></trkpt><trkpt lat="44.51216341587052" lon="8.913435319486075"><ele>125.0</ele><time>2026-04-28T09:12:26Z</time></trkpt><trkpt lat="44.512267918483964" lon="8.913537933761178"><ele>125.0</ele><time>2026-04-28T09:12:27Z</time></trkpt><trkpt lat="44.512374109720014" lon="8.913637722960265"><ele>124.25</ele><time>2026-04-28T09:12:28Z</time></trkpt><trkpt lat="44.51247935811901" lon="8.91373099307353"><ele>123.5</ele><time>2026-04-28T09:12:29Z</time></trkpt><trkpt lat="44.51258370244177" lon="8.913820117912449"><ele>122.75</ele><time>2026-04-28T09:12:30Z</time></trkpt><trkpt lat="44.51268512115979" lon="8.913911986506795"><ele>122.0</ele><time>2026-04-28T09:12:31Z</time></trkpt><trkpt lat="44.512788129425495" lon="8.914001848047732"><ele>122.0</ele><time>2026-04-28T09:12:32Z</time></trkpt><trkpt lat="44.51288948583985" lon="8.914102834282907"><ele>122.0</ele><time>2026-04-28T09:12:33Z</time></trkpt><trkpt lat="44.512993692858544" lon="8.914198785709262"><ele>122.0</ele><time>2026-04-28T09:12:34Z</time></trkpt><trkpt lat="44.51309860329031" lon="8.91428700235281"><ele>122.0</ele><time>2026-04-28T09:12:35Z</time></trkpt><trkpt lat="44.513205577435635" lon="8.914362140819906"><ele>122.0</ele><time>2026-04-28T09:12:36Z</time></trkpt><trkpt lat="44.513312227609084" lon="8.914415701583357"><ele>121.99999999999999</ele><time>2026-04-28T09:12:37Z</time></trkpt><trkpt lat="44.51342014335444" lon="8.914445153815636"><ele>121.99999999999999</ele><time>2026-04-28T09:12:38Z</time></trkpt><trkpt lat="44.513527603506105" lon="8.914452068629354"><ele>122.0</ele><time>2026-04-28T09:12:39Z</time></trkpt><trkpt lat="44.513627414967154" lon="8.914452297999155"><ele>122.0</ele><time>2026-04-28T09:12:40Z</time></trkpt><trkpt lat="44.51372521936955" lon="8.91444499407969"><ele>123.5</ele><time>2026-04-28T09:12:41Z</time></trkpt><trkpt lat="44.51383300204485" lon="8.914441770711095"><ele>125.0</ele><time>2026-04-28T09:12:42Z</time></trkpt><trkpt lat="44.51396116920992" lon="8.914428423678975"><ele>126.5</ele><time>2026-04-28T09:12:43Z</time></trkpt><trkpt lat="44.514097516985345" lon="8.914414762784837"><ele>128.0</ele><time>2026-04-28T09:12:44Z</time></trkpt><trkpt lat="44.514209292372726" lon="8.914392263499735"><ele>128.0</ele><time>2026-04-28T09:12:45Z</time></trkpt><trkpt lat="44.514324527857426" lon="8.914365716766728"><ele>128.0</ele><time>2026-04-28T09:12:46Z</time></trkpt><trkpt lat="44.514425633896415" lon="8.914329899552603"><ele>128.0</ele><time>2026-04-28T09:12:47Z</time></trkpt><trkpt lat="44.51454752901816" lon="8.91426066116719"><ele>128.0</ele><time>2026-04-28T09:12:48Z</time></trkpt><trkpt lat="44.51467786860137" lon="8.914204380094445"><ele>127.75</ele><time>2026-04-28T09:12:49Z</time></trkpt><trkpt lat="44.514792330809314" lon="8.914140033205959"><ele>127.5</ele><time>2026-04-28T09:12:50Z</time></trkpt><trkpt lat="44.514908172974025" lon="8.91407475938275"><ele>127.25</ele><time>2026-04-28T09:12:51Z</time></trkpt><trkpt lat="44.51502294331602" lon="8.91401201206016"><ele>127.0</ele><time>2026-04-28T09:12:52Z</time></trkpt><trkpt lat="44.515133601174064" lon="8.913947041932023"><ele>127.0</ele><time>2026-04-28T09:12:53Z</time></trkpt><trkpt lat="44.515241233682744" lon="8.913877443430692"><ele>127.0</ele><time>2026-04-28T09:12:54Z</time></trkpt><trkpt lat="44.51535572781801" lon="8.913809927063001"><ele>127.0</ele><time>2026-04-28T09:12:55Z</time></trkpt><trkpt lat="44.5154935709587" lon="8.91372961193931"><ele>127.0</ele><time>2026-04-28T09:12:56Z</time></trkpt><trkpt lat="44.515627988166074" lon="8.913646520833323"><ele>128.0</ele><time>2026-04-28T09:12:57Z</time></trkpt><trkpt lat="44.51574192525916" lon="8.913585056529609"><ele>129.0</ele><time>2026-04-28T09:12:58Z</time></trkpt><trkpt lat="44.51585030303683" lon="8.913518466824755"><ele>130.0</ele><time>2026-04-28T09:12:59Z</time></trkpt><trkpt lat="44.51595412310171" lon="8.91345651280844"><ele>131.0</ele><time>2026-04-28T09:13:00Z</time></trkpt><trkpt lat="44.5160513433478" lon="8.913405183217597"><ele>132.4</ele><time>2026-04-28T09:13:01Z</time></trkpt><trkpt lat="44.5161410887154" lon="8.913351401062384"><ele>133.8</ele><time>2026-04-28T09:13:02Z</time></trkpt><trkpt lat="44.51622826653099" lon="8.9132966755822"><ele>135.20000000000002</ele><time>2026-04-28T09:13:03Z</time></trkpt><trkpt lat="44.51631382509898" lon="8.913227680418967"><ele>136.6</ele><time>2026-04-28T09:13:04Z</time></trkpt><trkpt lat="44.51638963263127" lon="8.913137568857982"><ele>138.0</ele><time>2026-04-28T09:13:05Z</time></trkpt><trkpt lat="44.51645866025672" lon="8.913044546099085"><ele>138.0</ele><time>2026-04-28T09:13:06Z</time></trkpt><trkpt lat="44.516520019399806" lon="8.912950625653984"><ele>138.0</ele><time>2026-04-28T09:13:07Z</time></trkpt><trkpt lat="44.51659204680553" lon="8.912870996008946"><ele>138.0</ele><time>2026-04-28T09:13:08Z</time></trkpt><trkpt lat="44.5166534321871" lon="8.912762846767333"><ele>138.0</ele><time>2026-04-28T09:13:09Z</time></trkpt><trkpt lat="44.51674366335362" lon="8.912676086800866"><ele>138.0</ele><time>2026-04-28T09:13:10Z</time></trkpt><trkpt lat="44.51683984454879" lon="8.912621311713588"><ele>138.0</ele><time>2026-04-28T09:13:11Z</time></trkpt><trkpt lat="44.51693813408763" lon="8.912593312300563"><ele>138.0</ele><time>2026-04-28T09:13:12Z</time></trkpt><trkpt lat="44.51703961794971" lon="8.912589557143239"><ele>138.0</ele><time>2026-04-28T09:13:12.999Z</time></trkpt><trkpt lat="44.51714917154358" lon="8.912613790562457"><ele>138.0</ele><time>2026-04-28T09:13:13.999Z</time></trkpt><trkpt lat="44.51725755496134" lon="8.912648658888045"><ele>138.0</ele><time>2026-04-28T09:13:14.999Z</time></trkpt><trkpt lat="44.51735583100103" lon="8.91270027836596"><ele>137.4</ele><time>2026-04-28T09:13:15.999Z</time></trkpt><trkpt lat="44.51743690276518" lon="8.912741894756067"><ele>136.8</ele><time>2026-04-28T09:13:16.999Z</time></trkpt><trkpt lat="44.51750723235398" lon="8.912787202690685"><ele>136.2</ele><time>2026-04-28T09:13:17.999Z</time></trkpt><trkpt lat="44.51758092229402" lon="8.912830619953123"><ele>135.6</ele><time>2026-04-28T09:13:18.999Z</time></trkpt><trkpt lat="44.51767414691131" lon="8.912889028525438"><ele>135.0</ele><time>2026-04-28T09:13:19.999Z</time></trkpt><trkpt lat="44.517760313814655" lon="8.913005175954233"><ele>135.0</ele><time>2026-04-28T09:13:20.999Z</time></trkpt><trkpt lat="44.517839306400454" lon="8.913157043611085"><ele>135.0</ele><time>2026-04-28T09:13:21.999Z</time></trkpt><trkpt lat="44.517920801507394" lon="8.913316547209767"><ele>135.0</ele><time>2026-04-28T09:13:22.999Z</time></trkpt><trkpt lat="44.518015838929074" lon="8.913464180154126"><ele>135.0</ele><time>2026-04-28T09:13:23.999Z</time></trkpt><trkpt lat="44.51810387404856" lon="8.913580258159445"><ele>135.6</ele><time>2026-04-28T09:13:24.999Z</time></trkpt><trkpt lat="44.518190130204914" lon="8.913664439545693"><ele>136.2</ele><time>2026-04-28T09:13:25.999Z</time></trkpt><trkpt lat="44.51827756279692" lon="8.913748731774017"><ele>136.8</ele><time>2026-04-28T09:13:26.999Z</time></trkpt><trkpt lat="44.51836447467633" lon="8.913867041175083"><ele>137.4</ele><time>2026-04-28T09:13:27.999Z</time></trkpt><trkpt lat="44.51843783224193" lon="8.91397962441101"><ele>138.0</ele><time>2026-04-28T09:13:28.999Z</time></trkpt><trkpt lat="44.518496001647804" lon="8.914103778956548"><ele>139.20000000000002</ele><time>2026-04-28T09:13:29.999Z</time></trkpt><trkpt lat="44.518542295521975" lon="8.91425201989539"><ele>140.4</ele><time>2026-04-28T09:13:30.999Z</time></trkpt><trkpt lat="44.51856860648507" lon="8.914403315574233"><ele>141.60000000000002</ele><time>2026-04-28T09:13:31.999Z</time></trkpt><trkpt lat="44.51860299803537" lon="8.914548592275958"><ele>142.8</ele><time>2026-04-28T09:13:32.999Z</time></trkpt><trkpt lat="44.51862706830215" lon="8.91469584553119"><ele>144.0</ele><time>2026-04-28T09:13:33.999Z</time></trkpt><trkpt lat="44.51866488069698" lon="8.91484481334917"><ele>144.0</ele><time>2026-04-28T09:13:34.999Z</time></trkpt><trkpt lat="44.51870287964099" lon="8.914999763226424"><ele>144.0</ele><time>2026-04-28T09:13:35.999Z</time></trkpt><trkpt lat="44.51873967609566" lon="8.915153204903993"><ele>144.0</ele><time>2026-04-28T09:13:36.999Z</time></trkpt><trkpt lat="44.518775885659004" lon="8.915310968499952"><ele>144.0</ele><time>2026-04-28T09:13:37.999Z</time></trkpt><trkpt lat="44.518806082033024" lon="8.915472131607839"><ele>147.5</ele><time>2026-04-28T09:13:38.999Z</time></trkpt><trkpt lat="44.51883802291767" lon="8.915632652851352"><ele>151.0</ele><time>2026-04-28T09:13:39.999Z</time></trkpt><trkpt lat="44.51885039850668" lon="8.91579372767308"><ele>154.5</ele><time>2026-04-28T09:13:40.999Z</time></trkpt><trkpt lat="44.518830271042475" lon="8.915948979811628"><ele>158.0</ele><time>2026-04-28T09:13:41.999Z</time></trkpt><trkpt lat="44.5188033163782" lon="8.916090109220155"><ele>158.0</ele><time>2026-04-28T09:13:42.999Z</time></trkpt><trkpt lat="44.51877945000998" lon="8.916228071033428"><ele>158.0</ele><time>2026-04-28T09:13:43.999Z</time></trkpt><trkpt lat="44.51876109458738" lon="8.91635657625345"><ele>158.0</ele><time>2026-04-28T09:13:44.999Z</time></trkpt><trkpt lat="44.51876721889234" lon="8.916488088773862"><ele>158.0</ele><time>2026-04-28T09:13:45.999Z</time></trkpt><trkpt lat="44.518785471124104" lon="8.916641285209465"><ele>158.0</ele><time>2026-04-28T09:13:46.999Z</time></trkpt><trkpt lat="44.51880691780334" lon="8.916790926632679"><ele>155.4</ele><time>2026-04-28T09:13:47.999Z</time></trkpt><trkpt lat="44.518827690545514" lon="8.916934763798265"><ele>152.8</ele><time>2026-04-28T09:13:48.999Z</time></trkpt><trkpt lat="44.51886514452776" lon="8.91705361116571"><ele>150.2</ele><time>2026-04-28T09:13:49.999Z</time></trkpt><trkpt lat="44.51892839622885" lon="8.917177341736396"><ele>147.6</ele><time>2026-04-28T09:13:50.999Z</time></trkpt><trkpt lat="44.51903185173578" lon="8.917307705089913"><ele>145.0</ele><time>2026-04-28T09:13:51.999Z</time></trkpt><trkpt lat="44.51913941776205" lon="8.917487079677631"><ele>144.25</ele><time>2026-04-28T09:13:52.999Z</time></trkpt><trkpt lat="44.519252141314155" lon="8.917621981220453"><ele>143.5</ele><time>2026-04-28T09:13:53.999Z</time></trkpt><trkpt lat="44.51932932797041" lon="8.917754615002533"><ele>142.75</ele><time>2026-04-28T09:13:54.999Z</time></trkpt><trkpt lat="44.519430474275076" lon="8.917840421806943"><ele>142.0</ele><time>2026-04-28T09:13:55.999Z</time></trkpt><trkpt lat="44.519544309759155" lon="8.91786702328547"><ele>143.0</ele><time>2026-04-28T09:13:56.999Z</time></trkpt><trkpt lat="44.51967178327572" lon="8.917840343772557"><ele>144.0</ele><time>2026-04-28T09:13:57.999Z</time></trkpt><trkpt lat="44.51981446823162" lon="8.917805803943036"><ele>145.0</ele><time>2026-04-28T09:13:58.999Z</time></trkpt><trkpt lat="44.51994512595064" lon="8.917731166922282"><ele>146.0</ele><time>2026-04-28T09:13:59.999Z</time></trkpt><trkpt lat="44.52001713469935" lon="8.917573680472676"><ele>148.66666666666666</ele><time>2026-04-28T09:14:00.999Z</time></trkpt><trkpt lat="44.520093650772615" lon="8.917406153311635"><ele>151.33333333333334</ele><time>2026-04-28T09:14:01.999Z</time></trkpt><trkpt lat="44.52016068792605" lon="8.91720669309178"><ele>154.0</ele><time>2026-04-28T09:14:02.999Z</time></trkpt><trkpt lat="44.52025001078202" lon="8.91695052348892"><ele>154.0</ele><time>2026-04-28T09:14:03.999Z</time></trkpt><trkpt lat="44.52035473994854" lon="8.91668890632481"><ele>154.0</ele><time>2026-04-28T09:14:04.999Z</time></trkpt><trkpt lat="44.52044304388934" lon="8.916467091853228"><ele>154.0</ele><time>2026-04-28T09:14:05.999Z</time></trkpt><trkpt lat="44.52053593524131" lon="8.916262441832421"><ele>154.0</ele><time>2026-04-28T09:14:06.999Z</time></trkpt><trkpt lat="44.52065731862394" lon="8.91607922849421"><ele>154.0</ele><time>2026-04-28T09:14:07.999Z</time></trkpt><trkpt lat="44.520811295066444" lon="8.915903242638542"><ele>154.0</ele><time>2026-04-28T09:14:08.999Z</time></trkpt><trkpt lat="44.52097701217283" lon="8.91571356121976"><ele>155.33333333333334</ele><time>2026-04-28T09:14:09.999Z</time></trkpt><trkpt lat="44.52112921783655" lon="8.915530142919916"><ele>156.66666666666666</ele><time>2026-04-28T09:14:10.999Z</time></trkpt><trkpt lat="44.52127348407567" lon="8.915362462907554"><ele>158.0</ele><time>2026-04-28T09:14:11.999Z</time></trkpt><trkpt lat="44.52141683128304" lon="8.915205474819745"><ele>157.0</ele><time>2026-04-28T09:14:12.999Z</time></trkpt><trkpt lat="44.52155207519941" lon="8.915060588956585"><ele>156.0</ele><time>2026-04-28T09:14:13.999Z</time></trkpt><trkpt lat="44.521672910916976" lon="8.914921390623807"><ele>155.0</ele><time>2026-04-28T09:14:14.999Z</time></trkpt><trkpt lat="44.52176819573015" lon="8.914798205346589"><ele>155.0</ele><time>2026-04-28T09:14:15.999Z</time></trkpt><trkpt lat="44.52183450908708" lon="8.914658363875837"><ele>155.0</ele><time>2026-04-28T09:14:16.999Z</time></trkpt><trkpt lat="44.52188150438052" lon="8.914490606120303"><ele>155.0</ele><time>2026-04-28T09:14:17.999Z</time></trkpt><trkpt lat="44.521936406403434" lon="8.914310208634374"><ele>155.0</ele><time>2026-04-28T09:14:18.999Z</time></trkpt><trkpt lat="44.52199591235484" lon="8.914119247679631"><ele>154.5</ele><time>2026-04-28T09:14:19.999Z</time></trkpt><trkpt lat="44.52206074136996" lon="8.91393238146036"><ele>154.0</ele><time>2026-04-28T09:14:20.999Z</time></trkpt><trkpt lat="44.522139655215" lon="8.913773737281895"><ele>153.5</ele><time>2026-04-28T09:14:21.999Z</time></trkpt><trkpt lat="44.52223017723809" lon="8.91363459697207"><ele>153.0</ele><time>2026-04-28T09:14:22.999Z</time></trkpt><trkpt lat="44.5223168759091" lon="8.913508916579113"><ele>153.75</ele><time>2026-04-28T09:14:23.999Z</time></trkpt><trkpt lat="44.522410217471794" lon="8.913402882121941"><ele>154.5</ele><time>2026-04-28T09:14:24.999Z</time></trkpt><trkpt lat="44.52252815345117" lon="8.913335830026183"><ele>155.25</ele><time>2026-04-28T09:14:25.999Z</time></trkpt><trkpt lat="44.52266177761815" lon="8.913301043960566"><ele>156.0</ele><time>2026-04-28T09:14:27Z</time></trkpt><trkpt lat="44.522800037377266" lon="8.913306924956318"><ele>155.75</ele><time>2026-04-28T09:14:28Z</time></trkpt><trkpt lat="44.522934314176176" lon="8.913344309618628"><ele>155.5</ele><time>2026-04-28T09:14:29Z</time></trkpt><trkpt lat="44.523077539515384" lon="8.91337884839398"><ele>155.25</ele><time>2026-04-28T09:14:30Z</time></trkpt><trkpt lat="44.52321593956124" lon="8.913418546677814"><ele>155.0</ele><time>2026-04-28T09:14:31Z</time></trkpt><trkpt lat="44.52334905480025" lon="8.913452961225612"><ele>154.75</ele><time>2026-04-28T09:14:32Z</time></trkpt><trkpt lat="44.52348646956877" lon="8.913490254810373"><ele>154.5</ele><time>2026-04-28T09:14:33Z</time></trkpt><trkpt lat="44.523627065057084" lon="8.913526238408034"><ele>154.25</ele><time>2026-04-28T09:14:34Z</time></trkpt><trkpt lat="44.523760776625124" lon="8.913570988409884"><ele>154.0</ele><time>2026-04-28T09:14:35Z</time></trkpt><trkpt lat="44.523905012427484" lon="8.913608421936965"><ele>156.0</ele><time>2026-04-28T09:14:36Z</time></trkpt><trkpt lat="44.52403613758815" lon="8.913651939154793"><ele>158.0</ele><time>2026-04-28T09:14:37Z</time></trkpt><trkpt lat="44.52416679815331" lon="8.91369843736277"><ele>160.0</ele><time>2026-04-28T09:14:38Z</time></trkpt><trkpt lat="44.52429951869884" lon="8.91376346243963"><ele>162.0</ele><time>2026-04-28T09:14:39Z</time></trkpt><trkpt lat="44.524421240576714" lon="8.913846365461229"><ele>162.0</ele><time>2026-04-28T09:14:40Z</time></trkpt><trkpt lat="44.52453578627518" lon="8.913908176746093"><ele>162.0</ele><time>2026-04-28T09:14:41Z</time></trkpt><trkpt lat="44.52465739927733" lon="8.913940076385204"><ele>162.0</ele><time>2026-04-28T09:14:42Z</time></trkpt><trkpt lat="44.52477549601248" lon="8.913913812108742"><ele>162.0</ele><time>2026-04-28T09:14:43Z</time></trkpt><trkpt lat="44.52488744481803" lon="8.913861197443527"><ele>161.5</ele><time>2026-04-28T09:14:44Z</time></trkpt><trkpt lat="44.52501615520257" lon="8.913804320463033"><ele>161.0</ele><time>2026-04-28T09:14:45Z</time></trkpt><trkpt lat="44.525146576615" lon="8.913739583923817"><ele>160.5</ele><time>2026-04-28T09:14:46Z</time></trkpt><trkpt lat="44.52526911061736" lon="8.913689175506065"><ele>160.0</ele><time>2026-04-28T09:14:47Z</time></trkpt><trkpt lat="44.525388245548704" lon="8.913642056168795"><ele>160.5</ele><time>2026-04-28T09:14:48Z</time></trkpt><trkpt lat="44.52550496472465" lon="8.913617271007311"><ele>161.0</ele><time>2026-04-28T09:14:49Z</time></trkpt><trkpt lat="44.52561508238296" lon="8.9136052968366"><ele>161.5</ele><time>2026-04-28T09:14:50Z</time></trkpt><trkpt lat="44.525727676721644" lon="8.91363204654183"><ele>162.0</ele><time>2026-04-28T09:14:51Z</time></trkpt><trkpt lat="44.52584468786257" lon="8.913694847860214"><ele>162.0</ele><time>2026-04-28T09:14:52Z</time></trkpt><trkpt lat="44.52596674107026" lon="8.913749811653396"><ele>162.0</ele><time>2026-04-28T09:14:53Z</time></trkpt><trkpt lat="44.526078787073025" lon="8.91378296168764"><ele>162.0</ele><time>2026-04-28T09:14:54Z</time></trkpt><trkpt lat="44.52615878198802" lon="8.913796595945303"><ele>162.0</ele><time>2026-04-28T09:14:55Z</time></trkpt><trkpt lat="44.52622392573596" lon="8.91381337239901"><ele>162.0</ele><time>2026-04-28T09:14:57Z</time></trkpt><trkpt lat="44.52631756644997" lon="8.913828881988538"><ele>162.33333333333334</ele><time>2026-04-28T09:14:59Z</time></trkpt><trkpt lat="44.52638509756527" lon="8.913846880230931"><ele>162.66666666666666</ele><time>2026-04-28T09:15:00Z</time></trkpt><trkpt lat="44.526501023274804" lon="8.913884942514663"><ele>163.0</ele><time>2026-04-28T09:15:02Z</time></trkpt><trkpt lat="44.52657176623759" lon="8.913936512528752"><ele>163.33333333333331</ele><time>2026-04-28T09:15:03Z</time></trkpt><trkpt lat="44.5266432226392" lon="8.91399837620101"><ele>163.66666666666666</ele><time>2026-04-28T09:15:04Z</time></trkpt><trkpt lat="44.52669856615652" lon="8.914066688899295"><ele>164.0</ele><time>2026-04-28T09:15:05Z</time></trkpt><trkpt lat="44.52675025904785" lon="8.914144104780647"><ele>164.0</ele><time>2026-04-28T09:15:06Z</time></trkpt><trkpt lat="44.526814263035895" lon="8.91423646091681"><ele>164.0</ele><time>2026-04-28T09:15:07Z</time></trkpt><trkpt lat="44.52688680116609" lon="8.91432983122438"><ele>164.0</ele><time>2026-04-28T09:15:08Z</time></trkpt><trkpt lat="44.52696873063174" lon="8.914443774294524"><ele>164.0</ele><time>2026-04-28T09:15:09Z</time></trkpt><trkpt lat="44.527055979616364" lon="8.914557765449999"><ele>164.0</ele><time>2026-04-28T09:15:10Z</time></trkpt><trkpt lat="44.52714308952986" lon="8.914673576549356"><ele>164.5</ele><time>2026-04-28T09:15:11Z</time></trkpt><trkpt lat="44.52723599552512" lon="8.914785914264456"><ele>165.0</ele><time>2026-04-28T09:15:12Z</time></trkpt><trkpt lat="44.527329612929535" lon="8.914899716917521"><ele>165.5</ele><time>2026-04-28T09:15:13Z</time></trkpt><trkpt lat="44.52741115366176" lon="8.91501572372748"><ele>166.0</ele><time>2026-04-28T09:15:14Z</time></trkpt><trkpt lat="44.52749981982812" lon="8.91513360380863"><ele>167.25</ele><time>2026-04-28T09:15:15Z</time></trkpt><trkpt lat="44.527593077591426" lon="8.915255417075265"><ele>168.5</ele><time>2026-04-28T09:15:16Z</time></trkpt><trkpt lat="44.52768684249841" lon="8.9153788212203"><ele>169.75</ele><time>2026-04-28T09:15:17Z</time></trkpt><trkpt lat="44.52777645718903" lon="8.915485174252206"><ele>171.0</ele><time>2026-04-28T09:15:18Z</time></trkpt><trkpt lat="44.52786920881952" lon="8.915568106634185"><ele>170.0</ele><time>2026-04-28T09:15:19Z</time></trkpt><trkpt lat="44.527969678557355" lon="8.915631217189256"><ele>169.0</ele><time>2026-04-28T09:15:20Z</time></trkpt><trkpt lat="44.52807912700501" lon="8.915680880750875"><ele>168.0</ele><time>2026-04-28T09:15:20.999Z</time></trkpt><trkpt lat="44.52820312007843" lon="8.915714298419504"><ele>167.0</ele><time>2026-04-28T09:15:21.999Z</time></trkpt><trkpt lat="44.5283358215419" lon="8.91572613347285"><ele>167.0</ele><time>2026-04-28T09:15:22.999Z</time></trkpt><trkpt lat="44.528449999363424" lon="8.915684194914917"><ele>167.0</ele><time>2026-04-28T09:15:23.999Z</time></trkpt><trkpt lat="44.528553316162515" lon="8.915639063428527"><ele>167.0</ele><time>2026-04-28T09:15:24.999Z</time></trkpt><trkpt lat="44.528634804404604" lon="8.915602368626276"><ele>167.0</ele><time>2026-04-28T09:15:25.999Z</time></trkpt><trkpt lat="44.528750279371906" lon="8.91551987922144"><ele>167.0</ele><time>2026-04-28T09:15:26.999Z</time></trkpt><trkpt lat="44.5288413935418" lon="8.915487371721383"><ele>167.39999999999998</ele><time>2026-04-28T09:15:27.999Z</time></trkpt><trkpt lat="44.52893465667635" lon="8.915466468403803"><ele>167.79999999999998</ele><time>2026-04-28T09:15:28.999Z</time></trkpt><trkpt lat="44.52902917569067" lon="8.915465327242492"><ele>168.2</ele><time>2026-04-28T09:15:29.999Z</time></trkpt><trkpt lat="44.52912320072439" lon="8.915506023707445"><ele>168.6</ele><time>2026-04-28T09:15:30.999Z</time></trkpt><trkpt lat="44.529224100173984" lon="8.915565680573067"><ele>169.0</ele><time>2026-04-28T09:15:31.999Z</time></trkpt><trkpt lat="44.52930682041573" lon="8.915668597184043"><ele>169.0</ele><time>2026-04-28T09:15:32.999Z</time></trkpt><trkpt lat="44.52936072643423" lon="8.915797318869311"><ele>169.0</ele><time>2026-04-28T09:15:33.999Z</time></trkpt><trkpt lat="44.52941935944037" lon="8.915923725938704"><ele>169.0</ele><time>2026-04-28T09:15:34.999Z</time></trkpt><trkpt lat="44.52946436341762" lon="8.91604037169865"><ele>169.0</ele><time>2026-04-28T09:15:35.999Z</time></trkpt><trkpt lat="44.52952278262748" lon="8.916145942401323"><ele>169.0</ele><time>2026-04-28T09:15:36.999Z</time></trkpt><trkpt lat="44.52958137036347" lon="8.916256518353409"><ele>171.75</ele><time>2026-04-28T09:15:37.999Z</time></trkpt><trkpt lat="44.52965101897522" lon="8.916379198765208"><ele>174.5</ele><time>2026-04-28T09:15:38.999Z</time></trkpt><trkpt lat="44.529732984413826" lon="8.916504518441112"><ele>177.25</ele><time>2026-04-28T09:15:39.999Z</time></trkpt><trkpt lat="44.52982484196546" lon="8.916627869585353"><ele>180.0</ele><time>2026-04-28T09:15:40.999Z</time></trkpt><trkpt lat="44.52990254880339" lon="8.916730168454388"><ele>179.66666666666666</ele><time>2026-04-28T09:15:41.999Z</time></trkpt><trkpt lat="44.52998019941358" lon="8.916827110610685"><ele>179.33333333333334</ele><time>2026-04-28T09:15:42.999Z</time></trkpt><trkpt lat="44.530049019792486" lon="8.91690252000867"><ele>179.0</ele><time>2026-04-28T09:15:43.999Z</time></trkpt><trkpt lat="44.5301060908742" lon="8.916959039930177"><ele>178.66666666666669</ele><time>2026-04-28T09:15:44.999Z</time></trkpt><trkpt lat="44.53016975367716" lon="8.917034458680117"><ele>178.33333333333334</ele><time>2026-04-28T09:15:47.999Z</time></trkpt><trkpt lat="44.53025423052702" lon="8.917121982480477"><ele>178.0</ele><time>2026-04-28T09:15:50.999Z</time></trkpt><trkpt lat="44.53034563307337" lon="8.917217807422595"><ele>178.0</ele><time>2026-04-28T09:15:52.999Z</time></trkpt><trkpt lat="44.530398316260914" lon="8.917274543559472"><ele>178.0</ele><time>2026-04-28T09:15:53.999Z</time></trkpt><trkpt lat="44.530457664717396" lon="8.917328385908743"><ele>178.0</ele><time>2026-04-28T09:15:54.999Z</time></trkpt><trkpt lat="44.5305263102959" lon="8.917377954561262"><ele>178.0</ele><time>2026-04-28T09:15:55.999Z</time></trkpt><trkpt lat="44.530586977662" lon="8.917436871668999"><ele>178.0</ele><time>2026-04-28T09:15:56.999Z</time></trkpt><trkpt lat="44.530650134231564" lon="8.917501832775278"><ele>178.0</ele><time>2026-04-28T09:15:57.999Z</time></trkpt><trkpt lat="44.530717631551305" lon="8.917578608742074"><ele>178.0</ele><time>2026-04-28T09:15:58.999Z</time></trkpt><trkpt lat="44.53080395258447" lon="8.91765564324885"><ele>178.0</ele><time>2026-04-28T09:15:59.999Z</time></trkpt><trkpt lat="44.530885423702635" lon="8.91773418541559"><ele>178.0</ele><time>2026-04-28T09:16:00.999Z</time></trkpt><trkpt lat="44.53095188349098" lon="8.917840939689409"><ele>178.0</ele><time>2026-04-28T09:16:01.999Z</time></trkpt><trkpt lat="44.53101549368703" lon="8.917942374574372"><ele>178.0</ele><time>2026-04-28T09:16:02.999Z</time></trkpt><trkpt lat="44.53107069034626" lon="8.918062413518719"><ele>178.0</ele><time>2026-04-28T09:16:03.999Z</time></trkpt><trkpt lat="44.53112024424828" lon="8.918218512120353"><ele>178.0</ele><time>2026-04-28T09:16:04.999Z</time></trkpt><trkpt lat="44.53115281150664" lon="8.91838508787856"><ele>178.0</ele><time>2026-04-28T09:16:05.999Z</time></trkpt><trkpt lat="44.53117550165918" lon="8.918544882139026"><ele>178.0</ele><time>2026-04-28T09:16:06.999Z</time></trkpt><trkpt lat="44.5311883111586" lon="8.918659685754655"><ele>178.0</ele><time>2026-04-28T09:16:07.999Z</time></trkpt><trkpt lat="44.53122065856467" lon="8.918766029082581"><ele>180.8</ele><time>2026-04-28T09:16:08.999Z</time></trkpt><trkpt lat="44.53124713650007" lon="8.918871991685913"><ele>183.60000000000002</ele><time>2026-04-28T09:16:09.999Z</time></trkpt><trkpt lat="44.53129619316053" lon="8.918969143615058"><ele>186.39999999999998</ele><time>2026-04-28T09:16:10.999Z</time></trkpt><trkpt lat="44.531372922480735" lon="8.919057505723767"><ele>189.2</ele><time>2026-04-28T09:16:11.999Z</time></trkpt><trkpt lat="44.53145824659696" lon="8.91913494467141"><ele>192.0</ele><time>2026-04-28T09:16:12.999Z</time></trkpt><trkpt lat="44.531549037055704" lon="8.919216530305986"><ele>190.8</ele><time>2026-04-28T09:16:13.999Z</time></trkpt><trkpt lat="44.53162877852319" lon="8.919303250060345"><ele>189.6</ele><time>2026-04-28T09:16:14.999Z</time></trkpt><trkpt lat="44.531693123378304" lon="8.919385537065981"><ele>188.4</ele><time>2026-04-28T09:16:15.999Z</time></trkpt><trkpt lat="44.53175153016765" lon="8.919485484019463"><ele>187.20000000000002</ele><time>2026-04-28T09:16:16.999Z</time></trkpt><trkpt lat="44.531791895144984" lon="8.919599890797413"><ele>186.0</ele><time>2026-04-28T09:16:17.999Z</time></trkpt><trkpt lat="44.53180792739764" lon="8.919726056631585"><ele>186.0</ele><time>2026-04-28T09:16:18.999Z</time></trkpt><trkpt lat="44.53179146488816" lon="8.919896633698754"><ele>186.0</ele><time>2026-04-28T09:16:19.999Z</time></trkpt><trkpt lat="44.5317686228687" lon="8.920025814604116"><ele>186.0</ele><time>2026-04-28T09:16:20.999Z</time></trkpt><trkpt lat="44.531759384394796" lon="8.920146641259775"><ele>186.0</ele><time>2026-04-28T09:16:21.999Z</time></trkpt><trkpt lat="44.531768735884306" lon="8.920252214981037"><ele>186.0</ele><time>2026-04-28T09:16:22.999Z</time></trkpt><trkpt lat="44.531794845189076" lon="8.9203688079427"><ele>188.25</ele><time>2026-04-28T09:16:23.999Z</time></trkpt><trkpt lat="44.53183982960776" lon="8.920484102589601"><ele>190.5</ele><time>2026-04-28T09:16:24.999Z</time></trkpt><trkpt lat="44.531924381386084" lon="8.92059815764041"><ele>192.75</ele><time>2026-04-28T09:16:25.999Z</time></trkpt><trkpt lat="44.532016930010414" lon="8.920707820119702"><ele>195.0</ele><time>2026-04-28T09:16:26.999Z</time></trkpt><trkpt lat="44.53212531519293" lon="8.920824007221913"><ele>195.0</ele><time>2026-04-28T09:16:27.999Z</time></trkpt><trkpt lat="44.532247275157424" lon="8.920925575460723"><ele>195.0</ele><time>2026-04-28T09:16:28.999Z</time></trkpt><trkpt lat="44.53236249202806" lon="8.921019371529747"><ele>195.0</ele><time>2026-04-28T09:16:29.999Z</time></trkpt><trkpt lat="44.53248139305725" lon="8.921127722859852"><ele>195.0</ele><time>2026-04-28T09:16:30.999Z</time></trkpt><trkpt lat="44.53258442902337" lon="8.921244935104879"><ele>195.0</ele><time>2026-04-28T09:16:31.999Z</time></trkpt><trkpt lat="44.532677843985695" lon="8.921362717349128"><ele>195.0</ele><time>2026-04-28T09:16:33Z</time></trkpt><trkpt lat="44.53277118079399" lon="8.921491835676068"><ele>195.0</ele><time>2026-04-28T09:16:34Z</time></trkpt><trkpt lat="44.53287458157328" lon="8.921628137581353"><ele>195.0</ele><time>2026-04-28T09:16:35Z</time></trkpt><trkpt lat="44.5329738476367" lon="8.921751330701605"><ele>196.5</ele><time>2026-04-28T09:16:36Z</time></trkpt><trkpt lat="44.53307100636491" lon="8.921888681609987"><ele>198.0</ele><time>2026-04-28T09:16:37Z</time></trkpt><trkpt lat="44.53316629924006" lon="8.92201523195076"><ele>199.5</ele><time>2026-04-28T09:16:38Z</time></trkpt><trkpt lat="44.53325754257674" lon="8.92215055548271"><ele>201.0</ele><time>2026-04-28T09:16:39Z</time></trkpt><trkpt lat="44.53335262607066" lon="8.922266072780292"><ele>201.0</ele><time>2026-04-28T09:16:40Z</time></trkpt><trkpt lat="44.533436600922364" lon="8.922381028847656"><ele>201.0</ele><time>2026-04-28T09:16:41Z</time></trkpt><trkpt lat="44.533521946256506" lon="8.92248928871924"><ele>201.0</ele><time>2026-04-28T09:16:42Z</time></trkpt><trkpt lat="44.5336039699488" lon="8.922598175433578"><ele>201.0</ele><time>2026-04-28T09:16:43Z</time></trkpt><trkpt lat="44.533675451513304" lon="8.922702598884424"><ele>201.0</ele><time>2026-04-28T09:16:44Z</time></trkpt><trkpt lat="44.533763743615225" lon="8.9228140821821"><ele>201.5</ele><time>2026-04-28T09:16:45Z</time></trkpt><trkpt lat="44.53385331534801" lon="8.922912504234958"><ele>202.0</ele><time>2026-04-28T09:16:46Z</time></trkpt><trkpt lat="44.53394894049551" lon="8.922994000270078"><ele>202.5</ele><time>2026-04-28T09:16:47Z</time></trkpt><trkpt lat="44.5340782375044" lon="8.923075736796514"><ele>203.0</ele><time>2026-04-28T09:16:48Z</time></trkpt><trkpt lat="44.534236036484735" lon="8.923136592280777"><ele>203.0</ele><time>2026-04-28T09:16:49Z</time></trkpt><trkpt lat="44.53440309678263" lon="8.923196080507562"><ele>203.0</ele><time>2026-04-28T09:16:50Z</time></trkpt><trkpt lat="44.53454307486015" lon="8.923273819102564"><ele>203.0</ele><time>2026-04-28T09:16:51Z</time></trkpt><trkpt lat="44.53467237796068" lon="8.923352997581018"><ele>203.5</ele><time>2026-04-28T09:16:52Z</time></trkpt><trkpt lat="44.5347831783135" lon="8.923451839971369"><ele>204.0</ele><time>2026-04-28T09:16:53Z</time></trkpt><trkpt lat="44.534883381490665" lon="8.923549300653267"><ele>204.5</ele><time>2026-04-28T09:16:54Z</time></trkpt><trkpt lat="44.534980962026076" lon="8.923629827928462"><ele>205.0</ele><time>2026-04-28T09:16:55Z</time></trkpt><trkpt lat="44.53508333790349" lon="8.923716720353317"><ele>205.0</ele><time>2026-04-28T09:16:56Z</time></trkpt><trkpt lat="44.535186859278646" lon="8.923796032870651"><ele>205.0</ele><time>2026-04-28T09:16:57Z</time></trkpt><trkpt lat="44.535278509560634" lon="8.923838520112263"><ele>205.0</ele><time>2026-04-28T09:16:58Z</time></trkpt><trkpt lat="44.53538543106859" lon="8.923833333857182"><ele>205.0</ele><time>2026-04-28T09:16:59Z</time></trkpt><trkpt lat="44.53549917107514" lon="8.923817684958397"><ele>205.0</ele><time>2026-04-28T09:17:00Z</time></trkpt><trkpt lat="44.53560575571745" lon="8.923777417627925"><ele>205.4</ele><time>2026-04-28T09:17:01Z</time></trkpt><trkpt lat="44.53569908251681" lon="8.923755366868681"><ele>205.8</ele><time>2026-04-28T09:17:02Z</time></trkpt><trkpt lat="44.535784465162905" lon="8.923735713980724"><ele>206.2</ele><time>2026-04-28T09:17:03Z</time></trkpt><trkpt lat="44.535873974529544" lon="8.923792096919312"><ele>206.6</ele><time>2026-04-28T09:17:04Z</time></trkpt><trkpt lat="44.535959319868425" lon="8.923899980400245"><ele>207.0</ele><time>2026-04-28T09:17:05Z</time></trkpt><trkpt lat="44.53605673960319" lon="8.924056214168862"><ele>207.66666666666669</ele><time>2026-04-28T09:17:06Z</time></trkpt><trkpt lat="44.53617589119004" lon="8.92425136994478"><ele>208.33333333333334</ele><time>2026-04-28T09:17:07Z</time></trkpt><trkpt lat="44.53627100425217" lon="8.924423070210285"><ele>209.0</ele><time>2026-04-28T09:17:08Z</time></trkpt><trkpt lat="44.536360075233695" lon="8.92456232238296"><ele>209.0</ele><time>2026-04-28T09:17:09Z</time></trkpt><trkpt lat="44.536442960461294" lon="8.92463914964091"><ele>209.0</ele><time>2026-04-28T09:17:10Z</time></trkpt><trkpt lat="44.53654453900625" lon="8.924676274063735"><ele>209.0</ele><time>2026-04-28T09:17:11Z</time></trkpt><trkpt lat="44.53667524336179" lon="8.924666141513265"><ele>209.0</ele><time>2026-04-28T09:17:12Z</time></trkpt><trkpt lat="44.536804162853215" lon="8.924599417751933"><ele>209.0</ele><time>2026-04-28T09:17:13Z</time></trkpt><trkpt lat="44.53694838179118" lon="8.924541121154862"><ele>209.0</ele><time>2026-04-28T09:17:14Z</time></trkpt><trkpt lat="44.53709507152798" lon="8.924532022519026"><ele>209.0</ele><time>2026-04-28T09:17:15Z</time></trkpt><trkpt lat="44.53723321005256" lon="8.924554330913447"><ele>209.0</ele><time>2026-04-28T09:17:16Z</time></trkpt><trkpt lat="44.5373503299757" lon="8.924581456872978"><ele>210.75</ele><time>2026-04-28T09:17:17Z</time></trkpt><trkpt lat="44.53743072699322" lon="8.924636241326413"><ele>212.5</ele><time>2026-04-28T09:17:18Z</time></trkpt><trkpt lat="44.537498642034336" lon="8.924756661584496"><ele>214.25</ele><time>2026-04-28T09:17:19Z</time></trkpt><trkpt lat="44.53757974114658" lon="8.924918571660664"><ele>216.0</ele><time>2026-04-28T09:17:20Z</time></trkpt><trkpt lat="44.53766457797753" lon="8.925098855929697"><ele>216.0</ele><time>2026-04-28T09:17:21Z</time></trkpt><trkpt lat="44.537737681516035" lon="8.92525018700823"><ele>216.00000000000003</ele><time>2026-04-28T09:17:22Z</time></trkpt><trkpt lat="44.53778415922552" lon="8.925370423979093"><ele>216.00000000000003</ele><time>2026-04-28T09:17:23Z</time></trkpt><trkpt lat="44.53779577310615" lon="8.92548471362994"><ele>216.0</ele><time>2026-04-28T09:17:23.999Z</time></trkpt><trkpt lat="44.53776800462646" lon="8.925619048201057"><ele>216.0</ele><time>2026-04-28T09:17:24.999Z</time></trkpt><trkpt lat="44.537745072513985" lon="8.925784347196538"><ele>218.5</ele><time>2026-04-28T09:17:25.999Z</time></trkpt><trkpt lat="44.53776304618918" lon="8.925966806424677"><ele>221.0</ele><time>2026-04-28T09:17:26.999Z</time></trkpt><trkpt lat="44.537824335753655" lon="8.92615800272041"><ele>223.5</ele><time>2026-04-28T09:17:27.999Z</time></trkpt><trkpt lat="44.5379016219087" lon="8.926343824026402"><ele>226.0</ele><time>2026-04-28T09:17:28.999Z</time></trkpt><trkpt lat="44.53797598401894" lon="8.9265040969531"><ele>226.0</ele><time>2026-04-28T09:17:29.999Z</time></trkpt><trkpt lat="44.53803378673341" lon="8.926637356148868"><ele>226.00000000000003</ele><time>2026-04-28T09:17:30.999Z</time></trkpt><trkpt lat="44.53804488489703" lon="8.926776725740904"><ele>226.00000000000003</ele><time>2026-04-28T09:17:31.999Z</time></trkpt><trkpt lat="44.53799519902537" lon="8.926898577912878"><ele>226.0</ele><time>2026-04-28T09:17:32.999Z</time></trkpt><trkpt lat="44.53796539616958" lon="8.927040395387795"><ele>226.0</ele><time>2026-04-28T09:17:33.999Z</time></trkpt><trkpt lat="44.5379654624766" lon="8.927238409355766"><ele>226.0</ele><time>2026-04-28T09:17:34.999Z</time></trkpt><trkpt lat="44.53803593096077" lon="8.927440654336994"><ele>226.0</ele><time>2026-04-28T09:17:35.999Z</time></trkpt><trkpt lat="44.538087551250804" lon="8.92765630005771"><ele>226.0</ele><time>2026-04-28T09:17:36.999Z</time></trkpt><trkpt lat="44.53814272641326" lon="8.927885656763145"><ele>226.66666666666666</ele><time>2026-04-28T09:17:37.999Z</time></trkpt><trkpt lat="44.53819681243524" lon="8.928122023194478"><ele>227.33333333333331</ele><time>2026-04-28T09:17:38.999Z</time></trkpt><trkpt lat="44.538237827667416" lon="8.928341977313845"><ele>228.0</ele><time>2026-04-28T09:17:39.999Z</time></trkpt><trkpt lat="44.5382814198016" lon="8.928551419333859"><ele>229.33333333333331</ele><time>2026-04-28T09:17:40.999Z</time></trkpt><trkpt lat="44.538330721128546" lon="8.928773741552472"><ele>230.66666666666666</ele><time>2026-04-28T09:17:41.999Z</time></trkpt><trkpt lat="44.53838246455876" lon="8.92898836085594"><ele>232.0</ele><time>2026-04-28T09:17:42.999Z</time></trkpt><trkpt lat="44.53843238691928" lon="8.929197163178223"><ele>234.0</ele><time>2026-04-28T09:17:43.999Z</time></trkpt><trkpt lat="44.53848695420199" lon="8.929409951379029"><ele>236.0</ele><time>2026-04-28T09:17:44.999Z</time></trkpt><trkpt lat="44.53852764350846" lon="8.929628939466465"><ele>238.0</ele><time>2026-04-28T09:17:45.999Z</time></trkpt><trkpt lat="44.53858517148867" lon="8.929817844880311"><ele>238.0</ele><time>2026-04-28T09:17:46.999Z</time></trkpt><trkpt lat="44.53865554778722" lon="8.929996280224627"><ele>238.0</ele><time>2026-04-28T09:17:47.999Z</time></trkpt><trkpt lat="44.53873938134652" lon="8.930164464700622"><ele>238.0</ele><time>2026-04-28T09:17:48.999Z</time></trkpt><trkpt lat="44.53881995542768" lon="8.930327438247662"><ele>238.0</ele><time>2026-04-28T09:17:49.999Z</time></trkpt><trkpt lat="44.53890589936246" lon="8.930496064284178"><ele>238.33333333333331</ele><time>2026-04-28T09:17:50.999Z</time></trkpt><trkpt lat="44.53898976622651" lon="8.930667350338327"><ele>238.66666666666669</ele><time>2026-04-28T09:17:51.999Z</time></trkpt><trkpt lat="44.53907664364205" lon="8.930864533224655"><ele>239.0</ele><time>2026-04-28T09:17:52.999Z</time></trkpt><trkpt lat="44.539167865838856" lon="8.931062092060388"><ele>239.0</ele><time>2026-04-28T09:17:53.999Z</time></trkpt><trkpt lat="44.539263450144645" lon="8.93122707002878"><ele>239.0</ele><time>2026-04-28T09:17:54.999Z</time></trkpt><trkpt lat="44.53934644691264" lon="8.931376492375046"><ele>239.0</ele><time>2026-04-28T09:17:55.999Z</time></trkpt><trkpt lat="44.539419789381036" lon="8.931482069385149"><ele>239.0</ele><time>2026-04-28T09:17:56.999Z</time></trkpt><trkpt lat="44.53950724276069" lon="8.931552970333883"><ele>236.75</ele><time>2026-04-28T09:17:57.999Z</time></trkpt><trkpt lat="44.53961816471361" lon="8.931571774578412"><ele>234.5</ele><time>2026-04-28T09:17:58.999Z</time></trkpt><trkpt lat="44.539747261295574" lon="8.93151879388158"><ele>232.25</ele><time>2026-04-28T09:17:59.999Z</time></trkpt><trkpt lat="44.53988760004504" lon="8.93142788680372"><ele>230.0</ele><time>2026-04-28T09:18:00.999Z</time></trkpt><trkpt lat="44.5400505080611" lon="8.93132895439436"><ele>230.0</ele><time>2026-04-28T09:18:01.999Z</time></trkpt><trkpt lat="44.54021087420833" lon="8.931272816272877"><ele>230.0</ele><time>2026-04-28T09:18:02.999Z</time></trkpt><trkpt lat="44.540379425896376" lon="8.931238529108459"><ele>230.0</ele><time>2026-04-28T09:18:03.999Z</time></trkpt><trkpt lat="44.54052439390053" lon="8.931179589066454"><ele>234.0</ele><time>2026-04-28T09:18:04.999Z</time></trkpt><trkpt lat="44.540652876942175" lon="8.931107020738109"><ele>238.0</ele><time>2026-04-28T09:18:05.999Z</time></trkpt><trkpt lat="44.54078112110448" lon="8.931051640621096"><ele>242.0</ele><time>2026-04-28T09:18:06.999Z</time></trkpt><trkpt lat="44.54091016073818" lon="8.930983351546436"><ele>246.0</ele><time>2026-04-28T09:18:07.999Z</time></trkpt><trkpt lat="44.54103284532827" lon="8.93092287404238"><ele>246.75</ele><time>2026-04-28T09:18:08.999Z</time></trkpt><trkpt lat="44.54116607919535" lon="8.93085615196081"><ele>247.5</ele><time>2026-04-28T09:18:09.999Z</time></trkpt><trkpt lat="44.541293410404556" lon="8.930766934646641"><ele>248.25</ele><time>2026-04-28T09:18:10.999Z</time></trkpt><trkpt lat="44.54143397645772" lon="8.930693084513937"><ele>249.0</ele><time>2026-04-28T09:18:11.999Z</time></trkpt><trkpt lat="44.54156515571582" lon="8.930622330210479"><ele>249.0</ele><time>2026-04-28T09:18:12.999Z</time></trkpt><trkpt lat="44.54167462471372" lon="8.930555815670694"><ele>249.0</ele><time>2026-04-28T09:18:13.999Z</time></trkpt><trkpt lat="44.54175753971812" lon="8.930461740219709"><ele>249.0</ele><time>2026-04-28T09:18:14.999Z</time></trkpt><trkpt lat="44.541802555543455" lon="8.930317565604158"><ele>249.0</ele><time>2026-04-28T09:18:15.999Z</time></trkpt><trkpt lat="44.54182620399825" lon="8.930143135159168"><ele>251.5</ele><time>2026-04-28T09:18:16.999Z</time></trkpt><trkpt lat="44.54183490957189" lon="8.929921107685166"><ele>254.0</ele><time>2026-04-28T09:18:17.999Z</time></trkpt><trkpt lat="44.54184648685463" lon="8.929726339312145"><ele>256.5</ele><time>2026-04-28T09:18:18.999Z</time></trkpt><trkpt lat="44.54188374685289" lon="8.929568423736486"><ele>259.0</ele><time>2026-04-28T09:18:19.999Z</time></trkpt><trkpt lat="44.541954910842826" lon="8.929429099223231"><ele>257.25</ele><time>2026-04-28T09:18:20.999Z</time></trkpt><trkpt lat="44.5420697795099" lon="8.929342135127314"><ele>255.5</ele><time>2026-04-28T09:18:21.999Z</time></trkpt><trkpt lat="44.542201741143444" lon="8.92927792146797"><ele>253.75</ele><time>2026-04-28T09:18:22.999Z</time></trkpt><trkpt lat="44.542352721451095" lon="8.929215306016703"><ele>252.0</ele><time>2026-04-28T09:18:23.999Z</time></trkpt><trkpt lat="44.54249871797128" lon="8.929172394375792"><ele>252.0</ele><time>2026-04-28T09:18:24.999Z</time></trkpt><trkpt lat="44.54265063614461" lon="8.929179407307963"><ele>252.0</ele><time>2026-04-28T09:18:25.999Z</time></trkpt><trkpt lat="44.54280116124165" lon="8.929203092350905"><ele>252.0</ele><time>2026-04-28T09:18:26.999Z</time></trkpt><trkpt lat="44.54292831546633" lon="8.92921636677431"><ele>252.0</ele><time>2026-04-28T09:18:27.999Z</time></trkpt><trkpt lat="44.54302965021748" lon="8.929203335192428"><ele>253.39999999999998</ele><time>2026-04-28T09:18:28.999Z</time></trkpt><trkpt lat="44.543125458687705" lon="8.929144785355161"><ele>254.79999999999998</ele><time>2026-04-28T09:18:29.999Z</time></trkpt><trkpt lat="44.543189485493166" lon="8.9290512005988"><ele>256.2</ele><time>2026-04-28T09:18:30.999Z</time></trkpt><trkpt lat="44.54322220060128" lon="8.92891001613563"><ele>257.59999999999997</ele><time>2026-04-28T09:18:31.999Z</time></trkpt><trkpt lat="44.54324303568334" lon="8.928776431783657"><ele>259.0</ele><time>2026-04-28T09:18:32.999Z</time></trkpt><trkpt lat="44.54328446696689" lon="8.928633864894406"><ele>259.0</ele><time>2026-04-28T09:18:33.999Z</time></trkpt><trkpt lat="44.54337183084271" lon="8.928507273096493"><ele>259.0</ele><time>2026-04-28T09:18:34.999Z</time></trkpt><trkpt lat="44.543500198367894" lon="8.928392560943728"><ele>259.0</ele><time>2026-04-28T09:18:35.999Z</time></trkpt><trkpt lat="44.54366222943317" lon="8.928269709051593"><ele>260.25</ele><time>2026-04-28T09:18:36.999Z</time></trkpt><trkpt lat="44.54380121682147" lon="8.928175813200271"><ele>261.5</ele><time>2026-04-28T09:18:37.999Z</time></trkpt><trkpt lat="44.543919006404266" lon="8.928096764491285"><ele>262.75</ele><time>2026-04-28T09:18:39Z</time></trkpt><trkpt lat="44.54401217572593" lon="8.928047110610134"><ele>264.0</ele><time>2026-04-28T09:18:40Z</time></trkpt><trkpt lat="44.54410687698719" lon="8.928030543257085"><ele>264.0</ele><time>2026-04-28T09:18:41Z</time></trkpt><trkpt lat="44.54418409292037" lon="8.928080969692324"><ele>264.0</ele><time>2026-04-28T09:18:42Z</time></trkpt><trkpt lat="44.544238832387926" lon="8.928164959903055"><ele>264.0</ele><time>2026-04-28T09:18:43Z</time></trkpt><trkpt lat="44.54429072956705" lon="8.928287407209263"><ele>264.0</ele><time>2026-04-28T09:18:44Z</time></trkpt><trkpt lat="44.544364276342044" lon="8.92840488342703"><ele>264.0</ele><time>2026-04-28T09:18:45Z</time></trkpt><trkpt lat="44.54445026524902" lon="8.928510334930776"><ele>266.0</ele><time>2026-04-28T09:18:46Z</time></trkpt><trkpt lat="44.54454122062095" lon="8.928613492081444"><ele>268.0</ele><time>2026-04-28T09:18:47Z</time></trkpt><trkpt lat="44.544647517683224" lon="8.92866760472155"><ele>270.0</ele><time>2026-04-28T09:18:48Z</time></trkpt><trkpt lat="44.544724439916294" lon="8.928731186213495"><ele>272.0</ele><time>2026-04-28T09:18:49Z</time></trkpt><trkpt lat="44.5447844704717" lon="8.92878441500665"><ele>274.0</ele><time>2026-04-28T09:18:50Z</time></trkpt><trkpt lat="44.54482013855313" lon="8.92887051001981"><ele>274.0</ele><time>2026-04-28T09:18:51Z</time></trkpt><trkpt lat="44.54484116857816" lon="8.928968502521084"><ele>274.0</ele><time>2026-04-28T09:18:52Z</time></trkpt><trkpt lat="44.54481099726326" lon="8.929061129210321"><ele>274.0</ele><time>2026-04-28T09:18:53Z</time></trkpt><trkpt lat="44.544770018246716" lon="8.929146553677553"><ele>274.0</ele><time>2026-04-28T09:18:54Z</time></trkpt><trkpt lat="44.5447113177881" lon="8.929208525440524"><ele>274.0</ele><time>2026-04-28T09:18:55Z</time></trkpt><trkpt lat="44.54461391322781" lon="8.92922461474188"><ele>274.0</ele><time>2026-04-28T09:18:56Z</time></trkpt><trkpt lat="44.54449043680419" lon="8.929223613067315"><ele>274.0</ele><time>2026-04-28T09:18:57Z</time></trkpt><trkpt lat="44.54436289555175" lon="8.929219146117399"><ele>274.0</ele><time>2026-04-28T09:18:58Z</time></trkpt><trkpt lat="44.54425734725949" lon="8.929220262643652"><ele>274.0</ele><time>2026-04-28T09:18:59Z</time></trkpt><trkpt lat="44.544174535283034" lon="8.929244117007187"><ele>274.0</ele><time>2026-04-28T09:19:00Z</time></trkpt><trkpt lat="44.54409942675226" lon="8.929276358125446"><ele>274.0</ele><time>2026-04-28T09:19:01Z</time></trkpt><trkpt lat="44.5440283585696" lon="8.929368955324549"><ele>276.8</ele><time>2026-04-28T09:19:02Z</time></trkpt><trkpt lat="44.54399184499794" lon="8.929506256515635"><ele>279.59999999999997</ele><time>2026-04-28T09:19:03Z</time></trkpt><trkpt lat="44.54398351450784" lon="8.929642578985524"><ele>282.4</ele><time>2026-04-28T09:19:04Z</time></trkpt><trkpt lat="44.54396472795383" lon="8.929782754129644"><ele>285.2</ele><time>2026-04-28T09:19:05Z</time></trkpt><trkpt lat="44.543942652504896" lon="8.929943084100525"><ele>288.0</ele><time>2026-04-28T09:19:06Z</time></trkpt><trkpt lat="44.54395975185849" lon="8.93013213062065"><ele>289.5</ele><time>2026-04-28T09:19:07Z</time></trkpt><trkpt lat="44.54400223613932" lon="8.930343889965108"><ele>291.0</ele><time>2026-04-28T09:19:08Z</time></trkpt><trkpt lat="44.5440448262495" lon="8.930529706981579"><ele>292.5</ele><time>2026-04-28T09:19:09Z</time></trkpt><trkpt lat="44.54408127257225" lon="8.930688854601103"><ele>294.0</ele><time>2026-04-28T09:19:10Z</time></trkpt><trkpt lat="44.54411535665281" lon="8.930841819992507"><ele>296.5</ele><time>2026-04-28T09:19:11Z</time></trkpt><trkpt lat="44.54414193583028" lon="8.930966165389252"><ele>299.0</ele><time>2026-04-28T09:19:12Z</time></trkpt><trkpt lat="44.544175465562276" lon="8.93107185779929"><ele>301.5</ele><time>2026-04-28T09:19:13Z</time></trkpt><trkpt lat="44.54418447643675" lon="8.931185476787237"><ele>304.0</ele><time>2026-04-28T09:19:14Z</time></trkpt><trkpt lat="44.544177610784644" lon="8.931279194389743"><ele>306.5</ele><time>2026-04-28T09:19:15Z</time></trkpt><trkpt lat="44.54414606615458" lon="8.931374881540897"><ele>309.0</ele><time>2026-04-28T09:19:16Z</time></trkpt><trkpt lat="44.544088093916564" lon="8.931438973463516"><ele>309.00000000000006</ele><time>2026-04-28T09:19:17Z</time></trkpt><trkpt lat="44.54400881470335" lon="8.931465638617155"><ele>309.0</ele><time>2026-04-28T09:19:18Z</time></trkpt><trkpt lat="44.543924836521136" lon="8.93145424417178"><ele>309.0</ele><time>2026-04-28T09:19:19Z</time></trkpt><trkpt lat="44.54384029427409" lon="8.931426945915673"><ele>309.0</ele><time>2026-04-28T09:19:20Z</time></trkpt><trkpt lat="44.54377750955801" lon="8.931439593894547"><ele>309.0</ele><time>2026-04-28T09:19:21Z</time></trkpt><trkpt lat="44.54371658124159" lon="8.931465400391597"><ele>309.00000000000006</ele><time>2026-04-28T09:19:22Z</time></trkpt><trkpt lat="44.54366048608429" lon="8.931506219194674"><ele>309.0</ele><time>2026-04-28T09:19:23Z</time></trkpt><trkpt lat="44.543625171130806" lon="8.931586079338073"><ele>309.0</ele><time>2026-04-28T09:19:24Z</time></trkpt><trkpt lat="44.543608023932286" lon="8.931716834215871"><ele>309.0</ele><time>2026-04-28T09:19:25Z</time></trkpt><trkpt lat="44.543608660058716" lon="8.931918533701477"><ele>309.0</ele><time>2026-04-28T09:19:26Z</time></trkpt><trkpt lat="44.543623535085885" lon="8.932111947932722"><ele>309.0</ele><time>2026-04-28T09:19:27Z</time></trkpt><trkpt lat="44.5435999538873" lon="8.932260413905126"><ele>309.0</ele><time>2026-04-28T09:19:28Z</time></trkpt><trkpt lat="44.54353234623161" lon="8.932363746242178"><ele>309.0</ele><time>2026-04-28T09:19:29Z</time></trkpt><trkpt lat="44.543442076146206" lon="8.932421177090017"><ele>309.0</ele><time>2026-04-28T09:19:30Z</time></trkpt><trkpt lat="44.54331850827137" lon="8.932408337600263"><ele>309.0</ele><time>2026-04-28T09:19:31Z</time></trkpt><trkpt lat="44.54316003721598" lon="8.932372386232533"><ele>309.0</ele><time>2026-04-28T09:19:32Z</time></trkpt><trkpt lat="44.54301770138002" lon="8.932299507827246"><ele>309.0</ele><time>2026-04-28T09:19:33Z</time></trkpt><trkpt lat="44.54288755394109" lon="8.932236746366057"><ele>309.0</ele><time>2026-04-28T09:19:34Z</time></trkpt><trkpt lat="44.5427661267072" lon="8.932238868057436"><ele>309.0</ele><time>2026-04-28T09:19:35Z</time></trkpt><trkpt lat="44.54264342870191" lon="8.93229005533769"><ele>308.0</ele><time>2026-04-28T09:19:36Z</time></trkpt><trkpt lat="44.5425321566754" lon="8.932407743169591"><ele>307.0</ele><time>2026-04-28T09:19:37Z</time></trkpt><trkpt lat="44.542411285410765" lon="8.93257167020287"><ele>306.0</ele><time>2026-04-28T09:19:38Z</time></trkpt><trkpt lat="44.54227101829126" lon="8.93273095654249"><ele>305.25</ele><time>2026-04-28T09:19:38.999Z</time></trkpt><trkpt lat="44.542161085128065" lon="8.932853332296451"><ele>304.5</ele><time>2026-04-28T09:19:39.999Z</time></trkpt><trkpt lat="44.5420704407654" lon="8.93298635269178"><ele>303.75</ele><time>2026-04-28T09:19:40.999Z</time></trkpt><trkpt lat="44.54199832718062" lon="8.933151563597775"><ele>303.0</ele><time>2026-04-28T09:19:41.999Z</time></trkpt><trkpt lat="44.541955739263145" lon="8.93334965464794"><ele>306.0</ele><time>2026-04-28T09:19:42.999Z</time></trkpt><trkpt lat="44.54191501674352" lon="8.933574492765382"><ele>309.0</ele><time>2026-04-28T09:19:43.999Z</time></trkpt><trkpt lat="44.54186304148874" lon="8.933796625445027"><ele>312.0</ele><time>2026-04-28T09:19:44.999Z</time></trkpt><trkpt lat="44.54182279667977" lon="8.933992285601821"><ele>312.0</ele><time>2026-04-28T09:19:45.999Z</time></trkpt><trkpt lat="44.5418027078542" lon="8.934156026152783"><ele>312.0</ele><time>2026-04-28T09:19:46.999Z</time></trkpt><trkpt lat="44.54180065691363" lon="8.934303194847326"><ele>312.0</ele><time>2026-04-28T09:19:47.999Z</time></trkpt><trkpt lat="44.541839028359696" lon="8.934453104455313"><ele>312.0</ele><time>2026-04-28T09:19:48.999Z</time></trkpt><trkpt lat="44.5419293273407" lon="8.934598646560946"><ele>312.3333333333333</ele><time>2026-04-28T09:19:49.999Z</time></trkpt><trkpt lat="44.5420450696028" lon="8.934746191715668"><ele>312.66666666666663</ele><time>2026-04-28T09:19:50.999Z</time></trkpt><trkpt lat="44.54217796034544" lon="8.934906946261163"><ele>313.0</ele><time>2026-04-28T09:19:51.999Z</time></trkpt><trkpt lat="44.54230992084807" lon="8.935036475282972"><ele>313.66666666666663</ele><time>2026-04-28T09:19:52.999Z</time></trkpt><trkpt lat="44.54246323931059" lon="8.935137846353543"><ele>314.3333333333333</ele><time>2026-04-28T09:19:53.999Z</time></trkpt><trkpt lat="44.542625635871" lon="8.935189907130974"><ele>315.0</ele><time>2026-04-28T09:19:54.999Z</time></trkpt><trkpt lat="44.54276123717731" lon="8.935237091507522"><ele>315.0</ele><time>2026-04-28T09:19:55.999Z</time></trkpt><trkpt lat="44.54286635336819" lon="8.93531391587842"><ele>315.0</ele><time>2026-04-28T09:19:56.999Z</time></trkpt><trkpt lat="44.542987162546844" lon="8.93545642774364"><ele>315.0</ele><time>2026-04-28T09:19:57.999Z</time></trkpt><trkpt lat="44.54311083415518" lon="8.935623933577444"><ele>315.0</ele><time>2026-04-28T09:19:58.999Z</time></trkpt><trkpt lat="44.5432602229314" lon="8.935806003797007"><ele>318.3333333333333</ele><time>2026-04-28T09:19:59.999Z</time></trkpt><trkpt lat="44.54341762674392" lon="8.936006196050645"><ele>321.66666666666663</ele><time>2026-04-28T09:20:00.999Z</time></trkpt><trkpt lat="44.543583540394565" lon="8.936236489695926"><ele>325.0</ele><time>2026-04-28T09:20:01.999Z</time></trkpt><trkpt lat="44.543744857952674" lon="8.936474706871754"><ele>328.3333333333333</ele><time>2026-04-28T09:20:02.999Z</time></trkpt><trkpt lat="44.54388167180151" lon="8.936701963671466"><ele>331.6666666666667</ele><time>2026-04-28T09:20:03.999Z</time></trkpt><trkpt lat="44.54399512261204" lon="8.936908995377586"><ele>335.0</ele><time>2026-04-28T09:20:04.999Z</time></trkpt><trkpt lat="44.54408849163251" lon="8.937067176323124"><ele>335.0</ele><time>2026-04-28T09:20:05.999Z</time></trkpt><trkpt lat="44.54417857998637" lon="8.937171144074682"><ele>335.0</ele><time>2026-04-28T09:20:06.999Z</time></trkpt><trkpt lat="44.54427006166942" lon="8.937229586317367"><ele>335.0</ele><time>2026-04-28T09:20:07.999Z</time></trkpt><trkpt lat="44.54436785348055" lon="8.9372129841856"><ele>335.0</ele><time>2026-04-28T09:20:08.999Z</time></trkpt><trkpt lat="44.54447738919561" lon="8.937121853902836"><ele>335.0</ele><time>2026-04-28T09:20:09.999Z</time></trkpt><trkpt lat="44.54459061002533" lon="8.937000963091227"><ele>334.6666666666667</ele><time>2026-04-28T09:20:10.999Z</time></trkpt><trkpt lat="44.54471187674765" lon="8.936841963733071"><ele>334.3333333333333</ele><time>2026-04-28T09:20:11.999Z</time></trkpt><trkpt lat="44.54484253005639" lon="8.936638758910748"><ele>334.0</ele><time>2026-04-28T09:20:12.999Z</time></trkpt><trkpt lat="44.544973198337196" lon="8.936440248096726"><ele>338.66666666666663</ele><time>2026-04-28T09:20:13.999Z</time></trkpt><trkpt lat="44.545116982698396" lon="8.936213465735305"><ele>343.3333333333333</ele><time>2026-04-28T09:20:14.999Z</time></trkpt><trkpt lat="44.54526498281972" lon="8.93599316395269"><ele>348.0</ele><time>2026-04-28T09:20:15.999Z</time></trkpt><trkpt lat="44.54539975375883" lon="8.935810918766139"><ele>349.3333333333333</ele><time>2026-04-28T09:20:16.999Z</time></trkpt><trkpt lat="44.54552300493421" lon="8.935641412563093"><ele>350.66666666666663</ele><time>2026-04-28T09:20:17.999Z</time></trkpt><trkpt lat="44.54564496514122" lon="8.93550158218903"><ele>352.0</ele><time>2026-04-28T09:20:18.999Z</time></trkpt><trkpt lat="44.5457699190303" lon="8.935392916075475"><ele>352.0</ele><time>2026-04-28T09:20:19.999Z</time></trkpt><trkpt lat="44.54591134049402" lon="8.935277196327547"><ele>352.0</ele><time>2026-04-28T09:20:20.999Z</time></trkpt><trkpt lat="44.54603376431392" lon="8.935151533181847"><ele>352.0</ele><time>2026-04-28T09:20:21.999Z</time></trkpt><trkpt lat="44.54612450504617" lon="8.935031441573162"><ele>352.0</ele><time>2026-04-28T09:20:22.999Z</time></trkpt><trkpt lat="44.54618568781731" lon="8.934893693696994"><ele>354.0</ele><time>2026-04-28T09:20:23.999Z</time></trkpt><trkpt lat="44.54621720198414" lon="8.934734443166384"><ele>356.0</ele><time>2026-04-28T09:20:24.999Z</time></trkpt><trkpt lat="44.546218635377336" lon="8.934562268596505"><ele>358.0</ele><time>2026-04-28T09:20:25.999Z</time></trkpt><trkpt lat="44.546180533723806" lon="8.934372482475004"><ele>360.0</ele><time>2026-04-28T09:20:26.999Z</time></trkpt><trkpt lat="44.5461168637853" lon="8.934132900566762"><ele>360.0</ele><time>2026-04-28T09:20:27.999Z</time></trkpt><trkpt lat="44.54602768918977" lon="8.933854974520953"><ele>360.0</ele><time>2026-04-28T09:20:28.999Z</time></trkpt><trkpt lat="44.545947324968495" lon="8.933590366948598"><ele>360.0</ele><time>2026-04-28T09:20:29.999Z</time></trkpt><trkpt lat="44.54587989058774" lon="8.933355232717428"><ele>360.75</ele><time>2026-04-28T09:20:30.999Z</time></trkpt><trkpt lat="44.54582727856509" lon="8.933161781875176"><ele>361.5</ele><time>2026-04-28T09:20:31.999Z</time></trkpt><trkpt lat="44.54578789263342" lon="8.932992347134917"><ele>362.25</ele><time>2026-04-28T09:20:32.999Z</time></trkpt><trkpt lat="44.545772375722485" lon="8.932845274535346"><ele>363.0</ele><time>2026-04-28T09:20:33.999Z</time></trkpt><trkpt lat="44.54579489580029" lon="8.932691410660949"><ele>363.0</ele><time>2026-04-28T09:20:34.999Z</time></trkpt><trkpt lat="44.54587785159568" lon="8.9325560905505"><ele>363.0</ele><time>2026-04-28T09:20:35.999Z</time></trkpt><trkpt lat="44.545976486943154" lon="8.932411165029256"><ele>363.0</ele><time>2026-04-28T09:20:36.999Z</time></trkpt><trkpt lat="44.54609478251424" lon="8.932227452281225"><ele>363.0</ele><time>2026-04-28T09:20:37.999Z</time></trkpt><trkpt lat="44.54621043631685" lon="8.932089274815109"><ele>368.75</ele><time>2026-04-28T09:20:38.999Z</time></trkpt><trkpt lat="44.546309447811055" lon="8.93197239837287"><ele>374.5</ele><time>2026-04-28T09:20:39.999Z</time></trkpt><trkpt lat="44.54640667418609" lon="8.93185992192991"><ele>380.25</ele><time>2026-04-28T09:20:40.999Z</time></trkpt><trkpt lat="44.54652144477869" lon="8.9317707663048"><ele>386.0</ele><time>2026-04-28T09:20:41.999Z</time></trkpt><trkpt lat="44.5466460569046" lon="8.931746117031173"><ele>386.0</ele><time>2026-04-28T09:20:42.999Z</time></trkpt><trkpt lat="44.546765944723965" lon="8.931729628825003"><ele>386.0</ele><time>2026-04-28T09:20:43.999Z</time></trkpt><trkpt lat="44.54688562051587" lon="8.931713986447102"><ele>386.0</ele><time>2026-04-28T09:20:45Z</time></trkpt><trkpt lat="44.546997061287854" lon="8.931692185489585"><ele>386.0</ele><time>2026-04-28T09:20:46Z</time></trkpt><trkpt lat="44.54711097165185" lon="8.931625596131344"><ele>387.5</ele><time>2026-04-28T09:20:47Z</time></trkpt><trkpt lat="44.54721663429055" lon="8.931526146128476"><ele>389.0</ele><time>2026-04-28T09:20:48Z</time></trkpt><trkpt lat="44.547315114251155" lon="8.931405008770286"><ele>390.5</ele><time>2026-04-28T09:20:49Z</time></trkpt><trkpt lat="44.547395058410125" lon="8.931279585464688"><ele>392.0</ele><time>2026-04-28T09:20:50Z</time></trkpt><trkpt lat="44.54745051144867" lon="8.931137749280298"><ele>392.0</ele><time>2026-04-28T09:20:51Z</time></trkpt><trkpt lat="44.54749462796254" lon="8.930992484479729"><ele>392.0</ele><time>2026-04-28T09:20:52Z</time></trkpt><trkpt lat="44.54754085809983" lon="8.930847874882367"><ele>392.0</ele><time>2026-04-28T09:20:53Z</time></trkpt><trkpt lat="44.54759208352387" lon="8.930690356033567"><ele>392.0</ele><time>2026-04-28T09:20:54Z</time></trkpt><trkpt lat="44.54768050067803" lon="8.930562976416258"><ele>388.25</ele><time>2026-04-28T09:20:55Z</time></trkpt><trkpt lat="44.54779127179944" lon="8.93048052395748"><ele>384.5</ele><time>2026-04-28T09:20:56Z</time></trkpt><trkpt lat="44.54789273235375" lon="8.930381167543231"><ele>380.75</ele><time>2026-04-28T09:20:57Z</time></trkpt><trkpt lat="44.54801530098144" lon="8.930313266252549"><ele>377.0</ele><time>2026-04-28T09:20:58Z</time></trkpt><trkpt lat="44.548129552438404" lon="8.930228627069152"><ele>378.5</ele><time>2026-04-28T09:20:59Z</time></trkpt><trkpt lat="44.548244449844276" lon="8.930129631128382"><ele>380.0</ele><time>2026-04-28T09:21:00Z</time></trkpt><trkpt lat="44.54835448780786" lon="8.930008785036241"><ele>381.5</ele><time>2026-04-28T09:21:01Z</time></trkpt><trkpt lat="44.54846220621194" lon="8.929866445066114"><ele>383.0</ele><time>2026-04-28T09:21:02Z</time></trkpt><trkpt lat="44.54856276857977" lon="8.929718252456544"><ele>383.0</ele><time>2026-04-28T09:21:03Z</time></trkpt><trkpt lat="44.54865236031945" lon="8.929556094657963"><ele>383.0</ele><time>2026-04-28T09:21:04Z</time></trkpt><trkpt lat="44.548736409843066" lon="8.92940938139544"><ele>383.0</ele><time>2026-04-28T09:21:05Z</time></trkpt><trkpt lat="44.54880360396417" lon="8.92926891614141"><ele>383.0</ele><time>2026-04-28T09:21:06Z</time></trkpt><trkpt lat="44.54884271225445" lon="8.929127364102328"><ele>380.4</ele><time>2026-04-28T09:21:07Z</time></trkpt><trkpt lat="44.54884113546161" lon="8.92897837960526"><ele>377.79999999999995</ele><time>2026-04-28T09:21:08Z</time></trkpt><trkpt lat="44.548805955227955" lon="8.928831165421666"><ele>375.2</ele><time>2026-04-28T09:21:09Z</time></trkpt><trkpt lat="44.548732384707584" lon="8.928694517716501"><ele>372.6</ele><time>2026-04-28T09:21:10Z</time></trkpt><trkpt lat="44.54867302804253" lon="8.92857361321001"><ele>370.0</ele><time>2026-04-28T09:21:11Z</time></trkpt><trkpt lat="44.54866113470293" lon="8.928447676373048"><ele>370.2</ele><time>2026-04-28T09:21:12Z</time></trkpt><trkpt lat="44.5486711822031" lon="8.928315732934347"><ele>370.4</ele><time>2026-04-28T09:21:13Z</time></trkpt><trkpt lat="44.548724846157064" lon="8.928179938508862"><ele>370.6</ele><time>2026-04-28T09:21:14Z</time></trkpt><trkpt lat="44.54879623921885" lon="8.928058529324264"><ele>370.8</ele><time>2026-04-28T09:21:15Z</time></trkpt><trkpt lat="44.54885164524489" lon="8.92791462715705"><ele>371.0</ele><time>2026-04-28T09:21:16Z</time></trkpt><trkpt lat="44.54888424963814" lon="8.927740106406123"><ele>379.0</ele><time>2026-04-28T09:21:17Z</time></trkpt><trkpt lat="44.5489114763859" lon="8.927556809518752"><ele>387.0</ele><time>2026-04-28T09:21:18Z</time></trkpt><trkpt lat="44.54891906638385" lon="8.92736737133785"><ele>395.0</ele><time>2026-04-28T09:21:19Z</time></trkpt><trkpt lat="44.54891898983124" lon="8.927205041097892"><ele>403.0</ele><time>2026-04-28T09:21:20Z</time></trkpt><trkpt lat="44.54890641198922" lon="8.927066095719017"><ele>403.0</ele><time>2026-04-28T09:21:21Z</time></trkpt><trkpt lat="44.54888036604469" lon="8.926920545918552"><ele>403.0</ele><time>2026-04-28T09:21:22Z</time></trkpt><trkpt lat="44.54882642036308" lon="8.926791224187525"><ele>403.0</ele><time>2026-04-28T09:21:23Z</time></trkpt><trkpt lat="44.54875539591582" lon="8.926666001988904"><ele>403.0</ele><time>2026-04-28T09:21:24Z</time></trkpt><trkpt lat="44.548669989433" lon="8.926549275836077"><ele>403.0</ele><time>2026-04-28T09:21:25Z</time></trkpt><trkpt lat="44.54858739237332" lon="8.926446367669955"><ele>404.0</ele><time>2026-04-28T09:21:26Z</time></trkpt><trkpt lat="44.548528569471685" lon="8.926320568053184"><ele>405.0</ele><time>2026-04-28T09:21:27Z</time></trkpt><trkpt lat="44.54850345113297" lon="8.926195874390686"><ele>406.0</ele><time>2026-04-28T09:21:28Z</time></trkpt><trkpt lat="44.54857452573096" lon="8.926076874949722"><ele>407.0</ele><time>2026-04-28T09:21:30Z</time></trkpt><trkpt lat="44.548686579743254" lon="8.926075320490824"><ele>408.0</ele><time>2026-04-28T09:21:32Z</time></trkpt><trkpt lat="44.548777492346595" lon="8.926105559061346"><ele>408.0</ele><time>2026-04-28T09:21:33Z</time></trkpt><trkpt lat="44.54885820806782" lon="8.926180131175622"><ele>408.0</ele><time>2026-04-28T09:21:34Z</time></trkpt><trkpt lat="44.54894877621285" lon="8.92630146484954"><ele>408.0</ele><time>2026-04-28T09:21:35Z</time></trkpt><trkpt lat="44.54906645765989" lon="8.926463782384966"><ele>408.0</ele><time>2026-04-28T09:21:36Z</time></trkpt><trkpt lat="44.54916509037435" lon="8.926616903288775"><ele>406.75</ele><time>2026-04-28T09:21:37Z</time></trkpt><trkpt lat="44.549253041069825" lon="8.92673940303332"><ele>405.5</ele><time>2026-04-28T09:21:37.999Z</time></trkpt><trkpt lat="44.549324306849996" lon="8.926853336624081"><ele>404.25</ele><time>2026-04-28T09:21:38.999Z</time></trkpt><trkpt lat="44.54941708124684" lon="8.9269594495514"><ele>403.0</ele><time>2026-04-28T09:21:39.999Z</time></trkpt><trkpt lat="44.54948400936057" lon="8.927093051062045"><ele>409.5</ele><time>2026-04-28T09:21:40.999Z</time></trkpt><trkpt lat="44.54958519679153" lon="8.92721128944007"><ele>416.0</ele><time>2026-04-28T09:21:41.999Z</time></trkpt><trkpt lat="44.54967539879277" lon="8.92737933796711"><ele>422.5</ele><time>2026-04-28T09:21:42.999Z</time></trkpt><trkpt lat="44.54971126431461" lon="8.927585877240762"><ele>429.0</ele><time>2026-04-28T09:21:43.999Z</time></trkpt><trkpt lat="44.54973334694967" lon="8.92782464208698"><ele>429.0</ele><time>2026-04-28T09:21:44.999Z</time></trkpt><trkpt lat="44.549747350561724" lon="8.928103174565194"><ele>429.0</ele><time>2026-04-28T09:21:45.999Z</time></trkpt><trkpt lat="44.549761025595735" lon="8.928375174903561"><ele>429.0</ele><time>2026-04-28T09:21:46.999Z</time></trkpt><trkpt lat="44.549774034188594" lon="8.928603306755726"><ele>431.0</ele><time>2026-04-28T09:21:47.999Z</time></trkpt><trkpt lat="44.54978227415662" lon="8.928788517842554"><ele>433.0</ele><time>2026-04-28T09:21:48.999Z</time></trkpt><trkpt lat="44.549777316748006" lon="8.928944246645845"><ele>435.0</ele><time>2026-04-28T09:21:49.999Z</time></trkpt><trkpt lat="44.54974045378628" lon="8.929061180926857"><ele>437.0</ele><time>2026-04-28T09:21:50.999Z</time></trkpt><trkpt lat="44.549682095937115" lon="8.929154532779732"><ele>439.0</ele><time>2026-04-28T09:21:51.999Z</time></trkpt><trkpt lat="44.54957356922643" lon="8.929261178566787"><ele>434.75</ele><time>2026-04-28T09:21:52.999Z</time></trkpt><trkpt lat="44.549449438207866" lon="8.929393931797474"><ele>430.5</ele><time>2026-04-28T09:21:53.999Z</time></trkpt><trkpt lat="44.549357722906315" lon="8.929528992070042"><ele>426.25</ele><time>2026-04-28T09:21:54.999Z</time></trkpt><trkpt lat="44.549288946842985" lon="8.929699114370322"><ele>422.0</ele><time>2026-04-28T09:21:55.999Z</time></trkpt><trkpt lat="44.549232056093395" lon="8.929904414092366"><ele>427.3333333333333</ele><time>2026-04-28T09:21:56.999Z</time></trkpt><trkpt lat="44.549203568387824" lon="8.930153862290283"><ele>432.66666666666663</ele><time>2026-04-28T09:21:57.999Z</time></trkpt><trkpt lat="44.54920535697505" lon="8.930401057261815"><ele>438.0</ele><time>2026-04-28T09:21:58.999Z</time></trkpt><trkpt lat="44.5492197767043" lon="8.930600691869024"><ele>438.0</ele><time>2026-04-28T09:21:59.999Z</time></trkpt><trkpt lat="44.54920640126247" lon="8.930764839131998"><ele>437.99999999999994</ele><time>2026-04-28T09:22:00.999Z</time></trkpt><trkpt lat="44.5491459862794" lon="8.930893360144132"><ele>437.99999999999994</ele><time>2026-04-28T09:22:01.999Z</time></trkpt><trkpt lat="44.54906230959311" lon="8.930940297371619"><ele>438.0</ele><time>2026-04-28T09:22:02.999Z</time></trkpt><trkpt lat="44.54895588328397" lon="8.930982929158224"><ele>438.0</ele><time>2026-04-28T09:22:03.999Z</time></trkpt><trkpt lat="44.54884823383084" lon="8.931008932663733"><ele>439.59999999999997</ele><time>2026-04-28T09:22:04.999Z</time></trkpt><trkpt lat="44.54876136465963" lon="8.931062543413724"><ele>441.19999999999993</ele><time>2026-04-28T09:22:05.999Z</time></trkpt><trkpt lat="44.54871017227875" lon="8.931177253567922"><ele>442.8</ele><time>2026-04-28T09:22:06.999Z</time></trkpt><trkpt lat="44.54872261802211" lon="8.931340826637106"><ele>444.4</ele><time>2026-04-28T09:22:07.999Z</time></trkpt><trkpt lat="44.5487593925161" lon="8.931476793027683"><ele>446.0</ele><time>2026-04-28T09:22:08.999Z</time></trkpt><trkpt lat="44.548858843277756" lon="8.93164341127275"><ele>448.0</ele><time>2026-04-28T09:22:09.999Z</time></trkpt><trkpt lat="44.548966943479186" lon="8.931817027884463"><ele>450.0</ele><time>2026-04-28T09:22:10.999Z</time></trkpt><trkpt lat="44.54903607092374" lon="8.931985538165355"><ele>452.0</ele><time>2026-04-28T09:22:11.999Z</time></trkpt><trkpt lat="44.54902896497232" lon="8.93212202827266"><ele>454.0</ele><time>2026-04-28T09:22:12.999Z</time></trkpt><trkpt lat="44.548986706804094" lon="8.93225566456107"><ele>454.0</ele><time>2026-04-28T09:22:13.999Z</time></trkpt><trkpt lat="44.548906453125774" lon="8.932387558264125"><ele>454.0</ele><time>2026-04-28T09:22:14.999Z</time></trkpt><trkpt lat="44.54879610234116" lon="8.932509692579208"><ele>454.0</ele><time>2026-04-28T09:22:15.999Z</time></trkpt><trkpt lat="44.54865214118729" lon="8.9326309464917"><ele>454.0</ele><time>2026-04-28T09:22:16.999Z</time></trkpt><trkpt lat="44.54849357388493" lon="8.932812937118976"><ele>452.0</ele><time>2026-04-28T09:22:17.999Z</time></trkpt><trkpt lat="44.548359790715146" lon="8.932978644718728"><ele>450.0</ele><time>2026-04-28T09:22:18.999Z</time></trkpt><trkpt lat="44.548264420736494" lon="8.933117607234303"><ele>448.0</ele><time>2026-04-28T09:22:19.999Z</time></trkpt><trkpt lat="44.548198887248255" lon="8.933267376276602"><ele>446.0</ele><time>2026-04-28T09:22:20.999Z</time></trkpt><trkpt lat="44.54817571143855" lon="8.933436920964438"><ele>445.25</ele><time>2026-04-28T09:22:21.999Z</time></trkpt><trkpt lat="44.548191788520434" lon="8.933631175899285"><ele>444.5</ele><time>2026-04-28T09:22:22.999Z</time></trkpt><trkpt lat="44.5482280833719" lon="8.933807686248569"><ele>443.75</ele><time>2026-04-28T09:22:23.999Z</time></trkpt><trkpt lat="44.54829353250354" lon="8.933967081763415"><ele>443.0</ele><time>2026-04-28T09:22:24.999Z</time></trkpt><trkpt lat="44.548374052888775" lon="8.934109860155624"><ele>443.0</ele><time>2026-04-28T09:22:25.999Z</time></trkpt><trkpt lat="44.548491012964476" lon="8.934199590306413"><ele>443.0</ele><time>2026-04-28T09:22:26.999Z</time></trkpt><trkpt lat="44.54862511183594" lon="8.93423977072741"><ele>443.0</ele><time>2026-04-28T09:22:27.999Z</time></trkpt><trkpt lat="44.54875431719655" lon="8.934244593367728"><ele>443.0</ele><time>2026-04-28T09:22:28.999Z</time></trkpt><trkpt lat="44.54888646979649" lon="8.934211295233919"><ele>444.75</ele><time>2026-04-28T09:22:29.999Z</time></trkpt><trkpt lat="44.549011000190994" lon="8.934151007915448"><ele>446.5</ele><time>2026-04-28T09:22:30.999Z</time></trkpt><trkpt lat="44.54912969983702" lon="8.934102980908671"><ele>448.25</ele><time>2026-04-28T09:22:31.999Z</time></trkpt><trkpt lat="44.54925355918434" lon="8.93404491133435"><ele>450.0</ele><time>2026-04-28T09:22:32.999Z</time></trkpt><trkpt lat="44.54935792155841" lon="8.933988454105359"><ele>450.0</ele><time>2026-04-28T09:22:33.999Z</time></trkpt><trkpt lat="44.549452636890855" lon="8.93399136171576"><ele>450.0</ele><time>2026-04-28T09:22:34.999Z</time></trkpt><trkpt lat="44.5495457100676" lon="8.93404478934587"><ele>450.0</ele><time>2026-04-28T09:22:35.999Z</time></trkpt><trkpt lat="44.549631897366346" lon="8.934138723857664"><ele>450.0</ele><time>2026-04-28T09:22:36.999Z</time></trkpt><trkpt lat="44.54969835815089" lon="8.93429533179791"><ele>450.0</ele><time>2026-04-28T09:22:37.999Z</time></trkpt><trkpt lat="44.549753553433305" lon="8.934484434503183"><ele>451.66666666666663</ele><time>2026-04-28T09:22:38.999Z</time></trkpt><trkpt lat="44.54983100755041" lon="8.934682757825918"><ele>453.3333333333333</ele><time>2026-04-28T09:22:39.999Z</time></trkpt><trkpt lat="44.54991651561489" lon="8.934853344814927"><ele>455.0</ele><time>2026-04-28T09:22:40.999Z</time></trkpt><trkpt lat="44.550019503416884" lon="8.934989996769401"><ele>452.66666666666663</ele><time>2026-04-28T09:22:41.999Z</time></trkpt><trkpt lat="44.550150900317725" lon="8.935096048473643"><ele>450.33333333333337</ele><time>2026-04-28T09:22:42.999Z</time></trkpt><trkpt lat="44.55030798779797" lon="8.935148343287429"><ele>448.0</ele><time>2026-04-28T09:22:43.999Z</time></trkpt><trkpt lat="44.55046209915223" lon="8.935206899819445"><ele>452.0</ele><time>2026-04-28T09:22:44.999Z</time></trkpt><trkpt lat="44.55059586100059" lon="8.93529054247664"><ele>456.0</ele><time>2026-04-28T09:22:45.999Z</time></trkpt><trkpt lat="44.55071132071004" lon="8.935370679958334"><ele>460.0</ele><time>2026-04-28T09:22:46.999Z</time></trkpt><trkpt lat="44.55083010255187" lon="8.935516194966157"><ele>464.0</ele><time>2026-04-28T09:22:47.999Z</time></trkpt><trkpt lat="44.550940943877514" lon="8.93566198358061"><ele>464.0</ele><time>2026-04-28T09:22:48.999Z</time></trkpt><trkpt lat="44.55104237307193" lon="8.935791591952201"><ele>464.0</ele><time>2026-04-28T09:22:49.999Z</time></trkpt><trkpt lat="44.551135292907034" lon="8.935917024739407"><ele>464.0</ele><time>2026-04-28T09:22:51Z</time></trkpt><trkpt lat="44.551229923252585" lon="8.93606589251921"><ele>464.0</ele><time>2026-04-28T09:22:52Z</time></trkpt><trkpt lat="44.55132653537216" lon="8.936200970903181"><ele>465.5</ele><time>2026-04-28T09:22:53Z</time></trkpt><trkpt lat="44.55142667124149" lon="8.9363300974301"><ele>467.0</ele><time>2026-04-28T09:22:54Z</time></trkpt><trkpt lat="44.551533551454895" lon="8.936473316098454"><ele>468.5</ele><time>2026-04-28T09:22:55Z</time></trkpt><trkpt lat="44.55164194882084" lon="8.93660058430989"><ele>470.0</ele><time>2026-04-28T09:22:56Z</time></trkpt><trkpt lat="44.55175278581782" lon="8.936694969856761"><ele>469.0</ele><time>2026-04-28T09:22:57Z</time></trkpt><trkpt lat="44.5518747480113" lon="8.936766902342816"><ele>468.0</ele><time>2026-04-28T09:22:58Z</time></trkpt><trkpt lat="44.55198696592875" lon="8.93681127627669"><ele>467.0</ele><time>2026-04-28T09:22:59Z</time></trkpt><trkpt lat="44.552090503348786" lon="8.936860625431411"><ele>466.0</ele><time>2026-04-28T09:23:00Z</time></trkpt><trkpt lat="44.5521765549756" lon="8.93690272403258"><ele>465.0</ele><time>2026-04-28T09:23:01Z</time></trkpt><trkpt lat="44.55226268296543" lon="8.936946153623406"><ele>467.3333333333333</ele><time>2026-04-28T09:23:02Z</time></trkpt><trkpt lat="44.55234759098879" lon="8.936994482880284"><ele>469.66666666666663</ele><time>2026-04-28T09:23:03Z</time></trkpt><trkpt lat="44.55242784785532" lon="8.937037520990545"><ele>472.0</ele><time>2026-04-28T09:23:04Z</time></trkpt><trkpt lat="44.55250309719638" lon="8.937080032778313"><ele>474.3333333333333</ele><time>2026-04-28T09:23:05Z</time></trkpt><trkpt lat="44.552584029470225" lon="8.937137173936822"><ele>476.66666666666663</ele><time>2026-04-28T09:23:06Z</time></trkpt><trkpt lat="44.55265639073203" lon="8.937191485443552"><ele>479.0</ele><time>2026-04-28T09:23:07Z</time></trkpt><trkpt lat="44.55273990193649" lon="8.937234237340322"><ele>479.0</ele><time>2026-04-28T09:23:08Z</time></trkpt><trkpt lat="44.552826478248065" lon="8.937275067018843"><ele>479.0</ele><time>2026-04-28T09:23:09Z</time></trkpt><trkpt lat="44.55292660901263" lon="8.93732480508016"><ele>479.0</ele><time>2026-04-28T09:23:10Z</time></trkpt><trkpt lat="44.553033098432515" lon="8.937362809418028"><ele>479.0</ele><time>2026-04-28T09:23:11Z</time></trkpt><trkpt lat="44.55312125528726" lon="8.937417448986384"><ele>479.0</ele><time>2026-04-28T09:23:12Z</time></trkpt><trkpt lat="44.55322300978629" lon="8.93749455530136"><ele>480.5</ele><time>2026-04-28T09:23:13Z</time></trkpt><trkpt lat="44.553328631965734" lon="8.937577960425815"><ele>482.0</ele><time>2026-04-28T09:23:14Z</time></trkpt><trkpt lat="44.553423308398266" lon="8.93767017366654"><ele>483.5</ele><time>2026-04-28T09:23:15Z</time></trkpt><trkpt lat="44.5535186807855" lon="8.937770554101338"><ele>485.0</ele><time>2026-04-28T09:23:16Z</time></trkpt><trkpt lat="44.55361705515426" lon="8.93785933464626"><ele>480.5</ele><time>2026-04-28T09:23:17Z</time></trkpt><trkpt lat="44.5537129867683" lon="8.93795203070062"><ele>476.0</ele><time>2026-04-28T09:23:18Z</time></trkpt><trkpt lat="44.55381477420321" lon="8.938037403719166"><ele>471.5</ele><time>2026-04-28T09:23:19Z</time></trkpt><trkpt lat="44.55389686583234" lon="8.938124632817347"><ele>467.0</ele><time>2026-04-28T09:23:20Z</time></trkpt><trkpt lat="44.55399701982791" lon="8.938196538473681"><ele>467.0</ele><time>2026-04-28T09:23:21Z</time></trkpt><trkpt lat="44.55410332413564" lon="8.938248713744764"><ele>467.0</ele><time>2026-04-28T09:23:22Z</time></trkpt><trkpt lat="44.554210534886565" lon="8.938288035437566"><ele>467.0</ele><time>2026-04-28T09:23:23Z</time></trkpt><trkpt lat="44.55434715546559" lon="8.938319670326115"><ele>467.0</ele><time>2026-04-28T09:23:24Z</time></trkpt><trkpt lat="44.55451297317599" lon="8.93835199933931"><ele>470.66666666666663</ele><time>2026-04-28T09:23:25Z</time></trkpt><trkpt lat="44.55468456304691" lon="8.938410695033504"><ele>474.33333333333337</ele><time>2026-04-28T09:23:26Z</time></trkpt><trkpt lat="44.554852059113045" lon="8.938475926128413"><ele>478.0</ele><time>2026-04-28T09:23:27Z</time></trkpt><trkpt lat="44.555014160780594" lon="8.938528124778637"><ele>478.0</ele><time>2026-04-28T09:23:28Z</time></trkpt><trkpt lat="44.55515527688703" lon="8.938593509404345"><ele>478.0</ele><time>2026-04-28T09:23:29Z</time></trkpt><trkpt lat="44.55530424498162" lon="8.938719285676573"><ele>478.0</ele><time>2026-04-28T09:23:30Z</time></trkpt><trkpt lat="44.55541651475854" lon="8.9388437751912"><ele>469.33333333333337</ele><time>2026-04-28T09:23:31Z</time></trkpt><trkpt lat="44.55556266558821" lon="8.938966700898606"><ele>460.66666666666663</ele><time>2026-04-28T09:23:32Z</time></trkpt><trkpt lat="44.555717448717665" lon="8.939080125277444"><ele>452.0</ele><time>2026-04-28T09:23:33Z</time></trkpt><trkpt lat="44.555869436933634" lon="8.939203821982359"><ele>448.3333333333333</ele><time>2026-04-28T09:23:34Z</time></trkpt><trkpt lat="44.55598926722103" lon="8.9393650609156"><ele>444.66666666666663</ele><time>2026-04-28T09:23:35Z</time></trkpt><trkpt lat="44.55612846403634" lon="8.939578663959244"><ele>441.0</ele><time>2026-04-28T09:23:36Z</time></trkpt><trkpt lat="44.55624921286574" lon="8.939684381033516"><ele>441.0</ele><time>2026-04-28T09:23:37Z</time></trkpt><trkpt lat="44.55638561401286" lon="8.939807549181628"><ele>441.0</ele><time>2026-04-28T09:23:38Z</time></trkpt><trkpt lat="44.55650731294973" lon="8.939924134912806"><ele>441.0</ele><time>2026-04-28T09:23:39Z</time></trkpt><trkpt lat="44.5566205193" lon="8.94007381119298"><ele>447.25</ele><time>2026-04-28T09:23:40Z</time></trkpt><trkpt lat="44.55669563334813" lon="8.940213517620526"><ele>453.5</ele><time>2026-04-28T09:23:41Z</time></trkpt><trkpt lat="44.55679786466557" lon="8.940273480675422"><ele>459.75</ele><time>2026-04-28T09:23:42Z</time></trkpt><trkpt lat="44.55688832266952" lon="8.94027969922236"><ele>466.0</ele><time>2026-04-28T09:23:43Z</time></trkpt><trkpt lat="44.55701213084454" lon="8.94026194972189"><ele>464.33333333333337</ele><time>2026-04-28T09:23:44Z</time></trkpt><trkpt lat="44.557165033046495" lon="8.940247859459054"><ele>462.66666666666663</ele><time>2026-04-28T09:23:44.999Z</time></trkpt><trkpt lat="44.5573131078251" lon="8.940196647571096"><ele>461.0</ele><time>2026-04-28T09:23:45.999Z</time></trkpt><trkpt lat="44.557454496019616" lon="8.940156651746362"><ele>461.0</ele><time>2026-04-28T09:23:46.999Z</time></trkpt><trkpt lat="44.55761384804036" lon="8.940120548012981"><ele>461.0</ele><time>2026-04-28T09:23:47.999Z</time></trkpt><trkpt lat="44.55772875169943" lon="8.940050993776783"><ele>461.0</ele><time>2026-04-28T09:23:48.999Z</time></trkpt><trkpt lat="44.55790963881246" lon="8.94002095909068"><ele>451.3333333333333</ele><time>2026-04-28T09:23:49.999Z</time></trkpt><trkpt lat="44.55806021433004" lon="8.939998778180733"><ele>441.66666666666663</ele><time>2026-04-28T09:23:50.999Z</time></trkpt><trkpt lat="44.55820936614681" lon="8.94000285218087"><ele>432.0</ele><time>2026-04-28T09:23:51.999Z</time></trkpt><trkpt lat="44.55836809180269" lon="8.940024979125992"><ele>436.66666666666663</ele><time>2026-04-28T09:23:52.999Z</time></trkpt><trkpt lat="44.55857612629175" lon="8.940095252191778"><ele>441.3333333333333</ele><time>2026-04-28T09:23:53.999Z</time></trkpt><trkpt lat="44.558763080453694" lon="8.940197332729968"><ele>446.0</ele><time>2026-04-28T09:23:54.999Z</time></trkpt><trkpt lat="44.55893055866119" lon="8.940292282884915"><ele>446.0</ele><time>2026-04-28T09:23:55.999Z</time></trkpt><trkpt lat="44.55908553714904" lon="8.940394809134082"><ele>446.0</ele><time>2026-04-28T09:23:56.999Z</time></trkpt><trkpt lat="44.5592552694621" lon="8.940431640673388"><ele>446.0</ele><time>2026-04-28T09:23:57.999Z</time></trkpt><trkpt lat="44.55939942497889" lon="8.940406315036812"><ele>443.66666666666663</ele><time>2026-04-28T09:23:58.999Z</time></trkpt><trkpt lat="44.559592921982095" lon="8.940400977699374"><ele>441.33333333333337</ele><time>2026-04-28T09:23:59.999Z</time></trkpt><trkpt lat="44.55974587346785" lon="8.940407458030416"><ele>439.0</ele><time>2026-04-28T09:24:00.999Z</time></trkpt><trkpt lat="44.55994332725311" lon="8.940414470466296"><ele>439.0</ele><time>2026-04-28T09:24:01.999Z</time></trkpt><trkpt lat="44.56015915870627" lon="8.940421860321006"><ele>439.0</ele><time>2026-04-28T09:24:02.999Z</time></trkpt><trkpt lat="44.56039365720347" lon="8.940429833471706"><ele>435.6666666666667</ele><time>2026-04-28T09:24:03.999Z</time></trkpt><trkpt lat="44.56056339115818" lon="8.940429833069308"><ele>432.33333333333337</ele><time>2026-04-28T09:24:04.999Z</time></trkpt><trkpt lat="44.56072623970071" lon="8.940437140242615"><ele>429.0</ele><time>2026-04-28T09:24:05.999Z</time></trkpt><trkpt lat="44.560856947307975" lon="8.94042853528159"><ele>429.0</ele><time>2026-04-28T09:24:06.999Z</time></trkpt><trkpt lat="44.561000677397224" lon="8.940428742040554"><ele>429.0</ele><time>2026-04-28T09:24:07.999Z</time></trkpt><trkpt lat="44.561135036939866" lon="8.940448392706864"><ele>429.0</ele><time>2026-04-28T09:24:08.999Z</time></trkpt><trkpt lat="44.56130932764998" lon="8.940458427381923"><ele>425.0</ele><time>2026-04-28T09:24:09.999Z</time></trkpt><trkpt lat="44.56148495319842" lon="8.940471266862666"><ele>421.0</ele><time>2026-04-28T09:24:10.999Z</time></trkpt><trkpt lat="44.561659187823096" lon="8.940499964966929"><ele>417.0</ele><time>2026-04-28T09:24:11.999Z</time></trkpt><trkpt lat="44.56188077584265" lon="8.940546379719162"><ele>412.0</ele><time>2026-04-28T09:24:12.999Z</time></trkpt><trkpt lat="44.562066223157714" lon="8.940640379810512"><ele>407.0</ele><time>2026-04-28T09:24:13.999Z</time></trkpt><trkpt lat="44.56223832069455" lon="8.940730551001998"><ele>402.0</ele><time>2026-04-28T09:24:14.999Z</time></trkpt><trkpt lat="44.56239371730929" lon="8.940845126279509"><ele>407.66666666666663</ele><time>2026-04-28T09:24:15.999Z</time></trkpt><trkpt lat="44.56252081536756" lon="8.941013831542023"><ele>413.3333333333333</ele><time>2026-04-28T09:24:16.999Z</time></trkpt><trkpt lat="44.562671286908405" lon="8.941166170541106"><ele>419.0</ele><time>2026-04-28T09:24:17.999Z</time></trkpt><trkpt lat="44.562804338042206" lon="8.94132159366752"><ele>413.66666666666663</ele><time>2026-04-28T09:24:18.999Z</time></trkpt><trkpt lat="44.56292100321327" lon="8.941486627198943"><ele>408.33333333333337</ele><time>2026-04-28T09:24:19.999Z</time></trkpt><trkpt lat="44.56306048327292" lon="8.941622172106358"><ele>403.0</ele><time>2026-04-28T09:24:20.999Z</time></trkpt><trkpt lat="44.5631796435483" lon="8.941791562634979"><ele>403.0</ele><time>2026-04-28T09:24:21.999Z</time></trkpt><trkpt lat="44.5633149893872" lon="8.94195093265905"><ele>403.0</ele><time>2026-04-28T09:24:22.999Z</time></trkpt><trkpt lat="44.56344978464071" lon="8.942108105398708"><ele>403.0</ele><time>2026-04-28T09:24:23.999Z</time></trkpt><trkpt lat="44.56357468175245" lon="8.942235678097125"><ele>401.0</ele><time>2026-04-28T09:24:24.999Z</time></trkpt><trkpt lat="44.563701771249434" lon="8.942389014083576"><ele>399.0</ele><time>2026-04-28T09:24:25.999Z</time></trkpt><trkpt lat="44.56382912989598" lon="8.94255814391687"><ele>397.0</ele><time>2026-04-28T09:24:26.999Z</time></trkpt><trkpt lat="44.563959729894755" lon="8.94270977848679"><ele>393.33333333333337</ele><time>2026-04-28T09:24:27.999Z</time></trkpt><trkpt lat="44.56409286658649" lon="8.94286372737575"><ele>389.66666666666663</ele><time>2026-04-28T09:24:28.999Z</time></trkpt><trkpt lat="44.56422713285957" lon="8.94300672902447"><ele>386.0</ele><time>2026-04-28T09:24:29.999Z</time></trkpt><trkpt lat="44.5643538597031" lon="8.943154657411787"><ele>386.0</ele><time>2026-04-28T09:24:30.999Z</time></trkpt><trkpt lat="44.564480495922325" lon="8.943298946611492"><ele>386.0</ele><time>2026-04-28T09:24:31.999Z</time></trkpt><trkpt lat="44.56459821250386" lon="8.943439544889173"><ele>386.0</ele><time>2026-04-28T09:24:32.999Z</time></trkpt><trkpt lat="44.56471339018517" lon="8.943568349000834"><ele>385.0</ele><time>2026-04-28T09:24:33.999Z</time></trkpt><trkpt lat="44.564830140078534" lon="8.943689273554307"><ele>384.0</ele><time>2026-04-28T09:24:34.999Z</time></trkpt><trkpt lat="44.56495039706192" lon="8.943796145363072"><ele>383.0</ele><time>2026-04-28T09:24:35.999Z</time></trkpt><trkpt lat="44.56506763622273" lon="8.943879370293596"><ele>382.0</ele><time>2026-04-28T09:24:36.999Z</time></trkpt><trkpt lat="44.565207432060234" lon="8.943985646813015"><ele>382.0</ele><time>2026-04-28T09:24:37.999Z</time></trkpt><trkpt lat="44.56535783089394" lon="8.94408734532405"><ele>382.0</ele><time>2026-04-28T09:24:38.999Z</time></trkpt><trkpt lat="44.56549370489644" lon="8.944167356744506"><ele>382.0</ele><time>2026-04-28T09:24:39.999Z</time></trkpt><trkpt lat="44.565619115243756" lon="8.944257393777669"><ele>381.75</ele><time>2026-04-28T09:24:40.999Z</time></trkpt><trkpt lat="44.56574279052478" lon="8.944341775378279"><ele>381.5</ele><time>2026-04-28T09:24:41.999Z</time></trkpt><trkpt lat="44.565858616301774" lon="8.944430747995257"><ele>381.25</ele><time>2026-04-28T09:24:42.999Z</time></trkpt><trkpt lat="44.56596958580967" lon="8.944515116136573"><ele>381.0</ele><time>2026-04-28T09:24:43.999Z</time></trkpt><trkpt lat="44.56607756474407" lon="8.94459178322577"><ele>381.3333333333333</ele><time>2026-04-28T09:24:44.999Z</time></trkpt><trkpt lat="44.56620515107108" lon="8.944680347887338"><ele>381.66666666666663</ele><time>2026-04-28T09:24:45.999Z</time></trkpt><trkpt lat="44.56636001413001" lon="8.944803049762465"><ele>382.0</ele><time>2026-04-28T09:24:46.999Z</time></trkpt><trkpt lat="44.56649683625227" lon="8.944910463622271"><ele>382.0</ele><time>2026-04-28T09:24:47.999Z</time></trkpt><trkpt lat="44.56662569352239" lon="8.945013427150164"><ele>382.0</ele><time>2026-04-28T09:24:48.999Z</time></trkpt><trkpt lat="44.56674045761524" lon="8.945097720051525"><ele>382.0</ele><time>2026-04-28T09:24:49.999Z</time></trkpt><trkpt lat="44.56686019971519" lon="8.945141073531218"><ele>382.0</ele><time>2026-04-28T09:24:50.999Z</time></trkpt><trkpt lat="44.566981090217915" lon="8.945237204008812"><ele>380.75</ele><time>2026-04-28T09:24:51.999Z</time></trkpt><trkpt lat="44.567090541146634" lon="8.945321493341616"><ele>379.5</ele><time>2026-04-28T09:24:52.999Z</time></trkpt><trkpt lat="44.56721010865191" lon="8.945395067034063"><ele>378.25</ele><time>2026-04-28T09:24:53.999Z</time></trkpt><trkpt lat="44.567334017415334" lon="8.945483638353949"><ele>377.0</ele><time>2026-04-28T09:24:54.999Z</time></trkpt><trkpt lat="44.567468534333976" lon="8.945579286975676"><ele>377.0</ele><time>2026-04-28T09:24:55.999Z</time></trkpt><trkpt lat="44.56758851390567" lon="8.945664564914175"><ele>377.0</ele><time>2026-04-28T09:24:57Z</time></trkpt><trkpt lat="44.567697994319246" lon="8.945742909969056"><ele>377.0</ele><time>2026-04-28T09:24:58Z</time></trkpt><trkpt lat="44.567812726647986" lon="8.945823664693489"><ele>377.0</ele><time>2026-04-28T09:24:59Z</time></trkpt><trkpt lat="44.567933199748424" lon="8.945898632287182"><ele>376.25</ele><time>2026-04-28T09:25:00Z</time></trkpt><trkpt lat="44.56805009771666" lon="8.945987072293743"><ele>375.5</ele><time>2026-04-28T09:25:01Z</time></trkpt><trkpt lat="44.56815730005663" lon="8.946058801626998"><ele>374.75</ele><time>2026-04-28T09:25:02Z</time></trkpt><trkpt lat="44.568275179586784" lon="8.946111352414828"><ele>374.0</ele><time>2026-04-28T09:25:03Z</time></trkpt><trkpt lat="44.56841159748991" lon="8.946145588634927"><ele>374.0</ele><time>2026-04-28T09:25:04Z</time></trkpt><trkpt lat="44.56855112929411" lon="8.946157021606762"><ele>374.0</ele><time>2026-04-28T09:25:05Z</time></trkpt><trkpt lat="44.568683550056555" lon="8.946146753744294"><ele>374.0</ele><time>2026-04-28T09:25:06Z</time></trkpt><trkpt lat="44.56882462838004" lon="8.946141833496634"><ele>374.0</ele><time>2026-04-28T09:25:07Z</time></trkpt><trkpt lat="44.56895742734599" lon="8.946124120033199"><ele>372.5</ele><time>2026-04-28T09:25:08Z</time></trkpt><trkpt lat="44.569090797322694" lon="8.946108060282212"><ele>371.0</ele><time>2026-04-28T09:25:09Z</time></trkpt><trkpt lat="44.569219783994754" lon="8.946100054896952"><ele>369.5</ele><time>2026-04-28T09:25:10Z</time></trkpt><trkpt lat="44.56935167665744" lon="8.94608180713885"><ele>368.0</ele><time>2026-04-28T09:25:11Z</time></trkpt><trkpt lat="44.56948183796886" lon="8.946069642927965"><ele>368.25</ele><time>2026-04-28T09:25:12Z</time></trkpt><trkpt lat="44.56960547390067" lon="8.946066601926416"><ele>368.5</ele><time>2026-04-28T09:25:13Z</time></trkpt><trkpt lat="44.56972495441076" lon="8.94605425095048"><ele>368.75</ele><time>2026-04-28T09:25:14Z</time></trkpt><trkpt lat="44.56985065238572" lon="8.946044694558815"><ele>369.0</ele><time>2026-04-28T09:25:15Z</time></trkpt><trkpt lat="44.56995825248453" lon="8.946023982041206"><ele>369.0</ele><time>2026-04-28T09:25:16Z</time></trkpt><trkpt lat="44.57006164906763" lon="8.945972907239398"><ele>369.0</ele><time>2026-04-28T09:25:17Z</time></trkpt><trkpt lat="44.57015027903082" lon="8.945911912583338"><ele>369.0</ele><time>2026-04-28T09:25:18Z</time></trkpt><trkpt lat="44.57023672144844" lon="8.945862703749295"><ele>369.0</ele><time>2026-04-28T09:25:19Z</time></trkpt><trkpt lat="44.57031913049223" lon="8.945824747321051"><ele>369.0</ele><time>2026-04-28T09:25:20Z</time></trkpt><trkpt lat="44.570385484090586" lon="8.945795863736171"><ele>369.0</ele><time>2026-04-28T09:25:21Z</time></trkpt><trkpt lat="44.57045780460216" lon="8.945851979853344"><ele>369.0</ele><time>2026-04-28T09:25:24Z</time></trkpt><trkpt lat="44.57049272823858" lon="8.945932653387068"><ele>369.0</ele><time>2026-04-28T09:25:26Z</time></trkpt><trkpt lat="44.570355339505966" lon="8.945990964770168"><ele>369.0</ele><time>2026-04-28T09:25:27Z</time></trkpt><trkpt lat="44.57026970940553" lon="8.946071314921213"><ele>369.0</ele><time>2026-04-28T09:25:28Z</time></trkpt><trkpt lat="44.57018760771832" lon="8.946158060961707"><ele>369.0</ele><time>2026-04-28T09:25:29Z</time></trkpt><trkpt lat="44.57010226020038" lon="8.946247623369823"><ele>369.0</ele><time>2026-04-28T09:25:30Z</time></trkpt><trkpt lat="44.57002680501306" lon="8.946327205491203"><ele>369.0</ele><time>2026-04-28T09:25:31Z</time></trkpt><trkpt lat="44.56996915312902" lon="8.94640038987222"><ele>369.0</ele><time>2026-04-28T09:25:32Z</time></trkpt><trkpt lat="44.56986039991432" lon="8.946490785162355"><ele>369.0</ele><time>2026-04-28T09:25:34Z</time></trkpt><trkpt lat="44.56976019407775" lon="8.946587624742344"><ele>369.0</ele><time>2026-04-28T09:25:36Z</time></trkpt><trkpt lat="44.569697447840355" lon="8.946649479822165"><ele>369.0</ele><time>2026-04-28T09:25:37Z</time></trkpt><trkpt lat="44.5696465786758" lon="8.946715135004197"><ele>369.0</ele><time>2026-04-28T09:25:38Z</time></trkpt><trkpt lat="44.569551697459744" lon="8.946788823105397"><ele>369.0</ele><time>2026-04-28T09:25:40Z</time></trkpt><trkpt lat="44.569480955127496" lon="8.946774853499551"><ele>369.0</ele><time>2026-04-28T09:25:43Z</time></trkpt><trkpt lat="44.56947229134469" lon="8.946660698309723"><ele>369.0</ele><time>2026-04-28T09:25:45Z</time></trkpt><trkpt lat="44.56944589279435" lon="8.946564189129498"><ele>368.8333333333333</ele><time>2026-04-28T09:25:47Z</time></trkpt><trkpt lat="44.569377027427194" lon="8.946568436268239"><ele>368.6666666666667</ele><time>2026-04-28T09:25:49Z</time></trkpt><trkpt lat="44.56937391594911" lon="8.946671282476053"><ele>368.5</ele><time>2026-04-28T09:27:01.999Z</time></trkpt><trkpt lat="44.56944738273688" lon="8.94672194061326"><ele>368.33333333333337</ele><time>2026-04-28T09:32:30.999Z</time></trkpt><trkpt lat="44.56944811277954" lon="8.946831138160448"><ele>368.1666666666667</ele><time>2026-04-28T09:32:32.999Z</time></trkpt><trkpt lat="44.56941180614882" lon="8.946938889372621"><ele>368.0</ele><time>2026-04-28T09:32:37.999Z</time></trkpt><trkpt lat="44.56936135439636" lon="8.947029815360391"><ele>367.2</ele><time>2026-04-28T09:32:39.999Z</time></trkpt><trkpt lat="44.569248195505715" lon="8.947105785899037"><ele>366.4</ele><time>2026-04-28T09:32:41.999Z</time></trkpt><trkpt lat="44.569167835206706" lon="8.947142188742356"><ele>365.59999999999997</ele><time>2026-04-28T09:32:42.999Z</time></trkpt><trkpt lat="44.56909723134488" lon="8.947207238617645"><ele>364.79999999999995</ele><time>2026-04-28T09:32:43.999Z</time></trkpt><trkpt lat="44.56901737790982" lon="8.947271819447492"><ele>364.0</ele><time>2026-04-28T09:32:44.999Z</time></trkpt><trkpt lat="44.568939596483446" lon="8.947348724606591"><ele>364.0</ele><time>2026-04-28T09:32:46.999Z</time></trkpt><trkpt lat="44.568886115423844" lon="8.94740128562319"><ele>364.0</ele><time>2026-04-28T09:32:47.999Z</time></trkpt><trkpt lat="44.56877013848985" lon="8.947430015365388"><ele>364.0</ele><time>2026-04-28T09:32:48.999Z</time></trkpt><trkpt lat="44.56870373867588" lon="8.947477801708164"><ele>364.0</ele><time>2026-04-28T09:32:49.999Z</time></trkpt><trkpt lat="44.56864337502392" lon="8.9475146175009"><ele>364.0</ele><time>2026-04-28T09:32:50.999Z</time></trkpt><trkpt lat="44.56859179327505" lon="8.947574502995211"><ele>364.0</ele><time>2026-04-28T09:32:53.999Z</time></trkpt><trkpt lat="44.56853083771088" lon="8.947631498447162"><ele>363.66666666666663</ele><time>2026-04-28T09:32:55.999Z</time></trkpt><trkpt lat="44.56847830235948" lon="8.947693460651452"><ele>363.3333333333333</ele><time>2026-04-28T09:32:57.999Z</time></trkpt><trkpt lat="44.56841305221362" lon="8.947693308311427"><ele>363.0</ele><time>2026-04-28T09:32:58.999Z</time></trkpt><trkpt lat="44.56831246366701" lon="8.947764578103888"><ele>362.6666666666667</ele><time>2026-04-28T09:33:00.999Z</time></trkpt><trkpt lat="44.56824641951071" lon="8.94784304820081"><ele>362.33333333333337</ele><time>2026-04-28T09:33:02.999Z</time></trkpt><trkpt lat="44.56821050203689" lon="8.947916857303783"><ele>362.0</ele><time>2026-04-28T09:33:03.999Z</time></trkpt><trkpt lat="44.56815668444352" lon="8.947975939331045"><ele>362.0</ele><time>2026-04-28T09:33:04.999Z</time></trkpt><trkpt lat="44.5681054741337" lon="8.9480440136395"><ele>362.0</ele><time>2026-04-28T09:33:05.999Z</time></trkpt><trkpt lat="44.56805971237735" lon="8.948107589125657"><ele>362.0</ele><time>2026-04-28T09:33:06.999Z</time></trkpt><trkpt lat="44.568028487909785" lon="8.94818694843821"><ele>362.0</ele><time>2026-04-28T09:33:07.999Z</time></trkpt><trkpt lat="44.5679587393275" lon="8.94832472138331"><ele>362.0</ele><time>2026-04-28T09:33:09.999Z</time></trkpt><trkpt lat="44.56788686900283" lon="8.948344468410728"><ele>362.0</ele><time>2026-04-28T09:33:10.999Z</time></trkpt><trkpt lat="44.56784500285689" lon="8.94843251586525"><ele>363.5</ele><time>2026-04-28T09:33:11.999Z</time></trkpt><trkpt lat="44.567812759657635" lon="8.948544935680038"><ele>365.0</ele><time>2026-04-28T09:33:12.999Z</time></trkpt><trkpt lat="44.567787924935836" lon="8.948644960739168"><ele>366.5</ele><time>2026-04-28T09:33:13.999Z</time></trkpt><trkpt lat="44.56780960061861" lon="8.948775505601226"><ele>368.0</ele><time>2026-04-28T09:33:14.999Z</time></trkpt><trkpt lat="44.56778360077085" lon="8.94886888731382"><ele>369.5</ele><time>2026-04-28T09:33:15.999Z</time></trkpt><trkpt lat="44.567759696622204" lon="8.948973859739672"><ele>371.0</ele><time>2026-04-28T09:33:16.999Z</time></trkpt><trkpt lat="44.56769378976941" lon="8.949097598870448"><ele>370.6</ele><time>2026-04-28T09:33:17.999Z</time></trkpt><trkpt lat="44.567676669834114" lon="8.949236154219403"><ele>370.20000000000005</ele><time>2026-04-28T09:33:18.999Z</time></trkpt><trkpt lat="44.56766184197248" lon="8.949380456889084"><ele>369.79999999999995</ele><time>2026-04-28T09:33:19.999Z</time></trkpt><trkpt lat="44.567663734482984" lon="8.94952908669395"><ele>369.4</ele><time>2026-04-28T09:33:21Z</time></trkpt><trkpt lat="44.56765602542528" lon="8.949663665196187"><ele>369.0</ele><time>2026-04-28T09:33:22Z</time></trkpt><trkpt lat="44.567637408863085" lon="8.94982401208307"><ele>369.0</ele><time>2026-04-28T09:33:23Z</time></trkpt><trkpt lat="44.56760320857435" lon="8.949973403771352"><ele>369.0</ele><time>2026-04-28T09:33:24Z</time></trkpt><trkpt lat="44.56758650922743" lon="8.950124711778948"><ele>369.0</ele><time>2026-04-28T09:33:25Z</time></trkpt><trkpt lat="44.567569299546854" lon="8.95027741915199"><ele>369.0</ele><time>2026-04-28T09:33:26Z</time></trkpt><trkpt lat="44.56754982509588" lon="8.95043119635475"><ele>369.0</ele><time>2026-04-28T09:33:27Z</time></trkpt><trkpt lat="44.56752107151897" lon="8.95064664677362"><ele>369.2</ele><time>2026-04-28T09:33:28Z</time></trkpt><trkpt lat="44.56749984137705" lon="8.950809249272593"><ele>369.4</ele><time>2026-04-28T09:33:29Z</time></trkpt><trkpt lat="44.56747081715019" lon="8.950941525481095"><ele>369.6</ele><time>2026-04-28T09:33:30Z</time></trkpt><trkpt lat="44.567456406247864" lon="8.95109548592582"><ele>369.8</ele><time>2026-04-28T09:33:31Z</time></trkpt><trkpt lat="44.56743413510071" lon="8.951257864184841"><ele>370.0</ele><time>2026-04-28T09:33:32Z</time></trkpt><trkpt lat="44.56743462375738" lon="8.951415858025735"><ele>370.0</ele><time>2026-04-28T09:33:33Z</time></trkpt><trkpt lat="44.56742335758442" lon="8.951565456258852"><ele>370.0</ele><time>2026-04-28T09:33:34Z</time></trkpt><trkpt lat="44.567414283395756" lon="8.95170210537176"><ele>370.0</ele><time>2026-04-28T09:33:35Z</time></trkpt><trkpt lat="44.56740499415249" lon="8.951841960537827"><ele>370.0</ele><time>2026-04-28T09:33:36Z</time></trkpt><trkpt lat="44.567383048931646" lon="8.951957419878294"><ele>370.0</ele><time>2026-04-28T09:33:37Z</time></trkpt><trkpt lat="44.56737750041116" lon="8.952070337657316"><ele>369.8333333333333</ele><time>2026-04-28T09:33:38Z</time></trkpt><trkpt lat="44.56737336335364" lon="8.952178082436808"><ele>369.66666666666663</ele><time>2026-04-28T09:33:39Z</time></trkpt><trkpt lat="44.567369582683625" lon="8.952282027308712"><ele>369.5</ele><time>2026-04-28T09:33:40Z</time></trkpt><trkpt lat="44.5673687818833" lon="8.952434878876069"><ele>369.3333333333333</ele><time>2026-04-28T09:33:42Z</time></trkpt><trkpt lat="44.56736503708711" lon="8.952580022376441"><ele>369.1666666666667</ele><time>2026-04-28T09:33:44Z</time></trkpt><trkpt lat="44.567371049366685" lon="8.952688011736985"><ele>369.0</ele><time>2026-04-28T09:33:46Z</time></trkpt><trkpt lat="44.567373060286116" lon="8.952816738563234"><ele>368.4</ele><time>2026-04-28T09:33:49Z</time></trkpt><trkpt lat="44.56736941881886" lon="8.952961559350458"><ele>367.79999999999995</ele><time>2026-04-28T09:33:52Z</time></trkpt><trkpt lat="44.5673688168209" lon="8.95310044132147"><ele>367.20000000000005</ele><time>2026-04-28T09:33:54Z</time></trkpt><trkpt lat="44.567369192200545" lon="8.95321636779694"><ele>366.6</ele><time>2026-04-28T09:33:56Z</time></trkpt><trkpt lat="44.567369520061135" lon="8.953391752577556"><ele>366.0</ele><time>2026-04-28T09:33:58Z</time></trkpt><trkpt lat="44.56737690119258" lon="8.95349484059187"><ele>365.6</ele><time>2026-04-28T09:33:59Z</time></trkpt><trkpt lat="44.56740205732136" lon="8.953594935808649"><ele>365.20000000000005</ele><time>2026-04-28T09:34:00Z</time></trkpt><trkpt lat="44.56745445048773" lon="8.95367370566562"><ele>364.79999999999995</ele><time>2026-04-28T09:34:01Z</time></trkpt><trkpt lat="44.567552804256856" lon="8.95376748646549"><ele>364.4</ele><time>2026-04-28T09:34:03Z</time></trkpt><trkpt lat="44.56762757061953" lon="8.953749603532863"><ele>364.0</ele><time>2026-04-28T09:34:04Z</time></trkpt><trkpt lat="44.567734219948804" lon="8.953615446567706"><ele>364.0</ele><time>2026-04-28T09:34:06Z</time></trkpt><trkpt lat="44.567756717218046" lon="8.953532237414738"><ele>364.0</ele><time>2026-04-28T09:34:07Z</time></trkpt><trkpt lat="44.56775073999015" lon="8.953432807105427"><ele>364.0</ele><time>2026-04-28T09:34:08Z</time></trkpt><trkpt lat="44.56765550628551" lon="8.95326397094923"><ele>364.0</ele><time>2026-04-28T09:34:10Z</time></trkpt><trkpt lat="44.567601648038085" lon="8.953172802845732"><ele>364.0</ele><time>2026-04-28T09:34:11Z</time></trkpt><trkpt lat="44.567552776796965" lon="8.953103256566559"><ele>364.0</ele><time>2026-04-28T09:34:12Z</time></trkpt><trkpt lat="44.567523865953746" lon="8.953021148194221"><ele>364.3333333333333</ele><time>2026-04-28T09:34:13Z</time></trkpt><trkpt lat="44.567482766319266" lon="8.952886577250734"><ele>364.66666666666663</ele><time>2026-04-28T09:34:15Z</time></trkpt><trkpt lat="44.56749236516804" lon="8.952766889234054"><ele>365.0</ele><time>2026-04-28T09:34:16Z</time></trkpt><trkpt lat="44.56751023247631" lon="8.952678648126069"><ele>365.3333333333333</ele><time>2026-04-28T09:34:17Z</time></trkpt><trkpt lat="44.56754173527835" lon="8.952539227416551"><ele>365.6666666666667</ele><time>2026-04-28T09:34:19Z</time></trkpt><trkpt lat="44.567563791903765" lon="8.95245408629059"><ele>366.0</ele><time>2026-04-28T09:34:21Z</time></trkpt><trkpt lat="44.567585763349655" lon="8.952369982077043"><ele>366.6</ele><time>2026-04-28T09:34:26Z</time></trkpt><trkpt lat="44.567605777251664" lon="8.952283633048093"><ele>367.20000000000005</ele><time>2026-04-28T09:34:31.999Z</time></trkpt><trkpt lat="44.5676297310647" lon="8.952159169800758"><ele>367.79999999999995</ele><time>2026-04-28T09:34:54.999Z</time></trkpt><trkpt lat="44.56764649822297" lon="8.952063431304206"><ele>368.4</ele><time>2026-04-28T09:34:55.999Z</time></trkpt><trkpt lat="44.56766624889921" lon="8.951911244571754"><ele>369.0</ele><time>2026-04-28T09:34:56.999Z</time></trkpt><trkpt lat="44.56768061845581" lon="8.95174228462978"><ele>369.25</ele><time>2026-04-28T09:34:57.999Z</time></trkpt><trkpt lat="44.56769271657936" lon="8.951575257887681"><ele>369.5</ele><time>2026-04-28T09:34:58.999Z</time></trkpt><trkpt lat="44.56770965771373" lon="8.951369396291515"><ele>369.75</ele><time>2026-04-28T09:34:59.999Z</time></trkpt><trkpt lat="44.5677047038801" lon="8.951169145612027"><ele>370.0</ele><time>2026-04-28T09:35:00.999Z</time></trkpt><trkpt lat="44.56772960694278" lon="8.950976222445272"><ele>370.3333333333333</ele><time>2026-04-28T09:35:01.999Z</time></trkpt><trkpt lat="44.56775954707722" lon="8.950866620958001"><ele>370.66666666666663</ele><time>2026-04-28T09:35:02.999Z</time></trkpt><trkpt lat="44.56779926121637" lon="8.950759096301777"><ele>371.0</ele><time>2026-04-28T09:35:03.999Z</time></trkpt><trkpt lat="44.56785900437345" lon="8.950691626655038"><ele>371.3333333333333</ele><time>2026-04-28T09:35:04.999Z</time></trkpt><trkpt lat="44.56792404428793" lon="8.950657962206453"><ele>371.6666666666667</ele><time>2026-04-28T09:35:05.999Z</time></trkpt><trkpt lat="44.568028499757126" lon="8.95064748485031"><ele>372.0</ele><time>2026-04-28T09:35:19.999Z</time></trkpt><trkpt lat="44.5680995678487" lon="8.950664260459153"><ele>370.20000000000005</ele><time>2026-04-28T09:35:22.999Z</time></trkpt><trkpt lat="44.56818508418035" lon="8.950703894484034"><ele>368.4</ele><time>2026-04-28T09:35:25.999Z</time></trkpt><trkpt lat="44.56824615267521" lon="8.950743302918891"><ele>366.6</ele><time>2026-04-28T09:35:33Z</time></trkpt><trkpt lat="44.56830636411082" lon="8.950789322832094"><ele>364.79999999999995</ele><time>2026-04-28T09:35:34Z</time></trkpt><trkpt lat="44.56839553602231" lon="8.950857474605273"><ele>363.0</ele><time>2026-04-28T09:35:35Z</time></trkpt><trkpt lat="44.56850509760705" lon="8.950944773072038"><ele>361.3333333333333</ele><time>2026-04-28T09:35:36Z</time></trkpt><trkpt lat="44.56863875839219" lon="8.951048111747635"><ele>359.66666666666663</ele><time>2026-04-28T09:35:37Z</time></trkpt><trkpt lat="44.56878585893019" lon="8.951163072872406"><ele>358.0</ele><time>2026-04-28T09:35:38Z</time></trkpt><trkpt lat="44.568917256726166" lon="8.951267022523536"><ele>357.25</ele><time>2026-04-28T09:35:39Z</time></trkpt><trkpt lat="44.569042213151484" lon="8.951369412403508"><ele>356.5</ele><time>2026-04-28T09:35:40Z</time></trkpt><trkpt lat="44.569165835888114" lon="8.95146501635801"><ele>355.75</ele><time>2026-04-28T09:35:41Z</time></trkpt><trkpt lat="44.569293748352514" lon="8.951574175867945"><ele>355.0</ele><time>2026-04-28T09:35:42Z</time></trkpt><trkpt lat="44.56942462682522" lon="8.951672149118174"><ele>356.5</ele><time>2026-04-28T09:35:43Z</time></trkpt><trkpt lat="44.56955829286547" lon="8.95177629741717"><ele>358.0</ele><time>2026-04-28T09:35:44Z</time></trkpt><trkpt lat="44.56968512222583" lon="8.951866410894848"><ele>359.5</ele><time>2026-04-28T09:35:45Z</time></trkpt><trkpt lat="44.56981597608176" lon="8.951932722281601"><ele>361.0</ele><time>2026-04-28T09:35:46Z</time></trkpt><trkpt lat="44.56995471854208" lon="8.951987738783615"><ele>361.0</ele><time>2026-04-28T09:35:47Z</time></trkpt><trkpt lat="44.57010291558216" lon="8.952030784236374"><ele>361.0</ele><time>2026-04-28T09:35:48Z</time></trkpt><trkpt lat="44.570252648574616" lon="8.952062653881764"><ele>361.0</ele><time>2026-04-28T09:35:49Z</time></trkpt><trkpt lat="44.57040407106384" lon="8.952077063747137"><ele>361.3333333333333</ele><time>2026-04-28T09:35:50Z</time></trkpt><trkpt lat="44.570557939502265" lon="8.952074440591925"><ele>361.6666666666667</ele><time>2026-04-28T09:35:51Z</time></trkpt><trkpt lat="44.570714296544026" lon="8.952052657212002"><ele>362.0</ele><time>2026-04-28T09:35:52Z</time></trkpt><trkpt lat="44.57087219400137" lon="8.952017633269604"><ele>362.0</ele><time>2026-04-28T09:35:53Z</time></trkpt><trkpt lat="44.57102774722292" lon="8.95195971654257"><ele>362.0</ele><time>2026-04-28T09:35:54Z</time></trkpt><trkpt lat="44.57117867790395" lon="8.951882879625188"><ele>362.0</ele><time>2026-04-28T09:35:55Z</time></trkpt><trkpt lat="44.57132973490848" lon="8.951783936617005"><ele>361.6666666666667</ele><time>2026-04-28T09:35:56Z</time></trkpt><trkpt lat="44.571477219346946" lon="8.951665529272889"><ele>361.3333333333333</ele><time>2026-04-28T09:35:57Z</time></trkpt><trkpt lat="44.571621619638584" lon="8.951544867222859"><ele>361.0</ele><time>2026-04-28T09:35:58Z</time></trkpt><trkpt lat="44.57176205348808" lon="8.951431126603564"><ele>361.0</ele><time>2026-04-28T09:35:59Z</time></trkpt><trkpt lat="44.57190362973452" lon="8.951316644104239"><ele>361.0</ele><time>2026-04-28T09:36:00Z</time></trkpt><trkpt lat="44.57204435940386" lon="8.951206150690673"><ele>361.0</ele><time>2026-04-28T09:36:01Z</time></trkpt><trkpt lat="44.57219115792413" lon="8.951090676590546"><ele>360.66666666666663</ele><time>2026-04-28T09:36:02Z</time></trkpt><trkpt lat="44.57234306227858" lon="8.950968939810885"><ele>360.3333333333333</ele><time>2026-04-28T09:36:03Z</time></trkpt><trkpt lat="44.57249598756518" lon="8.950844811940215"><ele>360.0</ele><time>2026-04-28T09:36:04Z</time></trkpt><trkpt lat="44.57265024738858" lon="8.950718391911902"><ele>359.6666666666667</ele><time>2026-04-28T09:36:05Z</time></trkpt><trkpt lat="44.57280469774271" lon="8.950591240317731"><ele>359.33333333333337</ele><time>2026-04-28T09:36:06Z</time></trkpt><trkpt lat="44.5729559990203" lon="8.950459232965684"><ele>359.0</ele><time>2026-04-28T09:36:07Z</time></trkpt><trkpt lat="44.57310606286808" lon="8.950329315940026"><ele>358.6666666666667</ele><time>2026-04-28T09:36:08Z</time></trkpt><trkpt lat="44.57326012061791" lon="8.950203383049022"><ele>358.3333333333333</ele><time>2026-04-28T09:36:09Z</time></trkpt><trkpt lat="44.573419207636654" lon="8.9500774963529"><ele>358.0</ele><time>2026-04-28T09:36:10Z</time></trkpt><trkpt lat="44.57359162076615" lon="8.949929401954808"><ele>359.5</ele><time>2026-04-28T09:36:11Z</time></trkpt><trkpt lat="44.57378885562652" lon="8.949752811898179"><ele>361.0</ele><time>2026-04-28T09:36:12Z</time></trkpt><trkpt lat="44.573998805353774" lon="8.949569838626989"><ele>361.0</ele><time>2026-04-28T09:36:13Z</time></trkpt><trkpt lat="44.574218159720154" lon="8.949388642150593"><ele>361.0</ele><time>2026-04-28T09:36:14Z</time></trkpt><trkpt lat="44.57443234499508" lon="8.949211123739262"><ele>363.0</ele><time>2026-04-28T09:36:15Z</time></trkpt><trkpt lat="44.57464762364758" lon="8.949028793130307"><ele>365.0</ele><time>2026-04-28T09:36:16Z</time></trkpt><trkpt lat="44.574864756547434" lon="8.948855653546618"><ele>365.0</ele><time>2026-04-28T09:36:17Z</time></trkpt><trkpt lat="44.57508295102499" lon="8.94868077356622"><ele>365.0</ele><time>2026-04-28T09:36:18Z</time></trkpt><trkpt lat="44.57529309909496" lon="8.948511290185651"><ele>368.0</ele><time>2026-04-28T09:36:19Z</time></trkpt><trkpt lat="44.57549964695991" lon="8.948339085585063"><ele>371.0</ele><time>2026-04-28T09:36:20Z</time></trkpt><trkpt lat="44.57569698234134" lon="8.948161927603934"><ele>371.0</ele><time>2026-04-28T09:36:21Z</time></trkpt><trkpt lat="44.575885493504025" lon="8.947967312575267"><ele>371.0</ele><time>2026-04-28T09:36:22Z</time></trkpt><trkpt lat="44.57606474178197" lon="8.947744879965486"><ele>368.0</ele><time>2026-04-28T09:36:23Z</time></trkpt><trkpt lat="44.576229256203376" lon="8.947510988975552"><ele>365.0</ele><time>2026-04-28T09:36:24Z</time></trkpt><trkpt lat="44.57637061470009" lon="8.94725089410161"><ele>365.0</ele><time>2026-04-28T09:36:25Z</time></trkpt><trkpt lat="44.57649608051872" lon="8.946986029359012"><ele>365.0</ele><time>2026-04-28T09:36:26Z</time></trkpt><trkpt lat="44.576605880719356" lon="8.946705584165027"><ele>363.5</ele><time>2026-04-28T09:36:27Z</time></trkpt><trkpt lat="44.5766981552086" lon="8.946412623218592"><ele>362.0</ele><time>2026-04-28T09:36:28Z</time></trkpt><trkpt lat="44.57677755741628" lon="8.946114424446051"><ele>359.5</ele><time>2026-04-28T09:36:29Z</time></trkpt><trkpt lat="44.57684974555317" lon="8.945809772865235"><ele>357.0</ele><time>2026-04-28T09:36:30Z</time></trkpt><trkpt lat="44.57691350313629" lon="8.945509694202963"><ele>357.0</ele><time>2026-04-28T09:36:31Z</time></trkpt><trkpt lat="44.57700184396794" lon="8.945228607828936"><ele>357.0</ele><time>2026-04-28T09:36:32Z</time></trkpt><trkpt lat="44.577104888057896" lon="8.944963325110614"><ele>357.0</ele><time>2026-04-28T09:36:33Z</time></trkpt><trkpt lat="44.57722474639546" lon="8.944706163766242"><ele>358.0</ele><time>2026-04-28T09:36:34Z</time></trkpt><trkpt lat="44.57735779795801" lon="8.944457539659375"><ele>359.0</ele><time>2026-04-28T09:36:35Z</time></trkpt><trkpt lat="44.577503616082204" lon="8.944217275259637"><ele>360.0</ele><time>2026-04-28T09:36:36Z</time></trkpt><trkpt lat="44.577664803121614" lon="8.943981962505518"><ele>360.0</ele><time>2026-04-28T09:36:37Z</time></trkpt><trkpt lat="44.57782428680467" lon="8.943775173352785"><ele>360.0</ele><time>2026-04-28T09:36:37.999Z</time></trkpt><trkpt lat="44.577981101171915" lon="8.943600714003633"><ele>360.0</ele><time>2026-04-28T09:36:38.999Z</time></trkpt><trkpt lat="44.57815389715941" lon="8.943418339164726"><ele>360.3333333333333</ele><time>2026-04-28T09:36:39.999Z</time></trkpt><trkpt lat="44.578338441161826" lon="8.943254626399831"><ele>360.66666666666663</ele><time>2026-04-28T09:36:40.999Z</time></trkpt><trkpt lat="44.57853250635061" lon="8.943111164196845"><ele>361.0</ele><time>2026-04-28T09:36:41.999Z</time></trkpt><trkpt lat="44.578727431318" lon="8.942967557410602"><ele>362.66666666666663</ele><time>2026-04-28T09:36:42.999Z</time></trkpt><trkpt lat="44.578926611130456" lon="8.942863983048445"><ele>364.3333333333333</ele><time>2026-04-28T09:36:43.999Z</time></trkpt><trkpt lat="44.57913425730103" lon="8.942773910129898"><ele>366.0</ele><time>2026-04-28T09:36:44.999Z</time></trkpt><trkpt lat="44.5793414113877" lon="8.942699090591331"><ele>367.6666666666667</ele><time>2026-04-28T09:36:45.999Z</time></trkpt><trkpt lat="44.579556410469415" lon="8.942652123963246"><ele>369.33333333333337</ele><time>2026-04-28T09:36:46.999Z</time></trkpt><trkpt lat="44.57978405217872" lon="8.942610099277813"><ele>371.0</ele><time>2026-04-28T09:36:47.999Z</time></trkpt><trkpt lat="44.58000457732081" lon="8.942572955859992"><ele>366.5</ele><time>2026-04-28T09:36:48.999Z</time></trkpt><trkpt lat="44.58023740852073" lon="8.942544575463591"><ele>362.0</ele><time>2026-04-28T09:36:49.999Z</time></trkpt><trkpt lat="44.58047395945386" lon="8.942513398237596"><ele>362.0</ele><time>2026-04-28T09:36:50.999Z</time></trkpt><trkpt lat="44.58070752326461" lon="8.942477157734734"><ele>362.0</ele><time>2026-04-28T09:36:51.999Z</time></trkpt><trkpt lat="44.58096003237613" lon="8.94243882490286"><ele>361.0</ele><time>2026-04-28T09:36:52.999Z</time></trkpt><trkpt lat="44.58123336933149" lon="8.942394990764678"><ele>360.0</ele><time>2026-04-28T09:36:53.999Z</time></trkpt><trkpt lat="44.58150717352452" lon="8.942360566054106"><ele>360.0</ele><time>2026-04-28T09:36:54.999Z</time></trkpt><trkpt lat="44.58177392472495" lon="8.942330933937756"><ele>360.0</ele><time>2026-04-28T09:36:55.999Z</time></trkpt><trkpt lat="44.58203093422965" lon="8.942300987615265"><ele>362.5</ele><time>2026-04-28T09:36:56.999Z</time></trkpt><trkpt lat="44.58228596737338" lon="8.942265931601778"><ele>365.0</ele><time>2026-04-28T09:36:57.999Z</time></trkpt><trkpt lat="44.5825403177821" lon="8.942234330318025"><ele>365.0</ele><time>2026-04-28T09:36:58.999Z</time></trkpt><trkpt lat="44.58278491311391" lon="8.942202321238836"><ele>365.0</ele><time>2026-04-28T09:36:59.999Z</time></trkpt><trkpt lat="44.58303006757741" lon="8.942175593552319"><ele>367.5</ele><time>2026-04-28T09:37:00.999Z</time></trkpt><trkpt lat="44.58327003162865" lon="8.942145558847667"><ele>370.0</ele><time>2026-04-28T09:37:01.999Z</time></trkpt><trkpt lat="44.583509634682834" lon="8.942117063920064"><ele>374.5</ele><time>2026-04-28T09:37:02.999Z</time></trkpt><trkpt lat="44.583746043654386" lon="8.942083873917547"><ele>379.0</ele><time>2026-04-28T09:37:03.999Z</time></trkpt><trkpt lat="44.58398862040743" lon="8.942044725825067"><ele>379.0</ele><time>2026-04-28T09:37:04.999Z</time></trkpt><trkpt lat="44.58421421228559" lon="8.942010624461425"><ele>379.0</ele><time>2026-04-28T09:37:05.999Z</time></trkpt><trkpt lat="44.584431722072594" lon="8.94197924440681"><ele>379.0</ele><time>2026-04-28T09:37:06.999Z</time></trkpt><trkpt lat="44.58464916460071" lon="8.941953287877586"><ele>383.3333333333333</ele><time>2026-04-28T09:37:07.999Z</time></trkpt><trkpt lat="44.584861009802104" lon="8.941937303533917"><ele>387.66666666666663</ele><time>2026-04-28T09:37:08.999Z</time></trkpt><trkpt lat="44.585072198163196" lon="8.941922663526652"><ele>392.0</ele><time>2026-04-28T09:37:09.999Z</time></trkpt><trkpt lat="44.58528211579413" lon="8.941941998983118"><ele>396.3333333333333</ele><time>2026-04-28T09:37:10.999Z</time></trkpt><trkpt lat="44.585484434257836" lon="8.941989161413511"><ele>400.66666666666663</ele><time>2026-04-28T09:37:11.999Z</time></trkpt><trkpt lat="44.585682550555944" lon="8.942056836629932"><ele>405.0</ele><time>2026-04-28T09:37:12.999Z</time></trkpt><trkpt lat="44.58588200730649" lon="8.942143004174499"><ele>405.0</ele><time>2026-04-28T09:37:14.018Z</time></trkpt><trkpt lat="44.58606409977404" lon="8.94224834380743"><ele>405.0</ele><time>2026-04-28T09:37:15.018Z</time></trkpt><trkpt lat="44.58624325740474" lon="8.9423749651006"><ele>405.0</ele><time>2026-04-28T09:37:16.018Z</time></trkpt><trkpt lat="44.58642048384219" lon="8.942510912011919"><ele>364.0</ele><time>2026-04-28T09:37:17.015Z</time></trkpt><trkpt lat="44.59363049831669" lon="8.950409190737595"><ele>355.66666666666663</ele><time>2026-04-28T09:37:57.999Z</time></trkpt><trkpt lat="44.59368698838583" lon="8.950742092426163"><ele>347.3333333333333</ele><time>2026-04-28T09:37:58.999Z</time></trkpt><trkpt lat="44.59370285774018" lon="8.951003596074857"><ele>339.0</ele><time>2026-04-28T09:37:59.999Z</time></trkpt><trkpt lat="44.59374464279647" lon="8.951304104802661"><ele>339.0</ele><time>2026-04-28T09:38:00.999Z</time></trkpt><trkpt lat="44.593790539228394" lon="8.951592950090724"><ele>339.0</ele><time>2026-04-28T09:38:01.999Z</time></trkpt><trkpt lat="44.59384159295368" lon="8.951871151553387"><ele>339.0</ele><time>2026-04-28T09:38:02.999Z</time></trkpt><trkpt lat="44.59388769013922" lon="8.952158730118388"><ele>339.6666666666667</ele><time>2026-04-28T09:38:04Z</time></trkpt><trkpt lat="44.59395131793116" lon="8.952432460441711"><ele>340.33333333333337</ele><time>2026-04-28T09:38:05Z</time></trkpt><trkpt lat="44.594036262646746" lon="8.952687514832949"><ele>341.0</ele><time>2026-04-28T09:38:06Z</time></trkpt><trkpt lat="44.59413908356337" lon="8.952933430533657"><ele>341.0</ele><time>2026-04-28T09:38:07Z</time></trkpt><trkpt lat="44.594250986731275" lon="8.953153642534277"><ele>341.0</ele><time>2026-04-28T09:38:08Z</time></trkpt><trkpt lat="44.594378155337225" lon="8.95337443503494"><ele>341.0</ele><time>2026-04-28T09:38:09Z</time></trkpt><trkpt lat="44.594511748569545" lon="8.95357497983367"><ele>339.6666666666667</ele><time>2026-04-28T09:38:10Z</time></trkpt><trkpt lat="44.59465990900811" lon="8.953756267523238"><ele>338.3333333333333</ele><time>2026-04-28T09:38:11Z</time></trkpt><trkpt lat="44.59482733612297" lon="8.953918484203843"><ele>337.0</ele><time>2026-04-28T09:38:12Z</time></trkpt><trkpt lat="44.59500413086739" lon="8.954063487308709"><ele>337.0</ele><time>2026-04-28T09:38:13Z</time></trkpt><trkpt lat="44.59519623698663" lon="8.954185257599764"><ele>337.0</ele><time>2026-04-28T09:38:14Z</time></trkpt><trkpt lat="44.59540273629735" lon="8.954288904644514"><ele>337.0</ele><time>2026-04-28T09:38:15Z</time></trkpt><trkpt lat="44.595629817328565" lon="8.954373540301257"><ele>336.5</ele><time>2026-04-28T09:38:16Z</time></trkpt><trkpt lat="44.595865182389275" lon="8.954445204279358"><ele>336.0</ele><time>2026-04-28T09:38:17Z</time></trkpt><trkpt lat="44.59608112619729" lon="8.954510759397506"><ele>336.0</ele><time>2026-04-28T09:38:18Z</time></trkpt><trkpt lat="44.59628335312464" lon="8.954578763298656"><ele>336.0</ele><time>2026-04-28T09:38:19Z</time></trkpt><trkpt lat="44.59648298023417" lon="8.954639704483244"><ele>336.0</ele><time>2026-04-28T09:38:20Z</time></trkpt><trkpt lat="44.59668349540392" lon="8.95466399214339"><ele>336.0</ele><time>2026-04-28T09:38:21Z</time></trkpt><trkpt lat="44.59688635102629" lon="8.954654751661637"><ele>336.0</ele><time>2026-04-28T09:38:22Z</time></trkpt><trkpt lat="44.59708911880215" lon="8.954627085941286"><ele>336.0</ele><time>2026-04-28T09:38:23Z</time></trkpt><trkpt lat="44.5972933996346" lon="8.954573824533103"><ele>336.6666666666667</ele><time>2026-04-28T09:38:24Z</time></trkpt><trkpt lat="44.59749158482786" lon="8.954501522715077"><ele>337.33333333333337</ele><time>2026-04-28T09:38:25Z</time></trkpt><trkpt lat="44.597691212183584" lon="8.954395827199821"><ele>338.0</ele><time>2026-04-28T09:38:26Z</time></trkpt><trkpt lat="44.597881538071995" lon="8.954263080148586"><ele>338.6666666666667</ele><time>2026-04-28T09:38:27Z</time></trkpt><trkpt lat="44.598071910296454" lon="8.95411395410552"><ele>339.3333333333333</ele><time>2026-04-28T09:38:28Z</time></trkpt><trkpt lat="44.59826192569598" lon="8.953949024530626"><ele>340.0</ele><time>2026-04-28T09:38:29Z</time></trkpt><trkpt lat="44.59846032924085" lon="8.953774454217381"><ele>339.0</ele><time>2026-04-28T09:38:30Z</time></trkpt><trkpt lat="44.598667893344896" lon="8.95360959115392"><ele>338.0</ele><time>2026-04-28T09:38:31Z</time></trkpt><trkpt lat="44.59887841030239" lon="8.953437933622535"><ele>339.0</ele><time>2026-04-28T09:38:32Z</time></trkpt><trkpt lat="44.599101545479044" lon="8.953250560399002"><ele>340.0</ele><time>2026-04-28T09:38:33Z</time></trkpt><trkpt lat="44.59933339895623" lon="8.953054808047066"><ele>338.0</ele><time>2026-04-28T09:38:34Z</time></trkpt><trkpt lat="44.599546321754815" lon="8.952878328446925"><ele>336.0</ele><time>2026-04-28T09:38:35Z</time></trkpt><trkpt lat="44.59974967112103" lon="8.952703924458"><ele>338.0</ele><time>2026-04-28T09:38:36Z</time></trkpt><trkpt lat="44.59994513947682" lon="8.952521562773875"><ele>340.0</ele><time>2026-04-28T09:38:37Z</time></trkpt><trkpt lat="44.600132190946894" lon="8.95233009010073"><ele>340.0</ele><time>2026-04-28T09:38:38Z</time></trkpt><trkpt lat="44.60031083100385" lon="8.952124866983022"><ele>340.0</ele><time>2026-04-28T09:38:39Z</time></trkpt><trkpt lat="44.600486560548994" lon="8.951937821628382"><ele>339.66666666666663</ele><time>2026-04-28T09:38:40Z</time></trkpt><trkpt lat="44.60066890840381" lon="8.951763344599577"><ele>339.3333333333333</ele><time>2026-04-28T09:38:41Z</time></trkpt><trkpt lat="44.600857679246154" lon="8.951607779913076"><ele>339.0</ele><time>2026-04-28T09:38:42Z</time></trkpt><trkpt lat="44.6010589260315" lon="8.951480705698662"><ele>337.0</ele><time>2026-04-28T09:38:43Z</time></trkpt><trkpt lat="44.601267041597225" lon="8.951376090449127"><ele>335.0</ele><time>2026-04-28T09:38:44Z</time></trkpt><trkpt lat="44.60148190485172" lon="8.951301446021033"><ele>333.0</ele><time>2026-04-28T09:38:45Z</time></trkpt><trkpt lat="44.601703440044886" lon="8.951252278570616"><ele>333.0</ele><time>2026-04-28T09:38:46Z</time></trkpt><trkpt lat="44.601919873542506" lon="8.951249710204767"><ele>333.0</ele><time>2026-04-28T09:38:47Z</time></trkpt><trkpt lat="44.60213918679431" lon="8.951274808240845"><ele>333.0</ele><time>2026-04-28T09:38:48Z</time></trkpt><trkpt lat="44.60235632831403" lon="8.95132662343942"><ele>333.5</ele><time>2026-04-28T09:38:49Z</time></trkpt><trkpt lat="44.60257393321954" lon="8.951413449175183"><ele>334.0</ele><time>2026-04-28T09:38:50Z</time></trkpt><trkpt lat="44.60278554393548" lon="8.95153107872144"><ele>334.5</ele><time>2026-04-28T09:38:51Z</time></trkpt><trkpt lat="44.602990922596575" lon="8.95167875074771"><ele>335.0</ele><time>2026-04-28T09:38:52Z</time></trkpt><trkpt lat="44.603184335988566" lon="8.951846144222007"><ele>338.0</ele><time>2026-04-28T09:38:53Z</time></trkpt><trkpt lat="44.60335802168884" lon="8.952040559425626"><ele>341.0</ele><time>2026-04-28T09:38:54Z</time></trkpt><trkpt lat="44.60351231633033" lon="8.952258877846278"><ele>344.0</ele><time>2026-04-28T09:38:55Z</time></trkpt><trkpt lat="44.60364730119152" lon="8.952503501618342"><ele>342.0</ele><time>2026-04-28T09:38:56Z</time></trkpt><trkpt lat="44.603769555741" lon="8.952769008622417"><ele>340.0</ele><time>2026-04-28T09:38:57Z</time></trkpt><trkpt lat="44.60384780396085" lon="8.9530620946664"><ele>338.0</ele><time>2026-04-28T09:38:58Z</time></trkpt><trkpt lat="44.60399652127276" lon="8.953374065833797"><ele>337.0</ele><time>2026-04-28T09:38:59Z</time></trkpt><trkpt lat="44.604155714666646" lon="8.953697198805326"><ele>336.0</ele><time>2026-04-28T09:39:00Z</time></trkpt><trkpt lat="44.60429718805279" lon="8.954030180186756"><ele>335.0</ele><time>2026-04-28T09:39:01Z</time></trkpt><trkpt lat="44.60443095593132" lon="8.95434679183231"><ele>334.0</ele><time>2026-04-28T09:39:02Z</time></trkpt><trkpt lat="44.60455796373728" lon="8.954646658556618"><ele>334.0</ele><time>2026-04-28T09:39:03Z</time></trkpt><trkpt lat="44.6046815640104" lon="8.954939167028671"><ele>334.0</ele><time>2026-04-28T09:39:04Z</time></trkpt><trkpt lat="44.60479191168607" lon="8.955222188792199"><ele>335.66666666666663</ele><time>2026-04-28T09:39:05Z</time></trkpt><trkpt lat="44.60490196043787" lon="8.955492504286568"><ele>337.3333333333333</ele><time>2026-04-28T09:39:06Z</time></trkpt><trkpt lat="44.6050150741973" lon="8.955734968833255"><ele>339.0</ele><time>2026-04-28T09:39:07Z</time></trkpt><trkpt lat="44.60514323958993" lon="8.955975359499133"><ele>340.3333333333333</ele><time>2026-04-28T09:39:07.999Z</time></trkpt><trkpt lat="44.605288449426574" lon="8.956191845678692"><ele>341.66666666666663</ele><time>2026-04-28T09:39:08.999Z</time></trkpt><trkpt lat="44.60545022707452" lon="8.956389531430132"><ele>343.0</ele><time>2026-04-28T09:39:09.999Z</time></trkpt><trkpt lat="44.60561183515096" lon="8.956586633273208"><ele>342.0</ele><time>2026-04-28T09:39:10.999Z</time></trkpt><trkpt lat="44.605811343040386" lon="8.95672523517589"><ele>341.0</ele><time>2026-04-28T09:39:11.999Z</time></trkpt><trkpt lat="44.60601388501226" lon="8.956831343476086"><ele>340.0</ele><time>2026-04-28T09:39:12.999Z</time></trkpt><trkpt lat="44.60622038348231" lon="8.956936849645283"><ele>337.66666666666663</ele><time>2026-04-28T09:39:13.999Z</time></trkpt><trkpt lat="44.60642706452221" lon="8.957015832705345"><ele>335.3333333333333</ele><time>2026-04-28T09:39:14.999Z</time></trkpt><trkpt lat="44.606627918490176" lon="8.957073530359047"><ele>333.0</ele><time>2026-04-28T09:39:15.999Z</time></trkpt><trkpt lat="44.606818666847495" lon="8.957084080226974"><ele>331.0</ele><time>2026-04-28T09:39:16.999Z</time></trkpt><trkpt lat="44.60700087462928" lon="8.957082361681096"><ele>329.0</ele><time>2026-04-28T09:39:17.999Z</time></trkpt><trkpt lat="44.60717331766193" lon="8.957068174521137"><ele>327.0</ele><time>2026-04-28T09:39:18.999Z</time></trkpt><trkpt lat="44.60734695392625" lon="8.95705288623617"><ele>327.0</ele><time>2026-04-28T09:39:19.999Z</time></trkpt><trkpt lat="44.607512638243094" lon="8.957035430149194"><ele>327.0</ele><time>2026-04-28T09:39:20.999Z</time></trkpt><trkpt lat="44.60766931549745" lon="8.95701858268721"><ele>327.0</ele><time>2026-04-28T09:39:21.999Z</time></trkpt><trkpt lat="44.607811989316914" lon="8.956991670950412"><ele>327.75</ele><time>2026-04-28T09:39:22.999Z</time></trkpt><trkpt lat="44.60793783954366" lon="8.956964000094935"><ele>328.5</ele><time>2026-04-28T09:39:23.999Z</time></trkpt><trkpt lat="44.60806965618356" lon="8.956929669477882"><ele>329.25</ele><time>2026-04-28T09:39:24.999Z</time></trkpt><trkpt lat="44.60819828570637" lon="8.956898977846274"><ele>330.0</ele><time>2026-04-28T09:39:25.999Z</time></trkpt><trkpt lat="44.60833856335131" lon="8.956884392246952"><ele>330.0</ele><time>2026-04-28T09:39:26.999Z</time></trkpt><trkpt lat="44.60850176747308" lon="8.956885455475495"><ele>330.0</ele><time>2026-04-28T09:39:27.999Z</time></trkpt><trkpt lat="44.60868184860521" lon="8.956878549620209"><ele>330.0</ele><time>2026-04-28T09:39:28.999Z</time></trkpt><trkpt lat="44.608884315222376" lon="8.95684973722765"><ele>330.0</ele><time>2026-04-28T09:39:29.999Z</time></trkpt><trkpt lat="44.60910638051671" lon="8.956830271875184"><ele>330.0</ele><time>2026-04-28T09:39:30.999Z</time></trkpt><trkpt lat="44.6093490548368" lon="8.956809424674267"><ele>329.0</ele><time>2026-04-28T09:39:31.999Z</time></trkpt><trkpt lat="44.60961689719331" lon="8.95678896171232"><ele>328.0</ele><time>2026-04-28T09:39:32.999Z</time></trkpt><trkpt lat="44.6098726024467" lon="8.956767672928223"><ele>328.0</ele><time>2026-04-28T09:39:33.999Z</time></trkpt><trkpt lat="44.61012690774315" lon="8.956738761394002"><ele>328.0</ele><time>2026-04-28T09:39:34.999Z</time></trkpt><trkpt lat="44.61035878813246" lon="8.95671973743599"><ele>327.66666666666663</ele><time>2026-04-28T09:39:35.999Z</time></trkpt><trkpt lat="44.61057715985329" lon="8.956700402244216"><ele>327.3333333333333</ele><time>2026-04-28T09:39:36.999Z</time></trkpt><trkpt lat="44.61078745005061" lon="8.956672537415026"><ele>327.0</ele><time>2026-04-28T09:39:37.999Z</time></trkpt><trkpt lat="44.610985120790644" lon="8.956650490715933"><ele>327.3333333333333</ele><time>2026-04-28T09:39:38.999Z</time></trkpt><trkpt lat="44.61116811838931" lon="8.95662073727381"><ele>327.66666666666663</ele><time>2026-04-28T09:39:39.999Z</time></trkpt><trkpt lat="44.611339695311905" lon="8.956574662353585"><ele>328.0</ele><time>2026-04-28T09:39:40.999Z</time></trkpt><trkpt lat="44.61151378727062" lon="8.956481743089473"><ele>328.0</ele><time>2026-04-28T09:39:41.999Z</time></trkpt><trkpt lat="44.61169947537829" lon="8.956368190448131"><ele>328.0</ele><time>2026-04-28T09:39:42.999Z</time></trkpt><trkpt lat="44.61188269911102" lon="8.956252488310762"><ele>328.0</ele><time>2026-04-28T09:39:43.999Z</time></trkpt><trkpt lat="44.612065641171995" lon="8.956134775138787"><ele>328.0</ele><time>2026-04-28T09:39:44.999Z</time></trkpt><trkpt lat="44.61224526018315" lon="8.956005253614483"><ele>328.0</ele><time>2026-04-28T09:39:45.999Z</time></trkpt><trkpt lat="44.61242650455455" lon="8.955869672637425"><ele>328.0</ele><time>2026-04-28T09:39:46.999Z</time></trkpt><trkpt lat="44.61260426009973" lon="8.955720020712862"><ele>328.0</ele><time>2026-04-28T09:39:47.999Z</time></trkpt><trkpt lat="44.612775776399076" lon="8.955568792246956"><ele>328.0</ele><time>2026-04-28T09:39:48.999Z</time></trkpt><trkpt lat="44.61294591175387" lon="8.955414760337622"><ele>328.0</ele><time>2026-04-28T09:39:49.999Z</time></trkpt><trkpt lat="44.613113615834266" lon="8.955253673734422"><ele>327.3333333333333</ele><time>2026-04-28T09:39:50.999Z</time></trkpt><trkpt lat="44.613270486917145" lon="8.95508007588206"><ele>326.6666666666667</ele><time>2026-04-28T09:39:51.999Z</time></trkpt><trkpt lat="44.61342627050241" lon="8.954911999645343"><ele>326.0</ele><time>2026-04-28T09:39:52.999Z</time></trkpt><trkpt lat="44.613578737503246" lon="8.954746465537442"><ele>327.33333333333337</ele><time>2026-04-28T09:39:53.999Z</time></trkpt><trkpt lat="44.61373689994418" lon="8.954588556826364"><ele>328.6666666666667</ele><time>2026-04-28T09:39:54.999Z</time></trkpt><trkpt lat="44.613884361946965" lon="8.954424324177742"><ele>330.0</ele><time>2026-04-28T09:39:55.999Z</time></trkpt><trkpt lat="44.61401941099019" lon="8.954252904415515"><ele>329.3333333333333</ele><time>2026-04-28T09:39:56.999Z</time></trkpt><trkpt lat="44.61414730912817" lon="8.954064563413347"><ele>328.66666666666663</ele><time>2026-04-28T09:39:57.999Z</time></trkpt><trkpt lat="44.61427797490591" lon="8.953850619696796"><ele>328.0</ele><time>2026-04-28T09:39:58.999Z</time></trkpt><trkpt lat="44.61440551345945" lon="8.953612993160936"><ele>331.66666666666663</ele><time>2026-04-28T09:39:59.999Z</time></trkpt><trkpt lat="44.61453123847346" lon="8.95337154667299"><ele>335.3333333333333</ele><time>2026-04-28T09:40:00.999Z</time></trkpt><trkpt lat="44.61465546447851" lon="8.953144285716325"><ele>339.0</ele><time>2026-04-28T09:40:01.999Z</time></trkpt><trkpt lat="44.614766957736684" lon="8.95290657406404"><ele>339.0</ele><time>2026-04-28T09:40:02.999Z</time></trkpt><trkpt lat="44.61486787494159" lon="8.952646167272688"><ele>339.0</ele><time>2026-04-28T09:40:03.999Z</time></trkpt><trkpt lat="44.61495727759685" lon="8.952384789837264"><ele>339.0</ele><time>2026-04-28T09:40:04.999Z</time></trkpt><trkpt lat="44.61503656418109" lon="8.952110443324436"><ele>337.6666666666667</ele><time>2026-04-28T09:40:05.999Z</time></trkpt><trkpt lat="44.61511426604223" lon="8.951847002877814"><ele>336.33333333333337</ele><time>2026-04-28T09:40:06.999Z</time></trkpt><trkpt lat="44.61518890012927" lon="8.951563243110412"><ele>335.0</ele><time>2026-04-28T09:40:07.999Z</time></trkpt><trkpt lat="44.61526259389541" lon="8.951282791408223"><ele>335.6666666666667</ele><time>2026-04-28T09:40:08.999Z</time></trkpt><trkpt lat="44.61533661108351" lon="8.950997003870418"><ele>336.3333333333333</ele><time>2026-04-28T09:40:10Z</time></trkpt><trkpt lat="44.61540457737829" lon="8.950725078493267"><ele>337.0</ele><time>2026-04-28T09:40:11Z</time></trkpt><trkpt lat="44.61547696101267" lon="8.950462262873303"><ele>337.0</ele><time>2026-04-28T09:40:12Z</time></trkpt><trkpt lat="44.615541925918215" lon="8.950209425373574"><ele>337.0</ele><time>2026-04-28T09:40:13Z</time></trkpt><trkpt lat="44.6156119340296" lon="8.94996877066237"><ele>337.0</ele><time>2026-04-28T09:40:14Z</time></trkpt><trkpt lat="44.61569287112087" lon="8.949730876806877"><ele>334.66666666666663</ele><time>2026-04-28T09:40:15Z</time></trkpt><trkpt lat="44.615785289034406" lon="8.949493826041303"><ele>332.3333333333333</ele><time>2026-04-28T09:40:16Z</time></trkpt><trkpt lat="44.61588871045436" lon="8.949273922379893"><ele>330.0</ele><time>2026-04-28T09:40:17Z</time></trkpt><trkpt lat="44.61600813486904" lon="8.949054092410563"><ele>328.3333333333333</ele><time>2026-04-28T09:40:18Z</time></trkpt><trkpt lat="44.616146010002666" lon="8.948848166106805"><ele>326.66666666666663</ele><time>2026-04-28T09:40:19Z</time></trkpt><trkpt lat="44.61629420774677" lon="8.948651839646857"><ele>325.0</ele><time>2026-04-28T09:40:20Z</time></trkpt><trkpt lat="44.61644623252341" lon="8.948472288770272"><ele>326.0</ele><time>2026-04-28T09:40:21Z</time></trkpt><trkpt lat="44.61659458954348" lon="8.948316198588547"><ele>327.0</ele><time>2026-04-28T09:40:22Z</time></trkpt><trkpt lat="44.61676095471724" lon="8.9481879213236"><ele>328.0</ele><time>2026-04-28T09:40:23Z</time></trkpt><trkpt lat="44.616976970474354" lon="8.948168842277298"><ele>331.3333333333333</ele><time>2026-04-28T09:40:24Z</time></trkpt><trkpt lat="44.617150306446916" lon="8.948042873164455"><ele>334.6666666666667</ele><time>2026-04-28T09:40:25Z</time></trkpt><trkpt lat="44.61733426695888" lon="8.94790948625661"><ele>338.0</ele><time>2026-04-28T09:40:26Z</time></trkpt><trkpt lat="44.61753176390008" lon="8.947765124119313"><ele>338.0</ele><time>2026-04-28T09:40:27Z</time></trkpt><trkpt lat="44.61771929579195" lon="8.947625945158086"><ele>338.0</ele><time>2026-04-28T09:40:28Z</time></trkpt><trkpt lat="44.61789596699208" lon="8.947499931635802"><ele>338.0</ele><time>2026-04-28T09:40:29Z</time></trkpt><trkpt lat="44.618066300185056" lon="8.947377182925221"><ele>337.0</ele><time>2026-04-28T09:40:30Z</time></trkpt><trkpt lat="44.61822831765187" lon="8.947258741248467"><ele>336.0</ele><time>2026-04-28T09:40:31Z</time></trkpt><trkpt lat="44.618382622445885" lon="8.947145937862162"><ele>335.0</ele><time>2026-04-28T09:40:32Z</time></trkpt><trkpt lat="44.61852014816456" lon="8.947053215356506"><ele>335.0</ele><time>2026-04-28T09:40:33Z</time></trkpt><trkpt lat="44.618635475752555" lon="8.947014173957923"><ele>335.0</ele><time>2026-04-28T09:40:34Z</time></trkpt><trkpt lat="44.618745752696356" lon="8.947037730741531"><ele>335.0</ele><time>2026-04-28T09:40:35Z</time></trkpt><trkpt lat="44.61886101288674" lon="8.94705338649264"><ele>335.0</ele><time>2026-04-28T09:40:36Z</time></trkpt><trkpt lat="44.61898757383637" lon="8.947075083955664"><ele>336.0</ele><time>2026-04-28T09:40:37Z</time></trkpt><trkpt lat="44.61910696175739" lon="8.947080506787815"><ele>337.0</ele><time>2026-04-28T09:40:38Z</time></trkpt><trkpt lat="44.61916944630019" lon="8.947099470809883"><ele>338.0</ele><time>2026-04-28T09:40:39Z</time></trkpt><trkpt lat="44.61926706077095" lon="8.947179116192109"><ele>339.0</ele><time>2026-04-28T09:40:40Z</time></trkpt><trkpt lat="44.61934616074799" lon="8.947261465900116"><ele>340.0</ele><time>2026-04-28T09:40:41Z</time></trkpt><trkpt lat="44.619417329187165" lon="8.947341333248207"><ele>340.0</ele><time>2026-04-28T09:40:42Z</time></trkpt><trkpt lat="44.6194809751061" lon="8.94743302096408"><ele>340.0</ele><time>2026-04-28T09:40:43Z</time></trkpt><trkpt lat="44.6195240039046" lon="8.94752477883048"><ele>340.0</ele><time>2026-04-28T09:40:44Z</time></trkpt><trkpt lat="44.61956718006773" lon="8.947628769115099"><ele>340.0</ele><time>2026-04-28T09:40:45Z</time></trkpt><trkpt lat="44.61961719432271" lon="8.947760146296774"><ele>340.0</ele><time>2026-04-28T09:40:46Z</time></trkpt><trkpt lat="44.61967834011149" lon="8.947924058491672"><ele>338.25</ele><time>2026-04-28T09:40:47Z</time></trkpt><trkpt lat="44.61973473260874" lon="8.94807731690549"><ele>336.5</ele><time>2026-04-28T09:40:48Z</time></trkpt><trkpt lat="44.61979023717801" lon="8.94823406226306"><ele>334.75</ele><time>2026-04-28T09:40:49Z</time></trkpt><trkpt lat="44.61984340285859" lon="8.948383867654472"><ele>333.0</ele><time>2026-04-28T09:40:50Z</time></trkpt><trkpt lat="44.619898251980466" lon="8.948536627246398"><ele>339.25</ele><time>2026-04-28T09:40:51Z</time></trkpt><trkpt lat="44.61995196163724" lon="8.948680120841537"><ele>345.5</ele><time>2026-04-28T09:40:52Z</time></trkpt><trkpt lat="44.620008051731794" lon="8.948829974136363"><ele>351.75</ele><time>2026-04-28T09:40:53Z</time></trkpt><trkpt lat="44.620084140559044" lon="8.948971543745357"><ele>358.0</ele><time>2026-04-28T09:40:54Z</time></trkpt><trkpt lat="44.6201445972727" lon="8.949111302028452"><ele>364.25</ele><time>2026-04-28T09:40:55Z</time></trkpt><trkpt lat="44.62021940026339" lon="8.94924673088623"><ele>370.5</ele><time>2026-04-28T09:40:56Z</time></trkpt><trkpt lat="44.62030690565939" lon="8.949381901345236"><ele>376.75</ele><time>2026-04-28T09:40:57Z</time></trkpt><trkpt lat="44.6203869825343" lon="8.949522189985794"><ele>383.0</ele><time>2026-04-28T09:40:58Z</time></trkpt><trkpt lat="44.62047064929579" lon="8.949642440849372"><ele>377.25</ele><time>2026-04-28T09:40:59Z</time></trkpt><trkpt lat="44.62055705347983" lon="8.949765916590069"><ele>371.5</ele><time>2026-04-28T09:41:00Z</time></trkpt><trkpt lat="44.62064804173538" lon="8.949880698238744"><ele>365.75</ele><time>2026-04-28T09:41:01Z</time></trkpt><trkpt lat="44.62073604449057" lon="8.950002167194185"><ele>360.0</ele><time>2026-04-28T09:41:02Z</time></trkpt><trkpt lat="44.62081270635071" lon="8.950123791468167"><ele>360.0</ele><time>2026-04-28T09:41:03Z</time></trkpt><trkpt lat="44.620857951436186" lon="8.950252556819095"><ele>360.0</ele><time>2026-04-28T09:41:04Z</time></trkpt><trkpt lat="44.62092064264842" lon="8.950379079146812"><ele>360.0</ele><time>2026-04-28T09:41:05Z</time></trkpt><trkpt lat="44.620978819859054" lon="8.950492933533976"><ele>360.0</ele><time>2026-04-28T09:41:06Z</time></trkpt><trkpt lat="44.62103577619223" lon="8.95060451771939"><ele>360.0</ele><time>2026-04-28T09:41:07Z</time></trkpt><trkpt lat="44.62109527635289" lon="8.95072251963832"><ele>358.6</ele><time>2026-04-28T09:41:08Z</time></trkpt><trkpt lat="44.621156554594265" lon="8.95084404787631"><ele>357.2</ele><time>2026-04-28T09:41:09Z</time></trkpt><trkpt lat="44.62121898347812" lon="8.950967858059666"><ele>355.79999999999995</ele><time>2026-04-28T09:41:10Z</time></trkpt><trkpt lat="44.62127511489619" lon="8.951082145430272"><ele>354.4</ele><time>2026-04-28T09:41:11Z</time></trkpt><trkpt lat="44.62132663987144" lon="8.951205414824488"><ele>353.0</ele><time>2026-04-28T09:41:11.999Z</time></trkpt><trkpt lat="44.621382797592794" lon="8.951318904799852"><ele>353.0</ele><time>2026-04-28T09:41:12.999Z</time></trkpt><trkpt lat="44.62146177922762" lon="8.95141994826892"><ele>353.0</ele><time>2026-04-28T09:41:13.999Z</time></trkpt><trkpt lat="44.6215280233016" lon="8.95153979159135"><ele>353.0</ele><time>2026-04-28T09:41:14.999Z</time></trkpt><trkpt lat="44.621599715600475" lon="8.95166081971499"><ele>353.0</ele><time>2026-04-28T09:41:15.999Z</time></trkpt><trkpt lat="44.62167806598307" lon="8.951787639211068"><ele>353.0</ele><time>2026-04-28T09:41:16.999Z</time></trkpt><trkpt lat="44.621765102042886" lon="8.951899779029027"><ele>356.25</ele><time>2026-04-28T09:41:17.999Z</time></trkpt><trkpt lat="44.621869832851054" lon="8.95199651006238"><ele>359.5</ele><time>2026-04-28T09:41:18.999Z</time></trkpt><trkpt lat="44.6219782035107" lon="8.952062527768467"><ele>362.75</ele><time>2026-04-28T09:41:19.999Z</time></trkpt><trkpt lat="44.62208356094349" lon="8.952134970366899"><ele>366.0</ele><time>2026-04-28T09:41:20.999Z</time></trkpt><trkpt lat="44.622174957332504" lon="8.952210814079317"><ele>366.0</ele><time>2026-04-28T09:41:21.999Z</time></trkpt><trkpt lat="44.62225533536594" lon="8.952277061202599"><ele>366.0</ele><time>2026-04-28T09:41:22.999Z</time></trkpt><trkpt lat="44.62233272739655" lon="8.952342411198162"><ele>366.0</ele><time>2026-04-28T09:41:23.999Z</time></trkpt><trkpt lat="44.62242436898359" lon="8.952424049424888"><ele>366.0</ele><time>2026-04-28T09:41:25.999Z</time></trkpt><trkpt lat="44.62290881094587" lon="8.951777807987503"><ele>363.5</ele><time>2026-04-28T09:41:27.999Z</time></trkpt><trkpt lat="44.623011233607116" lon="8.95172630828855"><ele>361.0</ele><time>2026-04-28T09:41:28.999Z</time></trkpt><trkpt lat="44.62313757765822" lon="8.951670026163075"><ele>358.5</ele><time>2026-04-28T09:41:29.999Z</time></trkpt><trkpt lat="44.623259828879064" lon="8.95160840603218"><ele>356.0</ele><time>2026-04-28T09:41:30.999Z</time></trkpt><trkpt lat="44.623371406655174" lon="8.951539660677474"><ele>357.0</ele><time>2026-04-28T09:41:31.999Z</time></trkpt><trkpt lat="44.62348440236343" lon="8.951462002710105"><ele>358.0</ele><time>2026-04-28T09:41:32.999Z</time></trkpt><trkpt lat="44.623590146753884" lon="8.951375332743623"><ele>359.0</ele><time>2026-04-28T09:41:33.999Z</time></trkpt><trkpt lat="44.62369872268938" lon="8.95128480488103"><ele>360.0</ele><time>2026-04-28T09:41:34.999Z</time></trkpt><trkpt lat="44.623805625146545" lon="8.951181416808838"><ele>360.0</ele><time>2026-04-28T09:41:35.999Z</time></trkpt><trkpt lat="44.6239166454557" lon="8.951067537668722"><ele>360.0</ele><time>2026-04-28T09:41:36.999Z</time></trkpt><trkpt lat="44.6240345601948" lon="8.95094736717176"><ele>360.0</ele><time>2026-04-28T09:41:37.999Z</time></trkpt><trkpt lat="44.624151047488176" lon="8.95082340881949"><ele>360.0</ele><time>2026-04-28T09:41:38.999Z</time></trkpt><trkpt lat="44.624270082901205" lon="8.950699027261228"><ele>362.0</ele><time>2026-04-28T09:41:39.999Z</time></trkpt><trkpt lat="44.6243869589136" lon="8.950576915060973"><ele>364.0</ele><time>2026-04-28T09:41:40.999Z</time></trkpt><trkpt lat="44.624505376352" lon="8.95044721997531"><ele>366.0</ele><time>2026-04-28T09:41:41.999Z</time></trkpt><trkpt lat="44.624637380891535" lon="8.950295846663934"><ele>366.0</ele><time>2026-04-28T09:41:42.999Z</time></trkpt><trkpt lat="44.62478742573443" lon="8.950118706428965"><ele>366.0</ele><time>2026-04-28T09:41:43.999Z</time></trkpt><trkpt lat="44.6249454758138" lon="8.94993381643482"><ele>366.0</ele><time>2026-04-28T09:41:44.999Z</time></trkpt><trkpt lat="44.625102202066735" lon="8.949731688320693"><ele>362.0</ele><time>2026-04-28T09:41:45.999Z</time></trkpt><trkpt lat="44.62524810259114" lon="8.949512769893449"><ele>358.0</ele><time>2026-04-28T09:41:46.999Z</time></trkpt><trkpt lat="44.625396446591495" lon="8.94927086865389"><ele>354.0</ele><time>2026-04-28T09:41:47.999Z</time></trkpt><trkpt lat="44.62555486037976" lon="8.949002123098488"><ele>354.0</ele><time>2026-04-28T09:41:48.999Z</time></trkpt><trkpt lat="44.62572345404685" lon="8.948752830295629"><ele>354.0</ele><time>2026-04-28T09:41:49.999Z</time></trkpt><trkpt lat="44.625891368962954" lon="8.948510273531086"><ele>363.5</ele><time>2026-04-28T09:41:50.999Z</time></trkpt><trkpt lat="44.626044393906476" lon="8.948278965608692"><ele>373.0</ele><time>2026-04-28T09:41:51.999Z</time></trkpt><trkpt lat="44.62619089019293" lon="8.948030547945997"><ele>373.0</ele><time>2026-04-28T09:41:52.999Z</time></trkpt><trkpt lat="44.62634598982159" lon="8.947777600196511"><ele>373.0</ele><time>2026-04-28T09:41:53.999Z</time></trkpt><trkpt lat="44.626507674518066" lon="8.94750455394747"><ele>355.0</ele><time>2026-04-28T09:41:54.999Z</time></trkpt><trkpt lat="44.62666352759408" lon="8.947240974548162"><ele>337.0</ele><time>2026-04-28T09:41:55.999Z</time></trkpt><trkpt lat="44.626809853539264" lon="8.946979613509592"><ele>337.0</ele><time>2026-04-28T09:41:56.999Z</time></trkpt><trkpt lat="44.6269487991099" lon="8.946726554438476"><ele>337.0</ele><time>2026-04-28T09:41:57.999Z</time></trkpt><trkpt lat="44.62708514148186" lon="8.946483915544098"><ele>337.0</ele><time>2026-04-28T09:41:58.999Z</time></trkpt><trkpt lat="44.627219824063445" lon="8.946221365549052"><ele>336.66666666666663</ele><time>2026-04-28T09:41:59.999Z</time></trkpt><trkpt lat="44.627346948875164" lon="8.945963844062959"><ele>336.3333333333333</ele><time>2026-04-28T09:42:00.999Z</time></trkpt><trkpt lat="44.62745176822274" lon="8.945709128124559"><ele>336.0</ele><time>2026-04-28T09:42:01.999Z</time></trkpt><trkpt lat="44.6275477235156" lon="8.945438316040152"><ele>336.0</ele><time>2026-04-28T09:42:02.999Z</time></trkpt><trkpt lat="44.62764085647484" lon="8.94517007580184"><ele>336.0</ele><time>2026-04-28T09:42:03.999Z</time></trkpt><trkpt lat="44.62772524563434" lon="8.94490128627606"><ele>336.0</ele><time>2026-04-28T09:42:04.999Z</time></trkpt><trkpt lat="44.62781995410359" lon="8.944639875803265"><ele>337.3333333333333</ele><time>2026-04-28T09:42:05.999Z</time></trkpt><trkpt lat="44.627914249807034" lon="8.94436681829346"><ele>338.66666666666663</ele><time>2026-04-28T09:42:06.999Z</time></trkpt><trkpt lat="44.628024634802486" lon="8.944114607444362"><ele>340.0</ele><time>2026-04-28T09:42:07.999Z</time></trkpt><trkpt lat="44.62816112694077" lon="8.943879375547176"><ele>340.0</ele><time>2026-04-28T09:42:08.999Z</time></trkpt><trkpt lat="44.62831456832379" lon="8.943662391887305"><ele>340.0</ele><time>2026-04-28T09:42:09.999Z</time></trkpt><trkpt lat="44.62849274501829" lon="8.943473879685504"><ele>340.0</ele><time>2026-04-28T09:42:10.999Z</time></trkpt><trkpt lat="44.62869356062207" lon="8.94333053544346"><ele>337.66666666666663</ele><time>2026-04-28T09:42:11.999Z</time></trkpt><trkpt lat="44.628890298753376" lon="8.943224084857112"><ele>335.3333333333333</ele><time>2026-04-28T09:42:12.999Z</time></trkpt><trkpt lat="44.629081048357335" lon="8.943085870330446"><ele>333.0</ele><time>2026-04-28T09:42:13.999Z</time></trkpt><trkpt lat="44.629288368506806" lon="8.942985599599067"><ele>335.3333333333333</ele><time>2026-04-28T09:42:14.999Z</time></trkpt><trkpt lat="44.62950948277056" lon="8.942914840206921"><ele>337.66666666666663</ele><time>2026-04-28T09:42:16Z</time></trkpt><trkpt lat="44.62970950411345" lon="8.942870541081215"><ele>340.0</ele><time>2026-04-28T09:42:17Z</time></trkpt><trkpt lat="44.6299239563666" lon="8.942852603735894"><ele>340.0</ele><time>2026-04-28T09:42:18Z</time></trkpt><trkpt lat="44.63014542617968" lon="8.94286123751223"><ele>340.0</ele><time>2026-04-28T09:42:19Z</time></trkpt><trkpt lat="44.63038012978792" lon="8.942892865743136"><ele>336.3333333333333</ele><time>2026-04-28T09:42:20Z</time></trkpt><trkpt lat="44.630599962665364" lon="8.942955674441238"><ele>332.6666666666667</ele><time>2026-04-28T09:42:21Z</time></trkpt><trkpt lat="44.63081997649208" lon="8.94300452116696"><ele>329.0</ele><time>2026-04-28T09:42:22Z</time></trkpt><trkpt lat="44.63103377259067" lon="8.94306153490054"><ele>333.0</ele><time>2026-04-28T09:42:23Z</time></trkpt><trkpt lat="44.63123583258871" lon="8.943134792199405"><ele>337.0</ele><time>2026-04-28T09:42:24Z</time></trkpt><trkpt lat="44.63142612533405" lon="8.943245421036202"><ele>341.0</ele><time>2026-04-28T09:42:25Z</time></trkpt><trkpt lat="44.6316093260179" lon="8.943385280324488"><ele>341.0</ele><time>2026-04-28T09:42:26Z</time></trkpt><trkpt lat="44.631783820036546" lon="8.943554239429071"><ele>341.0</ele><time>2026-04-28T09:42:27Z</time></trkpt><trkpt lat="44.6319550874645" lon="8.94373493707317"><ele>341.0</ele><time>2026-04-28T09:42:28Z</time></trkpt><trkpt lat="44.63211487557059" lon="8.943944323458657"><ele>334.0</ele><time>2026-04-28T09:42:29Z</time></trkpt><trkpt lat="44.632273401553256" lon="8.94417405042943"><ele>327.0</ele><time>2026-04-28T09:42:30Z</time></trkpt><trkpt lat="44.63242732180022" lon="8.944429137759814"><ele>327.0</ele><time>2026-04-28T09:42:31Z</time></trkpt><trkpt lat="44.632591558570674" lon="8.944703645594869"><ele>327.0</ele><time>2026-04-28T09:42:32Z</time></trkpt><trkpt lat="44.632759263206275" lon="8.944958775262162"><ele>322.5</ele><time>2026-04-28T09:42:33Z</time></trkpt><trkpt lat="44.63291357954013" lon="8.945200479518826"><ele>318.0</ele><time>2026-04-28T09:42:34Z</time></trkpt><trkpt lat="44.63306882756075" lon="8.945438673387272"><ele>318.0</ele><time>2026-04-28T09:42:35Z</time></trkpt><trkpt lat="44.63321973792565" lon="8.945671287082796"><ele>318.0</ele><time>2026-04-28T09:42:36Z</time></trkpt><trkpt lat="44.63336068117541" lon="8.945896086430622"><ele>318.0</ele><time>2026-04-28T09:42:37Z</time></trkpt><trkpt lat="44.63349598628577" lon="8.946129302383778"><ele>313.3333333333333</ele><time>2026-04-28T09:42:38Z</time></trkpt><trkpt lat="44.63362857699362" lon="8.94636583660068"><ele>308.66666666666663</ele><time>2026-04-28T09:42:39Z</time></trkpt><trkpt lat="44.633757849508356" lon="8.946606408182015"><ele>304.0</ele><time>2026-04-28T09:42:40Z</time></trkpt><trkpt lat="44.63387283637771" lon="8.946870920238654"><ele>304.0</ele><time>2026-04-28T09:42:41Z</time></trkpt><trkpt lat="44.633965611451394" lon="8.94716361748646"><ele>304.0</ele><time>2026-04-28T09:42:42Z</time></trkpt><trkpt lat="44.6340305842055" lon="8.947453445732007"><ele>304.0</ele><time>2026-04-28T09:42:43Z</time></trkpt><trkpt lat="44.634089539559824" lon="8.947737090399023"><ele>305.3333333333333</ele><time>2026-04-28T09:42:44Z</time></trkpt><trkpt lat="44.634134981764994" lon="8.948029400248064"><ele>306.6666666666667</ele><time>2026-04-28T09:42:45Z</time></trkpt><trkpt lat="44.634145941216545" lon="8.948329824189733"><ele>308.0</ele><time>2026-04-28T09:42:46Z</time></trkpt><trkpt lat="44.63416554998869" lon="8.948627202077603"><ele>309.33333333333337</ele><time>2026-04-28T09:42:47Z</time></trkpt><trkpt lat="44.63418978108479" lon="8.948926835237089"><ele>310.6666666666667</ele><time>2026-04-28T09:42:48Z</time></trkpt><trkpt lat="44.63421675599456" lon="8.949224952674067"><ele>312.0</ele><time>2026-04-28T09:42:49Z</time></trkpt><trkpt lat="44.634247773502025" lon="8.949489314304426"><ele>316.0</ele><time>2026-04-28T09:42:50Z</time></trkpt><trkpt lat="44.63430281608709" lon="8.949751569582792"><ele>320.0</ele><time>2026-04-28T09:42:51Z</time></trkpt><trkpt lat="44.63436256005173" lon="8.949996865255455"><ele>324.0</ele><time>2026-04-28T09:42:52Z</time></trkpt><trkpt lat="44.63449208627384" lon="8.950220970469532"><ele>316.0</ele><time>2026-04-28T09:42:53Z</time></trkpt><trkpt lat="44.6346182478163" lon="8.95042754767469"><ele>308.0</ele><time>2026-04-28T09:42:54Z</time></trkpt><trkpt lat="44.634764898687784" lon="8.95061539103879"><ele>300.0</ele><time>2026-04-28T09:42:55Z</time></trkpt><trkpt lat="44.634927579092434" lon="8.950791852839806"><ele>300.6666666666667</ele><time>2026-04-28T09:42:56Z</time></trkpt><trkpt lat="44.6350939759734" lon="8.950977930993755"><ele>301.33333333333337</ele><time>2026-04-28T09:42:57Z</time></trkpt><trkpt lat="44.635272607534645" lon="8.951174550843911"><ele>302.0</ele><time>2026-04-28T09:42:58Z</time></trkpt><trkpt lat="44.63545505466233" lon="8.951379867800599"><ele>302.0</ele><time>2026-04-28T09:42:59Z</time></trkpt><trkpt lat="44.63563463093764" lon="8.951587811917152"><ele>302.0</ele><time>2026-04-28T09:43:00Z</time></trkpt><trkpt lat="44.63579609859009" lon="8.951774013205275"><ele>302.0</ele><time>2026-04-28T09:43:01Z</time></trkpt><trkpt lat="44.63595970465469" lon="8.951953158180274"><ele>305.0</ele><time>2026-04-28T09:43:02Z</time></trkpt><trkpt lat="44.63612720858992" lon="8.952132990114999"><ele>308.0</ele><time>2026-04-28T09:43:03Z</time></trkpt><trkpt lat="44.6363033183251" lon="8.952305625784721"><ele>311.0</ele><time>2026-04-28T09:43:04Z</time></trkpt><trkpt lat="44.63649910810535" lon="8.952456553091581"><ele>314.5</ele><time>2026-04-28T09:43:05Z</time></trkpt><trkpt lat="44.636723765320916" lon="8.952605371000523"><ele>318.0</ele><time>2026-04-28T09:43:06Z</time></trkpt><trkpt lat="44.63697462318451" lon="8.95275333718764"><ele>318.0</ele><time>2026-04-28T09:43:07Z</time></trkpt><trkpt lat="44.63724291284065" lon="8.952907461585479"><ele>318.0</ele><time>2026-04-28T09:43:08Z</time></trkpt><trkpt lat="44.637525969159576" lon="8.953077793827585"><ele>320.0</ele><time>2026-04-28T09:43:09Z</time></trkpt><trkpt lat="44.637803475371264" lon="8.953253753559352"><ele>322.0</ele><time>2026-04-28T09:43:10Z</time></trkpt><trkpt lat="44.638049738366156" lon="8.953392386156798"><ele>322.0</ele><time>2026-04-28T09:43:11Z</time></trkpt><trkpt lat="44.638289031686845" lon="8.953533921245144"><ele>322.0</ele><time>2026-04-28T09:43:12Z</time></trkpt><trkpt lat="44.63851511204573" lon="8.953669857795086"><ele>313.0</ele><time>2026-04-28T09:43:13Z</time></trkpt><trkpt lat="44.63875172266736" lon="8.953808767509376"><ele>304.0</ele><time>2026-04-28T09:43:14Z</time></trkpt><trkpt lat="44.63896689810099" lon="8.953936209706113"><ele>304.0</ele><time>2026-04-28T09:43:15Z</time></trkpt><trkpt lat="44.639173486450055" lon="8.954060765085666"><ele>304.0</ele><time>2026-04-28T09:43:16Z</time></trkpt><trkpt lat="44.63936748964286" lon="8.954192554254028"><ele>304.0</ele><time>2026-04-28T09:43:17Z</time></trkpt><trkpt lat="44.63955727267993" lon="8.954367471568114"><ele>305.5</ele><time>2026-04-28T09:43:18Z</time></trkpt><trkpt lat="44.6397314777262" lon="8.954582561993336"><ele>307.0</ele><time>2026-04-28T09:43:19Z</time></trkpt><trkpt lat="44.639901468755994" lon="8.954811011576654"><ele>312.0</ele><time>2026-04-28T09:43:20Z</time></trkpt><trkpt lat="44.640077124665744" lon="8.955067906424402"><ele>317.0</ele><time>2026-04-28T09:43:21Z</time></trkpt><trkpt lat="44.64025486569404" lon="8.955363634621484"><ele>313.5</ele><time>2026-04-28T09:43:22Z</time></trkpt><trkpt lat="44.64043648850054" lon="8.95567840525725"><ele>310.0</ele><time>2026-04-28T09:43:23Z</time></trkpt><trkpt lat="44.64060661889164" lon="8.955962307192435"><ele>310.0</ele><time>2026-04-28T09:43:24Z</time></trkpt><trkpt lat="44.640768819891875" lon="8.956225975266122"><ele>310.0</ele><time>2026-04-28T09:43:24.999Z</time></trkpt><trkpt lat="44.640922564247866" lon="8.956478693590014"><ele>313.0</ele><time>2026-04-28T09:43:25.999Z</time></trkpt><trkpt lat="44.64106508843917" lon="8.956719818814767"><ele>316.0</ele><time>2026-04-28T09:43:26.999Z</time></trkpt><trkpt lat="44.641207426385584" lon="8.956954857632962"><ele>319.0</ele><time>2026-04-28T09:43:27.999Z</time></trkpt><trkpt lat="44.64135279300791" lon="8.9571663425639"><ele>319.0</ele><time>2026-04-28T09:43:28.999Z</time></trkpt><trkpt lat="44.64151352343377" lon="8.957355765420369"><ele>319.0</ele><time>2026-04-28T09:43:29.999Z</time></trkpt><trkpt lat="44.64168999043378" lon="8.957536041574144"><ele>319.0</ele><time>2026-04-28T09:43:30.999Z</time></trkpt><trkpt lat="44.64188831702002" lon="8.957688664448977"><ele>324.0</ele><time>2026-04-28T09:43:31.999Z</time></trkpt><trkpt lat="44.64210513593641" lon="8.957829580253161"><ele>329.0</ele><time>2026-04-28T09:43:32.999Z</time></trkpt><trkpt lat="44.64234240790517" lon="8.957931059334795"><ele>329.0</ele><time>2026-04-28T09:43:33.999Z</time></trkpt><trkpt lat="44.642580380376934" lon="8.958051815894173"><ele>329.0</ele><time>2026-04-28T09:43:34.999Z</time></trkpt><trkpt lat="44.6428375003879" lon="8.958192882105132"><ele>327.0</ele><time>2026-04-28T09:43:35.999Z</time></trkpt><trkpt lat="44.64306673754495" lon="8.958372178116912"><ele>325.0</ele><time>2026-04-28T09:43:36.999Z</time></trkpt><trkpt lat="44.64329339880956" lon="8.958523529814297"><ele>325.0</ele><time>2026-04-28T09:43:37.999Z</time></trkpt><trkpt lat="44.643508017499315" lon="8.958660890856546"><ele>325.0</ele><time>2026-04-28T09:43:38.999Z</time></trkpt><trkpt lat="44.6437276063548" lon="8.95878643491361"><ele>310.0</ele><time>2026-04-28T09:43:39.999Z</time></trkpt><trkpt lat="44.643948493292015" lon="8.95889573493169"><ele>295.0</ele><time>2026-04-28T09:43:40.999Z</time></trkpt><trkpt lat="44.64417316325047" lon="8.958995030865887"><ele>295.0</ele><time>2026-04-28T09:43:41.999Z</time></trkpt><trkpt lat="44.644398671844286" lon="8.959089762112841"><ele>295.0</ele><time>2026-04-28T09:43:42.999Z</time></trkpt><trkpt lat="44.64463299517679" lon="8.959171955026086"><ele>297.0</ele><time>2026-04-28T09:43:43.999Z</time></trkpt><trkpt lat="44.644875789310305" lon="8.959248334677993"><ele>299.0</ele><time>2026-04-28T09:43:44.999Z</time></trkpt><trkpt lat="44.645127042207186" lon="8.959328182521064"><ele>301.0</ele><time>2026-04-28T09:43:45.999Z</time></trkpt><trkpt lat="44.64536475943795" lon="8.9594043189405"><ele>303.0</ele><time>2026-04-28T09:43:46.999Z</time></trkpt><trkpt lat="44.645585224040694" lon="8.95947469753788"><ele>303.0</ele><time>2026-04-28T09:43:47.999Z</time></trkpt><trkpt lat="44.64580271643709" lon="8.959533218797832"><ele>303.0</ele><time>2026-04-28T09:43:48.999Z</time></trkpt><trkpt lat="44.64602480725556" lon="8.959565327993321"><ele>303.0</ele><time>2026-04-28T09:43:49.999Z</time></trkpt><trkpt lat="44.64626614631" lon="8.959555420981951"><ele>306.0</ele><time>2026-04-28T09:43:50.999Z</time></trkpt><trkpt lat="44.646522417804526" lon="8.9595100811998"><ele>309.0</ele><time>2026-04-28T09:43:51.999Z</time></trkpt><trkpt lat="44.646795813019764" lon="8.959461367369752"><ele>311.0</ele><time>2026-04-28T09:43:52.999Z</time></trkpt><trkpt lat="44.64708173788551" lon="8.959434052400457"><ele>313.0</ele><time>2026-04-28T09:43:53.999Z</time></trkpt><trkpt lat="44.647380607820374" lon="8.95939756256198"><ele>313.0</ele><time>2026-04-28T09:43:54.999Z</time></trkpt><trkpt lat="44.64768716049747" lon="8.959359781183588"><ele>313.0</ele><time>2026-04-28T09:43:55.999Z</time></trkpt><trkpt lat="44.647995158449305" lon="8.95932403369703"><ele>318.5</ele><time>2026-04-28T09:43:56.999Z</time></trkpt><trkpt lat="44.64827774515095" lon="8.959285318427415"><ele>324.0</ele><time>2026-04-28T09:43:57.999Z</time></trkpt><trkpt lat="44.6485444750893" lon="8.959248470899597"><ele>317.5</ele><time>2026-04-28T09:43:58.999Z</time></trkpt><trkpt lat="44.64881014281362" lon="8.959216235268856"><ele>311.0</ele><time>2026-04-28T09:43:59.999Z</time></trkpt><trkpt lat="44.64905865237147" lon="8.959182430735318"><ele>311.0</ele><time>2026-04-28T09:44:00.999Z</time></trkpt><trkpt lat="44.649298644071024" lon="8.959143940373071"><ele>311.0</ele><time>2026-04-28T09:44:01.999Z</time></trkpt><trkpt lat="44.649525528177655" lon="8.959096174933165"><ele>312.0</ele><time>2026-04-28T09:44:02.999Z</time></trkpt><trkpt lat="44.649741886909" lon="8.959020815973231"><ele>313.0</ele><time>2026-04-28T09:44:03.999Z</time></trkpt><trkpt lat="44.64995398036525" lon="8.958922546486358"><ele>314.0</ele><time>2026-04-28T09:44:04.999Z</time></trkpt><trkpt lat="44.65016352046772" lon="8.958785278968449"><ele>312.0</ele><time>2026-04-28T09:44:05.999Z</time></trkpt><trkpt lat="44.65037112032114" lon="8.95861614101251"><ele>310.0</ele><time>2026-04-28T09:44:06.999Z</time></trkpt><trkpt lat="44.65057140659364" lon="8.958417465326379"><ele>307.5</ele><time>2026-04-28T09:44:07.999Z</time></trkpt><trkpt lat="44.6507482727706" lon="8.958193206414784"><ele>305.0</ele><time>2026-04-28T09:44:08.999Z</time></trkpt><trkpt lat="44.65096642468652" lon="8.958023450082607"><ele>305.0</ele><time>2026-04-28T09:44:09.999Z</time></trkpt><trkpt lat="44.65110913069864" lon="8.95772627812884"><ele>305.0</ele><time>2026-04-28T09:44:10.999Z</time></trkpt><trkpt lat="44.65116696614829" lon="8.957363458312765"><ele>311.5</ele><time>2026-04-28T09:44:11.999Z</time></trkpt><trkpt lat="44.651299497329006" lon="8.957085955335407"><ele>318.0</ele><time>2026-04-28T09:44:12.999Z</time></trkpt><trkpt lat="44.65143693281152" lon="8.95682610898854"><ele>315.5</ele><time>2026-04-28T09:44:13.999Z</time></trkpt><trkpt lat="44.651579400946396" lon="8.9565687688869"><ele>313.0</ele><time>2026-04-28T09:44:14.999Z</time></trkpt><trkpt lat="44.65165890714429" lon="8.956238928153232"><ele>313.0</ele><time>2026-04-28T09:44:15.999Z</time></trkpt><trkpt lat="44.65179592227701" lon="8.956018548774502"><ele>313.0</ele><time>2026-04-28T09:44:16.999Z</time></trkpt><trkpt lat="44.65188834112957" lon="8.955784165282868"><ele>313.0</ele><time>2026-04-28T09:44:17.999Z</time></trkpt><trkpt lat="44.651880808703034" lon="8.95564435078826"><ele>311.5</ele><time>2026-04-28T09:44:18.999Z</time></trkpt><trkpt lat="44.6519143874497" lon="8.955434042300702"><ele>310.0</ele><time>2026-04-28T09:44:19.999Z</time></trkpt><trkpt lat="44.65268564014759" lon="8.955312798760167"><ele>349.0</ele><time>2026-04-28T09:44:21.011Z</time></trkpt><trkpt lat="44.65292701968187" lon="8.955084055839054"><ele>388.0</ele><time>2026-04-28T09:44:22.014Z</time></trkpt><trkpt lat="44.6531606452864" lon="8.954866083383678"><ele>388.0</ele><time>2026-04-28T09:44:23.01Z</time></trkpt><trkpt lat="44.65339250258078" lon="8.954647285306509"><ele>388.0</ele><time>2026-04-28T09:44:24.014Z</time></trkpt><trkpt lat="44.65828133285479" lon="8.950214730584015"><ele>344.0</ele><time>2026-04-28T09:44:46.999Z</time></trkpt><trkpt lat="44.65852194345676" lon="8.949995412840483"><ele>300.0</ele><time>2026-04-28T09:44:47.999Z</time></trkpt><trkpt lat="44.65858225789619" lon="8.950226731094947"><ele>297.0</ele><time>2026-04-28T09:44:48.999Z</time></trkpt><trkpt lat="44.65878033602979" lon="8.950182449616113"><ele>294.0</ele><time>2026-04-28T09:44:49.998Z</time></trkpt><trkpt lat="44.6589877779015" lon="8.950181037090237"><ele>291.0</ele><time>2026-04-28T09:44:50.998Z</time></trkpt><trkpt lat="44.659166237926776" lon="8.950205490649637"><ele>291.0</ele><time>2026-04-28T09:44:51.998Z</time></trkpt><trkpt lat="44.659367622347794" lon="8.950246198611783"><ele>291.0</ele><time>2026-04-28T09:44:53Z</time></trkpt><trkpt lat="44.65957143887273" lon="8.950316624114624"><ele>291.0</ele><time>2026-04-28T09:44:54Z</time></trkpt><trkpt lat="44.65976877076088" lon="8.950424083674784"><ele>292.5</ele><time>2026-04-28T09:44:55Z</time></trkpt><trkpt lat="44.65998568857009" lon="8.950550189284282"><ele>294.0</ele><time>2026-04-28T09:44:56Z</time></trkpt><trkpt lat="44.660204911695445" lon="8.950692085179323"><ele>295.3333333333333</ele><time>2026-04-28T09:44:57Z</time></trkpt><trkpt lat="44.66040071002257" lon="8.950827940509312"><ele>296.66666666666663</ele><time>2026-04-28T09:44:58Z</time></trkpt><trkpt lat="44.660595888538396" lon="8.950941686198409"><ele>298.0</ele><time>2026-04-28T09:44:59Z</time></trkpt><trkpt lat="44.66079991366991" lon="8.951041354977766"><ele>298.0</ele><time>2026-04-28T09:45:00Z</time></trkpt><trkpt lat="44.66100364508515" lon="8.951112695254842"><ele>298.0</ele><time>2026-04-28T09:45:01Z</time></trkpt><trkpt lat="44.6612132551" lon="8.95115244782769"><ele>298.0</ele><time>2026-04-28T09:45:02Z</time></trkpt><trkpt lat="44.66143170019802" lon="8.951155046854362"><ele>296.66666666666663</ele><time>2026-04-28T09:45:03Z</time></trkpt><trkpt lat="44.66165478869921" lon="8.951142118588457"><ele>295.3333333333333</ele><time>2026-04-28T09:45:04Z</time></trkpt><trkpt lat="44.661874502875044" lon="8.951111145444415"><ele>294.0</ele><time>2026-04-28T09:45:05Z</time></trkpt><trkpt lat="44.66208152059739" lon="8.951056308811205"><ele>291.6666666666667</ele><time>2026-04-28T09:45:06Z</time></trkpt><trkpt lat="44.662273195397596" lon="8.950979209386455"><ele>289.33333333333337</ele><time>2026-04-28T09:45:07Z</time></trkpt><trkpt lat="44.66245821097362" lon="8.950877765479872"><ele>287.0</ele><time>2026-04-28T09:45:08Z</time></trkpt><trkpt lat="44.662643619282925" lon="8.950749580163206"><ele>288.6666666666667</ele><time>2026-04-28T09:45:09Z</time></trkpt><trkpt lat="44.662812886638655" lon="8.950604320179947"><ele>290.3333333333333</ele><time>2026-04-28T09:45:10Z</time></trkpt><trkpt lat="44.662993681988524" lon="8.95042813544763"><ele>292.0</ele><time>2026-04-28T09:45:11Z</time></trkpt><trkpt lat="44.66315632258786" lon="8.950223275482713"><ele>288.5</ele><time>2026-04-28T09:45:12Z</time></trkpt><trkpt lat="44.66332013942268" lon="8.94997285825631"><ele>285.0</ele><time>2026-04-28T09:45:13Z</time></trkpt><trkpt lat="44.66349252476018" lon="8.949675946810995"><ele>292.5</ele><time>2026-04-28T09:45:14Z</time></trkpt><trkpt lat="44.66367454326423" lon="8.949378321298434"><ele>300.0</ele><time>2026-04-28T09:45:15Z</time></trkpt><trkpt lat="44.66383955602895" lon="8.94909569793568"><ele>300.0</ele><time>2026-04-28T09:45:16Z</time></trkpt><trkpt lat="44.663997683900895" lon="8.948826419137596"><ele>300.0</ele><time>2026-04-28T09:45:17Z</time></trkpt><trkpt lat="44.66414081264526" lon="8.948560689453384"><ele>295.6666666666667</ele><time>2026-04-28T09:45:18Z</time></trkpt><trkpt lat="44.66426212987055" lon="8.948295435586774"><ele>291.33333333333337</ele><time>2026-04-28T09:45:19Z</time></trkpt><trkpt lat="44.66436166863207" lon="8.948031222533912"><ele>287.0</ele><time>2026-04-28T09:45:20Z</time></trkpt><trkpt lat="44.6644364737309" lon="8.947771458200473"><ele>296.6666666666667</ele><time>2026-04-28T09:45:21Z</time></trkpt><trkpt lat="44.66449671933665" lon="8.947504230205118"><ele>306.3333333333333</ele><time>2026-04-28T09:45:22Z</time></trkpt><trkpt lat="44.664537904252455" lon="8.947229274255944"><ele>316.0</ele><time>2026-04-28T09:45:23Z</time></trkpt><trkpt lat="44.664563612432445" lon="8.946951763151139"><ele>318.0</ele><time>2026-04-28T09:45:24Z</time></trkpt><trkpt lat="44.66457467428068" lon="8.94666139466106"><ele>320.0</ele><time>2026-04-28T09:45:25Z</time></trkpt><trkpt lat="44.66456263105475" lon="8.946361456133516"><ele>322.0</ele><time>2026-04-28T09:45:26Z</time></trkpt><trkpt lat="44.664536443707256" lon="8.946052917663206"><ele>321.5</ele><time>2026-04-28T09:45:27Z</time></trkpt><trkpt lat="44.66449064776319" lon="8.945737295920386"><ele>321.0</ele><time>2026-04-28T09:45:28Z</time></trkpt><trkpt lat="44.66443249206182" lon="8.945410972600294"><ele>300.5</ele><time>2026-04-28T09:45:29Z</time></trkpt><trkpt lat="44.66438811121676" lon="8.945091791902453"><ele>280.0</ele><time>2026-04-28T09:45:30Z</time></trkpt><trkpt lat="44.664350351615624" lon="8.94477241604731"><ele>280.0</ele><time>2026-04-28T09:45:31Z</time></trkpt><trkpt lat="44.66431495431891" lon="8.944440148021577"><ele>280.0</ele><time>2026-04-28T09:45:32Z</time></trkpt><trkpt lat="44.66429382414075" lon="8.944102038242752"><ele>283.0</ele><time>2026-04-28T09:45:33Z</time></trkpt><trkpt lat="44.66429224505672" lon="8.943760836790194"><ele>286.0</ele><time>2026-04-28T09:45:34Z</time></trkpt><trkpt lat="44.66431149351681" lon="8.943409487419306"><ele>287.0</ele><time>2026-04-28T09:45:35Z</time></trkpt><trkpt lat="44.664352321804955" lon="8.943071714077053"><ele>288.0</ele><time>2026-04-28T09:45:36Z</time></trkpt><trkpt lat="44.66441605895905" lon="8.942724722478307"><ele>295.5</ele><time>2026-04-28T09:45:37Z</time></trkpt><trkpt lat="44.66449973513426" lon="8.942343435597873"><ele>303.0</ele><time>2026-04-28T09:45:38Z</time></trkpt><trkpt lat="44.66459461580556" lon="8.941995890431935"><ele>297.0</ele><time>2026-04-28T09:45:39Z</time></trkpt><trkpt lat="44.66469093915573" lon="8.941615266838257"><ele>291.0</ele><time>2026-04-28T09:45:40Z</time></trkpt><trkpt lat="44.664792297879934" lon="8.941201979733249"><ele>289.0</ele><time>2026-04-28T09:45:41Z</time></trkpt><trkpt lat="44.66490140649496" lon="8.940793424835373"><ele>287.0</ele><time>2026-04-28T09:45:42Z</time></trkpt><trkpt lat="44.66500321231832" lon="8.940418424297356"><ele>287.0</ele><time>2026-04-28T09:45:43Z</time></trkpt><trkpt lat="44.665095610788455" lon="8.940072792793954"><ele>287.0</ele><time>2026-04-28T09:45:44Z</time></trkpt><trkpt lat="44.66519015477652" lon="8.93971695976708"><ele>288.5</ele><time>2026-04-28T09:45:45Z</time></trkpt><trkpt lat="44.665279285281386" lon="8.939379064421002"><ele>290.0</ele><time>2026-04-28T09:45:46Z</time></trkpt><trkpt lat="44.66535920088339" lon="8.93905472034926"><ele>290.0</ele><time>2026-04-28T09:45:47Z</time></trkpt><trkpt lat="44.665435501584966" lon="8.93872559921495"><ele>290.0</ele><time>2026-04-28T09:45:48Z</time></trkpt><trkpt lat="44.665499262782255" lon="8.93837494072886"><ele>288.5</ele><time>2026-04-28T09:45:49Z</time></trkpt><trkpt lat="44.66555718970312" lon="8.938026906671693"><ele>287.0</ele><time>2026-04-28T09:45:50Z</time></trkpt><trkpt lat="44.66559651481999" lon="8.937674511435107"><ele>285.0</ele><time>2026-04-28T09:45:51Z</time></trkpt><trkpt lat="44.665645529193625" lon="8.937305263232417"><ele>283.0</ele><time>2026-04-28T09:45:51.999Z</time></trkpt><trkpt lat="44.66568217962107" lon="8.936936057835293"><ele>283.0</ele><time>2026-04-28T09:45:52.999Z</time></trkpt><trkpt lat="44.66571521554357" lon="8.936553107001282"><ele>283.0</ele><time>2026-04-28T09:45:53.999Z</time></trkpt><trkpt lat="44.66574413880382" lon="8.936156257801729"><ele>285.0</ele><time>2026-04-28T09:45:54.999Z</time></trkpt><trkpt lat="44.665774507385656" lon="8.93572882432203"><ele>287.0</ele><time>2026-04-28T09:45:55.999Z</time></trkpt><trkpt lat="44.66580931543774" lon="8.935306991033011"><ele>287.5</ele><time>2026-04-28T09:45:56.999Z</time></trkpt><trkpt lat="44.66583960397006" lon="8.934920841576192"><ele>288.0</ele><time>2026-04-28T09:45:57.999Z</time></trkpt><trkpt lat="44.66586821956008" lon="8.934550572374949"><ele>288.5</ele><time>2026-04-28T09:45:58.999Z</time></trkpt><trkpt lat="44.66589455917036" lon="8.934188202380664"><ele>289.0</ele><time>2026-04-28T09:45:59.999Z</time></trkpt><trkpt lat="44.665919970955976" lon="8.933848291324104"><ele>289.0</ele><time>2026-04-28T09:46:00.999Z</time></trkpt><trkpt lat="44.66594932387056" lon="8.933525597913746"><ele>289.0</ele><time>2026-04-28T09:46:01.999Z</time></trkpt><trkpt lat="44.66597039047149" lon="8.933223091285994"><ele>289.0</ele><time>2026-04-28T09:46:02.999Z</time></trkpt><trkpt lat="44.66598858828798" lon="8.932920276170716"><ele>289.0</ele><time>2026-04-28T09:46:03.999Z</time></trkpt><trkpt lat="44.66599411437852" lon="8.932620606871502"><ele>289.0</ele><time>2026-04-28T09:46:04.999Z</time></trkpt><trkpt lat="44.66598544356226" lon="8.932322413182884"><ele>289.0</ele><time>2026-04-28T09:46:05.999Z</time></trkpt><trkpt lat="44.66596636435876" lon="8.932021471178102"><ele>289.0</ele><time>2026-04-28T09:46:06.999Z</time></trkpt><trkpt lat="44.66593344322463" lon="8.931725945544358"><ele>289.0</ele><time>2026-04-28T09:46:07.999Z</time></trkpt><trkpt lat="44.665889185041195" lon="8.931430744215245"><ele>289.0</ele><time>2026-04-28T09:46:08.999Z</time></trkpt><trkpt lat="44.66583487221245" lon="8.931135277321378"><ele>288.3333333333333</ele><time>2026-04-28T09:46:09.999Z</time></trkpt><trkpt lat="44.66576919583649" lon="8.93083856697292"><ele>287.6666666666667</ele><time>2026-04-28T09:46:10.999Z</time></trkpt><trkpt lat="44.66568876282089" lon="8.93054321771763"><ele>287.0</ele><time>2026-04-28T09:46:11.999Z</time></trkpt><trkpt lat="44.665609279146494" lon="8.930256735330556"><ele>286.33333333333337</ele><time>2026-04-28T09:46:12.999Z</time></trkpt><trkpt lat="44.665535531365016" lon="8.929975651112317"><ele>285.6666666666667</ele><time>2026-04-28T09:46:13.999Z</time></trkpt><trkpt lat="44.66546344412493" lon="8.929690753298585"><ele>285.0</ele><time>2026-04-28T09:46:14.999Z</time></trkpt><trkpt lat="44.665391134702375" lon="8.929414362584875"><ele>287.3333333333333</ele><time>2026-04-28T09:46:15.999Z</time></trkpt><trkpt lat="44.665323556709794" lon="8.929144139131353"><ele>289.66666666666663</ele><time>2026-04-28T09:46:16.999Z</time></trkpt><trkpt lat="44.66526624724435" lon="8.928884116402779"><ele>292.0</ele><time>2026-04-28T09:46:17.999Z</time></trkpt><trkpt lat="44.66521861333326" lon="8.928606349501997"><ele>296.3333333333333</ele><time>2026-04-28T09:46:18.999Z</time></trkpt><trkpt lat="44.66519088081056" lon="8.928323867818584"><ele>300.6666666666667</ele><time>2026-04-28T09:46:19.999Z</time></trkpt><trkpt lat="44.66517082864186" lon="8.928026192049414"><ele>305.0</ele><time>2026-04-28T09:46:20.999Z</time></trkpt><trkpt lat="44.665146843859134" lon="8.927713496405426"><ele>322.0</ele><time>2026-04-28T09:46:21.999Z</time></trkpt><trkpt lat="44.66512275157044" lon="8.927380478033543"><ele>339.0</ele><time>2026-04-28T09:46:23.016Z</time></trkpt><trkpt lat="44.66509809266964" lon="8.92703851519559"><ele>363.5</ele><time>2026-04-28T09:46:24.013Z</time></trkpt><trkpt lat="44.66507435476336" lon="8.926673270637563"><ele>388.0</ele><time>2026-04-28T09:46:25.014Z</time></trkpt><trkpt lat="44.665047642100994" lon="8.926302435203874"><ele>527.0</ele><time>2026-04-28T09:46:26.015Z</time></trkpt><trkpt lat="44.664772559483296" lon="8.921902651456827"><ele>289.0</ele><time>2026-04-28T09:46:40.378Z</time></trkpt><trkpt lat="44.66448473748254" lon="8.91323964112337"><ele>289.0</ele><time>2026-04-28T09:47:00.999Z</time></trkpt><trkpt lat="44.664475348143654" lon="8.912933529719814"><ele>289.0</ele><time>2026-04-28T09:47:01.999Z</time></trkpt><trkpt lat="44.6644123504972" lon="8.912675413398846"><ele>289.0</ele><time>2026-04-28T09:47:02.999Z</time></trkpt><trkpt lat="44.66446296405589" lon="8.91235537868292"><ele>286.66666666666663</ele><time>2026-04-28T09:47:03.999Z</time></trkpt><trkpt lat="44.664526661120085" lon="8.912059401159851"><ele>284.3333333333333</ele><time>2026-04-28T09:47:04.999Z</time></trkpt><trkpt lat="44.66461253576321" lon="8.91177517726944"><ele>282.0</ele><time>2026-04-28T09:47:05.999Z</time></trkpt><trkpt lat="44.664705669933184" lon="8.911487232131291"><ele>277.6666666666667</ele><time>2026-04-28T09:47:07Z</time></trkpt><trkpt lat="44.664814507256" lon="8.911224503812921"><ele>273.33333333333337</ele><time>2026-04-28T09:47:08Z</time></trkpt><trkpt lat="44.66495861728179" lon="8.910990069786775"><ele>269.0</ele><time>2026-04-28T09:47:09Z</time></trkpt><trkpt lat="44.66511831099309" lon="8.910776872331974"><ele>267.0</ele><time>2026-04-28T09:47:10Z</time></trkpt><trkpt lat="44.665295833781535" lon="8.910581704678217"><ele>265.0</ele><time>2026-04-28T09:47:11Z</time></trkpt><trkpt lat="44.66548747933139" lon="8.910412010993236"><ele>265.0</ele><time>2026-04-28T09:47:12Z</time></trkpt><trkpt lat="44.66569412802521" lon="8.910227120777828"><ele>265.0</ele><time>2026-04-28T09:47:13Z</time></trkpt><trkpt lat="44.66590925973341" lon="8.910008800354374"><ele>265.0</ele><time>2026-04-28T09:47:14Z</time></trkpt><trkpt lat="44.666143420211895" lon="8.90977257440977"><ele>265.0</ele><time>2026-04-28T09:47:15Z</time></trkpt><trkpt lat="44.6663874331159" lon="8.909526058879282"><ele>265.0</ele><time>2026-04-28T09:47:16Z</time></trkpt><trkpt lat="44.6666534938335" lon="8.90926336200562"><ele>265.0</ele><time>2026-04-28T09:47:17Z</time></trkpt><trkpt lat="44.66690367864136" lon="8.909021309016381"><ele>267.0</ele><time>2026-04-28T09:47:18Z</time></trkpt><trkpt lat="44.66713595799579" lon="8.908791730001838"><ele>269.0</ele><time>2026-04-28T09:47:19Z</time></trkpt><trkpt lat="44.66735466230251" lon="8.908578034157024"><ele>267.5</ele><time>2026-04-28T09:47:20Z</time></trkpt><trkpt lat="44.66756749451087" lon="8.908368679214549"><ele>266.0</ele><time>2026-04-28T09:47:21Z</time></trkpt><trkpt lat="44.66778076425236" lon="8.908161109278513"><ele>266.0</ele><time>2026-04-28T09:47:22Z</time></trkpt><trkpt lat="44.66798115733171" lon="8.90797032705756"><ele>266.0</ele><time>2026-04-28T09:47:23Z</time></trkpt><trkpt lat="44.668182749886995" lon="8.907790174722601"><ele>266.0</ele><time>2026-04-28T09:47:24Z</time></trkpt><trkpt lat="44.66839347303242" lon="8.907615315510863"><ele>266.0</ele><time>2026-04-28T09:47:25Z</time></trkpt><trkpt lat="44.668623328666236" lon="8.907458921769376"><ele>266.0</ele><time>2026-04-28T09:47:26Z</time></trkpt><trkpt lat="44.66886422888825" lon="8.907314049113879"><ele>266.0</ele><time>2026-04-28T09:47:27Z</time></trkpt><trkpt lat="44.66912317434549" lon="8.90716718241652"><ele>266.0</ele><time>2026-04-28T09:47:28Z</time></trkpt><trkpt lat="44.66940176673217" lon="8.907011827275525"><ele>266.0</ele><time>2026-04-28T09:47:29Z</time></trkpt><trkpt lat="44.66967559807997" lon="8.906856891462288"><ele>265.0</ele><time>2026-04-28T09:47:30Z</time></trkpt><trkpt lat="44.66992970155806" lon="8.906716332409339"><ele>264.0</ele><time>2026-04-28T09:47:31Z</time></trkpt><trkpt lat="44.670176261733" lon="8.90657802325227"><ele>265.0</ele><time>2026-04-28T09:47:32Z</time></trkpt><trkpt lat="44.67041832417972" lon="8.906438060420061"><ele>266.0</ele><time>2026-04-28T09:47:33Z</time></trkpt><trkpt lat="44.67065630251957" lon="8.906309528060675"><ele>266.0</ele><time>2026-04-28T09:47:34Z</time></trkpt><trkpt lat="44.67090358120658" lon="8.906189311169147"><ele>266.0</ele><time>2026-04-28T09:47:35Z</time></trkpt><trkpt lat="44.671151393651535" lon="8.90608309954309"><ele>267.0</ele><time>2026-04-28T09:47:36Z</time></trkpt><trkpt lat="44.671392222427535" lon="8.905995631988116"><ele>268.0</ele><time>2026-04-28T09:47:37Z</time></trkpt><trkpt lat="44.67161602311701" lon="8.905909308458398"><ele>266.3333333333333</ele><time>2026-04-28T09:47:38Z</time></trkpt><trkpt lat="44.67183092506215" lon="8.905840048808388"><ele>264.6666666666667</ele><time>2026-04-28T09:47:39Z</time></trkpt><trkpt lat="44.67204269550638" lon="8.905773994127271"><ele>263.0</ele><time>2026-04-28T09:47:40Z</time></trkpt><trkpt lat="44.67226067466869" lon="8.905709627226221"><ele>263.0</ele><time>2026-04-28T09:47:41Z</time></trkpt><trkpt lat="44.672474739409736" lon="8.905647534355488"><ele>263.0</ele><time>2026-04-28T09:47:42Z</time></trkpt><trkpt lat="44.6726858398906" lon="8.905586140832149"><ele>263.0</ele><time>2026-04-28T09:47:43Z</time></trkpt><trkpt lat="44.67289981826715" lon="8.90552530129891"><ele>263.0</ele><time>2026-04-28T09:47:44Z</time></trkpt><trkpt lat="44.67311488818268" lon="8.90546427804671"><ele>263.0</ele><time>2026-04-28T09:47:45Z</time></trkpt><trkpt lat="44.67333325018104" lon="8.905402804144135"><ele>263.0</ele><time>2026-04-28T09:47:46Z</time></trkpt><trkpt lat="44.67355573246524" lon="8.905343606311423"><ele>263.5</ele><time>2026-04-28T09:47:47Z</time></trkpt><trkpt lat="44.673776871369" lon="8.905282548774077"><ele>264.0</ele><time>2026-04-28T09:47:48Z</time></trkpt><trkpt lat="44.67400642128451" lon="8.905227079040275"><ele>264.0</ele><time>2026-04-28T09:47:49Z</time></trkpt><trkpt lat="44.67423109197792" lon="8.90518555195121"><ele>264.0</ele><time>2026-04-28T09:47:50Z</time></trkpt><trkpt lat="44.674453491501524" lon="8.9051677824471"><ele>264.0</ele><time>2026-04-28T09:47:51Z</time></trkpt><trkpt lat="44.674675829537634" lon="8.905174549029322"><ele>264.0</ele><time>2026-04-28T09:47:52Z</time></trkpt><trkpt lat="44.67488727646872" lon="8.905202030535156"><ele>264.0</ele><time>2026-04-28T09:47:53Z</time></trkpt><trkpt lat="44.6751111777042" lon="8.905240026625174"><ele>264.0</ele><time>2026-04-28T09:47:54Z</time></trkpt><trkpt lat="44.675330816708836" lon="8.905280422322939"><ele>266.0</ele><time>2026-04-28T09:47:55Z</time></trkpt><trkpt lat="44.67554084157195" lon="8.905298857603386"><ele>268.0</ele><time>2026-04-28T09:47:56Z</time></trkpt><trkpt lat="44.675727476452536" lon="8.90532429067001"><ele>270.0</ele><time>2026-04-28T09:47:57Z</time></trkpt><trkpt lat="44.67589451912526" lon="8.905335860132492"><ele>270.0</ele><time>2026-04-28T09:47:58Z</time></trkpt><trkpt lat="44.676062022204924" lon="8.905325775796403"><ele>270.0</ele><time>2026-04-28T09:47:58.999Z</time></trkpt><trkpt lat="44.676223258554266" lon="8.905311810826138"><ele>270.0</ele><time>2026-04-28T09:47:59.999Z</time></trkpt><trkpt lat="44.6763779432623" lon="8.905286988738842"><ele>269.0</ele><time>2026-04-28T09:48:00.999Z</time></trkpt><trkpt lat="44.67653154910282" lon="8.90525331804088"><ele>268.0</ele><time>2026-04-28T09:48:01.999Z</time></trkpt><trkpt lat="44.67669393885159" lon="8.90520808659157"><ele>267.0</ele><time>2026-04-28T09:48:02.999Z</time></trkpt><trkpt lat="44.67685816304178" lon="8.905155491217995"><ele>268.0</ele><time>2026-04-28T09:48:03.999Z</time></trkpt><trkpt lat="44.67702339585642" lon="8.905100288053323"><ele>269.0</ele><time>2026-04-28T09:48:04.999Z</time></trkpt><trkpt lat="44.67719550788612" lon="8.905041112113377"><ele>270.0</ele><time>2026-04-28T09:48:05.999Z</time></trkpt><trkpt lat="44.677370700580774" lon="8.904985198218515"><ele>267.3333333333333</ele><time>2026-04-28T09:48:06.999Z</time></trkpt><trkpt lat="44.67755395026828" lon="8.904922066902484"><ele>264.66666666666663</ele><time>2026-04-28T09:48:07.999Z</time></trkpt><trkpt lat="44.67773957044302" lon="8.904856918832603"><ele>262.0</ele><time>2026-04-28T09:48:08.999Z</time></trkpt><trkpt lat="44.677928473003455" lon="8.904790845903246"><ele>262.0</ele><time>2026-04-28T09:48:09.999Z</time></trkpt><trkpt lat="44.678117022304384" lon="8.904725282172565"><ele>262.0</ele><time>2026-04-28T09:48:10.999Z</time></trkpt><trkpt lat="44.678310867116615" lon="8.90465719116268"><ele>262.0</ele><time>2026-04-28T09:48:11.999Z</time></trkpt><trkpt lat="44.6785052213291" lon="8.904594972735632"><ele>265.0</ele><time>2026-04-28T09:48:12.999Z</time></trkpt><trkpt lat="44.67870616331539" lon="8.904530429033507"><ele>268.0</ele><time>2026-04-28T09:48:13.999Z</time></trkpt><trkpt lat="44.67890958154522" lon="8.90445889672991"><ele>271.0</ele><time>2026-04-28T09:48:14.999Z</time></trkpt><trkpt lat="44.67911332451405" lon="8.904386544535381"><ele>271.0</ele><time>2026-04-28T09:48:15.999Z</time></trkpt><trkpt lat="44.679320974098566" lon="8.90431262123626"><ele>271.0</ele><time>2026-04-28T09:48:16.999Z</time></trkpt><trkpt lat="44.67952831647844" lon="8.904244330642165"><ele>271.0</ele><time>2026-04-28T09:48:17.999Z</time></trkpt><trkpt lat="44.67972926197839" lon="8.904173143290953"><ele>267.3333333333333</ele><time>2026-04-28T09:48:18.999Z</time></trkpt><trkpt lat="44.67992537555875" lon="8.904104827772782"><ele>263.6666666666667</ele><time>2026-04-28T09:48:19.999Z</time></trkpt><trkpt lat="44.68011388318133" lon="8.904045057630587"><ele>260.0</ele><time>2026-04-28T09:48:20.999Z</time></trkpt><trkpt lat="44.68029982775575" lon="8.904007404012516"><ele>259.33333333333337</ele><time>2026-04-28T09:48:21.999Z</time></trkpt><trkpt lat="44.680486905478546" lon="8.903987394372274"><ele>258.6666666666667</ele><time>2026-04-28T09:48:22.999Z</time></trkpt><trkpt lat="44.68068220226109" lon="8.903989570853817"><ele>258.0</ele><time>2026-04-28T09:48:23.999Z</time></trkpt><trkpt lat="44.68088149911049" lon="8.904011568228855"><ele>258.0</ele><time>2026-04-28T09:48:24.999Z</time></trkpt><trkpt lat="44.6810928362669" lon="8.904055764106657"><ele>258.0</ele><time>2026-04-28T09:48:25.999Z</time></trkpt><trkpt lat="44.68132889168294" lon="8.904131497201128"><ele>257.5</ele><time>2026-04-28T09:48:26.999Z</time></trkpt><trkpt lat="44.68155248156214" lon="8.904227236663019"><ele>257.0</ele><time>2026-04-28T09:48:27.999Z</time></trkpt><trkpt lat="44.6817604017512" lon="8.904319021733718"><ele>260.0</ele><time>2026-04-28T09:48:28.999Z</time></trkpt><trkpt lat="44.681970658782134" lon="8.90438434888527"><ele>263.0</ele><time>2026-04-28T09:48:29.999Z</time></trkpt><trkpt lat="44.68217442442757" lon="8.904423168588723"><ele>266.0</ele><time>2026-04-28T09:48:30.999Z</time></trkpt><trkpt lat="44.682385192899666" lon="8.904443494668051"><ele>266.0</ele><time>2026-04-28T09:48:31.999Z</time></trkpt><trkpt lat="44.68259979539552" lon="8.904443328598118"><ele>266.0</ele><time>2026-04-28T09:48:32.999Z</time></trkpt><trkpt lat="44.68281672569742" lon="8.90441749659003"><ele>266.0</ele><time>2026-04-28T09:48:33.999Z</time></trkpt><trkpt lat="44.68303648040153" lon="8.90436355888937"><ele>270.5</ele><time>2026-04-28T09:48:34.999Z</time></trkpt><trkpt lat="44.683258983182206" lon="8.90427544029019"><ele>275.0</ele><time>2026-04-28T09:48:35.999Z</time></trkpt><trkpt lat="44.68347613486665" lon="8.904168892671589"><ele>269.0</ele><time>2026-04-28T09:48:36.999Z</time></trkpt><trkpt lat="44.68369232689353" lon="8.904034345945332"><ele>263.0</ele><time>2026-04-28T09:48:37.999Z</time></trkpt><trkpt lat="44.68390177490538" lon="8.90387491895028"><ele>263.0</ele><time>2026-04-28T09:48:38.999Z</time></trkpt><trkpt lat="44.68411200972467" lon="8.903699957964797"><ele>263.0</ele><time>2026-04-28T09:48:39.999Z</time></trkpt><trkpt lat="44.68433570370777" lon="8.9035334209973"><ele>259.5</ele><time>2026-04-28T09:48:40.999Z</time></trkpt><trkpt lat="44.68456375888412" lon="8.90336785448817"><ele>256.0</ele><time>2026-04-28T09:48:41.999Z</time></trkpt><trkpt lat="44.68479526594306" lon="8.903185976189686"><ele>256.0</ele><time>2026-04-28T09:48:42.999Z</time></trkpt><trkpt lat="44.685040982247976" lon="8.902995337572733"><ele>256.0</ele><time>2026-04-28T09:48:43.999Z</time></trkpt><trkpt lat="44.68527527342876" lon="8.902819838213244"><ele>251.5</ele><time>2026-04-28T09:48:44.999Z</time></trkpt><trkpt lat="44.68548636244629" lon="8.902655482176801"><ele>247.0</ele><time>2026-04-28T09:48:45.999Z</time></trkpt><trkpt lat="44.68569859293183" lon="8.902492363840329"><ele>247.0</ele><time>2026-04-28T09:48:46.999Z</time></trkpt><trkpt lat="44.685912232848175" lon="8.902330505349347"><ele>247.0</ele><time>2026-04-28T09:48:47.999Z</time></trkpt><trkpt lat="44.686118944389854" lon="8.902179461178878"><ele>254.0</ele><time>2026-04-28T09:48:48.999Z</time></trkpt><trkpt lat="44.68632533591881" lon="8.902025852628961"><ele>261.0</ele><time>2026-04-28T09:48:49.999Z</time></trkpt><trkpt lat="44.6865306712186" lon="8.901881807028166"><ele>261.0</ele><time>2026-04-28T09:48:50.999Z</time></trkpt><trkpt lat="44.686741652102455" lon="8.901749009652606"><ele>261.0</ele><time>2026-04-28T09:48:51.999Z</time></trkpt><trkpt lat="44.686965197891396" lon="8.901648197085818"><ele>255.0</ele><time>2026-04-28T09:48:52.999Z</time></trkpt><trkpt lat="44.68719462191541" lon="8.901563151679909"><ele>249.0</ele><time>2026-04-28T09:48:53.999Z</time></trkpt><trkpt lat="44.68743170301736" lon="8.901487166028376"><ele>249.0</ele><time>2026-04-28T09:48:54.999Z</time></trkpt><trkpt lat="44.6876696931644" lon="8.90141578183852"><ele>249.0</ele><time>2026-04-28T09:48:55.999Z</time></trkpt><trkpt lat="44.6879050784183" lon="8.901336511959075"><ele>247.0</ele><time>2026-04-28T09:48:56.999Z</time></trkpt><trkpt lat="44.688136996913784" lon="8.90126500588232"><ele>245.0</ele><time>2026-04-28T09:48:57.999Z</time></trkpt><trkpt lat="44.68836146654189" lon="8.901190070655666"><ele>245.0</ele><time>2026-04-28T09:48:58.999Z</time></trkpt><trkpt lat="44.688589596864986" lon="8.901111649222187"><ele>245.0</ele><time>2026-04-28T09:48:59.999Z</time></trkpt><trkpt lat="44.68881336649988" lon="8.901037309926933"><ele>243.5</ele><time>2026-04-28T09:49:00.999Z</time></trkpt><trkpt lat="44.68904076884238" lon="8.900965437929766"><ele>242.0</ele><time>2026-04-28T09:49:01.999Z</time></trkpt><trkpt lat="44.689270536766614" lon="8.900882179510983"><ele>238.5</ele><time>2026-04-28T09:49:02.999Z</time></trkpt><trkpt lat="44.68949439680741" lon="8.900810448048212"><ele>235.0</ele><time>2026-04-28T09:49:03.999Z</time></trkpt><trkpt lat="44.68971623750829" lon="8.900731798211382"><ele>235.0</ele><time>2026-04-28T09:49:04.999Z</time></trkpt><trkpt lat="44.68993420401874" lon="8.900637400597828"><ele>235.0</ele><time>2026-04-28T09:49:05.999Z</time></trkpt><trkpt lat="44.690148979915364" lon="8.900526870822826"><ele>236.0</ele><time>2026-04-28T09:49:06.999Z</time></trkpt><trkpt lat="44.69036497324131" lon="8.900397781201098"><ele>237.0</ele><time>2026-04-28T09:49:07.999Z</time></trkpt><trkpt lat="44.69057985888766" lon="8.900256487649992"><ele>237.0</ele><time>2026-04-28T09:49:08.999Z</time></trkpt><trkpt lat="44.69079919434708" lon="8.900087993926931"><ele>237.0</ele><time>2026-04-28T09:49:09.999Z</time></trkpt><trkpt lat="44.691022751877384" lon="8.899894472860185"><ele>231.0</ele><time>2026-04-28T09:49:10.999Z</time></trkpt><trkpt lat="44.691262605035064" lon="8.899677130266182"><ele>225.0</ele><time>2026-04-28T09:49:11.999Z</time></trkpt><trkpt lat="44.691520248090946" lon="8.89944865388101"><ele>223.5</ele><time>2026-04-28T09:49:13Z</time></trkpt><trkpt lat="44.691795722019876" lon="8.899211067292741"><ele>222.0</ele><time>2026-04-28T09:49:14Z</time></trkpt><trkpt lat="44.6920853850913" lon="8.898967470365594"><ele>221.5</ele><time>2026-04-28T09:49:15Z</time></trkpt><trkpt lat="44.69238554794803" lon="8.898714979873526"><ele>221.0</ele><time>2026-04-28T09:49:16Z</time></trkpt><trkpt lat="44.692686093068666" lon="8.898454734981488"><ele>222.5</ele><time>2026-04-28T09:49:17Z</time></trkpt><trkpt lat="44.69297468878445" lon="8.898202414799718"><ele>224.0</ele><time>2026-04-28T09:49:18Z</time></trkpt><trkpt lat="44.69325017961536" lon="8.897963278905916"><ele>224.0</ele><time>2026-04-28T09:49:19Z</time></trkpt><trkpt lat="44.693514708654114" lon="8.89772431948891"><ele>224.0</ele><time>2026-04-28T09:49:20Z</time></trkpt><trkpt lat="44.69378919376368" lon="8.897485652663724"><ele>231.5</ele><time>2026-04-28T09:49:21Z</time></trkpt><trkpt lat="44.69406581889212" lon="8.897242736122646"><ele>239.0</ele><time>2026-04-28T09:49:22Z</time></trkpt><trkpt lat="44.6943401799416" lon="8.897007284270638"><ele>236.0</ele><time>2026-04-28T09:49:23Z</time></trkpt><trkpt lat="44.69461028266105" lon="8.896780709951834"><ele>233.0</ele><time>2026-04-28T09:49:24Z</time></trkpt><trkpt lat="44.69488083987461" lon="8.896554058238307"><ele>233.0</ele><time>2026-04-28T09:49:25Z</time></trkpt><trkpt lat="44.69515526910446" lon="8.896322551795713"><ele>233.0</ele><time>2026-04-28T09:49:26Z</time></trkpt><trkpt lat="44.69543538927448" lon="8.89608988288918"><ele>233.0</ele><time>2026-04-28T09:49:27Z</time></trkpt><trkpt lat="44.695715716849286" lon="8.895848069150272"><ele>233.0</ele><time>2026-04-28T09:49:28Z</time></trkpt><trkpt lat="44.695975373080735" lon="8.895630199947425"><ele>236.0</ele><time>2026-04-28T09:49:29Z</time></trkpt><trkpt lat="44.69621632477617" lon="8.895417429084826"><ele>239.0</ele><time>2026-04-28T09:49:30Z</time></trkpt><trkpt lat="44.696440070467816" lon="8.895218306382748"><ele>235.0</ele><time>2026-04-28T09:49:31Z</time></trkpt><trkpt lat="44.6966517030382" lon="8.895040442327806"><ele>231.0</ele><time>2026-04-28T09:49:32Z</time></trkpt><trkpt lat="44.696847839085834" lon="8.894881664022822"><ele>231.66666666666669</ele><time>2026-04-28T09:49:33Z</time></trkpt><trkpt lat="44.6970475417639" lon="8.894753401485556"><ele>232.33333333333334</ele><time>2026-04-28T09:49:34Z</time></trkpt><trkpt lat="44.697255151533845" lon="8.894653970195725"><ele>233.0</ele><time>2026-04-28T09:49:35Z</time></trkpt><trkpt lat="44.69747877318494" lon="8.894576320925713"><ele>233.0</ele><time>2026-04-28T09:49:36Z</time></trkpt><trkpt lat="44.697695572637116" lon="8.894511682437805"><ele>233.0</ele><time>2026-04-28T09:49:37Z</time></trkpt><trkpt lat="44.6979045562209" lon="8.894444557717176"><ele>233.0</ele><time>2026-04-28T09:49:38Z</time></trkpt><trkpt lat="44.698107290050956" lon="8.894354779747765"><ele>233.66666666666669</ele><time>2026-04-28T09:49:39Z</time></trkpt><trkpt lat="44.698299121079025" lon="8.894251382079872"><ele>234.33333333333331</ele><time>2026-04-28T09:49:40Z</time></trkpt><trkpt lat="44.698494171434184" lon="8.894122235796313"><ele>235.0</ele><time>2026-04-28T09:49:41Z</time></trkpt><trkpt lat="44.69868602345305" lon="8.893969180787371"><ele>235.0</ele><time>2026-04-28T09:49:42Z</time></trkpt><trkpt lat="44.698879532564874" lon="8.893788147441505"><ele>235.0</ele><time>2026-04-28T09:49:43Z</time></trkpt><trkpt lat="44.69908144595369" lon="8.893579548916051"><ele>235.5</ele><time>2026-04-28T09:49:44Z</time></trkpt><trkpt lat="44.69929131391415" lon="8.893346001079982"><ele>236.0</ele><time>2026-04-28T09:49:45Z</time></trkpt><trkpt lat="44.699521448988" lon="8.89309490730786"><ele>236.0</ele><time>2026-04-28T09:49:46Z</time></trkpt><trkpt lat="44.69976610327611" lon="8.89283158417818"><ele>236.0</ele><time>2026-04-28T09:49:47Z</time></trkpt><trkpt lat="44.70000229855182" lon="8.892581958664818"><ele>231.5</ele><time>2026-04-28T09:49:48Z</time></trkpt><trkpt lat="44.70021265369135" lon="8.892343326436754"><ele>227.0</ele><time>2026-04-28T09:49:49Z</time></trkpt><trkpt lat="44.7004199809686" lon="8.892115686792057"><ele>230.0</ele><time>2026-04-28T09:49:50Z</time></trkpt><trkpt lat="44.70062358433769" lon="8.891895074444674"><ele>233.0</ele><time>2026-04-28T09:49:51Z</time></trkpt><trkpt lat="44.7008217916471" lon="8.891681463799848"><ele>233.0</ele><time>2026-04-28T09:49:52Z</time></trkpt><trkpt lat="44.70100441707453" lon="8.891476171630696"><ele>233.0</ele><time>2026-04-28T09:49:53Z</time></trkpt><trkpt lat="44.701171353068766" lon="8.891273482528657"><ele>233.0</ele><time>2026-04-28T09:49:54Z</time></trkpt><trkpt lat="44.7013246417777" lon="8.891058652631324"><ele>233.0</ele><time>2026-04-28T09:49:55Z</time></trkpt><trkpt lat="44.701464754673495" lon="8.890823954275124"><ele>233.0</ele><time>2026-04-28T09:49:56Z</time></trkpt><trkpt lat="44.701587080349924" lon="8.890579203347041"><ele>233.0</ele><time>2026-04-28T09:49:57Z</time></trkpt><trkpt lat="44.70169793757118" lon="8.890319728992155"><ele>233.0</ele><time>2026-04-28T09:49:58Z</time></trkpt><trkpt lat="44.701805994402505" lon="8.890047486498915"><ele>233.0</ele><time>2026-04-28T09:49:59Z</time></trkpt><trkpt lat="44.701927484895485" lon="8.889771940978152"><ele>234.66666666666669</ele><time>2026-04-28T09:50:00Z</time></trkpt><trkpt lat="44.702044892652594" lon="8.88950554591133"><ele>236.33333333333331</ele><time>2026-04-28T09:50:01Z</time></trkpt><trkpt lat="44.70215106033955" lon="8.889244108312845"><ele>238.0</ele><time>2026-04-28T09:50:02Z</time></trkpt><trkpt lat="44.702257670823386" lon="8.888987364852523"><ele>238.0</ele><time>2026-04-28T09:50:03Z</time></trkpt><trkpt lat="44.70236282251869" lon="8.888735675363598"><ele>238.0</ele><time>2026-04-28T09:50:04Z</time></trkpt><trkpt lat="44.702464876501764" lon="8.888482299341026"><ele>238.0</ele><time>2026-04-28T09:50:05Z</time></trkpt><trkpt lat="44.70256482562013" lon="8.888225487047796"><ele>237.0</ele><time>2026-04-28T09:50:06Z</time></trkpt><trkpt lat="44.70266312727245" lon="8.887966964166555"><ele>236.0</ele><time>2026-04-28T09:50:07Z</time></trkpt><trkpt lat="44.70275506216994" lon="8.88769891766639"><ele>235.0</ele><time>2026-04-28T09:50:08Z</time></trkpt><trkpt lat="44.70283157842776" lon="8.88741901441958"><ele>235.0</ele><time>2026-04-28T09:50:09Z</time></trkpt><trkpt lat="44.702892471253115" lon="8.887132076180897"><ele>235.0</ele><time>2026-04-28T09:50:10Z</time></trkpt><trkpt lat="44.702958042037224" lon="8.886832839239146"><ele>235.0</ele><time>2026-04-28T09:50:11Z</time></trkpt><trkpt lat="44.703030767847004" lon="8.886532061104177"><ele>236.5</ele><time>2026-04-28T09:50:11.999Z</time></trkpt><trkpt lat="44.70309619042458" lon="8.886223237996058"><ele>238.0</ele><time>2026-04-28T09:50:12.999Z</time></trkpt><trkpt lat="44.703160846749505" lon="8.885911833071424"><ele>234.5</ele><time>2026-04-28T09:50:13.999Z</time></trkpt><trkpt lat="44.70322620125113" lon="8.885596015538882"><ele>231.0</ele><time>2026-04-28T09:50:14.999Z</time></trkpt><trkpt lat="44.703295557001745" lon="8.885289476872654"><ele>229.5</ele><time>2026-04-28T09:50:15.999Z</time></trkpt><trkpt lat="44.70336802441078" lon="8.884984152193686"><ele>228.0</ele><time>2026-04-28T09:50:16.999Z</time></trkpt><trkpt lat="44.70345314272684" lon="8.884674222057278"><ele>228.0</ele><time>2026-04-28T09:50:17.999Z</time></trkpt><trkpt lat="44.703550556249795" lon="8.884375583640052"><ele>228.0</ele><time>2026-04-28T09:50:18.999Z</time></trkpt><trkpt lat="44.70366040613218" lon="8.884088577848726"><ele>231.5</ele><time>2026-04-28T09:50:19.999Z</time></trkpt><trkpt lat="44.703781148222305" lon="8.883805073140937"><ele>235.0</ele><time>2026-04-28T09:50:20.999Z</time></trkpt><trkpt lat="44.703910871053516" lon="8.883526103849292"><ele>232.5</ele><time>2026-04-28T09:50:21.999Z</time></trkpt><trkpt lat="44.70405125954137" lon="8.883247410610412"><ele>230.0</ele><time>2026-04-28T09:50:22.999Z</time></trkpt><trkpt lat="44.70418947084505" lon="8.882972889751455"><ele>230.0</ele><time>2026-04-28T09:50:23.999Z</time></trkpt><trkpt lat="44.70431925429765" lon="8.882712462516695"><ele>230.0</ele><time>2026-04-28T09:50:24.999Z</time></trkpt><trkpt lat="44.704443584844824" lon="8.882472038767869"><ele>230.0</ele><time>2026-04-28T09:50:25.999Z</time></trkpt><trkpt lat="44.70456464019856" lon="8.882241609542502"><ele>230.66666666666669</ele><time>2026-04-28T09:50:26.999Z</time></trkpt><trkpt lat="44.7046815547014" lon="8.88203685287957"><ele>231.33333333333331</ele><time>2026-04-28T09:50:27.999Z</time></trkpt><trkpt lat="44.70481607908655" lon="8.881849365667776"><ele>232.0</ele><time>2026-04-28T09:50:28.999Z</time></trkpt><trkpt lat="44.70498016069488" lon="8.88169167880096"><ele>230.66666666666666</ele><time>2026-04-28T09:50:29.999Z</time></trkpt><trkpt lat="44.70515705324991" lon="8.88154713398062"><ele>229.33333333333331</ele><time>2026-04-28T09:50:30.999Z</time></trkpt><trkpt lat="44.70533702245926" lon="8.881378508759035"><ele>228.0</ele><time>2026-04-28T09:50:31.999Z</time></trkpt><trkpt lat="44.705517707398464" lon="8.881204609122243"><ele>228.0</ele><time>2026-04-28T09:50:32.999Z</time></trkpt><trkpt lat="44.705698232631896" lon="8.881031576210923"><ele>228.0</ele><time>2026-04-28T09:50:33.999Z</time></trkpt><trkpt lat="44.70587256916058" lon="8.880853315014951"><ele>228.0</ele><time>2026-04-28T09:50:34.999Z</time></trkpt><trkpt lat="44.70603699575324" lon="8.880671312026815"><ele>222.66666666666669</ele><time>2026-04-28T09:50:35.999Z</time></trkpt><trkpt lat="44.70619598084113" lon="8.880469667035989"><ele>217.33333333333334</ele><time>2026-04-28T09:50:36.999Z</time></trkpt><trkpt lat="44.70635666484119" lon="8.880257200770952"><ele>212.0</ele><time>2026-04-28T09:50:37.999Z</time></trkpt><trkpt lat="44.706520866678" lon="8.880039628248065"><ele>212.0</ele><time>2026-04-28T09:50:38.999Z</time></trkpt><trkpt lat="44.70668889693773" lon="8.879816790656038"><ele>212.0</ele><time>2026-04-28T09:50:39.999Z</time></trkpt><trkpt lat="44.7068688175505" lon="8.879573017546683"><ele>211.5</ele><time>2026-04-28T09:50:40.999Z</time></trkpt><trkpt lat="44.707067158510114" lon="8.879309280021802"><ele>211.0</ele><time>2026-04-28T09:50:41.999Z</time></trkpt><trkpt lat="44.70727254574258" lon="8.879038361561589"><ele>211.0</ele><time>2026-04-28T09:50:42.999Z</time></trkpt><trkpt lat="44.70747167605018" lon="8.878780085557382"><ele>211.0</ele><time>2026-04-28T09:50:43.999Z</time></trkpt><trkpt lat="44.707659757950296" lon="8.878526753377272"><ele>211.5</ele><time>2026-04-28T09:50:44.999Z</time></trkpt><trkpt lat="44.70784196992495" lon="8.878279273894803"><ele>212.0</ele><time>2026-04-28T09:50:45.999Z</time></trkpt><trkpt lat="44.70802315910248" lon="8.878034765957151"><ele>212.0</ele><time>2026-04-28T09:50:46.999Z</time></trkpt><trkpt lat="44.70820424288915" lon="8.877794021329176"><ele>212.0</ele><time>2026-04-28T09:50:47.999Z</time></trkpt><trkpt lat="44.70838340691419" lon="8.877555580604195"><ele>212.0</ele><time>2026-04-28T09:50:48.999Z</time></trkpt><trkpt lat="44.708551449217474" lon="8.87731497119501"><ele>212.0</ele><time>2026-04-28T09:50:49.999Z</time></trkpt><trkpt lat="44.70872693364465" lon="8.87705925994487"><ele>212.0</ele><time>2026-04-28T09:50:50.999Z</time></trkpt><trkpt lat="44.708899241703996" lon="8.876799673586191"><ele>212.0</ele><time>2026-04-28T09:50:51.999Z</time></trkpt><trkpt lat="44.70907730747059" lon="8.87652747496346"><ele>212.5</ele><time>2026-04-28T09:50:52.999Z</time></trkpt><trkpt lat="44.70926482325873" lon="8.876236214523809"><ele>213.0</ele><time>2026-04-28T09:50:53.999Z</time></trkpt><trkpt lat="44.709467372589415" lon="8.875924854605637"><ele>212.0</ele><time>2026-04-28T09:50:54.999Z</time></trkpt><trkpt lat="44.70966115194399" lon="8.875621623571066"><ele>211.0</ele><time>2026-04-28T09:50:55.999Z</time></trkpt><trkpt lat="44.70983938493356" lon="8.875347033916269"><ele>210.0</ele><time>2026-04-28T09:50:56.999Z</time></trkpt><trkpt lat="44.710004257113326" lon="8.875090229435841"><ele>209.0</ele><time>2026-04-28T09:50:57.999Z</time></trkpt><trkpt lat="44.71016376124201" lon="8.874838446102613"><ele>210.66666666666669</ele><time>2026-04-28T09:50:58.999Z</time></trkpt><trkpt lat="44.71031268387302" lon="8.874599768424368"><ele>212.33333333333331</ele><time>2026-04-28T09:50:59.999Z</time></trkpt><trkpt lat="44.71045481363015" lon="8.874375974748524"><ele>214.0</ele><time>2026-04-28T09:51:00.999Z</time></trkpt><trkpt lat="44.7105873587835" lon="8.874163441044542"><ele>214.33333333333331</ele><time>2026-04-28T09:51:01.999Z</time></trkpt><trkpt lat="44.71070905935124" lon="8.87396250206447"><ele>214.66666666666669</ele><time>2026-04-28T09:51:02.999Z</time></trkpt><trkpt lat="44.71081121097971" lon="8.87375877973076"><ele>215.0</ele><time>2026-04-28T09:51:03.999Z</time></trkpt><trkpt lat="44.710886940628185" lon="8.873535134233661"><ele>215.66666666666669</ele><time>2026-04-28T09:51:04.999Z</time></trkpt><trkpt lat="44.710923776223815" lon="8.873279205349778"><ele>216.33333333333331</ele><time>2026-04-28T09:51:05.999Z</time></trkpt><trkpt lat="44.710915480884545" lon="8.873022717537326"><ele>217.0</ele><time>2026-04-28T09:51:06.999Z</time></trkpt><trkpt lat="44.710895543966764" lon="8.872752389307845"><ele>218.66666666666666</ele><time>2026-04-28T09:51:07.999Z</time></trkpt><trkpt lat="44.71086678660016" lon="8.872470540277735"><ele>220.33333333333331</ele><time>2026-04-28T09:51:08.999Z</time></trkpt><trkpt lat="44.710856446447075" lon="8.872175982932534"><ele>222.0</ele><time>2026-04-28T09:51:09.999Z</time></trkpt><trkpt lat="44.71085471035608" lon="8.871890292804293"><ele>221.66666666666669</ele><time>2026-04-28T09:51:10.999Z</time></trkpt><trkpt lat="44.71086100138437" lon="8.871586523989881"><ele>221.33333333333334</ele><time>2026-04-28T09:51:11.999Z</time></trkpt><trkpt lat="44.71088882928205" lon="8.871281674354266"><ele>221.0</ele><time>2026-04-28T09:51:12.999Z</time></trkpt><trkpt lat="44.71092943200817" lon="8.870986726200488"><ele>219.66666666666669</ele><time>2026-04-28T09:51:13.999Z</time></trkpt><trkpt lat="44.710993810152914" lon="8.8706907075971"><ele>218.33333333333331</ele><time>2026-04-28T09:51:14.999Z</time></trkpt><trkpt lat="44.71107699094725" lon="8.870406331038565"><ele>217.0</ele><time>2026-04-28T09:51:15.999Z</time></trkpt><trkpt lat="44.7111820460039" lon="8.870125842901336"><ele>217.5</ele><time>2026-04-28T09:51:16.999Z</time></trkpt><trkpt lat="44.71131685865699" lon="8.86985727285465"><ele>218.0</ele><time>2026-04-28T09:51:17.999Z</time></trkpt><trkpt lat="44.71147321933261" lon="8.869582048341302"><ele>218.0</ele><time>2026-04-28T09:51:19Z</time></trkpt><trkpt lat="44.71163325238974" lon="8.869306616451215"><ele>218.0</ele><time>2026-04-28T09:51:20Z</time></trkpt><trkpt lat="44.71176800233584" lon="8.869053502078987"><ele>217.66666666666669</ele><time>2026-04-28T09:51:21Z</time></trkpt><trkpt lat="44.711892172400404" lon="8.868800839698292"><ele>217.33333333333331</ele><time>2026-04-28T09:51:22Z</time></trkpt><trkpt lat="44.71200932909419" lon="8.868547184444397"><ele>217.0</ele><time>2026-04-28T09:51:23Z</time></trkpt><trkpt lat="44.71210591109872" lon="8.868286536775669"><ele>217.0</ele><time>2026-04-28T09:51:24Z</time></trkpt><trkpt lat="44.712192657476386" lon="8.868007499164444"><ele>217.0</ele><time>2026-04-28T09:51:25Z</time></trkpt><trkpt lat="44.712260455427035" lon="8.867706575465986"><ele>217.0</ele><time>2026-04-28T09:51:26Z</time></trkpt><trkpt lat="44.71232482862227" lon="8.867389848981011"><ele>215.0</ele><time>2026-04-28T09:51:27Z</time></trkpt><trkpt lat="44.71238620818667" lon="8.867074462719158"><ele>213.0</ele><time>2026-04-28T09:51:28Z</time></trkpt><trkpt lat="44.712455832895266" lon="8.866766282685688"><ele>212.66666666666669</ele><time>2026-04-28T09:51:29Z</time></trkpt><trkpt lat="44.71252396579849" lon="8.866481897564606"><ele>212.33333333333334</ele><time>2026-04-28T09:51:30Z</time></trkpt><trkpt lat="44.71258816300157" lon="8.866212999835147"><ele>212.0</ele><time>2026-04-28T09:51:31Z</time></trkpt><trkpt lat="44.71267292572345" lon="8.865947029115777"><ele>213.66666666666669</ele><time>2026-04-28T09:51:32Z</time></trkpt><trkpt lat="44.71277828091214" lon="8.86568351752524"><ele>215.33333333333331</ele><time>2026-04-28T09:51:33Z</time></trkpt><trkpt lat="44.712893511646094" lon="8.865424617806024"><ele>217.0</ele><time>2026-04-28T09:51:34Z</time></trkpt><trkpt lat="44.713019616387214" lon="8.86517807491149"><ele>216.66666666666666</ele><time>2026-04-28T09:51:35Z</time></trkpt><trkpt lat="44.713143523551494" lon="8.864944529615471"><ele>216.33333333333331</ele><time>2026-04-28T09:51:36Z</time></trkpt><trkpt lat="44.71326143135606" lon="8.864723767689453"><ele>216.0</ele><time>2026-04-28T09:51:37Z</time></trkpt><trkpt lat="44.713387779269716" lon="8.86452168203967"><ele>216.0</ele><time>2026-04-28T09:51:38Z</time></trkpt><trkpt lat="44.713519676979736" lon="8.8643510280403"><ele>216.0</ele><time>2026-04-28T09:51:39Z</time></trkpt><trkpt lat="44.71366741977286" lon="8.864203755620073"><ele>216.0</ele><time>2026-04-28T09:51:40Z</time></trkpt><trkpt lat="44.71381616588064" lon="8.864082108307063"><ele>215.66666666666669</ele><time>2026-04-28T09:51:41Z</time></trkpt><trkpt lat="44.713974197233384" lon="8.86398219519753"><ele>215.33333333333334</ele><time>2026-04-28T09:51:42Z</time></trkpt><trkpt lat="44.714139301559996" lon="8.863917759084194"><ele>215.0</ele><time>2026-04-28T09:51:43Z</time></trkpt><trkpt lat="44.71428546969358" lon="8.86386042549307"><ele>215.0</ele><time>2026-04-28T09:51:44Z</time></trkpt><trkpt lat="44.71444219559733" lon="8.863838913999484"><ele>215.0</ele><time>2026-04-28T09:51:45Z</time></trkpt><trkpt lat="44.714608453908234" lon="8.86383505995895"><ele>215.0</ele><time>2026-04-28T09:51:46Z</time></trkpt><trkpt lat="44.71478676595839" lon="8.863851425918272"><ele>215.0</ele><time>2026-04-28T09:51:47Z</time></trkpt><trkpt lat="44.7149865090873" lon="8.863885796942622"><ele>215.0</ele><time>2026-04-28T09:51:48Z</time></trkpt><trkpt lat="44.715199560804784" lon="8.863931051367398"><ele>215.0</ele><time>2026-04-28T09:51:49Z</time></trkpt><trkpt lat="44.71544795200787" lon="8.863981965193533"><ele>213.0</ele><time>2026-04-28T09:51:50Z</time></trkpt><trkpt lat="44.71571367003792" lon="8.864044156095868"><ele>211.0</ele><time>2026-04-28T09:51:51Z</time></trkpt><trkpt lat="44.715971415144985" lon="8.864110927696265"><ele>211.0</ele><time>2026-04-28T09:51:52Z</time></trkpt><trkpt lat="44.71619691147633" lon="8.864171533526044"><ele>211.0</ele><time>2026-04-28T09:51:53Z</time></trkpt><trkpt lat="44.71641275478682" lon="8.864208645341082"><ele>211.0</ele><time>2026-04-28T09:51:54Z</time></trkpt><trkpt lat="44.71661386335764" lon="8.864219058450537"><ele>211.0</ele><time>2026-04-28T09:51:55Z</time></trkpt><trkpt lat="44.71680105556751" lon="8.864212479694132"><ele>211.0</ele><time>2026-04-28T09:51:56Z</time></trkpt><trkpt lat="44.71700245467514" lon="8.864175055880754"><ele>211.0</ele><time>2026-04-28T09:51:57Z</time></trkpt><trkpt lat="44.717209306559106" lon="8.864126934337023"><ele>212.66666666666666</ele><time>2026-04-28T09:51:58Z</time></trkpt><trkpt lat="44.717414398617805" lon="8.86407701886163"><ele>214.33333333333331</ele><time>2026-04-28T09:51:59Z</time></trkpt><trkpt lat="44.71762425610695" lon="8.864027306856306"><ele>216.0</ele><time>2026-04-28T09:52:00Z</time></trkpt><trkpt lat="44.71783533229509" lon="8.86398542838255"><ele>216.0</ele><time>2026-04-28T09:52:01Z</time></trkpt><trkpt lat="44.71804425940948" lon="8.86394492299816"><ele>216.0</ele><time>2026-04-28T09:52:02Z</time></trkpt><trkpt lat="44.71824868588598" lon="8.863893369504817"><ele>216.0</ele><time>2026-04-28T09:52:03Z</time></trkpt><trkpt lat="44.71845172248342" lon="8.863848413392335"><ele>216.33333333333331</ele><time>2026-04-28T09:52:04Z</time></trkpt><trkpt lat="44.71865710192815" lon="8.863802063059468"><ele>216.66666666666666</ele><time>2026-04-28T09:52:05Z</time></trkpt><trkpt lat="44.71886361422758" lon="8.86375603338242"><ele>217.0</ele><time>2026-04-28T09:52:06Z</time></trkpt><trkpt lat="44.7190717073835" lon="8.863709421738513"><ele>217.0</ele><time>2026-04-28T09:52:07Z</time></trkpt><trkpt lat="44.719274220362955" lon="8.863658726173009"><ele>217.0</ele><time>2026-04-28T09:52:08Z</time></trkpt><trkpt lat="44.719482429288725" lon="8.863608310952126"><ele>217.0</ele><time>2026-04-28T09:52:09Z</time></trkpt><trkpt lat="44.71969248621435" lon="8.863563824836811"><ele>216.66666666666666</ele><time>2026-04-28T09:52:10Z</time></trkpt><trkpt lat="44.71989801548031" lon="8.863519613832121"><ele>216.33333333333331</ele><time>2026-04-28T09:52:11Z</time></trkpt><trkpt lat="44.72010339091301" lon="8.863464254316805"><ele>216.0</ele><time>2026-04-28T09:52:12Z</time></trkpt><trkpt lat="44.720299909594694" lon="8.863412687739268"><ele>216.0</ele><time>2026-04-28T09:52:13Z</time></trkpt><trkpt lat="44.72050421770636" lon="8.863362828035813"><ele>216.0</ele><time>2026-04-28T09:52:14Z</time></trkpt><trkpt lat="44.72070776372095" lon="8.86331027934794"><ele>216.0</ele><time>2026-04-28T09:52:15Z</time></trkpt><trkpt lat="44.72092197323286" lon="8.863258458046108"><ele>216.33333333333331</ele><time>2026-04-28T09:52:16Z</time></trkpt><trkpt lat="44.72113710740913" lon="8.863206090489982"><ele>216.66666666666666</ele><time>2026-04-28T09:52:17Z</time></trkpt><trkpt lat="44.72134884641665" lon="8.86315701959471"><ele>217.0</ele><time>2026-04-28T09:52:18Z</time></trkpt><trkpt lat="44.72154890795523" lon="8.863105966214835"><ele>217.0</ele><time>2026-04-28T09:52:19Z</time></trkpt><trkpt lat="44.721733522075105" lon="8.863058164414609"><ele>217.0</ele><time>2026-04-28T09:52:20Z</time></trkpt><trkpt lat="44.721927352363316" lon="8.863010742786747"><ele>217.0</ele><time>2026-04-28T09:52:21Z</time></trkpt><trkpt lat="44.722119233726275" lon="8.86294055515858"><ele>217.0</ele><time>2026-04-28T09:52:22Z</time></trkpt><trkpt lat="44.72232803974481" lon="8.862851791831526"><ele>217.0</ele><time>2026-04-28T09:52:22.999Z</time></trkpt><trkpt lat="44.722559428177846" lon="8.862757217045763"><ele>217.0</ele><time>2026-04-28T09:52:23.999Z</time></trkpt><trkpt lat="44.7227877590894" lon="8.862662656585176"><ele>217.0</ele><time>2026-04-28T09:52:24.999Z</time></trkpt><trkpt lat="44.7229979015031" lon="8.862573597992846"><ele>217.0</ele><time>2026-04-28T09:52:25.999Z</time></trkpt><trkpt lat="44.723192851057966" lon="8.86248337532936"><ele>217.0</ele><time>2026-04-28T09:52:26.999Z</time></trkpt><trkpt lat="44.72337557643571" lon="8.862401145222048"><ele>217.0</ele><time>2026-04-28T09:52:27.999Z</time></trkpt><trkpt lat="44.7235524828007" lon="8.862323089466983"><ele>217.0</ele><time>2026-04-28T09:52:28.999Z</time></trkpt><trkpt lat="44.723718508342365" lon="8.862249393512444"><ele>217.0</ele><time>2026-04-28T09:52:29.999Z</time></trkpt><trkpt lat="44.723875364035486" lon="8.862171346515714"><ele>217.0</ele><time>2026-04-28T09:52:30.999Z</time></trkpt><trkpt lat="44.72401799388445" lon="8.862076693205646"><ele>217.0</ele><time>2026-04-28T09:52:31.999Z</time></trkpt><trkpt lat="44.72414253858402" lon="8.86195148329876"><ele>217.0</ele><time>2026-04-28T09:52:32.999Z</time></trkpt><trkpt lat="44.724254147341526" lon="8.861793364134876"><ele>217.0</ele><time>2026-04-28T09:52:33.999Z</time></trkpt><trkpt lat="44.72435782581731" lon="8.861608373280708"><ele>213.66666666666666</ele><time>2026-04-28T09:52:34.999Z</time></trkpt><trkpt lat="44.72443577600472" lon="8.861388485356116"><ele>210.33333333333331</ele><time>2026-04-28T09:52:35.999Z</time></trkpt><trkpt lat="44.72450848335552" lon="8.861128846639744"><ele>207.0</ele><time>2026-04-28T09:52:36.999Z</time></trkpt><trkpt lat="44.72459677988089" lon="8.860842798166482"><ele>204.0</ele><time>2026-04-28T09:52:37.999Z</time></trkpt><trkpt lat="44.7246843993984" lon="8.860594335412783"><ele>201.0</ele><time>2026-04-28T09:52:38.999Z</time></trkpt><trkpt lat="44.72477934312747" lon="8.860369759728668"><ele>198.0</ele><time>2026-04-28T09:52:39.999Z</time></trkpt><trkpt lat="44.72490728194026" lon="8.860140819246645"><ele>201.0</ele><time>2026-04-28T09:52:40.999Z</time></trkpt><trkpt lat="44.72506347019869" lon="8.859901407873298"><ele>204.0</ele><time>2026-04-28T09:52:41.999Z</time></trkpt><trkpt lat="44.72523325034565" lon="8.859633251128017"><ele>203.5</ele><time>2026-04-28T09:52:42.999Z</time></trkpt><trkpt lat="44.72542073847775" lon="8.859327343555826"><ele>203.0</ele><time>2026-04-28T09:52:43.999Z</time></trkpt><trkpt lat="44.72563218516049" lon="8.85899753679158"><ele>203.0</ele><time>2026-04-28T09:52:44.999Z</time></trkpt><trkpt lat="44.72584510151597" lon="8.858664927063403"><ele>203.0</ele><time>2026-04-28T09:52:45.999Z</time></trkpt><trkpt lat="44.72603392923704" lon="8.858372607976152"><ele>203.0</ele><time>2026-04-28T09:52:46.999Z</time></trkpt><trkpt lat="44.72621305334195" lon="8.858107975922248"><ele>203.0</ele><time>2026-04-28T09:52:47.999Z</time></trkpt><trkpt lat="44.72637964430903" lon="8.857861785273501"><ele>203.0</ele><time>2026-04-28T09:52:48.999Z</time></trkpt><trkpt lat="44.7265354912237" lon="8.857649568601603"><ele>203.0</ele><time>2026-04-28T09:52:49.999Z</time></trkpt><trkpt lat="44.726686160775564" lon="8.857461305967947"><ele>203.0</ele><time>2026-04-28T09:52:50.999Z</time></trkpt><trkpt lat="44.72685210365039" lon="8.857306227244903"><ele>204.0</ele><time>2026-04-28T09:52:51.999Z</time></trkpt><trkpt lat="44.727033655466414" lon="8.85716669771336"><ele>205.0</ele><time>2026-04-28T09:52:52.999Z</time></trkpt><trkpt lat="44.72720952923072" lon="8.857032625046779"><ele>206.0</ele><time>2026-04-28T09:52:53.999Z</time></trkpt><trkpt lat="44.72738607780825" lon="8.856906953351237"><ele>206.0</ele><time>2026-04-28T09:52:54.999Z</time></trkpt><trkpt lat="44.727550889828024" lon="8.85679438011298"><ele>206.0</ele><time>2026-04-28T09:52:55.999Z</time></trkpt><trkpt lat="44.72771471628548" lon="8.856691714601022"><ele>206.0</ele><time>2026-04-28T09:52:56.999Z</time></trkpt><trkpt lat="44.72787927887268" lon="8.856599935759226"><ele>206.33333333333334</ele><time>2026-04-28T09:52:57.999Z</time></trkpt><trkpt lat="44.72805044620051" lon="8.856519810398035"><ele>206.66666666666669</ele><time>2026-04-28T09:52:58.999Z</time></trkpt><trkpt lat="44.728226144076025" lon="8.856461552827335"><ele>207.0</ele><time>2026-04-28T09:52:59.999Z</time></trkpt><trkpt lat="44.72841179852481" lon="8.856424404682404"><ele>205.33333333333331</ele><time>2026-04-28T09:53:00.999Z</time></trkpt><trkpt lat="44.72860246420598" lon="8.856406225261171"><ele>203.66666666666666</ele><time>2026-04-28T09:53:01.999Z</time></trkpt><trkpt lat="44.72879743979471" lon="8.856406225911456"><ele>202.0</ele><time>2026-04-28T09:53:02.999Z</time></trkpt><trkpt lat="44.72899728534148" lon="8.856417685240984"><ele>202.0</ele><time>2026-04-28T09:53:03.999Z</time></trkpt><trkpt lat="44.72920807514227" lon="8.856429238581248"><ele>202.0</ele><time>2026-04-28T09:53:04.999Z</time></trkpt><trkpt lat="44.72942208637537" lon="8.856439876647269"><ele>202.0</ele><time>2026-04-28T09:53:05.999Z</time></trkpt><trkpt lat="44.72964522326631" lon="8.856445277226564"><ele>199.5</ele><time>2026-04-28T09:53:06.999Z</time></trkpt><trkpt lat="44.72987037403821" lon="8.856437079709218"><ele>197.0</ele><time>2026-04-28T09:53:07.999Z</time></trkpt><trkpt lat="44.73009547144456" lon="8.856407103570627"><ele>195.0</ele><time>2026-04-28T09:53:08.999Z</time></trkpt><trkpt lat="44.730325338086516" lon="8.856364301535192"><ele>193.0</ele><time>2026-04-28T09:53:09.999Z</time></trkpt><trkpt lat="44.73055292848266" lon="8.85630614724565"><ele>193.0</ele><time>2026-04-28T09:53:10.999Z</time></trkpt><trkpt lat="44.730780190260646" lon="8.856220209970168"><ele>193.0</ele><time>2026-04-28T09:53:11.999Z</time></trkpt><trkpt lat="44.73100846211984" lon="8.856110189229803"><ele>192.0</ele><time>2026-04-28T09:53:12.999Z</time></trkpt><trkpt lat="44.73124463485549" lon="8.855965313402624"><ele>191.0</ele><time>2026-04-28T09:53:13.999Z</time></trkpt><trkpt lat="44.73149112293829" lon="8.855792522929837"><ele>193.0</ele><time>2026-04-28T09:53:14.999Z</time></trkpt><trkpt lat="44.731738698616326" lon="8.855586756312228"><ele>195.0</ele><time>2026-04-28T09:53:15.999Z</time></trkpt><trkpt lat="44.73199955417815" lon="8.85537584423514"><ele>195.0</ele><time>2026-04-28T09:53:16.999Z</time></trkpt><trkpt lat="44.732276346105515" lon="8.855163924583536"><ele>195.0</ele><time>2026-04-28T09:53:17.999Z</time></trkpt><trkpt lat="44.73255659687516" lon="8.854948534965585"><ele>194.0</ele><time>2026-04-28T09:53:18.999Z</time></trkpt><trkpt lat="44.732851964491495" lon="8.854725932205483"><ele>193.0</ele><time>2026-04-28T09:53:19.999Z</time></trkpt><trkpt lat="44.733134412679405" lon="8.854506947821077"><ele>193.0</ele><time>2026-04-28T09:53:20.999Z</time></trkpt><trkpt lat="44.73340402868114" lon="8.854295109801766"><ele>193.0</ele><time>2026-04-28T09:53:21.999Z</time></trkpt><trkpt lat="44.73367665279923" lon="8.85408361608184"><ele>193.0</ele><time>2026-04-28T09:53:22.999Z</time></trkpt><trkpt lat="44.733940856246505" lon="8.85387402788745"><ele>193.0</ele><time>2026-04-28T09:53:23.999Z</time></trkpt><trkpt lat="44.7342024671873" lon="8.853665188810231"><ele>192.5</ele><time>2026-04-28T09:53:25Z</time></trkpt><trkpt lat="44.73445472921901" lon="8.853467139869462"><ele>192.0</ele><time>2026-04-28T09:53:26Z</time></trkpt><trkpt lat="44.73470591100891" lon="8.853274881437114"><ele>192.0</ele><time>2026-04-28T09:53:27Z</time></trkpt><trkpt lat="44.7349536379044" lon="8.853081267647244"><ele>192.0</ele><time>2026-04-28T09:53:28Z</time></trkpt><trkpt lat="44.7351984638035" lon="8.852891197734301"><ele>192.0</ele><time>2026-04-28T09:53:29Z</time></trkpt><trkpt lat="44.73544691856498" lon="8.852703815383727"><ele>192.0</ele><time>2026-04-28T09:53:30Z</time></trkpt><trkpt lat="44.73570129270643" lon="8.852508443729755"><ele>192.0</ele><time>2026-04-28T09:53:31Z</time></trkpt><trkpt lat="44.73596230833938" lon="8.852306857872042"><ele>192.0</ele><time>2026-04-28T09:53:32Z</time></trkpt><trkpt lat="44.73623482036478" lon="8.852096305384647"><ele>192.0</ele><time>2026-04-28T09:53:33Z</time></trkpt><trkpt lat="44.736517451230206" lon="8.851883870922054"><ele>192.0</ele><time>2026-04-28T09:53:34Z</time></trkpt><trkpt lat="44.736782733037124" lon="8.851679443273788"><ele>192.0</ele><time>2026-04-28T09:53:35Z</time></trkpt><trkpt lat="44.7370421159221" lon="8.851475752308739"><ele>192.0</ele><time>2026-04-28T09:53:36Z</time></trkpt><trkpt lat="44.737297124364474" lon="8.851264738210842"><ele>192.0</ele><time>2026-04-28T09:53:37Z</time></trkpt><trkpt lat="44.73755015775802" lon="8.85103884775623"><ele>192.0</ele><time>2026-04-28T09:53:38Z</time></trkpt><trkpt lat="44.73780568169045" lon="8.850794786416161"><ele>192.5</ele><time>2026-04-28T09:53:39Z</time></trkpt><trkpt lat="44.73805128512409" lon="8.850531519168506"><ele>193.0</ele><time>2026-04-28T09:53:40Z</time></trkpt><trkpt lat="44.73829370467047" lon="8.850259061983092"><ele>193.5</ele><time>2026-04-28T09:53:41Z</time></trkpt><trkpt lat="44.738526792656714" lon="8.849975802911217"><ele>194.0</ele><time>2026-04-28T09:53:42Z</time></trkpt><trkpt lat="44.7387583774723" lon="8.849673258350837"><ele>197.5</ele><time>2026-04-28T09:53:43Z</time></trkpt><trkpt lat="44.738984561922216" lon="8.849366409929157"><ele>201.0</ele><time>2026-04-28T09:53:44Z</time></trkpt><trkpt lat="44.739204146024356" lon="8.849060454875037"><ele>204.0</ele><time>2026-04-28T09:53:45Z</time></trkpt><trkpt lat="44.739412857093" lon="8.848760903167156"><ele>207.0</ele><time>2026-04-28T09:53:46Z</time></trkpt><trkpt lat="44.73961852974405" lon="8.848468399335937"><ele>206.0</ele><time>2026-04-28T09:53:47Z</time></trkpt><trkpt lat="44.73982393840527" lon="8.848184561525025"><ele>205.0</ele><time>2026-04-28T09:53:48Z</time></trkpt><trkpt lat="44.74002887262139" lon="8.847903877566003"><ele>205.5</ele><time>2026-04-28T09:53:49Z</time></trkpt><trkpt lat="44.74021903115147" lon="8.847637686163935"><ele>206.0</ele><time>2026-04-28T09:53:50Z</time></trkpt><trkpt lat="44.740412919249394" lon="8.847367377290874"><ele>205.0</ele><time>2026-04-28T09:53:51Z</time></trkpt><trkpt lat="44.74060848170721" lon="8.847095318710217"><ele>204.0</ele><time>2026-04-28T09:53:52Z</time></trkpt><trkpt lat="44.74080449291587" lon="8.846823899796647"><ele>204.5</ele><time>2026-04-28T09:53:53Z</time></trkpt><trkpt lat="44.741005568978466" lon="8.846556869578157"><ele>205.0</ele><time>2026-04-28T09:53:54Z</time></trkpt><trkpt lat="44.74121809751874" lon="8.846303555332375"><ele>205.5</ele><time>2026-04-28T09:53:55Z</time></trkpt><trkpt lat="44.74143913331519" lon="8.846051531943813"><ele>206.0</ele><time>2026-04-28T09:53:56Z</time></trkpt><trkpt lat="44.74167198886957" lon="8.845819360163661"><ele>206.5</ele><time>2026-04-28T09:53:57Z</time></trkpt><trkpt lat="44.741923461781596" lon="8.84556313534132"><ele>207.0</ele><time>2026-04-28T09:53:58Z</time></trkpt><trkpt lat="44.74218429368848" lon="8.845313649838513"><ele>206.0</ele><time>2026-04-28T09:53:59Z</time></trkpt><trkpt lat="44.74244353222239" lon="8.845076064503806"><ele>205.0</ele><time>2026-04-28T09:54:00Z</time></trkpt><trkpt lat="44.7427077216949" lon="8.84486406146851"><ele>205.0</ele><time>2026-04-28T09:54:01Z</time></trkpt><trkpt lat="44.74295977322271" lon="8.844685005762344"><ele>205.0</ele><time>2026-04-28T09:54:02Z</time></trkpt><trkpt lat="44.74320107651676" lon="8.84452139103113"><ele>205.0</ele><time>2026-04-28T09:54:03Z</time></trkpt><trkpt lat="44.74344348256005" lon="8.844364246574095"><ele>205.0</ele><time>2026-04-28T09:54:04Z</time></trkpt><trkpt lat="44.743679943691" lon="8.84422111275098"><ele>204.5</ele><time>2026-04-28T09:54:05Z</time></trkpt><trkpt lat="44.74390960370774" lon="8.844089983382993"><ele>204.0</ele><time>2026-04-28T09:54:06Z</time></trkpt><trkpt lat="44.744147113014826" lon="8.843968614439724"><ele>204.0</ele><time>2026-04-28T09:54:07Z</time></trkpt><trkpt lat="44.74438465326111" lon="8.843848834520504"><ele>204.0</ele><time>2026-04-28T09:54:08Z</time></trkpt><trkpt lat="44.74462786496356" lon="8.843722808114986"><ele>204.0</ele><time>2026-04-28T09:54:09Z</time></trkpt><trkpt lat="44.74487455850602" lon="8.843593682713225"><ele>204.0</ele><time>2026-04-28T09:54:10Z</time></trkpt><trkpt lat="44.7451420947108" lon="8.843463223172217"><ele>203.5</ele><time>2026-04-28T09:54:11Z</time></trkpt><trkpt lat="44.74541074727417" lon="8.843329890869398"><ele>203.0</ele><time>2026-04-28T09:54:12Z</time></trkpt><trkpt lat="44.74568183158727" lon="8.84319735293012"><ele>203.0</ele><time>2026-04-28T09:54:13Z</time></trkpt><trkpt lat="44.74596710504651" lon="8.843053602000627"><ele>203.0</ele><time>2026-04-28T09:54:14Z</time></trkpt><trkpt lat="44.74626741687822" lon="8.842904496390783"><ele>203.0</ele><time>2026-04-28T09:54:15Z</time></trkpt><trkpt lat="44.74657500507668" lon="8.842754785020473"><ele>203.0</ele><time>2026-04-28T09:54:16Z</time></trkpt><trkpt lat="44.746889028382135" lon="8.842603657275927"><ele>203.0</ele><time>2026-04-28T09:54:17Z</time></trkpt><trkpt lat="44.74720664801058" lon="8.842448157462648"><ele>203.0</ele><time>2026-04-28T09:54:18Z</time></trkpt><trkpt lat="44.747537603795244" lon="8.842289646095677"><ele>202.5</ele><time>2026-04-28T09:54:19Z</time></trkpt><trkpt lat="44.74785573458555" lon="8.842139167709028"><ele>202.0</ele><time>2026-04-28T09:54:20Z</time></trkpt><trkpt lat="44.748173287672984" lon="8.841995914381314"><ele>202.0</ele><time>2026-04-28T09:54:21Z</time></trkpt><trkpt lat="44.74848366532863" lon="8.841852583528832"><ele>202.0</ele><time>2026-04-28T09:54:22Z</time></trkpt><trkpt lat="44.74879504313622" lon="8.84169705113837"><ele>202.5</ele><time>2026-04-28T09:54:23Z</time></trkpt><trkpt lat="44.7491072903633" lon="8.841539879902095"><ele>203.0</ele><time>2026-04-28T09:54:24Z</time></trkpt><trkpt lat="44.74943633886491" lon="8.841384694950913"><ele>201.5</ele><time>2026-04-28T09:54:24.999Z</time></trkpt><trkpt lat="44.74975753495658" lon="8.841235824993905"><ele>200.0</ele><time>2026-04-28T09:54:25.999Z</time></trkpt><trkpt lat="44.750074695621606" lon="8.841089554653061"><ele>200.0</ele><time>2026-04-28T09:54:26.999Z</time></trkpt><trkpt lat="44.7503931056516" lon="8.840947140488112"><ele>200.0</ele><time>2026-04-28T09:54:27.999Z</time></trkpt><trkpt lat="44.75071807710393" lon="8.84081122911358"><ele>200.0</ele><time>2026-04-28T09:54:28.999Z</time></trkpt><trkpt lat="44.75104757104346" lon="8.84068276024937"><ele>200.0</ele><time>2026-04-28T09:54:29.999Z</time></trkpt><trkpt lat="44.75137899773611" lon="8.840554603739509"><ele>200.0</ele><time>2026-04-28T09:54:30.999Z</time></trkpt><trkpt lat="44.751701953559625" lon="8.840436367133798"><ele>200.0</ele><time>2026-04-28T09:54:31.999Z</time></trkpt><trkpt lat="44.752000371060696" lon="8.840330565885445"><ele>199.5</ele><time>2026-04-28T09:54:32.999Z</time></trkpt><trkpt lat="44.75227982050665" lon="8.84023976607802"><ele>199.0</ele><time>2026-04-28T09:54:33.999Z</time></trkpt><trkpt lat="44.752552406525794" lon="8.840151280361702"><ele>198.5</ele><time>2026-04-28T09:54:34.999Z</time></trkpt><trkpt lat="44.75281989503962" lon="8.840065727996802"><ele>198.0</ele><time>2026-04-28T09:54:35.999Z</time></trkpt><trkpt lat="44.75308140665255" lon="8.839985967726571"><ele>198.0</ele><time>2026-04-28T09:54:36.999Z</time></trkpt><trkpt lat="44.753336137236055" lon="8.839907695650442"><ele>198.0</ele><time>2026-04-28T09:54:37.999Z</time></trkpt><trkpt lat="44.753588514885635" lon="8.839835987461736"><ele>198.0</ele><time>2026-04-28T09:54:38.999Z</time></trkpt><trkpt lat="44.75383518432116" lon="8.839762643289925"><ele>198.0</ele><time>2026-04-28T09:54:39.999Z</time></trkpt><trkpt lat="44.754075199631934" lon="8.83968532222727"><ele>198.0</ele><time>2026-04-28T09:54:40.999Z</time></trkpt><trkpt lat="44.75431274130625" lon="8.839611058014377"><ele>198.0</ele><time>2026-04-28T09:54:41.999Z</time></trkpt><trkpt lat="44.7545519335611" lon="8.839538833615478"><ele>197.5</ele><time>2026-04-28T09:54:42.999Z</time></trkpt><trkpt lat="44.754792920588244" lon="8.839463750507369"><ele>197.0</ele><time>2026-04-28T09:54:43.999Z</time></trkpt><trkpt lat="44.75502914550683" lon="8.83938844894232"><ele>196.5</ele><time>2026-04-28T09:54:44.999Z</time></trkpt><trkpt lat="44.75526880202452" lon="8.839318642120189"><ele>196.0</ele><time>2026-04-28T09:54:45.999Z</time></trkpt><trkpt lat="44.7555079433245" lon="8.839246012046006"><ele>196.0</ele><time>2026-04-28T09:54:46.999Z</time></trkpt><trkpt lat="44.7557453282852" lon="8.839173676686846"><ele>196.0</ele><time>2026-04-28T09:54:47.999Z</time></trkpt><trkpt lat="44.75598377090513" lon="8.839104543502039"><ele>195.5</ele><time>2026-04-28T09:54:48.999Z</time></trkpt><trkpt lat="44.75622425494103" lon="8.839032109279184"><ele>195.0</ele><time>2026-04-28T09:54:49.999Z</time></trkpt><trkpt lat="44.75646651011402" lon="8.838960334016898"><ele>195.0</ele><time>2026-04-28T09:54:50.999Z</time></trkpt><trkpt lat="44.756702287410484" lon="8.838889437613078"><ele>195.0</ele><time>2026-04-28T09:54:51.999Z</time></trkpt><trkpt lat="44.75693970408811" lon="8.838818535157944"><ele>194.5</ele><time>2026-04-28T09:54:52.999Z</time></trkpt><trkpt lat="44.75718369500079" lon="8.838743986382148"><ele>194.0</ele><time>2026-04-28T09:54:53.999Z</time></trkpt><trkpt lat="44.75741984430574" lon="8.838671024557652"><ele>194.0</ele><time>2026-04-28T09:54:54.999Z</time></trkpt><trkpt lat="44.75765548484822" lon="8.838598739666665"><ele>194.0</ele><time>2026-04-28T09:54:55.999Z</time></trkpt><trkpt lat="44.75789116860388" lon="8.838526827460825"><ele>192.5</ele><time>2026-04-28T09:54:56.999Z</time></trkpt><trkpt lat="44.75812567020924" lon="8.83846073654691"><ele>191.0</ele><time>2026-04-28T09:54:57.999Z</time></trkpt><trkpt lat="44.758361971933915" lon="8.838394628487345"><ele>192.5</ele><time>2026-04-28T09:54:58.999Z</time></trkpt><trkpt lat="44.758599750230516" lon="8.838331013771894"><ele>194.0</ele><time>2026-04-28T09:54:59.999Z</time></trkpt><trkpt lat="44.7588383842884" lon="8.8382698583411"><ele>194.0</ele><time>2026-04-28T09:55:00.999Z</time></trkpt><trkpt lat="44.75907829801394" lon="8.83821202830319"><ele>194.0</ele><time>2026-04-28T09:55:01.999Z</time></trkpt><trkpt lat="44.759325160481936" lon="8.83815941130399"><ele>194.5</ele><time>2026-04-28T09:55:02.999Z</time></trkpt><trkpt lat="44.759565658479126" lon="8.838107258073027"><ele>195.0</ele><time>2026-04-28T09:55:03.999Z</time></trkpt><trkpt lat="44.7598056311673" lon="8.838058889128812"><ele>195.0</ele><time>2026-04-28T09:55:04.999Z</time></trkpt><trkpt lat="44.76004107505434" lon="8.838018337038083"><ele>195.0</ele><time>2026-04-28T09:55:05.999Z</time></trkpt><trkpt lat="44.76027658398406" lon="8.837982013812189"><ele>194.5</ele><time>2026-04-28T09:55:06.999Z</time></trkpt><trkpt lat="44.76051384767727" lon="8.837947367219943"><ele>194.0</ele><time>2026-04-28T09:55:07.999Z</time></trkpt><trkpt lat="44.76074731263951" lon="8.837914176025098"><ele>194.0</ele><time>2026-04-28T09:55:08.999Z</time></trkpt><trkpt lat="44.760979599958326" lon="8.837881651794318"><ele>194.0</ele><time>2026-04-28T09:55:09.999Z</time></trkpt><trkpt lat="44.7612110577534" lon="8.837847953207666"><ele>193.5</ele><time>2026-04-28T09:55:10.999Z</time></trkpt><trkpt lat="44.761437402168646" lon="8.837816938528288"><ele>193.0</ele><time>2026-04-28T09:55:11.999Z</time></trkpt><trkpt lat="44.761671192235504" lon="8.837795471481154"><ele>193.0</ele><time>2026-04-28T09:55:12.999Z</time></trkpt><trkpt lat="44.76191431859675" lon="8.837765740772035"><ele>193.0</ele><time>2026-04-28T09:55:13.999Z</time></trkpt><trkpt lat="44.762159519197255" lon="8.837734800805283"><ele>193.0</ele><time>2026-04-28T09:55:14.999Z</time></trkpt><trkpt lat="44.76241571492713" lon="8.837701862367316"><ele>193.0</ele><time>2026-04-28T09:55:15.999Z</time></trkpt><trkpt lat="44.76268569779351" lon="8.837673532029234"><ele>192.5</ele><time>2026-04-28T09:55:16.999Z</time></trkpt><trkpt lat="44.76296513167971" lon="8.837646618212505"><ele>192.0</ele><time>2026-04-28T09:55:17.999Z</time></trkpt><trkpt lat="44.76324378312524" lon="8.837624271190833"><ele>192.0</ele><time>2026-04-28T09:55:18.999Z</time></trkpt><trkpt lat="44.7635303217398" lon="8.83760430060433"><ele>192.0</ele><time>2026-04-28T09:55:19.999Z</time></trkpt><trkpt lat="44.7637997525806" lon="8.837588100412937"><ele>191.5</ele><time>2026-04-28T09:55:20.999Z</time></trkpt><trkpt lat="44.76406455431764" lon="8.837572756475094"><ele>191.0</ele><time>2026-04-28T09:55:21.999Z</time></trkpt><trkpt lat="44.76432499448382" lon="8.837555940993445"><ele>190.5</ele><time>2026-04-28T09:55:22.999Z</time></trkpt><trkpt lat="44.764580210078826" lon="8.837535767556128"><ele>190.0</ele><time>2026-04-28T09:55:23.999Z</time></trkpt><trkpt lat="44.76483317374491" lon="8.83751381541562"><ele>190.0</ele><time>2026-04-28T09:55:24.999Z</time></trkpt><trkpt lat="44.76508437373474" lon="8.837489321811283"><ele>190.0</ele><time>2026-04-28T09:55:25.999Z</time></trkpt><trkpt lat="44.76533756965544" lon="8.837470512604334"><ele>190.0</ele><time>2026-04-28T09:55:26.999Z</time></trkpt><trkpt lat="44.765594347934226" lon="8.837450778325383"><ele>190.0</ele><time>2026-04-28T09:55:27.999Z</time></trkpt><trkpt lat="44.76584323584992" lon="8.83742826662331"><ele>190.5</ele><time>2026-04-28T09:55:28.999Z</time></trkpt><trkpt lat="44.76609812334049" lon="8.837403746656912"><ele>191.0</ele><time>2026-04-28T09:55:29.999Z</time></trkpt><trkpt lat="44.76634532420686" lon="8.837385324161298"><ele>191.0</ele><time>2026-04-28T09:55:31Z</time></trkpt><trkpt lat="44.76659230389324" lon="8.837367106176409"><ele>191.0</ele><time>2026-04-28T09:55:32Z</time></trkpt><trkpt lat="44.766838438019" lon="8.837343398488771"><ele>190.5</ele><time>2026-04-28T09:55:33Z</time></trkpt><trkpt lat="44.76708538696018" lon="8.837312990786256"><ele>190.0</ele><time>2026-04-28T09:55:34Z</time></trkpt><trkpt lat="44.76733374310776" lon="8.837289167669818"><ele>190.0</ele><time>2026-04-28T09:55:35Z</time></trkpt><trkpt lat="44.76758506019612" lon="8.837266500841231"><ele>190.0</ele><time>2026-04-28T09:55:36Z</time></trkpt><trkpt lat="44.7678358527056" lon="8.837244099913846"><ele>188.0</ele><time>2026-04-28T09:55:37Z</time></trkpt><trkpt lat="44.7680905286671" lon="8.837222655854546"><ele>186.0</ele><time>2026-04-28T09:55:38Z</time></trkpt><trkpt lat="44.76833388847911" lon="8.837189862786484"><ele>187.0</ele><time>2026-04-28T09:55:39Z</time></trkpt><trkpt lat="44.768581069639254" lon="8.837168561368658"><ele>188.0</ele><time>2026-04-28T09:55:40Z</time></trkpt><trkpt lat="44.76883472675908" lon="8.837147547226003"><ele>188.0</ele><time>2026-04-28T09:55:41Z</time></trkpt><trkpt lat="44.76908353094829" lon="8.83712265574319"><ele>188.0</ele><time>2026-04-28T09:55:42Z</time></trkpt><trkpt lat="44.76933430600183" lon="8.83710227512953"><ele>188.0</ele><time>2026-04-28T09:55:43Z</time></trkpt><trkpt lat="44.769584789743114" lon="8.837079952274001"><ele>188.0</ele><time>2026-04-28T09:55:44Z</time></trkpt><trkpt lat="44.76983737360815" lon="8.83705915928224"><ele>188.0</ele><time>2026-04-28T09:55:45Z</time></trkpt><trkpt lat="44.77008467935573" lon="8.837035709988715"><ele>188.0</ele><time>2026-04-28T09:55:46Z</time></trkpt><trkpt lat="44.770335023410496" lon="8.837011364676163"><ele>189.0</ele><time>2026-04-28T09:55:47Z</time></trkpt><trkpt lat="44.770589337354856" lon="8.836989117828892"><ele>190.0</ele><time>2026-04-28T09:55:48Z</time></trkpt><trkpt lat="44.770842114484154" lon="8.836968715782639"><ele>190.0</ele><time>2026-04-28T09:55:49Z</time></trkpt><trkpt lat="44.77109292829768" lon="8.836944072756816"><ele>190.0</ele><time>2026-04-28T09:55:50Z</time></trkpt><trkpt lat="44.771346350927644" lon="8.836917039448089"><ele>190.0</ele><time>2026-04-28T09:55:51Z</time></trkpt><trkpt lat="44.771599512106185" lon="8.83689417241759"><ele>190.0</ele><time>2026-04-28T09:55:52Z</time></trkpt><trkpt lat="44.771852352261575" lon="8.836872202506521"><ele>188.5</ele><time>2026-04-28T09:55:53Z</time></trkpt><trkpt lat="44.77210040838044" lon="8.836847240019663"><ele>187.0</ele><time>2026-04-28T09:55:54Z</time></trkpt><trkpt lat="44.772350499633205" lon="8.836822840578758"><ele>187.0</ele><time>2026-04-28T09:55:55Z</time></trkpt><trkpt lat="44.77259918607455" lon="8.836803642074672"><ele>187.0</ele><time>2026-04-28T09:55:56Z</time></trkpt><trkpt lat="44.77285454697952" lon="8.836785400151259"><ele>186.5</ele><time>2026-04-28T09:55:57Z</time></trkpt><trkpt lat="44.77310219295891" lon="8.83676901258339"><ele>186.0</ele><time>2026-04-28T09:55:58Z</time></trkpt><trkpt lat="44.773357883664616" lon="8.836736661655626"><ele>185.0</ele><time>2026-04-28T09:55:59Z</time></trkpt><trkpt lat="44.77362692309308" lon="8.836713902758074"><ele>184.0</ele><time>2026-04-28T09:56:00Z</time></trkpt><trkpt lat="44.77389135630675" lon="8.836690295825699"><ele>184.0</ele><time>2026-04-28T09:56:01Z</time></trkpt><trkpt lat="44.77415820832363" lon="8.836666240517374"><ele>184.0</ele><time>2026-04-28T09:56:02Z</time></trkpt><trkpt lat="44.77442888839207" lon="8.836641361879265"><ele>183.5</ele><time>2026-04-28T09:56:03Z</time></trkpt><trkpt lat="44.77471342935022" lon="8.836616190224317"><ele>183.0</ele><time>2026-04-28T09:56:04Z</time></trkpt><trkpt lat="44.77500733766002" lon="8.8365863306899"><ele>183.0</ele><time>2026-04-28T09:56:05Z</time></trkpt><trkpt lat="44.77531350442351" lon="8.836560943056835"><ele>183.0</ele><time>2026-04-28T09:56:06Z</time></trkpt><trkpt lat="44.77559743984407" lon="8.836540139753403"><ele>183.0</ele><time>2026-04-28T09:56:07Z</time></trkpt><trkpt lat="44.77586103626539" lon="8.83651574954175"><ele>183.0</ele><time>2026-04-28T09:56:08Z</time></trkpt><trkpt lat="44.77611937125722" lon="8.836487615038276"><ele>182.5</ele><time>2026-04-28T09:56:09Z</time></trkpt><trkpt lat="44.77636927632972" lon="8.836461571422353"><ele>182.0</ele><time>2026-04-28T09:56:10Z</time></trkpt><trkpt lat="44.77662036180408" lon="8.836439981336856"><ele>183.0</ele><time>2026-04-28T09:56:11Z</time></trkpt><trkpt lat="44.77686082658766" lon="8.83641680548607"><ele>184.0</ele><time>2026-04-28T09:56:12Z</time></trkpt><trkpt lat="44.777108792349374" lon="8.836397296105442"><ele>184.0</ele><time>2026-04-28T09:56:13Z</time></trkpt><trkpt lat="44.77735619777835" lon="8.83637561870854"><ele>184.0</ele><time>2026-04-28T09:56:14Z</time></trkpt><trkpt lat="44.7776067145333" lon="8.836356208088029"><ele>183.5</ele><time>2026-04-28T09:56:15Z</time></trkpt><trkpt lat="44.77785236037927" lon="8.836333572487472"><ele>183.0</ele><time>2026-04-28T09:56:16Z</time></trkpt><trkpt lat="44.778095057314694" lon="8.8363110730423"><ele>183.0</ele><time>2026-04-28T09:56:17Z</time></trkpt><trkpt lat="44.778340971858704" lon="8.836287893695522"><ele>183.0</ele><time>2026-04-28T09:56:18Z</time></trkpt><trkpt lat="44.778587176579705" lon="8.836264731474271"><ele>182.0</ele><time>2026-04-28T09:56:19Z</time></trkpt><trkpt lat="44.77883739647994" lon="8.836242030926327"><ele>181.0</ele><time>2026-04-28T09:56:20Z</time></trkpt><trkpt lat="44.77909121488606" lon="8.836216482481506"><ele>181.0</ele><time>2026-04-28T09:56:21Z</time></trkpt><trkpt lat="44.77934570627213" lon="8.836188814049738"><ele>181.0</ele><time>2026-04-28T09:56:22Z</time></trkpt><trkpt lat="44.779599785197505" lon="8.836162878816415"><ele>182.0</ele><time>2026-04-28T09:56:23Z</time></trkpt><trkpt lat="44.77984976057295" lon="8.83613626940342"><ele>183.0</ele><time>2026-04-28T09:56:24Z</time></trkpt><trkpt lat="44.78010654623486" lon="8.836097926027417"><ele>182.5</ele><time>2026-04-28T09:56:25Z</time></trkpt><trkpt lat="44.780361367655594" lon="8.836049003227682"><ele>182.0</ele><time>2026-04-28T09:56:26Z</time></trkpt><trkpt lat="44.78062369754056" lon="8.836001848767792"><ele>181.5</ele><time>2026-04-28T09:56:26.999Z</time></trkpt><trkpt lat="44.78088421591669" lon="8.835960072893062"><ele>181.0</ele><time>2026-04-28T09:56:27.999Z</time></trkpt><trkpt lat="44.78114028908854" lon="8.835911007412912"><ele>181.0</ele><time>2026-04-28T09:56:28.999Z</time></trkpt><trkpt lat="44.78139689187828" lon="8.835858558476811"><ele>181.0</ele><time>2026-04-28T09:56:29.999Z</time></trkpt><trkpt lat="44.78165392469221" lon="8.835811820258627"><ele>180.5</ele><time>2026-04-28T09:56:30.999Z</time></trkpt><trkpt lat="44.78191095821005" lon="8.835762945302866"><ele>180.0</ele><time>2026-04-28T09:56:31.999Z</time></trkpt><trkpt lat="44.78217015280865" lon="8.835717647869433"><ele>180.0</ele><time>2026-04-28T09:56:32.999Z</time></trkpt><trkpt lat="44.78243392092834" lon="8.835679307897774"><ele>180.0</ele><time>2026-04-28T09:56:33.999Z</time></trkpt><trkpt lat="44.782701059099324" lon="8.835633937174496"><ele>180.5</ele><time>2026-04-28T09:56:34.999Z</time></trkpt><trkpt lat="44.7829614206033" lon="8.835590254349674"><ele>181.0</ele><time>2026-04-28T09:56:35.999Z</time></trkpt><trkpt lat="44.78320984775041" lon="8.835544927100983"><ele>181.0</ele><time>2026-04-28T09:56:36.999Z</time></trkpt><trkpt lat="44.783462618584466" lon="8.835499414497239"><ele>181.0</ele><time>2026-04-28T09:56:37.999Z</time></trkpt><trkpt lat="44.78371921660143" lon="8.835451828847694"><ele>180.0</ele><time>2026-04-28T09:56:38.999Z</time></trkpt><trkpt lat="44.78396718088571" lon="8.835407156636025"><ele>179.0</ele><time>2026-04-28T09:56:39.999Z</time></trkpt><trkpt lat="44.78420925733304" lon="8.835366108049195"><ele>179.0</ele><time>2026-04-28T09:56:40.999Z</time></trkpt><trkpt lat="44.784452376607106" lon="8.83532277280483"><ele>179.0</ele><time>2026-04-28T09:56:41.999Z</time></trkpt><trkpt lat="44.78469928714245" lon="8.835278547740579"><ele>179.0</ele><time>2026-04-28T09:56:42.999Z</time></trkpt><trkpt lat="44.784949296482594" lon="8.835232343364828"><ele>179.0</ele><time>2026-04-28T09:56:43.999Z</time></trkpt><trkpt lat="44.78520232357449" lon="8.835186849744721"><ele>178.5</ele><time>2026-04-28T09:56:44.999Z</time></trkpt><trkpt lat="44.78545143970243" lon="8.835141852609365"><ele>178.0</ele><time>2026-04-28T09:56:45.999Z</time></trkpt><trkpt lat="44.785699779621254" lon="8.835092496936474"><ele>178.0</ele><time>2026-04-28T09:56:46.999Z</time></trkpt><trkpt lat="44.78594786825484" lon="8.835050287598985"><ele>178.0</ele><time>2026-04-28T09:56:47.999Z</time></trkpt><trkpt lat="44.7861950654151" lon="8.835005282746"><ele>178.5</ele><time>2026-04-28T09:56:48.999Z</time></trkpt><trkpt lat="44.78644116625132" lon="8.834958312452798"><ele>179.0</ele><time>2026-04-28T09:56:49.999Z</time></trkpt><trkpt lat="44.7866936685579" lon="8.834913724377662"><ele>179.0</ele><time>2026-04-28T09:56:50.999Z</time></trkpt><trkpt lat="44.78694895058534" lon="8.834870061117957"><ele>179.0</ele><time>2026-04-28T09:56:51.999Z</time></trkpt><trkpt lat="44.787211108522975" lon="8.834829686247115"><ele>179.0</ele><time>2026-04-28T09:56:52.999Z</time></trkpt><trkpt lat="44.78748304380949" lon="8.834783394591769"><ele>179.0</ele><time>2026-04-28T09:56:53.999Z</time></trkpt><trkpt lat="44.78777402900508" lon="8.834735431512687"><ele>178.5</ele><time>2026-04-28T09:56:54.999Z</time></trkpt><trkpt lat="44.78802986066464" lon="8.834692097383398"><ele>178.0</ele><time>2026-04-28T09:56:55.999Z</time></trkpt><trkpt lat="44.78826994945627" lon="8.834640348507053"><ele>178.0</ele><time>2026-04-28T09:56:56.999Z</time></trkpt><trkpt lat="44.788507620176524" lon="8.834605227656615"><ele>178.0</ele><time>2026-04-28T09:56:57.999Z</time></trkpt><trkpt lat="44.78873496172019" lon="8.834568290325302"><ele>177.66666666666669</ele><time>2026-04-28T09:56:58.999Z</time></trkpt><trkpt lat="44.78895742412863" lon="8.834530415792694"><ele>177.33333333333334</ele><time>2026-04-28T09:56:59.999Z</time></trkpt><trkpt lat="44.78917689696534" lon="8.834490641785234"><ele>177.0</ele><time>2026-04-28T09:57:00.999Z</time></trkpt><trkpt lat="44.789390002643835" lon="8.834451230520061"><ele>176.66666666666666</ele><time>2026-04-28T09:57:01.999Z</time></trkpt><trkpt lat="44.78959514483721" lon="8.834414433497539"><ele>176.33333333333331</ele><time>2026-04-28T09:57:02.999Z</time></trkpt><trkpt lat="44.78979847667542" lon="8.834379488017365"><ele>176.0</ele><time>2026-04-28T09:57:03.999Z</time></trkpt><trkpt lat="44.79000996294487" lon="8.834340768341086"><ele>175.66666666666666</ele><time>2026-04-28T09:57:04.999Z</time></trkpt><trkpt lat="44.790221284490464" lon="8.834305260734567"><ele>175.33333333333334</ele><time>2026-04-28T09:57:05.999Z</time></trkpt><trkpt lat="44.79043851434595" lon="8.8342688787382"><ele>175.0</ele><time>2026-04-28T09:57:06.999Z</time></trkpt><trkpt lat="44.790661863321795" lon="8.834220260573852"><ele>175.0</ele><time>2026-04-28T09:57:07.999Z</time></trkpt><trkpt lat="44.79088703947617" lon="8.834179345509364"><ele>175.0</ele><time>2026-04-28T09:57:08.999Z</time></trkpt><trkpt lat="44.79111288459482" lon="8.834135772286329"><ele>174.5</ele><time>2026-04-28T09:57:09.999Z</time></trkpt><trkpt lat="44.79133658783806" lon="8.8340974840781"><ele>174.0</ele><time>2026-04-28T09:57:10.999Z</time></trkpt><trkpt lat="44.79156595460271" lon="8.834062372200522"><ele>174.0</ele><time>2026-04-28T09:57:11.999Z</time></trkpt><trkpt lat="44.791792101200876" lon="8.834024419445461"><ele>174.0</ele><time>2026-04-28T09:57:12.999Z</time></trkpt><trkpt lat="44.79202232215862" lon="8.833982665759947"><ele>175.0</ele><time>2026-04-28T09:57:13.999Z</time></trkpt><trkpt lat="44.79225073209928" lon="8.833943065695117"><ele>176.0</ele><time>2026-04-28T09:57:14.999Z</time></trkpt><trkpt lat="44.79247800663832" lon="8.833905470310496"><ele>175.0</ele><time>2026-04-28T09:57:15.999Z</time></trkpt><trkpt lat="44.79270306045439" lon="8.833863562599927"><ele>174.0</ele><time>2026-04-28T09:57:16.999Z</time></trkpt><trkpt lat="44.792931776079385" lon="8.833823265527425"><ele>174.0</ele><time>2026-04-28T09:57:17.999Z</time></trkpt><trkpt lat="44.79315527591229" lon="8.833781864187491"><ele>174.0</ele><time>2026-04-28T09:57:18.999Z</time></trkpt><trkpt lat="44.79337987567721" lon="8.833740131850666"><ele>174.0</ele><time>2026-04-28T09:57:19.999Z</time></trkpt><trkpt lat="44.79360831626311" lon="8.833697545012756"><ele>174.0</ele><time>2026-04-28T09:57:20.999Z</time></trkpt><trkpt lat="44.793836160695605" lon="8.833654003654617"><ele>174.0</ele><time>2026-04-28T09:57:21.999Z</time></trkpt><trkpt lat="44.79406132313175" lon="8.833614267078612"><ele>174.0</ele><time>2026-04-28T09:57:22.999Z</time></trkpt><trkpt lat="44.794287097955475" lon="8.833573996381727"><ele>173.66666666666666</ele><time>2026-04-28T09:57:23.999Z</time></trkpt><trkpt lat="44.794501817748674" lon="8.83353500021322"><ele>173.33333333333331</ele><time>2026-04-28T09:57:24.999Z</time></trkpt><trkpt lat="44.79471005384081" lon="8.833499080964993"><ele>173.0</ele><time>2026-04-28T09:57:25.999Z</time></trkpt><trkpt lat="44.794919631257315" lon="8.833466300864139"><ele>173.0</ele><time>2026-04-28T09:57:26.999Z</time></trkpt><trkpt lat="44.79513916641958" lon="8.833433295166609"><ele>173.0</ele><time>2026-04-28T09:57:27.999Z</time></trkpt><trkpt lat="44.795352557794835" lon="8.833387426601625"><ele>173.0</ele><time>2026-04-28T09:57:28.999Z</time></trkpt><trkpt lat="44.7955737727103" lon="8.833344438054521"><ele>172.66666666666666</ele><time>2026-04-28T09:57:29.999Z</time></trkpt><trkpt lat="44.795785547008215" lon="8.833309648855817"><ele>172.33333333333334</ele><time>2026-04-28T09:57:30.999Z</time></trkpt><trkpt lat="44.79600026420649" lon="8.833273550354532"><ele>172.0</ele><time>2026-04-28T09:57:31.999Z</time></trkpt><trkpt lat="44.79622065923746" lon="8.833236020632485"><ele>172.0</ele><time>2026-04-28T09:57:32.999Z</time></trkpt><trkpt lat="44.79644236749654" lon="8.833195416748955"><ele>172.0</ele><time>2026-04-28T09:57:33.999Z</time></trkpt><trkpt lat="44.7966597674681" lon="8.833156675493962"><ele>172.0</ele><time>2026-04-28T09:57:34.999Z</time></trkpt><trkpt lat="44.796879998547276" lon="8.83311898340214"><ele>172.0</ele><time>2026-04-28T09:57:35.999Z</time></trkpt><trkpt lat="44.797092329138216" lon="8.833078613333841"><ele>172.0</ele><time>2026-04-28T09:57:37Z</time></trkpt><trkpt lat="44.79730967765164" lon="8.833039038982543"><ele>172.0</ele><time>2026-04-28T09:57:38Z</time></trkpt><trkpt lat="44.79752216181166" lon="8.833001981987689"><ele>171.66666666666669</ele><time>2026-04-28T09:57:39Z</time></trkpt><trkpt lat="44.79773007107315" lon="8.832967772387507"><ele>171.33333333333334</ele><time>2026-04-28T09:57:40Z</time></trkpt><trkpt lat="44.79794002142927" lon="8.83293304474651"><ele>171.0</ele><time>2026-04-28T09:57:41Z</time></trkpt><trkpt lat="44.798148319065625" lon="8.832889997766777"><ele>171.0</ele><time>2026-04-28T09:57:42Z</time></trkpt><trkpt lat="44.798358987056176" lon="8.832845008843533"><ele>171.0</ele><time>2026-04-28T09:57:43Z</time></trkpt><trkpt lat="44.79857142375754" lon="8.83280508713629"><ele>171.0</ele><time>2026-04-28T09:57:44Z</time></trkpt><trkpt lat="44.798788390874556" lon="8.832767292938877"><ele>170.66666666666666</ele><time>2026-04-28T09:57:45Z</time></trkpt><trkpt lat="44.7990042502442" lon="8.83273044319582"><ele>170.33333333333331</ele><time>2026-04-28T09:57:46Z</time></trkpt><trkpt lat="44.7992247724911" lon="8.832692667133928"><ele>170.0</ele><time>2026-04-28T09:57:47Z</time></trkpt><trkpt lat="44.799442097406626" lon="8.832649746215324"><ele>169.0</ele><time>2026-04-28T09:57:48Z</time></trkpt><trkpt lat="44.799662598168375" lon="8.832600054869218"><ele>168.0</ele><time>2026-04-28T09:57:49Z</time></trkpt><trkpt lat="44.79989582781319" lon="8.832538451984242"><ele>168.0</ele><time>2026-04-28T09:57:50Z</time></trkpt><trkpt lat="44.80013827031418" lon="8.83246432549247"><ele>168.0</ele><time>2026-04-28T09:57:51Z</time></trkpt><trkpt lat="44.800390824436555" lon="8.832388195955964"><ele>169.0</ele><time>2026-04-28T09:57:52Z</time></trkpt><trkpt lat="44.80065449979179" lon="8.832310379278923"><ele>170.0</ele><time>2026-04-28T09:57:53Z</time></trkpt><trkpt lat="44.8009315140491" lon="8.832231586471456"><ele>169.0</ele><time>2026-04-28T09:57:54Z</time></trkpt><trkpt lat="44.801217619152126" lon="8.832145031017594"><ele>168.0</ele><time>2026-04-28T09:57:55Z</time></trkpt><trkpt lat="44.80151675561515" lon="8.832060760217383"><ele>168.0</ele><time>2026-04-28T09:57:56Z</time></trkpt><trkpt lat="44.80180589791843" lon="8.831973146206003"><ele>168.0</ele><time>2026-04-28T09:57:57Z</time></trkpt><trkpt lat="44.80207580288872" lon="8.83188229235251"><ele>169.0</ele><time>2026-04-28T09:57:58Z</time></trkpt><trkpt lat="44.80234590243685" lon="8.831790965119273"><ele>170.0</ele><time>2026-04-28T09:57:59Z</time></trkpt><trkpt lat="44.802620941735285" lon="8.831711593985974"><ele>169.5</ele><time>2026-04-28T09:58:00Z</time></trkpt><trkpt lat="44.80288962587338" lon="8.831632886776404"><ele>169.0</ele><time>2026-04-28T09:58:01Z</time></trkpt><trkpt lat="44.80315597423699" lon="8.831541112537408"><ele>169.0</ele><time>2026-04-28T09:58:02Z</time></trkpt><trkpt lat="44.803423815896515" lon="8.831458945226165"><ele>169.0</ele><time>2026-04-28T09:58:03Z</time></trkpt><trkpt lat="44.803686528382855" lon="8.831374651470158"><ele>168.0</ele><time>2026-04-28T09:58:04Z</time></trkpt><trkpt lat="44.803948556568386" lon="8.831299616160756"><ele>167.0</ele><time>2026-04-28T09:58:05Z</time></trkpt><trkpt lat="44.80421553322585" lon="8.831218044277795"><ele>167.0</ele><time>2026-04-28T09:58:06Z</time></trkpt><trkpt lat="44.804480336357585" lon="8.831134123143633"><ele>167.0</ele><time>2026-04-28T09:58:07Z</time></trkpt><trkpt lat="44.80474316463694" lon="8.831044907243605"><ele>167.0</ele><time>2026-04-28T09:58:08Z</time></trkpt><trkpt lat="44.80502717778701" lon="8.830948772698296"><ele>167.0</ele><time>2026-04-28T09:58:09Z</time></trkpt><trkpt lat="44.805307356847635" lon="8.830851412203291"><ele>166.0</ele><time>2026-04-28T09:58:10Z</time></trkpt><trkpt lat="44.80559195550456" lon="8.830754420473303"><ele>165.0</ele><time>2026-04-28T09:58:11Z</time></trkpt><trkpt lat="44.80588418582567" lon="8.830659045955674"><ele>165.0</ele><time>2026-04-28T09:58:12Z</time></trkpt><trkpt lat="44.80618378940369" lon="8.83056902943186"><ele>165.0</ele><time>2026-04-28T09:58:13Z</time></trkpt><trkpt lat="44.8064896798014" lon="8.83048097383228"><ele>165.0</ele><time>2026-04-28T09:58:14Z</time></trkpt><trkpt lat="44.80679876421617" lon="8.830399197926736"><ele>165.0</ele><time>2026-04-28T09:58:15Z</time></trkpt><trkpt lat="44.807112160080166" lon="8.830322573591161"><ele>165.0</ele><time>2026-04-28T09:58:16Z</time></trkpt><trkpt lat="44.80742334193017" lon="8.830248681255418"><ele>165.0</ele><time>2026-04-28T09:58:17Z</time></trkpt><trkpt lat="44.80773916032787" lon="8.830183610151634"><ele>164.0</ele><time>2026-04-28T09:58:18Z</time></trkpt><trkpt lat="44.808056966640095" lon="8.830123577411536"><ele>163.0</ele><time>2026-04-28T09:58:19Z</time></trkpt><trkpt lat="44.80836254616257" lon="8.830064651248202"><ele>162.0</ele><time>2026-04-28T09:58:20Z</time></trkpt><trkpt lat="44.80865972102788" lon="8.8300089022986"><ele>161.0</ele><time>2026-04-28T09:58:21Z</time></trkpt><trkpt lat="44.80896374583079" lon="8.829960050489989"><ele>161.0</ele><time>2026-04-28T09:58:22Z</time></trkpt><trkpt lat="44.80927287477522" lon="8.829918316911092"><ele>161.0</ele><time>2026-04-28T09:58:23Z</time></trkpt><trkpt lat="44.80958161401701" lon="8.829882057831162"><ele>161.5</ele><time>2026-04-28T09:58:24Z</time></trkpt><trkpt lat="44.80988856487432" lon="8.829844118140427"><ele>162.0</ele><time>2026-04-28T09:58:25Z</time></trkpt><trkpt lat="44.81019736665026" lon="8.829807417826249"><ele>162.0</ele><time>2026-04-28T09:58:26Z</time></trkpt><trkpt lat="44.81051261225744" lon="8.829774843538164"><ele>162.0</ele><time>2026-04-28T09:58:27Z</time></trkpt><trkpt lat="44.810818920600425" lon="8.829740716046349"><ele>162.0</ele><time>2026-04-28T09:58:28Z</time></trkpt><trkpt lat="44.811133874915164" lon="8.829707877615068"><ele>162.0</ele><time>2026-04-28T09:58:29Z</time></trkpt><trkpt lat="44.811449821727926" lon="8.829679455659978"><ele>162.0</ele><time>2026-04-28T09:58:30Z</time></trkpt><trkpt lat="44.81177102083761" lon="8.829653284414123"><ele>162.0</ele><time>2026-04-28T09:58:31Z</time></trkpt><trkpt lat="44.81209443241751" lon="8.829629364085845"><ele>161.5</ele><time>2026-04-28T09:58:32Z</time></trkpt><trkpt lat="44.8124108760366" lon="8.829604039961248"><ele>161.0</ele><time>2026-04-28T09:58:33Z</time></trkpt><trkpt lat="44.81271820863184" lon="8.829574494961324"><ele>161.0</ele><time>2026-04-28T09:58:34Z</time></trkpt><trkpt lat="44.8130180714287" lon="8.829544612884773"><ele>161.0</ele><time>2026-04-28T09:58:35Z</time></trkpt><trkpt lat="44.81331725686087" lon="8.829518519829081"><ele>161.0</ele><time>2026-04-28T09:58:35.999Z</time></trkpt><trkpt lat="44.81361785981955" lon="8.829496683758096"><ele>161.0</ele><time>2026-04-28T09:58:36.999Z</time></trkpt><trkpt lat="44.81390945082404" lon="8.829473944255232"><ele>161.0</ele><time>2026-04-28T09:58:37.999Z</time></trkpt><trkpt lat="44.81419805390463" lon="8.829445575158566"><ele>161.0</ele><time>2026-04-28T09:58:38.999Z</time></trkpt><trkpt lat="44.81448700505678" lon="8.829417383821374"><ele>160.0</ele><time>2026-04-28T09:58:39.999Z</time></trkpt><trkpt lat="44.81477461233583" lon="8.829390409923128"><ele>159.0</ele><time>2026-04-28T09:58:40.999Z</time></trkpt><trkpt lat="44.815062622643296" lon="8.829363452766323"><ele>159.0</ele><time>2026-04-28T09:58:41.999Z</time></trkpt><trkpt lat="44.81535570031269" lon="8.82933441991624"><ele>159.0</ele><time>2026-04-28T09:58:42.999Z</time></trkpt><trkpt lat="44.81565680323246" lon="8.829307231507919"><ele>159.0</ele><time>2026-04-28T09:58:43.999Z</time></trkpt><trkpt lat="44.81595384548977" lon="8.829277150016864"><ele>159.0</ele><time>2026-04-28T09:58:44.999Z</time></trkpt><trkpt lat="44.81625217701469" lon="8.829246858732562"><ele>159.0</ele><time>2026-04-28T09:58:45.999Z</time></trkpt><trkpt lat="44.81655643444591" lon="8.829215518414049"><ele>159.0</ele><time>2026-04-28T09:58:46.999Z</time></trkpt><trkpt lat="44.81684584568371" lon="8.829182953894414"><ele>158.5</ele><time>2026-04-28T09:58:47.999Z</time></trkpt><trkpt lat="44.81715874556904" lon="8.829155265791991"><ele>158.0</ele><time>2026-04-28T09:58:48.999Z</time></trkpt><trkpt lat="44.81744607583928" lon="8.829123165484042"><ele>157.0</ele><time>2026-04-28T09:58:49.999Z</time></trkpt><trkpt lat="44.817719196566955" lon="8.829093853804359"><ele>156.0</ele><time>2026-04-28T09:58:50.999Z</time></trkpt><trkpt lat="44.81797366347221" lon="8.82906700313954"><ele>156.0</ele><time>2026-04-28T09:58:51.999Z</time></trkpt><trkpt lat="44.818218319473516" lon="8.829042356602667"><ele>156.0</ele><time>2026-04-28T09:58:52.999Z</time></trkpt><trkpt lat="44.81845078273875" lon="8.829023830004521"><ele>156.5</ele><time>2026-04-28T09:58:53.999Z</time></trkpt><trkpt lat="44.81868996586111" lon="8.829000476035521"><ele>157.0</ele><time>2026-04-28T09:58:54.999Z</time></trkpt><trkpt lat="44.8189305740364" lon="8.828978189871918"><ele>157.0</ele><time>2026-04-28T09:58:55.999Z</time></trkpt><trkpt lat="44.81916706091373" lon="8.828960116730304"><ele>157.0</ele><time>2026-04-28T09:58:56.999Z</time></trkpt><trkpt lat="44.81940230180867" lon="8.828938705893679"><ele>155.5</ele><time>2026-04-28T09:58:57.999Z</time></trkpt><trkpt lat="44.81964381423099" lon="8.828915635266215"><ele>154.0</ele><time>2026-04-28T09:58:58.999Z</time></trkpt><trkpt lat="44.819888177521555" lon="8.8288904482025"><ele>154.0</ele><time>2026-04-28T09:58:59.999Z</time></trkpt><trkpt lat="44.82014119931088" lon="8.828865030045502"><ele>154.0</ele><time>2026-04-28T09:59:00.999Z</time></trkpt><trkpt lat="44.82039325764131" lon="8.828844159871624"><ele>154.0</ele><time>2026-04-28T09:59:01.999Z</time></trkpt><trkpt lat="44.82064556964507" lon="8.828821477831523"><ele>154.0</ele><time>2026-04-28T09:59:02.999Z</time></trkpt><trkpt lat="44.820903383534194" lon="8.828798625007689"><ele>153.5</ele><time>2026-04-28T09:59:03.999Z</time></trkpt><trkpt lat="44.82116268271024" lon="8.828775780740513"><ele>153.0</ele><time>2026-04-28T09:59:04.999Z</time></trkpt><trkpt lat="44.821420402617925" lon="8.82875247986331"><ele>153.0</ele><time>2026-04-28T09:59:05.999Z</time></trkpt><trkpt lat="44.82167306870574" lon="8.828727808136666"><ele>153.0</ele><time>2026-04-28T09:59:06.999Z</time></trkpt><trkpt lat="44.8219257296191" lon="8.828704785073096"><ele>154.0</ele><time>2026-04-28T09:59:07.999Z</time></trkpt><trkpt lat="44.822182750982165" lon="8.82868333532677"><ele>155.0</ele><time>2026-04-28T09:59:08.999Z</time></trkpt><trkpt lat="44.82244065315856" lon="8.828660430569087"><ele>154.0</ele><time>2026-04-28T09:59:09.999Z</time></trkpt><trkpt lat="44.822695269552256" lon="8.82863767996651"><ele>153.0</ele><time>2026-04-28T09:59:10.999Z</time></trkpt><trkpt lat="44.8229499727873" lon="8.828612768461097"><ele>153.0</ele><time>2026-04-28T09:59:11.999Z</time></trkpt><trkpt lat="44.823205300965206" lon="8.828587449415327"><ele>153.0</ele><time>2026-04-28T09:59:12.999Z</time></trkpt><trkpt lat="44.82346339398815" lon="8.828561137946869"><ele>152.5</ele><time>2026-04-28T09:59:13.999Z</time></trkpt><trkpt lat="44.823718275385765" lon="8.828539729651386"><ele>152.0</ele><time>2026-04-28T09:59:14.999Z</time></trkpt><trkpt lat="44.82397174248612" lon="8.828514259061405"><ele>152.0</ele><time>2026-04-28T09:59:15.999Z</time></trkpt><trkpt lat="44.82422619076239" lon="8.828489418173522"><ele>152.0</ele><time>2026-04-28T09:59:16.999Z</time></trkpt><trkpt lat="44.824484038143346" lon="8.828465570800294"><ele>151.5</ele><time>2026-04-28T09:59:17.999Z</time></trkpt><trkpt lat="44.82473745857087" lon="8.828443979334084"><ele>151.0</ele><time>2026-04-28T09:59:18.999Z</time></trkpt><trkpt lat="44.82498908785345" lon="8.828422121306398"><ele>150.5</ele><time>2026-04-28T09:59:19.999Z</time></trkpt><trkpt lat="44.82524454244887" lon="8.828400324837311"><ele>150.0</ele><time>2026-04-28T09:59:20.999Z</time></trkpt><trkpt lat="44.82549394817506" lon="8.828378583901031"><ele>150.0</ele><time>2026-04-28T09:59:21.999Z</time></trkpt><trkpt lat="44.82574116803393" lon="8.828363180851817"><ele>150.0</ele><time>2026-04-28T09:59:22.999Z</time></trkpt><trkpt lat="44.82599452169387" lon="8.828343582716265"><ele>150.5</ele><time>2026-04-28T09:59:23.999Z</time></trkpt><trkpt lat="44.826250203566765" lon="8.828324879869268"><ele>151.0</ele><time>2026-04-28T09:59:24.999Z</time></trkpt><trkpt lat="44.82650780768206" lon="8.828307521399372"><ele>151.0</ele><time>2026-04-28T09:59:25.999Z</time></trkpt><trkpt lat="44.8267611364371" lon="8.82828987673316"><ele>151.0</ele><time>2026-04-28T09:59:26.999Z</time></trkpt><trkpt lat="44.82702101745199" lon="8.828285691051622"><ele>149.5</ele><time>2026-04-28T09:59:27.999Z</time></trkpt><trkpt lat="44.82727242198531" lon="8.828276894189251"><ele>148.0</ele><time>2026-04-28T09:59:28.999Z</time></trkpt><trkpt lat="44.827525879417166" lon="8.82827393482326"><ele>147.0</ele><time>2026-04-28T09:59:29.999Z</time></trkpt><trkpt lat="44.82778063969418" lon="8.828272285845411"><ele>146.0</ele><time>2026-04-28T09:59:30.999Z</time></trkpt><trkpt lat="44.82804134758729" lon="8.828274209779638"><ele>146.0</ele><time>2026-04-28T09:59:31.999Z</time></trkpt><trkpt lat="44.82829576342565" lon="8.828277484088554"><ele>146.0</ele><time>2026-04-28T09:59:32.999Z</time></trkpt><trkpt lat="44.82854418985104" lon="8.828287956353583"><ele>145.0</ele><time>2026-04-28T09:59:33.999Z</time></trkpt><trkpt lat="44.828793735261236" lon="8.828299493538193"><ele>144.0</ele><time>2026-04-28T09:59:34.999Z</time></trkpt><trkpt lat="44.8290407897091" lon="8.828316284299778"><ele>144.0</ele><time>2026-04-28T09:59:35.999Z</time></trkpt><trkpt lat="44.82929019243882" lon="8.82833357653186"><ele>144.0</ele><time>2026-04-28T09:59:36.999Z</time></trkpt><trkpt lat="44.8295423588241" lon="8.828347793970464"><ele>144.5</ele><time>2026-04-28T09:59:37.999Z</time></trkpt><trkpt lat="44.82979030025038" lon="8.828360670687497"><ele>145.0</ele><time>2026-04-28T09:59:38.999Z</time></trkpt><trkpt lat="44.830036448045256" lon="8.828381736587394"><ele>144.5</ele><time>2026-04-28T09:59:39.999Z</time></trkpt><trkpt lat="44.8302901625735" lon="8.82838602248194"><ele>144.0</ele><time>2026-04-28T09:59:40.999Z</time></trkpt><trkpt lat="44.830545637140084" lon="8.828398534456893"><ele>144.0</ele><time>2026-04-28T09:59:41.999Z</time></trkpt><trkpt lat="44.83079316890656" lon="8.828415277753477"><ele>144.0</ele><time>2026-04-28T09:59:43Z</time></trkpt><trkpt lat="44.83105048046148" lon="8.82843053808177"><ele>145.0</ele><time>2026-04-28T09:59:44Z</time></trkpt><trkpt lat="44.83131028738681" lon="8.828445709305864"><ele>146.0</ele><time>2026-04-28T09:59:45Z</time></trkpt><trkpt lat="44.83156944486399" lon="8.82845642410072"><ele>146.0</ele><time>2026-04-28T09:59:46Z</time></trkpt><trkpt lat="44.83182951871233" lon="8.828468070228414"><ele>146.0</ele><time>2026-04-28T09:59:47Z</time></trkpt><trkpt lat="44.83209144640399" lon="8.828476654605966"><ele>145.0</ele><time>2026-04-28T09:59:48Z</time></trkpt><trkpt lat="44.83235115892114" lon="8.828492074134184"><ele>144.0</ele><time>2026-04-28T09:59:49Z</time></trkpt><trkpt lat="44.83261406032484" lon="8.828510802010992"><ele>145.0</ele><time>2026-04-28T09:59:50Z</time></trkpt><trkpt lat="44.8328778217529" lon="8.828529203491835"><ele>146.0</ele><time>2026-04-28T09:59:51Z</time></trkpt><trkpt lat="44.833146461526084" lon="8.828543563967191"><ele>146.0</ele><time>2026-04-28T09:59:52Z</time></trkpt><trkpt lat="44.833410896188546" lon="8.828562916170453"><ele>146.0</ele><time>2026-04-28T09:59:53Z</time></trkpt><trkpt lat="44.83367864724186" lon="8.828577095125036"><ele>145.5</ele><time>2026-04-28T09:59:54Z</time></trkpt><trkpt lat="44.833940886896876" lon="8.82859608437799"><ele>145.0</ele><time>2026-04-28T09:59:55Z</time></trkpt><trkpt lat="44.834210719171566" lon="8.82860691321119"><ele>143.0</ele><time>2026-04-28T09:59:56Z</time></trkpt><trkpt lat="44.8344735186181" lon="8.828622353228354"><ele>141.0</ele><time>2026-04-28T09:59:57Z</time></trkpt><trkpt lat="44.834728166378255" lon="8.828641869375334"><ele>141.0</ele><time>2026-04-28T09:59:58Z</time></trkpt><trkpt lat="44.83498259120364" lon="8.828657797836946"><ele>141.0</ele><time>2026-04-28T09:59:59Z</time></trkpt><trkpt lat="44.83523862129473" lon="8.828670714670551"><ele>141.5</ele><time>2026-04-28T10:00:00Z</time></trkpt><trkpt lat="44.835501304772976" lon="8.828679497880737"><ele>142.0</ele><time>2026-04-28T10:00:01Z</time></trkpt><trkpt lat="44.83575829527617" lon="8.828693453377728"><ele>142.0</ele><time>2026-04-28T10:00:02Z</time></trkpt><trkpt lat="44.836013842440494" lon="8.828706343639901"><ele>142.0</ele><time>2026-04-28T10:00:03Z</time></trkpt><trkpt lat="44.836269196818" lon="8.82872112193643"><ele>142.0</ele><time>2026-04-28T10:00:04Z</time></trkpt><trkpt lat="44.836524991559095" lon="8.828735726032024"><ele>142.0</ele><time>2026-04-28T10:00:05Z</time></trkpt><trkpt lat="44.836785090100655" lon="8.828749950327147"><ele>141.5</ele><time>2026-04-28T10:00:06Z</time></trkpt><trkpt lat="44.8370511538669" lon="8.828763916725954"><ele>141.0</ele><time>2026-04-28T10:00:07Z</time></trkpt><trkpt lat="44.83730530551861" lon="8.828774392288475"><ele>141.0</ele><time>2026-04-28T10:00:08Z</time></trkpt><trkpt lat="44.83757125230745" lon="8.828789288739232"><ele>141.0</ele><time>2026-04-28T10:00:09Z</time></trkpt><trkpt lat="44.837828171910665" lon="8.828809791712239"><ele>142.0</ele><time>2026-04-28T10:00:10Z</time></trkpt><trkpt lat="44.83808986227274" lon="8.82882387862626"><ele>143.0</ele><time>2026-04-28T10:00:11Z</time></trkpt><trkpt lat="44.838346532886874" lon="8.828837751425324"><ele>141.5</ele><time>2026-04-28T10:00:12Z</time></trkpt><trkpt lat="44.83861787623509" lon="8.828847066158804"><ele>140.0</ele><time>2026-04-28T10:00:13Z</time></trkpt><trkpt lat="44.83887238286856" lon="8.82885979201407"><ele>140.0</ele><time>2026-04-28T10:00:14Z</time></trkpt><trkpt lat="44.83913406117132" lon="8.828871759873689"><ele>140.0</ele><time>2026-04-28T10:00:15Z</time></trkpt><trkpt lat="44.83938923659412" lon="8.828884757211451"><ele>139.5</ele><time>2026-04-28T10:00:16Z</time></trkpt><trkpt lat="44.83965023420646" lon="8.828895112221517"><ele>139.0</ele><time>2026-04-28T10:00:17Z</time></trkpt><trkpt lat="44.83990807262658" lon="8.82890698418591"><ele>139.5</ele><time>2026-04-28T10:00:18Z</time></trkpt><trkpt lat="44.8401655264113" lon="8.828919470669158"><ele>140.0</ele><time>2026-04-28T10:00:19Z</time></trkpt><trkpt lat="44.840426794300534" lon="8.828934834953008"><ele>140.0</ele><time>2026-04-28T10:00:20Z</time></trkpt><trkpt lat="44.84068693937167" lon="8.828951756364624"><ele>140.0</ele><time>2026-04-28T10:00:21Z</time></trkpt><trkpt lat="44.8409470703267" lon="8.828965352854675"><ele>140.0</ele><time>2026-04-28T10:00:22Z</time></trkpt><trkpt lat="44.841205895190285" lon="8.828983452900443"><ele>140.0</ele><time>2026-04-28T10:00:23Z</time></trkpt><trkpt lat="44.84146358109849" lon="8.82900310717183"><ele>140.0</ele><time>2026-04-28T10:00:24Z</time></trkpt><trkpt lat="44.84171417114807" lon="8.829019670946652"><ele>140.0</ele><time>2026-04-28T10:00:25Z</time></trkpt><trkpt lat="44.84197270243541" lon="8.829032425959962"><ele>139.5</ele><time>2026-04-28T10:00:26Z</time></trkpt><trkpt lat="44.84222672415773" lon="8.829042081170863"><ele>139.0</ele><time>2026-04-28T10:00:27Z</time></trkpt><trkpt lat="44.842483096016196" lon="8.829060242362265"><ele>138.5</ele><time>2026-04-28T10:00:28Z</time></trkpt><trkpt lat="44.84273049597252" lon="8.829079784841042"><ele>138.0</ele><time>2026-04-28T10:00:29Z</time></trkpt><trkpt lat="44.842978278139896" lon="8.82909625935103"><ele>138.0</ele><time>2026-04-28T10:00:30Z</time></trkpt><trkpt lat="44.84322921589758" lon="8.829108446420868"><ele>138.0</ele><time>2026-04-28T10:00:31Z</time></trkpt><trkpt lat="44.843477508857276" lon="8.82912246937495"><ele>138.0</ele><time>2026-04-28T10:00:32Z</time></trkpt><trkpt lat="44.84372391596195" lon="8.829141457279885"><ele>138.0</ele><time>2026-04-28T10:00:33Z</time></trkpt><trkpt lat="44.843974825386546" lon="8.829159508886706"><ele>138.0</ele><time>2026-04-28T10:00:34Z</time></trkpt><trkpt lat="44.844227500623546" lon="8.829174733305189"><ele>138.0</ele><time>2026-04-28T10:00:35Z</time></trkpt><trkpt lat="44.84447357592124" lon="8.829189990173752"><ele>138.0</ele><time>2026-04-28T10:00:36Z</time></trkpt><trkpt lat="44.844727900853854" lon="8.829205240774451"><ele>138.0</ele><time>2026-04-28T10:00:37Z</time></trkpt><trkpt lat="44.84497625287591" lon="8.82921959422404"><ele>138.0</ele><time>2026-04-28T10:00:38Z</time></trkpt><trkpt lat="44.84522614180018" lon="8.829232577421173"><ele>138.0</ele><time>2026-04-28T10:00:39Z</time></trkpt><trkpt lat="44.8454778956181" lon="8.829248829135892"><ele>138.0</ele><time>2026-04-28T10:00:39.999Z</time></trkpt><trkpt lat="44.845723943633956" lon="8.8292627822895"><ele>138.0</ele><time>2026-04-28T10:00:40.999Z</time></trkpt><trkpt lat="44.84597257903221" lon="8.829275572865011"><ele>137.0</ele><time>2026-04-28T10:00:41.999Z</time></trkpt><trkpt lat="44.84622468345485" lon="8.82928952007657"><ele>136.0</ele><time>2026-04-28T10:00:42.999Z</time></trkpt><trkpt lat="44.84648195363211" lon="8.829301582110329"><ele>136.0</ele><time>2026-04-28T10:00:43.999Z</time></trkpt><trkpt lat="44.84674420993358" lon="8.829314485077893"><ele>136.0</ele><time>2026-04-28T10:00:44.999Z</time></trkpt><trkpt lat="44.847002239358915" lon="8.829327822040279"><ele>136.0</ele><time>2026-04-28T10:00:45.999Z</time></trkpt><trkpt lat="44.84725759285387" lon="8.82934108160009"><ele>136.0</ele><time>2026-04-28T10:00:46.999Z</time></trkpt><trkpt lat="44.84751516277974" lon="8.829358912924945"><ele>136.0</ele><time>2026-04-28T10:00:47.999Z</time></trkpt><trkpt lat="44.847771813890205" lon="8.829373508551164"><ele>136.0</ele><time>2026-04-28T10:00:48.999Z</time></trkpt><trkpt lat="44.84803106756205" lon="8.829387952793565"><ele>136.0</ele><time>2026-04-28T10:00:49.999Z</time></trkpt><trkpt lat="44.84829190064579" lon="8.82940339794027"><ele>136.0</ele><time>2026-04-28T10:00:50.999Z</time></trkpt><trkpt lat="44.84854995224312" lon="8.829416934134034"><ele>135.5</ele><time>2026-04-28T10:00:51.999Z</time></trkpt><trkpt lat="44.848811055734345" lon="8.829427701127349"><ele>135.0</ele><time>2026-04-28T10:00:52.999Z</time></trkpt><trkpt lat="44.84907636864016" lon="8.829440269135953"><ele>135.0</ele><time>2026-04-28T10:00:53.999Z</time></trkpt><trkpt lat="44.84933871549754" lon="8.829458420695428"><ele>135.0</ele><time>2026-04-28T10:00:54.999Z</time></trkpt><trkpt lat="44.84960620997451" lon="8.829472964380297"><ele>135.0</ele><time>2026-04-28T10:00:55.999Z</time></trkpt><trkpt lat="44.849866133333855" lon="8.829491864377385"><ele>135.0</ele><time>2026-04-28T10:00:56.999Z</time></trkpt><trkpt lat="44.85012378373309" lon="8.82952245871607"><ele>135.5</ele><time>2026-04-28T10:00:57.999Z</time></trkpt><trkpt lat="44.850377568324596" lon="8.829544820463177"><ele>136.0</ele><time>2026-04-28T10:00:58.999Z</time></trkpt><trkpt lat="44.85063714357391" lon="8.829550218262696"><ele>136.0</ele><time>2026-04-28T10:00:59.999Z</time></trkpt><trkpt lat="44.85089786207166" lon="8.829559367842203"><ele>136.0</ele><time>2026-04-28T10:01:00.999Z</time></trkpt><trkpt lat="44.851159635949344" lon="8.829566815167347"><ele>135.0</ele><time>2026-04-28T10:01:01.999Z</time></trkpt><trkpt lat="44.85142518071122" lon="8.829573760236896"><ele>134.0</ele><time>2026-04-28T10:01:02.999Z</time></trkpt><trkpt lat="44.85169561248682" lon="8.829582104219993"><ele>134.0</ele><time>2026-04-28T10:01:03.999Z</time></trkpt><trkpt lat="44.851982923021225" lon="8.829591132339848"><ele>134.0</ele><time>2026-04-28T10:01:04.999Z</time></trkpt><trkpt lat="44.85229273877823" lon="8.829602758935135"><ele>134.0</ele><time>2026-04-28T10:01:05.999Z</time></trkpt><trkpt lat="44.852618363819744" lon="8.829613635618738"><ele>134.0</ele><time>2026-04-28T10:01:06.999Z</time></trkpt><trkpt lat="44.85293124316837" lon="8.829624139707986"><ele>134.0</ele><time>2026-04-28T10:01:07.999Z</time></trkpt><trkpt lat="44.85323678486773" lon="8.829638638080064"><ele>134.0</ele><time>2026-04-28T10:01:08.999Z</time></trkpt><trkpt lat="44.85354014439592" lon="8.829652470160534"><ele>134.0</ele><time>2026-04-28T10:01:09.999Z</time></trkpt><trkpt lat="44.85383676641288" lon="8.829670438587208"><ele>134.0</ele><time>2026-04-28T10:01:10.999Z</time></trkpt><trkpt lat="44.85413871900491" lon="8.829686589490306"><ele>133.0</ele><time>2026-04-28T10:01:11.999Z</time></trkpt><trkpt lat="44.85444069043957" lon="8.829701774067926"><ele>132.0</ele><time>2026-04-28T10:01:12.999Z</time></trkpt><trkpt lat="44.85475006507337" lon="8.82972198253045"><ele>132.0</ele><time>2026-04-28T10:01:13.999Z</time></trkpt><trkpt lat="44.85506298396738" lon="8.829753993419889"><ele>132.0</ele><time>2026-04-28T10:01:14.999Z</time></trkpt><trkpt lat="44.85538338166916" lon="8.82978491927052"><ele>131.5</ele><time>2026-04-28T10:01:15.999Z</time></trkpt><trkpt lat="44.85570567473075" lon="8.829816048539294"><ele>131.0</ele><time>2026-04-28T10:01:16.999Z</time></trkpt><trkpt lat="44.85605849144603" lon="8.829838491124695"><ele>130.0</ele><time>2026-04-28T10:01:17.999Z</time></trkpt><trkpt lat="44.85642151263864" lon="8.829853534464897"><ele>129.0</ele><time>2026-04-28T10:01:18.999Z</time></trkpt><trkpt lat="44.85674980403612" lon="8.829865607817029"><ele>129.5</ele><time>2026-04-28T10:01:19.999Z</time></trkpt><trkpt lat="44.85706207499977" lon="8.829883878580706"><ele>130.0</ele><time>2026-04-28T10:01:20.999Z</time></trkpt><trkpt lat="44.85737811894053" lon="8.82990134929747"><ele>129.5</ele><time>2026-04-28T10:01:21.999Z</time></trkpt><trkpt lat="44.85768787988114" lon="8.829916364505992"><ele>129.0</ele><time>2026-04-28T10:01:22.999Z</time></trkpt><trkpt lat="44.857994812626316" lon="8.829931720789917"><ele>129.0</ele><time>2026-04-28T10:01:23.999Z</time></trkpt><trkpt lat="44.858284691920105" lon="8.829949584560305"><ele>129.0</ele><time>2026-04-28T10:01:24.999Z</time></trkpt><trkpt lat="44.85856243621725" lon="8.82996652930934"><ele>128.5</ele><time>2026-04-28T10:01:25.999Z</time></trkpt><trkpt lat="44.85883586751249" lon="8.8299828860242"><ele>128.0</ele><time>2026-04-28T10:01:26.999Z</time></trkpt><trkpt lat="44.85911080520701" lon="8.829994881519724"><ele>128.5</ele><time>2026-04-28T10:01:27.999Z</time></trkpt><trkpt lat="44.85938935632118" lon="8.83001030780214"><ele>129.0</ele><time>2026-04-28T10:01:28.999Z</time></trkpt><trkpt lat="44.85967450026489" lon="8.830026275067496"><ele>129.0</ele><time>2026-04-28T10:01:29.999Z</time></trkpt><trkpt lat="44.85995783579715" lon="8.830041863206631"><ele>129.0</ele><time>2026-04-28T10:01:30.999Z</time></trkpt><trkpt lat="44.860246913226725" lon="8.830055079779832"><ele>129.0</ele><time>2026-04-28T10:01:31.999Z</time></trkpt><trkpt lat="44.86053422473775" lon="8.83006884697428"><ele>129.0</ele><time>2026-04-28T10:01:32.999Z</time></trkpt><trkpt lat="44.86082481253312" lon="8.830081347509378"><ele>128.0</ele><time>2026-04-28T10:01:33.999Z</time></trkpt><trkpt lat="44.86111260478062" lon="8.83009537214714"><ele>127.0</ele><time>2026-04-28T10:01:34.999Z</time></trkpt><trkpt lat="44.86140457693297" lon="8.830106271064405"><ele>127.0</ele><time>2026-04-28T10:01:35.999Z</time></trkpt><trkpt lat="44.86169623281562" lon="8.830116465181241"><ele>127.0</ele><time>2026-04-28T10:01:36.999Z</time></trkpt><trkpt lat="44.861986107252015" lon="8.830127585897008"><ele>128.5</ele><time>2026-04-28T10:01:37.999Z</time></trkpt><trkpt lat="44.86227926195964" lon="8.83014183662612"><ele>130.0</ele><time>2026-04-28T10:01:38.999Z</time></trkpt><trkpt lat="44.862567049876475" lon="8.830154309410629"><ele>130.5</ele><time>2026-04-28T10:01:39.999Z</time></trkpt><trkpt lat="44.86285653690533" lon="8.830169032443713"><ele>131.0</ele><time>2026-04-28T10:01:40.999Z</time></trkpt><trkpt lat="44.863140747312215" lon="8.830185795966054"><ele>131.0</ele><time>2026-04-28T10:01:41.999Z</time></trkpt><trkpt lat="44.86342951169524" lon="8.830197734274904"><ele>131.0</ele><time>2026-04-28T10:01:42.999Z</time></trkpt><trkpt lat="44.86371580901711" lon="8.830212882553317"><ele>129.5</ele><time>2026-04-28T10:01:43.999Z</time></trkpt><trkpt lat="44.86400338798232" lon="8.830228676100832"><ele>128.0</ele><time>2026-04-28T10:01:44.999Z</time></trkpt><trkpt lat="44.864290230496366" lon="8.830244704449814"><ele>127.5</ele><time>2026-04-28T10:01:45.999Z</time></trkpt><trkpt lat="44.864573570974976" lon="8.830265101824118"><ele>127.0</ele><time>2026-04-28T10:01:46.999Z</time></trkpt><trkpt lat="44.86485299078847" lon="8.83030241036664"><ele>127.0</ele><time>2026-04-28T10:01:47.999Z</time></trkpt><trkpt lat="44.865140275786786" lon="8.830349761172624"><ele>127.0</ele><time>2026-04-28T10:01:49Z</time></trkpt><trkpt lat="44.86542465285749" lon="8.830399170244682"><ele>127.0</ele><time>2026-04-28T10:01:50Z</time></trkpt><trkpt lat="44.865710705310704" lon="8.830456100103369"><ele>127.0</ele><time>2026-04-28T10:01:51Z</time></trkpt><trkpt lat="44.86599847258844" lon="8.830518275263248"><ele>126.0</ele><time>2026-04-28T10:01:52Z</time></trkpt><trkpt lat="44.86628915562097" lon="8.830583124392657"><ele>125.0</ele><time>2026-04-28T10:01:53Z</time></trkpt><trkpt lat="44.86657987363008" lon="8.830654707226234"><ele>124.5</ele><time>2026-04-28T10:01:54Z</time></trkpt><trkpt lat="44.86687208691293" lon="8.83073479780062"><ele>124.0</ele><time>2026-04-28T10:01:55Z</time></trkpt><trkpt lat="44.86716547986227" lon="8.830821794364407"><ele>124.0</ele><time>2026-04-28T10:01:56Z</time></trkpt><trkpt lat="44.86745785306872" lon="8.830917801214314"><ele>124.0</ele><time>2026-04-28T10:01:57Z</time></trkpt><trkpt lat="44.86774947836102" lon="8.831022997489985"><ele>125.0</ele><time>2026-04-28T10:01:58Z</time></trkpt><trkpt lat="44.86804657189535" lon="8.83113413051518"><ele>126.0</ele><time>2026-04-28T10:01:59Z</time></trkpt><trkpt lat="44.86834339554382" lon="8.831247428396026"><ele>126.0</ele><time>2026-04-28T10:02:00Z</time></trkpt><trkpt lat="44.86862306649376" lon="8.831378191566383"><ele>126.0</ele><time>2026-04-28T10:02:01Z</time></trkpt><trkpt lat="44.868911701694664" lon="8.831510566009017"><ele>126.0</ele><time>2026-04-28T10:02:02Z</time></trkpt><trkpt lat="44.86920003071291" lon="8.831650155265178"><ele>126.0</ele><time>2026-04-28T10:02:03Z</time></trkpt><trkpt lat="44.86948182846746" lon="8.831790859184133"><ele>125.0</ele><time>2026-04-28T10:02:04Z</time></trkpt><trkpt lat="44.86976824843273" lon="8.83190853728175"><ele>124.0</ele><time>2026-04-28T10:02:05Z</time></trkpt><trkpt lat="44.87003392302782" lon="8.832026849524569"><ele>123.5</ele><time>2026-04-28T10:02:06Z</time></trkpt><trkpt lat="44.87029721653274" lon="8.832136534849234"><ele>123.0</ele><time>2026-04-28T10:02:07Z</time></trkpt><trkpt lat="44.87055803132443" lon="8.832246145462125"><ele>123.0</ele><time>2026-04-28T10:02:08Z</time></trkpt><trkpt lat="44.87081157835823" lon="8.832355556391358"><ele>123.0</ele><time>2026-04-28T10:02:09Z</time></trkpt><trkpt lat="44.87106439202819" lon="8.832463998999524"><ele>123.0</ele><time>2026-04-28T10:02:10Z</time></trkpt><trkpt lat="44.87131297406006" lon="8.832577585043339"><ele>123.0</ele><time>2026-04-28T10:02:11Z</time></trkpt><trkpt lat="44.87155701717666" lon="8.832689655078873"><ele>123.5</ele><time>2026-04-28T10:02:12Z</time></trkpt><trkpt lat="44.87181351010065" lon="8.832794424753377"><ele>124.0</ele><time>2026-04-28T10:02:13Z</time></trkpt><trkpt lat="44.872068650821454" lon="8.83290911034486"><ele>124.0</ele><time>2026-04-28T10:02:14Z</time></trkpt><trkpt lat="44.87232734671673" lon="8.833024865685871"><ele>124.0</ele><time>2026-04-28T10:02:15Z</time></trkpt><trkpt lat="44.87258231648304" lon="8.833135083749243"><ele>124.0</ele><time>2026-04-28T10:02:16Z</time></trkpt><trkpt lat="44.87282955968902" lon="8.83324517602242"><ele>124.0</ele><time>2026-04-28T10:02:17Z</time></trkpt><trkpt lat="44.873071062262234" lon="8.833347951112254"><ele>124.0</ele><time>2026-04-28T10:02:18Z</time></trkpt><trkpt lat="44.873309394928555" lon="8.833456069370621"><ele>124.0</ele><time>2026-04-28T10:02:19Z</time></trkpt><trkpt lat="44.873549828261474" lon="8.833558313332034"><ele>124.5</ele><time>2026-04-28T10:02:20Z</time></trkpt><trkpt lat="44.873788172089846" lon="8.833659457765114"><ele>125.0</ele><time>2026-04-28T10:02:21Z</time></trkpt><trkpt lat="44.874030975157005" lon="8.833764548591246"><ele>124.5</ele><time>2026-04-28T10:02:22Z</time></trkpt><trkpt lat="44.87427564185423" lon="8.833872091610834"><ele>124.0</ele><time>2026-04-28T10:02:23Z</time></trkpt><trkpt lat="44.874518320272664" lon="8.833984464992099"><ele>124.0</ele><time>2026-04-28T10:02:24Z</time></trkpt><trkpt lat="44.874762700453466" lon="8.834093162272577"><ele>124.0</ele><time>2026-04-28T10:02:25Z</time></trkpt><trkpt lat="44.87500729683828" lon="8.834194732852685"><ele>124.5</ele><time>2026-04-28T10:02:26Z</time></trkpt><trkpt lat="44.87525515216834" lon="8.834296616002561"><ele>125.0</ele><time>2026-04-28T10:02:27Z</time></trkpt><trkpt lat="44.87550018567806" lon="8.834398552509581"><ele>125.0</ele><time>2026-04-28T10:02:28Z</time></trkpt><trkpt lat="44.87574281627754" lon="8.834503171231292"><ele>125.0</ele><time>2026-04-28T10:02:29Z</time></trkpt><trkpt lat="44.875986958189515" lon="8.834609129725907"><ele>123.5</ele><time>2026-04-28T10:02:30Z</time></trkpt><trkpt lat="44.876225464128765" lon="8.834716923333406"><ele>122.0</ele><time>2026-04-28T10:02:31Z</time></trkpt><trkpt lat="44.87646962711904" lon="8.834824942969737"><ele>122.0</ele><time>2026-04-28T10:02:32Z</time></trkpt><trkpt lat="44.87671818989406" lon="8.834932609680925"><ele>122.0</ele><time>2026-04-28T10:02:33Z</time></trkpt><trkpt lat="44.876960544855315" lon="8.835039483726694"><ele>122.5</ele><time>2026-04-28T10:02:34Z</time></trkpt><trkpt lat="44.87719993796258" lon="8.835146568813416"><ele>123.0</ele><time>2026-04-28T10:02:35Z</time></trkpt><trkpt lat="44.877443579810524" lon="8.8352532061877"><ele>123.0</ele><time>2026-04-28T10:02:36Z</time></trkpt><trkpt lat="44.8776890065964" lon="8.83535970139248"><ele>123.0</ele><time>2026-04-28T10:02:37Z</time></trkpt><trkpt lat="44.87793265476178" lon="8.83546810183398"><ele>123.0</ele><time>2026-04-28T10:02:38Z</time></trkpt><trkpt lat="44.87816466314169" lon="8.83557910332449"><ele>123.0</ele><time>2026-04-28T10:02:39Z</time></trkpt><trkpt lat="44.87838703637764" lon="8.835688695903496"><ele>123.5</ele><time>2026-04-28T10:02:40Z</time></trkpt><trkpt lat="44.87861388448911" lon="8.835794723569778"><ele>124.0</ele><time>2026-04-28T10:02:41Z</time></trkpt><trkpt lat="44.878853806863596" lon="8.835901120464174"><ele>123.5</ele><time>2026-04-28T10:02:42Z</time></trkpt><trkpt lat="44.87910847110727" lon="8.836007245816068"><ele>123.0</ele><time>2026-04-28T10:02:43Z</time></trkpt><trkpt lat="44.87938054416629" lon="8.836118921501553"><ele>123.0</ele><time>2026-04-28T10:02:43.999Z</time></trkpt><trkpt lat="44.87967126616137" lon="8.836247732540318"><ele>123.0</ele><time>2026-04-28T10:02:44.999Z</time></trkpt><trkpt lat="44.87996721409299" lon="8.836393207465198"><ele>122.0</ele><time>2026-04-28T10:02:45.999Z</time></trkpt><trkpt lat="44.88025879728215" lon="8.836533565330814"><ele>121.0</ele><time>2026-04-28T10:02:46.999Z</time></trkpt><trkpt lat="44.88053574192621" lon="8.836677835013408"><ele>120.0</ele><time>2026-04-28T10:02:47.999Z</time></trkpt><trkpt lat="44.88080095893384" lon="8.836808907509624"><ele>119.0</ele><time>2026-04-28T10:02:48.999Z</time></trkpt><trkpt lat="44.881069712561434" lon="8.836935573292495"><ele>118.5</ele><time>2026-04-28T10:02:49.999Z</time></trkpt><trkpt lat="44.88134194598616" lon="8.837057436938013"><ele>118.0</ele><time>2026-04-28T10:02:50.999Z</time></trkpt><trkpt lat="44.88162022733768" lon="8.837178917685796"><ele>119.0</ele><time>2026-04-28T10:02:51.999Z</time></trkpt><trkpt lat="44.881902210804945" lon="8.837303263413393"><ele>120.0</ele><time>2026-04-28T10:02:52.999Z</time></trkpt><trkpt lat="44.88218458876151" lon="8.8374352300401"><ele>120.0</ele><time>2026-04-28T10:02:53.999Z</time></trkpt><trkpt lat="44.882467245860234" lon="8.837565880111736"><ele>120.0</ele><time>2026-04-28T10:02:54.999Z</time></trkpt><trkpt lat="44.88273615853681" lon="8.837695435859963"><ele>120.0</ele><time>2026-04-28T10:02:55.999Z</time></trkpt><trkpt lat="44.882999664420424" lon="8.837820862748218"><ele>120.0</ele><time>2026-04-28T10:02:56.999Z</time></trkpt><trkpt lat="44.88326492645293" lon="8.83794596574281"><ele>118.5</ele><time>2026-04-28T10:02:57.999Z</time></trkpt><trkpt lat="44.883541927107636" lon="8.83808393339576"><ele>117.0</ele><time>2026-04-28T10:02:58.999Z</time></trkpt><trkpt lat="44.88383949676691" lon="8.838230009785654"><ele>117.0</ele><time>2026-04-28T10:02:59.999Z</time></trkpt><trkpt lat="44.884143792807116" lon="8.838385765386338"><ele>117.0</ele><time>2026-04-28T10:03:00.999Z</time></trkpt><trkpt lat="44.88442251919" lon="8.838527256256556"><ele>118.5</ele><time>2026-04-28T10:03:01.999Z</time></trkpt><trkpt lat="44.88468186580736" lon="8.838656466888457"><ele>120.0</ele><time>2026-04-28T10:03:02.999Z</time></trkpt><trkpt lat="44.884936395648495" lon="8.838774588864963"><ele>119.5</ele><time>2026-04-28T10:03:03.999Z</time></trkpt><trkpt lat="44.88517413977511" lon="8.838887966436786"><ele>119.0</ele><time>2026-04-28T10:03:04.999Z</time></trkpt><trkpt lat="44.88541582146317" lon="8.838996501329733"><ele>119.0</ele><time>2026-04-28T10:03:05.999Z</time></trkpt><trkpt lat="44.88565544621104" lon="8.83910984268239"><ele>119.0</ele><time>2026-04-28T10:03:06.999Z</time></trkpt><trkpt lat="44.885894981184926" lon="8.839229605591008"><ele>118.0</ele><time>2026-04-28T10:03:07.999Z</time></trkpt><trkpt lat="44.88613641090792" lon="8.83934585741306"><ele>117.0</ele><time>2026-04-28T10:03:08.999Z</time></trkpt><trkpt lat="44.88638185517203" lon="8.839454882378133"><ele>117.0</ele><time>2026-04-28T10:03:09.999Z</time></trkpt><trkpt lat="44.88662485091914" lon="8.839566763302626"><ele>117.0</ele><time>2026-04-28T10:03:10.999Z</time></trkpt><trkpt lat="44.88686239309412" lon="8.83968194152026"><ele>117.0</ele><time>2026-04-28T10:03:11.999Z</time></trkpt><trkpt lat="44.88710155609981" lon="8.839796629459235"><ele>117.0</ele><time>2026-04-28T10:03:12.999Z</time></trkpt><trkpt lat="44.88733840414557" lon="8.839909708201311"><ele>117.0</ele><time>2026-04-28T10:03:13.999Z</time></trkpt><trkpt lat="44.88756745950085" lon="8.840026114658068"><ele>117.0</ele><time>2026-04-28T10:03:14.999Z</time></trkpt><trkpt lat="44.88780078261148" lon="8.840137199508591"><ele>117.0</ele><time>2026-04-28T10:03:15.999Z</time></trkpt><trkpt lat="44.888040298173685" lon="8.840247397800375"><ele>117.0</ele><time>2026-04-28T10:03:16.999Z</time></trkpt><trkpt lat="44.88828280055186" lon="8.840357876663148"><ele>117.0</ele><time>2026-04-28T10:03:17.999Z</time></trkpt><trkpt lat="44.8885322759525" lon="8.840466579746714"><ele>117.0</ele><time>2026-04-28T10:03:18.999Z</time></trkpt><trkpt lat="44.88879354725194" lon="8.840575810891966"><ele>117.0</ele><time>2026-04-28T10:03:19.999Z</time></trkpt><trkpt lat="44.88905640425687" lon="8.840675419601013"><ele>117.0</ele><time>2026-04-28T10:03:20.999Z</time></trkpt><trkpt lat="44.889305256077364" lon="8.840766298916579"><ele>117.5</ele><time>2026-04-28T10:03:21.999Z</time></trkpt><trkpt lat="44.88954711933073" lon="8.840852096927708"><ele>118.0</ele><time>2026-04-28T10:03:22.999Z</time></trkpt><trkpt lat="44.889783127419264" lon="8.840938349623388"><ele>118.0</ele><time>2026-04-28T10:03:23.999Z</time></trkpt><trkpt lat="44.89001724125616" lon="8.841023805123244"><ele>118.0</ele><time>2026-04-28T10:03:24.999Z</time></trkpt><trkpt lat="44.89025695586401" lon="8.841104817364759"><ele>117.5</ele><time>2026-04-28T10:03:25.999Z</time></trkpt><trkpt lat="44.8905001143579" lon="8.841187201134307"><ele>117.0</ele><time>2026-04-28T10:03:26.999Z</time></trkpt><trkpt lat="44.890750762934886" lon="8.841264906301582"><ele>116.0</ele><time>2026-04-28T10:03:27.999Z</time></trkpt><trkpt lat="44.89098881690888" lon="8.841336104960142"><ele>115.0</ele><time>2026-04-28T10:03:28.999Z</time></trkpt><trkpt lat="44.891215461542316" lon="8.84139592373247"><ele>115.0</ele><time>2026-04-28T10:03:29.999Z</time></trkpt><trkpt lat="44.89143329371497" lon="8.841457324643677"><ele>115.0</ele><time>2026-04-28T10:03:30.999Z</time></trkpt><trkpt lat="44.89166430358283" lon="8.841515346794905"><ele>115.33333333333334</ele><time>2026-04-28T10:03:31.999Z</time></trkpt><trkpt lat="44.89187991162614" lon="8.841569339622446"><ele>115.66666666666666</ele><time>2026-04-28T10:03:32.999Z</time></trkpt><trkpt lat="44.89208957192392" lon="8.84162117609458"><ele>116.0</ele><time>2026-04-28T10:03:33.999Z</time></trkpt><trkpt lat="44.89229100506809" lon="8.841672768492534"><ele>116.0</ele><time>2026-04-28T10:03:34.999Z</time></trkpt><trkpt lat="44.89248959314583" lon="8.841717789793906"><ele>116.0</ele><time>2026-04-28T10:03:35.999Z</time></trkpt><trkpt lat="44.892686695745134" lon="8.84175638511391"><ele>116.0</ele><time>2026-04-28T10:03:36.999Z</time></trkpt><trkpt lat="44.89289174819944" lon="8.841793317586157"><ele>116.66666666666666</ele><time>2026-04-28T10:03:37.999Z</time></trkpt><trkpt lat="44.89310538015813" lon="8.841836750548902"><ele>117.33333333333334</ele><time>2026-04-28T10:03:38.999Z</time></trkpt><trkpt lat="44.89330065878172" lon="8.841877772472362"><ele>118.0</ele><time>2026-04-28T10:03:39.999Z</time></trkpt><trkpt lat="44.89348942209063" lon="8.841909839500993"><ele>118.0</ele><time>2026-04-28T10:03:40.999Z</time></trkpt><trkpt lat="44.89369226636077" lon="8.841939470175536"><ele>118.0</ele><time>2026-04-28T10:03:41.999Z</time></trkpt><trkpt lat="44.893873723167374" lon="8.841970736852746"><ele>118.0</ele><time>2026-04-28T10:03:42.999Z</time></trkpt><trkpt lat="44.89404877965698" lon="8.842002243170002"><ele>118.0</ele><time>2026-04-28T10:03:43.999Z</time></trkpt><trkpt lat="44.89423614442924" lon="8.842032830251867"><ele>118.0</ele><time>2026-04-28T10:03:44.999Z</time></trkpt><trkpt lat="44.89442653864417" lon="8.842065121945982"><ele>118.0</ele><time>2026-04-28T10:03:45.999Z</time></trkpt><trkpt lat="44.89461727509908" lon="8.842101371926377"><ele>117.66666666666667</ele><time>2026-04-28T10:03:46.999Z</time></trkpt><trkpt lat="44.89481349291663" lon="8.842139776735408"><ele>117.33333333333334</ele><time>2026-04-28T10:03:47.999Z</time></trkpt><trkpt lat="44.895019119129906" lon="8.842165519908143"><ele>117.0</ele><time>2026-04-28T10:03:48.999Z</time></trkpt><trkpt lat="44.89522809583637" lon="8.842196136467233"><ele>117.0</ele><time>2026-04-28T10:03:49.999Z</time></trkpt><trkpt lat="44.895445907234595" lon="8.842235757507176"><ele>117.0</ele><time>2026-04-28T10:03:50.999Z</time></trkpt><trkpt lat="44.89566564852665" lon="8.842270675995243"><ele>117.0</ele><time>2026-04-28T10:03:51.999Z</time></trkpt><trkpt lat="44.89587821335546" lon="8.842302843913387"><ele>116.0</ele><time>2026-04-28T10:03:52.999Z</time></trkpt><trkpt lat="44.896093913441845" lon="8.842338747564535"><ele>115.0</ele><time>2026-04-28T10:03:53.999Z</time></trkpt><trkpt lat="44.8963136037061" lon="8.84237358283559"><ele>114.0</ele><time>2026-04-28T10:03:55Z</time></trkpt><trkpt lat="44.89653455226491" lon="8.842409303012662"><ele>114.66666666666666</ele><time>2026-04-28T10:03:56Z</time></trkpt><trkpt lat="44.89675445882127" lon="8.842446328136177"><ele>115.33333333333333</ele><time>2026-04-28T10:03:57Z</time></trkpt><trkpt lat="44.896976186973426" lon="8.842487082145684"><ele>116.0</ele><time>2026-04-28T10:03:58Z</time></trkpt><trkpt lat="44.89717834699647" lon="8.842526640262943"><ele>116.0</ele><time>2026-04-28T10:03:59Z</time></trkpt><trkpt lat="44.89737112053017" lon="8.842559419686198"><ele>116.0</ele><time>2026-04-28T10:04:00Z</time></trkpt><trkpt lat="44.897579458799825" lon="8.842597781593563"><ele>116.0</ele><time>2026-04-28T10:04:01Z</time></trkpt><trkpt lat="44.89779600327765" lon="8.842632356002152"><ele>115.0</ele><time>2026-04-28T10:04:02Z</time></trkpt><trkpt lat="44.898014696946476" lon="8.842667610571157"><ele>114.0</ele><time>2026-04-28T10:04:03Z</time></trkpt><trkpt lat="44.89824232915163" lon="8.84270375540912"><ele>113.0</ele><time>2026-04-28T10:04:04Z</time></trkpt><trkpt lat="44.898477145559" lon="8.842743448463155"><ele>112.33333333333333</ele><time>2026-04-28T10:04:05Z</time></trkpt><trkpt lat="44.89869320293165" lon="8.842777222869795"><ele>111.66666666666666</ele><time>2026-04-28T10:04:06Z</time></trkpt><trkpt lat="44.89890535163645" lon="8.842813265143272"><ele>111.0</ele><time>2026-04-28T10:04:07Z</time></trkpt><trkpt lat="44.899121539129624" lon="8.842847929165313"><ele>111.66666666666666</ele><time>2026-04-28T10:04:08Z</time></trkpt><trkpt lat="44.89934270600484" lon="8.842880883964506"><ele>112.33333333333333</ele><time>2026-04-28T10:04:09Z</time></trkpt><trkpt lat="44.89956714161221" lon="8.842912918196854"><ele>113.0</ele><time>2026-04-28T10:04:10Z</time></trkpt><trkpt lat="44.89979284176648" lon="8.842943772545269"><ele>113.0</ele><time>2026-04-28T10:04:11Z</time></trkpt><trkpt lat="44.900017816866615" lon="8.842980546331527"><ele>113.0</ele><time>2026-04-28T10:04:12Z</time></trkpt><trkpt lat="44.900240108015836" lon="8.84301419510113"><ele>112.0</ele><time>2026-04-28T10:04:13Z</time></trkpt><trkpt lat="44.900454036442234" lon="8.843048453728667"><ele>111.0</ele><time>2026-04-28T10:04:14Z</time></trkpt><trkpt lat="44.90065831809993" lon="8.843080716064838"><ele>110.0</ele><time>2026-04-28T10:04:15Z</time></trkpt><trkpt lat="44.90086451671775" lon="8.843108916883494"><ele>110.0</ele><time>2026-04-28T10:04:16Z</time></trkpt><trkpt lat="44.90107634632142" lon="8.843135927070614"><ele>110.0</ele><time>2026-04-28T10:04:17Z</time></trkpt><trkpt lat="44.90128254831657" lon="8.843159219241414"><ele>110.0</ele><time>2026-04-28T10:04:18Z</time></trkpt><trkpt lat="44.90149532339698" lon="8.843185235082151"><ele>110.0</ele><time>2026-04-28T10:04:19Z</time></trkpt><trkpt lat="44.90171607191192" lon="8.84321220421913"><ele>110.0</ele><time>2026-04-28T10:04:20Z</time></trkpt><trkpt lat="44.901934802053034" lon="8.843232464322922"><ele>110.0</ele><time>2026-04-28T10:04:21Z</time></trkpt><trkpt lat="44.90215648750887" lon="8.843254264577636"><ele>109.66666666666666</ele><time>2026-04-28T10:04:22Z</time></trkpt><trkpt lat="44.90237642360755" lon="8.843277567881522"><ele>109.33333333333334</ele><time>2026-04-28T10:04:23Z</time></trkpt><trkpt lat="44.902599808853495" lon="8.843298934366535"><ele>109.0</ele><time>2026-04-28T10:04:24Z</time></trkpt><trkpt lat="44.90281334005544" lon="8.84331555773648"><ele>109.0</ele><time>2026-04-28T10:04:25Z</time></trkpt><trkpt lat="44.90303250418061" lon="8.843335592483818"><ele>109.0</ele><time>2026-04-28T10:04:26Z</time></trkpt><trkpt lat="44.90325282657889" lon="8.843355375692001"><ele>109.0</ele><time>2026-04-28T10:04:27Z</time></trkpt><trkpt lat="44.903463414567234" lon="8.843374390773429"><ele>109.66666666666667</ele><time>2026-04-28T10:04:28Z</time></trkpt><trkpt lat="44.90367592073379" lon="8.843398324464554"><ele>110.33333333333334</ele><time>2026-04-28T10:04:29Z</time></trkpt><trkpt lat="44.9038870540795" lon="8.84341782833031"><ele>111.0</ele><time>2026-04-28T10:04:30Z</time></trkpt><trkpt lat="44.904093811339806" lon="8.843438595405669"><ele>110.33333333333334</ele><time>2026-04-28T10:04:31Z</time></trkpt><trkpt lat="44.90429047524954" lon="8.843455839040368"><ele>109.66666666666667</ele><time>2026-04-28T10:04:32Z</time></trkpt><trkpt lat="44.904488695748086" lon="8.843481996162028"><ele>109.0</ele><time>2026-04-28T10:04:33Z</time></trkpt><trkpt lat="44.90468841771496" lon="8.843498057254797"><ele>109.0</ele><time>2026-04-28T10:04:34Z</time></trkpt><trkpt lat="44.904883683854635" lon="8.843514527525898"><ele>109.0</ele><time>2026-04-28T10:04:35Z</time></trkpt><trkpt lat="44.90509073053752" lon="8.843532141871721"><ele>109.0</ele><time>2026-04-28T10:04:36Z</time></trkpt><trkpt lat="44.90530937479028" lon="8.843555490405345"><ele>109.0</ele><time>2026-04-28T10:04:37Z</time></trkpt><trkpt lat="44.905552564731835" lon="8.843582314023053"><ele>109.0</ele><time>2026-04-28T10:04:38Z</time></trkpt><trkpt lat="44.90579298837234" lon="8.843611933152705"><ele>109.0</ele><time>2026-04-28T10:04:39Z</time></trkpt><trkpt lat="44.90601557778153" lon="8.843633889643355"><ele>109.0</ele><time>2026-04-28T10:04:40Z</time></trkpt><trkpt lat="44.90623462435378" lon="8.84365895326939"><ele>109.0</ele><time>2026-04-28T10:04:41Z</time></trkpt><trkpt lat="44.906424440690685" lon="8.843680636234755"><ele>109.0</ele><time>2026-04-28T10:04:42Z</time></trkpt><trkpt lat="44.906561440240544" lon="8.843698196517165"><ele>109.0</ele><time>2026-04-28T10:04:43Z</time></trkpt><trkpt lat="44.906686492633156" lon="8.843742506263139"><ele>109.0</ele><time>2026-04-28T10:04:44Z</time></trkpt><trkpt lat="44.90680757228355" lon="8.843823681630433"><ele>109.0</ele><time>2026-04-28T10:04:44.999Z</time></trkpt><trkpt lat="44.90693275762398" lon="8.843934385894086"><ele>109.0</ele><time>2026-04-28T10:04:45.999Z</time></trkpt><trkpt lat="44.90705910124201" lon="8.844069121602473"><ele>109.0</ele><time>2026-04-28T10:04:46.999Z</time></trkpt><trkpt lat="44.90716267079497" lon="8.844214572026807"><ele>109.0</ele><time>2026-04-28T10:04:47.999Z</time></trkpt><trkpt lat="44.9072526908866" lon="8.844389539200543"><ele>108.66666666666667</ele><time>2026-04-28T10:04:48.999Z</time></trkpt><trkpt lat="44.90731761899933" lon="8.844576521694083"><ele>108.33333333333334</ele><time>2026-04-28T10:04:49.999Z</time></trkpt><trkpt lat="44.90736394460524" lon="8.844777061339459"><ele>108.0</ele><time>2026-04-28T10:04:50.999Z</time></trkpt><trkpt lat="44.9074023003702" lon="8.844986244498788"><ele>108.0</ele><time>2026-04-28T10:04:51.999Z</time></trkpt><trkpt lat="44.90744718033482" lon="8.84516174860826"><ele>108.0</ele><time>2026-04-28T10:04:52.999Z</time></trkpt><trkpt lat="44.90751826781371" lon="8.84531283831592"><ele>108.0</ele><time>2026-04-28T10:04:53.999Z</time></trkpt><trkpt lat="44.90761587904815" lon="8.84543904514585"><ele>108.0</ele><time>2026-04-28T10:04:54.999Z</time></trkpt><trkpt lat="44.90772024210376" lon="8.845544298978169"><ele>108.0</ele><time>2026-04-28T10:04:55.999Z</time></trkpt><trkpt lat="44.90783898952848" lon="8.845610814596274"><ele>108.0</ele><time>2026-04-28T10:04:56.999Z</time></trkpt><trkpt lat="44.90797049183491" lon="8.845644051168362"><ele>108.0</ele><time>2026-04-28T10:04:57.999Z</time></trkpt><trkpt lat="44.908110076404604" lon="8.845628367592177"><ele>108.0</ele><time>2026-04-28T10:04:58.999Z</time></trkpt><trkpt lat="44.90824828801025" lon="8.845566032385099"><ele>108.0</ele><time>2026-04-28T10:04:59.999Z</time></trkpt><trkpt lat="44.908372064093946" lon="8.84547183021887"><ele>108.0</ele><time>2026-04-28T10:05:00.999Z</time></trkpt><trkpt lat="44.90848006511501" lon="8.845356508322604"><ele>108.0</ele><time>2026-04-28T10:05:01.999Z</time></trkpt><trkpt lat="44.90857359467141" lon="8.845206498033107"><ele>108.0</ele><time>2026-04-28T10:05:02.999Z</time></trkpt><trkpt lat="44.9086381388935" lon="8.845022917474964"><ele>108.66666666666666</ele><time>2026-04-28T10:05:03.999Z</time></trkpt><trkpt lat="44.90867476340322" lon="8.84480694020964"><ele>109.33333333333333</ele><time>2026-04-28T10:05:04.999Z</time></trkpt><trkpt lat="44.90868877135671" lon="8.844572486556892"><ele>110.0</ele><time>2026-04-28T10:05:05.999Z</time></trkpt><trkpt lat="44.90869722339919" lon="8.844325119536267"><ele>109.33333333333333</ele><time>2026-04-28T10:05:06.999Z</time></trkpt><trkpt lat="44.90871100221441" lon="8.844068255087839"><ele>108.66666666666666</ele><time>2026-04-28T10:05:07.999Z</time></trkpt><trkpt lat="44.90872432101466" lon="8.843802593552002"><ele>108.0</ele><time>2026-04-28T10:05:08.999Z</time></trkpt><trkpt lat="44.9087367528801" lon="8.843536458901559"><ele>108.0</ele><time>2026-04-28T10:05:09.999Z</time></trkpt><trkpt lat="44.90875255803039" lon="8.843255822017964"><ele>108.0</ele><time>2026-04-28T10:05:10.999Z</time></trkpt><trkpt lat="44.90876603398989" lon="8.842965804346633"><ele>108.0</ele><time>2026-04-28T10:05:11.999Z</time></trkpt><trkpt lat="44.908778548629556" lon="8.842674187951497"><ele>108.0</ele><time>2026-04-28T10:05:12.999Z</time></trkpt><trkpt lat="44.908791755498484" lon="8.842400184349717"><ele>108.0</ele><time>2026-04-28T10:05:13.999Z</time></trkpt><trkpt lat="44.908808657540085" lon="8.842140515630437"><ele>108.0</ele><time>2026-04-28T10:05:14.999Z</time></trkpt><trkpt lat="44.908830284760306" lon="8.841893692663776"><ele>108.33333333333334</ele><time>2026-04-28T10:05:15.999Z</time></trkpt><trkpt lat="44.90885697917239" lon="8.841658580648746"><ele>108.66666666666667</ele><time>2026-04-28T10:05:16.999Z</time></trkpt><trkpt lat="44.908898439092255" lon="8.841423669014626"><ele>109.0</ele><time>2026-04-28T10:05:17.999Z</time></trkpt><trkpt lat="44.90894835872194" lon="8.841195157760676"><ele>109.0</ele><time>2026-04-28T10:05:18.999Z</time></trkpt><trkpt lat="44.908999147586044" lon="8.840968398293459"><ele>109.0</ele><time>2026-04-28T10:05:19.999Z</time></trkpt><trkpt lat="44.90904446361641" lon="8.840756903438413"><ele>109.0</ele><time>2026-04-28T10:05:20.999Z</time></trkpt><trkpt lat="44.90909194817423" lon="8.84054107213353"><ele>109.66666666666667</ele><time>2026-04-28T10:05:21.999Z</time></trkpt><trkpt lat="44.90913977237124" lon="8.840331389580495"><ele>110.33333333333334</ele><time>2026-04-28T10:05:22.999Z</time></trkpt><trkpt lat="44.90918337728463" lon="8.840123306822429"><ele>111.0</ele><time>2026-04-28T10:05:23.999Z</time></trkpt><trkpt lat="44.909220415311964" lon="8.839926117345208"><ele>111.19999999999999</ele><time>2026-04-28T10:05:24.999Z</time></trkpt><trkpt lat="44.90925476107509" lon="8.839761344418704"><ele>111.39999999999999</ele><time>2026-04-28T10:05:25.999Z</time></trkpt><trkpt lat="44.9092799566692" lon="8.83963665337518"><ele>111.6</ele><time>2026-04-28T10:05:26.999Z</time></trkpt><trkpt lat="44.9093029507612" lon="8.83953698458297"><ele>111.8</ele><time>2026-04-28T10:05:27.999Z</time></trkpt><trkpt lat="44.90933347528099" lon="8.839412667438905"><ele>112.0</ele><time>2026-04-28T10:05:29.999Z</time></trkpt><trkpt lat="44.90941259384024" lon="8.839334286518442"><ele>111.5</ele><time>2026-04-28T10:06:35Z</time></trkpt><trkpt lat="44.909470914031346" lon="8.839177931054383"><ele>111.0</ele><time>2026-04-28T10:06:37Z</time></trkpt><trkpt lat="44.90949216008328" lon="8.839055883803331"><ele>110.5</ele><time>2026-04-28T10:06:38Z</time></trkpt><trkpt lat="44.909526597736786" lon="8.83889806983687"><ele>110.0</ele><time>2026-04-28T10:06:39Z</time></trkpt><trkpt lat="44.90951243269594" lon="8.838687094845906"><ele>110.0</ele><time>2026-04-28T10:06:40Z</time></trkpt><trkpt lat="44.90954991177984" lon="8.838504083898563"><ele>110.0</ele><time>2026-04-28T10:06:41Z</time></trkpt><trkpt lat="44.90957689467731" lon="8.838336685819316"><ele>110.0</ele><time>2026-04-28T10:06:42Z</time></trkpt><trkpt lat="44.90959661493233" lon="8.838173001078463"><ele>110.0</ele><time>2026-04-28T10:06:43Z</time></trkpt><trkpt lat="44.90964276745928" lon="8.83801114612825"><ele>109.75</ele><time>2026-04-28T10:06:44Z</time></trkpt><trkpt lat="44.909623133523006" lon="8.837840612120836"><ele>109.5</ele><time>2026-04-28T10:06:45Z</time></trkpt><trkpt lat="44.909584375805515" lon="8.837671771679613"><ele>109.25</ele><time>2026-04-28T10:06:46Z</time></trkpt><trkpt lat="44.9095306216686" lon="8.837517843291533"><ele>109.0</ele><time>2026-04-28T10:06:47Z</time></trkpt><trkpt lat="44.90945062133832" lon="8.837389813929105"><ele>108.75</ele><time>2026-04-28T10:06:48Z</time></trkpt><trkpt lat="44.909346124784626" lon="8.837286735097328"><ele>108.5</ele><time>2026-04-28T10:06:49Z</time></trkpt><trkpt lat="44.909227936076704" lon="8.837202653009413"><ele>108.25</ele><time>2026-04-28T10:06:50Z</time></trkpt><trkpt lat="44.90910463447558" lon="8.837151203996022"><ele>108.0</ele><time>2026-04-28T10:06:51Z</time></trkpt><trkpt lat="44.90895418977143" lon="8.837118482885339"><ele>109.0</ele><time>2026-04-28T10:06:51.999Z</time></trkpt><trkpt lat="44.90877556905811" lon="8.83709208393526"><ele>110.0</ele><time>2026-04-28T10:06:52.999Z</time></trkpt><trkpt lat="44.90862923442522" lon="8.837068421586117"><ele>111.0</ele><time>2026-04-28T10:06:53.999Z</time></trkpt><trkpt lat="44.90849369387783" lon="8.837031124546524"><ele>111.0</ele><time>2026-04-28T10:06:54.999Z</time></trkpt><trkpt lat="44.90837285485606" lon="8.836981632928024"><ele>111.0</ele><time>2026-04-28T10:06:55.999Z</time></trkpt><trkpt lat="44.90826711128312" lon="8.836915714047972"><ele>111.0</ele><time>2026-04-28T10:06:56.999Z</time></trkpt><trkpt lat="44.90817712741107" lon="8.83684659869144"><ele>111.0</ele><time>2026-04-28T10:06:57.999Z</time></trkpt><trkpt lat="44.90811206325428" lon="8.836788798842402"><ele>111.0</ele><time>2026-04-28T10:06:58.999Z</time></trkpt><trkpt lat="44.908065230323" lon="8.836714827703517"><ele>111.0</ele><time>2026-04-28T10:06:59.999Z</time></trkpt><trkpt lat="44.90800394535273" lon="8.836660333738857"><ele>111.0</ele><time>2026-04-28T10:07:00.999Z</time></trkpt><trkpt lat="44.90796204656183" lon="8.836520514045459"><ele>111.0</ele><time>2026-04-28T10:07:01.999Z</time></trkpt><trkpt lat="44.90789490908621" lon="8.83642528257323"><ele>111.0</ele><time>2026-04-28T10:07:02.999Z</time></trkpt><trkpt lat="44.90781672365337" lon="8.83633881981294"><ele>111.0</ele><time>2026-04-28T10:07:03.999Z</time></trkpt><trkpt lat="44.90772614716333" lon="8.836280752004598"><ele>111.0</ele><time>2026-04-28T10:07:04.999Z</time></trkpt><trkpt lat="44.90762123240405" lon="8.836252695936253"><ele>111.0</ele><time>2026-04-28T10:07:05.999Z</time></trkpt><trkpt lat="44.90751595809759" lon="8.836268589068867"><ele>111.0</ele><time>2026-04-28T10:07:06.999Z</time></trkpt><trkpt lat="44.90741604920511" lon="8.836322038810104"><ele>111.0</ele><time>2026-04-28T10:07:07.999Z</time></trkpt><trkpt lat="44.90731998699097" lon="8.836394395694787"><ele>111.0</ele><time>2026-04-28T10:07:08.999Z</time></trkpt><trkpt lat="44.90724029195527" lon="8.836496561488094"><ele>111.0</ele><time>2026-04-28T10:07:09.999Z</time></trkpt><trkpt lat="44.907180060453214" lon="8.83662054608002"><ele>111.0</ele><time>2026-04-28T10:07:10.999Z</time></trkpt><trkpt lat="44.90713890073604" lon="8.836751094082572"><ele>111.0</ele><time>2026-04-28T10:07:11.999Z</time></trkpt><trkpt lat="44.9070642289854" lon="8.836833635389656"><ele>111.0</ele><time>2026-04-28T10:07:12.999Z</time></trkpt><trkpt lat="44.90700424140016" lon="8.836942541467423"><ele>111.0</ele><time>2026-04-28T10:07:13.999Z</time></trkpt><trkpt lat="44.90690460490398" lon="8.836987059974328"><ele>111.0</ele><time>2026-04-28T10:07:14.999Z</time></trkpt><trkpt lat="44.90679967945038" lon="8.837069577576605"><ele>111.0</ele><time>2026-04-28T10:07:15.999Z</time></trkpt><trkpt lat="44.906674739716415" lon="8.83710943963212"><ele>111.0</ele><time>2026-04-28T10:07:16.999Z</time></trkpt><trkpt lat="44.90654062814292" lon="8.83715800416247"><ele>111.0</ele><time>2026-04-28T10:07:17.999Z</time></trkpt><trkpt lat="44.90639680101871" lon="8.837201761059747"><ele>110.33333333333334</ele><time>2026-04-28T10:07:18.999Z</time></trkpt><trkpt lat="44.90624375710038" lon="8.837237630436666"><ele>109.66666666666667</ele><time>2026-04-28T10:07:19.999Z</time></trkpt><trkpt lat="44.90607906950108" lon="8.837266043561655"><ele>109.0</ele><time>2026-04-28T10:07:20.999Z</time></trkpt><trkpt lat="44.90591182856828" lon="8.837286137913614"><ele>109.33333333333334</ele><time>2026-04-28T10:07:21.999Z</time></trkpt><trkpt lat="44.90574305810341" lon="8.837296363960288"><ele>109.66666666666666</ele><time>2026-04-28T10:07:22.999Z</time></trkpt><trkpt lat="44.90557359807158" lon="8.837315338991672"><ele>110.0</ele><time>2026-04-28T10:07:23.999Z</time></trkpt><trkpt lat="44.9054107413067" lon="8.837354295485568"><ele>110.0</ele><time>2026-04-28T10:07:24.999Z</time></trkpt><trkpt lat="44.90525872244015" lon="8.837402970652162"><ele>110.0</ele><time>2026-04-28T10:07:25.999Z</time></trkpt><trkpt lat="44.90511676376849" lon="8.837447105472648"><ele>110.0</ele><time>2026-04-28T10:07:26.999Z</time></trkpt><trkpt lat="44.90497654027969" lon="8.83748317975537"><ele>110.0</ele><time>2026-04-28T10:07:27.999Z</time></trkpt><trkpt lat="44.904838686889" lon="8.837526082862492"><ele>110.0</ele><time>2026-04-28T10:07:28.999Z</time></trkpt><trkpt lat="44.904697254795984" lon="8.837582496906144"><ele>110.0</ele><time>2026-04-28T10:07:29.999Z</time></trkpt><trkpt lat="44.904551524748854" lon="8.837640585134253"><ele>110.0</ele><time>2026-04-28T10:07:30.999Z</time></trkpt><trkpt lat="44.90439944451653" lon="8.837699536861187"><ele>110.33333333333333</ele><time>2026-04-28T10:07:31.999Z</time></trkpt><trkpt lat="44.904227673349695" lon="8.837765890356666"><ele>110.66666666666666</ele><time>2026-04-28T10:07:32.999Z</time></trkpt><trkpt lat="44.90405332194256" lon="8.837832091924069"><ele>111.0</ele><time>2026-04-28T10:07:33.999Z</time></trkpt><trkpt lat="44.90389081802227" lon="8.837898320930872"><ele>111.0</ele><time>2026-04-28T10:07:34.999Z</time></trkpt><trkpt lat="44.903732982786686" lon="8.83796446129071"><ele>111.0</ele><time>2026-04-28T10:07:35.999Z</time></trkpt><trkpt lat="44.90357958027575" lon="8.838029584377983"><ele>111.0</ele><time>2026-04-28T10:07:36.999Z</time></trkpt><trkpt lat="44.90342939364845" lon="8.838089027278059"><ele>111.66666666666666</ele><time>2026-04-28T10:07:37.999Z</time></trkpt><trkpt lat="44.90328087587464" lon="8.838144400254594"><ele>112.33333333333333</ele><time>2026-04-28T10:07:38.999Z</time></trkpt><trkpt lat="44.90313159444168" lon="8.83819987198202"><ele>113.0</ele><time>2026-04-28T10:07:39.999Z</time></trkpt><trkpt lat="44.90298224377319" lon="8.838260992568696"><ele>113.0</ele><time>2026-04-28T10:07:40.999Z</time></trkpt><trkpt lat="44.90285678698743" lon="8.838313491496884"><ele>113.0</ele><time>2026-04-28T10:07:41.999Z</time></trkpt><trkpt lat="44.90273766852604" lon="8.838363597517441"><ele>113.0</ele><time>2026-04-28T10:07:42.999Z</time></trkpt><trkpt lat="44.90262613840055" lon="8.838385053839389"><ele>113.0</ele><time>2026-04-28T10:07:43.999Z</time></trkpt><trkpt lat="44.90253780784633" lon="8.838439786323471"><ele>112.99999999999999</ele><time>2026-04-28T10:07:44.999Z</time></trkpt><trkpt lat="44.90244551590084" lon="8.838438229900879"><ele>113.0</ele><time>2026-04-28T10:07:45.999Z</time></trkpt><trkpt lat="44.90237118999905" lon="8.838416784835903"><ele>113.0</ele><time>2026-04-28T10:07:46.999Z</time></trkpt><trkpt lat="44.90230905933073" lon="8.83839072892803"><ele>113.0</ele><time>2026-04-28T10:07:47.999Z</time></trkpt><trkpt lat="44.90223864382039" lon="8.838323060232327"><ele>112.99999999999999</ele><time>2026-04-28T10:07:48.999Z</time></trkpt><trkpt lat="44.902153462917624" lon="8.838285272904375"><ele>113.0</ele><time>2026-04-28T10:07:49.999Z</time></trkpt><trkpt lat="44.90206859659949" lon="8.838288501169403"><ele>112.99999999999999</ele><time>2026-04-28T10:07:50.999Z</time></trkpt><trkpt lat="44.901998678548914" lon="8.83833126566694"><ele>113.0</ele><time>2026-04-28T10:07:51.999Z</time></trkpt><trkpt lat="44.90193759258528" lon="8.838418244172813"><ele>113.0</ele><time>2026-04-28T10:07:52.999Z</time></trkpt><trkpt lat="44.90192255364942" lon="8.838512713974836"><ele>113.0</ele><time>2026-04-28T10:07:53.999Z</time></trkpt><trkpt lat="44.90187723022939" lon="8.838580748647026"><ele>112.99999999999999</ele><time>2026-04-28T10:07:54.999Z</time></trkpt><trkpt lat="44.90182807445307" lon="8.838647744070695"><ele>113.0</ele><time>2026-04-28T10:07:55.999Z</time></trkpt><trkpt lat="44.90170245261428" lon="8.838692634697585"><ele>112.5</ele><time>2026-04-28T10:07:56.999Z</time></trkpt><trkpt lat="44.90157028770854" lon="8.838706304044967"><ele>112.0</ele><time>2026-04-28T10:07:57.999Z</time></trkpt><trkpt lat="44.901444834650086" lon="8.838747151704732"><ele>111.5</ele><time>2026-04-28T10:07:58.999Z</time></trkpt><trkpt lat="44.90132852561373" lon="8.838809625703934"><ele>111.0</ele><time>2026-04-28T10:07:59.999Z</time></trkpt><trkpt lat="44.90120447748486" lon="8.838831514088564"><ele>111.0</ele><time>2026-04-28T10:08:00.999Z</time></trkpt><trkpt lat="44.90108411720082" lon="8.838874643834519"><ele>111.0</ele><time>2026-04-28T10:08:01.999Z</time></trkpt><trkpt lat="44.90096217226245" lon="8.838932291591375"><ele>111.0</ele><time>2026-04-28T10:08:02.999Z</time></trkpt><trkpt lat="44.90083252545424" lon="8.838979776758443"><ele>111.0</ele><time>2026-04-28T10:08:03.999Z</time></trkpt><trkpt lat="44.900697601000225" lon="8.839025253661092"><ele>110.66666666666666</ele><time>2026-04-28T10:08:04.999Z</time></trkpt><trkpt lat="44.90053365141144" lon="8.83908742892404"><ele>110.33333333333333</ele><time>2026-04-28T10:08:05.999Z</time></trkpt><trkpt lat="44.900377418065624" lon="8.839141110035936"><ele>110.0</ele><time>2026-04-28T10:08:07Z</time></trkpt><trkpt lat="44.90022301787129" lon="8.839202599327242"><ele>110.33333333333333</ele><time>2026-04-28T10:08:08Z</time></trkpt><trkpt lat="44.90007676030721" lon="8.839252628250657"><ele>110.66666666666666</ele><time>2026-04-28T10:08:09Z</time></trkpt><trkpt lat="44.899935097597364" lon="8.839304198732318"><ele>111.0</ele><time>2026-04-28T10:08:10Z</time></trkpt><trkpt lat="44.89978561075462" lon="8.839361231187556"><ele>111.0</ele><time>2026-04-28T10:08:11Z</time></trkpt><trkpt lat="44.89963098223003" lon="8.83941712627967"><ele>111.0</ele><time>2026-04-28T10:08:12Z</time></trkpt><trkpt lat="44.89947615503343" lon="8.839478020684416"><ele>111.0</ele><time>2026-04-28T10:08:13Z</time></trkpt><trkpt lat="44.89931439095675" lon="8.839535326906423"><ele>111.66666666666666</ele><time>2026-04-28T10:08:14Z</time></trkpt><trkpt lat="44.89914937202115" lon="8.839589869458475"><ele>112.33333333333333</ele><time>2026-04-28T10:08:15Z</time></trkpt><trkpt lat="44.89898531535306" lon="8.839645816618686"><ele>113.0</ele><time>2026-04-28T10:08:16Z</time></trkpt><trkpt lat="44.89882508001603" lon="8.839692047297005"><ele>113.0</ele><time>2026-04-28T10:08:17Z</time></trkpt><trkpt lat="44.89866776653182" lon="8.839729601588326"><ele>113.0</ele><time>2026-04-28T10:08:18Z</time></trkpt><trkpt lat="44.89851346097576" lon="8.839766796033551"><ele>113.0</ele><time>2026-04-28T10:08:19Z</time></trkpt><trkpt lat="44.898353381503036" lon="8.839796369387718"><ele>113.66666666666666</ele><time>2026-04-28T10:08:20Z</time></trkpt><trkpt lat="44.898190872813174" lon="8.839820577845083"><ele>114.33333333333334</ele><time>2026-04-28T10:08:21Z</time></trkpt><trkpt lat="44.89803309892504" lon="8.839844596883125"><ele>115.0</ele><time>2026-04-28T10:08:22Z</time></trkpt><trkpt lat="44.8978781064426" lon="8.83986027263677"><ele>115.0</ele><time>2026-04-28T10:08:23Z</time></trkpt><trkpt lat="44.897715792735056" lon="8.839885881483877"><ele>115.0</ele><time>2026-04-28T10:08:24Z</time></trkpt><trkpt lat="44.89755163588102" lon="8.839903143049895"><ele>115.0</ele><time>2026-04-28T10:08:25Z</time></trkpt><trkpt lat="44.897381442819686" lon="8.839907745984974"><ele>115.33333333333334</ele><time>2026-04-28T10:08:26Z</time></trkpt><trkpt lat="44.89720905857892" lon="8.83991454613283"><ele>115.66666666666666</ele><time>2026-04-28T10:08:27Z</time></trkpt><trkpt lat="44.8970374097429" lon="8.839910581053337"><ele>116.0</ele><time>2026-04-28T10:08:28Z</time></trkpt><trkpt lat="44.89685320462602" lon="8.839903682603468"><ele>116.0</ele><time>2026-04-28T10:08:29Z</time></trkpt><trkpt lat="44.89665080463126" lon="8.839893272923101"><ele>116.0</ele><time>2026-04-28T10:08:30Z</time></trkpt><trkpt lat="44.896478195386265" lon="8.839875278813368"><ele>116.0</ele><time>2026-04-28T10:08:31Z</time></trkpt><trkpt lat="44.89631567178767" lon="8.839852344280487"><ele>116.0</ele><time>2026-04-28T10:08:32Z</time></trkpt><trkpt lat="44.89615866023121" lon="8.839827006581594"><ele>116.0</ele><time>2026-04-28T10:08:33Z</time></trkpt><trkpt lat="44.89600620042979" lon="8.839807379960796"><ele>116.0</ele><time>2026-04-28T10:08:34Z</time></trkpt><trkpt lat="44.89585810267303" lon="8.839789407487013"><ele>116.0</ele><time>2026-04-28T10:08:35Z</time></trkpt><trkpt lat="44.89571278792005" lon="8.839776853613797"><ele>116.0</ele><time>2026-04-28T10:08:36Z</time></trkpt><trkpt lat="44.89556479374484" lon="8.839758810478601"><ele>116.0</ele><time>2026-04-28T10:08:37Z</time></trkpt><trkpt lat="44.89541319639154" lon="8.839739381116326"><ele>116.0</ele><time>2026-04-28T10:08:38Z</time></trkpt><trkpt lat="44.895266073432126" lon="8.839723367268236"><ele>116.0</ele><time>2026-04-28T10:08:39Z</time></trkpt><trkpt lat="44.895117226277215" lon="8.839708521947538"><ele>116.0</ele><time>2026-04-28T10:08:40Z</time></trkpt><trkpt lat="44.89496166007365" lon="8.839695307233573"><ele>116.0</ele><time>2026-04-28T10:08:41Z</time></trkpt><trkpt lat="44.89480996324452" lon="8.839675263362047"><ele>116.66666666666666</ele><time>2026-04-28T10:08:42Z</time></trkpt><trkpt lat="44.894656206524814" lon="8.839652976052118"><ele>117.33333333333334</ele><time>2026-04-28T10:08:43Z</time></trkpt><trkpt lat="44.89451087863183" lon="8.839630352530678"><ele>118.0</ele><time>2026-04-28T10:08:44Z</time></trkpt><trkpt lat="44.89435823576393" lon="8.839609766537485"><ele>117.75</ele><time>2026-04-28T10:08:45Z</time></trkpt><trkpt lat="44.8942201121466" lon="8.839588563208196"><ele>117.5</ele><time>2026-04-28T10:08:46Z</time></trkpt><trkpt lat="44.8940871932429" lon="8.839570541359425"><ele>117.25</ele><time>2026-04-28T10:08:47Z</time></trkpt><trkpt lat="44.89395783836214" lon="8.839557526017149"><ele>117.0</ele><time>2026-04-28T10:08:48Z</time></trkpt><trkpt lat="44.893857209196625" lon="8.839543780866055"><ele>117.0</ele><time>2026-04-28T10:08:49Z</time></trkpt><trkpt lat="44.89376869655643" lon="8.839525326585425"><ele>116.99999999999999</ele><time>2026-04-28T10:08:50Z</time></trkpt><trkpt lat="44.89369362981997" lon="8.83949108977455"><ele>116.99999999999999</ele><time>2026-04-28T10:08:51Z</time></trkpt><trkpt lat="44.8936293369821" lon="8.83947194451295"><ele>117.0</ele><time>2026-04-28T10:08:52Z</time></trkpt><trkpt lat="44.89358763596217" lon="8.839304642475842"><ele>117.0</ele><time>2026-04-28T10:08:53Z</time></trkpt><trkpt lat="44.89355275494206" lon="8.839176970593336"><ele>117.0</ele><time>2026-04-28T10:08:54Z</time></trkpt><trkpt lat="44.89353462344709" lon="8.839057630904053"><ele>116.99999999999999</ele><time>2026-04-28T10:08:55Z</time></trkpt><trkpt lat="44.8935560734129" lon="8.83893267521102"><ele>116.99999999999999</ele><time>2026-04-28T10:08:55.999Z</time></trkpt><trkpt lat="44.89361677389027" lon="8.838836798469965"><ele>117.0</ele><time>2026-04-28T10:08:56.999Z</time></trkpt><trkpt lat="44.89366822123743" lon="8.838719475033866"><ele>117.0</ele><time>2026-04-28T10:08:57.999Z</time></trkpt><trkpt lat="44.893730336089625" lon="8.838600247011952"><ele>117.0</ele><time>2026-04-28T10:08:58.999Z</time></trkpt><trkpt lat="44.89389096044679" lon="8.838552552910308"><ele>117.0</ele><time>2026-04-28T10:08:59.999Z</time></trkpt><trkpt lat="44.893991746449466" lon="8.838490306563223"><ele>117.0</ele><time>2026-04-28T10:09:00.999Z</time></trkpt><trkpt lat="44.89409536171617" lon="8.83844393090523"><ele>117.0</ele><time>2026-04-28T10:09:01.999Z</time></trkpt><trkpt lat="44.89419795020341" lon="8.838425087971332"><ele>116.8</ele><time>2026-04-28T10:09:02.999Z</time></trkpt><trkpt lat="44.89429475823699" lon="8.838443270159766"><ele>116.6</ele><time>2026-04-28T10:09:03.999Z</time></trkpt><trkpt lat="44.89438034575115" lon="8.838492707570163"><ele>116.39999999999999</ele><time>2026-04-28T10:09:04.999Z</time></trkpt><trkpt lat="44.89444790531912" lon="8.838591683841033"><ele>116.19999999999999</ele><time>2026-04-28T10:09:05.999Z</time></trkpt><trkpt lat="44.89452092334028" lon="8.838673432669228"><ele>116.0</ele><time>2026-04-28T10:09:06.999Z</time></trkpt><trkpt lat="44.89456243099548" lon="8.838796001100791"><ele>116.0</ele><time>2026-04-28T10:09:07.999Z</time></trkpt><trkpt lat="44.8945934023814" lon="8.838943805820708"><ele>116.0</ele><time>2026-04-28T10:09:08.999Z</time></trkpt><trkpt lat="44.89461668779531" lon="8.839100887261282"><ele>116.0</ele><time>2026-04-28T10:09:09.999Z</time></trkpt><trkpt lat="44.89464318158016" lon="8.839278858609488"><ele>116.0</ele><time>2026-04-28T10:09:10.999Z</time></trkpt><trkpt lat="44.8946263702179" lon="8.839494641643501"><ele>116.33333333333333</ele><time>2026-04-28T10:09:11.999Z</time></trkpt><trkpt lat="44.894641616401465" lon="8.839714590701897"><ele>116.66666666666666</ele><time>2026-04-28T10:09:12.999Z</time></trkpt><trkpt lat="44.89463967095894" lon="8.839932180574525"><ele>117.0</ele><time>2026-04-28T10:09:13.999Z</time></trkpt><trkpt lat="44.89466009688357" lon="8.840154862633444"><ele>117.0</ele><time>2026-04-28T10:09:14.999Z</time></trkpt><trkpt lat="44.89464885505125" lon="8.840394883684443"><ele>117.0</ele><time>2026-04-28T10:09:15.999Z</time></trkpt><trkpt lat="44.89464985320836" lon="8.840597069128542"><ele>117.0</ele><time>2026-04-28T10:09:16.999Z</time></trkpt><trkpt lat="44.89465413575691" lon="8.840806156064065"><ele>117.25</ele><time>2026-04-28T10:09:17.999Z</time></trkpt><trkpt lat="44.894658544338505" lon="8.841007969122929"><ele>117.5</ele><time>2026-04-28T10:09:18.999Z</time></trkpt><trkpt lat="44.89466110131589" lon="8.841213362330054"><ele>117.75</ele><time>2026-04-28T10:09:19.999Z</time></trkpt><trkpt lat="44.89466072398602" lon="8.841422908242528"><ele>118.0</ele><time>2026-04-28T10:09:20.999Z</time></trkpt><trkpt lat="44.894667472205356" lon="8.841624323465371"><ele>117.5</ele><time>2026-04-28T10:09:21.999Z</time></trkpt><trkpt lat="44.89467547754246" lon="8.841822386926495"><ele>117.0</ele><time>2026-04-28T10:09:22.999Z</time></trkpt><trkpt lat="44.89468062906469" lon="8.842034050031096"><ele>116.5</ele><time>2026-04-28T10:09:23.999Z</time></trkpt><trkpt lat="44.89468674233351" lon="8.842242013051337"><ele>116.0</ele><time>2026-04-28T10:09:24.999Z</time></trkpt><trkpt lat="44.8946902162643" lon="8.842460623891126"><ele>115.33333333333333</ele><time>2026-04-28T10:09:25.999Z</time></trkpt><trkpt lat="44.89468933613954" lon="8.842671632020242"><ele>114.66666666666666</ele><time>2026-04-28T10:09:26.999Z</time></trkpt><trkpt lat="44.89468884412517" lon="8.84288744853186"><ele>114.0</ele><time>2026-04-28T10:09:27.999Z</time></trkpt><trkpt lat="44.89468717110327" lon="8.843099692196816"><ele>114.0</ele><time>2026-04-28T10:09:28.999Z</time></trkpt><trkpt lat="44.89469506031528" lon="8.843318894168217"><ele>114.0</ele><time>2026-04-28T10:09:29.999Z</time></trkpt><trkpt lat="44.89470060495247" lon="8.843531456115208"><ele>114.0</ele><time>2026-04-28T10:09:30.999Z</time></trkpt><trkpt lat="44.89470588566658" lon="8.84373463515366"><ele>113.0</ele><time>2026-04-28T10:09:31.999Z</time></trkpt><trkpt lat="44.89471033351132" lon="8.843946225355042"><ele>112.0</ele><time>2026-04-28T10:09:32.999Z</time></trkpt><trkpt lat="44.89471604950913" lon="8.844150885508938"><ele>111.0</ele><time>2026-04-28T10:09:33.999Z</time></trkpt><trkpt lat="44.89472627443908" lon="8.844360896833896"><ele>110.0</ele><time>2026-04-28T10:09:34.999Z</time></trkpt><trkpt lat="44.89471864322823" lon="8.84457989055215"><ele>110.0</ele><time>2026-04-28T10:09:35.999Z</time></trkpt><trkpt lat="44.89472283743189" lon="8.844807473786217"><ele>110.0</ele><time>2026-04-28T10:09:36.999Z</time></trkpt><trkpt lat="44.89472686368707" lon="8.84502594391527"><ele>110.0</ele><time>2026-04-28T10:09:37.999Z</time></trkpt><trkpt lat="44.89473084454088" lon="8.845241950427663"><ele>110.33333333333333</ele><time>2026-04-28T10:09:38.999Z</time></trkpt><trkpt lat="44.894734811648846" lon="8.845457211108343"><ele>110.66666666666666</ele><time>2026-04-28T10:09:39.999Z</time></trkpt><trkpt lat="44.894755345941746" lon="8.845669431754867"><ele>111.0</ele><time>2026-04-28T10:09:40.999Z</time></trkpt><trkpt lat="44.8947426721712" lon="8.845883733788062"><ele>112.33333333333334</ele><time>2026-04-28T10:09:41.999Z</time></trkpt><trkpt lat="44.89474643695198" lon="8.846097205416324"><ele>113.66666666666667</ele><time>2026-04-28T10:09:42.999Z</time></trkpt><trkpt lat="44.894750249313326" lon="8.846314438937707"><ele>115.0</ele><time>2026-04-28T10:09:43.999Z</time></trkpt><trkpt lat="44.89475410471143" lon="8.846534124824574"><ele>115.0</ele><time>2026-04-28T10:09:44.999Z</time></trkpt><trkpt lat="44.89475805778854" lon="8.846759376461007"><ele>115.0</ele><time>2026-04-28T10:09:45.999Z</time></trkpt><trkpt lat="44.89476039266464" lon="8.84697604436021"><ele>115.0</ele><time>2026-04-28T10:09:46.999Z</time></trkpt><trkpt lat="44.89476233975155" lon="8.847184034880422"><ele>115.5</ele><time>2026-04-28T10:09:47.999Z</time></trkpt><trkpt lat="44.89478146698152" lon="8.847397853878203"><ele>116.0</ele><time>2026-04-28T10:09:48.999Z</time></trkpt><trkpt lat="44.89477118069465" lon="8.847607178065932"><ele>116.5</ele><time>2026-04-28T10:09:49.999Z</time></trkpt><trkpt lat="44.8947772357757" lon="8.847791468399077"><ele>117.0</ele><time>2026-04-28T10:09:50.999Z</time></trkpt><trkpt lat="44.894781135608454" lon="8.8479895174602"><ele>117.0</ele><time>2026-04-28T10:09:51.999Z</time></trkpt><trkpt lat="44.89479141443043" lon="8.848161298112444"><ele>116.99999999999999</ele><time>2026-04-28T10:09:52.999Z</time></trkpt><trkpt lat="44.89479669816693" lon="8.848303884045817"><ele>116.99999999999999</ele><time>2026-04-28T10:09:53.999Z</time></trkpt><trkpt lat="44.894801657170966" lon="8.84843923478237"><ele>117.0</ele><time>2026-04-28T10:09:54.999Z</time></trkpt><trkpt lat="44.89480537564838" lon="8.84858880212712"><ele>117.0</ele><time>2026-04-28T10:09:55.999Z</time></trkpt><trkpt lat="44.89480787986306" lon="8.84873426556195"><ele>117.0</ele><time>2026-04-28T10:09:56.999Z</time></trkpt><trkpt lat="44.89480929882996" lon="8.848878540484662"><ele>116.99999999999999</ele><time>2026-04-28T10:09:57.999Z</time></trkpt><trkpt lat="44.89481498408271" lon="8.849035823551771"><ele>116.99999999999999</ele><time>2026-04-28T10:09:58.999Z</time></trkpt><trkpt lat="44.894801544546176" lon="8.849205552892188"><ele>117.0</ele><time>2026-04-28T10:09:59.999Z</time></trkpt><trkpt lat="44.89480399568797" lon="8.849362661722623"><ele>117.0</ele><time>2026-04-28T10:10:00.999Z</time></trkpt><trkpt lat="44.894806358972644" lon="8.849514139196337"><ele>117.39999999999999</ele><time>2026-04-28T10:10:01.999Z</time></trkpt><trkpt lat="44.8948086070112" lon="8.849658229934812"><ele>117.79999999999998</ele><time>2026-04-28T10:10:02.999Z</time></trkpt><trkpt lat="44.89482702442935" lon="8.84980189551576"><ele>118.2</ele><time>2026-04-28T10:10:03.999Z</time></trkpt><trkpt lat="44.89482526875305" lon="8.849958420665173"><ele>118.6</ele><time>2026-04-28T10:10:04.999Z</time></trkpt><trkpt lat="44.89482552156389" lon="8.850097575839122"><ele>119.0</ele><time>2026-04-28T10:10:05.999Z</time></trkpt><trkpt lat="44.894826360897916" lon="8.85024728631899"><ele>118.99999999999999</ele><time>2026-04-28T10:10:06.999Z</time></trkpt><trkpt lat="44.8948313712153" lon="8.850394581617595"><ele>119.0</ele><time>2026-04-28T10:10:07.999Z</time></trkpt><trkpt lat="44.89483766589217" lon="8.850514863402694"><ele>119.0</ele><time>2026-04-28T10:10:08.999Z</time></trkpt><trkpt lat="44.89484354061708" lon="8.850617164506755"><ele>119.0</ele><time>2026-04-28T10:10:09.999Z</time></trkpt><trkpt lat="44.89484585626322" lon="8.850716687539222"><ele>118.99999999999999</ele><time>2026-04-28T10:10:10.998Z</time></trkpt><trkpt lat="44.894841881035035" lon="8.850815824827386"><ele>119.0</ele><time>2026-04-28T10:10:11.998Z</time></trkpt><trkpt lat="44.89483347314757" lon="8.85093010164106"><ele>118.80000000000001</ele><time>2026-04-28T10:10:13Z</time></trkpt><trkpt lat="44.89482225994215" lon="8.85103699095606"><ele>118.60000000000001</ele><time>2026-04-28T10:10:14Z</time></trkpt><trkpt lat="44.8948211507247" lon="8.851154169222553"><ele>118.4</ele><time>2026-04-28T10:10:15Z</time></trkpt><trkpt lat="44.89483434911012" lon="8.851281219182809"><ele>118.2</ele><time>2026-04-28T10:10:16Z</time></trkpt><trkpt lat="44.89484494516092" lon="8.85141968942387"><ele>118.0</ele><time>2026-04-28T10:10:17Z</time></trkpt><trkpt lat="44.89485153138918" lon="8.851562376450936"><ele>118.0</ele><time>2026-04-28T10:10:18Z</time></trkpt><trkpt lat="44.89485322441277" lon="8.85171540248127"><ele>118.00000000000001</ele><time>2026-04-28T10:10:19Z</time></trkpt><trkpt lat="44.8948550886632" lon="8.851866732654347"><ele>118.00000000000001</ele><time>2026-04-28T10:10:20Z</time></trkpt><trkpt lat="44.89485265742661" lon="8.8520113321604"><ele>118.0</ele><time>2026-04-28T10:10:21Z</time></trkpt><trkpt lat="44.89485519599888" lon="8.852173664136489"><ele>118.0</ele><time>2026-04-28T10:10:22Z</time></trkpt><trkpt lat="44.8948692590113" lon="8.852335958524424"><ele>118.25</ele><time>2026-04-28T10:10:23Z</time></trkpt><trkpt lat="44.89487565994252" lon="8.85250158484573"><ele>118.5</ele><time>2026-04-28T10:10:24Z</time></trkpt><trkpt lat="44.89489973126122" lon="8.852660276740188"><ele>118.75</ele><time>2026-04-28T10:10:25Z</time></trkpt><trkpt lat="44.89494758394132" lon="8.852804545987"><ele>119.0</ele><time>2026-04-28T10:10:26Z</time></trkpt><trkpt lat="44.89501129755549" lon="8.852947100465522"><ele>119.25</ele><time>2026-04-28T10:10:27Z</time></trkpt><trkpt lat="44.895084512619135" lon="8.853091990449464"><ele>119.5</ele><time>2026-04-28T10:10:28Z</time></trkpt><trkpt lat="44.895168875204874" lon="8.853232006577272"><ele>119.75</ele><time>2026-04-28T10:10:29Z</time></trkpt><trkpt lat="44.89526126192195" lon="8.853371264756689"><ele>120.0</ele><time>2026-04-28T10:10:30Z</time></trkpt><trkpt lat="44.89536292313032" lon="8.853505755183587"><ele>120.0</ele><time>2026-04-28T10:10:31Z</time></trkpt><trkpt lat="44.89546311272361" lon="8.853630481106228"><ele>120.0</ele><time>2026-04-28T10:10:32Z</time></trkpt><trkpt lat="44.89557054871439" lon="8.853764959612617"><ele>120.0</ele><time>2026-04-28T10:10:33Z</time></trkpt><trkpt lat="44.895675346011615" lon="8.853913180421669"><ele>120.0</ele><time>2026-04-28T10:10:34Z</time></trkpt><trkpt lat="44.8957785335276" lon="8.85407008473129"><ele>120.0</ele><time>2026-04-28T10:10:35Z</time></trkpt><trkpt lat="44.895875314995216" lon="8.854204471687158"><ele>120.0</ele><time>2026-04-28T10:10:36Z</time></trkpt><trkpt lat="44.89595656051223" lon="8.85434174443941"><ele>120.0</ele><time>2026-04-28T10:10:37Z</time></trkpt><trkpt lat="44.896023225938656" lon="8.854471146040227"><ele>120.0</ele><time>2026-04-28T10:10:38Z</time></trkpt><trkpt lat="44.896086170075996" lon="8.854596595957597"><ele>119.83333333333333</ele><time>2026-04-28T10:10:39Z</time></trkpt><trkpt lat="44.89613458330688" lon="8.85471372204057"><ele>119.66666666666666</ele><time>2026-04-28T10:10:40Z</time></trkpt><trkpt lat="44.896172451593095" lon="8.85481874828304"><ele>119.5</ele><time>2026-04-28T10:10:41Z</time></trkpt><trkpt lat="44.89619552385636" lon="8.85492844216281"><ele>119.33333333333333</ele><time>2026-04-28T10:10:42Z</time></trkpt><trkpt lat="44.896214102644755" lon="8.855032210572384"><ele>119.16666666666666</ele><time>2026-04-28T10:10:43Z</time></trkpt><trkpt lat="44.89622388645248" lon="8.855120456127958"><ele>119.0</ele><time>2026-04-28T10:10:44Z</time></trkpt><trkpt lat="44.89622452348858" lon="8.855285068078796"><ele>119.0</ele><time>2026-04-28T10:10:46Z</time></trkpt><trkpt lat="44.89629207750007" lon="8.85537101292311"><ele>119.0</ele><time>2026-04-28T10:10:48Z</time></trkpt><trkpt lat="44.89637874306143" lon="8.855322782125574"><ele>119.0</ele><time>2026-04-28T10:10:50Z</time></trkpt><trkpt lat="44.896438870778496" lon="8.855226808806385"><ele>119.0</ele><time>2026-04-28T10:10:51Z</time></trkpt><trkpt lat="44.89653006134372" lon="8.855168365808133"><ele>119.0</ele><time>2026-04-28T10:10:52Z</time></trkpt><trkpt lat="44.89664151646116" lon="8.855099021125962"><ele>118.0</ele><time>2026-04-28T10:10:53Z</time></trkpt><trkpt lat="44.89679196439413" lon="8.855023587800604"><ele>117.0</ele><time>2026-04-28T10:10:54Z</time></trkpt><trkpt lat="44.89693154320706" lon="8.854939373214192"><ele>116.0</ele><time>2026-04-28T10:10:55Z</time></trkpt><trkpt lat="44.89706766295476" lon="8.854857626251079"><ele>116.0</ele><time>2026-04-28T10:10:56Z</time></trkpt><trkpt lat="44.89719573091783" lon="8.854779344974228"><ele>116.0</ele><time>2026-04-28T10:10:57Z</time></trkpt><trkpt lat="44.897327850324984" lon="8.854700920603996"><ele>116.0</ele><time>2026-04-28T10:10:58Z</time></trkpt><trkpt lat="44.89747623229162" lon="8.854637165225785"><ele>116.0</ele><time>2026-04-28T10:10:59Z</time></trkpt><trkpt lat="44.89763095820157" lon="8.854579191134025"><ele>115.66666666666666</ele><time>2026-04-28T10:11:00Z</time></trkpt><trkpt lat="44.89778650038834" lon="8.854530162871246"><ele>115.33333333333334</ele><time>2026-04-28T10:11:01Z</time></trkpt><trkpt lat="44.89794312190846" lon="8.854504505018921"><ele>115.0</ele><time>2026-04-28T10:11:02Z</time></trkpt><trkpt lat="44.89809944361826" lon="8.85449333989874"><ele>115.0</ele><time>2026-04-28T10:11:03Z</time></trkpt><trkpt lat="44.89825505258764" lon="8.854496281532063"><ele>115.0</ele><time>2026-04-28T10:11:03.999Z</time></trkpt><trkpt lat="44.89841811413663" lon="8.854517169270473"><ele>115.0</ele><time>2026-04-28T10:11:04.999Z</time></trkpt><trkpt lat="44.89858059246607" lon="8.854570158197614"><ele>115.33333333333334</ele><time>2026-04-28T10:11:05.999Z</time></trkpt><trkpt lat="44.898737791321835" lon="8.85462951794597"><ele>115.66666666666666</ele><time>2026-04-28T10:11:06.999Z</time></trkpt><trkpt lat="44.8988771868766" lon="8.854703172142257"><ele>116.0</ele><time>2026-04-28T10:11:07.999Z</time></trkpt><trkpt lat="44.89903457731542" lon="8.854784145552014"><ele>116.0</ele><time>2026-04-28T10:11:08.999Z</time></trkpt><trkpt lat="44.89918255137287" lon="8.8548675510776"><ele>116.0</ele><time>2026-04-28T10:11:09.999Z</time></trkpt><trkpt lat="44.89932225180169" lon="8.854937781474984"><ele>116.0</ele><time>2026-04-28T10:11:10.999Z</time></trkpt><trkpt lat="44.8994493890508" lon="8.855035022927181"><ele>115.66666666666666</ele><time>2026-04-28T10:11:11.999Z</time></trkpt><trkpt lat="44.8995884912152" lon="8.855120911147479"><ele>115.33333333333334</ele><time>2026-04-28T10:11:12.999Z</time></trkpt><trkpt lat="44.89973727662591" lon="8.855218511955588"><ele>115.0</ele><time>2026-04-28T10:11:13.999Z</time></trkpt><trkpt lat="44.899888817589016" lon="8.855291499951694"><ele>115.0</ele><time>2026-04-28T10:11:14.999Z</time></trkpt><trkpt lat="44.90003829764809" lon="8.855383691181645"><ele>115.0</ele><time>2026-04-28T10:11:15.999Z</time></trkpt><trkpt lat="44.90020260701325" lon="8.855471049778355"><ele>115.0</ele><time>2026-04-28T10:11:16.999Z</time></trkpt><trkpt lat="44.90036418317146" lon="8.85555943320464"><ele>114.33333333333334</ele><time>2026-04-28T10:11:17.999Z</time></trkpt><trkpt lat="44.90053048535271" lon="8.855655294161174"><ele>113.66666666666666</ele><time>2026-04-28T10:11:18.999Z</time></trkpt><trkpt lat="44.90068987169343" lon="8.855754562710995"><ele>113.0</ele><time>2026-04-28T10:11:19.999Z</time></trkpt><trkpt lat="44.90085664852917" lon="8.855847735355608"><ele>112.66666666666666</ele><time>2026-04-28T10:11:20.999Z</time></trkpt><trkpt lat="44.9010238716117" lon="8.855950810683446"><ele>112.33333333333334</ele><time>2026-04-28T10:11:21.999Z</time></trkpt><trkpt lat="44.90118966385683" lon="8.85604818185313"><ele>112.0</ele><time>2026-04-28T10:11:22.999Z</time></trkpt><trkpt lat="44.901345512444436" lon="8.856138792084506"><ele>112.0</ele><time>2026-04-28T10:11:23.999Z</time></trkpt><trkpt lat="44.90149383275695" lon="8.856224368087526"><ele>112.0</ele><time>2026-04-28T10:11:24.999Z</time></trkpt><trkpt lat="44.90164228316176" lon="8.856310589597925"><ele>112.0</ele><time>2026-04-28T10:11:25.999Z</time></trkpt><trkpt lat="44.90178748136741" lon="8.856398951360159"><ele>111.66666666666667</ele><time>2026-04-28T10:11:26.999Z</time></trkpt><trkpt lat="44.90193372229561" lon="8.856491680275528"><ele>111.33333333333334</ele><time>2026-04-28T10:11:27.999Z</time></trkpt><trkpt lat="44.90208041678078" lon="8.856576441295262"><ele>111.0</ele><time>2026-04-28T10:11:28.999Z</time></trkpt><trkpt lat="44.902224560046704" lon="8.856660273997125"><ele>111.0</ele><time>2026-04-28T10:11:29.999Z</time></trkpt><trkpt lat="44.90235644298926" lon="8.856741161910003"><ele>111.0</ele><time>2026-04-28T10:11:30.999Z</time></trkpt><trkpt lat="44.902481472547194" lon="8.856814317258994"><ele>111.0</ele><time>2026-04-28T10:11:31.999Z</time></trkpt><trkpt lat="44.90261484983515" lon="8.856893060127735"><ele>111.0</ele><time>2026-04-28T10:11:32.999Z</time></trkpt><trkpt lat="44.90274364242079" lon="8.856964402233485"><ele>110.5</ele><time>2026-04-28T10:11:33.999Z</time></trkpt><trkpt lat="44.90286243699392" lon="8.857018198044006"><ele>110.0</ele><time>2026-04-28T10:11:34.999Z</time></trkpt><trkpt lat="44.90297750497774" lon="8.857096305602923"><ele>109.5</ele><time>2026-04-28T10:11:35.999Z</time></trkpt><trkpt lat="44.90310126150061" lon="8.857172079866725"><ele>109.0</ele><time>2026-04-28T10:11:36.999Z</time></trkpt><trkpt lat="44.9032254685503" lon="8.857244695907264"><ele>109.0</ele><time>2026-04-28T10:11:37.999Z</time></trkpt><trkpt lat="44.90333797441871" lon="8.857312249781208"><ele>109.0</ele><time>2026-04-28T10:11:38.999Z</time></trkpt><trkpt lat="44.90345336881777" lon="8.857379521727253"><ele>109.0</ele><time>2026-04-28T10:11:39.999Z</time></trkpt><trkpt lat="44.903566304148406" lon="8.857444554058459"><ele>109.0</ele><time>2026-04-28T10:11:40.999Z</time></trkpt><trkpt lat="44.903668263208026" lon="8.8575011786443"><ele>109.16666666666667</ele><time>2026-04-28T10:11:41.999Z</time></trkpt><trkpt lat="44.90376062530167" lon="8.85755349207037"><ele>109.33333333333334</ele><time>2026-04-28T10:11:42.999Z</time></trkpt><trkpt lat="44.9038549652349" lon="8.857602877869006"><ele>109.5</ele><time>2026-04-28T10:11:43.999Z</time></trkpt><trkpt lat="44.90393842911148" lon="8.857654575801117"><ele>109.66666666666666</ele><time>2026-04-28T10:11:44.999Z</time></trkpt><trkpt lat="44.90401141583912" lon="8.857705203486413"><ele>109.83333333333333</ele><time>2026-04-28T10:11:45.999Z</time></trkpt><trkpt lat="44.90407485410347" lon="8.857753411771757"><ele>110.0</ele><time>2026-04-28T10:11:46.999Z</time></trkpt><trkpt lat="44.90414006825887" lon="8.857822347705183"><ele>110.16666666666666</ele><time>2026-04-28T10:11:47.999Z</time></trkpt><trkpt lat="44.90420446448458" lon="8.857905422774174"><ele>110.33333333333333</ele><time>2026-04-28T10:11:48.999Z</time></trkpt><trkpt lat="44.904280712659734" lon="8.857958926601533"><ele>110.5</ele><time>2026-04-28T10:11:49.999Z</time></trkpt><trkpt lat="44.90436801206855" lon="8.857991397584644"><ele>110.66666666666666</ele><time>2026-04-28T10:11:50.999Z</time></trkpt><trkpt lat="44.904454303160136" lon="8.858021411338916"><ele>110.83333333333333</ele><time>2026-04-28T10:11:51.999Z</time></trkpt><trkpt lat="44.90454104232434" lon="8.858048771436572"><ele>111.0</ele><time>2026-04-28T10:11:52.999Z</time></trkpt><trkpt lat="44.904633233036044" lon="8.858083068275974"><ele>111.0</ele><time>2026-04-28T10:11:53.999Z</time></trkpt><trkpt lat="44.904727695657705" lon="8.858121155116784"><ele>111.0</ele><time>2026-04-28T10:11:54.999Z</time></trkpt><trkpt lat="44.90482533370401" lon="8.858162940626652"><ele>111.0</ele><time>2026-04-28T10:11:55.999Z</time></trkpt><trkpt lat="44.90492378326572" lon="8.858217480907689"><ele>111.0</ele><time>2026-04-28T10:11:56.999Z</time></trkpt><trkpt lat="44.90502373744922" lon="8.858274052358126"><ele>111.0</ele><time>2026-04-28T10:11:57.999Z</time></trkpt><trkpt lat="44.905123517885016" lon="8.858330113280678"><ele>111.0</ele><time>2026-04-28T10:11:58.999Z</time></trkpt><trkpt lat="44.9052184105285" lon="8.858389464408605"><ele>111.0</ele><time>2026-04-28T10:11:59.999Z</time></trkpt><trkpt lat="44.90533097911738" lon="8.8584617775683"><ele>111.0</ele><time>2026-04-28T10:12:00.999Z</time></trkpt><trkpt lat="44.905438116227074" lon="8.858529680759522"><ele>111.0</ele><time>2026-04-28T10:12:01.999Z</time></trkpt><trkpt lat="44.90555252788832" lon="8.858597240008336"><ele>111.0</ele><time>2026-04-28T10:12:02.999Z</time></trkpt><trkpt lat="44.905665295056984" lon="8.858667210580288"><ele>111.0</ele><time>2026-04-28T10:12:03.999Z</time></trkpt><trkpt lat="44.90579100155923" lon="8.858744799498139"><ele>111.0</ele><time>2026-04-28T10:12:04.999Z</time></trkpt><trkpt lat="44.90591906806112" lon="8.858822011200875"><ele>111.0</ele><time>2026-04-28T10:12:05.999Z</time></trkpt><trkpt lat="44.90605242805031" lon="8.85889809891929"><ele>111.25</ele><time>2026-04-28T10:12:06.999Z</time></trkpt><trkpt lat="44.90616979348364" lon="8.85896765538184"><ele>111.5</ele><time>2026-04-28T10:12:07.999Z</time></trkpt><trkpt lat="44.90627503087389" lon="8.859046357691183"><ele>111.75</ele><time>2026-04-28T10:12:08.999Z</time></trkpt><trkpt lat="44.90637963021086" lon="8.85913331146285"><ele>112.0</ele><time>2026-04-28T10:12:09.999Z</time></trkpt><trkpt lat="44.90648763257734" lon="8.859229157719732"><ele>112.25</ele><time>2026-04-28T10:12:10.999Z</time></trkpt><trkpt lat="44.90659648520416" lon="8.859328676433499"><ele>112.5</ele><time>2026-04-28T10:12:11.999Z</time></trkpt><trkpt lat="44.906705649717765" lon="8.859438994943261"><ele>112.75</ele><time>2026-04-28T10:12:12.999Z</time></trkpt><trkpt lat="44.906803785537605" lon="8.859544592815807"><ele>113.0</ele><time>2026-04-28T10:12:13.999Z</time></trkpt><trkpt lat="44.90689809124481" lon="8.859665512257319"><ele>113.25</ele><time>2026-04-28T10:12:14.999Z</time></trkpt><trkpt lat="44.90698592704332" lon="8.859793868682807"><ele>113.5</ele><time>2026-04-28T10:12:15.999Z</time></trkpt><trkpt lat="44.907066438254056" lon="8.859928197476993"><ele>113.75</ele><time>2026-04-28T10:12:16.999Z</time></trkpt><trkpt lat="44.90714714516683" lon="8.860081078011257"><ele>114.0</ele><time>2026-04-28T10:12:17.998Z</time></trkpt><trkpt lat="44.90721884236073" lon="8.860239306247227"><ele>114.0</ele><time>2026-04-28T10:12:19Z</time></trkpt><trkpt lat="44.90726863209951" lon="8.860409292743915"><ele>114.0</ele><time>2026-04-28T10:12:20Z</time></trkpt><trkpt lat="44.907337541212364" lon="8.86055380018492"><ele>114.0</ele><time>2026-04-28T10:12:21Z</time></trkpt><trkpt lat="44.907383298390165" lon="8.860711403972623"><ele>114.0</ele><time>2026-04-28T10:12:22Z</time></trkpt><trkpt lat="44.90742619927626" lon="8.860863533733207"><ele>113.5</ele><time>2026-04-28T10:12:23Z</time></trkpt><trkpt lat="44.90746593460933" lon="8.861018809011215"><ele>113.0</ele><time>2026-04-28T10:12:24Z</time></trkpt><trkpt lat="44.90750728652596" lon="8.861178484880812"><ele>112.5</ele><time>2026-04-28T10:12:25Z</time></trkpt><trkpt lat="44.907539832564396" lon="8.861341489630101"><ele>112.0</ele><time>2026-04-28T10:12:26Z</time></trkpt><trkpt lat="44.90754776141323" lon="8.86152436742951"><ele>112.0</ele><time>2026-04-28T10:12:27Z</time></trkpt><trkpt lat="44.90756566011984" lon="8.861713258620913"><ele>112.0</ele><time>2026-04-28T10:12:28Z</time></trkpt><trkpt lat="44.90757898288352" lon="8.861926320379986"><ele>112.0</ele><time>2026-04-28T10:12:29Z</time></trkpt><trkpt lat="44.90758848036997" lon="8.862134596078956"><ele>112.0</ele><time>2026-04-28T10:12:30Z</time></trkpt><trkpt lat="44.90759000943563" lon="8.862348807655097"><ele>112.0</ele><time>2026-04-28T10:12:31Z</time></trkpt><trkpt lat="44.90759312794122" lon="8.862602943009039"><ele>112.0</ele><time>2026-04-28T10:12:32Z</time></trkpt><trkpt lat="44.90759564697956" lon="8.862868768258318"><ele>112.0</ele><time>2026-04-28T10:12:33Z</time></trkpt><trkpt lat="44.90759738575365" lon="8.863133802095353"><ele>111.33333333333334</ele><time>2026-04-28T10:12:34Z</time></trkpt><trkpt lat="44.90761332245185" lon="8.86338142352907"><ele>110.66666666666666</ele><time>2026-04-28T10:12:35Z</time></trkpt><trkpt lat="44.90761052852047" lon="8.86361233774047"><ele>110.0</ele><time>2026-04-28T10:12:36Z</time></trkpt><trkpt lat="44.907608710559515" lon="8.86382983957514"><ele>110.0</ele><time>2026-04-28T10:12:37Z</time></trkpt><trkpt lat="44.90760942192333" lon="8.86403664588524"><ele>110.0</ele><time>2026-04-28T10:12:38Z</time></trkpt><trkpt lat="44.907611851752655" lon="8.864231916998255"><ele>110.0</ele><time>2026-04-28T10:12:39Z</time></trkpt><trkpt lat="44.907612839149316" lon="8.864436464558471"><ele>110.0</ele><time>2026-04-28T10:12:40Z</time></trkpt><trkpt lat="44.907617243841315" lon="8.864667268879014"><ele>110.0</ele><time>2026-04-28T10:12:41Z</time></trkpt><trkpt lat="44.90761989385383" lon="8.864892558410178"><ele>110.0</ele><time>2026-04-28T10:12:42Z</time></trkpt><trkpt lat="44.90762551675844" lon="8.865119289924815"><ele>110.0</ele><time>2026-04-28T10:12:43Z</time></trkpt><trkpt lat="44.90762179861404" lon="8.865359711957325"><ele>110.0</ele><time>2026-04-28T10:12:44Z</time></trkpt><trkpt lat="44.90762361933143" lon="8.865591634638715"><ele>110.0</ele><time>2026-04-28T10:12:45Z</time></trkpt><trkpt lat="44.90762542443701" lon="8.86582043098939"><ele>110.0</ele><time>2026-04-28T10:12:46Z</time></trkpt><trkpt lat="44.90761059611697" lon="8.866042146446024"><ele>110.0</ele><time>2026-04-28T10:12:47Z</time></trkpt><trkpt lat="44.90761041076115" lon="8.866273786807502"><ele>110.0</ele><time>2026-04-28T10:12:48Z</time></trkpt><trkpt lat="44.90762008710848" lon="8.866495136147256"><ele>110.0</ele><time>2026-04-28T10:12:49Z</time></trkpt><trkpt lat="44.90762663791343" lon="8.866705523388173"><ele>110.25</ele><time>2026-04-28T10:12:50Z</time></trkpt><trkpt lat="44.90763058164177" lon="8.866901937420828"><ele>110.5</ele><time>2026-04-28T10:12:51Z</time></trkpt><trkpt lat="44.907634573521555" lon="8.867097291532657"><ele>110.75</ele><time>2026-04-28T10:12:52Z</time></trkpt><trkpt lat="44.907639751572276" lon="8.867289452752484"><ele>111.0</ele><time>2026-04-28T10:12:53Z</time></trkpt><trkpt lat="44.90764536586136" lon="8.86747300841078"><ele>111.0</ele><time>2026-04-28T10:12:54Z</time></trkpt><trkpt lat="44.90764790867882" lon="8.867654452895085"><ele>111.0</ele><time>2026-04-28T10:12:55Z</time></trkpt><trkpt lat="44.90764977092451" lon="8.867850751160239"><ele>111.0</ele><time>2026-04-28T10:12:56Z</time></trkpt><trkpt lat="44.90765628263732" lon="8.868049506543404"><ele>111.0</ele><time>2026-04-28T10:12:57Z</time></trkpt><trkpt lat="44.90766973581913" lon="8.868250388605457"><ele>111.0</ele><time>2026-04-28T10:12:58Z</time></trkpt><trkpt lat="44.907639872741875" lon="8.868430486641149"><ele>111.0</ele><time>2026-04-28T10:12:59Z</time></trkpt><trkpt lat="44.907641239917346" lon="8.868612508912149"><ele>111.0</ele><time>2026-04-28T10:13:00Z</time></trkpt><trkpt lat="44.9076422092844" lon="8.868765067723546"><ele>111.0</ele><time>2026-04-28T10:13:01Z</time></trkpt><trkpt lat="44.90764320223047" lon="8.868915853771213"><ele>111.0</ele><time>2026-04-28T10:13:02Z</time></trkpt><trkpt lat="44.907644259347286" lon="8.8690601708215"><ele>111.0</ele><time>2026-04-28T10:13:03Z</time></trkpt><trkpt lat="44.90764503806855" lon="8.86915343987002"><ele>111.0</ele><time>2026-04-28T10:13:04Z</time></trkpt><trkpt lat="44.90764586528795" lon="8.86925251726608"><ele>111.0</ele><time>2026-04-28T10:13:05Z</time></trkpt><trkpt lat="44.9076635704016" lon="8.869431154403351"><ele>111.0</ele><time>2026-04-28T10:13:06.999Z</time></trkpt><trkpt lat="44.90765710836484" lon="8.86953147810592"><ele>111.0</ele><time>2026-04-28T10:13:08.999Z</time></trkpt><trkpt lat="44.90765265511728" lon="8.869631902394724"><ele>111.0</ele><time>2026-04-28T10:13:13.999Z</time></trkpt><trkpt lat="44.90764515878227" lon="8.86975008851584"><ele>111.0</ele><time>2026-04-28T10:13:17.999Z</time></trkpt><trkpt lat="44.90762878666453" lon="8.869854904080492"><ele>111.0</ele><time>2026-04-28T10:13:19.999Z</time></trkpt><trkpt lat="44.90759432924562" lon="8.869989443639833"><ele>111.0</ele><time>2026-04-28T10:13:21.999Z</time></trkpt><trkpt lat="44.90761078172622" lon="8.870160055421485"><ele>111.0</ele><time>2026-04-28T10:13:23.999Z</time></trkpt><trkpt lat="44.907638520297326" lon="8.870294326997872"><ele>110.75</ele><time>2026-04-28T10:13:24.999Z</time></trkpt><trkpt lat="44.907659187554124" lon="8.870448263302656"><ele>110.5</ele><time>2026-04-28T10:13:25.999Z</time></trkpt><trkpt lat="44.90766256055763" lon="8.870622386414555"><ele>110.25</ele><time>2026-04-28T10:13:26.999Z</time></trkpt><trkpt lat="44.907661004070704" lon="8.870851527183058"><ele>110.0</ele><time>2026-04-28T10:13:27.999Z</time></trkpt><trkpt lat="44.90766507652816" lon="8.871058529905511"><ele>109.75</ele><time>2026-04-28T10:13:28.999Z</time></trkpt><trkpt lat="44.90767010722855" lon="8.871258765665209"><ele>109.5</ele><time>2026-04-28T10:13:29.999Z</time></trkpt><trkpt lat="44.90767040950157" lon="8.8714300529873"><ele>109.25</ele><time>2026-04-28T10:13:30.999Z</time></trkpt><trkpt lat="44.9076671961249" lon="8.871601285909833"><ele>109.0</ele><time>2026-04-28T10:13:31.999Z</time></trkpt><trkpt lat="44.90766638576759" lon="8.871776071954121"><ele>109.0</ele><time>2026-04-28T10:13:32.999Z</time></trkpt><trkpt lat="44.907666092877335" lon="8.871959291387336"><ele>109.0</ele><time>2026-04-28T10:13:33.999Z</time></trkpt><trkpt lat="44.9076680123771" lon="8.872154040014953"><ele>109.0</ele><time>2026-04-28T10:13:34.999Z</time></trkpt><trkpt lat="44.90767392214296" lon="8.872357704195693"><ele>109.0</ele><time>2026-04-28T10:13:35.999Z</time></trkpt><trkpt lat="44.90768144430753" lon="8.872570465214414"><ele>109.0</ele><time>2026-04-28T10:13:36.999Z</time></trkpt><trkpt lat="44.90768342253606" lon="8.872810552595965"><ele>109.0</ele><time>2026-04-28T10:13:37.999Z</time></trkpt><trkpt lat="44.90768650838014" lon="8.87306340247547"><ele>109.0</ele><time>2026-04-28T10:13:38.999Z</time></trkpt><trkpt lat="44.90768916373526" lon="8.873326209515412"><ele>109.33333333333334</ele><time>2026-04-28T10:13:39.999Z</time></trkpt><trkpt lat="44.90769126401663" lon="8.873587124638405"><ele>109.66666666666666</ele><time>2026-04-28T10:13:40.999Z</time></trkpt><trkpt lat="44.90769436818773" lon="8.87384313358002"><ele>110.0</ele><time>2026-04-28T10:13:41.999Z</time></trkpt><trkpt lat="44.907696886362324" lon="8.87409517974863"><ele>110.66666666666666</ele><time>2026-04-28T10:13:42.999Z</time></trkpt><trkpt lat="44.90769666803242" lon="8.874346318150465"><ele>111.33333333333334</ele><time>2026-04-28T10:13:43.999Z</time></trkpt><trkpt lat="44.90769727707515" lon="8.87458266887802"><ele>112.0</ele><time>2026-04-28T10:13:44.999Z</time></trkpt><trkpt lat="44.907698015063076" lon="8.87480475339601"><ele>112.0</ele><time>2026-04-28T10:13:45.999Z</time></trkpt><trkpt lat="44.90769780145739" lon="8.875015729601973"><ele>112.0</ele><time>2026-04-28T10:13:46.999Z</time></trkpt><trkpt lat="44.90769628616065" lon="8.875221789586933"><ele>112.0</ele><time>2026-04-28T10:13:47.999Z</time></trkpt><trkpt lat="44.90769536592766" lon="8.875408695527755"><ele>112.0</ele><time>2026-04-28T10:13:48.999Z</time></trkpt><trkpt lat="44.90769607548476" lon="8.875590668167828"><ele>112.0</ele><time>2026-04-28T10:13:49.999Z</time></trkpt><trkpt lat="44.907698046408235" lon="8.875764586021397"><ele>112.0</ele><time>2026-04-28T10:13:50.999Z</time></trkpt><trkpt lat="44.90770027550565" lon="8.875933308772515"><ele>112.0</ele><time>2026-04-28T10:13:51.999Z</time></trkpt><trkpt lat="44.9077051190659" lon="8.876098825373612"><ele>112.0</ele><time>2026-04-28T10:13:52.999Z</time></trkpt><trkpt lat="44.90770574881217" lon="8.876273506238089"><ele>112.25</ele><time>2026-04-28T10:13:53.999Z</time></trkpt><trkpt lat="44.90770863984485" lon="8.8764555852631"><ele>112.5</ele><time>2026-04-28T10:13:54.999Z</time></trkpt><trkpt lat="44.90771047304807" lon="8.876642032199932"><ele>112.75</ele><time>2026-04-28T10:13:55.999Z</time></trkpt><trkpt lat="44.907713657195536" lon="8.87682524698607"><ele>113.0</ele><time>2026-04-28T10:13:56.999Z</time></trkpt><trkpt lat="44.90771745632908" lon="8.877000214222255"><ele>113.25</ele><time>2026-04-28T10:13:57.999Z</time></trkpt><trkpt lat="44.907722629070804" lon="8.877178056552413"><ele>113.5</ele><time>2026-04-28T10:13:58.999Z</time></trkpt><trkpt lat="44.90772427880805" lon="8.877337218500376"><ele>113.75</ele><time>2026-04-28T10:13:59.999Z</time></trkpt><trkpt lat="44.90772358600368" lon="8.877496638348287"><ele>114.0</ele><time>2026-04-28T10:14:00.999Z</time></trkpt><trkpt lat="44.907725454247014" lon="8.877639378971258"><ele>114.16666666666667</ele><time>2026-04-28T10:14:01.999Z</time></trkpt><trkpt lat="44.90772151660786" lon="8.87778579394978"><ele>114.33333333333334</ele><time>2026-04-28T10:14:03.999Z</time></trkpt><trkpt lat="44.907721579086584" lon="8.877912438816471"><ele>114.5</ele><time>2026-04-28T10:14:05.999Z</time></trkpt><trkpt lat="44.90771860643084" lon="8.878016378401842"><ele>114.66666666666667</ele><time>2026-04-28T10:14:06.999Z</time></trkpt><trkpt lat="44.907724655280454" lon="8.878139420920323"><ele>114.83333333333334</ele><time>2026-04-28T10:14:07.999Z</time></trkpt><trkpt lat="44.90771806624415" lon="8.878254343023052"><ele>115.0</ele><time>2026-04-28T10:14:08.999Z</time></trkpt><trkpt lat="44.90772343728516" lon="8.878361739879535"><ele>114.6</ele><time>2026-04-28T10:14:10.999Z</time></trkpt><trkpt lat="44.90769828476057" lon="8.878488577988167"><ele>114.2</ele><time>2026-04-28T10:14:13.999Z</time></trkpt><trkpt lat="44.907679820432115" lon="8.878592394704482"><ele>113.80000000000001</ele><time>2026-04-28T10:14:14.999Z</time></trkpt><trkpt lat="44.90766476663266" lon="8.878717234959764"><ele>113.4</ele><time>2026-04-28T10:14:15.999Z</time></trkpt><trkpt lat="44.907673017705555" lon="8.878865388822472"><ele>113.0</ele><time>2026-04-28T10:14:16.999Z</time></trkpt><trkpt lat="44.907694095398945" lon="8.879031673453945"><ele>113.0</ele><time>2026-04-28T10:14:17.999Z</time></trkpt><trkpt lat="44.90770757862753" lon="8.879222339602654"><ele>113.0</ele><time>2026-04-28T10:14:18.999Z</time></trkpt><trkpt lat="44.90771060362116" lon="8.879400013867466"><ele>113.0</ele><time>2026-04-28T10:14:19.999Z</time></trkpt><trkpt lat="44.907716629683364" lon="8.879563818308501"><ele>113.0</ele><time>2026-04-28T10:14:20.999Z</time></trkpt><trkpt lat="44.907719684734545" lon="8.879720829304873"><ele>113.0</ele><time>2026-04-28T10:14:21.998Z</time></trkpt><trkpt lat="44.907726014914644" lon="8.879878461809412"><ele>113.0</ele><time>2026-04-28T10:14:22.998Z</time></trkpt><trkpt lat="44.90773233241843" lon="8.880056794788526"><ele>113.0</ele><time>2026-04-28T10:14:23.998Z</time></trkpt><trkpt lat="44.90774479653779" lon="8.880243518645482"><ele>113.0</ele><time>2026-04-28T10:14:25Z</time></trkpt><trkpt lat="44.90775987138072" lon="8.880446422397625"><ele>113.0</ele><time>2026-04-28T10:14:26Z</time></trkpt><trkpt lat="44.907785387605074" lon="8.880662159929116"><ele>113.0</ele><time>2026-04-28T10:14:27Z</time></trkpt><trkpt lat="44.90782318406626" lon="8.880882726675152"><ele>113.0</ele><time>2026-04-28T10:14:28Z</time></trkpt><trkpt lat="44.907872983066675" lon="8.881111604807733"><ele>113.0</ele><time>2026-04-28T10:14:29Z</time></trkpt><trkpt lat="44.90793249893165" lon="8.881329909457875"><ele>113.0</ele><time>2026-04-28T10:14:30Z</time></trkpt><trkpt lat="44.90799634815542" lon="8.881543386649257"><ele>113.0</ele><time>2026-04-28T10:14:31Z</time></trkpt><trkpt lat="44.90806264971255" lon="8.881740900251486"><ele>112.66666666666666</ele><time>2026-04-28T10:14:32Z</time></trkpt><trkpt lat="44.90812882753917" lon="8.881947139136606"><ele>112.33333333333334</ele><time>2026-04-28T10:14:33Z</time></trkpt><trkpt lat="44.908193255135096" lon="8.882151600778963"><ele>112.0</ele><time>2026-04-28T10:14:34Z</time></trkpt><trkpt lat="44.90825347432017" lon="8.882356940299626"><ele>112.0</ele><time>2026-04-28T10:14:35Z</time></trkpt><trkpt lat="44.90830559500365" lon="8.88255241027469"><ele>112.0</ele><time>2026-04-28T10:14:36Z</time></trkpt><trkpt lat="44.90835057019338" lon="8.88273403963625"><ele>112.0</ele><time>2026-04-28T10:14:37Z</time></trkpt><trkpt lat="44.908367038507535" lon="8.882942799701828"><ele>112.0</ele><time>2026-04-28T10:14:38Z</time></trkpt><trkpt lat="44.908371460844194" lon="8.883156305973879"><ele>112.25</ele><time>2026-04-28T10:14:39Z</time></trkpt><trkpt lat="44.9083675440071" lon="8.883376416999148"><ele>112.5</ele><time>2026-04-28T10:14:40Z</time></trkpt><trkpt lat="44.908351316932226" lon="8.88358683572464"><ele>112.75</ele><time>2026-04-28T10:14:41Z</time></trkpt><trkpt lat="44.90833150082042" lon="8.88377895064173"><ele>113.0</ele><time>2026-04-28T10:14:42Z</time></trkpt><trkpt lat="44.90830337187851" lon="8.883969488287754"><ele>113.0</ele><time>2026-04-28T10:14:43Z</time></trkpt><trkpt lat="44.90827315563699" lon="8.884159305269296"><ele>113.0</ele><time>2026-04-28T10:14:44Z</time></trkpt><trkpt lat="44.90823935891618" lon="8.884338171910475"><ele>113.0</ele><time>2026-04-28T10:14:45Z</time></trkpt><trkpt lat="44.908203098741694" lon="8.884523678865275"><ele>113.0</ele><time>2026-04-28T10:14:46Z</time></trkpt><trkpt lat="44.9081676607809" lon="8.884703562427505"><ele>112.60000000000001</ele><time>2026-04-28T10:14:47Z</time></trkpt><trkpt lat="44.90813716934105" lon="8.884862254756849"><ele>112.20000000000002</ele><time>2026-04-28T10:14:48Z</time></trkpt><trkpt lat="44.90810977808973" lon="8.884990792648056"><ele>111.8</ele><time>2026-04-28T10:14:49Z</time></trkpt><trkpt lat="44.90808462682367" lon="8.885085973474927"><ele>111.4</ele><time>2026-04-28T10:14:50Z</time></trkpt><trkpt lat="44.908009868782585" lon="8.885203465553499"><ele>111.0</ele><time>2026-04-28T10:14:52Z</time></trkpt><trkpt lat="44.907932922421395" lon="8.885293051046908"><ele>111.0</ele><time>2026-04-28T10:14:54Z</time></trkpt><trkpt lat="44.90790775526082" lon="8.885444529070964"><ele>111.0</ele><time>2026-04-28T10:14:56Z</time></trkpt><trkpt lat="44.90792522926619" lon="8.885546554854562"><ele>111.0</ele><time>2026-04-28T10:14:57Z</time></trkpt><trkpt lat="44.9079594169411" lon="8.885664205641545"><ele>111.0</ele><time>2026-04-28T10:14:58Z</time></trkpt><trkpt lat="44.907970982258526" lon="8.885794382644473"><ele>111.0</ele><time>2026-04-28T10:14:59Z</time></trkpt><trkpt lat="44.90797323801818" lon="8.885951603836906"><ele>111.0</ele><time>2026-04-28T10:15:00Z</time></trkpt><trkpt lat="44.90796669274908" lon="8.886117013175145"><ele>111.0</ele><time>2026-04-28T10:15:01Z</time></trkpt><trkpt lat="44.90794981476651" lon="8.886303917110984"><ele>111.0</ele><time>2026-04-28T10:15:02Z</time></trkpt><trkpt lat="44.9079353913765" lon="8.88649181834185"><ele>111.0</ele><time>2026-04-28T10:15:03Z</time></trkpt><trkpt lat="44.907922636904665" lon="8.88667284907414"><ele>110.75</ele><time>2026-04-28T10:15:04Z</time></trkpt><trkpt lat="44.907909330211055" lon="8.886848910015372"><ele>110.5</ele><time>2026-04-28T10:15:05Z</time></trkpt><trkpt lat="44.907899058655175" lon="8.887021111691096"><ele>110.25</ele><time>2026-04-28T10:15:06Z</time></trkpt><trkpt lat="44.90788266741218" lon="8.88720616460338"><ele>110.0</ele><time>2026-04-28T10:15:07Z</time></trkpt><trkpt lat="44.90785347220431" lon="8.887396532128964"><ele>110.0</ele><time>2026-04-28T10:15:08Z</time></trkpt><trkpt lat="44.907822674238" lon="8.887592040450489"><ele>110.0</ele><time>2026-04-28T10:15:09Z</time></trkpt><trkpt lat="44.90779626651777" lon="8.887800887287316"><ele>110.0</ele><time>2026-04-28T10:15:10Z</time></trkpt><trkpt lat="44.90776931086958" lon="8.888008091566743"><ele>110.0</ele><time>2026-04-28T10:15:11Z</time></trkpt><trkpt lat="44.90774527445038" lon="8.888203566897667"><ele>110.0</ele><time>2026-04-28T10:15:12Z</time></trkpt><trkpt lat="44.90772067857005" lon="8.8884015004072"><ele>110.0</ele><time>2026-04-28T10:15:13Z</time></trkpt><trkpt lat="44.90769433688622" lon="8.888604746608666"><ele>110.0</ele><time>2026-04-28T10:15:14Z</time></trkpt><trkpt lat="44.907650950001404" lon="8.888802142185986"><ele>110.0</ele><time>2026-04-28T10:15:15Z</time></trkpt><trkpt lat="44.907638104097316" lon="8.889013982042945"><ele>110.66666666666666</ele><time>2026-04-28T10:15:16Z</time></trkpt><trkpt lat="44.9075937721204" lon="8.889220503906989"><ele>111.33333333333334</ele><time>2026-04-28T10:15:17Z</time></trkpt><trkpt lat="44.90756476415322" lon="8.889432750361019"><ele>112.0</ele><time>2026-04-28T10:15:18Z</time></trkpt><trkpt lat="44.90753602672184" lon="8.88964590792149"><ele>112.0</ele><time>2026-04-28T10:15:19Z</time></trkpt><trkpt lat="44.90750737124779" lon="8.889858409252712"><ele>112.0</ele><time>2026-04-28T10:15:19.999Z</time></trkpt><trkpt lat="44.907478507992295" lon="8.89007245158237"><ele>112.0</ele><time>2026-04-28T10:15:20.999Z</time></trkpt><trkpt lat="44.907448743762394" lon="8.890293175102256"><ele>112.0</ele><time>2026-04-28T10:15:21.999Z</time></trkpt><trkpt lat="44.90741951180349" lon="8.890509951858668"><ele>112.0</ele><time>2026-04-28T10:15:22.999Z</time></trkpt><trkpt lat="44.90738822054646" lon="8.89074199928158"><ele>112.0</ele><time>2026-04-28T10:15:23.999Z</time></trkpt><trkpt lat="44.90735442224428" lon="8.891012955331314"><ele>112.0</ele><time>2026-04-28T10:15:24.999Z</time></trkpt><trkpt lat="44.90732095536433" lon="8.891315943477881"><ele>112.0</ele><time>2026-04-28T10:15:25.999Z</time></trkpt><trkpt lat="44.907292681805" lon="8.891598848180797"><ele>112.0</ele><time>2026-04-28T10:15:26.999Z</time></trkpt><trkpt lat="44.90726914081086" lon="8.891860067691988"><ele>112.33333333333334</ele><time>2026-04-28T10:15:27.999Z</time></trkpt><trkpt lat="44.90724901613769" lon="8.892127849569686"><ele>112.66666666666666</ele><time>2026-04-28T10:15:28.999Z</time></trkpt><trkpt lat="44.907246255070994" lon="8.892395485615944"><ele>113.0</ele><time>2026-04-28T10:15:29.999Z</time></trkpt><trkpt lat="44.90722625321892" lon="8.892657215360346"><ele>113.0</ele><time>2026-04-28T10:15:30.999Z</time></trkpt><trkpt lat="44.90721318287335" lon="8.892911887184967"><ele>113.0</ele><time>2026-04-28T10:15:31.999Z</time></trkpt><trkpt lat="44.90719349655325" lon="8.893168235942046"><ele>113.0</ele><time>2026-04-28T10:15:32.999Z</time></trkpt><trkpt lat="44.90717711804137" lon="8.893429110811505"><ele>113.33333333333333</ele><time>2026-04-28T10:15:33.999Z</time></trkpt><trkpt lat="44.907161452924335" lon="8.893687514835507"><ele>113.66666666666666</ele><time>2026-04-28T10:15:34.999Z</time></trkpt><trkpt lat="44.90714468926793" lon="8.89393945491626"><ele>114.0</ele><time>2026-04-28T10:15:35.999Z</time></trkpt><trkpt lat="44.90712892927149" lon="8.894168554774097"><ele>114.0</ele><time>2026-04-28T10:15:36.999Z</time></trkpt><trkpt lat="44.90711262163101" lon="8.894399155650667"><ele>114.0</ele><time>2026-04-28T10:15:37.999Z</time></trkpt><trkpt lat="44.90709641791115" lon="8.894647987998475"><ele>114.0</ele><time>2026-04-28T10:15:38.999Z</time></trkpt><trkpt lat="44.90708142946819" lon="8.894888483203275"><ele>114.0</ele><time>2026-04-28T10:15:39.999Z</time></trkpt><trkpt lat="44.907066932181685" lon="8.895129115797703"><ele>114.0</ele><time>2026-04-28T10:15:40.999Z</time></trkpt><trkpt lat="44.90705304208445" lon="8.895346568506268"><ele>114.0</ele><time>2026-04-28T10:15:41.999Z</time></trkpt><trkpt lat="44.907039975091855" lon="8.895559382471996"><ele>114.0</ele><time>2026-04-28T10:15:42.999Z</time></trkpt><trkpt lat="44.90702848347497" lon="8.895779993186574"><ele>114.0</ele><time>2026-04-28T10:15:43.999Z</time></trkpt><trkpt lat="44.90701390762422" lon="8.896007748222996"><ele>114.0</ele><time>2026-04-28T10:15:44.999Z</time></trkpt><trkpt lat="44.906997094484964" lon="8.896242852773684"><ele>113.66666666666666</ele><time>2026-04-28T10:15:45.999Z</time></trkpt><trkpt lat="44.90698093812063" lon="8.896487699502767"><ele>113.33333333333333</ele><time>2026-04-28T10:15:46.999Z</time></trkpt><trkpt lat="44.90696596728752" lon="8.896737182060898"><ele>113.0</ele><time>2026-04-28T10:15:47.999Z</time></trkpt><trkpt lat="44.906948498783656" lon="8.896994670850065"><ele>113.0</ele><time>2026-04-28T10:15:48.999Z</time></trkpt><trkpt lat="44.906930185455415" lon="8.897254035348336"><ele>113.0</ele><time>2026-04-28T10:15:49.999Z</time></trkpt><trkpt lat="44.906911083130396" lon="8.897519949488958"><ele>113.0</ele><time>2026-04-28T10:15:50.999Z</time></trkpt><trkpt lat="44.90689106772414" lon="8.897776405498327"><ele>113.33333333333333</ele><time>2026-04-28T10:15:51.999Z</time></trkpt><trkpt lat="44.90687703893076" lon="8.898021946629484"><ele>113.66666666666666</ele><time>2026-04-28T10:15:52.999Z</time></trkpt><trkpt lat="44.90686161383184" lon="8.898263525139196"><ele>114.0</ele><time>2026-04-28T10:15:53.999Z</time></trkpt><trkpt lat="44.9068466407825" lon="8.898506278108789"><ele>114.33333333333334</ele><time>2026-04-28T10:15:54.999Z</time></trkpt><trkpt lat="44.90683206104283" lon="8.898737481529277"><ele>114.66666666666667</ele><time>2026-04-28T10:15:55.999Z</time></trkpt><trkpt lat="44.906816952989836" lon="8.898951735951428"><ele>115.0</ele><time>2026-04-28T10:15:56.999Z</time></trkpt><trkpt lat="44.90680932463612" lon="8.899158087839572"><ele>115.0</ele><time>2026-04-28T10:15:57.999Z</time></trkpt><trkpt lat="44.90680203976405" lon="8.89936091556051"><ele>115.0</ele><time>2026-04-28T10:15:58.999Z</time></trkpt><trkpt lat="44.906796565191165" lon="8.89956328005652"><ele>115.0</ele><time>2026-04-28T10:15:59.999Z</time></trkpt><trkpt lat="44.906803629114656" lon="8.899770572826514"><ele>115.0</ele><time>2026-04-28T10:16:00.999Z</time></trkpt><trkpt lat="44.90682099525043" lon="8.899991480727403"><ele>115.0</ele><time>2026-04-28T10:16:01.999Z</time></trkpt><trkpt lat="44.90684659489699" lon="8.900214564936906"><ele>115.0</ele><time>2026-04-28T10:16:02.999Z</time></trkpt><trkpt lat="44.906881494471776" lon="8.900424794441715"><ele>115.0</ele><time>2026-04-28T10:16:03.999Z</time></trkpt><trkpt lat="44.906924660302096" lon="8.90063158012077"><ele>115.0</ele><time>2026-04-28T10:16:04.999Z</time></trkpt><trkpt lat="44.90697248675304" lon="8.900826939345327"><ele>115.0</ele><time>2026-04-28T10:16:05.999Z</time></trkpt><trkpt lat="44.907019946873106" lon="8.90102117019932"><ele>115.0</ele><time>2026-04-28T10:16:06.999Z</time></trkpt><trkpt lat="44.907069615071144" lon="8.90121797765209"><ele>115.0</ele><time>2026-04-28T10:16:07.999Z</time></trkpt><trkpt lat="44.907119214882364" lon="8.901413051594867"><ele>115.0</ele><time>2026-04-28T10:16:08.999Z</time></trkpt><trkpt lat="44.907170195323545" lon="8.90161801439837"><ele>115.0</ele><time>2026-04-28T10:16:09.999Z</time></trkpt><trkpt lat="44.907225816867154" lon="8.901819200367585"><ele>115.0</ele><time>2026-04-28T10:16:10.999Z</time></trkpt><trkpt lat="44.90727956268763" lon="8.902030093982868"><ele>115.0</ele><time>2026-04-28T10:16:11.999Z</time></trkpt><trkpt lat="44.90733223377024" lon="8.902247626309329"><ele>115.0</ele><time>2026-04-28T10:16:12.999Z</time></trkpt><trkpt lat="44.90739028820473" lon="8.902460460655949"><ele>115.0</ele><time>2026-04-28T10:16:13.999Z</time></trkpt><trkpt lat="44.907449148467684" lon="8.902679269199988"><ele>115.0</ele><time>2026-04-28T10:16:14.999Z</time></trkpt><trkpt lat="44.90750397710066" lon="8.902875522747667"><ele>115.0</ele><time>2026-04-28T10:16:15.999Z</time></trkpt><trkpt lat="44.90755777999254" lon="8.903077597932997"><ele>115.0</ele><time>2026-04-28T10:16:16.999Z</time></trkpt><trkpt lat="44.907611532511545" lon="8.903283765206965"><ele>115.33333333333334</ele><time>2026-04-28T10:16:17.999Z</time></trkpt><trkpt lat="44.90766254273989" lon="8.903499102814"><ele>115.66666666666666</ele><time>2026-04-28T10:16:18.999Z</time></trkpt><trkpt lat="44.907705492218085" lon="8.90372169161527"><ele>116.0</ele><time>2026-04-28T10:16:19.999Z</time></trkpt><trkpt lat="44.90773894896961" lon="8.903947224151516"><ele>116.0</ele><time>2026-04-28T10:16:20.999Z</time></trkpt><trkpt lat="44.90775900189817" lon="8.904171746497614"><ele>116.0</ele><time>2026-04-28T10:16:21.999Z</time></trkpt><trkpt lat="44.90776530583593" lon="8.904394168315605"><ele>116.0</ele><time>2026-04-28T10:16:22.999Z</time></trkpt><trkpt lat="44.907763695658915" lon="8.904616246458545"><ele>116.0</ele><time>2026-04-28T10:16:23.999Z</time></trkpt><trkpt lat="44.90774011959925" lon="8.904854779989623"><ele>116.0</ele><time>2026-04-28T10:16:24.999Z</time></trkpt><trkpt lat="44.907725727737194" lon="8.90508010774972"><ele>116.0</ele><time>2026-04-28T10:16:25.999Z</time></trkpt><trkpt lat="44.90771168033246" lon="8.905295375570415"><ele>116.0</ele><time>2026-04-28T10:16:26.999Z</time></trkpt><trkpt lat="44.90769750885031" lon="8.905508874785609"><ele>116.0</ele><time>2026-04-28T10:16:27.999Z</time></trkpt><trkpt lat="44.90769047061624" lon="8.905702943196477"><ele>116.0</ele><time>2026-04-28T10:16:28.999Z</time></trkpt><trkpt lat="44.90767786096446" lon="8.905904423890698"><ele>116.0</ele><time>2026-04-28T10:16:29.999Z</time></trkpt><trkpt lat="44.907659496794906" lon="8.906113252718091"><ele>116.33333333333333</ele><time>2026-04-28T10:16:31Z</time></trkpt><trkpt lat="44.90764228264812" lon="8.90631592383358"><ele>116.66666666666666</ele><time>2026-04-28T10:16:32Z</time></trkpt><trkpt lat="44.907627666881375" lon="8.90653765344515"><ele>117.0</ele><time>2026-04-28T10:16:33Z</time></trkpt><trkpt lat="44.90760984421056" lon="8.906759914361002"><ele>117.66666666666666</ele><time>2026-04-28T10:16:34Z</time></trkpt><trkpt lat="44.90759428006631" lon="8.906973500396461"><ele>118.33333333333333</ele><time>2026-04-28T10:16:35Z</time></trkpt><trkpt lat="44.90757073346548" lon="8.90718663777967"><ele>119.0</ele><time>2026-04-28T10:16:36Z</time></trkpt><trkpt lat="44.90755453861998" lon="8.907395417898258"><ele>119.66666666666666</ele><time>2026-04-28T10:16:37Z</time></trkpt><trkpt lat="44.90754295973211" lon="8.90761256470104"><ele>120.33333333333334</ele><time>2026-04-28T10:16:38Z</time></trkpt><trkpt lat="44.90753177545159" lon="8.90782432284847"><ele>121.0</ele><time>2026-04-28T10:16:39Z</time></trkpt><trkpt lat="44.907516719658155" lon="8.90803961215894"><ele>121.0</ele><time>2026-04-28T10:16:40Z</time></trkpt><trkpt lat="44.90749793642236" lon="8.908241400321709"><ele>121.0</ele><time>2026-04-28T10:16:41Z</time></trkpt><trkpt lat="44.90748094986044" lon="8.908454910916234"><ele>121.0</ele><time>2026-04-28T10:16:42Z</time></trkpt><trkpt lat="44.907465026692556" lon="8.908675416458792"><ele>121.0</ele><time>2026-04-28T10:16:43Z</time></trkpt><trkpt lat="44.90745359458163" lon="8.908894929410618"><ele>121.0</ele><time>2026-04-28T10:16:44Z</time></trkpt><trkpt lat="44.907441008752365" lon="8.909108275659143"><ele>121.0</ele><time>2026-04-28T10:16:45Z</time></trkpt><trkpt lat="44.907426520116054" lon="8.909325322099713"><ele>120.5</ele><time>2026-04-28T10:16:46Z</time></trkpt><trkpt lat="44.907414537685796" lon="8.909530372467776"><ele>120.0</ele><time>2026-04-28T10:16:47Z</time></trkpt><trkpt lat="44.90740455852002" lon="8.909717956062945"><ele>119.5</ele><time>2026-04-28T10:16:48Z</time></trkpt><trkpt lat="44.90739477847509" lon="8.909907535204749"><ele>119.0</ele><time>2026-04-28T10:16:49Z</time></trkpt><trkpt lat="44.90739049077244" lon="8.91009829470912"><ele>118.75</ele><time>2026-04-28T10:16:50Z</time></trkpt><trkpt lat="44.907386292179204" lon="8.910291175638603"><ele>118.5</ele><time>2026-04-28T10:16:51Z</time></trkpt><trkpt lat="44.907389887715915" lon="8.91047968961132"><ele>118.25</ele><time>2026-04-28T10:16:52Z</time></trkpt><trkpt lat="44.90738389370515" lon="8.91068010904159"><ele>118.0</ele><time>2026-04-28T10:16:53Z</time></trkpt><trkpt lat="44.90738013665976" lon="8.91089017487166"><ele>118.25</ele><time>2026-04-28T10:16:54Z</time></trkpt><trkpt lat="44.907378339853544" lon="8.911087634518955"><ele>118.5</ele><time>2026-04-28T10:16:55Z</time></trkpt><trkpt lat="44.90737594875491" lon="8.911304128133505"><ele>118.75</ele><time>2026-04-28T10:16:56Z</time></trkpt><trkpt lat="44.9073720770995" lon="8.911522436281365"><ele>119.0</ele><time>2026-04-28T10:16:57Z</time></trkpt><trkpt lat="44.90735658053521" lon="8.911750511013572"><ele>119.5</ele><time>2026-04-28T10:16:58Z</time></trkpt><trkpt lat="44.90735457732252" lon="8.91196374042167"><ele>120.0</ele><time>2026-04-28T10:16:59Z</time></trkpt><trkpt lat="44.90735303411101" lon="8.912169238952234"><ele>120.5</ele><time>2026-04-28T10:17:00Z</time></trkpt><trkpt lat="44.90734908282852" lon="8.912382939377407"><ele>121.0</ele><time>2026-04-28T10:17:01Z</time></trkpt><trkpt lat="44.907343424699455" lon="8.912573755351715"><ele>121.0</ele><time>2026-04-28T10:17:02Z</time></trkpt><trkpt lat="44.90734010384639" lon="8.912769151742708"><ele>121.0</ele><time>2026-04-28T10:17:03Z</time></trkpt><trkpt lat="44.90733914278562" lon="8.912970739796737"><ele>121.0</ele><time>2026-04-28T10:17:04Z</time></trkpt><trkpt lat="44.907336408889066" lon="8.913176154104855"><ele>121.0</ele><time>2026-04-28T10:17:05Z</time></trkpt><trkpt lat="44.90733056754215" lon="8.913381927859072"><ele>121.25</ele><time>2026-04-28T10:17:06Z</time></trkpt><trkpt lat="44.90732198443251" lon="8.913584638483627"><ele>121.5</ele><time>2026-04-28T10:17:07Z</time></trkpt><trkpt lat="44.9073144277521" lon="8.91377730298249"><ele>121.75</ele><time>2026-04-28T10:17:08Z</time></trkpt><trkpt lat="44.90732462719002" lon="8.913967540516783"><ele>122.0</ele><time>2026-04-28T10:17:09Z</time></trkpt><trkpt lat="44.907328611756604" lon="8.914146974902378"><ele>122.25</ele><time>2026-04-28T10:17:10Z</time></trkpt><trkpt lat="44.907327334540405" lon="8.914308058352061"><ele>122.5</ele><time>2026-04-28T10:17:11Z</time></trkpt><trkpt lat="44.90732432581107" lon="8.914458708566974"><ele>122.75</ele><time>2026-04-28T10:17:12Z</time></trkpt><trkpt lat="44.90731878286453" lon="8.91462995182677"><ele>123.0</ele><time>2026-04-28T10:17:13Z</time></trkpt><trkpt lat="44.907314069061556" lon="8.914794209395977"><ele>123.0</ele><time>2026-04-28T10:17:14Z</time></trkpt><trkpt lat="44.90731106373205" lon="8.914971743597363"><ele>123.0</ele><time>2026-04-28T10:17:15Z</time></trkpt><trkpt lat="44.907320195984944" lon="8.915135455594264"><ele>123.0</ele><time>2026-04-28T10:17:16Z</time></trkpt><trkpt lat="44.90731575641191" lon="8.9153028589122"><ele>123.0</ele><time>2026-04-28T10:17:17Z</time></trkpt><trkpt lat="44.907308351697104" lon="8.915470071926755"><ele>123.5</ele><time>2026-04-28T10:17:18Z</time></trkpt><trkpt lat="44.90730579260837" lon="8.915616475574748"><ele>124.0</ele><time>2026-04-28T10:17:19Z</time></trkpt><trkpt lat="44.90730484323753" lon="8.915782076460973"><ele>124.5</ele><time>2026-04-28T10:17:20Z</time></trkpt><trkpt lat="44.90729956436538" lon="8.915951021512898"><ele>125.0</ele><time>2026-04-28T10:17:21Z</time></trkpt><trkpt lat="44.90729592973231" lon="8.916108218635616"><ele>125.4</ele><time>2026-04-28T10:17:22Z</time></trkpt><trkpt lat="44.907293942046785" lon="8.91626049902542"><ele>125.8</ele><time>2026-04-28T10:17:22.999Z</time></trkpt><trkpt lat="44.90729203421837" lon="8.916394716737752"><ele>126.19999999999999</ele><time>2026-04-28T10:17:23.999Z</time></trkpt><trkpt lat="44.90729029031834" lon="8.916529718447"><ele>126.6</ele><time>2026-04-28T10:17:24.999Z</time></trkpt><trkpt lat="44.90728813915842" lon="8.916662471366173"><ele>127.0</ele><time>2026-04-28T10:17:25.999Z</time></trkpt><trkpt lat="44.90728690653054" lon="8.916823860994487"><ele>127.19999999999999</ele><time>2026-04-28T10:17:26.999Z</time></trkpt><trkpt lat="44.907284629495756" lon="8.916983035988995"><ele>127.39999999999999</ele><time>2026-04-28T10:17:27.999Z</time></trkpt><trkpt lat="44.90728170674893" lon="8.917135524420486"><ele>127.60000000000001</ele><time>2026-04-28T10:17:28.999Z</time></trkpt><trkpt lat="44.907273119158084" lon="8.917281401547138"><ele>127.80000000000001</ele><time>2026-04-28T10:17:29.999Z</time></trkpt><trkpt lat="44.907258397704666" lon="8.91741608397177"><ele>128.0</ele><time>2026-04-28T10:17:30.999Z</time></trkpt><trkpt lat="44.9072423748587" lon="8.91753377898083"><ele>127.99999999999999</ele><time>2026-04-28T10:17:31.999Z</time></trkpt><trkpt lat="44.90722452948703" lon="8.91765149051233"><ele>128.0</ele><time>2026-04-28T10:17:32.999Z</time></trkpt><trkpt lat="44.90720918522097" lon="8.917771386185255"><ele>128.0</ele><time>2026-04-28T10:17:33.999Z</time></trkpt><trkpt lat="44.907193408414386" lon="8.91787149378448"><ele>128.0</ele><time>2026-04-28T10:17:34.999Z</time></trkpt><trkpt lat="44.90717087635229" lon="8.917974491248218"><ele>127.99999999999999</ele><time>2026-04-28T10:17:35.999Z</time></trkpt><trkpt lat="44.907157347844205" lon="8.918073609184901"><ele>128.0</ele><time>2026-04-28T10:17:36.999Z</time></trkpt><trkpt lat="44.90714241733603" lon="8.918176825618296"><ele>127.99999999999999</ele><time>2026-04-28T10:17:37.999Z</time></trkpt><trkpt lat="44.9071262131291" lon="8.918289723004035"><ele>128.0</ele><time>2026-04-28T10:17:38.999Z</time></trkpt><trkpt lat="44.90710856615895" lon="8.918393596149848"><ele>128.0</ele><time>2026-04-28T10:17:39.999Z</time></trkpt><trkpt lat="44.90709578903731" lon="8.918498095556654"><ele>128.0</ele><time>2026-04-28T10:17:40.999Z</time></trkpt><trkpt lat="44.907074854774386" lon="8.918607254569272"><ele>127.99999999999999</ele><time>2026-04-28T10:17:41.999Z</time></trkpt><trkpt lat="44.907056298429985" lon="8.918727483537424"><ele>128.0</ele><time>2026-04-28T10:17:42.999Z</time></trkpt><trkpt lat="44.907040580329436" lon="8.91886725008545"><ele>128.0</ele><time>2026-04-28T10:17:43.999Z</time></trkpt><trkpt lat="44.90700114142945" lon="8.9189989139877"><ele>128.0</ele><time>2026-04-28T10:17:44.999Z</time></trkpt><trkpt lat="44.906987036245965" lon="8.919137828691007"><ele>128.0</ele><time>2026-04-28T10:17:45.999Z</time></trkpt><trkpt lat="44.906954765493765" lon="8.919276984438758"><ele>128.0</ele><time>2026-04-28T10:17:46.999Z</time></trkpt><trkpt lat="44.90692002543925" lon="8.919421410585747"><ele>128.0</ele><time>2026-04-28T10:17:47.999Z</time></trkpt><trkpt lat="44.90688782384243" lon="8.919549391055051"><ele>127.99999999999999</ele><time>2026-04-28T10:17:48.999Z</time></trkpt><trkpt lat="44.906850708920636" lon="8.919675667851434"><ele>128.0</ele><time>2026-04-28T10:17:49.999Z</time></trkpt><trkpt lat="44.90681752723844" lon="8.919770107565624"><ele>128.0</ele><time>2026-04-28T10:17:50.999Z</time></trkpt><trkpt lat="44.90678533391629" lon="8.919864679640632"><ele>128.0</ele><time>2026-04-28T10:17:52.999Z</time></trkpt><trkpt lat="44.906759851534716" lon="8.919955900162263"><ele>127.99999999999999</ele><time>2026-04-28T10:21:13Z</time></trkpt><trkpt lat="44.90674983828443" lon="8.920050606587031"><ele>128.0</ele><time>2026-04-28T10:21:14Z</time></trkpt><trkpt lat="44.90672993172669" lon="8.920150422216027"><ele>128.4</ele><time>2026-04-28T10:21:15Z</time></trkpt><trkpt lat="44.90671218795449" lon="8.92025990064416"><ele>128.8</ele><time>2026-04-28T10:21:16Z</time></trkpt><trkpt lat="44.90666637962561" lon="8.920387796730342"><ele>129.2</ele><time>2026-04-28T10:21:17Z</time></trkpt><trkpt lat="44.906632246019754" lon="8.920497989671805"><ele>129.6</ele><time>2026-04-28T10:21:17.999Z</time></trkpt><trkpt lat="44.90661164891461" lon="8.920673612706231"><ele>130.0</ele><time>2026-04-28T10:21:18.999Z</time></trkpt><trkpt lat="44.90657764526664" lon="8.92081356508975"><ele>130.4</ele><time>2026-04-28T10:21:19.999Z</time></trkpt><trkpt lat="44.90655455405527" lon="8.920933447719447"><ele>130.8</ele><time>2026-04-28T10:21:20.999Z</time></trkpt><trkpt lat="44.90653433754296" lon="8.921025635833857"><ele>131.2</ele><time>2026-04-28T10:21:21.999Z</time></trkpt><trkpt lat="44.906500621352926" lon="8.9211538730436"><ele>131.6</ele><time>2026-04-28T10:21:22.999Z</time></trkpt><trkpt lat="44.90646439223663" lon="8.921287299252995"><ele>132.0</ele><time>2026-04-28T10:21:23.999Z</time></trkpt><trkpt lat="44.90643440954533" lon="8.921415634461148"><ele>132.0</ele><time>2026-04-28T10:21:24.999Z</time></trkpt><trkpt lat="44.906396223974276" lon="8.9215852256883"><ele>132.0</ele><time>2026-04-28T10:21:25.999Z</time></trkpt><trkpt lat="44.90635983600171" lon="8.921746023751197"><ele>132.0</ele><time>2026-04-28T10:21:26.999Z</time></trkpt><trkpt lat="44.90631885695119" lon="8.9219088910402"><ele>132.0</ele><time>2026-04-28T10:21:27.999Z</time></trkpt><trkpt lat="44.90627648330401" lon="8.92207998525884"><ele>132.0</ele><time>2026-04-28T10:21:28.999Z</time></trkpt><trkpt lat="44.9062280935989" lon="8.922251088442897"><ele>132.0</ele><time>2026-04-28T10:21:29.999Z</time></trkpt><trkpt lat="44.90617746182669" lon="8.922407732141483"><ele>132.0</ele><time>2026-04-28T10:21:30.999Z</time></trkpt><trkpt lat="44.906127083950736" lon="8.922579798855667"><ele>132.0</ele><time>2026-04-28T10:21:31.999Z</time></trkpt><trkpt lat="44.906085882515384" lon="8.92272433264068"><ele>132.0</ele><time>2026-04-28T10:21:32.999Z</time></trkpt><trkpt lat="44.90604553640227" lon="8.922883187984311"><ele>132.0</ele><time>2026-04-28T10:21:33.999Z</time></trkpt><trkpt lat="44.90599305250192" lon="8.92306140536274"><ele>132.0</ele><time>2026-04-28T10:21:34.999Z</time></trkpt><trkpt lat="44.905946345434685" lon="8.923238075381105"><ele>132.0</ele><time>2026-04-28T10:21:35.999Z</time></trkpt><trkpt lat="44.90589467765725" lon="8.923422854616627"><ele>132.25</ele><time>2026-04-28T10:21:36.999Z</time></trkpt><trkpt lat="44.90585062393449" lon="8.923609553344452"><ele>132.5</ele><time>2026-04-28T10:21:37.999Z</time></trkpt><trkpt lat="44.90582056870151" lon="8.923790545032853"><ele>132.75</ele><time>2026-04-28T10:21:38.999Z</time></trkpt><trkpt lat="44.90578342091943" lon="8.923970585719083"><ele>133.0</ele><time>2026-04-28T10:21:39.999Z</time></trkpt><trkpt lat="44.90575233367837" lon="8.92416345842176"><ele>133.0</ele><time>2026-04-28T10:21:40.999Z</time></trkpt><trkpt lat="44.90572479249307" lon="8.9243456278967"><ele>133.0</ele><time>2026-04-28T10:21:41.999Z</time></trkpt><trkpt lat="44.905700066682854" lon="8.924548585930278"><ele>133.0</ele><time>2026-04-28T10:21:42.999Z</time></trkpt><trkpt lat="44.90568006185736" lon="8.924738872575809"><ele>133.0</ele><time>2026-04-28T10:21:43.999Z</time></trkpt><trkpt lat="44.9056673059588" lon="8.924936038733806"><ele>133.0</ele><time>2026-04-28T10:21:44.999Z</time></trkpt><trkpt lat="44.90565683568316" lon="8.925124487811704"><ele>133.0</ele><time>2026-04-28T10:21:45.999Z</time></trkpt><trkpt lat="44.905657115971394" lon="8.925319283757187"><ele>133.0</ele><time>2026-04-28T10:21:46.999Z</time></trkpt><trkpt lat="44.90566041331482" lon="8.925531487554911"><ele>133.0</ele><time>2026-04-28T10:21:47.999Z</time></trkpt><trkpt lat="44.905664980760434" lon="8.925742197598195"><ele>133.66666666666669</ele><time>2026-04-28T10:21:48.999Z</time></trkpt><trkpt lat="44.90567057144159" lon="8.925954818178996"><ele>134.33333333333334</ele><time>2026-04-28T10:21:49.999Z</time></trkpt><trkpt lat="44.905675181437346" lon="8.926171632624337"><ele>135.0</ele><time>2026-04-28T10:21:50.999Z</time></trkpt><trkpt lat="44.905681154713434" lon="8.926379111517495"><ele>135.0</ele><time>2026-04-28T10:21:51.999Z</time></trkpt><trkpt lat="44.9056844132532" lon="8.926613754617021"><ele>135.0</ele><time>2026-04-28T10:21:52.999Z</time></trkpt><trkpt lat="44.90568751417603" lon="8.92680969453663"><ele>135.0</ele><time>2026-04-28T10:21:53.999Z</time></trkpt><trkpt lat="44.90568470580045" lon="8.927020234531073"><ele>135.25</ele><time>2026-04-28T10:21:54.999Z</time></trkpt><trkpt lat="44.90568554540605" lon="8.927202881420396"><ele>135.5</ele><time>2026-04-28T10:21:55.999Z</time></trkpt><trkpt lat="44.90568928226665" lon="8.927380630715799"><ele>135.75</ele><time>2026-04-28T10:21:56.999Z</time></trkpt><trkpt lat="44.905690052418805" lon="8.927550902500144"><ele>136.0</ele><time>2026-04-28T10:21:57.999Z</time></trkpt><trkpt lat="44.905693019031425" lon="8.927727724170877"><ele>136.25</ele><time>2026-04-28T10:21:58.999Z</time></trkpt><trkpt lat="44.90568131196788" lon="8.927902811457418"><ele>136.5</ele><time>2026-04-28T10:21:59.999Z</time></trkpt><trkpt lat="44.90568652147813" lon="8.928085897819177"><ele>136.75</ele><time>2026-04-28T10:22:00.999Z</time></trkpt><trkpt lat="44.9056866218951" lon="8.92827195012355"><ele>137.0</ele><time>2026-04-28T10:22:01.999Z</time></trkpt><trkpt lat="44.90569525232792" lon="8.928446389175713"><ele>136.5</ele><time>2026-04-28T10:22:02.999Z</time></trkpt><trkpt lat="44.905702094667205" lon="8.928634582054146"><ele>136.0</ele><time>2026-04-28T10:22:03.999Z</time></trkpt><trkpt lat="44.90571182324747" lon="8.928833874271438"><ele>135.5</ele><time>2026-04-28T10:22:04.999Z</time></trkpt><trkpt lat="44.905717945232894" lon="8.928998378299767"><ele>135.0</ele><time>2026-04-28T10:22:05.999Z</time></trkpt><trkpt lat="44.905715571396144" lon="8.929148677156471"><ele>135.0</ele><time>2026-04-28T10:22:06.999Z</time></trkpt><trkpt lat="44.90571021427498" lon="8.9292845957818"><ele>135.0</ele><time>2026-04-28T10:22:07.999Z</time></trkpt><trkpt lat="44.90572368413833" lon="8.929393222533836"><ele>135.0</ele><time>2026-04-28T10:22:08.999Z</time></trkpt><trkpt lat="44.905736235198894" lon="8.92951040552179"><ele>135.0</ele><time>2026-04-28T10:22:09.999Z</time></trkpt><trkpt lat="44.90574080914106" lon="8.92960852299198"><ele>135.0</ele><time>2026-04-28T10:22:10.999Z</time></trkpt><trkpt lat="44.90574612745525" lon="8.929714706616217"><ele>135.0</ele><time>2026-04-28T10:22:12.999Z</time></trkpt><trkpt lat="44.90575757162388" lon="8.929812527267716"><ele>135.0</ele><time>2026-04-28T10:22:17.999Z</time></trkpt><trkpt lat="44.90574990507536" lon="8.929908694965883"><ele>135.0</ele><time>2026-04-28T10:22:32.999Z</time></trkpt><trkpt lat="44.90575765124086" lon="8.930023507989894"><ele>135.0</ele><time>2026-04-28T10:22:33.999Z</time></trkpt><trkpt lat="44.90576611539029" lon="8.930148955491365"><ele>135.0</ele><time>2026-04-28T10:22:34.999Z</time></trkpt><trkpt lat="44.9057835081909" lon="8.930297130547963"><ele>135.0</ele><time>2026-04-28T10:22:35.999Z</time></trkpt><trkpt lat="44.90579406162467" lon="8.930477723681774"><ele>135.66666666666666</ele><time>2026-04-28T10:22:36.999Z</time></trkpt><trkpt lat="44.905809722321095" lon="8.930661434135626"><ele>136.33333333333331</ele><time>2026-04-28T10:22:37.999Z</time></trkpt><trkpt lat="44.905831510190175" lon="8.930877164215119"><ele>137.0</ele><time>2026-04-28T10:22:38.999Z</time></trkpt><trkpt lat="44.9058227226196" lon="8.931111764931542"><ele>137.33333333333331</ele><time>2026-04-28T10:22:39.999Z</time></trkpt><trkpt lat="44.90584239390887" lon="8.931346165921425"><ele>137.66666666666666</ele><time>2026-04-28T10:22:40.999Z</time></trkpt><trkpt lat="44.90586947471291" lon="8.93159785685527"><ele>138.0</ele><time>2026-04-28T10:22:41.999Z</time></trkpt><trkpt lat="44.90589041497961" lon="8.9318519317636"><ele>138.0</ele><time>2026-04-28T10:22:42.999Z</time></trkpt><trkpt lat="44.905911152893886" lon="8.932107941582794"><ele>138.0</ele><time>2026-04-28T10:22:43.999Z</time></trkpt><trkpt lat="44.905934271606924" lon="8.932375793666035"><ele>138.0</ele><time>2026-04-28T10:22:44.999Z</time></trkpt><trkpt lat="44.90595697794818" lon="8.932646317645109"><ele>137.33333333333334</ele><time>2026-04-28T10:22:45.999Z</time></trkpt><trkpt lat="44.90597565166417" lon="8.932897610242765"><ele>136.66666666666669</ele><time>2026-04-28T10:22:46.999Z</time></trkpt><trkpt lat="44.90599413114081" lon="8.933158947747943"><ele>136.0</ele><time>2026-04-28T10:22:47.998Z</time></trkpt><trkpt lat="44.90601476190324" lon="8.933426405523091"><ele>136.0</ele><time>2026-04-28T10:22:49Z</time></trkpt><trkpt lat="44.906033344072284" lon="8.933686971978803"><ele>136.0</ele><time>2026-04-28T10:22:50Z</time></trkpt><trkpt lat="44.90604831527276" lon="8.933941154148936"><ele>136.0</ele><time>2026-04-28T10:22:51Z</time></trkpt><trkpt lat="44.906066327840826" lon="8.934194647124501"><ele>136.66666666666669</ele><time>2026-04-28T10:22:52Z</time></trkpt><trkpt lat="44.906081335156706" lon="8.934452626372781"><ele>137.33333333333334</ele><time>2026-04-28T10:22:53Z</time></trkpt><trkpt lat="44.90609335167563" lon="8.93470208541369"><ele>138.0</ele><time>2026-04-28T10:22:54Z</time></trkpt><trkpt lat="44.906101729395154" lon="8.934946594821916"><ele>138.33333333333334</ele><time>2026-04-28T10:22:55Z</time></trkpt><trkpt lat="44.90610737582855" lon="8.935199083513355"><ele>138.66666666666669</ele><time>2026-04-28T10:22:56Z</time></trkpt><trkpt lat="44.90610718953395" lon="8.93544207956452"><ele>139.0</ele><time>2026-04-28T10:22:57Z</time></trkpt><trkpt lat="44.906114608495045" lon="8.935683279159514"><ele>138.66666666666669</ele><time>2026-04-28T10:22:58Z</time></trkpt><trkpt lat="44.90611467545422" lon="8.93593578513545"><ele>138.33333333333334</ele><time>2026-04-28T10:22:59Z</time></trkpt><trkpt lat="44.906109459111406" lon="8.936184599560072"><ele>138.0</ele><time>2026-04-28T10:23:00Z</time></trkpt><trkpt lat="44.906107555472715" lon="8.936432408518854"><ele>138.0</ele><time>2026-04-28T10:23:01Z</time></trkpt><trkpt lat="44.90610699030519" lon="8.93669185837863"><ele>138.0</ele><time>2026-04-28T10:23:02Z</time></trkpt><trkpt lat="44.906100213871795" lon="8.93694559973359"><ele>138.0</ele><time>2026-04-28T10:23:03Z</time></trkpt><trkpt lat="44.906102904061456" lon="8.937198556778565"><ele>138.33333333333334</ele><time>2026-04-28T10:23:04Z</time></trkpt><trkpt lat="44.90609981625952" lon="8.937448483780097"><ele>138.66666666666669</ele><time>2026-04-28T10:23:05Z</time></trkpt><trkpt lat="44.906094668793486" lon="8.937707327989575"><ele>139.0</ele><time>2026-04-28T10:23:06Z</time></trkpt><trkpt lat="44.90609193569733" lon="8.937963443108783"><ele>139.33333333333334</ele><time>2026-04-28T10:23:07Z</time></trkpt><trkpt lat="44.90609152678012" lon="8.938204319830325"><ele>139.66666666666666</ele><time>2026-04-28T10:23:08Z</time></trkpt><trkpt lat="44.90609042506388" lon="8.93844608931913"><ele>140.0</ele><time>2026-04-28T10:23:09Z</time></trkpt><trkpt lat="44.906088791164535" lon="8.938684710286912"><ele>140.0</ele><time>2026-04-28T10:23:10Z</time></trkpt><trkpt lat="44.906084240907084" lon="8.938924334340562"><ele>140.0</ele><time>2026-04-28T10:23:11Z</time></trkpt><trkpt lat="44.90607533784991" lon="8.9391669016034"><ele>140.0</ele><time>2026-04-28T10:23:12Z</time></trkpt><trkpt lat="44.90605914707056" lon="8.939413615339793"><ele>140.33333333333331</ele><time>2026-04-28T10:23:13Z</time></trkpt><trkpt lat="44.90603354552993" lon="8.93965328246218"><ele>140.66666666666666</ele><time>2026-04-28T10:23:14Z</time></trkpt><trkpt lat="44.905998803188666" lon="8.939891578462511"><ele>141.0</ele><time>2026-04-28T10:23:15Z</time></trkpt><trkpt lat="44.90595738280974" lon="8.940124455598923"><ele>141.66666666666666</ele><time>2026-04-28T10:23:16Z</time></trkpt><trkpt lat="44.9058997813686" lon="8.940347184877314"><ele>142.33333333333331</ele><time>2026-04-28T10:23:17Z</time></trkpt><trkpt lat="44.90587076443663" lon="8.940582918252614"><ele>143.0</ele><time>2026-04-28T10:23:18Z</time></trkpt><trkpt lat="44.90582572865029" lon="8.940820549530788"><ele>143.33333333333331</ele><time>2026-04-28T10:23:19Z</time></trkpt><trkpt lat="44.9057820659754" lon="8.941046809721943"><ele>143.66666666666666</ele><time>2026-04-28T10:23:20Z</time></trkpt><trkpt lat="44.90574022770998" lon="8.941261861501703"><ele>144.0</ele><time>2026-04-28T10:23:21Z</time></trkpt><trkpt lat="44.90569940899931" lon="8.941468900966182"><ele>144.0</ele><time>2026-04-28T10:23:22Z</time></trkpt><trkpt lat="44.90566038575609" lon="8.941669447620312"><ele>144.0</ele><time>2026-04-28T10:23:23Z</time></trkpt><trkpt lat="44.90561878734602" lon="8.941876978898495"><ele>144.0</ele><time>2026-04-28T10:23:24Z</time></trkpt><trkpt lat="44.90557704388527" lon="8.942089321598493"><ele>144.33333333333334</ele><time>2026-04-28T10:23:25Z</time></trkpt><trkpt lat="44.905536563270914" lon="8.942304263673762"><ele>144.66666666666669</ele><time>2026-04-28T10:23:26Z</time></trkpt><trkpt lat="44.90549359319592" lon="8.942516220295985"><ele>145.0</ele><time>2026-04-28T10:23:27Z</time></trkpt><trkpt lat="44.905448999427286" lon="8.942729050946058"><ele>146.0</ele><time>2026-04-28T10:23:28Z</time></trkpt><trkpt lat="44.905407825157525" lon="8.94293537084117"><ele>147.0</ele><time>2026-04-28T10:23:29Z</time></trkpt><trkpt lat="44.90536415428646" lon="8.94314828700619"><ele>148.0</ele><time>2026-04-28T10:23:30Z</time></trkpt><trkpt lat="44.90532312941212" lon="8.943371626052047"><ele>149.33333333333334</ele><time>2026-04-28T10:23:31Z</time></trkpt><trkpt lat="44.90526830416723" lon="8.943599634871548"><ele>150.66666666666666</ele><time>2026-04-28T10:23:31.999Z</time></trkpt><trkpt lat="44.905220786124985" lon="8.943820485170603"><ele>152.0</ele><time>2026-04-28T10:23:32.999Z</time></trkpt><trkpt lat="44.90517391225104" lon="8.944039417977343"><ele>151.66666666666666</ele><time>2026-04-28T10:23:33.999Z</time></trkpt><trkpt lat="44.90513117312453" lon="8.944263552145582"><ele>151.33333333333334</ele><time>2026-04-28T10:23:34.999Z</time></trkpt><trkpt lat="44.905096764678795" lon="8.94448252325716"><ele>151.0</ele><time>2026-04-28T10:23:35.999Z</time></trkpt><trkpt lat="44.90506049471271" lon="8.94470434314312"><ele>150.33333333333334</ele><time>2026-04-28T10:23:36.999Z</time></trkpt><trkpt lat="44.905020250478756" lon="8.944922943098641"><ele>149.66666666666666</ele><time>2026-04-28T10:23:37.999Z</time></trkpt><trkpt lat="44.90497977688505" lon="8.945146786084683"><ele>149.0</ele><time>2026-04-28T10:23:38.999Z</time></trkpt><trkpt lat="44.90493763558547" lon="8.945373071067856"><ele>149.0</ele><time>2026-04-28T10:23:39.999Z</time></trkpt><trkpt lat="44.90489366729111" lon="8.945603080408237"><ele>149.0</ele><time>2026-04-28T10:23:40.999Z</time></trkpt><trkpt lat="44.90484411357778" lon="8.945835248236808"><ele>149.0</ele><time>2026-04-28T10:23:41.999Z</time></trkpt><trkpt lat="44.90480131338708" lon="8.9460636079067"><ele>149.0</ele><time>2026-04-28T10:23:42.999Z</time></trkpt><trkpt lat="44.90476016429999" lon="8.946290582794642"><ele>149.0</ele><time>2026-04-28T10:23:43.999Z</time></trkpt><trkpt lat="44.90471428170879" lon="8.946526791601192"><ele>149.0</ele><time>2026-04-28T10:23:44.999Z</time></trkpt><trkpt lat="44.90466624287904" lon="8.946760398095238"><ele>149.33333333333331</ele><time>2026-04-28T10:23:45.999Z</time></trkpt><trkpt lat="44.904621473228126" lon="8.947000391831676"><ele>149.66666666666666</ele><time>2026-04-28T10:23:46.999Z</time></trkpt><trkpt lat="44.90457492125522" lon="8.947249076931797"><ele>150.0</ele><time>2026-04-28T10:23:47.999Z</time></trkpt><trkpt lat="44.90452744796783" lon="8.947488444948888"><ele>150.0</ele><time>2026-04-28T10:23:48.999Z</time></trkpt><trkpt lat="44.904479292843014" lon="8.947731555812883"><ele>150.0</ele><time>2026-04-28T10:23:49.999Z</time></trkpt><trkpt lat="44.90442721647754" lon="8.947981328181847"><ele>150.0</ele><time>2026-04-28T10:23:50.999Z</time></trkpt><trkpt lat="44.904367758875175" lon="8.94822539473505"><ele>150.66666666666666</ele><time>2026-04-28T10:23:51.999Z</time></trkpt><trkpt lat="44.90429676975512" lon="8.948452670406324"><ele>151.33333333333331</ele><time>2026-04-28T10:23:52.999Z</time></trkpt><trkpt lat="44.9042094927217" lon="8.94867781140361"><ele>152.0</ele><time>2026-04-28T10:23:53.999Z</time></trkpt><trkpt lat="44.904111469996415" lon="8.948891584293804"><ele>152.0</ele><time>2026-04-28T10:23:54.999Z</time></trkpt><trkpt lat="44.90400369086953" lon="8.949108272290582"><ele>152.0</ele><time>2026-04-28T10:23:55.999Z</time></trkpt><trkpt lat="44.90389063858473" lon="8.94933780482108"><ele>152.0</ele><time>2026-04-28T10:23:56.999Z</time></trkpt><trkpt lat="44.903777991162336" lon="8.949576333958342"><ele>152.33333333333331</ele><time>2026-04-28T10:23:57.999Z</time></trkpt><trkpt lat="44.90365777780956" lon="8.949825204716879"><ele>152.66666666666666</ele><time>2026-04-28T10:23:58.999Z</time></trkpt><trkpt lat="44.903533073765324" lon="8.950087970080194"><ele>153.0</ele><time>2026-04-28T10:23:59.999Z</time></trkpt><trkpt lat="44.90340435219753" lon="8.950359128716903"><ele>153.0</ele><time>2026-04-28T10:24:00.999Z</time></trkpt><trkpt lat="44.903268532400844" lon="8.95064458210281"><ele>153.0</ele><time>2026-04-28T10:24:01.999Z</time></trkpt><trkpt lat="44.90312938998644" lon="8.95093649626557"><ele>153.5</ele><time>2026-04-28T10:24:02.999Z</time></trkpt><trkpt lat="44.90298039020383" lon="8.951242536089332"><ele>154.0</ele><time>2026-04-28T10:24:03.999Z</time></trkpt><trkpt lat="44.90281963588817" lon="8.951538951617295"><ele>154.0</ele><time>2026-04-28T10:24:04.999Z</time></trkpt><trkpt lat="44.902678476223635" lon="8.951831549479628"><ele>154.0</ele><time>2026-04-28T10:24:05.999Z</time></trkpt><trkpt lat="44.902540063466716" lon="8.95211857146694"><ele>154.5</ele><time>2026-04-28T10:24:06.999Z</time></trkpt><trkpt lat="44.902407259855806" lon="8.952394075122948"><ele>155.0</ele><time>2026-04-28T10:24:07.999Z</time></trkpt><trkpt lat="44.90228036802816" lon="8.952657314796589"><ele>155.0</ele><time>2026-04-28T10:24:08.999Z</time></trkpt><trkpt lat="44.90215044831924" lon="8.952926836476394"><ele>155.0</ele><time>2026-04-28T10:24:09.999Z</time></trkpt><trkpt lat="44.9020230376991" lon="8.953191155237837"><ele>155.5</ele><time>2026-04-28T10:24:10.999Z</time></trkpt><trkpt lat="44.90188992927704" lon="8.953467294459994"><ele>156.0</ele><time>2026-04-28T10:24:11.999Z</time></trkpt><trkpt lat="44.901764959985215" lon="8.953767566306329"><ele>157.5</ele><time>2026-04-28T10:24:12.999Z</time></trkpt><trkpt lat="44.901617448616854" lon="8.954064963307951"><ele>159.0</ele><time>2026-04-28T10:24:13.999Z</time></trkpt><trkpt lat="44.90147257524018" lon="8.954366240092522"><ele>159.0</ele><time>2026-04-28T10:24:14.999Z</time></trkpt><trkpt lat="44.901324753402314" lon="8.95466727032336"><ele>159.0</ele><time>2026-04-28T10:24:15.999Z</time></trkpt><trkpt lat="44.90117027621463" lon="8.954986885608447"><ele>158.5</ele><time>2026-04-28T10:24:16.999Z</time></trkpt><trkpt lat="44.90102228416276" lon="8.955305384299644"><ele>158.0</ele><time>2026-04-28T10:24:17.999Z</time></trkpt><trkpt lat="44.90086197923865" lon="8.955595169594838"><ele>159.0</ele><time>2026-04-28T10:24:18.999Z</time></trkpt><trkpt lat="44.90072659600116" lon="8.955873961575993"><ele>160.0</ele><time>2026-04-28T10:24:19.999Z</time></trkpt><trkpt lat="44.90058896226557" lon="8.956157704007543"><ele>160.0</ele><time>2026-04-28T10:24:20.999Z</time></trkpt><trkpt lat="44.900453244320374" lon="8.95643749671386"><ele>160.0</ele><time>2026-04-28T10:24:21.999Z</time></trkpt><trkpt lat="44.900320077358344" lon="8.95671203138122"><ele>161.0</ele><time>2026-04-28T10:24:22.999Z</time></trkpt><trkpt lat="44.900187420251925" lon="8.95698715972086"><ele>162.0</ele><time>2026-04-28T10:24:23.999Z</time></trkpt><trkpt lat="44.90005841963748" lon="8.957254356343613"><ele>162.66666666666666</ele><time>2026-04-28T10:24:24.999Z</time></trkpt><trkpt lat="44.89992933843012" lon="8.957521718463497"><ele>163.33333333333331</ele><time>2026-04-28T10:24:25.999Z</time></trkpt><trkpt lat="44.89980651980371" lon="8.957776096858048"><ele>164.0</ele><time>2026-04-28T10:24:26.999Z</time></trkpt><trkpt lat="44.899697994410324" lon="8.958040946507378"><ele>164.33333333333331</ele><time>2026-04-28T10:24:27.999Z</time></trkpt><trkpt lat="44.89956892232541" lon="8.958271923820565"><ele>164.66666666666666</ele><time>2026-04-28T10:24:28.999Z</time></trkpt><trkpt lat="44.89945724948574" lon="8.958505198166632"><ele>165.0</ele><time>2026-04-28T10:24:29.999Z</time></trkpt><trkpt lat="44.89934148878435" lon="8.958747010583377"><ele>165.66666666666666</ele><time>2026-04-28T10:24:30.999Z</time></trkpt><trkpt lat="44.89923106029856" lon="8.958978505777255"><ele>166.33333333333331</ele><time>2026-04-28T10:24:31.999Z</time></trkpt><trkpt lat="44.89912044208969" lon="8.95921073256407"><ele>167.0</ele><time>2026-04-28T10:24:32.999Z</time></trkpt><trkpt lat="44.8990001698346" lon="8.95946345686234"><ele>167.0</ele><time>2026-04-28T10:24:33.999Z</time></trkpt><trkpt lat="44.898885910831446" lon="8.959703013056107"><ele>167.0</ele><time>2026-04-28T10:24:34.999Z</time></trkpt><trkpt lat="44.89876757854199" lon="8.959951715163923"><ele>167.0</ele><time>2026-04-28T10:24:35.999Z</time></trkpt><trkpt lat="44.89864713151768" lon="8.960204861816143"><ele>167.33333333333331</ele><time>2026-04-28T10:24:36.999Z</time></trkpt><trkpt lat="44.898521090064506" lon="8.96046976647319"><ele>167.66666666666666</ele><time>2026-04-28T10:24:37.999Z</time></trkpt><trkpt lat="44.89839679258343" lon="8.960731005645508"><ele>168.0</ele><time>2026-04-28T10:24:38.999Z</time></trkpt><trkpt lat="44.89827500123923" lon="8.96098643128905"><ele>168.33333333333334</ele><time>2026-04-28T10:24:39.999Z</time></trkpt><trkpt lat="44.898162201357295" lon="8.961222564338449"><ele>168.66666666666669</ele><time>2026-04-28T10:24:40.999Z</time></trkpt><trkpt lat="44.89804316503796" lon="8.961472299424681"><ele>169.0</ele><time>2026-04-28T10:24:41.999Z</time></trkpt><trkpt lat="44.897926145078834" lon="8.961717804264207"><ele>169.33333333333334</ele><time>2026-04-28T10:24:42.999Z</time></trkpt><trkpt lat="44.897810450473116" lon="8.961961418926814"><ele>169.66666666666666</ele><time>2026-04-28T10:24:43.999Z</time></trkpt><trkpt lat="44.89769447390895" lon="8.96220592154744"><ele>170.0</ele><time>2026-04-28T10:24:44.999Z</time></trkpt><trkpt lat="44.89758007383456" lon="8.962447101013797"><ele>172.0</ele><time>2026-04-28T10:24:45.999Z</time></trkpt><trkpt lat="44.89746688861662" lon="8.962684805442258"><ele>174.0</ele><time>2026-04-28T10:24:46.999Z</time></trkpt><trkpt lat="44.89735163112123" lon="8.962926972531557"><ele>176.0</ele><time>2026-04-28T10:24:47.999Z</time></trkpt><trkpt lat="44.89723553986097" lon="8.963170891410341"><ele>175.33333333333331</ele><time>2026-04-28T10:24:48.999Z</time></trkpt><trkpt lat="44.89711739508803" lon="8.963419124942108"><ele>174.66666666666666</ele><time>2026-04-28T10:24:49.999Z</time></trkpt><trkpt lat="44.89699815369642" lon="8.963669510826977"><ele>174.0</ele><time>2026-04-28T10:24:50.999Z</time></trkpt><trkpt lat="44.89688155428992" lon="8.963914238378798"><ele>174.0</ele><time>2026-04-28T10:24:51.999Z</time></trkpt><trkpt lat="44.89676058880393" lon="8.964163451513498"><ele>174.0</ele><time>2026-04-28T10:24:52.999Z</time></trkpt><trkpt lat="44.89663899127706" lon="8.964417000691789"><ele>174.0</ele><time>2026-04-28T10:24:53.999Z</time></trkpt><trkpt lat="44.89651829728494" lon="8.964669062000862"><ele>173.66666666666666</ele><time>2026-04-28T10:24:55Z</time></trkpt><trkpt lat="44.896397613751496" lon="8.964921050826804"><ele>173.33333333333331</ele><time>2026-04-28T10:24:56Z</time></trkpt><trkpt lat="44.89627608261812" lon="8.96517471804483"><ele>173.0</ele><time>2026-04-28T10:24:57Z</time></trkpt><trkpt lat="44.89615768297668" lon="8.965421849081158"><ele>172.33333333333331</ele><time>2026-04-28T10:24:58Z</time></trkpt><trkpt lat="44.89603553032826" lon="8.965676813609427"><ele>171.66666666666666</ele><time>2026-04-28T10:24:59Z</time></trkpt><trkpt lat="44.89591509588076" lon="8.96592819182502"><ele>171.0</ele><time>2026-04-28T10:25:00Z</time></trkpt><trkpt lat="44.89579417326961" lon="8.96618210187683"><ele>171.0</ele><time>2026-04-28T10:25:01Z</time></trkpt><trkpt lat="44.895673658388" lon="8.96643541700738"><ele>171.0</ele><time>2026-04-28T10:25:02Z</time></trkpt><trkpt lat="44.895554504221685" lon="8.966685639189285"><ele>171.0</ele><time>2026-04-28T10:25:03Z</time></trkpt><trkpt lat="44.895429709249264" lon="8.96694770633667"><ele>171.5</ele><time>2026-04-28T10:25:04Z</time></trkpt><trkpt lat="44.89530537101643" lon="8.967208814103637"><ele>172.0</ele><time>2026-04-28T10:25:05Z</time></trkpt><trkpt lat="44.89517718866903" lon="8.967478538645242"><ele>173.0</ele><time>2026-04-28T10:25:06Z</time></trkpt><trkpt lat="44.89505464993287" lon="8.967736081423574"><ele>174.0</ele><time>2026-04-28T10:25:07Z</time></trkpt><trkpt lat="44.89493553877044" lon="8.967986195445647"><ele>175.0</ele><time>2026-04-28T10:25:08Z</time></trkpt><trkpt lat="44.894821778552696" lon="8.968225073381827"><ele>172.66666666666669</ele><time>2026-04-28T10:25:09Z</time></trkpt><trkpt lat="44.894709364049405" lon="8.968461368141634"><ele>170.33333333333334</ele><time>2026-04-28T10:25:10Z</time></trkpt><trkpt lat="44.89459856864707" lon="8.968694390527812"><ele>168.0</ele><time>2026-04-28T10:25:11Z</time></trkpt><trkpt lat="44.894481900188744" lon="8.968933559528207"><ele>168.0</ele><time>2026-04-28T10:25:12Z</time></trkpt><trkpt lat="44.89436132195847" lon="8.969152034897158"><ele>168.0</ele><time>2026-04-28T10:25:13Z</time></trkpt><trkpt lat="44.894231204865044" lon="8.969368696708555"><ele>168.0</ele><time>2026-04-28T10:25:14Z</time></trkpt><trkpt lat="44.894101930225354" lon="8.969573560930368"><ele>167.66666666666666</ele><time>2026-04-28T10:25:15Z</time></trkpt><trkpt lat="44.8939589481091" lon="8.969791670011851"><ele>167.33333333333331</ele><time>2026-04-28T10:25:16Z</time></trkpt><trkpt lat="44.8938122459648" lon="8.970011162455084"><ele>167.0</ele><time>2026-04-28T10:25:17Z</time></trkpt><trkpt lat="44.893666384080596" lon="8.970242377576437"><ele>167.0</ele><time>2026-04-28T10:25:18Z</time></trkpt><trkpt lat="44.89352336990502" lon="8.970446963654153"><ele>167.0</ele><time>2026-04-28T10:25:19Z</time></trkpt><trkpt lat="44.893378768073525" lon="8.970666334111545"><ele>167.0</ele><time>2026-04-28T10:25:20Z</time></trkpt><trkpt lat="44.89323849812472" lon="8.970881560349726"><ele>167.0</ele><time>2026-04-28T10:25:21Z</time></trkpt><trkpt lat="44.893090869034936" lon="8.971108147865255"><ele>167.0</ele><time>2026-04-28T10:25:22Z</time></trkpt><trkpt lat="44.89294166162638" lon="8.971333639206222"><ele>167.0</ele><time>2026-04-28T10:25:23Z</time></trkpt><trkpt lat="44.89279128167598" lon="8.971561154081945"><ele>167.33333333333331</ele><time>2026-04-28T10:25:24Z</time></trkpt><trkpt lat="44.89264816436057" lon="8.971780078949516"><ele>167.66666666666666</ele><time>2026-04-28T10:25:25Z</time></trkpt><trkpt lat="44.89251134035271" lon="8.971989377038112"><ele>168.0</ele><time>2026-04-28T10:25:26Z</time></trkpt><trkpt lat="44.89238204362839" lon="8.972185687034868"><ele>168.0</ele><time>2026-04-28T10:25:27Z</time></trkpt><trkpt lat="44.892253918698664" lon="8.972379717933627"><ele>168.0</ele><time>2026-04-28T10:25:28Z</time></trkpt><trkpt lat="44.89212106857594" lon="8.97258090481968"><ele>168.0</ele><time>2026-04-28T10:25:29Z</time></trkpt><trkpt lat="44.89199150886762" lon="8.972777108590844"><ele>168.33333333333334</ele><time>2026-04-28T10:25:30Z</time></trkpt><trkpt lat="44.8918633179323" lon="8.972970880280299"><ele>168.66666666666669</ele><time>2026-04-28T10:25:31Z</time></trkpt><trkpt lat="44.8917296420157" lon="8.973172911886316"><ele>169.0</ele><time>2026-04-28T10:25:32Z</time></trkpt><trkpt lat="44.89159987510962" lon="8.973367108448219"><ele>169.0</ele><time>2026-04-28T10:25:33Z</time></trkpt><trkpt lat="44.891464386877" lon="8.97357000615854"><ele>169.0</ele><time>2026-04-28T10:25:34Z</time></trkpt><trkpt lat="44.891329404263324" lon="8.973772075622195"><ele>169.0</ele><time>2026-04-28T10:25:35Z</time></trkpt><trkpt lat="44.89119135727445" lon="8.973976879984434"><ele>169.0</ele><time>2026-04-28T10:25:36Z</time></trkpt><trkpt lat="44.89105075544593" lon="8.974185474695433"><ele>169.0</ele><time>2026-04-28T10:25:37Z</time></trkpt><trkpt lat="44.890912225016116" lon="8.974390321441202"><ele>169.0</ele><time>2026-04-28T10:25:38Z</time></trkpt><trkpt lat="44.890775131460316" lon="8.974591887302303"><ele>169.33333333333334</ele><time>2026-04-28T10:25:39Z</time></trkpt><trkpt lat="44.89064218067246" lon="8.97478736374331"><ele>169.66666666666666</ele><time>2026-04-28T10:25:40Z</time></trkpt><trkpt lat="44.89050488260435" lon="8.974989230089232"><ele>170.0</ele><time>2026-04-28T10:25:41Z</time></trkpt><trkpt lat="44.89037989478544" lon="8.975204433640885"><ele>170.0</ele><time>2026-04-28T10:25:42Z</time></trkpt><trkpt lat="44.89024101656126" lon="8.975397798455143"><ele>170.0</ele><time>2026-04-28T10:25:43Z</time></trkpt><trkpt lat="44.89010917277593" lon="8.975597551063897"><ele>170.0</ele><time>2026-04-28T10:25:44Z</time></trkpt><trkpt lat="44.88996447306082" lon="8.975779035139734"><ele>170.33333333333331</ele><time>2026-04-28T10:25:45Z</time></trkpt><trkpt lat="44.88982927980702" lon="8.97597882913092"><ele>170.66666666666666</ele><time>2026-04-28T10:25:46Z</time></trkpt><trkpt lat="44.8896954973503" lon="8.976177075365394"><ele>171.0</ele><time>2026-04-28T10:25:46.999Z</time></trkpt><trkpt lat="44.88955910047142" lon="8.976376647612291"><ele>171.0</ele><time>2026-04-28T10:25:47.999Z</time></trkpt><trkpt lat="44.88942494766763" lon="8.976572881318274"><ele>171.0</ele><time>2026-04-28T10:25:48.999Z</time></trkpt><trkpt lat="44.88929433106256" lon="8.976763942381695"><ele>171.0</ele><time>2026-04-28T10:25:49.999Z</time></trkpt><trkpt lat="44.88916614849525" lon="8.976952849311981"><ele>171.33333333333334</ele><time>2026-04-28T10:25:50.999Z</time></trkpt><trkpt lat="44.88904222116609" lon="8.977137288238048"><ele>171.66666666666669</ele><time>2026-04-28T10:25:51.999Z</time></trkpt><trkpt lat="44.888917001204135" lon="8.977333334329964"><ele>172.0</ele><time>2026-04-28T10:25:52.999Z</time></trkpt><trkpt lat="44.888801459217" lon="8.977528638128968"><ele>172.0</ele><time>2026-04-28T10:25:53.999Z</time></trkpt><trkpt lat="44.888695649687605" lon="8.977728550376604"><ele>172.0</ele><time>2026-04-28T10:25:54.999Z</time></trkpt><trkpt lat="44.88859558861451" lon="8.977925064740582"><ele>172.0</ele><time>2026-04-28T10:25:55.999Z</time></trkpt><trkpt lat="44.888529679162616" lon="8.978129599548682"><ele>172.0</ele><time>2026-04-28T10:25:56.999Z</time></trkpt><trkpt lat="44.888438868513646" lon="8.978310022088165"><ele>172.0</ele><time>2026-04-28T10:25:57.999Z</time></trkpt><trkpt lat="44.88834464672817" lon="8.978490873635439"><ele>172.0</ele><time>2026-04-28T10:25:58.999Z</time></trkpt><trkpt lat="44.8882526913615" lon="8.978658956667402"><ele>172.75</ele><time>2026-04-28T10:25:59.999Z</time></trkpt><trkpt lat="44.8881497828628" lon="8.978809368130351"><ele>173.5</ele><time>2026-04-28T10:26:00.999Z</time></trkpt><trkpt lat="44.88807064793756" lon="8.978966063453944"><ele>174.25</ele><time>2026-04-28T10:26:01.999Z</time></trkpt><trkpt lat="44.8879933100355" lon="8.9791196271603"><ele>175.0</ele><time>2026-04-28T10:26:02.999Z</time></trkpt><trkpt lat="44.88791299262255" lon="8.979279363057728"><ele>175.0</ele><time>2026-04-28T10:26:03.999Z</time></trkpt><trkpt lat="44.887825491566545" lon="8.979453387654027"><ele>175.0</ele><time>2026-04-28T10:26:04.999Z</time></trkpt><trkpt lat="44.88773528394376" lon="8.97963267229974"><ele>175.0</ele><time>2026-04-28T10:26:05.999Z</time></trkpt><trkpt lat="44.88763540143712" lon="8.979831226577897"><ele>176.33333333333334</ele><time>2026-04-28T10:26:06.999Z</time></trkpt><trkpt lat="44.887540153088764" lon="8.980020568725966"><ele>177.66666666666666</ele><time>2026-04-28T10:26:07.999Z</time></trkpt><trkpt lat="44.88743693408954" lon="8.980225473026149"><ele>179.0</ele><time>2026-04-28T10:26:08.999Z</time></trkpt><trkpt lat="44.88733036356844" lon="8.98043684963888"><ele>179.0</ele><time>2026-04-28T10:26:09.999Z</time></trkpt><trkpt lat="44.88722831071392" lon="8.98063878700103"><ele>179.0</ele><time>2026-04-28T10:26:10.999Z</time></trkpt><trkpt lat="44.887131330846096" lon="8.980829837701314"><ele>179.0</ele><time>2026-04-28T10:26:11.999Z</time></trkpt><trkpt lat="44.88704411624074" lon="8.981001396016177"><ele>179.0</ele><time>2026-04-28T10:26:12.999Z</time></trkpt><trkpt lat="44.88696332637216" lon="8.981160318139207"><ele>179.0</ele><time>2026-04-28T10:26:13.999Z</time></trkpt><trkpt lat="44.886883368779095" lon="8.981316170773455"><ele>179.0</ele><time>2026-04-28T10:26:14.999Z</time></trkpt><trkpt lat="44.88681549627542" lon="8.981479488495749"><ele>179.0</ele><time>2026-04-28T10:26:15.999Z</time></trkpt><trkpt lat="44.88673700117009" lon="8.98162398506956"><ele>179.0</ele><time>2026-04-28T10:26:16.999Z</time></trkpt><trkpt lat="44.886666808490226" lon="8.981751779362206"><ele>179.0</ele><time>2026-04-28T10:26:17.999Z</time></trkpt><trkpt lat="44.88660849335452" lon="8.981865597362868"><ele>179.0</ele><time>2026-04-28T10:26:18.999Z</time></trkpt><trkpt lat="44.88654998719192" lon="8.98198314467799"><ele>179.0</ele><time>2026-04-28T10:26:20.999Z</time></trkpt><trkpt lat="44.886473509112626" lon="8.982035880956795"><ele>179.0</ele><time>2026-04-28T10:26:35.999Z</time></trkpt><trkpt lat="44.88642313492656" lon="8.982131170087337"><ele>179.0</ele><time>2026-04-28T10:26:37.999Z</time></trkpt><trkpt lat="44.88638703000447" lon="8.982214429964799"><ele>179.0</ele><time>2026-04-28T10:26:38.999Z</time></trkpt><trkpt lat="44.88634809104552" lon="8.982311304164563"><ele>179.0</ele><time>2026-04-28T10:26:39.999Z</time></trkpt><trkpt lat="44.88628890984606" lon="8.98243394991749"><ele>179.0</ele><time>2026-04-28T10:26:40.999Z</time></trkpt><trkpt lat="44.88621568621289" lon="8.982573459173421"><ele>179.0</ele><time>2026-04-28T10:26:41.999Z</time></trkpt><trkpt lat="44.88613125050955" lon="8.982711947734968"><ele>178.75</ele><time>2026-04-28T10:26:42.999Z</time></trkpt><trkpt lat="44.8860346267079" lon="8.982854813873166"><ele>178.5</ele><time>2026-04-28T10:26:43.999Z</time></trkpt><trkpt lat="44.88592685945494" lon="8.982988557890671"><ele>178.25</ele><time>2026-04-28T10:26:44.999Z</time></trkpt><trkpt lat="44.885810987797655" lon="8.983114906966147"><ele>178.0</ele><time>2026-04-28T10:26:45.999Z</time></trkpt><trkpt lat="44.88568141566321" lon="8.983213003174018"><ele>178.5</ele><time>2026-04-28T10:26:46.999Z</time></trkpt><trkpt lat="44.8855645281454" lon="8.983322633726202"><ele>179.0</ele><time>2026-04-28T10:26:47.999Z</time></trkpt><trkpt lat="44.88545724242341" lon="8.983420939657565"><ele>179.5</ele><time>2026-04-28T10:26:48.999Z</time></trkpt><trkpt lat="44.88533558655716" lon="8.98353454864556"><ele>180.0</ele><time>2026-04-28T10:26:49.999Z</time></trkpt><trkpt lat="44.885206419445076" lon="8.983654949419906"><ele>181.0</ele><time>2026-04-28T10:26:50.999Z</time></trkpt><trkpt lat="44.88507484088736" lon="8.98377785640632"><ele>182.0</ele><time>2026-04-28T10:26:51.999Z</time></trkpt><trkpt lat="44.88494910507043" lon="8.983919938629658"><ele>183.0</ele><time>2026-04-28T10:26:52.999Z</time></trkpt><trkpt lat="44.884804673661115" lon="8.984055657618045"><ele>183.0</ele><time>2026-04-28T10:26:53.999Z</time></trkpt><trkpt lat="44.884654344613864" lon="8.984169962078372"><ele>183.0</ele><time>2026-04-28T10:26:54.999Z</time></trkpt><trkpt lat="44.884508525919856" lon="8.984305876307205"><ele>183.0</ele><time>2026-04-28T10:26:55.999Z</time></trkpt><trkpt lat="44.884360676156305" lon="8.984443683688662"><ele>182.66666666666666</ele><time>2026-04-28T10:26:56.999Z</time></trkpt><trkpt lat="44.88421073341966" lon="8.984584838665391"><ele>182.33333333333331</ele><time>2026-04-28T10:26:57.999Z</time></trkpt><trkpt lat="44.884069209714895" lon="8.984721541238446"><ele>182.0</ele><time>2026-04-28T10:26:58.999Z</time></trkpt><trkpt lat="44.88393556118207" lon="8.984852375690977"><ele>182.0</ele><time>2026-04-28T10:26:59.999Z</time></trkpt><trkpt lat="44.88380453178623" lon="8.984981642146877"><ele>182.0</ele><time>2026-04-28T10:27:01Z</time></trkpt><trkpt lat="44.883675048488776" lon="8.985110003205696"><ele>182.0</ele><time>2026-04-28T10:27:02Z</time></trkpt><trkpt lat="44.88355089831766" lon="8.985244379175493"><ele>181.66666666666666</ele><time>2026-04-28T10:27:03Z</time></trkpt><trkpt lat="44.88344995499915" lon="8.985415062400923"><ele>181.33333333333334</ele><time>2026-04-28T10:27:04Z</time></trkpt><trkpt lat="44.883345139511555" lon="8.985576485122614"><ele>181.0</ele><time>2026-04-28T10:27:05Z</time></trkpt><trkpt lat="44.88324162329768" lon="8.985750754186348"><ele>181.33333333333334</ele><time>2026-04-28T10:27:06Z</time></trkpt><trkpt lat="44.88313628872601" lon="8.98593005207077"><ele>181.66666666666666</ele><time>2026-04-28T10:27:07Z</time></trkpt><trkpt lat="44.88302900915127" lon="8.986109310496134"><ele>182.0</ele><time>2026-04-28T10:27:08Z</time></trkpt><trkpt lat="44.88292019994619" lon="8.9862876437358"><ele>182.0</ele><time>2026-04-28T10:27:09Z</time></trkpt><trkpt lat="44.882808843082906" lon="8.986474833849828"><ele>182.0</ele><time>2026-04-28T10:27:10Z</time></trkpt><trkpt lat="44.882691381098695" lon="8.986664901436054"><ele>182.0</ele><time>2026-04-28T10:27:11Z</time></trkpt><trkpt lat="44.882571806922314" lon="8.986862005941553"><ele>182.33333333333331</ele><time>2026-04-28T10:27:12Z</time></trkpt><trkpt lat="44.88243329037985" lon="8.987091228284772"><ele>182.66666666666666</ele><time>2026-04-28T10:27:13Z</time></trkpt><trkpt lat="44.88227101547965" lon="8.987329990018315"><ele>183.0</ele><time>2026-04-28T10:27:14Z</time></trkpt><trkpt lat="44.88212895844128" lon="8.987567060108331"><ele>183.0</ele><time>2026-04-28T10:27:15Z</time></trkpt><trkpt lat="44.88200806841855" lon="8.987800891299177"><ele>183.0</ele><time>2026-04-28T10:27:16Z</time></trkpt><trkpt lat="44.881876208934536" lon="8.987983733267702"><ele>183.0</ele><time>2026-04-28T10:27:17Z</time></trkpt><trkpt lat="44.88175555971001" lon="8.988181214254833"><ele>183.66666666666666</ele><time>2026-04-28T10:27:18Z</time></trkpt><trkpt lat="44.881655096167606" lon="8.988376453226687"><ele>184.33333333333331</ele><time>2026-04-28T10:27:19Z</time></trkpt><trkpt lat="44.881533926423856" lon="8.988516715962978"><ele>185.0</ele><time>2026-04-28T10:27:20Z</time></trkpt><trkpt lat="44.88143192029063" lon="8.988668506118543"><ele>185.0</ele><time>2026-04-28T10:27:21Z</time></trkpt><trkpt lat="44.88130791283872" lon="8.988760971072708"><ele>185.0</ele><time>2026-04-28T10:27:22Z</time></trkpt><trkpt lat="44.88118277314359" lon="8.98886561076178"><ele>185.0</ele><time>2026-04-28T10:27:23Z</time></trkpt><trkpt lat="44.88104806248901" lon="8.988962406047298"><ele>185.0</ele><time>2026-04-28T10:27:24Z</time></trkpt><trkpt lat="44.8809040914586" lon="8.98904510337097"><ele>185.33333333333331</ele><time>2026-04-28T10:27:25Z</time></trkpt><trkpt lat="44.880751773382215" lon="8.989127980000765"><ele>185.66666666666666</ele><time>2026-04-28T10:27:26Z</time></trkpt><trkpt lat="44.88059343600888" lon="8.989206599770776"><ele>186.0</ele><time>2026-04-28T10:27:27Z</time></trkpt><trkpt lat="44.88044015068346" lon="8.989282571888479"><ele>186.0</ele><time>2026-04-28T10:27:28Z</time></trkpt><trkpt lat="44.880297088598894" lon="8.989372945598092"><ele>186.0</ele><time>2026-04-28T10:27:29Z</time></trkpt><trkpt lat="44.88014312941113" lon="8.989447683619133"><ele>186.0</ele><time>2026-04-28T10:27:30Z</time></trkpt><trkpt lat="44.87999480972908" lon="8.989520759957472"><ele>186.33333333333334</ele><time>2026-04-28T10:27:31Z</time></trkpt><trkpt lat="44.87984294422875" lon="8.989597823766301"><ele>186.66666666666669</ele><time>2026-04-28T10:27:32Z</time></trkpt><trkpt lat="44.879690344545814" lon="8.989677730698082"><ele>187.0</ele><time>2026-04-28T10:27:33Z</time></trkpt><trkpt lat="44.879535889934445" lon="8.989762506770594"><ele>187.0</ele><time>2026-04-28T10:27:34Z</time></trkpt><trkpt lat="44.87938245013206" lon="8.989863395297135"><ele>187.0</ele><time>2026-04-28T10:27:35Z</time></trkpt><trkpt lat="44.879235570320716" lon="8.989987827844072"><ele>187.0</ele><time>2026-04-28T10:27:36Z</time></trkpt><trkpt lat="44.87908416298642" lon="8.990110581083458"><ele>187.66666666666669</ele><time>2026-04-28T10:27:37Z</time></trkpt><trkpt lat="44.87895510332794" lon="8.990255918306397"><ele>188.33333333333334</ele><time>2026-04-28T10:27:38Z</time></trkpt><trkpt lat="44.87883629623504" lon="8.990410895069985"><ele>189.0</ele><time>2026-04-28T10:27:39Z</time></trkpt><trkpt lat="44.87872106149221" lon="8.990579640628052"><ele>189.0</ele><time>2026-04-28T10:27:40Z</time></trkpt><trkpt lat="44.87861720855275" lon="8.990761396208667"><ele>189.0</ele><time>2026-04-28T10:27:41Z</time></trkpt><trkpt lat="44.878515273247814" lon="8.990947906203319"><ele>189.0</ele><time>2026-04-28T10:27:42Z</time></trkpt><trkpt lat="44.87841520473366" lon="8.991132232880142"><ele>189.33333333333334</ele><time>2026-04-28T10:27:43Z</time></trkpt><trkpt lat="44.87831346936619" lon="8.991319629879474"><ele>189.66666666666669</ele><time>2026-04-28T10:27:44Z</time></trkpt><trkpt lat="44.87820969818973" lon="8.991513127731833"><ele>190.0</ele><time>2026-04-28T10:27:45Z</time></trkpt><trkpt lat="44.87810275713258" lon="8.991713356054872"><ele>190.33333333333334</ele><time>2026-04-28T10:27:46Z</time></trkpt><trkpt lat="44.87799384532678" lon="8.991916953627422"><ele>190.66666666666666</ele><time>2026-04-28T10:27:47Z</time></trkpt><trkpt lat="44.8778800903736" lon="8.992125723253547"><ele>191.0</ele><time>2026-04-28T10:27:48Z</time></trkpt><trkpt lat="44.87776817596127" lon="8.992332833408737"><ele>190.66666666666666</ele><time>2026-04-28T10:27:49Z</time></trkpt><trkpt lat="44.87765884640652" lon="8.992513146781047"><ele>190.33333333333334</ele><time>2026-04-28T10:27:50Z</time></trkpt><trkpt lat="44.87754707564906" lon="8.992666960255658"><ele>190.0</ele><time>2026-04-28T10:27:51Z</time></trkpt><trkpt lat="44.877430850722014" lon="8.992805392113201"><ele>191.0</ele><time>2026-04-28T10:27:52Z</time></trkpt><trkpt lat="44.87731224549797" lon="8.992915075556374"><ele>192.0</ele><time>2026-04-28T10:27:53Z</time></trkpt><trkpt lat="44.87717994482078" lon="8.993017463683653"><ele>193.0</ele><time>2026-04-28T10:27:54Z</time></trkpt><trkpt lat="44.877041206184785" lon="8.993107928856801"><ele>194.0</ele><time>2026-04-28T10:27:55Z</time></trkpt><trkpt lat="44.87689504217999" lon="8.99317695767747"><ele>195.66666666666669</ele><time>2026-04-28T10:27:56Z</time></trkpt><trkpt lat="44.87673743846102" lon="8.993229597121545"><ele>197.33333333333331</ele><time>2026-04-28T10:27:57Z</time></trkpt><trkpt lat="44.87657493624008" lon="8.993273905893005"><ele>199.0</ele><time>2026-04-28T10:27:58Z</time></trkpt><trkpt lat="44.87640718493223" lon="8.993317514094395"><ele>197.33333333333331</ele><time>2026-04-28T10:27:59Z</time></trkpt><trkpt lat="44.87623202449519" lon="8.993363237880848"><ele>195.66666666666669</ele><time>2026-04-28T10:28:00Z</time></trkpt><trkpt lat="44.87606786171173" lon="8.99340739601036"><ele>194.0</ele><time>2026-04-28T10:28:01Z</time></trkpt><trkpt lat="44.87591119485259" lon="8.993465268299031"><ele>194.0</ele><time>2026-04-28T10:28:02Z</time></trkpt><trkpt lat="44.87574040754692" lon="8.993493941069065"><ele>194.0</ele><time>2026-04-28T10:28:03Z</time></trkpt><trkpt lat="44.875568536999616" lon="8.993527077813567"><ele>194.0</ele><time>2026-04-28T10:28:04Z</time></trkpt><trkpt lat="44.87540735417688" lon="8.993528183804404"><ele>194.0</ele><time>2026-04-28T10:28:05Z</time></trkpt><trkpt lat="44.87525695131357" lon="8.99350076167153"><ele>194.0</ele><time>2026-04-28T10:28:06Z</time></trkpt><trkpt lat="44.87510040320902" lon="8.993455913155739"><ele>194.0</ele><time>2026-04-28T10:28:07Z</time></trkpt><trkpt lat="44.87494873251408" lon="8.993400409687572"><ele>196.0</ele><time>2026-04-28T10:28:08Z</time></trkpt><trkpt lat="44.87480397612092" lon="8.993338115526704"><ele>198.0</ele><time>2026-04-28T10:28:08.999Z</time></trkpt><trkpt lat="44.87466100730503" lon="8.993281473431388"><ele>200.0</ele><time>2026-04-28T10:28:09.999Z</time></trkpt><trkpt lat="44.87450821540808" lon="8.99325065147252"><ele>200.0</ele><time>2026-04-28T10:28:10.999Z</time></trkpt><trkpt lat="44.87434786723474" lon="8.993243890081075"><ele>200.0</ele><time>2026-04-28T10:28:11.999Z</time></trkpt><trkpt lat="44.87418780859657" lon="8.993253781595179"><ele>200.0</ele><time>2026-04-28T10:28:12.999Z</time></trkpt><trkpt lat="44.87402355551071" lon="8.993264466421419"><ele>200.0</ele><time>2026-04-28T10:28:13.999Z</time></trkpt><trkpt lat="44.87385223697879" lon="8.993316336204966"><ele>200.0</ele><time>2026-04-28T10:28:14.999Z</time></trkpt><trkpt lat="44.87368401351978" lon="8.993380936220605"><ele>200.0</ele><time>2026-04-28T10:28:15.999Z</time></trkpt><trkpt lat="44.873524513454896" lon="8.993446729137977"><ele>200.66666666666669</ele><time>2026-04-28T10:28:16.999Z</time></trkpt><trkpt lat="44.87336392396672" lon="8.993514286470242"><ele>201.33333333333331</ele><time>2026-04-28T10:28:17.999Z</time></trkpt><trkpt lat="44.87320559611726" lon="8.993581454346609"><ele>202.0</ele><time>2026-04-28T10:28:18.999Z</time></trkpt><trkpt lat="44.87305198793819" lon="8.993650127412252"><ele>202.0</ele><time>2026-04-28T10:28:19.999Z</time></trkpt><trkpt lat="44.8728961691621" lon="8.993722091270456"><ele>202.0</ele><time>2026-04-28T10:28:20.999Z</time></trkpt><trkpt lat="44.872744146722766" lon="8.993804907277834"><ele>202.0</ele><time>2026-04-28T10:28:21.999Z</time></trkpt><trkpt lat="44.8725935431133" lon="8.99389968760925"><ele>201.66666666666666</ele><time>2026-04-28T10:28:22.999Z</time></trkpt><trkpt lat="44.872440512184475" lon="8.9940031097267"><ele>201.33333333333331</ele><time>2026-04-28T10:28:23.999Z</time></trkpt><trkpt lat="44.87229005687105" lon="8.994106129776611"><ele>201.0</ele><time>2026-04-28T10:28:24.999Z</time></trkpt><trkpt lat="44.87213607286671" lon="8.994210424758379"><ele>201.0</ele><time>2026-04-28T10:28:25.999Z</time></trkpt><trkpt lat="44.871987569946185" lon="8.994310910862605"><ele>201.0</ele><time>2026-04-28T10:28:26.999Z</time></trkpt><trkpt lat="44.87183709954574" lon="8.994412728193646"><ele>201.0</ele><time>2026-04-28T10:28:27.999Z</time></trkpt><trkpt lat="44.8716814625287" lon="8.994515474894738"><ele>203.0</ele><time>2026-04-28T10:28:28.999Z</time></trkpt><trkpt lat="44.871526009145775" lon="8.99460586049419"><ele>205.0</ele><time>2026-04-28T10:28:29.999Z</time></trkpt><trkpt lat="44.87136976911678" lon="8.9946853031178"><ele>207.0</ele><time>2026-04-28T10:28:30.999Z</time></trkpt><trkpt lat="44.87120811777361" lon="8.99475945358568"><ele>207.0</ele><time>2026-04-28T10:28:31.999Z</time></trkpt><trkpt lat="44.87104467986363" lon="8.99483020020247"><ele>207.0</ele><time>2026-04-28T10:28:32.999Z</time></trkpt><trkpt lat="44.87086936925612" lon="8.99490239308688"><ele>207.0</ele><time>2026-04-28T10:28:33.999Z</time></trkpt><trkpt lat="44.870702849711265" lon="8.994970965890921"><ele>206.0</ele><time>2026-04-28T10:28:34.999Z</time></trkpt><trkpt lat="44.87053556428569" lon="8.995039853920519"><ele>205.0</ele><time>2026-04-28T10:28:35.999Z</time></trkpt><trkpt lat="44.870369553524164" lon="8.995124571862757"><ele>204.0</ele><time>2026-04-28T10:28:36.999Z</time></trkpt><trkpt lat="44.870208974383054" lon="8.995190106754524"><ele>205.33333333333331</ele><time>2026-04-28T10:28:37.999Z</time></trkpt><trkpt lat="44.87004183563264" lon="8.995244129123957"><ele>206.66666666666666</ele><time>2026-04-28T10:28:38.999Z</time></trkpt><trkpt lat="44.86989003382679" lon="8.995327114340318"><ele>208.0</ele><time>2026-04-28T10:28:39.999Z</time></trkpt><trkpt lat="44.86973081933042" lon="8.99538890942229"><ele>208.0</ele><time>2026-04-28T10:28:40.999Z</time></trkpt><trkpt lat="44.86957427707207" lon="8.995455817470766"><ele>208.0</ele><time>2026-04-28T10:28:41.999Z</time></trkpt><trkpt lat="44.86941580479384" lon="8.995532724994336"><ele>208.0</ele><time>2026-04-28T10:28:42.999Z</time></trkpt><trkpt lat="44.8692554080184" lon="8.995612403734642"><ele>206.66666666666666</ele><time>2026-04-28T10:28:43.999Z</time></trkpt><trkpt lat="44.86910020067723" lon="8.995703625706241"><ele>205.33333333333331</ele><time>2026-04-28T10:28:44.999Z</time></trkpt><trkpt lat="44.86894062530691" lon="8.995774375318282"><ele>204.0</ele><time>2026-04-28T10:28:45.999Z</time></trkpt><trkpt lat="44.868783733817786" lon="8.995862479233276"><ele>204.0</ele><time>2026-04-28T10:28:46.999Z</time></trkpt><trkpt lat="44.86862336336264" lon="8.995951107021844"><ele>204.0</ele><time>2026-04-28T10:28:47.999Z</time></trkpt><trkpt lat="44.868467428999026" lon="8.996034301900902"><ele>204.0</ele><time>2026-04-28T10:28:48.999Z</time></trkpt><trkpt lat="44.86829761609148" lon="8.996111453790087"><ele>205.0</ele><time>2026-04-28T10:28:49.999Z</time></trkpt><trkpt lat="44.86813058297676" lon="8.99617470754476"><ele>206.0</ele><time>2026-04-28T10:28:50.999Z</time></trkpt><trkpt lat="44.86795942650674" lon="8.996224474841698"><ele>207.0</ele><time>2026-04-28T10:28:51.999Z</time></trkpt><trkpt lat="44.86778957926633" lon="8.996279289470433"><ele>207.0</ele><time>2026-04-28T10:28:52.999Z</time></trkpt><trkpt lat="44.86761967977241" lon="8.996326044718339"><ele>207.0</ele><time>2026-04-28T10:28:53.999Z</time></trkpt><trkpt lat="44.86744835639311" lon="8.996366055583671"><ele>207.0</ele><time>2026-04-28T10:28:54.999Z</time></trkpt><trkpt lat="44.867277369251845" lon="8.996410959750987"><ele>207.33333333333331</ele><time>2026-04-28T10:28:55.999Z</time></trkpt><trkpt lat="44.86709576673603" lon="8.996432399166856"><ele>207.66666666666666</ele><time>2026-04-28T10:28:56.999Z</time></trkpt><trkpt lat="44.86692378491116" lon="8.99649526477241"><ele>208.0</ele><time>2026-04-28T10:28:57.999Z</time></trkpt><trkpt lat="44.86674375282794" lon="8.996538521424823"><ele>207.0</ele><time>2026-04-28T10:28:58.999Z</time></trkpt><trkpt lat="44.86656328900583" lon="8.996583999446482"><ele>206.0</ele><time>2026-04-28T10:28:59.999Z</time></trkpt><trkpt lat="44.86637606574223" lon="8.996609518295196"><ele>205.0</ele><time>2026-04-28T10:29:00.999Z</time></trkpt><trkpt lat="44.86619898332501" lon="8.996683159308555"><ele>205.0</ele><time>2026-04-28T10:29:01.999Z</time></trkpt><trkpt lat="44.86603258869484" lon="8.996776267978197"><ele>205.0</ele><time>2026-04-28T10:29:02.999Z</time></trkpt><trkpt lat="44.865877380972044" lon="8.99691332028897"><ele>205.0</ele><time>2026-04-28T10:29:03.999Z</time></trkpt><trkpt lat="44.86572045565432" lon="8.997051735704758"><ele>205.0</ele><time>2026-04-28T10:29:04.999Z</time></trkpt><trkpt lat="44.86557599846572" lon="8.997208967795558"><ele>205.0</ele><time>2026-04-28T10:29:05.999Z</time></trkpt><trkpt lat="44.86541379054061" lon="8.997344377765195"><ele>205.0</ele><time>2026-04-28T10:29:07Z</time></trkpt><trkpt lat="44.86526082435081" lon="8.997498272600124"><ele>206.66666666666666</ele><time>2026-04-28T10:29:08Z</time></trkpt><trkpt lat="44.865105835923025" lon="8.997654550443485"><ele>208.33333333333331</ele><time>2026-04-28T10:29:09Z</time></trkpt><trkpt lat="44.864947203685894" lon="8.997813921055002"><ele>210.0</ele><time>2026-04-28T10:29:10Z</time></trkpt><trkpt lat="44.864785131668256" lon="8.99797732755924"><ele>210.0</ele><time>2026-04-28T10:29:11Z</time></trkpt><trkpt lat="44.86462764779563" lon="8.998136108153343"><ele>210.0</ele><time>2026-04-28T10:29:12Z</time></trkpt><trkpt lat="44.864472024861165" lon="8.998293896882705"><ele>210.0</ele><time>2026-04-28T10:29:13Z</time></trkpt><trkpt lat="44.86431262339171" lon="8.998455819298947"><ele>209.33333333333331</ele><time>2026-04-28T10:29:14Z</time></trkpt><trkpt lat="44.86415745618054" lon="8.998613440599966"><ele>208.66666666666666</ele><time>2026-04-28T10:29:15Z</time></trkpt><trkpt lat="44.86399589410503" lon="8.998777557773487"><ele>208.0</ele><time>2026-04-28T10:29:16Z</time></trkpt><trkpt lat="44.8638416071292" lon="8.998930675489573"><ele>208.0</ele><time>2026-04-28T10:29:17Z</time></trkpt><trkpt lat="44.863687443250214" lon="8.999068234907506"><ele>208.0</ele><time>2026-04-28T10:29:18Z</time></trkpt><trkpt lat="44.86352453436975" lon="8.999187346794288"><ele>208.0</ele><time>2026-04-28T10:29:19Z</time></trkpt><trkpt lat="44.863367738241955" lon="8.99929698935645"><ele>208.0</ele><time>2026-04-28T10:29:20Z</time></trkpt><trkpt lat="44.86321198234259" lon="8.999366599857362"><ele>208.0</ele><time>2026-04-28T10:29:21Z</time></trkpt><trkpt lat="44.86305153643221" lon="8.999413141696591"><ele>208.0</ele><time>2026-04-28T10:29:22Z</time></trkpt><trkpt lat="44.86288501701611" lon="8.999442146861014"><ele>208.0</ele><time>2026-04-28T10:29:23Z</time></trkpt><trkpt lat="44.862707797977855" lon="8.999435097049933"><ele>208.0</ele><time>2026-04-28T10:29:24Z</time></trkpt><trkpt lat="44.86253120400453" lon="8.999441597442587"><ele>208.0</ele><time>2026-04-28T10:29:25Z</time></trkpt><trkpt lat="44.862364768115995" lon="8.999455370145458"><ele>210.33333333333331</ele><time>2026-04-28T10:29:26Z</time></trkpt><trkpt lat="44.862204809580454" lon="8.999490301230265"><ele>212.66666666666669</ele><time>2026-04-28T10:29:27Z</time></trkpt><trkpt lat="44.862040323104345" lon="8.999551186648691"><ele>215.0</ele><time>2026-04-28T10:29:28Z</time></trkpt><trkpt lat="44.861882953112485" lon="8.999668170074308"><ele>215.66666666666669</ele><time>2026-04-28T10:29:29Z</time></trkpt><trkpt lat="44.861732861475296" lon="8.999790083008628"><ele>216.33333333333331</ele><time>2026-04-28T10:29:30Z</time></trkpt><trkpt lat="44.86160283511587" lon="8.999927713494325"><ele>217.0</ele><time>2026-04-28T10:29:31Z</time></trkpt><trkpt lat="44.861472353747125" lon="9.000074169794475"><ele>217.0</ele><time>2026-04-28T10:29:32Z</time></trkpt><trkpt lat="44.86136437879919" lon="9.000264428577626"><ele>217.0</ele><time>2026-04-28T10:29:33Z</time></trkpt><trkpt lat="44.86126375836646" lon="9.000474721285759"><ele>217.0</ele><time>2026-04-28T10:29:34Z</time></trkpt><trkpt lat="44.8611644162086" lon="9.000693627934208"><ele>218.66666666666666</ele><time>2026-04-28T10:29:35Z</time></trkpt><trkpt lat="44.86106118168597" lon="9.000921110574165"><ele>220.33333333333331</ele><time>2026-04-28T10:29:36Z</time></trkpt><trkpt lat="44.8609590951515" lon="9.001147659505563"><ele>222.0</ele><time>2026-04-28T10:29:37Z</time></trkpt><trkpt lat="44.86085964367858" lon="9.001370946488267"><ele>222.0</ele><time>2026-04-28T10:29:38Z</time></trkpt><trkpt lat="44.86076269129396" lon="9.001588622529676"><ele>222.0</ele><time>2026-04-28T10:29:39Z</time></trkpt><trkpt lat="44.86066578084493" lon="9.001804138490822"><ele>222.0</ele><time>2026-04-28T10:29:40Z</time></trkpt><trkpt lat="44.86057029040499" lon="9.002015331678807"><ele>219.33333333333331</ele><time>2026-04-28T10:29:41Z</time></trkpt><trkpt lat="44.86047764446573" lon="9.002226895142476"><ele>216.66666666666666</ele><time>2026-04-28T10:29:42Z</time></trkpt><trkpt lat="44.860384833536315" lon="9.00243820254701"><ele>214.0</ele><time>2026-04-28T10:29:43Z</time></trkpt><trkpt lat="44.86029473163302" lon="9.002652096752534"><ele>213.33333333333331</ele><time>2026-04-28T10:29:44Z</time></trkpt><trkpt lat="44.86020537951968" lon="9.002861912526248"><ele>212.66666666666669</ele><time>2026-04-28T10:29:45Z</time></trkpt><trkpt lat="44.86011668642422" lon="9.003070180809535"><ele>212.0</ele><time>2026-04-28T10:29:46Z</time></trkpt><trkpt lat="44.8600285731998" lon="9.003277087439164"><ele>214.33333333333334</ele><time>2026-04-28T10:29:47Z</time></trkpt><trkpt lat="44.85995671556768" lon="9.00349003365334"><ele>216.66666666666669</ele><time>2026-04-28T10:29:48Z</time></trkpt><trkpt lat="44.859864089216835" lon="9.003691530014503"><ele>219.0</ele><time>2026-04-28T10:29:49Z</time></trkpt><trkpt lat="44.85978052116923" lon="9.003886808669408"><ele>219.0</ele><time>2026-04-28T10:29:50Z</time></trkpt><trkpt lat="44.8596716288083" lon="9.0040289649579"><ele>219.0</ele><time>2026-04-28T10:29:51Z</time></trkpt><trkpt lat="44.85956018294851" lon="9.004163451675044"><ele>219.0</ele><time>2026-04-28T10:29:52Z</time></trkpt><trkpt lat="44.85943283774626" lon="9.00429350474564"><ele>218.33333333333331</ele><time>2026-04-28T10:29:53Z</time></trkpt><trkpt lat="44.85930547184896" lon="9.00441883940451"><ele>217.66666666666666</ele><time>2026-04-28T10:29:54Z</time></trkpt><trkpt lat="44.85916151275168" lon="9.00451908135869"><ele>217.0</ele><time>2026-04-28T10:29:55Z</time></trkpt><trkpt lat="44.8590089985223" lon="9.004605037289183"><ele>220.0</ele><time>2026-04-28T10:29:56Z</time></trkpt><trkpt lat="44.85886042986442" lon="9.004687667067648"><ele>223.0</ele><time>2026-04-28T10:29:57Z</time></trkpt><trkpt lat="44.85871565709142" lon="9.004758147994737"><ele>226.0</ele><time>2026-04-28T10:29:58Z</time></trkpt><trkpt lat="44.85856489241559" lon="9.004775506724362"><ele>232.0</ele><time>2026-04-28T10:29:59Z</time></trkpt><trkpt lat="44.85841459627208" lon="9.004824712251336"><ele>238.0</ele><time>2026-04-28T10:30:00Z</time></trkpt><trkpt lat="44.85826026042121" lon="9.004834865109517"><ele>244.0</ele><time>2026-04-28T10:30:01Z</time></trkpt><trkpt lat="44.858101515555894" lon="9.004819926147608"><ele>244.0</ele><time>2026-04-28T10:30:02Z</time></trkpt><trkpt lat="44.85793761595747" lon="9.004785177650826"><ele>244.0</ele><time>2026-04-28T10:30:03Z</time></trkpt><trkpt lat="44.85778206545598" lon="9.00473728967872"><ele>244.0</ele><time>2026-04-28T10:30:04Z</time></trkpt><trkpt lat="44.85763522932733" lon="9.004693775292578"><ele>243.75</ele><time>2026-04-28T10:30:05Z</time></trkpt><trkpt lat="44.857502505947004" lon="9.004660721383452"><ele>243.5</ele><time>2026-04-28T10:30:06Z</time></trkpt><trkpt lat="44.857372242388934" lon="9.004638363849857"><ele>243.25</ele><time>2026-04-28T10:30:07Z</time></trkpt><trkpt lat="44.85724297498588" lon="9.0046237317257"><ele>243.0</ele><time>2026-04-28T10:30:08Z</time></trkpt><trkpt lat="44.85710301009601" lon="9.004634223615863"><ele>243.0</ele><time>2026-04-28T10:30:09Z</time></trkpt><trkpt lat="44.85695420155173" lon="9.00468893577513"><ele>243.0</ele><time>2026-04-28T10:30:10Z</time></trkpt><trkpt lat="44.856804340289194" lon="9.004783135424198"><ele>243.0</ele><time>2026-04-28T10:30:11Z</time></trkpt><trkpt lat="44.856660924193996" lon="9.004879458169349"><ele>241.75</ele><time>2026-04-28T10:30:12Z</time></trkpt><trkpt lat="44.85654251176818" lon="9.004985415406983"><ele>240.5</ele><time>2026-04-28T10:30:13Z</time></trkpt><trkpt lat="44.85642599369086" lon="9.005074694779713"><ele>239.25</ele><time>2026-04-28T10:30:13.999Z</time></trkpt><trkpt lat="44.856312689347305" lon="9.005139036928169"><ele>238.0</ele><time>2026-04-28T10:30:14.999Z</time></trkpt><trkpt lat="44.85620000052247" lon="9.00519528310863"><ele>235.25</ele><time>2026-04-28T10:30:15.999Z</time></trkpt><trkpt lat="44.856082851683524" lon="9.005252104879345"><ele>232.5</ele><time>2026-04-28T10:30:16.999Z</time></trkpt><trkpt lat="44.85595942824293" lon="9.005309679819682"><ele>229.75</ele><time>2026-04-28T10:30:17.999Z</time></trkpt><trkpt lat="44.85584549419034" lon="9.005361610124226"><ele>227.0</ele><time>2026-04-28T10:30:18.999Z</time></trkpt><trkpt lat="44.85573057698372" lon="9.005414562587896"><ele>227.0</ele><time>2026-04-28T10:30:19.999Z</time></trkpt><trkpt lat="44.855621116450806" lon="9.00546500066356"><ele>227.0</ele><time>2026-04-28T10:30:20.999Z</time></trkpt><trkpt lat="44.85552741868581" lon="9.005509059188329"><ele>227.0</ele><time>2026-04-28T10:30:21.999Z</time></trkpt><trkpt lat="44.85545794672797" lon="9.005542104227606"><ele>227.0</ele><time>2026-04-28T10:30:22.999Z</time></trkpt><trkpt lat="44.855373410068296" lon="9.005591602293837"><ele>227.0</ele><time>2026-04-28T10:30:32.999Z</time></trkpt><trkpt lat="44.85529712709737" lon="9.005624571411728"><ele>227.0</ele><time>2026-04-28T10:30:33.999Z</time></trkpt><trkpt lat="44.85519423731139" lon="9.005660051130462"><ele>227.0</ele><time>2026-04-28T10:30:34.999Z</time></trkpt><trkpt lat="44.8550703777946" lon="9.005718179751872"><ele>227.0</ele><time>2026-04-28T10:30:35.999Z</time></trkpt><trkpt lat="44.8549205630889" lon="9.005793287929855"><ele>227.0</ele><time>2026-04-28T10:30:36.999Z</time></trkpt><trkpt lat="44.85476813163292" lon="9.005854181866798"><ele>227.0</ele><time>2026-04-28T10:30:37.999Z</time></trkpt><trkpt lat="44.85459951282357" lon="9.005934565264877"><ele>227.0</ele><time>2026-04-28T10:30:38.999Z</time></trkpt><trkpt lat="44.85440562085185" lon="9.006027945041291"><ele>227.0</ele><time>2026-04-28T10:30:39.999Z</time></trkpt><trkpt lat="44.85417704285563" lon="9.00613715457145"><ele>227.0</ele><time>2026-04-28T10:30:40.999Z</time></trkpt><trkpt lat="44.853933276217745" lon="9.006261575225672"><ele>227.0</ele><time>2026-04-28T10:30:41.999Z</time></trkpt><trkpt lat="44.853677248097306" lon="9.006380514976815"><ele>228.5</ele><time>2026-04-28T10:30:42.999Z</time></trkpt><trkpt lat="44.85341617706503" lon="9.00649972087884"><ele>230.0</ele><time>2026-04-28T10:30:43.999Z</time></trkpt><trkpt lat="44.853141888749185" lon="9.006639419671593"><ele>230.0</ele><time>2026-04-28T10:30:44.999Z</time></trkpt><trkpt lat="44.852847990025786" lon="9.00675344752718"><ele>230.0</ele><time>2026-04-28T10:30:45.999Z</time></trkpt><trkpt lat="44.85257123310576" lon="9.006881431346452"><ele>230.0</ele><time>2026-04-28T10:30:46.999Z</time></trkpt><trkpt lat="44.85231885722132" lon="9.007020424371166"><ele>230.0</ele><time>2026-04-28T10:30:47.999Z</time></trkpt><trkpt lat="44.85208024906302" lon="9.007129028164963"><ele>230.0</ele><time>2026-04-28T10:30:48.999Z</time></trkpt><trkpt lat="44.85184611276317" lon="9.007236584519056"><ele>230.0</ele><time>2026-04-28T10:30:49.999Z</time></trkpt><trkpt lat="44.85160582554704" lon="9.007353499954409"><ele>232.0</ele><time>2026-04-28T10:30:50.999Z</time></trkpt><trkpt lat="44.85137592652217" lon="9.007435802816728"><ele>234.0</ele><time>2026-04-28T10:30:51.999Z</time></trkpt><trkpt lat="44.85116389209338" lon="9.007534948483832"><ele>232.66666666666669</ele><time>2026-04-28T10:30:52.999Z</time></trkpt><trkpt lat="44.85096121136836" lon="9.007637468767998"><ele>231.33333333333334</ele><time>2026-04-28T10:30:53.999Z</time></trkpt><trkpt lat="44.850767039188675" lon="9.007756923902203"><ele>230.0</ele><time>2026-04-28T10:30:54.999Z</time></trkpt><trkpt lat="44.8505887915773" lon="9.00791352657957"><ele>230.0</ele><time>2026-04-28T10:30:55.999Z</time></trkpt><trkpt lat="44.850409109861445" lon="9.008076725563345"><ele>230.0</ele><time>2026-04-28T10:30:56.999Z</time></trkpt><trkpt lat="44.850237707689736" lon="9.008260881711886"><ele>230.0</ele><time>2026-04-28T10:30:57.999Z</time></trkpt><trkpt lat="44.85006069956743" lon="9.0084368650606"><ele>230.0</ele><time>2026-04-28T10:30:58.999Z</time></trkpt><trkpt lat="44.849892923547515" lon="9.00862901426978"><ele>230.0</ele><time>2026-04-28T10:30:59.999Z</time></trkpt><trkpt lat="44.84972368807752" lon="9.008822675523438"><ele>230.0</ele><time>2026-04-28T10:31:00.999Z</time></trkpt><trkpt lat="44.849553429280164" lon="9.009017069230328"><ele>230.0</ele><time>2026-04-28T10:31:01.999Z</time></trkpt><trkpt lat="44.84938501795291" lon="9.009209353524074"><ele>230.0</ele><time>2026-04-28T10:31:02.999Z</time></trkpt><trkpt lat="44.8492170142811" lon="9.009401259777567"><ele>230.0</ele><time>2026-04-28T10:31:03.999Z</time></trkpt><trkpt lat="44.849052110148165" lon="9.009590223383043"><ele>230.0</ele><time>2026-04-28T10:31:04.999Z</time></trkpt><trkpt lat="44.84889448856878" lon="9.009770247396563"><ele>230.0</ele><time>2026-04-28T10:31:05.999Z</time></trkpt><trkpt lat="44.848737246603164" lon="9.009949837800722"><ele>230.0</ele><time>2026-04-28T10:31:06.999Z</time></trkpt><trkpt lat="44.84858207000903" lon="9.010127069336495"><ele>231.66666666666669</ele><time>2026-04-28T10:31:07.999Z</time></trkpt><trkpt lat="44.84842967982146" lon="9.01030111838437"><ele>233.33333333333331</ele><time>2026-04-28T10:31:08.999Z</time></trkpt><trkpt lat="44.84827564926986" lon="9.010477040983488"><ele>235.0</ele><time>2026-04-28T10:31:09.999Z</time></trkpt><trkpt lat="44.848123856388575" lon="9.01065020394183"><ele>235.0</ele><time>2026-04-28T10:31:10.999Z</time></trkpt><trkpt lat="44.84797183565973" lon="9.010822907766393"><ele>235.0</ele><time>2026-04-28T10:31:11.999Z</time></trkpt><trkpt lat="44.84781940718455" lon="9.01099587971071"><ele>235.0</ele><time>2026-04-28T10:31:13Z</time></trkpt><trkpt lat="44.847664217882105" lon="9.011171506671824"><ele>234.66666666666666</ele><time>2026-04-28T10:31:14Z</time></trkpt><trkpt lat="44.84750708250359" lon="9.011343526632906"><ele>234.33333333333331</ele><time>2026-04-28T10:31:15Z</time></trkpt><trkpt lat="44.84735314825193" lon="9.011527395734072"><ele>234.0</ele><time>2026-04-28T10:31:16Z</time></trkpt><trkpt lat="44.84718107486585" lon="9.011661277095948"><ele>234.66666666666669</ele><time>2026-04-28T10:31:17Z</time></trkpt><trkpt lat="44.8470220616868" lon="9.011833556169298"><ele>235.33333333333334</ele><time>2026-04-28T10:31:18Z</time></trkpt><trkpt lat="44.84685310502483" lon="9.011977643161753"><ele>236.0</ele><time>2026-04-28T10:31:19Z</time></trkpt><trkpt lat="44.846683842293174" lon="9.012120680138729"><ele>236.33333333333334</ele><time>2026-04-28T10:31:20Z</time></trkpt><trkpt lat="44.846517200123444" lon="9.012269445913198"><ele>236.66666666666669</ele><time>2026-04-28T10:31:21Z</time></trkpt><trkpt lat="44.846349186028824" lon="9.01241239452912"><ele>237.0</ele><time>2026-04-28T10:31:22Z</time></trkpt><trkpt lat="44.846176463074485" lon="9.01254545300576"><ele>237.0</ele><time>2026-04-28T10:31:23Z</time></trkpt><trkpt lat="44.8460205673413" lon="9.01273487467318"><ele>237.0</ele><time>2026-04-28T10:31:24Z</time></trkpt><trkpt lat="44.8458912979551" lon="9.01295767468177"><ele>237.0</ele><time>2026-04-28T10:31:25Z</time></trkpt><trkpt lat="44.84578479299741" lon="9.013206923751175"><ele>237.0</ele><time>2026-04-28T10:31:26Z</time></trkpt><trkpt lat="44.84565130734101" lon="9.013431562723449"><ele>237.0</ele><time>2026-04-28T10:31:27Z</time></trkpt><trkpt lat="44.845534824656944" lon="9.01368078006511"><ele>237.0</ele><time>2026-04-28T10:31:28Z</time></trkpt><trkpt lat="44.845380923157116" lon="9.013873312036297"><ele>237.0</ele><time>2026-04-28T10:31:29Z</time></trkpt><trkpt lat="44.84521595813446" lon="9.014062547566287"><ele>237.0</ele><time>2026-04-28T10:31:30Z</time></trkpt><trkpt lat="44.845029570603266" lon="9.014226941949959"><ele>237.0</ele><time>2026-04-28T10:31:31Z</time></trkpt><trkpt lat="44.84481659399269" lon="9.014392532462347"><ele>238.33333333333331</ele><time>2026-04-28T10:31:32Z</time></trkpt><trkpt lat="44.84461241287865" lon="9.014550608014195"><ele>239.66666666666666</ele><time>2026-04-28T10:31:33Z</time></trkpt><trkpt lat="44.84443197715544" lon="9.014709585625253"><ele>241.0</ele><time>2026-04-28T10:31:34Z</time></trkpt><trkpt lat="44.844258623362435" lon="9.014852830464058"><ele>240.66666666666666</ele><time>2026-04-28T10:31:35Z</time></trkpt><trkpt lat="44.844075671754155" lon="9.014975172644222"><ele>240.33333333333331</ele><time>2026-04-28T10:31:36Z</time></trkpt><trkpt lat="44.84389579489055" lon="9.015139353312456"><ele>240.0</ele><time>2026-04-28T10:31:37Z</time></trkpt><trkpt lat="44.84370852753387" lon="9.015335739281063"><ele>240.0</ele><time>2026-04-28T10:31:38Z</time></trkpt><trkpt lat="44.843514462932255" lon="9.015567596291318"><ele>240.0</ele><time>2026-04-28T10:31:39Z</time></trkpt><trkpt lat="44.843306683520375" lon="9.015820139661072"><ele>241.5</ele><time>2026-04-28T10:31:40Z</time></trkpt><trkpt lat="44.843106353548336" lon="9.01606580145502"><ele>243.0</ele><time>2026-04-28T10:31:41Z</time></trkpt><trkpt lat="44.842922228261095" lon="9.016291644473277"><ele>243.0</ele><time>2026-04-28T10:31:42Z</time></trkpt><trkpt lat="44.84275682101604" lon="9.016496788939202"><ele>243.0</ele><time>2026-04-28T10:31:43Z</time></trkpt><trkpt lat="44.842606104522076" lon="9.016695416788828"><ele>243.0</ele><time>2026-04-28T10:31:44Z</time></trkpt><trkpt lat="44.842475714385" lon="9.016902754903134"><ele>242.66666666666669</ele><time>2026-04-28T10:31:45Z</time></trkpt><trkpt lat="44.84238121268413" lon="9.017134512079199"><ele>242.33333333333334</ele><time>2026-04-28T10:31:46Z</time></trkpt><trkpt lat="44.84229257235287" lon="9.017362516705393"><ele>242.0</ele><time>2026-04-28T10:31:47Z</time></trkpt><trkpt lat="44.84221817285802" lon="9.01763175165234"><ele>237.5</ele><time>2026-04-28T10:31:48Z</time></trkpt><trkpt lat="44.84214789189152" lon="9.017928558796664"><ele>233.0</ele><time>2026-04-28T10:31:49Z</time></trkpt><trkpt lat="44.842131157579075" lon="9.018255677181417"><ele>233.0</ele><time>2026-04-28T10:31:50Z</time></trkpt><trkpt lat="44.8421109526777" lon="9.018546588155978"><ele>233.0</ele><time>2026-04-28T10:31:51Z</time></trkpt><trkpt lat="44.84208882333016" lon="9.018823758428894"><ele>233.0</ele><time>2026-04-28T10:31:52Z</time></trkpt><trkpt lat="44.842060794199256" lon="9.019105055834698"><ele>233.33333333333334</ele><time>2026-04-28T10:31:53Z</time></trkpt><trkpt lat="44.84202136400843" lon="9.01938574881826"><ele>233.66666666666669</ele><time>2026-04-28T10:31:54Z</time></trkpt><trkpt lat="44.84194866854499" lon="9.01963960599247"><ele>234.0</ele><time>2026-04-28T10:31:55Z</time></trkpt><trkpt lat="44.841851970635695" lon="9.019896088346217"><ele>235.66666666666669</ele><time>2026-04-28T10:31:56Z</time></trkpt><trkpt lat="44.8417208721496" lon="9.020124034109212"><ele>237.33333333333334</ele><time>2026-04-28T10:31:57Z</time></trkpt><trkpt lat="44.84157207262846" lon="9.02036502314958"><ele>239.0</ele><time>2026-04-28T10:31:58Z</time></trkpt><trkpt lat="44.841403892129584" lon="9.020624962414162"><ele>239.0</ele><time>2026-04-28T10:31:59Z</time></trkpt><trkpt lat="44.84121873034868" lon="9.020906192667907"><ele>239.0</ele><time>2026-04-28T10:32:00Z</time></trkpt><trkpt lat="44.84101939234875" lon="9.021208954460379"><ele>240.0</ele><time>2026-04-28T10:32:01Z</time></trkpt><trkpt lat="44.84082542352156" lon="9.021507345057785"><ele>241.0</ele><time>2026-04-28T10:32:02Z</time></trkpt><trkpt lat="44.84066041941245" lon="9.021761391669067"><ele>241.0</ele><time>2026-04-28T10:32:03Z</time></trkpt><trkpt lat="44.840498805737816" lon="9.022010218148347"><ele>241.0</ele><time>2026-04-28T10:32:04Z</time></trkpt><trkpt lat="44.84034312985363" lon="9.022247603360974"><ele>241.0</ele><time>2026-04-28T10:32:05Z</time></trkpt><trkpt lat="44.840191899438295" lon="9.02246488381301"><ele>241.0</ele><time>2026-04-28T10:32:06Z</time></trkpt><trkpt lat="44.840036191557175" lon="9.022646119650616"><ele>241.0</ele><time>2026-04-28T10:32:07Z</time></trkpt><trkpt lat="44.8398800230464" lon="9.022791058678447"><ele>242.25</ele><time>2026-04-28T10:32:08Z</time></trkpt><trkpt lat="44.839727404979726" lon="9.022899636326686"><ele>243.5</ele><time>2026-04-28T10:32:09Z</time></trkpt><trkpt lat="44.839596884087236" lon="9.0229842971235"><ele>244.75</ele><time>2026-04-28T10:32:10Z</time></trkpt><trkpt lat="44.8394788942364" lon="9.023059094913595"><ele>246.0</ele><time>2026-04-28T10:32:11Z</time></trkpt><trkpt lat="44.83935915562971" lon="9.023132568517239"><ele>246.75</ele><time>2026-04-28T10:32:12Z</time></trkpt><trkpt lat="44.83923665243088" lon="9.02320773847919"><ele>247.5</ele><time>2026-04-28T10:32:12.999Z</time></trkpt><trkpt lat="44.83910759278776" lon="9.023286931647677"><ele>248.25</ele><time>2026-04-28T10:32:13.999Z</time></trkpt><trkpt lat="44.83895600405276" lon="9.023379948852705"><ele>249.0</ele><time>2026-04-28T10:32:14.999Z</time></trkpt><trkpt lat="44.838797550186555" lon="9.023477178823672"><ele>249.0</ele><time>2026-04-28T10:32:15.999Z</time></trkpt><trkpt lat="44.838631930501045" lon="9.023578805751454"><ele>249.0</ele><time>2026-04-28T10:32:16.999Z</time></trkpt><trkpt lat="44.8384569326543" lon="9.023688164456184"><ele>249.0</ele><time>2026-04-28T10:32:17.999Z</time></trkpt><trkpt lat="44.83827948442785" lon="9.023799370749613"><ele>249.0</ele><time>2026-04-28T10:32:18.999Z</time></trkpt><trkpt lat="44.83810017318197" lon="9.023931792415366"><ele>249.0</ele><time>2026-04-28T10:32:19.999Z</time></trkpt><trkpt lat="44.837906166927255" lon="9.024043650761588"><ele>249.0</ele><time>2026-04-28T10:32:20.999Z</time></trkpt><trkpt lat="44.83771453945227" lon="9.024166242196253"><ele>250.0</ele><time>2026-04-28T10:32:21.999Z</time></trkpt><trkpt lat="44.837521632093" lon="9.024286040392806"><ele>251.0</ele><time>2026-04-28T10:32:22.999Z</time></trkpt><trkpt lat="44.83732325127958" lon="9.024407242946562"><ele>252.0</ele><time>2026-04-28T10:32:23.999Z</time></trkpt><trkpt lat="44.837127719734475" lon="9.024529007190392"><ele>252.0</ele><time>2026-04-28T10:32:24.999Z</time></trkpt><trkpt lat="44.83694315694947" lon="9.024647167448544"><ele>252.0</ele><time>2026-04-28T10:32:25.999Z</time></trkpt><trkpt lat="44.83676979034737" lon="9.02474584217159"><ele>252.0</ele><time>2026-04-28T10:32:26.999Z</time></trkpt><trkpt lat="44.83661492342946" lon="9.02486943584998"><ele>253.0</ele><time>2026-04-28T10:32:27.999Z</time></trkpt><trkpt lat="44.83648390212848" lon="9.02502436693128"><ele>254.0</ele><time>2026-04-28T10:32:28.999Z</time></trkpt><trkpt lat="44.836350896654054" lon="9.025171821018565"><ele>255.0</ele><time>2026-04-28T10:32:29.999Z</time></trkpt><trkpt lat="44.83622859838617" lon="9.025323975280937"><ele>255.0</ele><time>2026-04-28T10:32:30.999Z</time></trkpt><trkpt lat="44.83610712616181" lon="9.025483086939643"><ele>255.0</ele><time>2026-04-28T10:32:31.999Z</time></trkpt><trkpt lat="44.83598769163805" lon="9.02564498274578"><ele>255.0</ele><time>2026-04-28T10:32:32.999Z</time></trkpt><trkpt lat="44.835862009149686" lon="9.02580862674765"><ele>255.33333333333331</ele><time>2026-04-28T10:32:33.999Z</time></trkpt><trkpt lat="44.835719044331086" lon="9.02594394551455"><ele>255.66666666666666</ele><time>2026-04-28T10:32:34.999Z</time></trkpt><trkpt lat="44.835590833769345" lon="9.026099086353803"><ele>256.0</ele><time>2026-04-28T10:32:35.999Z</time></trkpt><trkpt lat="44.83543504338935" lon="9.026229470295629"><ele>256.0</ele><time>2026-04-28T10:32:36.999Z</time></trkpt><trkpt lat="44.83527292843969" lon="9.026321047807766"><ele>256.0</ele><time>2026-04-28T10:32:37.999Z</time></trkpt><trkpt lat="44.83510646705975" lon="9.026414500419811"><ele>256.0</ele><time>2026-04-28T10:32:38.999Z</time></trkpt><trkpt lat="44.834936414874846" lon="9.026501155422446"><ele>256.66666666666663</ele><time>2026-04-28T10:32:39.999Z</time></trkpt><trkpt lat="44.834761695668746" lon="9.02658454794021"><ele>257.3333333333333</ele><time>2026-04-28T10:32:40.999Z</time></trkpt><trkpt lat="44.834587821807624" lon="9.026668196084454"><ele>258.0</ele><time>2026-04-28T10:32:41.999Z</time></trkpt><trkpt lat="44.83441317612181" lon="9.026754114332883"><ele>259.6666666666667</ele><time>2026-04-28T10:32:42.999Z</time></trkpt><trkpt lat="44.834237003205516" lon="9.026840783976366"><ele>261.33333333333337</ele><time>2026-04-28T10:32:43.999Z</time></trkpt><trkpt lat="44.83405814676306" lon="9.026928620579517"><ele>263.0</ele><time>2026-04-28T10:32:44.999Z</time></trkpt><trkpt lat="44.83388109460355" lon="9.027015304028206"><ele>263.0</ele><time>2026-04-28T10:32:45.999Z</time></trkpt><trkpt lat="44.83370377285931" lon="9.02710211947209"><ele>263.0</ele><time>2026-04-28T10:32:46.999Z</time></trkpt><trkpt lat="44.83352022465676" lon="9.027191983362389"><ele>263.0</ele><time>2026-04-28T10:32:47.999Z</time></trkpt><trkpt lat="44.83333961658544" lon="9.027280837276683"><ele>263.0</ele><time>2026-04-28T10:32:48.999Z</time></trkpt><trkpt lat="44.833158533927325" lon="9.02737014062775"><ele>263.0</ele><time>2026-04-28T10:32:49.999Z</time></trkpt><trkpt lat="44.8329769163291" lon="9.027459707792909"><ele>263.0</ele><time>2026-04-28T10:32:50.999Z</time></trkpt><trkpt lat="44.83279557714353" lon="9.0275491376534"><ele>262.6666666666667</ele><time>2026-04-28T10:32:51.999Z</time></trkpt><trkpt lat="44.832614099898485" lon="9.027638635605067"><ele>262.3333333333333</ele><time>2026-04-28T10:32:52.999Z</time></trkpt><trkpt lat="44.83243390688639" lon="9.027727871383938"><ele>262.0</ele><time>2026-04-28T10:32:53.999Z</time></trkpt><trkpt lat="44.83225344135712" lon="9.02781797118529"><ele>262.0</ele><time>2026-04-28T10:32:54.999Z</time></trkpt><trkpt lat="44.832075996604644" lon="9.027906562860544"><ele>262.0</ele><time>2026-04-28T10:32:55.999Z</time></trkpt><trkpt lat="44.83190072102585" lon="9.027994071495048"><ele>262.0</ele><time>2026-04-28T10:32:56.999Z</time></trkpt><trkpt lat="44.83172423325854" lon="9.028082185341624"><ele>262.0</ele><time>2026-04-28T10:32:57.999Z</time></trkpt><trkpt lat="44.831545168566414" lon="9.028171585766469"><ele>262.0</ele><time>2026-04-28T10:32:58.999Z</time></trkpt><trkpt lat="44.83136492850991" lon="9.028261572995747"><ele>262.0</ele><time>2026-04-28T10:32:59.999Z</time></trkpt><trkpt lat="44.831185144941344" lon="9.02835133233873"><ele>262.0</ele><time>2026-04-28T10:33:00.999Z</time></trkpt><trkpt lat="44.83097852319701" lon="9.028454490862401"><ele>262.0</ele><time>2026-04-28T10:33:01.999Z</time></trkpt><trkpt lat="44.830752118753495" lon="9.028565306944063"><ele>262.5</ele><time>2026-04-28T10:33:02.999Z</time></trkpt><trkpt lat="44.83050548959496" lon="9.0286854235966"><ele>263.0</ele><time>2026-04-28T10:33:03.999Z</time></trkpt><trkpt lat="44.830268826012656" lon="9.028805332230613"><ele>265.0</ele><time>2026-04-28T10:33:04.999Z</time></trkpt><trkpt lat="44.83004809674054" lon="9.028928405611897"><ele>267.0</ele><time>2026-04-28T10:33:05.999Z</time></trkpt><trkpt lat="44.82982363783452" lon="9.029076776191344"><ele>265.5</ele><time>2026-04-28T10:33:06.999Z</time></trkpt><trkpt lat="44.829583896227156" lon="9.029258381878565"><ele>264.0</ele><time>2026-04-28T10:33:07.999Z</time></trkpt><trkpt lat="44.8293312353228" lon="9.029487305751891"><ele>266.5</ele><time>2026-04-28T10:33:08.999Z</time></trkpt><trkpt lat="44.82908138993819" lon="9.029736149346554"><ele>269.0</ele><time>2026-04-28T10:33:09.999Z</time></trkpt><trkpt lat="44.82886457185009" lon="9.029968954985646"><ele>268.0</ele><time>2026-04-28T10:33:10.999Z</time></trkpt><trkpt lat="44.82866165469814" lon="9.030189151661572"><ele>267.0</ele><time>2026-04-28T10:33:11.999Z</time></trkpt><trkpt lat="44.8284737406943" lon="9.030421274386097"><ele>268.5</ele><time>2026-04-28T10:33:12.999Z</time></trkpt><trkpt lat="44.82826987335683" lon="9.030604648120384"><ele>270.0</ele><time>2026-04-28T10:33:13.999Z</time></trkpt><trkpt lat="44.82807235932154" lon="9.03080891494964"><ele>270.0</ele><time>2026-04-28T10:33:14.999Z</time></trkpt><trkpt lat="44.82788214561924" lon="9.031011341240823"><ele>270.0</ele><time>2026-04-28T10:33:15.999Z</time></trkpt><trkpt lat="44.827692269596305" lon="9.031213408319486"><ele>272.0</ele><time>2026-04-28T10:33:16.999Z</time></trkpt><trkpt lat="44.82751562238737" lon="9.03143017116848"><ele>274.0</ele><time>2026-04-28T10:33:17.999Z</time></trkpt><trkpt lat="44.8273210295482" lon="9.031630534827759"><ele>271.5</ele><time>2026-04-28T10:33:19Z</time></trkpt><trkpt lat="44.82712656350379" lon="9.031827868092527"><ele>269.0</ele><time>2026-04-28T10:33:20Z</time></trkpt><trkpt lat="44.82694062989892" lon="9.032009212106791"><ele>270.0</ele><time>2026-04-28T10:33:21Z</time></trkpt><trkpt lat="44.82673981149444" lon="9.032184777957307"><ele>271.0</ele><time>2026-04-28T10:33:22Z</time></trkpt><trkpt lat="44.826522747675774" lon="9.032357978267491"><ele>268.5</ele><time>2026-04-28T10:33:23Z</time></trkpt><trkpt lat="44.826298021658005" lon="9.032533996448045"><ele>266.0</ele><time>2026-04-28T10:33:24Z</time></trkpt><trkpt lat="44.826057257814405" lon="9.032690756832293"><ele>268.5</ele><time>2026-04-28T10:33:25Z</time></trkpt><trkpt lat="44.82581437553087" lon="9.032873673747693"><ele>271.0</ele><time>2026-04-28T10:33:26Z</time></trkpt><trkpt lat="44.825566076958445" lon="9.033060670032091"><ele>271.0</ele><time>2026-04-28T10:33:27Z</time></trkpt><trkpt lat="44.82530586886148" lon="9.033257087067344"><ele>271.0</ele><time>2026-04-28T10:33:28Z</time></trkpt><trkpt lat="44.82503742557085" lon="9.033462951267715"><ele>271.0</ele><time>2026-04-28T10:33:29Z</time></trkpt><trkpt lat="44.82475661338586" lon="9.03367830053174"><ele>271.0</ele><time>2026-04-28T10:33:30Z</time></trkpt><trkpt lat="44.824493515647184" lon="9.033878346297842"><ele>271.5</ele><time>2026-04-28T10:33:31Z</time></trkpt><trkpt lat="44.82424334864304" lon="9.034068115260979"><ele>272.0</ele><time>2026-04-28T10:33:32Z</time></trkpt><trkpt lat="44.82401688888957" lon="9.034239901014649"><ele>272.0</ele><time>2026-04-28T10:33:33Z</time></trkpt><trkpt lat="44.823803225998965" lon="9.034403995121595"><ele>272.0</ele><time>2026-04-28T10:33:34Z</time></trkpt><trkpt lat="44.82359807185943" lon="9.034562424257398"><ele>274.5</ele><time>2026-04-28T10:33:35Z</time></trkpt><trkpt lat="44.82340289696979" lon="9.034713146859984"><ele>277.0</ele><time>2026-04-28T10:33:36Z</time></trkpt><trkpt lat="44.82320008435665" lon="9.03486869739076"><ele>273.5</ele><time>2026-04-28T10:33:37Z</time></trkpt><trkpt lat="44.8229902411585" lon="9.035028001617928"><ele>270.0</ele><time>2026-04-28T10:33:38Z</time></trkpt><trkpt lat="44.822784573981416" lon="9.03518413609436"><ele>273.0</ele><time>2026-04-28T10:33:39Z</time></trkpt><trkpt lat="44.82258027068371" lon="9.03533923514205"><ele>276.0</ele><time>2026-04-28T10:33:40Z</time></trkpt><trkpt lat="44.822376995535556" lon="9.035493555353579"><ele>276.0</ele><time>2026-04-28T10:33:41Z</time></trkpt><trkpt lat="44.82215955136767" lon="9.035658630239912"><ele>276.0</ele><time>2026-04-28T10:33:42Z</time></trkpt><trkpt lat="44.82192524774426" lon="9.035831924242446"><ele>276.0</ele><time>2026-04-28T10:33:43Z</time></trkpt><trkpt lat="44.821705520981084" lon="9.035985859563747"><ele>276.0</ele><time>2026-04-28T10:33:44Z</time></trkpt><trkpt lat="44.82150218929729" lon="9.036124409527401"><ele>276.0</ele><time>2026-04-28T10:33:45Z</time></trkpt><trkpt lat="44.82130359116929" lon="9.03625899579982"><ele>276.0</ele><time>2026-04-28T10:33:46Z</time></trkpt><trkpt lat="44.82111164320348" lon="9.036387352428681"><ele>276.0</ele><time>2026-04-28T10:33:47Z</time></trkpt><trkpt lat="44.82093931860069" lon="9.03652520647506"><ele>275.0</ele><time>2026-04-28T10:33:48Z</time></trkpt><trkpt lat="44.82076556377834" lon="9.036640321992218"><ele>274.0</ele><time>2026-04-28T10:33:49Z</time></trkpt><trkpt lat="44.820600300413" lon="9.036751798744556"><ele>273.0</ele><time>2026-04-28T10:33:50Z</time></trkpt><trkpt lat="44.82043598222095" lon="9.036856257755787"><ele>273.0</ele><time>2026-04-28T10:33:51Z</time></trkpt><trkpt lat="44.82027320561332" lon="9.036942578011928"><ele>273.0</ele><time>2026-04-28T10:33:52Z</time></trkpt><trkpt lat="44.82011699842904" lon="9.037046224441676"><ele>273.0</ele><time>2026-04-28T10:33:53Z</time></trkpt><trkpt lat="44.8199610484266" lon="9.037151050213097"><ele>275.0</ele><time>2026-04-28T10:33:54Z</time></trkpt><trkpt lat="44.819813607619714" lon="9.037250156297866"><ele>277.0</ele><time>2026-04-28T10:33:55Z</time></trkpt><trkpt lat="44.81967515606026" lon="9.037342187726306"><ele>279.0</ele><time>2026-04-28T10:33:56Z</time></trkpt><trkpt lat="44.81954048614048" lon="9.037431218109269"><ele>278.6666666666667</ele><time>2026-04-28T10:33:57Z</time></trkpt><trkpt lat="44.81940306382098" lon="9.037522068189583"><ele>278.33333333333337</ele><time>2026-04-28T10:33:58Z</time></trkpt><trkpt lat="44.81926374627491" lon="9.037611040603645"><ele>278.0</ele><time>2026-04-28T10:33:59Z</time></trkpt><trkpt lat="44.819122088409166" lon="9.037698614461984"><ele>278.0</ele><time>2026-04-28T10:34:00Z</time></trkpt><trkpt lat="44.81897947020919" lon="9.037782594068322"><ele>278.0</ele><time>2026-04-28T10:34:01Z</time></trkpt><trkpt lat="44.8188388411087" lon="9.03786540267204"><ele>278.0</ele><time>2026-04-28T10:34:02Z</time></trkpt><trkpt lat="44.81869967912613" lon="9.037946871653117"><ele>278.0</ele><time>2026-04-28T10:34:03Z</time></trkpt><trkpt lat="44.81855669337686" lon="9.038029138349456"><ele>278.0</ele><time>2026-04-28T10:34:04Z</time></trkpt><trkpt lat="44.81841302874212" lon="9.038111795678322"><ele>278.0</ele><time>2026-04-28T10:34:05Z</time></trkpt><trkpt lat="44.81827212185345" lon="9.03819286805387"><ele>278.5</ele><time>2026-04-28T10:34:06Z</time></trkpt><trkpt lat="44.818133098473716" lon="9.03826972754197"><ele>279.0</ele><time>2026-04-28T10:34:07Z</time></trkpt><trkpt lat="44.81799676695668" lon="9.038346268098186"><ele>279.5</ele><time>2026-04-28T10:34:08Z</time></trkpt><trkpt lat="44.81786324223703" lon="9.038422252801563"><ele>280.0</ele><time>2026-04-28T10:34:09Z</time></trkpt><trkpt lat="44.817733426195964" lon="9.03851390307789"><ele>279.5</ele><time>2026-04-28T10:34:10Z</time></trkpt><trkpt lat="44.81759570226044" lon="9.038586718253512"><ele>279.0</ele><time>2026-04-28T10:34:10.999Z</time></trkpt><trkpt lat="44.817459414211235" lon="9.03866419980893"><ele>278.5</ele><time>2026-04-28T10:34:11.999Z</time></trkpt><trkpt lat="44.817321278783965" lon="9.038739443258986"><ele>278.0</ele><time>2026-04-28T10:34:12.999Z</time></trkpt><trkpt lat="44.81718026719403" lon="9.038814495142258"><ele>278.0</ele><time>2026-04-28T10:34:13.999Z</time></trkpt><trkpt lat="44.817044241494116" lon="9.038899500623794"><ele>278.0</ele><time>2026-04-28T10:34:14.999Z</time></trkpt><trkpt lat="44.81690626105586" lon="9.03897912668894"><ele>278.0</ele><time>2026-04-28T10:34:15.999Z</time></trkpt><trkpt lat="44.81676635916176" lon="9.039061535523702"><ele>278.0</ele><time>2026-04-28T10:34:16.999Z</time></trkpt><trkpt lat="44.816625609706804" lon="9.039140358459255"><ele>277.6666666666667</ele><time>2026-04-28T10:34:17.999Z</time></trkpt><trkpt lat="44.8164877297267" lon="9.039222431253922"><ele>277.3333333333333</ele><time>2026-04-28T10:34:18.999Z</time></trkpt><trkpt lat="44.81634234495336" lon="9.039284332295049"><ele>277.0</ele><time>2026-04-28T10:34:19.999Z</time></trkpt><trkpt lat="44.81620388312564" lon="9.03936231991266"><ele>277.0</ele><time>2026-04-28T10:34:20.999Z</time></trkpt><trkpt lat="44.81606297870499" lon="9.039441683277955"><ele>277.0</ele><time>2026-04-28T10:34:21.999Z</time></trkpt><trkpt lat="44.81591971561719" lon="9.03952126307253"><ele>277.0</ele><time>2026-04-28T10:34:22.999Z</time></trkpt><trkpt lat="44.81578056463489" lon="9.039598368419044"><ele>278.0</ele><time>2026-04-28T10:34:23.999Z</time></trkpt><trkpt lat="44.81563984950724" lon="9.03967624182737"><ele>279.0</ele><time>2026-04-28T10:34:24.999Z</time></trkpt><trkpt lat="44.81549686406815" lon="9.039755371630507"><ele>280.0</ele><time>2026-04-28T10:34:25.999Z</time></trkpt><trkpt lat="44.81535451636236" lon="9.039834148522463"><ele>280.0</ele><time>2026-04-28T10:34:26.999Z</time></trkpt><trkpt lat="44.81523091678991" lon="9.0399095232107"><ele>280.0</ele><time>2026-04-28T10:34:27.999Z</time></trkpt><trkpt lat="44.81512313899464" lon="9.039972397005636"><ele>280.0</ele><time>2026-04-28T10:34:28.999Z</time></trkpt><trkpt lat="44.815042518283484" lon="9.040018164910773"><ele>280.0</ele><time>2026-04-28T10:34:29.999Z</time></trkpt><trkpt lat="44.81491835424652" lon="9.040076588099586"><ele>280.25</ele><time>2026-04-28T10:34:32.999Z</time></trkpt><trkpt lat="44.814829395892964" lon="9.040101823662763"><ele>280.5</ele><time>2026-04-28T10:34:36.999Z</time></trkpt><trkpt lat="44.814726764448075" lon="9.040183669385312"><ele>280.75</ele><time>2026-04-28T10:34:37.999Z</time></trkpt><trkpt lat="44.81462757165579" lon="9.040259295946385"><ele>281.0</ele><time>2026-04-28T10:34:38.999Z</time></trkpt><trkpt lat="44.814468905383194" lon="9.040340159216589"><ele>281.6666666666667</ele><time>2026-04-28T10:34:39.999Z</time></trkpt><trkpt lat="44.814301528389194" lon="9.040433689713112"><ele>282.3333333333333</ele><time>2026-04-28T10:34:40.999Z</time></trkpt><trkpt lat="44.81412991524031" lon="9.040539383848198"><ele>283.0</ele><time>2026-04-28T10:34:41.999Z</time></trkpt><trkpt lat="44.814015084108085" lon="9.040543493486782"><ele>283.0</ele><time>2026-04-28T10:34:42.999Z</time></trkpt><trkpt lat="44.81384545549454" lon="9.040674453168865"><ele>283.0</ele><time>2026-04-28T10:34:43.999Z</time></trkpt><trkpt lat="44.81370675820572" lon="9.040761755680549"><ele>283.0</ele><time>2026-04-28T10:34:44.999Z</time></trkpt><trkpt lat="44.81358704547655" lon="9.04084499640911"><ele>283.75</ele><time>2026-04-28T10:34:45.999Z</time></trkpt><trkpt lat="44.81347240357629" lon="9.040912694795136"><ele>284.5</ele><time>2026-04-28T10:34:46.999Z</time></trkpt><trkpt lat="44.81336670783914" lon="9.040973638721322"><ele>285.25</ele><time>2026-04-28T10:34:47.999Z</time></trkpt><trkpt lat="44.813255332041784" lon="9.041021182530978"><ele>286.0</ele><time>2026-04-28T10:34:48.999Z</time></trkpt><trkpt lat="44.81314313620151" lon="9.04104048858111"><ele>286.0</ele><time>2026-04-28T10:34:49.999Z</time></trkpt><trkpt lat="44.81302589051319" lon="9.041064893905856"><ele>286.0</ele><time>2026-04-28T10:34:50.999Z</time></trkpt><trkpt lat="44.81289752469005" lon="9.041065145708881"><ele>286.0</ele><time>2026-04-28T10:34:51.999Z</time></trkpt><trkpt lat="44.81276077881007" lon="9.041043336672137"><ele>286.0</ele><time>2026-04-28T10:34:52.999Z</time></trkpt><trkpt lat="44.812614334427145" lon="9.041037960896155"><ele>287.0</ele><time>2026-04-28T10:34:53.999Z</time></trkpt><trkpt lat="44.81245509770558" lon="9.041056993789116"><ele>288.0</ele><time>2026-04-28T10:34:54.999Z</time></trkpt><trkpt lat="44.81230510394556" lon="9.041062726857117"><ele>289.0</ele><time>2026-04-28T10:34:55.999Z</time></trkpt><trkpt lat="44.81215456916948" lon="9.041103537467608"><ele>289.0</ele><time>2026-04-28T10:34:56.999Z</time></trkpt><trkpt lat="44.812017156113356" lon="9.041117744298113"><ele>289.0</ele><time>2026-04-28T10:34:57.999Z</time></trkpt><trkpt lat="44.811887734587714" lon="9.041152165863572"><ele>289.0</ele><time>2026-04-28T10:34:58.999Z</time></trkpt><trkpt lat="44.81175403537358" lon="9.04119836722039"><ele>289.0</ele><time>2026-04-28T10:34:59.999Z</time></trkpt><trkpt lat="44.81162790325228" lon="9.041287170994801"><ele>288.0</ele><time>2026-04-28T10:35:00.999Z</time></trkpt><trkpt lat="44.81150539413744" lon="9.041389759505376"><ele>287.0</ele><time>2026-04-28T10:35:01.999Z</time></trkpt><trkpt lat="44.811384535125654" lon="9.041530378453555"><ele>286.0</ele><time>2026-04-28T10:35:02.999Z</time></trkpt><trkpt lat="44.81127940000272" lon="9.041669151604852"><ele>285.0</ele><time>2026-04-28T10:35:03.999Z</time></trkpt><trkpt lat="44.81116556272761" lon="9.041773725066138"><ele>284.6666666666667</ele><time>2026-04-28T10:35:04.999Z</time></trkpt><trkpt lat="44.81107722541892" lon="9.041848343877948"><ele>284.33333333333337</ele><time>2026-04-28T10:35:05.999Z</time></trkpt><trkpt lat="44.81094238649692" lon="9.041940099213276"><ele>284.0</ele><time>2026-04-28T10:35:06.999Z</time></trkpt><trkpt lat="44.81075800760702" lon="9.04207710052906"><ele>284.0</ele><time>2026-04-28T10:35:07.999Z</time></trkpt><trkpt lat="44.81058602889443" lon="9.042203716252525"><ele>284.0</ele><time>2026-04-28T10:35:08.999Z</time></trkpt><trkpt lat="44.81042254522756" lon="9.04232398613208"><ele>284.0</ele><time>2026-04-28T10:35:09.999Z</time></trkpt><trkpt lat="44.81034216956924" lon="9.042383115966201"><ele>284.5</ele><time>2026-04-28T10:35:10.999Z</time></trkpt><trkpt lat="44.8102196709686" lon="9.042473234372848"><ele>285.0</ele><time>2026-04-28T10:35:11.999Z</time></trkpt><trkpt lat="44.81009667639028" lon="9.042563600554132"><ele>285.5</ele><time>2026-04-28T10:35:12.999Z</time></trkpt><trkpt lat="44.809986961526675" lon="9.042644159809877"><ele>286.0</ele><time>2026-04-28T10:35:13.999Z</time></trkpt><trkpt lat="44.809870639575216" lon="9.042729570294194"><ele>286.2</ele><time>2026-04-28T10:35:14.999Z</time></trkpt><trkpt lat="44.80977243187275" lon="9.04280168030609"><ele>286.40000000000003</ele><time>2026-04-28T10:35:15.999Z</time></trkpt><trkpt lat="44.809679581008616" lon="9.042869856305154"><ele>286.6</ele><time>2026-04-28T10:35:16.999Z</time></trkpt><trkpt lat="44.80957853605954" lon="9.042938061096354"><ele>286.8</ele><time>2026-04-28T10:35:17.999Z</time></trkpt><trkpt lat="44.8094778943796" lon="9.043009079590501"><ele>287.0</ele><time>2026-04-28T10:35:18.999Z</time></trkpt><trkpt lat="44.80937904085928" lon="9.043072215409673"><ele>287.0</ele><time>2026-04-28T10:35:19.999Z</time></trkpt><trkpt lat="44.809284477620054" lon="9.043138376777852"><ele>287.0</ele><time>2026-04-28T10:35:20.999Z</time></trkpt><trkpt lat="44.80920177214476" lon="9.043229658974493"><ele>287.0</ele><time>2026-04-28T10:35:21.999Z</time></trkpt><trkpt lat="44.80911711900107" lon="9.043308861584372"><ele>287.0</ele><time>2026-04-28T10:35:22.999Z</time></trkpt><trkpt lat="44.80901281584901" lon="9.043347924555484"><ele>287.0</ele><time>2026-04-28T10:35:23.999Z</time></trkpt><trkpt lat="44.80890634443547" lon="9.043419783543182"><ele>287.0</ele><time>2026-04-28T10:35:25Z</time></trkpt><trkpt lat="44.80880975381636" lon="9.043480285706815"><ele>287.0</ele><time>2026-04-28T10:35:26Z</time></trkpt><trkpt lat="44.80871561420481" lon="9.043529609477613"><ele>287.0</ele><time>2026-04-28T10:35:27Z</time></trkpt><trkpt lat="44.80860663827529" lon="9.043575187891244"><ele>287.0</ele><time>2026-04-28T10:35:28Z</time></trkpt><trkpt lat="44.80848348233136" lon="9.043605498833097"><ele>287.0</ele><time>2026-04-28T10:35:29Z</time></trkpt><trkpt lat="44.80837019222047" lon="9.043625362580082"><ele>287.0</ele><time>2026-04-28T10:35:30Z</time></trkpt><trkpt lat="44.808254709951136" lon="9.043636901789041"><ele>287.0</ele><time>2026-04-28T10:35:31Z</time></trkpt><trkpt lat="44.80813584937064" lon="9.0436624210474"><ele>287.0</ele><time>2026-04-28T10:35:32Z</time></trkpt><trkpt lat="44.808006381258025" lon="9.043638769328943"><ele>287.0</ele><time>2026-04-28T10:35:33Z</time></trkpt><trkpt lat="44.80787776529687" lon="9.043644601294238"><ele>287.0</ele><time>2026-04-28T10:35:34Z</time></trkpt><trkpt lat="44.80772792261184" lon="9.043646373009299"><ele>287.0</ele><time>2026-04-28T10:35:35Z</time></trkpt><trkpt lat="44.807566367825494" lon="9.043668998249379"><ele>287.0</ele><time>2026-04-28T10:35:36Z</time></trkpt><trkpt lat="44.80740214772412" lon="9.043649954627831"><ele>288.33333333333337</ele><time>2026-04-28T10:35:37Z</time></trkpt><trkpt lat="44.80722952897689" lon="9.043668308797725"><ele>289.6666666666667</ele><time>2026-04-28T10:35:38Z</time></trkpt><trkpt lat="44.80705733221726" lon="9.043672062988422"><ele>291.0</ele><time>2026-04-28T10:35:39Z</time></trkpt><trkpt lat="44.80688387995257" lon="9.043676786955439"><ele>291.6666666666667</ele><time>2026-04-28T10:35:40Z</time></trkpt><trkpt lat="44.8067041090839" lon="9.043684881282953"><ele>292.33333333333337</ele><time>2026-04-28T10:35:41Z</time></trkpt><trkpt lat="44.80652757891626" lon="9.043704973868692"><ele>293.0</ele><time>2026-04-28T10:35:42Z</time></trkpt><trkpt lat="44.806355322533136" lon="9.043735016668558"><ele>293.0</ele><time>2026-04-28T10:35:43Z</time></trkpt><trkpt lat="44.80617518808298" lon="9.043754993233257"><ele>293.0</ele><time>2026-04-28T10:35:44Z</time></trkpt><trkpt lat="44.805998871453866" lon="9.04379324113647"><ele>293.0</ele><time>2026-04-28T10:35:45Z</time></trkpt><trkpt lat="44.8058255098561" lon="9.043830848052616"><ele>293.0</ele><time>2026-04-28T10:35:46Z</time></trkpt><trkpt lat="44.80564376755777" lon="9.043868486206224"><ele>293.0</ele><time>2026-04-28T10:35:47Z</time></trkpt><trkpt lat="44.805463171751484" lon="9.04390511711505"><ele>293.0</ele><time>2026-04-28T10:35:48Z</time></trkpt><trkpt lat="44.805288322234176" lon="9.043940379349218"><ele>294.33333333333337</ele><time>2026-04-28T10:35:49Z</time></trkpt><trkpt lat="44.80511454720143" lon="9.043975026680606"><ele>295.6666666666667</ele><time>2026-04-28T10:35:50Z</time></trkpt><trkpt lat="44.804936831894835" lon="9.044010459644534"><ele>297.0</ele><time>2026-04-28T10:35:51Z</time></trkpt><trkpt lat="44.804755318621524" lon="9.044046649863386"><ele>297.0</ele><time>2026-04-28T10:35:52Z</time></trkpt><trkpt lat="44.8045693805264" lon="9.044083722255204"><ele>297.0</ele><time>2026-04-28T10:35:53Z</time></trkpt><trkpt lat="44.804385511707785" lon="9.04412516298812"><ele>297.0</ele><time>2026-04-28T10:35:54Z</time></trkpt><trkpt lat="44.80420694564222" lon="9.044191151526471"><ele>298.0</ele><time>2026-04-28T10:35:55Z</time></trkpt><trkpt lat="44.80404806045854" lon="9.044314653099017"><ele>299.0</ele><time>2026-04-28T10:35:56Z</time></trkpt><trkpt lat="44.80388331217737" lon="9.044442555550107"><ele>300.0</ele><time>2026-04-28T10:35:57Z</time></trkpt><trkpt lat="44.80374444507788" lon="9.04460445079373"><ele>300.0</ele><time>2026-04-28T10:35:58Z</time></trkpt><trkpt lat="44.803636389717376" lon="9.04483515897239"><ele>300.0</ele><time>2026-04-28T10:35:59Z</time></trkpt><trkpt lat="44.80353648244521" lon="9.045070227774278"><ele>300.0</ele><time>2026-04-28T10:36:00Z</time></trkpt><trkpt lat="44.803439295277265" lon="9.045268558264633"><ele>301.25</ele><time>2026-04-28T10:36:01Z</time></trkpt><trkpt lat="44.80334857025085" lon="9.045435152858895"><ele>302.5</ele><time>2026-04-28T10:36:02Z</time></trkpt><trkpt lat="44.80324631655267" lon="9.045564254672243"><ele>303.75</ele><time>2026-04-28T10:36:03Z</time></trkpt><trkpt lat="44.80311518533249" lon="9.045685512577727"><ele>305.0</ele><time>2026-04-28T10:36:04Z</time></trkpt><trkpt lat="44.8029650548604" lon="9.045809907805134"><ele>305.0</ele><time>2026-04-28T10:36:05Z</time></trkpt><trkpt lat="44.80280991404545" lon="9.045935741512066"><ele>305.0</ele><time>2026-04-28T10:36:06Z</time></trkpt><trkpt lat="44.80265299908685" lon="9.046063015816786"><ele>305.0</ele><time>2026-04-28T10:36:07Z</time></trkpt><trkpt lat="44.80249604034919" lon="9.046185950231127"><ele>305.75</ele><time>2026-04-28T10:36:08Z</time></trkpt><trkpt lat="44.80235703640671" lon="9.04627410700677"><ele>306.5</ele><time>2026-04-28T10:36:09Z</time></trkpt><trkpt lat="44.80221813261326" lon="9.04633491940327"><ele>307.25</ele><time>2026-04-28T10:36:10Z</time></trkpt><trkpt lat="44.80207347691628" lon="9.046354191168138"><ele>308.0</ele><time>2026-04-28T10:36:11Z</time></trkpt><trkpt lat="44.80191690709923" lon="9.04634471300804"><ele>308.6666666666667</ele><time>2026-04-28T10:36:12Z</time></trkpt><trkpt lat="44.801748987588745" lon="9.04630301162655"><ele>309.3333333333333</ele><time>2026-04-28T10:36:13Z</time></trkpt><trkpt lat="44.801594972206765" lon="9.046286583775984"><ele>310.0</ele><time>2026-04-28T10:36:13.999Z</time></trkpt><trkpt lat="44.80144624059439" lon="9.046266243096925"><ele>310.0</ele><time>2026-04-28T10:36:14.999Z</time></trkpt><trkpt lat="44.801294583048794" lon="9.046300126400588"><ele>310.0</ele><time>2026-04-28T10:36:15.999Z</time></trkpt><trkpt lat="44.801124872996496" lon="9.046398519625708"><ele>310.0</ele><time>2026-04-28T10:36:16.999Z</time></trkpt><trkpt lat="44.800958813829205" lon="9.046546140040546"><ele>309.0</ele><time>2026-04-28T10:36:17.999Z</time></trkpt><trkpt lat="44.80075650040188" lon="9.04673395979872"><ele>308.0</ele><time>2026-04-28T10:36:18.999Z</time></trkpt><trkpt lat="44.80055561069065" lon="9.046920032188114"><ele>308.0</ele><time>2026-04-28T10:36:19.999Z</time></trkpt><trkpt lat="44.80038705655103" lon="9.04707589009126"><ele>308.0</ele><time>2026-04-28T10:36:20.999Z</time></trkpt><trkpt lat="44.80023592843945" lon="9.047233022513787"><ele>308.0</ele><time>2026-04-28T10:36:21.999Z</time></trkpt><trkpt lat="44.8000746967133" lon="9.04738642283282"><ele>309.6666666666667</ele><time>2026-04-28T10:36:22.999Z</time></trkpt><trkpt lat="44.799913020476716" lon="9.047511208072159"><ele>311.3333333333333</ele><time>2026-04-28T10:36:23.999Z</time></trkpt><trkpt lat="44.799762968699945" lon="9.047648449787996"><ele>313.0</ele><time>2026-04-28T10:36:24.999Z</time></trkpt><trkpt lat="44.79962642102391" lon="9.047800481248423"><ele>313.0</ele><time>2026-04-28T10:36:25.999Z</time></trkpt><trkpt lat="44.79946888801647" lon="9.04791765430889"><ele>313.0</ele><time>2026-04-28T10:36:26.999Z</time></trkpt><trkpt lat="44.799322674588005" lon="9.04805257682611"><ele>313.0</ele><time>2026-04-28T10:36:27.999Z</time></trkpt><trkpt lat="44.799173978351604" lon="9.048189790445319"><ele>311.0</ele><time>2026-04-28T10:36:28.999Z</time></trkpt><trkpt lat="44.799030527759925" lon="9.048322163397572"><ele>309.0</ele><time>2026-04-28T10:36:29.999Z</time></trkpt><trkpt lat="44.79888599949207" lon="9.048455531000991"><ele>307.0</ele><time>2026-04-28T10:36:30.999Z</time></trkpt><trkpt lat="44.79874939066377" lon="9.048608073204003"><ele>307.0</ele><time>2026-04-28T10:36:31.999Z</time></trkpt><trkpt lat="44.79861256111614" lon="9.048729439820164"><ele>307.0</ele><time>2026-04-28T10:36:32.999Z</time></trkpt><trkpt lat="44.79847649697956" lon="9.048855049453552"><ele>307.0</ele><time>2026-04-28T10:36:33.999Z</time></trkpt><trkpt lat="44.798335379564705" lon="9.048939597306735"><ele>307.3333333333333</ele><time>2026-04-28T10:36:34.999Z</time></trkpt><trkpt lat="44.798198858749906" lon="9.049086351122439"><ele>307.6666666666667</ele><time>2026-04-28T10:36:35.999Z</time></trkpt><trkpt lat="44.79804800381049" lon="9.04920595522997"><ele>308.0</ele><time>2026-04-28T10:36:36.999Z</time></trkpt><trkpt lat="44.797893109406075" lon="9.049308775848525"><ele>308.0</ele><time>2026-04-28T10:36:37.999Z</time></trkpt><trkpt lat="44.797747279445" lon="9.049381454772256"><ele>308.0</ele><time>2026-04-28T10:36:38.999Z</time></trkpt><trkpt lat="44.79758518546634" lon="9.049447281098498"><ele>308.0</ele><time>2026-04-28T10:36:39.999Z</time></trkpt><trkpt lat="44.79743322292837" lon="9.049524216568075"><ele>309.6666666666667</ele><time>2026-04-28T10:36:40.999Z</time></trkpt><trkpt lat="44.79726776182248" lon="9.04959657602484"><ele>311.3333333333333</ele><time>2026-04-28T10:36:41.999Z</time></trkpt><trkpt lat="44.797108800996384" lon="9.049694030268865"><ele>313.0</ele><time>2026-04-28T10:36:42.999Z</time></trkpt><trkpt lat="44.79695803705569" lon="9.049801573093635"><ele>313.3333333333333</ele><time>2026-04-28T10:36:43.999Z</time></trkpt><trkpt lat="44.79682021450642" lon="9.049927864009407"><ele>313.6666666666667</ele><time>2026-04-28T10:36:44.999Z</time></trkpt><trkpt lat="44.796678779833215" lon="9.050053932371592"><ele>314.0</ele><time>2026-04-28T10:36:45.999Z</time></trkpt><trkpt lat="44.79653911273485" lon="9.050178202691772"><ele>314.0</ele><time>2026-04-28T10:36:46.999Z</time></trkpt><trkpt lat="44.79639720426408" lon="9.050304245731043"><ele>314.0</ele><time>2026-04-28T10:36:47.999Z</time></trkpt><trkpt lat="44.79626989186862" lon="9.050459347434181"><ele>314.0</ele><time>2026-04-28T10:36:48.999Z</time></trkpt><trkpt lat="44.79615215438106" lon="9.050635497941554"><ele>315.0</ele><time>2026-04-28T10:36:49.999Z</time></trkpt><trkpt lat="44.796028490633404" lon="9.050819457925416"><ele>316.0</ele><time>2026-04-28T10:36:50.999Z</time></trkpt><trkpt lat="44.79589294672915" lon="9.050977597335041"><ele>317.0</ele><time>2026-04-28T10:36:51.999Z</time></trkpt><trkpt lat="44.79576159894844" lon="9.051158975364158"><ele>317.0</ele><time>2026-04-28T10:36:52.999Z</time></trkpt><trkpt lat="44.795627698715755" lon="9.051343465387196"><ele>317.0</ele><time>2026-04-28T10:36:53.999Z</time></trkpt><trkpt lat="44.79549794892542" lon="9.051522354271299"><ele>317.0</ele><time>2026-04-28T10:36:54.999Z</time></trkpt><trkpt lat="44.795387358658395" lon="9.051674827605877"><ele>315.33333333333337</ele><time>2026-04-28T10:36:55.999Z</time></trkpt><trkpt lat="44.79528166183381" lon="9.051820553377734"><ele>313.6666666666667</ele><time>2026-04-28T10:36:56.999Z</time></trkpt><trkpt lat="44.79516360404346" lon="9.051983159076311"><ele>312.0</ele><time>2026-04-28T10:36:57.999Z</time></trkpt><trkpt lat="44.79504357697516" lon="9.052140584857563"><ele>311.6666666666667</ele><time>2026-04-28T10:36:58.999Z</time></trkpt><trkpt lat="44.7949195794548" lon="9.0522940081148"><ele>311.33333333333337</ele><time>2026-04-28T10:36:59.999Z</time></trkpt><trkpt lat="44.7947793611434" lon="9.05242908872654"><ele>311.0</ele><time>2026-04-28T10:37:00.999Z</time></trkpt><trkpt lat="44.794627295884716" lon="9.052526864111465"><ele>311.0</ele><time>2026-04-28T10:37:01.999Z</time></trkpt><trkpt lat="44.79447837689173" lon="9.052594041361692"><ele>311.0</ele><time>2026-04-28T10:37:02.999Z</time></trkpt><trkpt lat="44.7943187652382" lon="9.052647269526936"><ele>311.0</ele><time>2026-04-28T10:37:03.999Z</time></trkpt><trkpt lat="44.794148459616395" lon="9.052691633144741"><ele>314.6666666666667</ele><time>2026-04-28T10:37:04.999Z</time></trkpt><trkpt lat="44.79397227911247" lon="9.052735436233492"><ele>318.3333333333333</ele><time>2026-04-28T10:37:05.999Z</time></trkpt><trkpt lat="44.79378208565056" lon="9.052780688394797"><ele>322.0</ele><time>2026-04-28T10:37:06.999Z</time></trkpt><trkpt lat="44.79357691068034" lon="9.052830693439095"><ele>323.66666666666663</ele><time>2026-04-28T10:37:07.999Z</time></trkpt><trkpt lat="44.79336720590187" lon="9.052883126476619"><ele>325.3333333333333</ele><time>2026-04-28T10:37:08.999Z</time></trkpt><trkpt lat="44.79317484815523" lon="9.0529326073893"><ele>327.0</ele><time>2026-04-28T10:37:09.999Z</time></trkpt><trkpt lat="44.79296899138521" lon="9.053005611822215"><ele>327.0</ele><time>2026-04-28T10:37:10.999Z</time></trkpt><trkpt lat="44.79278116599802" lon="9.053099814528922"><ele>327.0</ele><time>2026-04-28T10:37:11.999Z</time></trkpt><trkpt lat="44.79259678656583" lon="9.053241170710049"><ele>327.0</ele><time>2026-04-28T10:37:12.999Z</time></trkpt><trkpt lat="44.7924133261074" lon="9.053421682169963"><ele>325.3333333333333</ele><time>2026-04-28T10:37:13.999Z</time></trkpt><trkpt lat="44.7922394841325" lon="9.053606903597657"><ele>323.66666666666663</ele><time>2026-04-28T10:37:14.999Z</time></trkpt><trkpt lat="44.792092963465436" lon="9.053763183661525"><ele>322.0</ele><time>2026-04-28T10:37:15.999Z</time></trkpt><trkpt lat="44.791940069373716" lon="9.053901029795526"><ele>321.66666666666663</ele><time>2026-04-28T10:37:16.999Z</time></trkpt><trkpt lat="44.79177109065542" lon="9.054017293720785"><ele>321.3333333333333</ele><time>2026-04-28T10:37:17.999Z</time></trkpt><trkpt lat="44.791596712034945" lon="9.054097189045384"><ele>321.0</ele><time>2026-04-28T10:37:18.999Z</time></trkpt><trkpt lat="44.79140745130885" lon="9.054188177088957"><ele>321.0</ele><time>2026-04-28T10:37:19.999Z</time></trkpt><trkpt lat="44.79121657655178" lon="9.054242190531957"><ele>321.0</ele><time>2026-04-28T10:37:20.999Z</time></trkpt><trkpt lat="44.790999751428885" lon="9.05427817561871"><ele>321.0</ele><time>2026-04-28T10:37:21.999Z</time></trkpt><trkpt lat="44.79079154558588" lon="9.054351223546119"><ele>322.3333333333333</ele><time>2026-04-28T10:37:22.999Z</time></trkpt><trkpt lat="44.79059422659142" lon="9.054376695492401"><ele>323.66666666666663</ele><time>2026-04-28T10:37:23.999Z</time></trkpt><trkpt lat="44.79041484997951" lon="9.054450177900431"><ele>325.0</ele><time>2026-04-28T10:37:24.999Z</time></trkpt><trkpt lat="44.79026711017795" lon="9.054554800034897"><ele>326.0</ele><time>2026-04-28T10:37:25.999Z</time></trkpt><trkpt lat="44.79015397356976" lon="9.054630399191995"><ele>327.0</ele><time>2026-04-28T10:37:26.999Z</time></trkpt><trkpt lat="44.79006904747224" lon="9.054675903714505"><ele>328.0</ele><time>2026-04-28T10:37:27.999Z</time></trkpt><trkpt lat="44.789954715719105" lon="9.054722872054294"><ele>329.0</ele><time>2026-04-28T10:37:29.999Z</time></trkpt><trkpt lat="44.78989259582915" lon="9.0547865729793"><ele>330.0</ele><time>2026-04-28T10:37:32Z</time></trkpt><trkpt lat="44.78983742112473" lon="9.05483028467147"><ele>330.0</ele><time>2026-04-28T10:40:36.999Z</time></trkpt><trkpt lat="44.78980321012848" lon="9.054937156542774"><ele>330.0</ele><time>2026-04-28T10:40:38.999Z</time></trkpt><trkpt lat="44.78976537037977" lon="9.055036425759125"><ele>330.0</ele><time>2026-04-28T10:40:40.999Z</time></trkpt><trkpt lat="44.78971421734618" lon="9.055129079317801"><ele>330.0</ele><time>2026-04-28T10:40:42.999Z</time></trkpt><trkpt lat="44.7896566103753" lon="9.055217205424139"><ele>330.0</ele><time>2026-04-28T10:40:43.999Z</time></trkpt><trkpt lat="44.789574306427006" lon="9.055348240360964"><ele>327.75</ele><time>2026-04-28T10:40:44.999Z</time></trkpt><trkpt lat="44.789471313725" lon="9.05546930430269"><ele>325.5</ele><time>2026-04-28T10:40:45.999Z</time></trkpt><trkpt lat="44.789378549213325" lon="9.055618851399196"><ele>323.25</ele><time>2026-04-28T10:40:46.999Z</time></trkpt><trkpt lat="44.78928062232921" lon="9.055782570862283"><ele>321.0</ele><time>2026-04-28T10:40:47.999Z</time></trkpt><trkpt lat="44.78917393778602" lon="9.05596146863749"><ele>320.3333333333333</ele><time>2026-04-28T10:40:48.999Z</time></trkpt><trkpt lat="44.78906855008803" lon="9.056137837000714"><ele>319.66666666666663</ele><time>2026-04-28T10:40:49.999Z</time></trkpt><trkpt lat="44.78895855005724" lon="9.056319051786007"><ele>319.0</ele><time>2026-04-28T10:40:50.999Z</time></trkpt><trkpt lat="44.788863283839696" lon="9.056475993459639"><ele>318.75</ele><time>2026-04-28T10:40:51.999Z</time></trkpt><trkpt lat="44.788772731727775" lon="9.056625169028559"><ele>318.5</ele><time>2026-04-28T10:40:52.999Z</time></trkpt><trkpt lat="44.78868580068515" lon="9.056768379795288"><ele>318.25</ele><time>2026-04-28T10:40:53.999Z</time></trkpt><trkpt lat="44.788598663860796" lon="9.056911929714184"><ele>318.0</ele><time>2026-04-28T10:40:54.999Z</time></trkpt><trkpt lat="44.78851138511204" lon="9.05705571290887"><ele>319.0</ele><time>2026-04-28T10:40:55.999Z</time></trkpt><trkpt lat="44.78841934083333" lon="9.057206198587188"><ele>320.0</ele><time>2026-04-28T10:40:56.999Z</time></trkpt><trkpt lat="44.78832208159906" lon="9.05737019018484"><ele>321.0</ele><time>2026-04-28T10:40:57.999Z</time></trkpt><trkpt lat="44.788227243447004" lon="9.05754731795297"><ele>321.0</ele><time>2026-04-28T10:40:58.999Z</time></trkpt><trkpt lat="44.788137770186566" lon="9.057731501590192"><ele>321.0</ele><time>2026-04-28T10:40:59.999Z</time></trkpt><trkpt lat="44.78805682388467" lon="9.057934227668564"><ele>321.0</ele><time>2026-04-28T10:41:00.999Z</time></trkpt><trkpt lat="44.78799674542062" lon="9.058168048211595"><ele>320.6666666666667</ele><time>2026-04-28T10:41:01.999Z</time></trkpt><trkpt lat="44.78791962848658" lon="9.058403713304143"><ele>320.33333333333337</ele><time>2026-04-28T10:41:02.999Z</time></trkpt><trkpt lat="44.78783682879629" lon="9.05864796076536"><ele>320.0</ele><time>2026-04-28T10:41:03.999Z</time></trkpt><trkpt lat="44.787747068081345" lon="9.058923750737424"><ele>322.0</ele><time>2026-04-28T10:41:04.999Z</time></trkpt><trkpt lat="44.78765191652595" lon="9.059169553124741"><ele>324.0</ele><time>2026-04-28T10:41:05.999Z</time></trkpt><trkpt lat="44.78757820956347" lon="9.059396035002447"><ele>326.0</ele><time>2026-04-28T10:41:06.999Z</time></trkpt><trkpt lat="44.787507279793196" lon="9.059615998093985"><ele>326.0</ele><time>2026-04-28T10:41:07.999Z</time></trkpt><trkpt lat="44.78743678147447" lon="9.05983257636965"><ele>326.0</ele><time>2026-04-28T10:41:08.999Z</time></trkpt><trkpt lat="44.78735180717969" lon="9.060041688550584"><ele>326.0</ele><time>2026-04-28T10:41:09.999Z</time></trkpt><trkpt lat="44.787281091319485" lon="9.060252647977519"><ele>326.0</ele><time>2026-04-28T10:41:10.999Z</time></trkpt><trkpt lat="44.78719887662333" lon="9.06045435110671"><ele>326.0</ele><time>2026-04-28T10:41:11.999Z</time></trkpt><trkpt lat="44.787096990513994" lon="9.060647083853599"><ele>326.0</ele><time>2026-04-28T10:41:12.999Z</time></trkpt><trkpt lat="44.78700488374094" lon="9.060856572035762"><ele>326.6666666666667</ele><time>2026-04-28T10:41:13.999Z</time></trkpt><trkpt lat="44.786916656447666" lon="9.061057236722235"><ele>327.3333333333333</ele><time>2026-04-28T10:41:14.999Z</time></trkpt><trkpt lat="44.78682578834435" lon="9.061263907628906"><ele>328.0</ele><time>2026-04-28T10:41:15.999Z</time></trkpt><trkpt lat="44.78673683928619" lon="9.061466213903772"><ele>328.3333333333333</ele><time>2026-04-28T10:41:16.999Z</time></trkpt><trkpt lat="44.78664699445693" lon="9.06166932100543"><ele>328.6666666666667</ele><time>2026-04-28T10:41:17.999Z</time></trkpt><trkpt lat="44.78656067228718" lon="9.06186316272062"><ele>329.0</ele><time>2026-04-28T10:41:18.999Z</time></trkpt><trkpt lat="44.786509853768614" lon="9.062074943699702"><ele>329.0</ele><time>2026-04-28T10:41:19.999Z</time></trkpt><trkpt lat="44.78643471404483" lon="9.062254175137545"><ele>329.0</ele><time>2026-04-28T10:41:20.999Z</time></trkpt><trkpt lat="44.786349215491015" lon="9.062438734957587"><ele>329.0</ele><time>2026-04-28T10:41:21.999Z</time></trkpt><trkpt lat="44.78626894143088" lon="9.062618411755983"><ele>329.25</ele><time>2026-04-28T10:41:22.999Z</time></trkpt><trkpt lat="44.78615912887282" lon="9.062775249593487"><ele>329.5</ele><time>2026-04-28T10:41:23.999Z</time></trkpt><trkpt lat="44.78608542954356" lon="9.062948869039356"><ele>329.75</ele><time>2026-04-28T10:41:24.999Z</time></trkpt><trkpt lat="44.7860175918718" lon="9.063108602479335"><ele>330.0</ele><time>2026-04-28T10:41:25.999Z</time></trkpt><trkpt lat="44.78595448933498" lon="9.063257186337816"><ele>330.6</ele><time>2026-04-28T10:41:26.999Z</time></trkpt><trkpt lat="44.785894904579045" lon="9.063394476678933"><ele>331.2</ele><time>2026-04-28T10:41:27.999Z</time></trkpt><trkpt lat="44.78583875839426" lon="9.063523192106674"><ele>331.79999999999995</ele><time>2026-04-28T10:41:28.999Z</time></trkpt><trkpt lat="44.785797694147305" lon="9.063625042280842"><ele>332.4</ele><time>2026-04-28T10:41:29.999Z</time></trkpt><trkpt lat="44.78576965334156" lon="9.063792293766445"><ele>333.0</ele><time>2026-04-28T10:41:31.999Z</time></trkpt><trkpt lat="44.785769653339315" lon="9.063931389948628"><ele>333.0</ele><time>2026-04-28T10:41:33.999Z</time></trkpt><trkpt lat="44.78592729219166" lon="9.064008588758648"><ele>333.0</ele><time>2026-04-28T10:41:34.999Z</time></trkpt><trkpt lat="44.78600159613119" lon="9.064103517560879"><ele>333.0</ele><time>2026-04-28T10:41:35.999Z</time></trkpt><trkpt lat="44.78607308956975" lon="9.064219536585595"><ele>333.0</ele><time>2026-04-28T10:41:36.999Z</time></trkpt><trkpt lat="44.786137536314854" lon="9.064322700099533"><ele>332.4</ele><time>2026-04-28T10:41:37.999Z</time></trkpt><trkpt lat="44.78619847776768" lon="9.06442621767568"><ele>331.79999999999995</ele><time>2026-04-28T10:41:38.999Z</time></trkpt><trkpt lat="44.78623881056343" lon="9.064547770251634"><ele>331.2</ele><time>2026-04-28T10:41:39.999Z</time></trkpt><trkpt lat="44.786261312655284" lon="9.06469303693111"><ele>330.6</ele><time>2026-04-28T10:41:40.999Z</time></trkpt><trkpt lat="44.78627206094672" lon="9.064867037972805"><ele>330.0</ele><time>2026-04-28T10:41:41.999Z</time></trkpt><trkpt lat="44.78630016880861" lon="9.065062138635353"><ele>330.0</ele><time>2026-04-28T10:41:43Z</time></trkpt><trkpt lat="44.786317031922586" lon="9.065251430373003"><ele>330.0</ele><time>2026-04-28T10:41:44Z</time></trkpt><trkpt lat="44.7863441242036" lon="9.065452260860583"><ele>330.0</ele><time>2026-04-28T10:41:45Z</time></trkpt><trkpt lat="44.7863915776845" lon="9.06564599284303"><ele>330.0</ele><time>2026-04-28T10:41:46Z</time></trkpt><trkpt lat="44.786452608032235" lon="9.065828713308573"><ele>330.25</ele><time>2026-04-28T10:41:47Z</time></trkpt><trkpt lat="44.786516139718444" lon="9.066002502840272"><ele>330.5</ele><time>2026-04-28T10:41:48Z</time></trkpt><trkpt lat="44.786580789013634" lon="9.066168265720309"><ele>330.75</ele><time>2026-04-28T10:41:49Z</time></trkpt><trkpt lat="44.786643598917934" lon="9.066333761376649"><ele>331.0</ele><time>2026-04-28T10:41:50Z</time></trkpt><trkpt lat="44.78670860875679" lon="9.066498498453791"><ele>331.5</ele><time>2026-04-28T10:41:51Z</time></trkpt><trkpt lat="44.786764873088956" lon="9.066673319239777"><ele>332.0</ele><time>2026-04-28T10:41:52Z</time></trkpt><trkpt lat="44.786818713419315" lon="9.066855138604927"><ele>332.5</ele><time>2026-04-28T10:41:53Z</time></trkpt><trkpt lat="44.78687157879207" lon="9.067039984049483"><ele>333.0</ele><time>2026-04-28T10:41:54Z</time></trkpt><trkpt lat="44.78692539938478" lon="9.067223582175028"><ele>333.0</ele><time>2026-04-28T10:41:55Z</time></trkpt><trkpt lat="44.78697841763238" lon="9.067409600728443"><ele>333.0</ele><time>2026-04-28T10:41:56Z</time></trkpt><trkpt lat="44.7870346304414" lon="9.067594849700107"><ele>333.0</ele><time>2026-04-28T10:41:57Z</time></trkpt><trkpt lat="44.787081242824115" lon="9.067790954486544"><ele>333.0</ele><time>2026-04-28T10:41:58Z</time></trkpt><trkpt lat="44.78714015154763" lon="9.067977657489408"><ele>333.0</ele><time>2026-04-28T10:41:59Z</time></trkpt><trkpt lat="44.787196255236765" lon="9.068168033969972"><ele>333.0</ele><time>2026-04-28T10:42:00Z</time></trkpt><trkpt lat="44.78725863515981" lon="9.068348872562204"><ele>333.0</ele><time>2026-04-28T10:42:01Z</time></trkpt><trkpt lat="44.787324511167405" lon="9.06852577175662"><ele>333.0</ele><time>2026-04-28T10:42:02Z</time></trkpt><trkpt lat="44.78739563328256" lon="9.06869498165674"><ele>333.0</ele><time>2026-04-28T10:42:03Z</time></trkpt><trkpt lat="44.78746666705799" lon="9.068877317593005"><ele>333.0</ele><time>2026-04-28T10:42:04Z</time></trkpt><trkpt lat="44.787540053439265" lon="9.069048320778169"><ele>333.0</ele><time>2026-04-28T10:42:05Z</time></trkpt><trkpt lat="44.78761272691206" lon="9.069219411160415"><ele>333.0</ele><time>2026-04-28T10:42:06Z</time></trkpt><trkpt lat="44.78768280005776" lon="9.069385868802911"><ele>333.25</ele><time>2026-04-28T10:42:07Z</time></trkpt><trkpt lat="44.78775343526263" lon="9.069565119960776"><ele>333.5</ele><time>2026-04-28T10:42:08Z</time></trkpt><trkpt lat="44.787821192563406" lon="9.069748144453804"><ele>333.75</ele><time>2026-04-28T10:42:09Z</time></trkpt><trkpt lat="44.78789382636714" lon="9.069923464491385"><ele>334.0</ele><time>2026-04-28T10:42:10Z</time></trkpt><trkpt lat="44.78796551357797" lon="9.070111907971334"><ele>334.3333333333333</ele><time>2026-04-28T10:42:11Z</time></trkpt><trkpt lat="44.78804014322278" lon="9.070298322386847"><ele>334.6666666666667</ele><time>2026-04-28T10:42:12Z</time></trkpt><trkpt lat="44.7881136876445" lon="9.070494285948168"><ele>335.0</ele><time>2026-04-28T10:42:13Z</time></trkpt><trkpt lat="44.78818967793628" lon="9.070695596599581"><ele>335.33333333333337</ele><time>2026-04-28T10:42:14Z</time></trkpt><trkpt lat="44.78826404169183" lon="9.070907028782985"><ele>335.6666666666667</ele><time>2026-04-28T10:42:15Z</time></trkpt><trkpt lat="44.78834184245567" lon="9.071126176134872"><ele>336.0</ele><time>2026-04-28T10:42:16Z</time></trkpt><trkpt lat="44.78842361480848" lon="9.071350730984967"><ele>336.0</ele><time>2026-04-28T10:42:17Z</time></trkpt><trkpt lat="44.78850685760829" lon="9.0715804192399"><ele>336.0</ele><time>2026-04-28T10:42:18Z</time></trkpt><trkpt lat="44.78859102698676" lon="9.071806017953746"><ele>336.0</ele><time>2026-04-28T10:42:19Z</time></trkpt><trkpt lat="44.78867496996493" lon="9.072015114565785"><ele>336.6666666666667</ele><time>2026-04-28T10:42:20Z</time></trkpt><trkpt lat="44.78876787614214" lon="9.072218891274048"><ele>337.33333333333337</ele><time>2026-04-28T10:42:21Z</time></trkpt><trkpt lat="44.788873297341304" lon="9.072413151289265"><ele>338.0</ele><time>2026-04-28T10:42:22Z</time></trkpt><trkpt lat="44.78899347021929" lon="9.072586538851038"><ele>339.0</ele><time>2026-04-28T10:42:23Z</time></trkpt><trkpt lat="44.78912433210204" lon="9.072747584488498"><ele>340.0</ele><time>2026-04-28T10:42:24Z</time></trkpt><trkpt lat="44.78924957768663" lon="9.072907142622096"><ele>341.0</ele><time>2026-04-28T10:42:25Z</time></trkpt><trkpt lat="44.78936537565654" lon="9.073058039734878"><ele>341.0</ele><time>2026-04-28T10:42:26Z</time></trkpt><trkpt lat="44.78945198011416" lon="9.07324696064171"><ele>341.0</ele><time>2026-04-28T10:42:27Z</time></trkpt><trkpt lat="44.789520847305994" lon="9.073463992466301"><ele>341.0</ele><time>2026-04-28T10:42:28Z</time></trkpt><trkpt lat="44.789592239548874" lon="9.073680721763697"><ele>341.33333333333337</ele><time>2026-04-28T10:42:29Z</time></trkpt><trkpt lat="44.78969905267821" lon="9.07389129207679"><ele>341.6666666666667</ele><time>2026-04-28T10:42:30Z</time></trkpt><trkpt lat="44.789809216411435" lon="9.074112614834968"><ele>342.0</ele><time>2026-04-28T10:42:31Z</time></trkpt><trkpt lat="44.789891047496404" lon="9.07432839438386"><ele>344.3333333333333</ele><time>2026-04-28T10:42:32Z</time></trkpt><trkpt lat="44.78996122207925" lon="9.074564462527865"><ele>346.66666666666663</ele><time>2026-04-28T10:42:33Z</time></trkpt><trkpt lat="44.790022968029696" lon="9.074799306375366"><ele>349.0</ele><time>2026-04-28T10:42:33.999Z</time></trkpt><trkpt lat="44.79008496236374" lon="9.075023148327976"><ele>348.66666666666663</ele><time>2026-04-28T10:42:34.999Z</time></trkpt><trkpt lat="44.79015436945158" lon="9.075239088310992"><ele>348.3333333333333</ele><time>2026-04-28T10:42:35.999Z</time></trkpt><trkpt lat="44.79023896906522" lon="9.075451108334812"><ele>348.0</ele><time>2026-04-28T10:42:36.999Z</time></trkpt><trkpt lat="44.79034024764116" lon="9.075653785928061"><ele>350.6666666666667</ele><time>2026-04-28T10:42:37.999Z</time></trkpt><trkpt lat="44.79044454950239" lon="9.075863897454095"><ele>353.33333333333337</ele><time>2026-04-28T10:42:38.999Z</time></trkpt><trkpt lat="44.79055471341867" lon="9.07607433920982"><ele>356.0</ele><time>2026-04-28T10:42:39.999Z</time></trkpt><trkpt lat="44.79066092339843" lon="9.076285478000974"><ele>356.0</ele><time>2026-04-28T10:42:40.999Z</time></trkpt><trkpt lat="44.79076167494305" lon="9.076491709879013"><ele>356.0</ele><time>2026-04-28T10:42:41.999Z</time></trkpt><trkpt lat="44.790866841622766" lon="9.076690693936811"><ele>356.0</ele><time>2026-04-28T10:42:42.999Z</time></trkpt><trkpt lat="44.79097418642116" lon="9.076887346821183"><ele>356.0</ele><time>2026-04-28T10:42:43.999Z</time></trkpt><trkpt lat="44.791082852760354" lon="9.077090527593224"><ele>356.0</ele><time>2026-04-28T10:42:44.999Z</time></trkpt><trkpt lat="44.791197071024236" lon="9.077299525175592"><ele>356.0</ele><time>2026-04-28T10:42:45.999Z</time></trkpt><trkpt lat="44.79131833657867" lon="9.077499424549995"><ele>356.33333333333337</ele><time>2026-04-28T10:42:46.999Z</time></trkpt><trkpt lat="44.791460073267125" lon="9.077701198455202"><ele>356.6666666666667</ele><time>2026-04-28T10:42:47.999Z</time></trkpt><trkpt lat="44.791611040820065" lon="9.077925069313531"><ele>357.0</ele><time>2026-04-28T10:42:48.999Z</time></trkpt><trkpt lat="44.791769405399336" lon="9.078159746476778"><ele>356.0</ele><time>2026-04-28T10:42:49.999Z</time></trkpt><trkpt lat="44.7919259206538" lon="9.078389386008046"><ele>355.0</ele><time>2026-04-28T10:42:50.999Z</time></trkpt><trkpt lat="44.79206710635425" lon="9.078592841022246"><ele>354.0</ele><time>2026-04-28T10:42:51.999Z</time></trkpt><trkpt lat="44.79219491818355" lon="9.078787348007964"><ele>354.0</ele><time>2026-04-28T10:42:52.999Z</time></trkpt><trkpt lat="44.79231484211737" lon="9.078969316520235"><ele>354.0</ele><time>2026-04-28T10:42:53.999Z</time></trkpt><trkpt lat="44.79242361129991" lon="9.079162367965932"><ele>354.0</ele><time>2026-04-28T10:42:54.999Z</time></trkpt><trkpt lat="44.79250745460397" lon="9.079384162786933"><ele>356.0</ele><time>2026-04-28T10:42:55.999Z</time></trkpt><trkpt lat="44.792586914303385" lon="9.079606487074482"><ele>358.0</ele><time>2026-04-28T10:42:56.999Z</time></trkpt><trkpt lat="44.79267112346925" lon="9.07982997859957"><ele>360.0</ele><time>2026-04-28T10:42:57.999Z</time></trkpt><trkpt lat="44.79274026232847" lon="9.080065017101793"><ele>360.0</ele><time>2026-04-28T10:42:58.999Z</time></trkpt><trkpt lat="44.792804999132585" lon="9.080285147997087"><ele>360.0</ele><time>2026-04-28T10:42:59.999Z</time></trkpt><trkpt lat="44.79285526470818" lon="9.080521414589603"><ele>360.0</ele><time>2026-04-28T10:43:00.999Z</time></trkpt><trkpt lat="44.792929471035805" lon="9.080745237911511"><ele>361.6666666666667</ele><time>2026-04-28T10:43:01.999Z</time></trkpt><trkpt lat="44.79299306728522" lon="9.080971380855445"><ele>363.33333333333337</ele><time>2026-04-28T10:43:02.999Z</time></trkpt><trkpt lat="44.79303886018335" lon="9.081201677443476"><ele>365.0</ele><time>2026-04-28T10:43:03.999Z</time></trkpt><trkpt lat="44.79311532539993" lon="9.081419965436334"><ele>365.6666666666667</ele><time>2026-04-28T10:43:04.999Z</time></trkpt><trkpt lat="44.793201975893886" lon="9.081628325866902"><ele>366.3333333333333</ele><time>2026-04-28T10:43:05.999Z</time></trkpt><trkpt lat="44.79329895332114" lon="9.08183240256503"><ele>367.0</ele><time>2026-04-28T10:43:06.999Z</time></trkpt><trkpt lat="44.79339905849725" lon="9.082032187731492"><ele>367.0</ele><time>2026-04-28T10:43:07.999Z</time></trkpt><trkpt lat="44.79351749857631" lon="9.082217794149756"><ele>367.0</ele><time>2026-04-28T10:43:08.999Z</time></trkpt><trkpt lat="44.7936192800682" lon="9.082423682136293"><ele>367.0</ele><time>2026-04-28T10:43:09.999Z</time></trkpt><trkpt lat="44.79371030356277" lon="9.082624127719546"><ele>367.0</ele><time>2026-04-28T10:43:10.999Z</time></trkpt><trkpt lat="44.793788912394795" lon="9.08283054338713"><ele>367.0</ele><time>2026-04-28T10:43:11.999Z</time></trkpt><trkpt lat="44.793855796224825" lon="9.083053493294226"><ele>367.0</ele><time>2026-04-28T10:43:12.999Z</time></trkpt><trkpt lat="44.79391674789623" lon="9.083287474912568"><ele>367.0</ele><time>2026-04-28T10:43:13.999Z</time></trkpt><trkpt lat="44.79397637558389" lon="9.08353069619293"><ele>367.0</ele><time>2026-04-28T10:43:14.999Z</time></trkpt><trkpt lat="44.7940212114994" lon="9.083786514020312"><ele>367.0</ele><time>2026-04-28T10:43:15.999Z</time></trkpt><trkpt lat="44.79407665216531" lon="9.084026843312333"><ele>369.0</ele><time>2026-04-28T10:43:16.999Z</time></trkpt><trkpt lat="44.794126092253165" lon="9.084268383724698"><ele>371.0</ele><time>2026-04-28T10:43:17.999Z</time></trkpt><trkpt lat="44.794158633923544" lon="9.084522456551701"><ele>373.0</ele><time>2026-04-28T10:43:18.999Z</time></trkpt><trkpt lat="44.79418304769748" lon="9.084773209133722"><ele>374.0</ele><time>2026-04-28T10:43:19.999Z</time></trkpt><trkpt lat="44.79420460842239" lon="9.085026323447595"><ele>375.0</ele><time>2026-04-28T10:43:20.999Z</time></trkpt><trkpt lat="44.794226232397826" lon="9.085280180491436"><ele>376.0</ele><time>2026-04-28T10:43:21.999Z</time></trkpt><trkpt lat="44.79424580588686" lon="9.085537782273567"><ele>376.0</ele><time>2026-04-28T10:43:22.999Z</time></trkpt><trkpt lat="44.794263817165515" lon="9.085794379555287"><ele>376.0</ele><time>2026-04-28T10:43:23.999Z</time></trkpt><trkpt lat="44.794280610213306" lon="9.086054830112277"><ele>376.0</ele><time>2026-04-28T10:43:24.999Z</time></trkpt><trkpt lat="44.79429782773255" lon="9.086317523223506"><ele>376.0</ele><time>2026-04-28T10:43:25.999Z</time></trkpt><trkpt lat="44.79431757378217" lon="9.086586682730257"><ele>376.0</ele><time>2026-04-28T10:43:26.999Z</time></trkpt><trkpt lat="44.794340968922874" lon="9.086852095631807"><ele>376.0</ele><time>2026-04-28T10:43:27.999Z</time></trkpt><trkpt lat="44.794371187763794" lon="9.087125719801481"><ele>374.3333333333333</ele><time>2026-04-28T10:43:28.999Z</time></trkpt><trkpt lat="44.79441173969421" lon="9.087400701257515"><ele>372.6666666666667</ele><time>2026-04-28T10:43:29.999Z</time></trkpt><trkpt lat="44.794470595091276" lon="9.0876659929105"><ele>371.0</ele><time>2026-04-28T10:43:30.999Z</time></trkpt><trkpt lat="44.79451256839899" lon="9.087936104693823"><ele>371.0</ele><time>2026-04-28T10:43:31.999Z</time></trkpt><trkpt lat="44.794566354144806" lon="9.088199637082246"><ele>371.0</ele><time>2026-04-28T10:43:32.999Z</time></trkpt><trkpt lat="44.79459738636148" lon="9.088469521624493"><ele>371.0</ele><time>2026-04-28T10:43:33.999Z</time></trkpt><trkpt lat="44.79464258441535" lon="9.088731694344789"><ele>371.6666666666667</ele><time>2026-04-28T10:43:34.999Z</time></trkpt><trkpt lat="44.79468604497239" lon="9.088985881567108"><ele>372.3333333333333</ele><time>2026-04-28T10:43:35.999Z</time></trkpt><trkpt lat="44.79472809279182" lon="9.089235713823552"><ele>373.0</ele><time>2026-04-28T10:43:36.999Z</time></trkpt><trkpt lat="44.794768824953294" lon="9.089477728838192"><ele>373.66666666666663</ele><time>2026-04-28T10:43:37.999Z</time></trkpt><trkpt lat="44.7948068413992" lon="9.089703608151275"><ele>374.3333333333333</ele><time>2026-04-28T10:43:38.999Z</time></trkpt><trkpt lat="44.794844127455946" lon="9.089931603761528"><ele>375.0</ele><time>2026-04-28T10:43:39.999Z</time></trkpt><trkpt lat="44.794879980060344" lon="9.090153091114425"><ele>377.0</ele><time>2026-04-28T10:43:40.999Z</time></trkpt><trkpt lat="44.79491797532495" lon="9.090374490918101"><ele>379.0</ele><time>2026-04-28T10:43:41.999Z</time></trkpt><trkpt lat="44.79495706437084" lon="9.090587604360481"><ele>381.0</ele><time>2026-04-28T10:43:42.999Z</time></trkpt><trkpt lat="44.79501234273705" lon="9.09079671825128"><ele>381.3333333333333</ele><time>2026-04-28T10:43:43.999Z</time></trkpt><trkpt lat="44.79505270903679" lon="9.09101718968779"><ele>381.66666666666663</ele><time>2026-04-28T10:43:44.999Z</time></trkpt><trkpt lat="44.795095135016886" lon="9.09123058062994"><ele>382.0</ele><time>2026-04-28T10:43:45.999Z</time></trkpt><trkpt lat="44.795122265476344" lon="9.09145687425809"><ele>381.66666666666663</ele><time>2026-04-28T10:43:46.999Z</time></trkpt><trkpt lat="44.79518163440809" lon="9.091677262593578"><ele>381.3333333333333</ele><time>2026-04-28T10:43:47.999Z</time></trkpt><trkpt lat="44.7952262948915" lon="9.091905777467481"><ele>381.0</ele><time>2026-04-28T10:43:49Z</time></trkpt><trkpt lat="44.79527183288706" lon="9.09214003481583"><ele>381.0</ele><time>2026-04-28T10:43:50Z</time></trkpt><trkpt lat="44.795320734447785" lon="9.092375537450751"><ele>381.0</ele><time>2026-04-28T10:43:51Z</time></trkpt><trkpt lat="44.79535257659663" lon="9.09262144330942"><ele>381.0</ele><time>2026-04-28T10:43:52Z</time></trkpt><trkpt lat="44.79540064650796" lon="9.092862544424785"><ele>381.6666666666667</ele><time>2026-04-28T10:43:53Z</time></trkpt><trkpt lat="44.795449777014454" lon="9.09310896478329"><ele>382.33333333333337</ele><time>2026-04-28T10:43:54Z</time></trkpt><trkpt lat="44.795515268979706" lon="9.09335231472547"><ele>383.0</ele><time>2026-04-28T10:43:55Z</time></trkpt><trkpt lat="44.7955631504357" lon="9.093606792364884"><ele>384.33333333333337</ele><time>2026-04-28T10:43:56Z</time></trkpt><trkpt lat="44.79559726774103" lon="9.093859809323718"><ele>385.6666666666667</ele><time>2026-04-28T10:43:57Z</time></trkpt><trkpt lat="44.795658862606665" lon="9.094104851743664"><ele>387.0</ele><time>2026-04-28T10:43:58Z</time></trkpt><trkpt lat="44.795695043343294" lon="9.094339508013844"><ele>387.33333333333337</ele><time>2026-04-28T10:43:59Z</time></trkpt><trkpt lat="44.79570938973739" lon="9.094576581373007"><ele>387.6666666666667</ele><time>2026-04-28T10:44:00Z</time></trkpt><trkpt lat="44.79572850445748" lon="9.09481206085477"><ele>388.0</ele><time>2026-04-28T10:44:01Z</time></trkpt><trkpt lat="44.79574424420327" lon="9.095062977640897"><ele>388.0</ele><time>2026-04-28T10:44:02Z</time></trkpt><trkpt lat="44.795769261927504" lon="9.09529689257567"><ele>388.0</ele><time>2026-04-28T10:44:03Z</time></trkpt><trkpt lat="44.7958155281417" lon="9.095525488526883"><ele>388.0</ele><time>2026-04-28T10:44:04Z</time></trkpt><trkpt lat="44.79589704533612" lon="9.095748039276147"><ele>388.0</ele><time>2026-04-28T10:44:05Z</time></trkpt><trkpt lat="44.79594022732271" lon="9.095985946306687"><ele>388.0</ele><time>2026-04-28T10:44:06Z</time></trkpt><trkpt lat="44.79598123992086" lon="9.096224093601068"><ele>388.0</ele><time>2026-04-28T10:44:07Z</time></trkpt><trkpt lat="44.796004532176475" lon="9.09647270639574"><ele>388.6666666666667</ele><time>2026-04-28T10:44:08Z</time></trkpt><trkpt lat="44.796017095805034" lon="9.09672514052162"><ele>389.33333333333337</ele><time>2026-04-28T10:44:09Z</time></trkpt><trkpt lat="44.79602529456285" lon="9.09698045267987"><ele>390.0</ele><time>2026-04-28T10:44:10Z</time></trkpt><trkpt lat="44.79603366528168" lon="9.097241119241865"><ele>390.0</ele><time>2026-04-28T10:44:11Z</time></trkpt><trkpt lat="44.796038109639255" lon="9.097510216016124"><ele>390.0</ele><time>2026-04-28T10:44:12Z</time></trkpt><trkpt lat="44.796041222494445" lon="9.097785895407322"><ele>390.0</ele><time>2026-04-28T10:44:13Z</time></trkpt><trkpt lat="44.796044447420286" lon="9.098060067299523"><ele>389.33333333333337</ele><time>2026-04-28T10:44:14Z</time></trkpt><trkpt lat="44.796048255282024" lon="9.098342476163374"><ele>388.6666666666667</ele><time>2026-04-28T10:44:15Z</time></trkpt><trkpt lat="44.79605254004195" lon="9.098629931376374"><ele>388.0</ele><time>2026-04-28T10:44:16Z</time></trkpt><trkpt lat="44.79607481088405" lon="9.098903490282156"><ele>389.33333333333337</ele><time>2026-04-28T10:44:17Z</time></trkpt><trkpt lat="44.79607197970604" lon="9.099175216352466"><ele>390.66666666666663</ele><time>2026-04-28T10:44:18Z</time></trkpt><trkpt lat="44.79608834315623" lon="9.09944853855612"><ele>392.0</ele><time>2026-04-28T10:44:19Z</time></trkpt><trkpt lat="44.796114347926746" lon="9.099723968830144"><ele>392.0</ele><time>2026-04-28T10:44:20Z</time></trkpt><trkpt lat="44.79615480228711" lon="9.099997506101804"><ele>392.0</ele><time>2026-04-28T10:44:21Z</time></trkpt><trkpt lat="44.79617630110889" lon="9.100261143733844"><ele>392.0</ele><time>2026-04-28T10:44:22Z</time></trkpt><trkpt lat="44.79618964862459" lon="9.100516913711505"><ele>392.0</ele><time>2026-04-28T10:44:23Z</time></trkpt><trkpt lat="44.79619349105596" lon="9.100762258538447"><ele>392.0</ele><time>2026-04-28T10:44:24Z</time></trkpt><trkpt lat="44.79615877323612" lon="9.100985091283727"><ele>392.0</ele><time>2026-04-28T10:44:25Z</time></trkpt><trkpt lat="44.796117531624425" lon="9.101166300605025"><ele>392.0</ele><time>2026-04-28T10:44:26Z</time></trkpt><trkpt lat="44.79605129410876" lon="9.101337344757077"><ele>392.0</ele><time>2026-04-28T10:44:27Z</time></trkpt><trkpt lat="44.79596504099056" lon="9.101510250208056"><ele>392.0</ele><time>2026-04-28T10:44:28Z</time></trkpt><trkpt lat="44.79586072521439" lon="9.101680093222276"><ele>392.0</ele><time>2026-04-28T10:44:29Z</time></trkpt><trkpt lat="44.79575483368417" lon="9.101862416215697"><ele>391.3333333333333</ele><time>2026-04-28T10:44:30Z</time></trkpt><trkpt lat="44.79565567904264" lon="9.102051700232082"><ele>390.66666666666663</ele><time>2026-04-28T10:44:31Z</time></trkpt><trkpt lat="44.795577580586595" lon="9.102239311134293"><ele>390.0</ele><time>2026-04-28T10:44:32Z</time></trkpt><trkpt lat="44.795517118972214" lon="9.102430278737732"><ele>390.0</ele><time>2026-04-28T10:44:33Z</time></trkpt><trkpt lat="44.79547762972824" lon="9.102635371632152"><ele>390.0</ele><time>2026-04-28T10:44:34Z</time></trkpt><trkpt lat="44.795464814954755" lon="9.10284552809335"><ele>390.0</ele><time>2026-04-28T10:44:35Z</time></trkpt><trkpt lat="44.79546774116082" lon="9.103038486511108"><ele>390.0</ele><time>2026-04-28T10:44:36Z</time></trkpt><trkpt lat="44.79548911026455" lon="9.103225620069663"><ele>390.25</ele><time>2026-04-28T10:44:37Z</time></trkpt><trkpt lat="44.79552826682821" lon="9.10338451001655"><ele>390.5</ele><time>2026-04-28T10:44:38Z</time></trkpt><trkpt lat="44.795596969717636" lon="9.103524155407621"><ele>390.75</ele><time>2026-04-28T10:44:39Z</time></trkpt><trkpt lat="44.795693806118656" lon="9.10362673808555"><ele>391.0</ele><time>2026-04-28T10:44:39.999Z</time></trkpt><trkpt lat="44.795786386555726" lon="9.103740589549309"><ele>391.0</ele><time>2026-04-28T10:44:40.999Z</time></trkpt><trkpt lat="44.79586719652653" lon="9.103872739148729"><ele>391.0</ele><time>2026-04-28T10:44:41.999Z</time></trkpt><trkpt lat="44.79595735944171" lon="9.103988475882993"><ele>391.0</ele><time>2026-04-28T10:44:42.999Z</time></trkpt><trkpt lat="44.79606764629467" lon="9.104099642561591"><ele>391.0</ele><time>2026-04-28T10:44:43.999Z</time></trkpt><trkpt lat="44.796168538625835" lon="9.104235910073102"><ele>391.33333333333337</ele><time>2026-04-28T10:44:44.999Z</time></trkpt><trkpt lat="44.79627179748452" lon="9.104378898355769"><ele>391.66666666666663</ele><time>2026-04-28T10:44:45.999Z</time></trkpt><trkpt lat="44.79638418260594" lon="9.104525210625969"><ele>392.0</ele><time>2026-04-28T10:44:46.999Z</time></trkpt><trkpt lat="44.79650100888111" lon="9.104679966367993"><ele>392.0</ele><time>2026-04-28T10:44:47.999Z</time></trkpt><trkpt lat="44.7966009692083" lon="9.10483198876392"><ele>392.0</ele><time>2026-04-28T10:44:48.999Z</time></trkpt><trkpt lat="44.796693376390024" lon="9.104965585050781"><ele>392.0</ele><time>2026-04-28T10:44:49.999Z</time></trkpt><trkpt lat="44.79677534082459" lon="9.105090114320701"><ele>392.0</ele><time>2026-04-28T10:44:50.999Z</time></trkpt><trkpt lat="44.79682979842119" lon="9.105230995168819"><ele>393.0</ele><time>2026-04-28T10:44:51.999Z</time></trkpt><trkpt lat="44.7968342475596" lon="9.105393102825179"><ele>394.0</ele><time>2026-04-28T10:44:52.999Z</time></trkpt><trkpt lat="44.79683237076694" lon="9.105576008139773"><ele>395.0</ele><time>2026-04-28T10:44:53.999Z</time></trkpt><trkpt lat="44.79679572498649" lon="9.10577342771924"><ele>396.0</ele><time>2026-04-28T10:44:54.999Z</time></trkpt><trkpt lat="44.79674927566647" lon="9.106002134477503"><ele>396.75</ele><time>2026-04-28T10:44:55.999Z</time></trkpt><trkpt lat="44.79670299798233" lon="9.106230356532166"><ele>397.5</ele><time>2026-04-28T10:44:56.999Z</time></trkpt><trkpt lat="44.79664355490558" lon="9.106416359990689"><ele>398.25</ele><time>2026-04-28T10:44:57.999Z</time></trkpt><trkpt lat="44.79656691217174" lon="9.106563831685248"><ele>399.0</ele><time>2026-04-28T10:44:58.999Z</time></trkpt><trkpt lat="44.79646814358286" lon="9.106739227553009"><ele>399.33333333333337</ele><time>2026-04-28T10:44:59.999Z</time></trkpt><trkpt lat="44.79635469936471" lon="9.106939663639245"><ele>399.6666666666667</ele><time>2026-04-28T10:45:00.999Z</time></trkpt><trkpt lat="44.79624144252654" lon="9.10714870903109"><ele>400.0</ele><time>2026-04-28T10:45:01.999Z</time></trkpt><trkpt lat="44.796142793964556" lon="9.107335223356607"><ele>399.33333333333337</ele><time>2026-04-28T10:45:02.999Z</time></trkpt><trkpt lat="44.79604771233456" lon="9.107522916692293"><ele>398.66666666666663</ele><time>2026-04-28T10:45:03.999Z</time></trkpt><trkpt lat="44.79598251308439" lon="9.107721252087128"><ele>398.0</ele><time>2026-04-28T10:45:04.999Z</time></trkpt><trkpt lat="44.79596527044428" lon="9.107939058889826"><ele>399.25</ele><time>2026-04-28T10:45:05.999Z</time></trkpt><trkpt lat="44.795941583136695" lon="9.108154716205355"><ele>400.5</ele><time>2026-04-28T10:45:06.999Z</time></trkpt><trkpt lat="44.79591255321384" lon="9.108366389568202"><ele>401.75</ele><time>2026-04-28T10:45:07.999Z</time></trkpt><trkpt lat="44.79588967319197" lon="9.108559585476304"><ele>403.0</ele><time>2026-04-28T10:45:08.999Z</time></trkpt><trkpt lat="44.79583215004646" lon="9.108733902643571"><ele>403.0</ele><time>2026-04-28T10:45:09.999Z</time></trkpt><trkpt lat="44.795773594050154" lon="9.10892062348172"><ele>403.0</ele><time>2026-04-28T10:45:10.999Z</time></trkpt><trkpt lat="44.79570446087149" lon="9.109123562901088"><ele>403.0</ele><time>2026-04-28T10:45:11.999Z</time></trkpt><trkpt lat="44.79564935898547" lon="9.109349032878468"><ele>403.33333333333337</ele><time>2026-04-28T10:45:12.999Z</time></trkpt><trkpt lat="44.795600124232166" lon="9.109587718814499"><ele>403.66666666666663</ele><time>2026-04-28T10:45:13.999Z</time></trkpt><trkpt lat="44.79555288679335" lon="9.109826635034521"><ele>404.0</ele><time>2026-04-28T10:45:14.999Z</time></trkpt><trkpt lat="44.79550379207769" lon="9.110077133384708"><ele>405.66666666666663</ele><time>2026-04-28T10:45:15.999Z</time></trkpt><trkpt lat="44.79546867414111" lon="9.110335028279243"><ele>407.33333333333337</ele><time>2026-04-28T10:45:16.999Z</time></trkpt><trkpt lat="44.79539632489163" lon="9.11057774966644"><ele>409.0</ele><time>2026-04-28T10:45:17.999Z</time></trkpt><trkpt lat="44.79533578552668" lon="9.110825402098627"><ele>409.0</ele><time>2026-04-28T10:45:18.999Z</time></trkpt><trkpt lat="44.795271295145014" lon="9.111072050868751"><ele>409.0</ele><time>2026-04-28T10:45:19.999Z</time></trkpt><trkpt lat="44.795204612931606" lon="9.111318545139516"><ele>409.0</ele><time>2026-04-28T10:45:20.999Z</time></trkpt><trkpt lat="44.79515185591346" lon="9.111568476641873"><ele>408.6666666666667</ele><time>2026-04-28T10:45:21.999Z</time></trkpt><trkpt lat="44.79506937189959" lon="9.111806188582186"><ele>408.33333333333337</ele><time>2026-04-28T10:45:22.999Z</time></trkpt><trkpt lat="44.79500128221173" lon="9.112050109019794"><ele>408.0</ele><time>2026-04-28T10:45:23.999Z</time></trkpt><trkpt lat="44.79493302489727" lon="9.112293520303423"><ele>409.0</ele><time>2026-04-28T10:45:24.999Z</time></trkpt><trkpt lat="44.79486450479502" lon="9.112536264927154"><ele>410.0</ele><time>2026-04-28T10:45:25.999Z</time></trkpt><trkpt lat="44.794796690250976" lon="9.112777027633175"><ele>411.0</ele><time>2026-04-28T10:45:26.999Z</time></trkpt><trkpt lat="44.79473049182087" lon="9.113012168920397"><ele>412.0</ele><time>2026-04-28T10:45:27.999Z</time></trkpt><trkpt lat="44.79466577494251" lon="9.113242047509338"><ele>413.0</ele><time>2026-04-28T10:45:28.999Z</time></trkpt><trkpt lat="44.794601162423945" lon="9.113471555500725"><ele>414.0</ele><time>2026-04-28T10:45:29.999Z</time></trkpt><trkpt lat="44.79453737425665" lon="9.113698135317696"><ele>414.0</ele><time>2026-04-28T10:45:30.999Z</time></trkpt><trkpt lat="44.79447537754206" lon="9.113918351758198"><ele>414.0</ele><time>2026-04-28T10:45:31.999Z</time></trkpt><trkpt lat="44.79441360676561" lon="9.114137619798385"><ele>414.0</ele><time>2026-04-28T10:45:32.999Z</time></trkpt><trkpt lat="44.794352526896326" lon="9.114352839785674"><ele>414.66666666666663</ele><time>2026-04-28T10:45:33.999Z</time></trkpt><trkpt lat="44.794291089936095" lon="9.11456931793829"><ele>415.3333333333333</ele><time>2026-04-28T10:45:34.999Z</time></trkpt><trkpt lat="44.794229599812525" lon="9.114785275279106"><ele>416.0</ele><time>2026-04-28T10:45:35.999Z</time></trkpt><trkpt lat="44.794164278656886" lon="9.11499804306941"><ele>418.3333333333333</ele><time>2026-04-28T10:45:36.999Z</time></trkpt><trkpt lat="44.79408596691039" lon="9.115192644513764"><ele>420.66666666666663</ele><time>2026-04-28T10:45:37.999Z</time></trkpt><trkpt lat="44.79398525995956" lon="9.115368560315087"><ele>423.0</ele><time>2026-04-28T10:45:38.999Z</time></trkpt><trkpt lat="44.79384610781632" lon="9.115505171350675"><ele>423.0</ele><time>2026-04-28T10:45:39.999Z</time></trkpt><trkpt lat="44.793709634240486" lon="9.11564516135503"><ele>423.0</ele><time>2026-04-28T10:45:40.999Z</time></trkpt><trkpt lat="44.79356694908777" lon="9.11578822949228"><ele>423.0</ele><time>2026-04-28T10:45:41.999Z</time></trkpt><trkpt lat="44.79342536345877" lon="9.115931065870889"><ele>425.0</ele><time>2026-04-28T10:45:42.999Z</time></trkpt><trkpt lat="44.79329314063416" lon="9.116064844944376"><ele>427.0</ele><time>2026-04-28T10:45:43.999Z</time></trkpt><trkpt lat="44.79316931429916" lon="9.116183418535046"><ele>429.0</ele><time>2026-04-28T10:45:44.999Z</time></trkpt><trkpt lat="44.79304504983133" lon="9.116304971532777"><ele>429.0</ele><time>2026-04-28T10:45:45.999Z</time></trkpt><trkpt lat="44.79292030231744" lon="9.116433707199102"><ele>429.0</ele><time>2026-04-28T10:45:46.999Z</time></trkpt><trkpt lat="44.792800626008365" lon="9.116580496831645"><ele>429.0</ele><time>2026-04-28T10:45:47.999Z</time></trkpt><trkpt lat="44.79268624034917" lon="9.116724827394014"><ele>429.0</ele><time>2026-04-28T10:45:48.999Z</time></trkpt><trkpt lat="44.79257159227976" lon="9.116866083895749"><ele>429.0</ele><time>2026-04-28T10:45:49.999Z</time></trkpt><trkpt lat="44.79245743004657" lon="9.117009492636813"><ele>429.0</ele><time>2026-04-28T10:45:50.999Z</time></trkpt><trkpt lat="44.79235171654037" lon="9.117174426690976"><ele>429.0</ele><time>2026-04-28T10:45:51.999Z</time></trkpt><trkpt lat="44.79224686572332" lon="9.117357681792699"><ele>429.0</ele><time>2026-04-28T10:45:52.999Z</time></trkpt><trkpt lat="44.79214257157541" lon="9.117537268572494"><ele>429.0</ele><time>2026-04-28T10:45:53.999Z</time></trkpt><trkpt lat="44.79203196066824" lon="9.117715651170696"><ele>428.33333333333337</ele><time>2026-04-28T10:45:55Z</time></trkpt><trkpt lat="44.79192350106665" lon="9.117882915010924"><ele>427.6666666666667</ele><time>2026-04-28T10:45:56Z</time></trkpt><trkpt lat="44.791811175176804" lon="9.118036915026556"><ele>427.0</ele><time>2026-04-28T10:45:57Z</time></trkpt><trkpt lat="44.79168761285126" lon="9.118175195434052"><ele>428.0</ele><time>2026-04-28T10:45:58Z</time></trkpt><trkpt lat="44.79155889536216" lon="9.118315820444465"><ele>429.0</ele><time>2026-04-28T10:45:59Z</time></trkpt><trkpt lat="44.791427793577306" lon="9.118458567354853"><ele>430.0</ele><time>2026-04-28T10:46:00Z</time></trkpt><trkpt lat="44.791298958331225" lon="9.118600908063195"><ele>430.0</ele><time>2026-04-28T10:46:01Z</time></trkpt><trkpt lat="44.79117100389308" lon="9.118756929432957"><ele>430.0</ele><time>2026-04-28T10:46:02Z</time></trkpt><trkpt lat="44.79107099295832" lon="9.118933916526583"><ele>430.0</ele><time>2026-04-28T10:46:03Z</time></trkpt><trkpt lat="44.79096245428355" lon="9.119097654997004"><ele>428.33333333333337</ele><time>2026-04-28T10:46:04Z</time></trkpt><trkpt lat="44.79087259534662" lon="9.119284799476842"><ele>426.66666666666663</ele><time>2026-04-28T10:46:05Z</time></trkpt><trkpt lat="44.790791647368785" lon="9.119473998989886"><ele>425.0</ele><time>2026-04-28T10:46:06Z</time></trkpt><trkpt lat="44.79071450870305" lon="9.119677916726793"><ele>425.0</ele><time>2026-04-28T10:46:07Z</time></trkpt><trkpt lat="44.790642813566095" lon="9.119884489605441"><ele>425.0</ele><time>2026-04-28T10:46:08Z</time></trkpt><trkpt lat="44.790576313166376" lon="9.12009722164937"><ele>425.0</ele><time>2026-04-28T10:46:09Z</time></trkpt><trkpt lat="44.790517183403445" lon="9.120322335583825"><ele>426.0</ele><time>2026-04-28T10:46:10Z</time></trkpt><trkpt lat="44.7904697114213" lon="9.120557687200199"><ele>427.0</ele><time>2026-04-28T10:46:11Z</time></trkpt><trkpt lat="44.79043577049288" lon="9.12080074302775"><ele>428.0</ele><time>2026-04-28T10:46:12Z</time></trkpt><trkpt lat="44.790414198497274" lon="9.121050516912788"><ele>428.66666666666663</ele><time>2026-04-28T10:46:13Z</time></trkpt><trkpt lat="44.79039864106463" lon="9.121299396470231"><ele>429.33333333333337</ele><time>2026-04-28T10:46:14Z</time></trkpt><trkpt lat="44.790387651409276" lon="9.121556558376389"><ele>430.0</ele><time>2026-04-28T10:46:15Z</time></trkpt><trkpt lat="44.790389785029866" lon="9.121818545388178"><ele>430.0</ele><time>2026-04-28T10:46:16Z</time></trkpt><trkpt lat="44.79040561897871" lon="9.122082877528348"><ele>430.0</ele><time>2026-04-28T10:46:17Z</time></trkpt><trkpt lat="44.79042903830711" lon="9.122344734638142"><ele>430.0</ele><time>2026-04-28T10:46:18Z</time></trkpt><trkpt lat="44.79045507808806" lon="9.12260391628271"><ele>430.0</ele><time>2026-04-28T10:46:19Z</time></trkpt><trkpt lat="44.79048342896755" lon="9.122862907948056"><ele>430.0</ele><time>2026-04-28T10:46:20Z</time></trkpt><trkpt lat="44.790511052112926" lon="9.12311719845402"><ele>430.0</ele><time>2026-04-28T10:46:21Z</time></trkpt><trkpt lat="44.79053681253583" lon="9.123371669449028"><ele>433.0</ele><time>2026-04-28T10:46:22Z</time></trkpt><trkpt lat="44.7905544493331" lon="9.123622462820466"><ele>436.0</ele><time>2026-04-28T10:46:23Z</time></trkpt><trkpt lat="44.7905681198157" lon="9.123873775566075"><ele>439.0</ele><time>2026-04-28T10:46:24Z</time></trkpt><trkpt lat="44.79058186381882" lon="9.124123605253615"><ele>440.6666666666667</ele><time>2026-04-28T10:46:25Z</time></trkpt><trkpt lat="44.790597273635456" lon="9.124369055459125"><ele>442.33333333333337</ele><time>2026-04-28T10:46:26Z</time></trkpt><trkpt lat="44.79061315104735" lon="9.124602773728693"><ele>444.0</ele><time>2026-04-28T10:46:27Z</time></trkpt><trkpt lat="44.79062929096708" lon="9.124834723133"><ele>445.0</ele><time>2026-04-28T10:46:28Z</time></trkpt><trkpt lat="44.790647445897" lon="9.125066790501874"><ele>446.0</ele><time>2026-04-28T10:46:29Z</time></trkpt><trkpt lat="44.79066422275758" lon="9.125295214483351"><ele>447.0</ele><time>2026-04-28T10:46:30Z</time></trkpt><trkpt lat="44.79067920063296" lon="9.125521227985807"><ele>445.0</ele><time>2026-04-28T10:46:31Z</time></trkpt><trkpt lat="44.790687145788056" lon="9.125745042485203"><ele>443.0</ele><time>2026-04-28T10:46:32Z</time></trkpt><trkpt lat="44.7906905686824" lon="9.125986399765656"><ele>441.0</ele><time>2026-04-28T10:46:33Z</time></trkpt><trkpt lat="44.79072132586533" lon="9.126235268626981"><ele>441.0</ele><time>2026-04-28T10:46:34Z</time></trkpt><trkpt lat="44.79071685061302" lon="9.12648258119708"><ele>441.0</ele><time>2026-04-28T10:46:35Z</time></trkpt><trkpt lat="44.790707911933914" lon="9.126728100291459"><ele>441.0</ele><time>2026-04-28T10:46:36Z</time></trkpt><trkpt lat="44.790689999526656" lon="9.126977465760444"><ele>440.66666666666663</ele><time>2026-04-28T10:46:37Z</time></trkpt><trkpt lat="44.79063992131955" lon="9.12720972264305"><ele>440.3333333333333</ele><time>2026-04-28T10:46:38Z</time></trkpt><trkpt lat="44.79062542690537" lon="9.127456275608091"><ele>440.0</ele><time>2026-04-28T10:46:39Z</time></trkpt><trkpt lat="44.7906196536345" lon="9.127698048814995"><ele>442.0</ele><time>2026-04-28T10:46:40Z</time></trkpt><trkpt lat="44.79062281926291" lon="9.127936053465852"><ele>444.0</ele><time>2026-04-28T10:46:41Z</time></trkpt><trkpt lat="44.79063559956443" lon="9.12817037052122"><ele>446.0</ele><time>2026-04-28T10:46:42Z</time></trkpt><trkpt lat="44.79065634062243" lon="9.128406271959468"><ele>447.0</ele><time>2026-04-28T10:46:43Z</time></trkpt><trkpt lat="44.7906746724789" lon="9.128636670695418"><ele>448.0</ele><time>2026-04-28T10:46:43.999Z</time></trkpt><trkpt lat="44.790687060710475" lon="9.12888080089345"><ele>449.0</ele><time>2026-04-28T10:46:44.999Z</time></trkpt><trkpt lat="44.790700539099085" lon="9.129148513394401"><ele>449.0</ele><time>2026-04-28T10:46:45.999Z</time></trkpt><trkpt lat="44.790717269446134" lon="9.129438959271738"><ele>449.0</ele><time>2026-04-28T10:46:46.999Z</time></trkpt><trkpt lat="44.790736252676105" lon="9.12975516636869"><ele>449.0</ele><time>2026-04-28T10:46:47.999Z</time></trkpt><trkpt lat="44.79075460053036" lon="9.130053576923986"><ele>449.0</ele><time>2026-04-28T10:46:48.999Z</time></trkpt><trkpt lat="44.79077134158395" lon="9.130324319136674"><ele>449.0</ele><time>2026-04-28T10:46:49.999Z</time></trkpt><trkpt lat="44.79078897126707" lon="9.130588883827198"><ele>449.0</ele><time>2026-04-28T10:46:50.999Z</time></trkpt><trkpt lat="44.79080690141402" lon="9.130852148960646"><ele>449.0</ele><time>2026-04-28T10:46:51.999Z</time></trkpt><trkpt lat="44.79082420227876" lon="9.131097958435982"><ele>449.0</ele><time>2026-04-28T10:46:52.999Z</time></trkpt><trkpt lat="44.79084043770609" lon="9.131328630375853"><ele>449.0</ele><time>2026-04-28T10:46:53.999Z</time></trkpt><trkpt lat="44.79086770373485" lon="9.13156171680194"><ele>449.0</ele><time>2026-04-28T10:46:54.999Z</time></trkpt><trkpt lat="44.79087116183888" lon="9.131790776639019"><ele>449.0</ele><time>2026-04-28T10:46:55.999Z</time></trkpt><trkpt lat="44.7908566507839" lon="9.132043943364302"><ele>449.0</ele><time>2026-04-28T10:46:56.999Z</time></trkpt><trkpt lat="44.7908189171745" lon="9.132298636018453"><ele>450.3333333333333</ele><time>2026-04-28T10:46:57.999Z</time></trkpt><trkpt lat="44.790789424618474" lon="9.132569034717974"><ele>451.66666666666663</ele><time>2026-04-28T10:46:58.999Z</time></trkpt><trkpt lat="44.790756897425865" lon="9.132855559492524"><ele>453.0</ele><time>2026-04-28T10:46:59.999Z</time></trkpt><trkpt lat="44.79072509904059" lon="9.133137111283876"><ele>453.33333333333337</ele><time>2026-04-28T10:47:00.999Z</time></trkpt><trkpt lat="44.79069649332359" lon="9.133398816275122"><ele>453.6666666666667</ele><time>2026-04-28T10:47:01.999Z</time></trkpt><trkpt lat="44.79067227502326" lon="9.133634400060604"><ele>454.0</ele><time>2026-04-28T10:47:02.999Z</time></trkpt><trkpt lat="44.7906482899455" lon="9.133876342389474"><ele>455.6666666666667</ele><time>2026-04-28T10:47:03.999Z</time></trkpt><trkpt lat="44.79062899868342" lon="9.134108549655835"><ele>457.33333333333337</ele><time>2026-04-28T10:47:04.999Z</time></trkpt><trkpt lat="44.790611534240725" lon="9.134342039326441"><ele>459.0</ele><time>2026-04-28T10:47:05.999Z</time></trkpt><trkpt lat="44.790592844462196" lon="9.134591910598674"><ele>459.0</ele><time>2026-04-28T10:47:06.999Z</time></trkpt><trkpt lat="44.790573034148395" lon="9.134856763473163"><ele>459.0</ele><time>2026-04-28T10:47:07.999Z</time></trkpt><trkpt lat="44.790552787866666" lon="9.13513340429177"><ele>459.0</ele><time>2026-04-28T10:47:08.999Z</time></trkpt><trkpt lat="44.79053113129981" lon="9.135389461532373"><ele>459.0</ele><time>2026-04-28T10:47:09.999Z</time></trkpt><trkpt lat="44.79049823021675" lon="9.135626541338091"><ele>459.0</ele><time>2026-04-28T10:47:10.999Z</time></trkpt><trkpt lat="44.79044235910161" lon="9.135889545519348"><ele>459.0</ele><time>2026-04-28T10:47:11.999Z</time></trkpt><trkpt lat="44.790360719025536" lon="9.136182741311414"><ele>460.0</ele><time>2026-04-28T10:47:12.999Z</time></trkpt><trkpt lat="44.790278083136094" lon="9.136503552270291"><ele>461.0</ele><time>2026-04-28T10:47:13.999Z</time></trkpt><trkpt lat="44.7902194636083" lon="9.136828965116234"><ele>457.3333333333333</ele><time>2026-04-28T10:47:14.999Z</time></trkpt><trkpt lat="44.79017345308628" lon="9.137104565370612"><ele>453.66666666666663</ele><time>2026-04-28T10:47:15.999Z</time></trkpt><trkpt lat="44.79012470271369" lon="9.137343647317826"><ele>450.0</ele><time>2026-04-28T10:47:16.999Z</time></trkpt><trkpt lat="44.79004994741297" lon="9.137562997293282"><ele>450.0</ele><time>2026-04-28T10:47:17.999Z</time></trkpt><trkpt lat="44.78994554253855" lon="9.137748608866577"><ele>450.0</ele><time>2026-04-28T10:47:18.999Z</time></trkpt><trkpt lat="44.78980657149631" lon="9.137941464420514"><ele>450.0</ele><time>2026-04-28T10:47:19.999Z</time></trkpt><trkpt lat="44.78964288922884" lon="9.138164551296835"><ele>450.33333333333337</ele><time>2026-04-28T10:47:20.999Z</time></trkpt><trkpt lat="44.789507815422475" lon="9.138356280150346"><ele>450.6666666666667</ele><time>2026-04-28T10:47:21.999Z</time></trkpt><trkpt lat="44.789382710449196" lon="9.138544433554296"><ele>451.0</ele><time>2026-04-28T10:47:22.999Z</time></trkpt><trkpt lat="44.789268808748446" lon="9.138723196012704"><ele>451.0</ele><time>2026-04-28T10:47:23.999Z</time></trkpt><trkpt lat="44.789154864813824" lon="9.138909500005472"><ele>451.0</ele><time>2026-04-28T10:47:24.999Z</time></trkpt><trkpt lat="44.789046020251675" lon="9.13909338251012"><ele>451.0</ele><time>2026-04-28T10:47:25.999Z</time></trkpt><trkpt lat="44.788944074065704" lon="9.139296030831526"><ele>452.6666666666667</ele><time>2026-04-28T10:47:26.999Z</time></trkpt><trkpt lat="44.788864147942085" lon="9.139509144519407"><ele>454.33333333333337</ele><time>2026-04-28T10:47:27.999Z</time></trkpt><trkpt lat="44.788804965298965" lon="9.139757150399744"><ele>456.0</ele><time>2026-04-28T10:47:28.999Z</time></trkpt><trkpt lat="44.788755017750944" lon="9.14003310715076"><ele>457.66666666666663</ele><time>2026-04-28T10:47:29.999Z</time></trkpt><trkpt lat="44.78871418596003" lon="9.140276746007128"><ele>459.3333333333333</ele><time>2026-04-28T10:47:30.999Z</time></trkpt><trkpt lat="44.788644773994896" lon="9.14052477867162"><ele>461.0</ele><time>2026-04-28T10:47:31.999Z</time></trkpt><trkpt lat="44.7885368107506" lon="9.140782397363648"><ele>460.0</ele><time>2026-04-28T10:47:32.999Z</time></trkpt><trkpt lat="44.788406259800645" lon="9.141052904429536"><ele>459.0</ele><time>2026-04-28T10:47:33.999Z</time></trkpt><trkpt lat="44.788278512141275" lon="9.14133272758595"><ele>461.0</ele><time>2026-04-28T10:47:34.999Z</time></trkpt><trkpt lat="44.788165590992136" lon="9.14158465396621"><ele>463.0</ele><time>2026-04-28T10:47:35.999Z</time></trkpt><trkpt lat="44.78804442659897" lon="9.14185496888682"><ele>465.0</ele><time>2026-04-28T10:47:36.999Z</time></trkpt><trkpt lat="44.787932363104275" lon="9.142098188433335"><ele>465.0</ele><time>2026-04-28T10:47:37.999Z</time></trkpt><trkpt lat="44.78782592759471" lon="9.142316111368778"><ele>465.0</ele><time>2026-04-28T10:47:38.999Z</time></trkpt><trkpt lat="44.78772699907933" lon="9.142528172853494"><ele>465.0</ele><time>2026-04-28T10:47:39.999Z</time></trkpt><trkpt lat="44.7876383103035" lon="9.142765080253124"><ele>464.0</ele><time>2026-04-28T10:47:40.999Z</time></trkpt><trkpt lat="44.78755644596762" lon="9.143010409275725"><ele>463.0</ele><time>2026-04-28T10:47:41.999Z</time></trkpt><trkpt lat="44.78747412668882" lon="9.143263297276247"><ele>462.0</ele><time>2026-04-28T10:47:42.999Z</time></trkpt><trkpt lat="44.787390240365546" lon="9.143514635256354"><ele>464.0</ele><time>2026-04-28T10:47:43.999Z</time></trkpt><trkpt lat="44.787302385992824" lon="9.143766099052774"><ele>466.0</ele><time>2026-04-28T10:47:44.999Z</time></trkpt><trkpt lat="44.78722061315144" lon="9.14400015577143"><ele>468.0</ele><time>2026-04-28T10:47:45.999Z</time></trkpt><trkpt lat="44.78714658624303" lon="9.144212041490842"><ele>470.33333333333337</ele><time>2026-04-28T10:47:46.999Z</time></trkpt><trkpt lat="44.78707527121646" lon="9.144416165064913"><ele>472.6666666666667</ele><time>2026-04-28T10:47:47.999Z</time></trkpt><trkpt lat="44.787004846957664" lon="9.144617738865845"><ele>475.0</ele><time>2026-04-28T10:47:48.999Z</time></trkpt><trkpt lat="44.7869353163222" lon="9.14482915494415"><ele>475.75</ele><time>2026-04-28T10:47:49.999Z</time></trkpt><trkpt lat="44.78686545160915" lon="9.145037030531748"><ele>476.5</ele><time>2026-04-28T10:47:50.999Z</time></trkpt><trkpt lat="44.78679990766127" lon="9.14522047256506"><ele>477.25</ele><time>2026-04-28T10:47:51.999Z</time></trkpt><trkpt lat="44.786741708222436" lon="9.145343295530273"><ele>478.0</ele><time>2026-04-28T10:47:52.999Z</time></trkpt><trkpt lat="44.78669726441525" lon="9.145415700949163"><ele>477.00000000000006</ele><time>2026-04-28T10:47:53.999Z</time></trkpt><trkpt lat="44.78663273059526" lon="9.145489823749209"><ele>476.0</ele><time>2026-04-28T10:47:54.999Z</time></trkpt><trkpt lat="44.78656311378391" lon="9.145565309828797"><ele>475.0</ele><time>2026-04-28T10:47:55.999Z</time></trkpt><trkpt lat="44.7864867313539" lon="9.145637047354363"><ele>474.0</ele><time>2026-04-28T10:47:56.999Z</time></trkpt><trkpt lat="44.78642367824584" lon="9.145718993210018"><ele>473.00000000000006</ele><time>2026-04-28T10:47:57.999Z</time></trkpt><trkpt lat="44.786350753905715" lon="9.14579446745418"><ele>472.0</ele><time>2026-04-28T10:47:58.999Z</time></trkpt><trkpt lat="44.786260857647335" lon="9.145865142362357"><ele>472.0</ele><time>2026-04-28T10:47:59.998Z</time></trkpt><trkpt lat="44.7861903874862" lon="9.145952440175318"><ele>472.0</ele><time>2026-04-28T10:48:01Z</time></trkpt><trkpt lat="44.786121391150225" lon="9.146076098228784"><ele>472.0</ele><time>2026-04-28T10:48:02Z</time></trkpt><trkpt lat="44.78608404509353" lon="9.146241501197867"><ele>472.0</ele><time>2026-04-28T10:48:03Z</time></trkpt><trkpt lat="44.78603899120021" lon="9.146401973769995"><ele>471.8</ele><time>2026-04-28T10:48:04Z</time></trkpt><trkpt lat="44.78599457635508" lon="9.146538643302792"><ele>471.6</ele><time>2026-04-28T10:48:05Z</time></trkpt><trkpt lat="44.78594733034848" lon="9.146654964649642"><ele>471.40000000000003</ele><time>2026-04-28T10:48:06Z</time></trkpt><trkpt lat="44.785869545890435" lon="9.146716780369553"><ele>471.20000000000005</ele><time>2026-04-28T10:48:07Z</time></trkpt><trkpt lat="44.785802980665" lon="9.146796763293445"><ele>471.0</ele><time>2026-04-28T10:48:09Z</time></trkpt><trkpt lat="44.78586714097943" lon="9.146991248491391"><ele>471.0</ele><time>2026-04-28T10:48:11Z</time></trkpt><trkpt lat="44.78591492490046" lon="9.147070149275693"><ele>471.0</ele><time>2026-04-28T10:48:12Z</time></trkpt><trkpt lat="44.78597541491674" lon="9.147174007598435"><ele>471.0</ele><time>2026-04-28T10:48:13Z</time></trkpt><trkpt lat="44.786026473976925" lon="9.147296127820658"><ele>471.0</ele><time>2026-04-28T10:48:14Z</time></trkpt><trkpt lat="44.78609774121305" lon="9.147448330869286"><ele>471.0</ele><time>2026-04-28T10:48:15Z</time></trkpt><trkpt lat="44.7861799161134" lon="9.147614677115905"><ele>474.75</ele><time>2026-04-28T10:48:16Z</time></trkpt><trkpt lat="44.78625063354311" lon="9.147781556220238"><ele>478.5</ele><time>2026-04-28T10:48:17Z</time></trkpt><trkpt lat="44.78633298079455" lon="9.147909857545688"><ele>482.25</ele><time>2026-04-28T10:48:18Z</time></trkpt><trkpt lat="44.786430406983165" lon="9.14800721649649"><ele>486.0</ele><time>2026-04-28T10:48:19Z</time></trkpt><trkpt lat="44.786536287398825" lon="9.148080390285083"><ele>486.0</ele><time>2026-04-28T10:48:20Z</time></trkpt><trkpt lat="44.786646429016095" lon="9.148137219842704"><ele>486.0</ele><time>2026-04-28T10:48:21Z</time></trkpt><trkpt lat="44.786764029370836" lon="9.148196942744892"><ele>486.0</ele><time>2026-04-28T10:48:22Z</time></trkpt><trkpt lat="44.786894677637534" lon="9.148263483840179"><ele>486.0</ele><time>2026-04-28T10:48:23Z</time></trkpt><trkpt lat="44.78704783218724" lon="9.148347127021397"><ele>487.0</ele><time>2026-04-28T10:48:24Z</time></trkpt><trkpt lat="44.78722685247895" lon="9.148444609595906"><ele>488.0</ele><time>2026-04-28T10:48:25Z</time></trkpt><trkpt lat="44.78742610622072" lon="9.14854336495331"><ele>489.0</ele><time>2026-04-28T10:48:26Z</time></trkpt><trkpt lat="44.78763175991141" lon="9.14865242028155"><ele>489.66666666666663</ele><time>2026-04-28T10:48:27Z</time></trkpt><trkpt lat="44.78779888685375" lon="9.14875631335679"><ele>490.3333333333333</ele><time>2026-04-28T10:48:28Z</time></trkpt><trkpt lat="44.78795043611956" lon="9.148850910300006"><ele>491.0</ele><time>2026-04-28T10:48:29Z</time></trkpt><trkpt lat="44.78809353242528" lon="9.148969180505823"><ele>491.3333333333333</ele><time>2026-04-28T10:48:30Z</time></trkpt><trkpt lat="44.788232886487734" lon="9.14912330925365"><ele>491.66666666666663</ele><time>2026-04-28T10:48:31Z</time></trkpt><trkpt lat="44.78837530020696" lon="9.149326280600967"><ele>492.0</ele><time>2026-04-28T10:48:32Z</time></trkpt><trkpt lat="44.788530617281914" lon="9.14956631992095"><ele>499.0</ele><time>2026-04-28T10:48:33Z</time></trkpt><trkpt lat="44.78868364010095" lon="9.149803496163008"><ele>506.0</ele><time>2026-04-28T10:48:34Z</time></trkpt><trkpt lat="44.78884360907305" lon="9.150054533080118"><ele>506.0</ele><time>2026-04-28T10:48:35Z</time></trkpt><trkpt lat="44.78898431540791" lon="9.150285451242345"><ele>506.0</ele><time>2026-04-28T10:48:36Z</time></trkpt><trkpt lat="44.789105281029386" lon="9.15049788799769"><ele>506.0</ele><time>2026-04-28T10:48:37Z</time></trkpt><trkpt lat="44.789221024066364" lon="9.150757877109472"><ele>514.0</ele><time>2026-04-28T10:48:38Z</time></trkpt><trkpt lat="44.789348253178" lon="9.151053729973771"><ele>522.0</ele><time>2026-04-28T10:48:39Z</time></trkpt><trkpt lat="44.78944272786214" lon="9.15133172382572"><ele>522.0</ele><time>2026-04-28T10:48:40Z</time></trkpt><trkpt lat="44.78952090108225" lon="9.151562044769825"><ele>522.0</ele><time>2026-04-28T10:48:41Z</time></trkpt><trkpt lat="44.789600907573245" lon="9.151776965753696"><ele>522.0</ele><time>2026-04-28T10:48:42Z</time></trkpt><trkpt lat="44.789691615574625" lon="9.151954546494169"><ele>522.0</ele><time>2026-04-28T10:48:43Z</time></trkpt><trkpt lat="44.78979971983228" lon="9.15209325848377"><ele>522.0</ele><time>2026-04-28T10:48:44Z</time></trkpt><trkpt lat="44.7899073152202" lon="9.152192503682317"><ele>522.0</ele><time>2026-04-28T10:48:45Z</time></trkpt><trkpt lat="44.79002131032638" lon="9.15225491547838"><ele>522.0</ele><time>2026-04-28T10:48:46Z</time></trkpt><trkpt lat="44.790149560101874" lon="9.15226458104817"><ele>525.0</ele><time>2026-04-28T10:48:47Z</time></trkpt><trkpt lat="44.790288245007815" lon="9.152230146739047"><ele>528.0</ele><time>2026-04-28T10:48:48Z</time></trkpt><trkpt lat="44.79042033305387" lon="9.152207151503976"><ele>531.0</ele><time>2026-04-28T10:48:49Z</time></trkpt><trkpt lat="44.79052981727236" lon="9.152209032348077"><ele>534.0</ele><time>2026-04-28T10:48:50Z</time></trkpt><trkpt lat="44.790615010715975" lon="9.152250049846451"><ele>534.0</ele><time>2026-04-28T10:48:51Z</time></trkpt><trkpt lat="44.7906617797355" lon="9.152325559751944"><ele>534.0</ele><time>2026-04-28T10:48:52Z</time></trkpt><trkpt lat="44.790683730111574" lon="9.152469042535058"><ele>534.0</ele><time>2026-04-28T10:48:52.999Z</time></trkpt><trkpt lat="44.79072033321695" lon="9.152654723402554"><ele>534.0</ele><time>2026-04-28T10:48:53.999Z</time></trkpt><trkpt lat="44.79077256182581" lon="9.152869492963443"><ele>529.6666666666666</ele><time>2026-04-28T10:48:54.999Z</time></trkpt><trkpt lat="44.79078305901837" lon="9.153143708786363"><ele>525.3333333333333</ele><time>2026-04-28T10:48:55.999Z</time></trkpt><trkpt lat="44.79075856068889" lon="9.153416338441891"><ele>521.0</ele><time>2026-04-28T10:48:56.999Z</time></trkpt><trkpt lat="44.790717210372186" lon="9.153681323632458"><ele>521.0</ele><time>2026-04-28T10:48:57.999Z</time></trkpt><trkpt lat="44.79066804316924" lon="9.153949265148112"><ele>521.0</ele><time>2026-04-28T10:48:58.999Z</time></trkpt><trkpt lat="44.790651125861714" lon="9.154219268816856"><ele>521.0</ele><time>2026-04-28T10:48:59.999Z</time></trkpt><trkpt lat="44.79064424757097" lon="9.154450698197"><ele>522.75</ele><time>2026-04-28T10:49:00.999Z</time></trkpt><trkpt lat="44.79065799115616" lon="9.154655456305793"><ele>524.5</ele><time>2026-04-28T10:49:01.999Z</time></trkpt><trkpt lat="44.790695537701104" lon="9.154843569979317"><ele>526.25</ele><time>2026-04-28T10:49:02.999Z</time></trkpt><trkpt lat="44.79075592875976" lon="9.155028537626041"><ele>528.0</ele><time>2026-04-28T10:49:03.999Z</time></trkpt><trkpt lat="44.79083582854249" lon="9.155197521330978"><ele>528.5</ele><time>2026-04-28T10:49:04.999Z</time></trkpt><trkpt lat="44.79094092001837" lon="9.155335622906767"><ele>529.0</ele><time>2026-04-28T10:49:05.999Z</time></trkpt><trkpt lat="44.79105354569725" lon="9.155475027287231"><ele>529.5</ele><time>2026-04-28T10:49:06.999Z</time></trkpt><trkpt lat="44.79116069846719" lon="9.155617488693595"><ele>530.0</ele><time>2026-04-28T10:49:07.999Z</time></trkpt><trkpt lat="44.791266220713936" lon="9.155755944177344"><ele>534.75</ele><time>2026-04-28T10:49:08.999Z</time></trkpt><trkpt lat="44.79137261700046" lon="9.155896325982921"><ele>539.5</ele><time>2026-04-28T10:49:09.999Z</time></trkpt><trkpt lat="44.79147755981409" lon="9.156028815190943"><ele>544.25</ele><time>2026-04-28T10:49:10.999Z</time></trkpt><trkpt lat="44.791594939662005" lon="9.156145977248274"><ele>549.0</ele><time>2026-04-28T10:49:11.999Z</time></trkpt><trkpt lat="44.79171600078717" lon="9.15624920076078"><ele>549.0</ele><time>2026-04-28T10:49:12.999Z</time></trkpt><trkpt lat="44.79181186520308" lon="9.156366314006549"><ele>549.0</ele><time>2026-04-28T10:49:13.999Z</time></trkpt><trkpt lat="44.79189374885851" lon="9.156482693490537"><ele>549.0</ele><time>2026-04-28T10:49:14.999Z</time></trkpt><trkpt lat="44.79192071244119" lon="9.156661277838152"><ele>549.0</ele><time>2026-04-28T10:49:15.999Z</time></trkpt><trkpt lat="44.7919494505339" lon="9.156839461182251"><ele>550.5</ele><time>2026-04-28T10:49:16.999Z</time></trkpt><trkpt lat="44.79199255973758" lon="9.157018792954654"><ele>552.0</ele><time>2026-04-28T10:49:17.999Z</time></trkpt><trkpt lat="44.792040051274526" lon="9.157191354600723"><ele>553.5</ele><time>2026-04-28T10:49:18.999Z</time></trkpt><trkpt lat="44.7921166962213" lon="9.157342487488132"><ele>555.0</ele><time>2026-04-28T10:49:19.999Z</time></trkpt><trkpt lat="44.79222096444378" lon="9.157449685485167"><ele>555.0</ele><time>2026-04-28T10:49:20.999Z</time></trkpt><trkpt lat="44.79232699872192" lon="9.157525792893304"><ele>555.0</ele><time>2026-04-28T10:49:21.999Z</time></trkpt><trkpt lat="44.792431265169284" lon="9.15758796889582"><ele>555.0</ele><time>2026-04-28T10:49:22.999Z</time></trkpt><trkpt lat="44.792541663109965" lon="9.15766372798931"><ele>555.0</ele><time>2026-04-28T10:49:23.999Z</time></trkpt><trkpt lat="44.79263715716094" lon="9.157751852291872"><ele>556.25</ele><time>2026-04-28T10:49:24.999Z</time></trkpt><trkpt lat="44.79271198929945" lon="9.157872130303673"><ele>557.5</ele><time>2026-04-28T10:49:25.999Z</time></trkpt><trkpt lat="44.7927511520188" lon="9.158042733831047"><ele>558.75</ele><time>2026-04-28T10:49:26.999Z</time></trkpt><trkpt lat="44.792788714645454" lon="9.158222273888539"><ele>560.0</ele><time>2026-04-28T10:49:27.999Z</time></trkpt><trkpt lat="44.79282609108561" lon="9.158407889805742"><ele>560.0</ele><time>2026-04-28T10:49:28.999Z</time></trkpt><trkpt lat="44.7928755249812" lon="9.158612922380353"><ele>560.0</ele><time>2026-04-28T10:49:29.999Z</time></trkpt><trkpt lat="44.79292014064965" lon="9.158822678062332"><ele>560.0</ele><time>2026-04-28T10:49:30.999Z</time></trkpt><trkpt lat="44.792950368642" lon="9.15902254285981"><ele>554.3333333333333</ele><time>2026-04-28T10:49:31.999Z</time></trkpt><trkpt lat="44.79299547843981" lon="9.159236182120512"><ele>548.6666666666666</ele><time>2026-04-28T10:49:32.999Z</time></trkpt><trkpt lat="44.79303734128729" lon="9.159439726575073"><ele>543.0</ele><time>2026-04-28T10:49:33.999Z</time></trkpt><trkpt lat="44.79308047605878" lon="9.159654707807757"><ele>543.0</ele><time>2026-04-28T10:49:34.999Z</time></trkpt><trkpt lat="44.79313319365449" lon="9.159865532478932"><ele>543.0</ele><time>2026-04-28T10:49:35.999Z</time></trkpt><trkpt lat="44.79313985588539" lon="9.160087350414685"><ele>543.0</ele><time>2026-04-28T10:49:36.999Z</time></trkpt><trkpt lat="44.79314981541689" lon="9.160307140247255"><ele>545.0</ele><time>2026-04-28T10:49:37.999Z</time></trkpt><trkpt lat="44.7931664941621" lon="9.160534488599117"><ele>547.0</ele><time>2026-04-28T10:49:38.999Z</time></trkpt><trkpt lat="44.793163176185935" lon="9.160752098967869"><ele>549.0</ele><time>2026-04-28T10:49:39.999Z</time></trkpt><trkpt lat="44.79316654826224" lon="9.160975580110415"><ele>552.3333333333334</ele><time>2026-04-28T10:49:40.999Z</time></trkpt><trkpt lat="44.793152962147346" lon="9.161209009812811"><ele>555.6666666666667</ele><time>2026-04-28T10:49:41.999Z</time></trkpt><trkpt lat="44.793153757873945" lon="9.16144111612318"><ele>559.0</ele><time>2026-04-28T10:49:42.999Z</time></trkpt><trkpt lat="44.793168784081075" lon="9.161683303526486"><ele>559.3333333333334</ele><time>2026-04-28T10:49:43.999Z</time></trkpt><trkpt lat="44.7931637390891" lon="9.161950651019934"><ele>559.6666666666666</ele><time>2026-04-28T10:49:44.999Z</time></trkpt><trkpt lat="44.7931694057341" lon="9.162247273764894"><ele>560.0</ele><time>2026-04-28T10:49:45.999Z</time></trkpt><trkpt lat="44.793169603271245" lon="9.162575486827517"><ele>561.6666666666666</ele><time>2026-04-28T10:49:46.999Z</time></trkpt><trkpt lat="44.793168051619084" lon="9.162900238581742"><ele>563.3333333333334</ele><time>2026-04-28T10:49:47.999Z</time></trkpt><trkpt lat="44.793166492517464" lon="9.163190671429676"><ele>565.0</ele><time>2026-04-28T10:49:48.999Z</time></trkpt><trkpt lat="44.79316484869976" lon="9.163458041504347"><ele>566.0</ele><time>2026-04-28T10:49:49.999Z</time></trkpt><trkpt lat="44.79315154203561" lon="9.163703145138847"><ele>567.0</ele><time>2026-04-28T10:49:50.999Z</time></trkpt><trkpt lat="44.79315095880483" lon="9.163949561597123"><ele>568.0</ele><time>2026-04-28T10:49:51.999Z</time></trkpt><trkpt lat="44.79315037830322" lon="9.164194835647507"><ele>569.0</ele><time>2026-04-28T10:49:52.999Z</time></trkpt><trkpt lat="44.79314950901625" lon="9.164436722192466"><ele>570.0</ele><time>2026-04-28T10:49:53.999Z</time></trkpt><trkpt lat="44.79314861117337" lon="9.164678879249943"><ele>571.0</ele><time>2026-04-28T10:49:54.999Z</time></trkpt><trkpt lat="44.793147753324504" lon="9.164918220604282"><ele>572.6666666666667</ele><time>2026-04-28T10:49:55.999Z</time></trkpt><trkpt lat="44.79315327040644" lon="9.165158010498493"><ele>574.3333333333334</ele><time>2026-04-28T10:49:56.999Z</time></trkpt><trkpt lat="44.793165454149296" lon="9.165394661321464"><ele>576.0</ele><time>2026-04-28T10:49:57.999Z</time></trkpt><trkpt lat="44.79318710180821" lon="9.16562966623126"><ele>576.6666666666666</ele><time>2026-04-28T10:49:58.999Z</time></trkpt><trkpt lat="44.793219470686246" lon="9.165873162984958"><ele>577.3333333333333</ele><time>2026-04-28T10:49:59.999Z</time></trkpt><trkpt lat="44.79326412224992" lon="9.166132235226167"><ele>578.0</ele><time>2026-04-28T10:50:00.999Z</time></trkpt><trkpt lat="44.79334293615778" lon="9.166409076200575"><ele>578.0</ele><time>2026-04-28T10:50:01.999Z</time></trkpt><trkpt lat="44.79341709176816" lon="9.166694642856065"><ele>578.0</ele><time>2026-04-28T10:50:02.999Z</time></trkpt><trkpt lat="44.793497816903226" lon="9.16698702908113"><ele>578.0</ele><time>2026-04-28T10:50:03.999Z</time></trkpt><trkpt lat="44.79357806984924" lon="9.167232217454064"><ele>579.3333333333333</ele><time>2026-04-28T10:50:04.999Z</time></trkpt><trkpt lat="44.79364601359171" lon="9.167469456374905"><ele>580.6666666666666</ele><time>2026-04-28T10:50:05.999Z</time></trkpt><trkpt lat="44.79370932794916" lon="9.167703887549536"><ele>582.0</ele><time>2026-04-28T10:50:07Z</time></trkpt><trkpt lat="44.79377663562263" lon="9.167924441561542"><ele>582.0</ele><time>2026-04-28T10:50:08Z</time></trkpt><trkpt lat="44.7938286355591" lon="9.168145895782576"><ele>582.0</ele><time>2026-04-28T10:50:09Z</time></trkpt><trkpt lat="44.7939168047573" lon="9.168330185356258"><ele>582.0</ele><time>2026-04-28T10:50:10Z</time></trkpt><trkpt lat="44.79399651036517" lon="9.16851719876803"><ele>581.0</ele><time>2026-04-28T10:50:11Z</time></trkpt><trkpt lat="44.79410476013744" lon="9.168670363858785"><ele>580.0</ele><time>2026-04-28T10:50:12Z</time></trkpt><trkpt lat="44.794220646192855" lon="9.16879795657445"><ele>579.0</ele><time>2026-04-28T10:50:13Z</time></trkpt><trkpt lat="44.7943435972292" lon="9.16890606298175"><ele>578.0</ele><time>2026-04-28T10:50:14Z</time></trkpt><trkpt lat="44.794462666696965" lon="9.169011987457452"><ele>575.0</ele><time>2026-04-28T10:50:15Z</time></trkpt><trkpt lat="44.79459174230427" lon="9.169109608044232"><ele>572.0</ele><time>2026-04-28T10:50:16Z</time></trkpt><trkpt lat="44.7947222682821" lon="9.169219262743757"><ele>569.0</ele><time>2026-04-28T10:50:17Z</time></trkpt><trkpt lat="44.79485346334055" lon="9.169335499478398"><ele>569.0</ele><time>2026-04-28T10:50:18Z</time></trkpt><trkpt lat="44.79499363355017" lon="9.169450806010145"><ele>569.0</ele><time>2026-04-28T10:50:19Z</time></trkpt><trkpt lat="44.79513328058845" lon="9.169566253358127"><ele>569.0</ele><time>2026-04-28T10:50:20Z</time></trkpt><trkpt lat="44.79527796721037" lon="9.16969144446984"><ele>570.6666666666666</ele><time>2026-04-28T10:50:21Z</time></trkpt><trkpt lat="44.795426642064754" lon="9.169819615329484"><ele>572.3333333333334</ele><time>2026-04-28T10:50:22Z</time></trkpt><trkpt lat="44.795584278247986" lon="9.169947380098964"><ele>574.0</ele><time>2026-04-28T10:50:23Z</time></trkpt><trkpt lat="44.79573804514161" lon="9.170073731138114"><ele>571.6666666666667</ele><time>2026-04-28T10:50:24Z</time></trkpt><trkpt lat="44.795887016848376" lon="9.170196297972673"><ele>569.3333333333334</ele><time>2026-04-28T10:50:25Z</time></trkpt><trkpt lat="44.79603180030168" lon="9.170319779674653"><ele>567.0</ele><time>2026-04-28T10:50:26Z</time></trkpt><trkpt lat="44.796173399632046" lon="9.1704424326128"><ele>567.0</ele><time>2026-04-28T10:50:27Z</time></trkpt><trkpt lat="44.7963171817014" lon="9.170565946693237"><ele>567.0</ele><time>2026-04-28T10:50:28Z</time></trkpt><trkpt lat="44.79645455873122" lon="9.170691684000575"><ele>567.0</ele><time>2026-04-28T10:50:29Z</time></trkpt><trkpt lat="44.79657686642669" lon="9.170833498627818"><ele>565.6666666666666</ele><time>2026-04-28T10:50:30Z</time></trkpt><trkpt lat="44.79668393829187" lon="9.171016337959493"><ele>564.3333333333333</ele><time>2026-04-28T10:50:31Z</time></trkpt><trkpt lat="44.79677385707769" lon="9.171215995452583"><ele>563.0</ele><time>2026-04-28T10:50:32Z</time></trkpt><trkpt lat="44.79687811910922" lon="9.171418604445604"><ele>559.3333333333333</ele><time>2026-04-28T10:50:33Z</time></trkpt><trkpt lat="44.79697478915976" lon="9.171614064778725"><ele>555.6666666666666</ele><time>2026-04-28T10:50:34Z</time></trkpt><trkpt lat="44.79707029082677" lon="9.171796327692384"><ele>552.0</ele><time>2026-04-28T10:50:35Z</time></trkpt><trkpt lat="44.79716547183622" lon="9.171979271551603"><ele>552.0</ele><time>2026-04-28T10:50:36Z</time></trkpt><trkpt lat="44.79724935109074" lon="9.17215620480826"><ele>552.0</ele><time>2026-04-28T10:50:37Z</time></trkpt><trkpt lat="44.79732823305718" lon="9.17233499701254"><ele>552.0</ele><time>2026-04-28T10:50:38Z</time></trkpt><trkpt lat="44.79741417513105" lon="9.172506788847128"><ele>552.6666666666666</ele><time>2026-04-28T10:50:39Z</time></trkpt><trkpt lat="44.797508216301054" lon="9.172680493372376"><ele>553.3333333333333</ele><time>2026-04-28T10:50:40Z</time></trkpt><trkpt lat="44.79760534820646" lon="9.172841845987882"><ele>554.0</ele><time>2026-04-28T10:50:41Z</time></trkpt><trkpt lat="44.79772253713608" lon="9.1729960903657"><ele>554.0</ele><time>2026-04-28T10:50:42Z</time></trkpt><trkpt lat="44.79786941068626" lon="9.173149700798485"><ele>554.0</ele><time>2026-04-28T10:50:43Z</time></trkpt><trkpt lat="44.798029088230926" lon="9.173310215487806"><ele>554.0</ele><time>2026-04-28T10:50:44Z</time></trkpt><trkpt lat="44.798180208286254" lon="9.173452813383689"><ele>551.0</ele><time>2026-04-28T10:50:45Z</time></trkpt><trkpt lat="44.79832603599302" lon="9.173585288461028"><ele>548.0</ele><time>2026-04-28T10:50:46Z</time></trkpt><trkpt lat="44.798463833688004" lon="9.173723742297728"><ele>545.0</ele><time>2026-04-28T10:50:47Z</time></trkpt><trkpt lat="44.79857994843937" lon="9.17383335487329"><ele>545.0</ele><time>2026-04-28T10:50:48Z</time></trkpt><trkpt lat="44.79868380835244" lon="9.173937567346844"><ele>545.0</ele><time>2026-04-28T10:50:49Z</time></trkpt><trkpt lat="44.79875941141375" lon="9.174042434003242"><ele>545.0</ele><time>2026-04-28T10:50:50Z</time></trkpt><trkpt lat="44.79878627749224" lon="9.174178680449666"><ele>545.0</ele><time>2026-04-28T10:50:51Z</time></trkpt><trkpt lat="44.798795952823184" lon="9.174325220915073"><ele>545.0</ele><time>2026-04-28T10:50:52Z</time></trkpt><trkpt lat="44.79876876693336" lon="9.174472205271014"><ele>543.75</ele><time>2026-04-28T10:50:53Z</time></trkpt><trkpt lat="44.79872203696414" lon="9.174659435884156"><ele>542.5</ele><time>2026-04-28T10:50:54Z</time></trkpt><trkpt lat="44.798656616475924" lon="9.174858102015973"><ele>541.25</ele><time>2026-04-28T10:50:55Z</time></trkpt><trkpt lat="44.798574606312364" lon="9.175022340169846"><ele>540.0</ele><time>2026-04-28T10:50:56Z</time></trkpt><trkpt lat="44.798492345994134" lon="9.175184714665868"><ele>536.75</ele><time>2026-04-28T10:50:57Z</time></trkpt><trkpt lat="44.79838940812042" lon="9.175316816464482"><ele>533.5</ele><time>2026-04-28T10:50:57.999Z</time></trkpt><trkpt lat="44.798297485687705" lon="9.175445517559107"><ele>530.25</ele><time>2026-04-28T10:50:58.999Z</time></trkpt><trkpt lat="44.79818463098479" lon="9.175560859462314"><ele>527.0</ele><time>2026-04-28T10:50:59.999Z</time></trkpt><trkpt lat="44.79806257030397" lon="9.175654512927258"><ele>527.0</ele><time>2026-04-28T10:51:00.999Z</time></trkpt><trkpt lat="44.79795812591831" lon="9.175773484220642"><ele>527.0</ele><time>2026-04-28T10:51:01.999Z</time></trkpt><trkpt lat="44.79785621314335" lon="9.175890338479302"><ele>527.0</ele><time>2026-04-28T10:51:02.999Z</time></trkpt><trkpt lat="44.797754920351444" lon="9.176011681041901"><ele>527.0</ele><time>2026-04-28T10:51:03.999Z</time></trkpt><trkpt lat="44.797652704251554" lon="9.1761435578429"><ele>524.0</ele><time>2026-04-28T10:51:04.999Z</time></trkpt><trkpt lat="44.79756104204595" lon="9.17629855121206"><ele>521.0</ele><time>2026-04-28T10:51:05.999Z</time></trkpt><trkpt lat="44.79747396350743" lon="9.176442499689065"><ele>518.0</ele><time>2026-04-28T10:51:06.999Z</time></trkpt><trkpt lat="44.79741713473159" lon="9.176600864738772"><ele>515.0</ele><time>2026-04-28T10:51:07.999Z</time></trkpt><trkpt lat="44.797395159331764" lon="9.176782195022762"><ele>514.0</ele><time>2026-04-28T10:51:08.999Z</time></trkpt><trkpt lat="44.79740216926297" lon="9.176976815548912"><ele>513.0</ele><time>2026-04-28T10:51:09.999Z</time></trkpt><trkpt lat="44.797399085310396" lon="9.17718636216919"><ele>512.0</ele><time>2026-04-28T10:51:10.999Z</time></trkpt><trkpt lat="44.79741102773567" lon="9.177406259757722"><ele>511.0</ele><time>2026-04-28T10:51:11.999Z</time></trkpt><trkpt lat="44.7974194924348" lon="9.177631447540447"><ele>510.25</ele><time>2026-04-28T10:51:12.999Z</time></trkpt><trkpt lat="44.79742641056334" lon="9.17784956789998"><ele>509.5</ele><time>2026-04-28T10:51:13.999Z</time></trkpt><trkpt lat="44.79743290517869" lon="9.17805433537813"><ele>508.75</ele><time>2026-04-28T10:51:14.999Z</time></trkpt><trkpt lat="44.79743822509183" lon="9.178259560405692"><ele>508.0</ele><time>2026-04-28T10:51:15.999Z</time></trkpt><trkpt lat="44.79744257765163" lon="9.178429512951004"><ele>507.25</ele><time>2026-04-28T10:51:16.999Z</time></trkpt><trkpt lat="44.79745613094086" lon="9.17859667584268"><ele>506.5</ele><time>2026-04-28T10:51:17.999Z</time></trkpt><trkpt lat="44.797529750679246" lon="9.178748554331419"><ele>505.75</ele><time>2026-04-28T10:51:18.999Z</time></trkpt><trkpt lat="44.79761176068814" lon="9.178886974540571"><ele>505.0</ele><time>2026-04-28T10:51:19.999Z</time></trkpt><trkpt lat="44.79769782471551" lon="9.179020953532763"><ele>502.5</ele><time>2026-04-28T10:51:20.999Z</time></trkpt><trkpt lat="44.7977937360724" lon="9.179150258055172"><ele>500.0</ele><time>2026-04-28T10:51:21.999Z</time></trkpt><trkpt lat="44.79788420928984" lon="9.179260624218918"><ele>497.5</ele><time>2026-04-28T10:51:22.999Z</time></trkpt><trkpt lat="44.7979857137918" lon="9.179332416301202"><ele>495.0</ele><time>2026-04-28T10:51:23.999Z</time></trkpt><trkpt lat="44.798084350717694" lon="9.17937577752641"><ele>495.0</ele><time>2026-04-28T10:51:24.999Z</time></trkpt><trkpt lat="44.798196510386006" lon="9.179386259624385"><ele>495.0</ele><time>2026-04-28T10:51:25.999Z</time></trkpt><trkpt lat="44.79831447908652" lon="9.179376137762542"><ele>495.0</ele><time>2026-04-28T10:51:26.999Z</time></trkpt><trkpt lat="44.79842245000137" lon="9.179344283992021"><ele>495.0</ele><time>2026-04-28T10:51:27.999Z</time></trkpt><trkpt lat="44.79851702594405" lon="9.179258545243481"><ele>496.5</ele><time>2026-04-28T10:51:28.999Z</time></trkpt><trkpt lat="44.798588254025546" lon="9.179170120397027"><ele>498.0</ele><time>2026-04-28T10:51:29.999Z</time></trkpt><trkpt lat="44.7986589800754" lon="9.179116508578526"><ele>499.5</ele><time>2026-04-28T10:51:30.999Z</time></trkpt><trkpt lat="44.798722017075406" lon="9.179179062775182"><ele>501.0</ele><time>2026-04-28T10:51:31.999Z</time></trkpt><trkpt lat="44.79877854014495" lon="9.179234064275619"><ele>502.5</ele><time>2026-04-28T10:51:32.999Z</time></trkpt><trkpt lat="44.798836159747395" lon="9.179285418555892"><ele>504.0</ele><time>2026-04-28T10:51:33.999Z</time></trkpt><trkpt lat="44.79888390852448" lon="9.179393888852431"><ele>504.0</ele><time>2026-04-28T10:51:34.999Z</time></trkpt><trkpt lat="44.7988675568553" lon="9.179510335821162"><ele>504.0</ele><time>2026-04-28T10:51:35.999Z</time></trkpt><trkpt lat="44.79883369719646" lon="9.179630638758551"><ele>504.0</ele><time>2026-04-28T10:51:36.999Z</time></trkpt><trkpt lat="44.79879413862227" lon="9.179778445452765"><ele>504.0</ele><time>2026-04-28T10:51:37.999Z</time></trkpt><trkpt lat="44.79876195193032" lon="9.179948742347129"><ele>504.0</ele><time>2026-04-28T10:51:38.999Z</time></trkpt><trkpt lat="44.79870938621492" lon="9.180104071765482"><ele>503.0</ele><time>2026-04-28T10:51:39.999Z</time></trkpt><trkpt lat="44.79866617596865" lon="9.180253398851901"><ele>502.0</ele><time>2026-04-28T10:51:40.999Z</time></trkpt><trkpt lat="44.79863215233607" lon="9.180397755954706"><ele>501.0</ele><time>2026-04-28T10:51:41.999Z</time></trkpt><trkpt lat="44.7986227229918" lon="9.180528968815574"><ele>500.0</ele><time>2026-04-28T10:51:42.999Z</time></trkpt><trkpt lat="44.798638687348166" lon="9.180656839609235"><ele>499.0</ele><time>2026-04-28T10:51:43.999Z</time></trkpt><trkpt lat="44.79868441280588" lon="9.180783777457211"><ele>495.75</ele><time>2026-04-28T10:51:44.999Z</time></trkpt><trkpt lat="44.798751991637296" lon="9.180914018545169"><ele>492.5</ele><time>2026-04-28T10:51:45.999Z</time></trkpt><trkpt lat="44.79882480908884" lon="9.181047364900053"><ele>489.25</ele><time>2026-04-28T10:51:46.999Z</time></trkpt><trkpt lat="44.79890620165259" lon="9.181187385001357"><ele>486.0</ele><time>2026-04-28T10:51:47.999Z</time></trkpt><trkpt lat="44.79899203354806" lon="9.181340489921201"><ele>486.0</ele><time>2026-04-28T10:51:48.999Z</time></trkpt><trkpt lat="44.799085218297336" lon="9.181510303235667"><ele>486.0</ele><time>2026-04-28T10:51:49.999Z</time></trkpt><trkpt lat="44.79919691643225" lon="9.18166802044285"><ele>486.0</ele><time>2026-04-28T10:51:50.999Z</time></trkpt><trkpt lat="44.799308658926954" lon="9.181823367713228"><ele>487.33333333333337</ele><time>2026-04-28T10:51:51.999Z</time></trkpt><trkpt lat="44.799430452640074" lon="9.181993745498266"><ele>488.6666666666667</ele><time>2026-04-28T10:51:52.999Z</time></trkpt><trkpt lat="44.79956549615269" lon="9.182155492142684"><ele>490.0</ele><time>2026-04-28T10:51:53.999Z</time></trkpt><trkpt lat="44.79968808867828" lon="9.182333329862482"><ele>485.6666666666667</ele><time>2026-04-28T10:51:54.999Z</time></trkpt><trkpt lat="44.7998178784409" lon="9.182527697111539"><ele>481.33333333333337</ele><time>2026-04-28T10:51:55.999Z</time></trkpt><trkpt lat="44.79994360269142" lon="9.182723033061443"><ele>477.0</ele><time>2026-04-28T10:51:56.999Z</time></trkpt><trkpt lat="44.80007863689006" lon="9.18293073364165"><ele>478.0</ele><time>2026-04-28T10:51:57.999Z</time></trkpt><trkpt lat="44.80021448768649" lon="9.183127692928084"><ele>479.0</ele><time>2026-04-28T10:51:58.999Z</time></trkpt><trkpt lat="44.800316557487626" lon="9.183317887294239"><ele>480.0</ele><time>2026-04-28T10:51:59.999Z</time></trkpt><trkpt lat="44.8004091794204" lon="9.183484119086055"><ele>480.0</ele><time>2026-04-28T10:52:00.999Z</time></trkpt><trkpt lat="44.80047836048295" lon="9.183647230715666"><ele>480.0</ele><time>2026-04-28T10:52:01.999Z</time></trkpt><trkpt lat="44.800508537858725" lon="9.183820575835204"><ele>480.0</ele><time>2026-04-28T10:52:02.999Z</time></trkpt><trkpt lat="44.80050735737281" lon="9.18399437734809"><ele>480.0</ele><time>2026-04-28T10:52:03.999Z</time></trkpt><trkpt lat="44.80050340246401" lon="9.184183852508049"><ele>478.4</ele><time>2026-04-28T10:52:04.999Z</time></trkpt><trkpt lat="44.80050267238996" lon="9.184352764145604"><ele>476.8</ele><time>2026-04-28T10:52:05.999Z</time></trkpt><trkpt lat="44.8005402781609" lon="9.184504542476153"><ele>475.20000000000005</ele><time>2026-04-28T10:52:06.999Z</time></trkpt><trkpt lat="44.80058398013731" lon="9.184638948658304"><ele>473.6</ele><time>2026-04-28T10:52:07.999Z</time></trkpt><trkpt lat="44.800645844751685" lon="9.184751611118385"><ele>472.0</ele><time>2026-04-28T10:52:08.999Z</time></trkpt><trkpt lat="44.800727485757946" lon="9.184849471814445"><ele>470.5</ele><time>2026-04-28T10:52:09.999Z</time></trkpt><trkpt lat="44.800835085268666" lon="9.184918059850773"><ele>469.0</ele><time>2026-04-28T10:52:10.999Z</time></trkpt><trkpt lat="44.80096784895011" lon="9.184971371857232"><ele>467.5</ele><time>2026-04-28T10:52:11.999Z</time></trkpt><trkpt lat="44.80110096446564" lon="9.185010701334365"><ele>466.0</ele><time>2026-04-28T10:52:13Z</time></trkpt><trkpt lat="44.80122273216397" lon="9.185006277329947"><ele>465.75</ele><time>2026-04-28T10:52:14Z</time></trkpt><trkpt lat="44.801341156459124" lon="9.18496779092323"><ele>465.5</ele><time>2026-04-28T10:52:15Z</time></trkpt><trkpt lat="44.801455397809754" lon="9.184905353012232"><ele>465.25</ele><time>2026-04-28T10:52:16Z</time></trkpt><trkpt lat="44.80159074501208" lon="9.184851108021585"><ele>465.0</ele><time>2026-04-28T10:52:17Z</time></trkpt><trkpt lat="44.8017331019978" lon="9.184794749174184"><ele>470.75</ele><time>2026-04-28T10:52:18Z</time></trkpt><trkpt lat="44.80186186175198" lon="9.18475321564949"><ele>476.5</ele><time>2026-04-28T10:52:19Z</time></trkpt><trkpt lat="44.80197997215331" lon="9.184716197607289"><ele>482.25</ele><time>2026-04-28T10:52:20Z</time></trkpt><trkpt lat="44.80210371818421" lon="9.184698271909753"><ele>488.0</ele><time>2026-04-28T10:52:21Z</time></trkpt><trkpt lat="44.802228398573305" lon="9.184721782509783"><ele>488.0</ele><time>2026-04-28T10:52:22Z</time></trkpt><trkpt lat="44.80238034569152" lon="9.184798722287063"><ele>488.0</ele><time>2026-04-28T10:52:23Z</time></trkpt><trkpt lat="44.802503300743865" lon="9.184896230786629"><ele>488.0</ele><time>2026-04-28T10:52:24Z</time></trkpt><trkpt lat="44.80262187049133" lon="9.184941539692266"><ele>488.0</ele><time>2026-04-28T10:52:25Z</time></trkpt><trkpt lat="44.802758467799634" lon="9.184921979800672"><ele>489.0</ele><time>2026-04-28T10:52:26Z</time></trkpt><trkpt lat="44.802908308570174" lon="9.18484629209672"><ele>490.0</ele><time>2026-04-28T10:52:27Z</time></trkpt><trkpt lat="44.80307175782681" lon="9.184796902331987"><ele>491.0</ele><time>2026-04-28T10:52:28Z</time></trkpt><trkpt lat="44.80322489588346" lon="9.184800151117921"><ele>491.0</ele><time>2026-04-28T10:52:29Z</time></trkpt><trkpt lat="44.80336525609379" lon="9.18481284807343"><ele>491.0</ele><time>2026-04-28T10:52:30Z</time></trkpt><trkpt lat="44.80350829663518" lon="9.184899501543654"><ele>491.0</ele><time>2026-04-28T10:52:31Z</time></trkpt><trkpt lat="44.80367530821983" lon="9.185001225673604"><ele>482.3333333333333</ele><time>2026-04-28T10:52:32Z</time></trkpt><trkpt lat="44.80386443176999" lon="9.185063368194214"><ele>473.66666666666663</ele><time>2026-04-28T10:52:33Z</time></trkpt><trkpt lat="44.804026504534676" lon="9.185120804792591"><ele>465.0</ele><time>2026-04-28T10:52:34Z</time></trkpt><trkpt lat="44.804184329686755" lon="9.185161726740343"><ele>465.33333333333337</ele><time>2026-04-28T10:52:35Z</time></trkpt><trkpt lat="44.80437059804255" lon="9.185203488171286"><ele>465.6666666666667</ele><time>2026-04-28T10:52:36Z</time></trkpt><trkpt lat="44.804558580049886" lon="9.185256376688447"><ele>466.0</ele><time>2026-04-28T10:52:37Z</time></trkpt><trkpt lat="44.80471983592511" lon="9.185296489754933"><ele>466.0</ele><time>2026-04-28T10:52:38Z</time></trkpt><trkpt lat="44.804880518607476" lon="9.185323394388208"><ele>466.0</ele><time>2026-04-28T10:52:39Z</time></trkpt><trkpt lat="44.805027082058224" lon="9.185348380327564"><ele>466.0</ele><time>2026-04-28T10:52:40Z</time></trkpt><trkpt lat="44.805167820973324" lon="9.185317200648035"><ele>464.0</ele><time>2026-04-28T10:52:41Z</time></trkpt><trkpt lat="44.805299550255526" lon="9.185259836477162"><ele>462.0</ele><time>2026-04-28T10:52:42Z</time></trkpt><trkpt lat="44.80542470016892" lon="9.18517914525574"><ele>460.0</ele><time>2026-04-28T10:52:43Z</time></trkpt><trkpt lat="44.80554084110194" lon="9.185101947504357"><ele>458.0</ele><time>2026-04-28T10:52:44Z</time></trkpt><trkpt lat="44.805659151363194" lon="9.185033586611857"><ele>458.0</ele><time>2026-04-28T10:52:45Z</time></trkpt><trkpt lat="44.80578616561615" lon="9.18499280605938"><ele>458.0</ele><time>2026-04-28T10:52:46Z</time></trkpt><trkpt lat="44.80592411325406" lon="9.184990601159072"><ele>458.0</ele><time>2026-04-28T10:52:47Z</time></trkpt><trkpt lat="44.80605098775667" lon="9.185014361976993"><ele>458.0</ele><time>2026-04-28T10:52:48Z</time></trkpt><trkpt lat="44.806172414303965" lon="9.185041407859055"><ele>457.25</ele><time>2026-04-28T10:52:49Z</time></trkpt><trkpt lat="44.80628825525942" lon="9.185097351618948"><ele>456.5</ele><time>2026-04-28T10:52:50Z</time></trkpt><trkpt lat="44.806417426784975" lon="9.185180141833383"><ele>455.75</ele><time>2026-04-28T10:52:51Z</time></trkpt><trkpt lat="44.80653566935083" lon="9.185318295642524"><ele>455.0</ele><time>2026-04-28T10:52:52Z</time></trkpt><trkpt lat="44.80667860965728" lon="9.185463152477734"><ele>455.3333333333333</ele><time>2026-04-28T10:52:53Z</time></trkpt><trkpt lat="44.80685394160551" lon="9.185625552628467"><ele>455.66666666666663</ele><time>2026-04-28T10:52:54Z</time></trkpt><trkpt lat="44.80704036629746" lon="9.185803195890117"><ele>456.0</ele><time>2026-04-28T10:52:55Z</time></trkpt><trkpt lat="44.80720221080381" lon="9.185959072979767"><ele>456.0</ele><time>2026-04-28T10:52:56Z</time></trkpt><trkpt lat="44.807363535928594" lon="9.186086683782376"><ele>456.0</ele><time>2026-04-28T10:52:57Z</time></trkpt><trkpt lat="44.807510104390815" lon="9.186226951744546"><ele>456.0</ele><time>2026-04-28T10:52:58Z</time></trkpt><trkpt lat="44.80766114161986" lon="9.186369290642398"><ele>456.0</ele><time>2026-04-28T10:52:59Z</time></trkpt><trkpt lat="44.807800357988924" lon="9.186502162942604"><ele>456.0</ele><time>2026-04-28T10:53:00Z</time></trkpt><trkpt lat="44.80792963810854" lon="9.186651350221823"><ele>456.0</ele><time>2026-04-28T10:53:01Z</time></trkpt><trkpt lat="44.80807482809207" lon="9.186749666604182"><ele>454.25</ele><time>2026-04-28T10:53:02Z</time></trkpt><trkpt lat="44.808205774366606" lon="9.186861109217583"><ele>452.5</ele><time>2026-04-28T10:53:03Z</time></trkpt><trkpt lat="44.808324398581235" lon="9.186969365218978"><ele>450.75</ele><time>2026-04-28T10:53:04Z</time></trkpt><trkpt lat="44.80845306611109" lon="9.18704824704645"><ele>449.0</ele><time>2026-04-28T10:53:05Z</time></trkpt><trkpt lat="44.808575118979846" lon="9.187114341030423"><ele>449.0</ele><time>2026-04-28T10:53:06Z</time></trkpt><trkpt lat="44.80869635757489" lon="9.187178309781952"><ele>449.0</ele><time>2026-04-28T10:53:06.999Z</time></trkpt><trkpt lat="44.808826624362695" lon="9.187226248973664"><ele>449.0</ele><time>2026-04-28T10:53:07.999Z</time></trkpt><trkpt lat="44.808953802501485" lon="9.187335573960727"><ele>449.0</ele><time>2026-04-28T10:53:08.999Z</time></trkpt><trkpt lat="44.80908578828063" lon="9.187442440182814"><ele>450.0</ele><time>2026-04-28T10:53:09.999Z</time></trkpt><trkpt lat="44.8092231434887" lon="9.187600875926407"><ele>451.0</ele><time>2026-04-28T10:53:10.999Z</time></trkpt><trkpt lat="44.80937427598407" lon="9.187806979567528"><ele>452.0</ele><time>2026-04-28T10:53:11.999Z</time></trkpt><trkpt lat="44.8095082029865" lon="9.187995939368518"><ele>452.0</ele><time>2026-04-28T10:53:12.999Z</time></trkpt><trkpt lat="44.80964596776382" lon="9.18815696296974"><ele>452.0</ele><time>2026-04-28T10:53:13.999Z</time></trkpt><trkpt lat="44.8097518775064" lon="9.188311002613432"><ele>452.0</ele><time>2026-04-28T10:53:14.999Z</time></trkpt><trkpt lat="44.809847680644644" lon="9.188438378410764"><ele>446.75</ele><time>2026-04-28T10:53:15.999Z</time></trkpt><trkpt lat="44.80994490341696" lon="9.188540856030794"><ele>441.5</ele><time>2026-04-28T10:53:16.999Z</time></trkpt><trkpt lat="44.81006370784355" lon="9.188600629400655"><ele>436.25</ele><time>2026-04-28T10:53:17.999Z</time></trkpt><trkpt lat="44.81022416996251" lon="9.188624179826297"><ele>431.0</ele><time>2026-04-28T10:53:18.999Z</time></trkpt><trkpt lat="44.81040904835097" lon="9.188647065822536"><ele>431.0</ele><time>2026-04-28T10:53:19.999Z</time></trkpt><trkpt lat="44.81061212559348" lon="9.188653997004828"><ele>431.0</ele><time>2026-04-28T10:53:20.999Z</time></trkpt><trkpt lat="44.81079646293244" lon="9.188662714560888"><ele>431.0</ele><time>2026-04-28T10:53:21.999Z</time></trkpt><trkpt lat="44.8109469700909" lon="9.188679165139819"><ele>432.5</ele><time>2026-04-28T10:53:22.999Z</time></trkpt><trkpt lat="44.81107360038519" lon="9.18867059316473"><ele>434.0</ele><time>2026-04-28T10:53:23.999Z</time></trkpt><trkpt lat="44.81120264233321" lon="9.1886520158925"><ele>435.5</ele><time>2026-04-28T10:53:24.999Z</time></trkpt><trkpt lat="44.81133716655135" lon="9.188699835868324"><ele>437.0</ele><time>2026-04-28T10:53:25.999Z</time></trkpt><trkpt lat="44.81149661889312" lon="9.188811797640698"><ele>437.0</ele><time>2026-04-28T10:53:26.999Z</time></trkpt><trkpt lat="44.81167334482539" lon="9.188923589989772"><ele>437.0</ele><time>2026-04-28T10:53:27.999Z</time></trkpt><trkpt lat="44.81187281665716" lon="9.189053694472687"><ele>437.0</ele><time>2026-04-28T10:53:28.999Z</time></trkpt><trkpt lat="44.81207580531217" lon="9.189195375872815"><ele>432.3333333333333</ele><time>2026-04-28T10:53:29.999Z</time></trkpt><trkpt lat="44.81226169390703" lon="9.18932836056271"><ele>427.66666666666663</ele><time>2026-04-28T10:53:30.999Z</time></trkpt><trkpt lat="44.81242757608879" lon="9.189478789414357"><ele>423.0</ele><time>2026-04-28T10:53:31.999Z</time></trkpt><trkpt lat="44.812593918657456" lon="9.189583045421331"><ele>423.33333333333337</ele><time>2026-04-28T10:53:32.999Z</time></trkpt><trkpt lat="44.81274082525249" lon="9.189698449544611"><ele>423.6666666666667</ele><time>2026-04-28T10:53:33.999Z</time></trkpt><trkpt lat="44.81287979882689" lon="9.189806973160904"><ele>424.0</ele><time>2026-04-28T10:53:34.999Z</time></trkpt><trkpt lat="44.81299326379895" lon="9.189894382896693"><ele>423.0</ele><time>2026-04-28T10:53:35.999Z</time></trkpt><trkpt lat="44.81309779198636" lon="9.189959892788748"><ele>422.0</ele><time>2026-04-28T10:53:36.999Z</time></trkpt><trkpt lat="44.81322718019571" lon="9.189977284219761"><ele>421.0</ele><time>2026-04-28T10:53:37.999Z</time></trkpt><trkpt lat="44.813384129527506" lon="9.1899666095567"><ele>420.0</ele><time>2026-04-28T10:53:38.999Z</time></trkpt><trkpt lat="44.81356311685436" lon="9.189929606178787"><ele>420.0</ele><time>2026-04-28T10:53:39.999Z</time></trkpt><trkpt lat="44.81371613419885" lon="9.189886643118703"><ele>420.0</ele><time>2026-04-28T10:53:40.999Z</time></trkpt><trkpt lat="44.813871310972296" lon="9.189834521226393"><ele>420.0</ele><time>2026-04-28T10:53:41.999Z</time></trkpt><trkpt lat="44.81403627920188" lon="9.189763808134956"><ele>420.0</ele><time>2026-04-28T10:53:42.999Z</time></trkpt><trkpt lat="44.81419924691655" lon="9.18966440400199"><ele>420.0</ele><time>2026-04-28T10:53:43.999Z</time></trkpt><trkpt lat="44.8143327799307" lon="9.189577566355732"><ele>420.0</ele><time>2026-04-28T10:53:44.999Z</time></trkpt><trkpt lat="44.81447044624747" lon="9.189510768604865"><ele>419.66666666666663</ele><time>2026-04-28T10:53:45.999Z</time></trkpt><trkpt lat="44.814596264802496" lon="9.189400415768164"><ele>419.3333333333333</ele><time>2026-04-28T10:53:46.999Z</time></trkpt><trkpt lat="44.814716371481516" lon="9.189243183649571"><ele>419.0</ele><time>2026-04-28T10:53:47.999Z</time></trkpt><trkpt lat="44.81484289928464" lon="9.189073638116744"><ele>418.66666666666663</ele><time>2026-04-28T10:53:48.999Z</time></trkpt><trkpt lat="44.814968684305036" lon="9.188940262356677"><ele>418.33333333333337</ele><time>2026-04-28T10:53:49.999Z</time></trkpt><trkpt lat="44.815093088582245" lon="9.188801377634219"><ele>418.0</ele><time>2026-04-28T10:53:50.999Z</time></trkpt><trkpt lat="44.81521721024989" lon="9.188661957078407"><ele>415.25</ele><time>2026-04-28T10:53:51.999Z</time></trkpt><trkpt lat="44.815345313731434" lon="9.188552926505205"><ele>412.5</ele><time>2026-04-28T10:53:52.999Z</time></trkpt><trkpt lat="44.81546774141212" lon="9.188459268819406"><ele>409.75</ele><time>2026-04-28T10:53:53.999Z</time></trkpt><trkpt lat="44.8155893282412" lon="9.188369296561378"><ele>407.0</ele><time>2026-04-28T10:53:54.999Z</time></trkpt><trkpt lat="44.815727823597676" lon="9.188312785687451"><ele>407.0</ele><time>2026-04-28T10:53:55.999Z</time></trkpt><trkpt lat="44.815854850549925" lon="9.188285044248639"><ele>407.0</ele><time>2026-04-28T10:53:56.999Z</time></trkpt><trkpt lat="44.815991123742045" lon="9.18829396468592"><ele>407.0</ele><time>2026-04-28T10:53:57.999Z</time></trkpt><trkpt lat="44.81614197295161" lon="9.188326143896804"><ele>407.0</ele><time>2026-04-28T10:53:58.999Z</time></trkpt><trkpt lat="44.81628460403256" lon="9.188302313973232"><ele>407.66666666666663</ele><time>2026-04-28T10:53:59.999Z</time></trkpt><trkpt lat="44.81644239639897" lon="9.18823369822461"><ele>408.33333333333337</ele><time>2026-04-28T10:54:00.999Z</time></trkpt><trkpt lat="44.81659173314934" lon="9.18815392190787"><ele>409.0</ele><time>2026-04-28T10:54:01.999Z</time></trkpt><trkpt lat="44.81672779209809" lon="9.188083444318254"><ele>406.0</ele><time>2026-04-28T10:54:02.999Z</time></trkpt><trkpt lat="44.81687262269269" lon="9.188041117710632"><ele>403.0</ele><time>2026-04-28T10:54:03.999Z</time></trkpt><trkpt lat="44.81701780140265" lon="9.188039016871805"><ele>400.0</ele><time>2026-04-28T10:54:04.999Z</time></trkpt><trkpt lat="44.81716608411666" lon="9.188053297146975"><ele>397.0</ele><time>2026-04-28T10:54:05.999Z</time></trkpt><trkpt lat="44.8173252442048" lon="9.18807285406417"><ele>397.0</ele><time>2026-04-28T10:54:06.999Z</time></trkpt><trkpt lat="44.817467306864536" lon="9.188075039449727"><ele>397.0</ele><time>2026-04-28T10:54:07.999Z</time></trkpt><trkpt lat="44.81759705359623" lon="9.188088577688873"><ele>397.0</ele><time>2026-04-28T10:54:08.999Z</time></trkpt><trkpt lat="44.81770840524943" lon="9.188086689921365"><ele>397.0</ele><time>2026-04-28T10:54:09.999Z</time></trkpt><trkpt lat="44.817811813533694" lon="9.188035016197947"><ele>398.25</ele><time>2026-04-28T10:54:10.999Z</time></trkpt><trkpt lat="44.81791293438477" lon="9.187956136979276"><ele>399.5</ele><time>2026-04-28T10:54:11.999Z</time></trkpt><trkpt lat="44.81803411221795" lon="9.187829025258827"><ele>400.75</ele><time>2026-04-28T10:54:12.999Z</time></trkpt><trkpt lat="44.81812684058621" lon="9.187685776692906"><ele>402.0</ele><time>2026-04-28T10:54:13.999Z</time></trkpt><trkpt lat="44.81821715082343" lon="9.187561977721568"><ele>402.0</ele><time>2026-04-28T10:54:14.999Z</time></trkpt><trkpt lat="44.8183223756584" lon="9.187478159727194"><ele>402.0</ele><time>2026-04-28T10:54:15.999Z</time></trkpt><trkpt lat="44.81843166091967" lon="9.187433673263152"><ele>402.0</ele><time>2026-04-28T10:54:16.999Z</time></trkpt><trkpt lat="44.818541227562854" lon="9.187458299557873"><ele>402.0</ele><time>2026-04-28T10:54:17.999Z</time></trkpt><trkpt lat="44.81865438466446" lon="9.187489751547362"><ele>400.5</ele><time>2026-04-28T10:54:19Z</time></trkpt><trkpt lat="44.81877995086713" lon="9.187571574969121"><ele>399.0</ele><time>2026-04-28T10:54:20Z</time></trkpt><trkpt lat="44.81889510670971" lon="9.187601793665744"><ele>397.5</ele><time>2026-04-28T10:54:21Z</time></trkpt><trkpt lat="44.81900231616593" lon="9.187633566828065"><ele>396.0</ele><time>2026-04-28T10:54:22Z</time></trkpt><trkpt lat="44.81908534206372" lon="9.187696578812965"><ele>396.0</ele><time>2026-04-28T10:54:23Z</time></trkpt><trkpt lat="44.81916111103096" lon="9.187791131529066"><ele>396.0</ele><time>2026-04-28T10:54:24Z</time></trkpt><trkpt lat="44.81920664557719" lon="9.18792836279862"><ele>396.0</ele><time>2026-04-28T10:54:25Z</time></trkpt><trkpt lat="44.819244156704386" lon="9.18807530506959"><ele>396.0</ele><time>2026-04-28T10:54:26Z</time></trkpt><trkpt lat="44.81925799159316" lon="9.188239260980298"><ele>396.0</ele><time>2026-04-28T10:54:27Z</time></trkpt><trkpt lat="44.81927010988324" lon="9.188437299328497"><ele>398.66666666666663</ele><time>2026-04-28T10:54:28Z</time></trkpt><trkpt lat="44.81927592547987" lon="9.188678934752907"><ele>401.3333333333333</ele><time>2026-04-28T10:54:29Z</time></trkpt><trkpt lat="44.81928480602112" lon="9.188952066046538"><ele>404.0</ele><time>2026-04-28T10:54:30Z</time></trkpt><trkpt lat="44.819298751278005" lon="9.189236049561178"><ele>400.3333333333333</ele><time>2026-04-28T10:54:31Z</time></trkpt><trkpt lat="44.81932215096857" lon="9.189488447482752"><ele>396.66666666666663</ele><time>2026-04-28T10:54:32Z</time></trkpt><trkpt lat="44.81933793550344" lon="9.189738586437613"><ele>393.0</ele><time>2026-04-28T10:54:33Z</time></trkpt><trkpt lat="44.81935095992107" lon="9.189975124610404"><ele>393.0</ele><time>2026-04-28T10:54:34Z</time></trkpt><trkpt lat="44.81934628951593" lon="9.190212148765049"><ele>393.0</ele><time>2026-04-28T10:54:35Z</time></trkpt><trkpt lat="44.819353354990774" lon="9.190442800870466"><ele>393.0</ele><time>2026-04-28T10:54:36Z</time></trkpt><trkpt lat="44.81936639567351" lon="9.19067150745684"><ele>393.66666666666663</ele><time>2026-04-28T10:54:37Z</time></trkpt><trkpt lat="44.81938593055316" lon="9.19088804313957"><ele>394.3333333333333</ele><time>2026-04-28T10:54:38Z</time></trkpt><trkpt lat="44.81941295219655" lon="9.191108780303285"><ele>395.0</ele><time>2026-04-28T10:54:39Z</time></trkpt><trkpt lat="44.81945728009192" lon="9.191339399332321"><ele>396.0</ele><time>2026-04-28T10:54:40Z</time></trkpt><trkpt lat="44.819533852394365" lon="9.191566073205626"><ele>397.0</ele><time>2026-04-28T10:54:41Z</time></trkpt><trkpt lat="44.8196096637165" lon="9.191784997793802"><ele>398.0</ele><time>2026-04-28T10:54:42Z</time></trkpt><trkpt lat="44.81968723976828" lon="9.19199042154227"><ele>398.0</ele><time>2026-04-28T10:54:43Z</time></trkpt><trkpt lat="44.8197449361642" lon="9.192194634510892"><ele>398.0</ele><time>2026-04-28T10:54:44Z</time></trkpt><trkpt lat="44.819756367150184" lon="9.192396969947385"><ele>398.0</ele><time>2026-04-28T10:54:45Z</time></trkpt><trkpt lat="44.819775019145396" lon="9.192584921998746"><ele>398.0</ele><time>2026-04-28T10:54:46Z</time></trkpt><trkpt lat="44.81980012966151" lon="9.192782914817831"><ele>398.5</ele><time>2026-04-28T10:54:47Z</time></trkpt><trkpt lat="44.81982272726774" lon="9.192979968011981"><ele>399.0</ele><time>2026-04-28T10:54:48Z</time></trkpt><trkpt lat="44.81984195743876" lon="9.193157523609722"><ele>399.5</ele><time>2026-04-28T10:54:49Z</time></trkpt><trkpt lat="44.81986769921587" lon="9.193326600654201"><ele>400.0</ele><time>2026-04-28T10:54:50Z</time></trkpt><trkpt lat="44.81987883902137" lon="9.19350500973133"><ele>400.5</ele><time>2026-04-28T10:54:51Z</time></trkpt><trkpt lat="44.819922776465496" lon="9.193678351342797"><ele>401.0</ele><time>2026-04-28T10:54:52Z</time></trkpt><trkpt lat="44.81999043016462" lon="9.1938341421739"><ele>401.5</ele><time>2026-04-28T10:54:53Z</time></trkpt><trkpt lat="44.82002882189715" lon="9.194001720958"><ele>402.0</ele><time>2026-04-28T10:54:54Z</time></trkpt><trkpt lat="44.820014776383225" lon="9.194177899139524"><ele>403.25</ele><time>2026-04-28T10:54:55Z</time></trkpt><trkpt lat="44.82000976946901" lon="9.194366120335015"><ele>404.5</ele><time>2026-04-28T10:54:56Z</time></trkpt><trkpt lat="44.820002673110125" lon="9.194563399883478"><ele>405.75</ele><time>2026-04-28T10:54:57Z</time></trkpt><trkpt lat="44.82001277169513" lon="9.19476369304905"><ele>407.0</ele><time>2026-04-28T10:54:58Z</time></trkpt><trkpt lat="44.82001348296118" lon="9.194961938989046"><ele>407.25</ele><time>2026-04-28T10:54:59Z</time></trkpt><trkpt lat="44.82002228976272" lon="9.195128015271049"><ele>407.5</ele><time>2026-04-28T10:55:00Z</time></trkpt><trkpt lat="44.82006168500744" lon="9.195272020401383"><ele>407.75</ele><time>2026-04-28T10:55:01Z</time></trkpt><trkpt lat="44.82016399497085" lon="9.195360290414936"><ele>408.0</ele><time>2026-04-28T10:55:02Z</time></trkpt><trkpt lat="44.82025573601622" lon="9.19542465769634"><ele>406.25</ele><time>2026-04-28T10:55:03Z</time></trkpt><trkpt lat="44.82037092273255" lon="9.195469480721018"><ele>404.5</ele><time>2026-04-28T10:55:04Z</time></trkpt><trkpt lat="44.82050267601057" lon="9.19550242126368"><ele>402.75</ele><time>2026-04-28T10:55:05Z</time></trkpt><trkpt lat="44.82064448489991" lon="9.195537908139059"><ele>401.0</ele><time>2026-04-28T10:55:05.999Z</time></trkpt><trkpt lat="44.82079804203271" lon="9.19559339373729"><ele>401.0</ele><time>2026-04-28T10:55:06.999Z</time></trkpt><trkpt lat="44.8209517392701" lon="9.195642101980406"><ele>401.0</ele><time>2026-04-28T10:55:07.999Z</time></trkpt><trkpt lat="44.82111480057436" lon="9.195703281155788"><ele>401.0</ele><time>2026-04-28T10:55:08.999Z</time></trkpt><trkpt lat="44.82127450344699" lon="9.195752843252745"><ele>400.75</ele><time>2026-04-28T10:55:09.999Z</time></trkpt><trkpt lat="44.82142175528166" lon="9.195804785715882"><ele>400.5</ele><time>2026-04-28T10:55:10.999Z</time></trkpt><trkpt lat="44.82155613713928" lon="9.195848822685896"><ele>400.25</ele><time>2026-04-28T10:55:11.999Z</time></trkpt><trkpt lat="44.821687612752605" lon="9.19589274407317"><ele>400.0</ele><time>2026-04-28T10:55:12.999Z</time></trkpt><trkpt lat="44.82180582851031" lon="9.195933052236962"><ele>401.2</ele><time>2026-04-28T10:55:13.999Z</time></trkpt><trkpt lat="44.8219047861702" lon="9.195966083669797"><ele>402.4</ele><time>2026-04-28T10:55:14.999Z</time></trkpt><trkpt lat="44.82197815458073" lon="9.19598612374877"><ele>403.6</ele><time>2026-04-28T10:55:15.999Z</time></trkpt><trkpt lat="44.82205817831026" lon="9.19601734466281"><ele>404.8</ele><time>2026-04-28T10:55:18.999Z</time></trkpt><trkpt lat="44.82217987118977" lon="9.19608316043163"><ele>406.0</ele><time>2026-04-28T10:55:20.999Z</time></trkpt><trkpt lat="44.82227805225206" lon="9.1961416909541"><ele>406.0</ele><time>2026-04-28T10:55:21.999Z</time></trkpt><trkpt lat="44.822382052705514" lon="9.196204530168863"><ele>406.0</ele><time>2026-04-28T10:55:22.999Z</time></trkpt><trkpt lat="44.8225183324551" lon="9.1962851809731"><ele>406.0</ele><time>2026-04-28T10:55:23.999Z</time></trkpt><trkpt lat="44.82263855490442" lon="9.196351572821351"><ele>406.0</ele><time>2026-04-28T10:55:24.999Z</time></trkpt><trkpt lat="44.82274190511703" lon="9.196411354889912"><ele>407.00000000000006</ele><time>2026-04-28T10:55:25.999Z</time></trkpt><trkpt lat="44.82282791307602" lon="9.196454377954302"><ele>408.0</ele><time>2026-04-28T10:55:26.999Z</time></trkpt><trkpt lat="44.822904008222075" lon="9.196491751274385"><ele>409.0</ele><time>2026-04-28T10:55:27.999Z</time></trkpt><trkpt lat="44.822967091387845" lon="9.196545933030635"><ele>410.0</ele><time>2026-04-28T10:55:28.999Z</time></trkpt><trkpt lat="44.822998088834495" lon="9.196445283357505"><ele>411.00000000000006</ele><time>2026-04-28T10:55:34.999Z</time></trkpt><trkpt lat="44.823051526101345" lon="9.196382817408107"><ele>412.0</ele><time>2026-04-28T10:55:36.999Z</time></trkpt><trkpt lat="44.82314801101613" lon="9.19637133422751"><ele>412.0</ele><time>2026-04-28T10:55:38.999Z</time></trkpt><trkpt lat="44.82319215668166" lon="9.196236971906433"><ele>412.0</ele><time>2026-04-28T10:55:43.999Z</time></trkpt><trkpt lat="44.82333509747384" lon="9.196233981956539"><ele>412.0</ele><time>2026-04-28T10:55:44.999Z</time></trkpt><trkpt lat="44.8233850328552" lon="9.196131946894946"><ele>412.0</ele><time>2026-04-28T10:55:46.999Z</time></trkpt><trkpt lat="44.823384446017" lon="9.195962083052088"><ele>412.0</ele><time>2026-04-28T10:55:48.999Z</time></trkpt><trkpt lat="44.823334236024564" lon="9.196086558054304"><ele>412.0</ele><time>2026-04-28T10:55:53.999Z</time></trkpt><trkpt lat="44.823389855118755" lon="9.196137856587404"><ele>412.0</ele><time>2026-04-28T10:56:05.999Z</time></trkpt><trkpt lat="44.82328768167567" lon="9.196117918429577"><ele>412.0</ele><time>2026-04-28T10:57:38.999Z</time></trkpt><trkpt lat="44.82317955459305" lon="9.196475458408147"><ele>412.0</ele><time>2026-04-28T10:58:39Z</time></trkpt><trkpt lat="44.823134614204626" lon="9.196576475708664"><ele>412.0</ele><time>2026-04-28T10:58:43Z</time></trkpt><trkpt lat="44.82313682316958" lon="9.196041352602954"><ele>412.00000000000006</ele><time>2026-04-28T10:58:45Z</time></trkpt><trkpt lat="44.82318700731112" lon="9.195966765776406"><ele>412.0</ele><time>2026-04-28T10:58:46Z</time></trkpt><trkpt lat="44.82324955057827" lon="9.19595360756777"><ele>412.0</ele><time>2026-04-28T10:58:48Z</time></trkpt><trkpt lat="44.82337968305812" lon="9.196026432004023"><ele>412.0</ele><time>2026-04-28T10:58:51Z</time></trkpt><trkpt lat="44.82335738684152" lon="9.19613595684764"><ele>412.00000000000006</ele><time>2026-04-28T10:58:59Z</time></trkpt><trkpt lat="44.823392186637335" lon="9.19603244829707"><ele>412.0</ele><time>2026-04-28T11:26:44.017Z</time></trkpt><trkpt lat="44.82333416715283" lon="9.195991660102909"><ele>412.0</ele><time>2026-04-28T11:26:46Z</time></trkpt><trkpt lat="44.8234184060264" lon="9.19604540201009"><ele>412.0</ele><time>2026-04-28T11:26:47Z</time></trkpt><trkpt lat="44.82351945914617" lon="9.195900219614701"><ele>412.0</ele><time>2026-04-28T12:06:46Z</time></trkpt><trkpt lat="44.8234210032194" lon="9.196024499984583"><ele>412.0</ele><time>2026-04-28T12:06:50Z</time></trkpt><trkpt lat="44.823494679336534" lon="9.196177823477607"><ele>412.0</ele><time>2026-04-28T12:06:54.999Z</time></trkpt><trkpt lat="44.82332733463971" lon="9.19646146708093"><ele>412.0</ele><time>2026-04-28T12:07:09.999Z</time></trkpt><trkpt lat="44.82342371844508" lon="9.196046672417202"><ele>412.0</ele><time>2026-04-28T12:07:11.999Z</time></trkpt></trkseg></trk></gpx>